<?xml version='1.0' encoding='UTF-8'?><gpx version="1.1" creator="JPX - https://github.com/jenetics/jpx" xmlns="http://www.topografix.com/GPX/1/1"><trk><trkseg><trkpt lat="42.52036776459423" lon="14.1373826852205"><ele>6.3999999999999995</ele><time>2026-05-02T05:59:51.001Z</time></trkpt><trkpt lat="42.520458596378" lon="14.137479409267092"><ele>5.799999999999999</ele><time>2026-05-02T05:59:53.001Z</time></trkpt><trkpt lat="42.52053480026421" lon="14.137566156267427"><ele>5.2</ele><time>2026-05-02T05:59:55.001Z</time></trkpt><trkpt lat="42.5206002513465" lon="14.137649337610501"><ele>4.6</ele><time>2026-05-02T05:59:57.001Z</time></trkpt><trkpt lat="42.52066827276994" lon="14.13769603851854"><ele>4.0</ele><time>2026-05-02T05:59:59.001Z</time></trkpt><trkpt lat="42.520742819873036" lon="14.13775703238779"><ele>4.0</ele><time>2026-05-02T06:00:38Z</time></trkpt><trkpt lat="42.52080739244648" lon="14.137818157348116"><ele>4.0</ele><time>2026-05-02T06:00:59Z</time></trkpt><trkpt lat="42.52087068878003" lon="14.137863604869692"><ele>4.0</ele><time>2026-05-02T06:01:01Z</time></trkpt><trkpt lat="42.52094667985729" lon="14.137877400205296"><ele>4.0</ele><time>2026-05-02T06:01:04Z</time></trkpt><trkpt lat="42.521030240265354" lon="14.137879829236939"><ele>4.0</ele><time>2026-05-02T06:01:07Z</time></trkpt><trkpt lat="42.521142896623495" lon="14.137990770440243"><ele>3.9999999999999996</ele><time>2026-05-02T06:01:09Z</time></trkpt><trkpt lat="42.52119852418963" lon="14.138076919367288"><ele>4.0</ele><time>2026-05-02T06:01:10Z</time></trkpt><trkpt lat="42.52124563468008" lon="14.138154955869242"><ele>4.0</ele><time>2026-05-02T06:01:11Z</time></trkpt><trkpt lat="42.521278718271965" lon="14.138227970758969"><ele>4.0</ele><time>2026-05-02T06:01:12Z</time></trkpt><trkpt lat="42.52131804371702" lon="14.13830210971257"><ele>3.9999999999999996</ele><time>2026-05-02T06:01:13Z</time></trkpt><trkpt lat="42.521348846295524" lon="14.138384889772597"><ele>4.0</ele><time>2026-05-02T06:01:14Z</time></trkpt><trkpt lat="42.52139232483148" lon="14.138516472508384"><ele>4.0</ele><time>2026-05-02T06:01:16Z</time></trkpt><trkpt lat="42.52141856665537" lon="14.138608841291871"><ele>4.0</ele><time>2026-05-02T06:01:18Z</time></trkpt><trkpt lat="42.5214497432834" lon="14.138709824449274"><ele>4.0</ele><time>2026-05-02T06:01:22Z</time></trkpt><trkpt lat="42.52149209527522" lon="14.138809937462469"><ele>4.0</ele><time>2026-05-02T06:01:24Z</time></trkpt><trkpt lat="42.52153641754528" lon="14.138949540058562"><ele>4.0</ele><time>2026-05-02T06:01:25.999Z</time></trkpt><trkpt lat="42.5215858968892" lon="14.139096949628772"><ele>4.0</ele><time>2026-05-02T06:01:27.999Z</time></trkpt><trkpt lat="42.52165519605321" lon="14.139259871607441"><ele>4.0</ele><time>2026-05-02T06:01:29.999Z</time></trkpt><trkpt lat="42.52169483598273" lon="14.139367358704549"><ele>4.0</ele><time>2026-05-02T06:01:30.999Z</time></trkpt><trkpt lat="42.521731125861876" lon="14.139484862185684"><ele>4.0</ele><time>2026-05-02T06:01:31.999Z</time></trkpt><trkpt lat="42.52177312408561" lon="14.139592629360369"><ele>4.0</ele><time>2026-05-02T06:01:32.999Z</time></trkpt><trkpt lat="42.52181700111769" lon="14.139702275337438"><ele>3.9999999999999996</ele><time>2026-05-02T06:01:33.999Z</time></trkpt><trkpt lat="42.521859223465064" lon="14.139801633466064"><ele>4.0</ele><time>2026-05-02T06:01:34.999Z</time></trkpt><trkpt lat="42.5219003656215" lon="14.139899704575793"><ele>4.0</ele><time>2026-05-02T06:01:35.999Z</time></trkpt><trkpt lat="42.52194355480158" lon="14.139992344199491"><ele>4.0</ele><time>2026-05-02T06:01:36.999Z</time></trkpt><trkpt lat="42.521985661390055" lon="14.14008186425386"><ele>3.9999999999999996</ele><time>2026-05-02T06:01:37.999Z</time></trkpt><trkpt lat="42.522030059111934" lon="14.140187028413358"><ele>4.0</ele><time>2026-05-02T06:01:38.999Z</time></trkpt><trkpt lat="42.522079236704336" lon="14.140298690671171"><ele>4.0</ele><time>2026-05-02T06:01:39.999Z</time></trkpt><trkpt lat="42.52213025158296" lon="14.140406818318372"><ele>4.0</ele><time>2026-05-02T06:01:40.999Z</time></trkpt><trkpt lat="42.52217868705013" lon="14.140509486413832"><ele>4.0</ele><time>2026-05-02T06:01:41.999Z</time></trkpt><trkpt lat="42.52223660988345" lon="14.140624923674988"><ele>4.0</ele><time>2026-05-02T06:01:42.999Z</time></trkpt><trkpt lat="42.522301524193686" lon="14.140752664514316"><ele>4.0</ele><time>2026-05-02T06:01:43.999Z</time></trkpt><trkpt lat="42.52236741635414" lon="14.1408878717625"><ele>4.0</ele><time>2026-05-02T06:01:44.999Z</time></trkpt><trkpt lat="42.52242501817865" lon="14.141008966183744"><ele>4.0</ele><time>2026-05-02T06:01:45.999Z</time></trkpt><trkpt lat="42.522483992675305" lon="14.141127462688587"><ele>4.0</ele><time>2026-05-02T06:01:46.999Z</time></trkpt><trkpt lat="42.52254065310916" lon="14.14124611108265"><ele>4.0</ele><time>2026-05-02T06:01:47.999Z</time></trkpt><trkpt lat="42.52258504703828" lon="14.141345600083808"><ele>4.0</ele><time>2026-05-02T06:01:48.999Z</time></trkpt><trkpt lat="42.52262693609161" lon="14.141430966141103"><ele>3.9999999999999996</ele><time>2026-05-02T06:01:49.999Z</time></trkpt><trkpt lat="42.52266297380525" lon="14.141507010911948"><ele>4.0</ele><time>2026-05-02T06:01:50.999Z</time></trkpt><trkpt lat="42.52270052282159" lon="14.141577284918233"><ele>4.0</ele><time>2026-05-02T06:01:51.999Z</time></trkpt><trkpt lat="42.522767264666044" lon="14.141724894654592"><ele>4.0</ele><time>2026-05-02T06:01:54Z</time></trkpt><trkpt lat="42.52280612940293" lon="14.14181011587659"><ele>3.9999999999999996</ele><time>2026-05-02T06:01:55Z</time></trkpt><trkpt lat="42.52283814615449" lon="14.141912305895127"><ele>4.0</ele><time>2026-05-02T06:01:56Z</time></trkpt><trkpt lat="42.52286593980602" lon="14.142023136711732"><ele>4.0</ele><time>2026-05-02T06:01:57Z</time></trkpt><trkpt lat="42.522905257964794" lon="14.142134060069079"><ele>4.0</ele><time>2026-05-02T06:01:58Z</time></trkpt><trkpt lat="42.52296737828221" lon="14.1422298929207"><ele>4.0</ele><time>2026-05-02T06:01:59Z</time></trkpt><trkpt lat="42.52305002742451" lon="14.142301614807172"><ele>4.0</ele><time>2026-05-02T06:02:00Z</time></trkpt><trkpt lat="42.52312683658341" lon="14.142373554622619"><ele>4.0</ele><time>2026-05-02T06:02:01Z</time></trkpt><trkpt lat="42.52319527661832" lon="14.142464334223279"><ele>4.0</ele><time>2026-05-02T06:02:02Z</time></trkpt><trkpt lat="42.52325121557128" lon="14.142569717664257"><ele>4.0</ele><time>2026-05-02T06:02:03Z</time></trkpt><trkpt lat="42.523309806321066" lon="14.142671168842277"><ele>4.0</ele><time>2026-05-02T06:02:04Z</time></trkpt><trkpt lat="42.52340343633043" lon="14.142788022520593"><ele>4.0</ele><time>2026-05-02T06:02:06Z</time></trkpt><trkpt lat="42.52344472507034" lon="14.142863130868108"><ele>4.0</ele><time>2026-05-02T06:02:07Z</time></trkpt><trkpt lat="42.52349174867253" lon="14.142947195362618"><ele>3.9999999999999996</ele><time>2026-05-02T06:02:08Z</time></trkpt><trkpt lat="42.52353519034743" lon="14.143039217820345"><ele>4.0</ele><time>2026-05-02T06:02:09Z</time></trkpt><trkpt lat="42.52358206275196" lon="14.143130537245257"><ele>4.0</ele><time>2026-05-02T06:02:10Z</time></trkpt><trkpt lat="42.523638546169224" lon="14.143228746185605"><ele>4.0</ele><time>2026-05-02T06:02:11Z</time></trkpt><trkpt lat="42.52369301307313" lon="14.143326282303251"><ele>3.9999999999999996</ele><time>2026-05-02T06:02:12Z</time></trkpt><trkpt lat="42.52375194720348" lon="14.143428209755204"><ele>4.0</ele><time>2026-05-02T06:02:13Z</time></trkpt><trkpt lat="42.52380746687403" lon="14.143529883150647"><ele>3.9999999999999996</ele><time>2026-05-02T06:02:14Z</time></trkpt><trkpt lat="42.52385909959199" lon="14.143624594948635"><ele>4.0</ele><time>2026-05-02T06:02:15Z</time></trkpt><trkpt lat="42.52389728365873" lon="14.143712276426987"><ele>4.0</ele><time>2026-05-02T06:02:16Z</time></trkpt><trkpt lat="42.52390820334049" lon="14.143800017344045"><ele>4.0</ele><time>2026-05-02T06:02:17Z</time></trkpt><trkpt lat="42.52389039664388" lon="14.14389860942631"><ele>3.9999999999999996</ele><time>2026-05-02T06:02:18Z</time></trkpt><trkpt lat="42.52385412572061" lon="14.143997165870639"><ele>4.0</ele><time>2026-05-02T06:02:19Z</time></trkpt><trkpt lat="42.52380397561496" lon="14.144090920973088"><ele>4.25</ele><time>2026-05-02T06:02:20Z</time></trkpt><trkpt lat="42.523728170150264" lon="14.144169631762749"><ele>4.5</ele><time>2026-05-02T06:02:21Z</time></trkpt><trkpt lat="42.52363917990394" lon="14.14425075613653"><ele>4.75</ele><time>2026-05-02T06:02:22Z</time></trkpt><trkpt lat="42.52353701381017" lon="14.144345645729384"><ele>5.0</ele><time>2026-05-02T06:02:23Z</time></trkpt><trkpt lat="42.52342207794036" lon="14.144459587176813"><ele>5.0</ele><time>2026-05-02T06:02:24Z</time></trkpt><trkpt lat="42.523305749931005" lon="14.144577311705596"><ele>5.0</ele><time>2026-05-02T06:02:25Z</time></trkpt><trkpt lat="42.52318150909806" lon="14.144701825736966"><ele>5.0</ele><time>2026-05-02T06:02:26Z</time></trkpt><trkpt lat="42.52306293198104" lon="14.144818946194365"><ele>5.0</ele><time>2026-05-02T06:02:27Z</time></trkpt><trkpt lat="42.522948331740906" lon="14.14493475112342"><ele>4.5</ele><time>2026-05-02T06:02:28Z</time></trkpt><trkpt lat="42.522835212747054" lon="14.145060086395045"><ele>4.0</ele><time>2026-05-02T06:02:29Z</time></trkpt><trkpt lat="42.52273037150429" lon="14.145201819208731"><ele>3.5</ele><time>2026-05-02T06:02:30Z</time></trkpt><trkpt lat="42.52264045668343" lon="14.145362533215621"><ele>3.0</ele><time>2026-05-02T06:02:31Z</time></trkpt><trkpt lat="42.52256641292686" lon="14.14554088057837"><ele>2.3333333333333335</ele><time>2026-05-02T06:02:32Z</time></trkpt><trkpt lat="42.522506266152746" lon="14.145727933240979"><ele>1.6666666666666665</ele><time>2026-05-02T06:02:33Z</time></trkpt><trkpt lat="42.5224641739194" lon="14.145924629394527"><ele>1.0</ele><time>2026-05-02T06:02:34Z</time></trkpt><trkpt lat="42.52243099302462" lon="14.146120873300827"><ele>1.0</ele><time>2026-05-02T06:02:35Z</time></trkpt><trkpt lat="42.52240073144255" lon="14.146326143884608"><ele>1.0</ele><time>2026-05-02T06:02:36Z</time></trkpt><trkpt lat="42.5223692076464" lon="14.146529163095323"><ele>1.0</ele><time>2026-05-02T06:02:37Z</time></trkpt><trkpt lat="42.522337422181195" lon="14.146733964336587"><ele>0.0</ele><time>2026-05-02T06:02:38Z</time></trkpt><trkpt lat="42.52230546779139" lon="14.146937411366176"><ele>-1.0</ele><time>2026-05-02T06:02:39Z</time></trkpt><trkpt lat="42.52227294280282" lon="14.14714388724703"><ele>-2.0</ele><time>2026-05-02T06:02:40Z</time></trkpt><trkpt lat="42.52224091640403" lon="14.147348570361945"><ele>-1.25</ele><time>2026-05-02T06:02:41Z</time></trkpt><trkpt lat="42.52220922198253" lon="14.147549599852928"><ele>-0.5</ele><time>2026-05-02T06:02:42Z</time></trkpt><trkpt lat="42.522178249877676" lon="14.147747676867937"><ele>0.25</ele><time>2026-05-02T06:02:43Z</time></trkpt><trkpt lat="42.522149289650905" lon="14.147938497564647"><ele>1.0</ele><time>2026-05-02T06:02:44Z</time></trkpt><trkpt lat="42.52212613224557" lon="14.148117590171006"><ele>0.75</ele><time>2026-05-02T06:02:45Z</time></trkpt><trkpt lat="42.52211087873495" lon="14.148289669019796"><ele>0.5</ele><time>2026-05-02T06:02:46Z</time></trkpt><trkpt lat="42.522109637968626" lon="14.14846671788483"><ele>0.25</ele><time>2026-05-02T06:02:47Z</time></trkpt><trkpt lat="42.52212439648863" lon="14.148646066616612"><ele>0.0</ele><time>2026-05-02T06:02:48Z</time></trkpt><trkpt lat="42.52215757209141" lon="14.148825630818475"><ele>0.0</ele><time>2026-05-02T06:02:49Z</time></trkpt><trkpt lat="42.52220868159736" lon="14.149001788820112"><ele>0.0</ele><time>2026-05-02T06:02:50Z</time></trkpt><trkpt lat="42.52226942469145" lon="14.149173255511434"><ele>0.0</ele><time>2026-05-02T06:02:51Z</time></trkpt><trkpt lat="42.52234034682856" lon="14.149338222137464"><ele>0.0</ele><time>2026-05-02T06:02:52Z</time></trkpt><trkpt lat="42.522414749003026" lon="14.149498563465775"><ele>0.0</ele><time>2026-05-02T06:02:53Z</time></trkpt><trkpt lat="42.52248852121891" lon="14.149657112232598"><ele>0.0</ele><time>2026-05-02T06:02:54Z</time></trkpt><trkpt lat="42.52256083995786" lon="14.149811464619933"><ele>0.0</ele><time>2026-05-02T06:02:55Z</time></trkpt><trkpt lat="42.52263016857721" lon="14.1499529301508"><ele>0.0</ele><time>2026-05-02T06:02:56Z</time></trkpt><trkpt lat="42.52269041725457" lon="14.150074444316239"><ele>1.0</ele><time>2026-05-02T06:02:57Z</time></trkpt><trkpt lat="42.52273708056687" lon="14.150181763384474"><ele>2.0</ele><time>2026-05-02T06:02:58Z</time></trkpt><trkpt lat="42.52277202286054" lon="14.150276633736992"><ele>3.0</ele><time>2026-05-02T06:02:59Z</time></trkpt><trkpt lat="42.52278356930805" lon="14.150408284398942"><ele>4.0</ele><time>2026-05-02T06:03:01Z</time></trkpt><trkpt lat="42.52275974142798" lon="14.150509837602426"><ele>5.0</ele><time>2026-05-02T06:03:04Z</time></trkpt><trkpt lat="42.52267292589932" lon="14.150622973833217"><ele>5.0</ele><time>2026-05-02T06:03:06Z</time></trkpt><trkpt lat="42.522621616552385" lon="14.150683467179958"><ele>5.0</ele><time>2026-05-02T06:03:07Z</time></trkpt><trkpt lat="42.52258187018228" lon="14.150834706584376"><ele>5.0</ele><time>2026-05-02T06:03:08.999Z</time></trkpt><trkpt lat="42.522635674153996" lon="14.150980033655808"><ele>5.0</ele><time>2026-05-02T06:03:10.999Z</time></trkpt><trkpt lat="42.52269756244392" lon="14.151002913843634"><ele>5.0</ele><time>2026-05-02T06:03:11.999Z</time></trkpt><trkpt lat="42.52281900157804" lon="14.150976614891057"><ele>4.8</ele><time>2026-05-02T06:03:13.999Z</time></trkpt><trkpt lat="42.522875919361404" lon="14.150935085903427"><ele>4.6</ele><time>2026-05-02T06:03:14.999Z</time></trkpt><trkpt lat="42.52295828189096" lon="14.1508953075373"><ele>4.4</ele><time>2026-05-02T06:03:16.999Z</time></trkpt><trkpt lat="42.52304881597068" lon="14.151111576578172"><ele>4.2</ele><time>2026-05-02T06:03:17.999Z</time></trkpt><trkpt lat="42.52308490324832" lon="14.151220246446218"><ele>4.0</ele><time>2026-05-02T06:03:18.999Z</time></trkpt><trkpt lat="42.523138512473054" lon="14.151333421634572"><ele>3.25</ele><time>2026-05-02T06:03:19.999Z</time></trkpt><trkpt lat="42.52320047319858" lon="14.151457646553155"><ele>2.5</ele><time>2026-05-02T06:03:20.999Z</time></trkpt><trkpt lat="42.52326241510008" lon="14.151591347747216"><ele>1.75</ele><time>2026-05-02T06:03:21.999Z</time></trkpt><trkpt lat="42.52332388228156" lon="14.151723962951863"><ele>1.0</ele><time>2026-05-02T06:03:22.999Z</time></trkpt><trkpt lat="42.52338191212392" lon="14.151846333006233"><ele>1.0</ele><time>2026-05-02T06:03:23.999Z</time></trkpt><trkpt lat="42.52343324225557" lon="14.15195784783333"><ele>1.0</ele><time>2026-05-02T06:03:24.999Z</time></trkpt><trkpt lat="42.52347644514538" lon="14.15204756055769"><ele>1.0</ele><time>2026-05-02T06:03:25.999Z</time></trkpt><trkpt lat="42.523509009674356" lon="14.152121698271483"><ele>1.0</ele><time>2026-05-02T06:03:26.999Z</time></trkpt><trkpt lat="42.52353958203436" lon="14.152256923468906"><ele>1.0</ele><time>2026-05-02T06:03:28.999Z</time></trkpt><trkpt lat="42.5234485046404" lon="14.152369246090137"><ele>1.0</ele><time>2026-05-02T06:03:30.999Z</time></trkpt><trkpt lat="42.52337564754566" lon="14.152416459356893"><ele>1.0</ele><time>2026-05-02T06:03:31.999Z</time></trkpt><trkpt lat="42.52329724205782" lon="14.152482510002589"><ele>1.0</ele><time>2026-05-02T06:03:32.999Z</time></trkpt><trkpt lat="42.523213416338606" lon="14.15255603767253"><ele>1.0</ele><time>2026-05-02T06:03:33.999Z</time></trkpt><trkpt lat="42.52312402226021" lon="14.152631351076755"><ele>1.0</ele><time>2026-05-02T06:03:34.999Z</time></trkpt><trkpt lat="42.523037554823695" lon="14.152706794644113"><ele>0.9999999999999999</ele><time>2026-05-02T06:03:35.999Z</time></trkpt><trkpt lat="42.52295811484963" lon="14.152776666622435"><ele>1.0</ele><time>2026-05-02T06:03:36.999Z</time></trkpt><trkpt lat="42.52288397333358" lon="14.152840045209453"><ele>1.0</ele><time>2026-05-02T06:03:37.999Z</time></trkpt><trkpt lat="42.52282640746215" lon="14.152890948930335"><ele>1.0</ele><time>2026-05-02T06:03:38.999Z</time></trkpt><trkpt lat="42.52273932073702" lon="14.152939194286954"><ele>0.9999999999999999</ele><time>2026-05-02T06:03:40.999Z</time></trkpt><trkpt lat="42.52267771664801" lon="14.152969284375517"><ele>1.0</ele><time>2026-05-02T06:03:43.999Z</time></trkpt><trkpt lat="42.52254789321059" lon="14.152938945844443"><ele>1.1666666666666665</ele><time>2026-05-02T06:03:45.999Z</time></trkpt><trkpt lat="42.52247144690212" lon="14.152985975064327"><ele>1.3333333333333333</ele><time>2026-05-02T06:03:47.999Z</time></trkpt><trkpt lat="42.52240901512464" lon="14.153006613024594"><ele>1.5</ele><time>2026-05-02T06:03:49.999Z</time></trkpt><trkpt lat="42.52234863287732" lon="14.15289972484349"><ele>1.6666666666666665</ele><time>2026-05-02T06:03:52.999Z</time></trkpt><trkpt lat="42.522297137750634" lon="14.152798612890658"><ele>1.8333333333333333</ele><time>2026-05-02T06:03:54.999Z</time></trkpt><trkpt lat="42.522252029857526" lon="14.15269852740089"><ele>2.0</ele><time>2026-05-02T06:03:56.999Z</time></trkpt><trkpt lat="42.522209441097175" lon="14.152629255703623"><ele>1.9999999999999998</ele><time>2026-05-02T06:03:59Z</time></trkpt><trkpt lat="42.522194865798646" lon="14.15254433362511"><ele>2.0</ele><time>2026-05-02T06:04:03Z</time></trkpt><trkpt lat="42.52211173771004" lon="14.152476870703"><ele>2.0</ele><time>2026-05-02T06:15:41.999Z</time></trkpt><trkpt lat="42.522075640038004" lon="14.152376170930266"><ele>2.0</ele><time>2026-05-02T06:15:44.999Z</time></trkpt><trkpt lat="42.522048440862044" lon="14.152284068809426"><ele>1.9999999999999998</ele><time>2026-05-02T06:15:46.999Z</time></trkpt><trkpt lat="42.52200867368248" lon="14.152211397284084"><ele>2.0</ele><time>2026-05-02T06:15:48.999Z</time></trkpt><trkpt lat="42.52196810451011" lon="14.152135298716672"><ele>1.6666666666666665</ele><time>2026-05-02T06:15:50.999Z</time></trkpt><trkpt lat="42.52191867421249" lon="14.152031038670204"><ele>1.3333333333333333</ele><time>2026-05-02T06:15:52.999Z</time></trkpt><trkpt lat="42.521870011005184" lon="14.15197107520267"><ele>1.0</ele><time>2026-05-02T06:15:54.999Z</time></trkpt><trkpt lat="42.52179569773647" lon="14.151969825564715"><ele>0.6666666666666666</ele><time>2026-05-02T06:15:57.999Z</time></trkpt><trkpt lat="42.521742608320146" lon="14.152067318014756"><ele>0.3333333333333333</ele><time>2026-05-02T06:16:01.999Z</time></trkpt><trkpt lat="42.52177100718688" lon="14.15218049333491"><ele>0.0</ele><time>2026-05-02T06:16:03.999Z</time></trkpt><trkpt lat="42.52181759697033" lon="14.152275307344956"><ele>0.0</ele><time>2026-05-02T06:16:05.999Z</time></trkpt><trkpt lat="42.52185544118063" lon="14.152371188222274"><ele>0.0</ele><time>2026-05-02T06:16:07.999Z</time></trkpt><trkpt lat="42.521895211168335" lon="14.152439404015153"><ele>0.0</ele><time>2026-05-02T06:16:10.999Z</time></trkpt><trkpt lat="42.52193724780521" lon="14.152532302652315"><ele>0.0</ele><time>2026-05-02T06:16:39.998Z</time></trkpt><trkpt lat="42.52198469076312" lon="14.15260772813714"><ele>0.0</ele><time>2026-05-02T06:17:19.999Z</time></trkpt><trkpt lat="42.52202722791694" lon="14.152693611753039"><ele>0.0</ele><time>2026-05-02T06:17:21.999Z</time></trkpt><trkpt lat="42.522069361742865" lon="14.152785464525827"><ele>0.3333333333333333</ele><time>2026-05-02T06:17:23.999Z</time></trkpt><trkpt lat="42.52211921826222" lon="14.152891867215528"><ele>0.6666666666666666</ele><time>2026-05-02T06:17:25.999Z</time></trkpt><trkpt lat="42.52215432004124" lon="14.152963857269992"><ele>1.0</ele><time>2026-05-02T06:17:26.999Z</time></trkpt><trkpt lat="42.522186840884274" lon="14.153040471260159"><ele>1.3333333333333333</ele><time>2026-05-02T06:17:27.999Z</time></trkpt><trkpt lat="42.522244039927024" lon="14.153157799324276"><ele>1.6666666666666665</ele><time>2026-05-02T06:17:29.999Z</time></trkpt><trkpt lat="42.52226598410298" lon="14.15323840346038"><ele>2.0</ele><time>2026-05-02T06:17:31.999Z</time></trkpt><trkpt lat="42.522297386744526" lon="14.153320870979131"><ele>1.9999999999999998</ele><time>2026-05-02T06:17:34.999Z</time></trkpt><trkpt lat="42.52220943441127" lon="14.153410282530919"><ele>2.0</ele><time>2026-05-02T06:17:36.999Z</time></trkpt><trkpt lat="42.522142571037506" lon="14.15344881282104"><ele>2.0</ele><time>2026-05-02T06:17:38.999Z</time></trkpt><trkpt lat="42.522081317505204" lon="14.15350166836566"><ele>2.0</ele><time>2026-05-02T06:17:40.999Z</time></trkpt><trkpt lat="42.52200829238273" lon="14.153572077098527"><ele>1.9999999999999998</ele><time>2026-05-02T06:17:42.999Z</time></trkpt><trkpt lat="42.52194489156423" lon="14.153606659569142"><ele>2.0</ele><time>2026-05-02T06:17:44.999Z</time></trkpt><trkpt lat="42.52183902925568" lon="14.153516731764032"><ele>1.7142857142857142</ele><time>2026-05-02T06:17:47.999Z</time></trkpt><trkpt lat="42.52181077702753" lon="14.153415166960471"><ele>1.4285714285714284</ele><time>2026-05-02T06:17:48.999Z</time></trkpt><trkpt lat="42.521782637025005" lon="14.153316220557372"><ele>1.1428571428571428</ele><time>2026-05-02T06:17:49.999Z</time></trkpt><trkpt lat="42.52175807816051" lon="14.153234415662348"><ele>0.8571428571428571</ele><time>2026-05-02T06:17:50.999Z</time></trkpt><trkpt lat="42.521731830294236" lon="14.15315553919152"><ele>0.5714285714285714</ele><time>2026-05-02T06:17:51.999Z</time></trkpt><trkpt lat="42.52170324670939" lon="14.15306991157243"><ele>0.2857142857142857</ele><time>2026-05-02T06:17:52.999Z</time></trkpt><trkpt lat="42.52167241794489" lon="14.152982301319316"><ele>0.0</ele><time>2026-05-02T06:17:53.999Z</time></trkpt><trkpt lat="42.52163930152205" lon="14.152888512753472"><ele>0.0</ele><time>2026-05-02T06:17:54.999Z</time></trkpt><trkpt lat="42.52160261402958" lon="14.15278300451384"><ele>0.0</ele><time>2026-05-02T06:17:55.999Z</time></trkpt><trkpt lat="42.52156623461347" lon="14.152674958293023"><ele>0.0</ele><time>2026-05-02T06:17:56.999Z</time></trkpt><trkpt lat="42.52152960322228" lon="14.15256691010921"><ele>0.0</ele><time>2026-05-02T06:17:57.999Z</time></trkpt><trkpt lat="42.52149241462075" lon="14.152457830426618"><ele>0.0</ele><time>2026-05-02T06:17:58.999Z</time></trkpt><trkpt lat="42.521455926229194" lon="14.152351629049923"><ele>0.0</ele><time>2026-05-02T06:17:59.999Z</time></trkpt><trkpt lat="42.52141752143821" lon="14.152245110574283"><ele>0.0</ele><time>2026-05-02T06:18:00.999Z</time></trkpt><trkpt lat="42.52137988265243" lon="14.15213680088061"><ele>0.0</ele><time>2026-05-02T06:18:01.999Z</time></trkpt><trkpt lat="42.521343520532184" lon="14.152035849160292"><ele>0.0</ele><time>2026-05-02T06:18:02.999Z</time></trkpt><trkpt lat="42.521307015985386" lon="14.151932501592542"><ele>0.0</ele><time>2026-05-02T06:18:03.999Z</time></trkpt><trkpt lat="42.52126976597872" lon="14.151825207276572"><ele>0.0</ele><time>2026-05-02T06:18:04.999Z</time></trkpt><trkpt lat="42.52122947043542" lon="14.151707112917657"><ele>0.0</ele><time>2026-05-02T06:18:05.999Z</time></trkpt><trkpt lat="42.52118943154592" lon="14.151582559107709"><ele>0.4</ele><time>2026-05-02T06:18:06.999Z</time></trkpt><trkpt lat="42.521147449410364" lon="14.151460950196155"><ele>0.8</ele><time>2026-05-02T06:18:07.999Z</time></trkpt><trkpt lat="42.521105642543134" lon="14.151347242510658"><ele>1.2000000000000002</ele><time>2026-05-02T06:18:08.999Z</time></trkpt><trkpt lat="42.52106780417736" lon="14.151235443268588"><ele>1.6</ele><time>2026-05-02T06:18:09.999Z</time></trkpt><trkpt lat="42.52102818476953" lon="14.151124814483266"><ele>2.0</ele><time>2026-05-02T06:18:10.999Z</time></trkpt><trkpt lat="42.520987297118836" lon="14.151010665409148"><ele>2.0</ele><time>2026-05-02T06:18:11.999Z</time></trkpt><trkpt lat="42.520948644336606" lon="14.150894264415799"><ele>2.0</ele><time>2026-05-02T06:18:12.999Z</time></trkpt><trkpt lat="42.52090824298003" lon="14.150776175569382"><ele>2.0</ele><time>2026-05-02T06:18:13.999Z</time></trkpt><trkpt lat="42.5208672744904" lon="14.150657723021942"><ele>2.0</ele><time>2026-05-02T06:18:14.999Z</time></trkpt><trkpt lat="42.52082594305725" lon="14.15054282782345"><ele>2.0</ele><time>2026-05-02T06:18:15.999Z</time></trkpt><trkpt lat="42.52078516911781" lon="14.150424745488616"><ele>2.0</ele><time>2026-05-02T06:18:16.999Z</time></trkpt><trkpt lat="42.52074426870436" lon="14.150305457981592"><ele>2.0</ele><time>2026-05-02T06:18:17.999Z</time></trkpt><trkpt lat="42.520703688729675" lon="14.150188802208614"><ele>2.0</ele><time>2026-05-02T06:18:18.999Z</time></trkpt><trkpt lat="42.520662815691004" lon="14.150074133682311"><ele>2.0</ele><time>2026-05-02T06:18:19.999Z</time></trkpt><trkpt lat="42.52062390037926" lon="14.149957065126436"><ele>2.0</ele><time>2026-05-02T06:18:20.999Z</time></trkpt><trkpt lat="42.52058008376441" lon="14.149832546856171"><ele>2.0</ele><time>2026-05-02T06:18:21.999Z</time></trkpt><trkpt lat="42.52053178738104" lon="14.149703172935608"><ele>2.0</ele><time>2026-05-02T06:18:22.999Z</time></trkpt><trkpt lat="42.520486949287154" lon="14.149569866084956"><ele>2.0</ele><time>2026-05-02T06:18:23.999Z</time></trkpt><trkpt lat="42.52044398593283" lon="14.149437904260035"><ele>2.0</ele><time>2026-05-02T06:18:24.999Z</time></trkpt><trkpt lat="42.520399337823456" lon="14.149304081636814"><ele>2.0</ele><time>2026-05-02T06:18:25.999Z</time></trkpt><trkpt lat="42.520351691224356" lon="14.149168834549405"><ele>2.0</ele><time>2026-05-02T06:18:26.999Z</time></trkpt><trkpt lat="42.52030466430674" lon="14.149037381152786"><ele>2.0</ele><time>2026-05-02T06:18:27.999Z</time></trkpt><trkpt lat="42.520258166958854" lon="14.14890560332946"><ele>2.0</ele><time>2026-05-02T06:18:28.999Z</time></trkpt><trkpt lat="42.52021373705171" lon="14.148774447073801"><ele>2.0</ele><time>2026-05-02T06:18:29.999Z</time></trkpt><trkpt lat="42.52017011527023" lon="14.148648218870552"><ele>2.0</ele><time>2026-05-02T06:18:30.999Z</time></trkpt><trkpt lat="42.5201248855403" lon="14.148524143388393"><ele>2.0</ele><time>2026-05-02T06:18:31.999Z</time></trkpt><trkpt lat="42.520079591507056" lon="14.148401271388785"><ele>2.0</ele><time>2026-05-02T06:18:32.999Z</time></trkpt><trkpt lat="42.52003309995377" lon="14.148278044518763"><ele>2.0</ele><time>2026-05-02T06:18:33.999Z</time></trkpt><trkpt lat="42.519977478047934" lon="14.148153706041937"><ele>2.0</ele><time>2026-05-02T06:18:34.999Z</time></trkpt><trkpt lat="42.519916406295586" lon="14.148031559164185"><ele>2.0</ele><time>2026-05-02T06:18:35.999Z</time></trkpt><trkpt lat="42.51985017260759" lon="14.147909252073807"><ele>2.2</ele><time>2026-05-02T06:18:36.999Z</time></trkpt><trkpt lat="42.51977803761694" lon="14.147788734476716"><ele>2.4000000000000004</ele><time>2026-05-02T06:18:37.999Z</time></trkpt><trkpt lat="42.51971195600044" lon="14.147680365254311"><ele>2.5999999999999996</ele><time>2026-05-02T06:18:38.999Z</time></trkpt><trkpt lat="42.519649099960226" lon="14.147573681476011"><ele>2.8</ele><time>2026-05-02T06:18:39.998Z</time></trkpt><trkpt lat="42.519587692118535" lon="14.147470242366232"><ele>3.0</ele><time>2026-05-02T06:18:40.998Z</time></trkpt><trkpt lat="42.51953130550056" lon="14.147367435162447"><ele>3.0</ele><time>2026-05-02T06:18:41.998Z</time></trkpt><trkpt lat="42.519490966033764" lon="14.147249735297457"><ele>3.0</ele><time>2026-05-02T06:18:42.998Z</time></trkpt><trkpt lat="42.51947237036731" lon="14.147124012152565"><ele>3.0</ele><time>2026-05-02T06:18:43.998Z</time></trkpt><trkpt lat="42.51947170912162" lon="14.146996842390847"><ele>3.0</ele><time>2026-05-02T06:18:44.998Z</time></trkpt><trkpt lat="42.519467555154314" lon="14.14687021913735"><ele>3.0</ele><time>2026-05-02T06:18:45.998Z</time></trkpt><trkpt lat="42.51946697587453" lon="14.146748066914908"><ele>3.0</ele><time>2026-05-02T06:18:46.998Z</time></trkpt><trkpt lat="42.51947386601044" lon="14.146621764350032"><ele>3.0</ele><time>2026-05-02T06:18:47.998Z</time></trkpt><trkpt lat="42.5194874324107" lon="14.146514022069333"><ele>3.0</ele><time>2026-05-02T06:18:48.998Z</time></trkpt><trkpt lat="42.51951749453272" lon="14.146415876886735"><ele>3.0</ele><time>2026-05-02T06:18:49.998Z</time></trkpt><trkpt lat="42.51955008132652" lon="14.146339300953114"><ele>3.0</ele><time>2026-05-02T06:18:50.998Z</time></trkpt><trkpt lat="42.51959005099288" lon="14.146195885771208"><ele>3.0</ele><time>2026-05-02T06:18:52.998Z</time></trkpt><trkpt lat="42.51965353077462" lon="14.146149801250921"><ele>3.0</ele><time>2026-05-02T06:18:53.998Z</time></trkpt><trkpt lat="42.51969191425386" lon="14.146013563982935"><ele>3.0</ele><time>2026-05-02T06:18:55.998Z</time></trkpt><trkpt lat="42.51966195509571" lon="14.145935930704129"><ele>3.0</ele><time>2026-05-02T06:18:56.998Z</time></trkpt><trkpt lat="42.51960072950373" lon="14.145874361442068"><ele>3.0</ele><time>2026-05-02T06:18:57.998Z</time></trkpt><trkpt lat="42.519523884827024" lon="14.14582451844284"><ele>3.0</ele><time>2026-05-02T06:18:58.998Z</time></trkpt><trkpt lat="42.51944191185829" lon="14.145775048492608"><ele>3.0</ele><time>2026-05-02T06:18:59.998Z</time></trkpt><trkpt lat="42.5193462860774" lon="14.145716490454438"><ele>3.0</ele><time>2026-05-02T06:19:00.998Z</time></trkpt><trkpt lat="42.51924614117405" lon="14.145652419905192"><ele>3.0</ele><time>2026-05-02T06:19:01.998Z</time></trkpt><trkpt lat="42.51915674140948" lon="14.14559156311499"><ele>3.0</ele><time>2026-05-02T06:19:02.998Z</time></trkpt><trkpt lat="42.51907136199314" lon="14.145537599117919"><ele>3.0</ele><time>2026-05-02T06:19:03.998Z</time></trkpt><trkpt lat="42.51898025519781" lon="14.145479345816643"><ele>3.0</ele><time>2026-05-02T06:19:04.998Z</time></trkpt><trkpt lat="42.51888430810951" lon="14.145407526870374"><ele>3.0</ele><time>2026-05-02T06:19:05.998Z</time></trkpt><trkpt lat="42.51879195923847" lon="14.1453243151128"><ele>3.0</ele><time>2026-05-02T06:19:06.998Z</time></trkpt><trkpt lat="42.51869073666104" lon="14.145245882081705"><ele>3.0</ele><time>2026-05-02T06:19:07.998Z</time></trkpt><trkpt lat="42.5185858382002" lon="14.145169486414527"><ele>3.0</ele><time>2026-05-02T06:19:08.998Z</time></trkpt><trkpt lat="42.51848986105724" lon="14.145101178441541"><ele>3.0</ele><time>2026-05-02T06:19:09.998Z</time></trkpt><trkpt lat="42.5183987015631" lon="14.145038407480456"><ele>3.0</ele><time>2026-05-02T06:19:10.998Z</time></trkpt><trkpt lat="42.518305136423656" lon="14.144970936412214"><ele>3.0</ele><time>2026-05-02T06:19:11.999Z</time></trkpt><trkpt lat="42.51820928421893" lon="14.144901921151456"><ele>3.0</ele><time>2026-05-02T06:19:12.999Z</time></trkpt><trkpt lat="42.51811245335269" lon="14.144834185114037"><ele>3.0</ele><time>2026-05-02T06:19:13.999Z</time></trkpt><trkpt lat="42.51801461437429" lon="14.144766485771836"><ele>3.0</ele><time>2026-05-02T06:19:14.999Z</time></trkpt><trkpt lat="42.51791613587478" lon="14.144693537301658"><ele>3.0</ele><time>2026-05-02T06:19:15.999Z</time></trkpt><trkpt lat="42.51781609542323" lon="14.14462401889242"><ele>3.0</ele><time>2026-05-02T06:19:16.999Z</time></trkpt><trkpt lat="42.51771526174124" lon="14.14455805150301"><ele>3.0</ele><time>2026-05-02T06:19:17.999Z</time></trkpt><trkpt lat="42.517614175614234" lon="14.144490388765702"><ele>3.0</ele><time>2026-05-02T06:19:18.999Z</time></trkpt><trkpt lat="42.51751461808864" lon="14.144417222878454"><ele>3.0</ele><time>2026-05-02T06:19:19.999Z</time></trkpt><trkpt lat="42.51741860512002" lon="14.14434215963162"><ele>3.0</ele><time>2026-05-02T06:19:20.999Z</time></trkpt><trkpt lat="42.51732519426256" lon="14.144265273527353"><ele>3.0</ele><time>2026-05-02T06:19:21.999Z</time></trkpt><trkpt lat="42.517232467427924" lon="14.144193315825156"><ele>3.0</ele><time>2026-05-02T06:19:22.999Z</time></trkpt><trkpt lat="42.51713267427864" lon="14.14413977176325"><ele>3.0</ele><time>2026-05-02T06:19:23.999Z</time></trkpt><trkpt lat="42.51703947996859" lon="14.14406448277368"><ele>3.5999999999999996</ele><time>2026-05-02T06:19:24.999Z</time></trkpt><trkpt lat="42.516943288048" lon="14.144000653227899"><ele>4.199999999999999</ele><time>2026-05-02T06:19:25.999Z</time></trkpt><trkpt lat="42.51684723969901" lon="14.143936061431159"><ele>4.8</ele><time>2026-05-02T06:19:26.999Z</time></trkpt><trkpt lat="42.51674867137269" lon="14.143867541102049"><ele>5.3999999999999995</ele><time>2026-05-02T06:19:27.999Z</time></trkpt><trkpt lat="42.51665559791209" lon="14.14379628398728"><ele>6.0</ele><time>2026-05-02T06:19:28.999Z</time></trkpt><trkpt lat="42.51655946728723" lon="14.14371679946096"><ele>6.0</ele><time>2026-05-02T06:19:29.999Z</time></trkpt><trkpt lat="42.516456423003895" lon="14.14364112193586"><ele>6.0</ele><time>2026-05-02T06:19:30.999Z</time></trkpt><trkpt lat="42.51635084411832" lon="14.143567105110279"><ele>6.0</ele><time>2026-05-02T06:19:31.999Z</time></trkpt><trkpt lat="42.516246338202905" lon="14.143493461420833"><ele>6.0</ele><time>2026-05-02T06:19:32.999Z</time></trkpt><trkpt lat="42.516141004426345" lon="14.14342493898507"><ele>5.5</ele><time>2026-05-02T06:19:33.999Z</time></trkpt><trkpt lat="42.5160458231798" lon="14.143337426305761"><ele>5.0</ele><time>2026-05-02T06:19:34.999Z</time></trkpt><trkpt lat="42.515942103754014" lon="14.143261880359793"><ele>4.5</ele><time>2026-05-02T06:19:35.999Z</time></trkpt><trkpt lat="42.515836594652" lon="14.143185325256274"><ele>4.0</ele><time>2026-05-02T06:19:36.999Z</time></trkpt><trkpt lat="42.51572866383231" lon="14.143107412049435"><ele>3.75</ele><time>2026-05-02T06:19:37.999Z</time></trkpt><trkpt lat="42.51561125556508" lon="14.14302366545333"><ele>3.5</ele><time>2026-05-02T06:19:38.999Z</time></trkpt><trkpt lat="42.51548424973796" lon="14.14293135547259"><ele>3.25</ele><time>2026-05-02T06:19:39.999Z</time></trkpt><trkpt lat="42.51535456915393" lon="14.142836558234801"><ele>3.0</ele><time>2026-05-02T06:19:40.999Z</time></trkpt><trkpt lat="42.51523133692184" lon="14.142745751054251"><ele>2.75</ele><time>2026-05-02T06:19:41.999Z</time></trkpt><trkpt lat="42.515115274990194" lon="14.142660227531966"><ele>2.5</ele><time>2026-05-02T06:19:42.999Z</time></trkpt><trkpt lat="42.51500521081925" lon="14.142579121994057"><ele>2.25</ele><time>2026-05-02T06:19:43.999Z</time></trkpt><trkpt lat="42.51489443876889" lon="14.142519353880656"><ele>2.0</ele><time>2026-05-02T06:19:44.999Z</time></trkpt><trkpt lat="42.51479538168666" lon="14.142446258421073"><ele>1.9999999999999998</ele><time>2026-05-02T06:19:45.999Z</time></trkpt><trkpt lat="42.5147084093399" lon="14.14238400757675"><ele>2.0</ele><time>2026-05-02T06:19:46.999Z</time></trkpt><trkpt lat="42.51463466271429" lon="14.142330091278831"><ele>2.0</ele><time>2026-05-02T06:19:47.999Z</time></trkpt><trkpt lat="42.514562335758896" lon="14.142283270527958"><ele>2.0</ele><time>2026-05-02T06:19:48.999Z</time></trkpt><trkpt lat="42.51449346179204" lon="14.14223037823082"><ele>1.9999999999999998</ele><time>2026-05-02T06:19:49.999Z</time></trkpt><trkpt lat="42.51442689552286" lon="14.142180118290828"><ele>2.0</ele><time>2026-05-02T06:19:50.999Z</time></trkpt><trkpt lat="42.51436597528243" lon="14.142134073168084"><ele>2.1666666666666665</ele><time>2026-05-02T06:19:51.999Z</time></trkpt><trkpt lat="42.514304072065606" lon="14.14208287193616"><ele>2.333333333333333</ele><time>2026-05-02T06:19:52.999Z</time></trkpt><trkpt lat="42.51424071293265" lon="14.142027633961588"><ele>2.5</ele><time>2026-05-02T06:19:53.999Z</time></trkpt><trkpt lat="42.514173238098515" lon="14.141976255297621"><ele>2.6666666666666665</ele><time>2026-05-02T06:19:54.999Z</time></trkpt><trkpt lat="42.51410419990409" lon="14.14192678135867"><ele>2.8333333333333335</ele><time>2026-05-02T06:19:55.999Z</time></trkpt><trkpt lat="42.51403055581488" lon="14.141877225304711"><ele>3.0</ele><time>2026-05-02T06:19:56.999Z</time></trkpt><trkpt lat="42.51395511106427" lon="14.141824384655227"><ele>3.0</ele><time>2026-05-02T06:19:57.999Z</time></trkpt><trkpt lat="42.51387723394388" lon="14.14176871639196"><ele>3.0</ele><time>2026-05-02T06:19:58.999Z</time></trkpt><trkpt lat="42.51379726309695" lon="14.141712083690216"><ele>3.0</ele><time>2026-05-02T06:19:59.999Z</time></trkpt><trkpt lat="42.513715457272305" lon="14.141653361599284"><ele>3.0</ele><time>2026-05-02T06:20:00.999Z</time></trkpt><trkpt lat="42.51363031465259" lon="14.141594967978609"><ele>3.0</ele><time>2026-05-02T06:20:01.999Z</time></trkpt><trkpt lat="42.51354274274883" lon="14.14153401314461"><ele>3.5999999999999996</ele><time>2026-05-02T06:20:02.999Z</time></trkpt><trkpt lat="42.51345671582083" lon="14.141473331246793"><ele>4.199999999999999</ele><time>2026-05-02T06:20:03.999Z</time></trkpt><trkpt lat="42.51337206200641" lon="14.141413870963664"><ele>4.8</ele><time>2026-05-02T06:20:04.999Z</time></trkpt><trkpt lat="42.51328745416424" lon="14.141355698925977"><ele>5.3999999999999995</ele><time>2026-05-02T06:20:05.999Z</time></trkpt><trkpt lat="42.513203801085524" lon="14.141296817673446"><ele>6.0</ele><time>2026-05-02T06:20:06.999Z</time></trkpt><trkpt lat="42.513111209716975" lon="14.141276299459683"><ele>6.0</ele><time>2026-05-02T06:20:07.999Z</time></trkpt><trkpt lat="42.513028851493466" lon="14.141242513827187"><ele>6.0</ele><time>2026-05-02T06:20:08.999Z</time></trkpt><trkpt lat="42.51298521331164" lon="14.141042508457794"><ele>6.0</ele><time>2026-05-02T06:20:09.999Z</time></trkpt><trkpt lat="42.512930998103705" lon="14.140929233583487"><ele>6.0</ele><time>2026-05-02T06:20:10.999Z</time></trkpt><trkpt lat="42.512889225591415" lon="14.140805666384061"><ele>6.0</ele><time>2026-05-02T06:20:11.999Z</time></trkpt><trkpt lat="42.512823359658285" lon="14.140710983454644"><ele>6.0</ele><time>2026-05-02T06:20:12.999Z</time></trkpt><trkpt lat="42.51284497652143" lon="14.140540663425451"><ele>6.0</ele><time>2026-05-02T06:20:13.999Z</time></trkpt><trkpt lat="42.512843266168325" lon="14.140401320012728"><ele>6.0</ele><time>2026-05-02T06:20:14.999Z</time></trkpt><trkpt lat="42.51286274174558" lon="14.140263422211635"><ele>6.0</ele><time>2026-05-02T06:20:15.999Z</time></trkpt><trkpt lat="42.512895329438535" lon="14.140129441706213"><ele>6.0</ele><time>2026-05-02T06:20:16.999Z</time></trkpt><trkpt lat="42.51294119421875" lon="14.14000126248062"><ele>6.199999999999999</ele><time>2026-05-02T06:20:17.999Z</time></trkpt><trkpt lat="42.5129911762272" lon="14.139870116845925"><ele>6.3999999999999995</ele><time>2026-05-02T06:20:18.999Z</time></trkpt><trkpt lat="42.513038622808835" lon="14.139740518299691"><ele>6.6</ele><time>2026-05-02T06:20:19.999Z</time></trkpt><trkpt lat="42.5130868515489" lon="14.13961214675386"><ele>6.8</ele><time>2026-05-02T06:20:20.999Z</time></trkpt><trkpt lat="42.513133873270206" lon="14.139491704855072"><ele>7.0</ele><time>2026-05-02T06:20:21.999Z</time></trkpt><trkpt lat="42.51317925605661" lon="14.139376751408202"><ele>7.0</ele><time>2026-05-02T06:20:22.999Z</time></trkpt><trkpt lat="42.513226059101676" lon="14.139258452872863"><ele>6.999999999999999</ele><time>2026-05-02T06:20:23.999Z</time></trkpt><trkpt lat="42.513272619717455" lon="14.139135725946453"><ele>6.999999999999999</ele><time>2026-05-02T06:20:24.999Z</time></trkpt><trkpt lat="42.51332070963821" lon="14.139011658466663"><ele>7.0</ele><time>2026-05-02T06:20:25.999Z</time></trkpt><trkpt lat="42.51336723823061" lon="14.138888752005835"><ele>7.0</ele><time>2026-05-02T06:20:26.999Z</time></trkpt><trkpt lat="42.513413522992174" lon="14.138768153089678"><ele>6.8</ele><time>2026-05-02T06:20:27.999Z</time></trkpt><trkpt lat="42.513460774968905" lon="14.138647405713703"><ele>6.6</ele><time>2026-05-02T06:20:28.999Z</time></trkpt><trkpt lat="42.51350798880844" lon="14.13852789741077"><ele>6.3999999999999995</ele><time>2026-05-02T06:20:29.999Z</time></trkpt><trkpt lat="42.51355468453269" lon="14.138407075844093"><ele>6.199999999999999</ele><time>2026-05-02T06:20:30.999Z</time></trkpt><trkpt lat="42.51360321672363" lon="14.138284610994695"><ele>6.0</ele><time>2026-05-02T06:20:31.999Z</time></trkpt><trkpt lat="42.5136505984756" lon="14.138163180385854"><ele>6.0</ele><time>2026-05-02T06:20:32.999Z</time></trkpt><trkpt lat="42.513699406480264" lon="14.138042012472889"><ele>6.0</ele><time>2026-05-02T06:20:33.999Z</time></trkpt><trkpt lat="42.513748389644405" lon="14.137920663893711"><ele>6.0</ele><time>2026-05-02T06:20:34.999Z</time></trkpt><trkpt lat="42.5137970685845" lon="14.137817001723205"><ele>6.0</ele><time>2026-05-02T06:20:35.999Z</time></trkpt><trkpt lat="42.51384527014303" lon="14.137733615498657"><ele>6.0</ele><time>2026-05-02T06:20:36.999Z</time></trkpt><trkpt lat="42.513888973604054" lon="14.137661183289097"><ele>6.0</ele><time>2026-05-02T06:20:37.999Z</time></trkpt><trkpt lat="42.51393482229599" lon="14.137511607226978"><ele>5.6</ele><time>2026-05-02T06:20:39.999Z</time></trkpt><trkpt lat="42.51385874400323" lon="14.137359164811405"><ele>5.199999999999999</ele><time>2026-05-02T06:20:41.999Z</time></trkpt><trkpt lat="42.51377714692129" lon="14.137336239948832"><ele>4.800000000000001</ele><time>2026-05-02T06:20:42.999Z</time></trkpt><trkpt lat="42.51370790049259" lon="14.137272312904368"><ele>4.4</ele><time>2026-05-02T06:20:43.999Z</time></trkpt><trkpt lat="42.51365510417276" lon="14.137168510138538"><ele>4.0</ele><time>2026-05-02T06:20:44.999Z</time></trkpt><trkpt lat="42.51360715522447" lon="14.137049890533433"><ele>4.0</ele><time>2026-05-02T06:20:45.998Z</time></trkpt><trkpt lat="42.51355954423966" lon="14.136924218840544"><ele>4.0</ele><time>2026-05-02T06:20:46.998Z</time></trkpt><trkpt lat="42.51351545960427" lon="14.136792837499875"><ele>4.0</ele><time>2026-05-02T06:20:47.998Z</time></trkpt><trkpt lat="42.51347652432998" lon="14.13664310793024"><ele>4.0</ele><time>2026-05-02T06:20:48.998Z</time></trkpt><trkpt lat="42.51344219264313" lon="14.13647719580184"><ele>3.75</ele><time>2026-05-02T06:20:49.998Z</time></trkpt><trkpt lat="42.513406717541045" lon="14.13630901340176"><ele>3.5</ele><time>2026-05-02T06:20:50.998Z</time></trkpt><trkpt lat="42.51336833125213" lon="14.136139272208482"><ele>3.25</ele><time>2026-05-02T06:20:51.998Z</time></trkpt><trkpt lat="42.51332199717611" lon="14.135968284088335"><ele>3.0</ele><time>2026-05-02T06:20:52.998Z</time></trkpt><trkpt lat="42.51326396279442" lon="14.13580159689595"><ele>3.0</ele><time>2026-05-02T06:20:53.998Z</time></trkpt><trkpt lat="42.51320358142066" lon="14.135630481700893"><ele>3.0</ele><time>2026-05-02T06:20:54.998Z</time></trkpt><trkpt lat="42.51310490821787" lon="14.135484773968493"><ele>3.0</ele><time>2026-05-02T06:20:55.998Z</time></trkpt><trkpt lat="42.51300784621571" lon="14.135331383706248"><ele>3.0</ele><time>2026-05-02T06:20:56.998Z</time></trkpt><trkpt lat="42.512901752188945" lon="14.135200820932422"><ele>3.0</ele><time>2026-05-02T06:20:57.998Z</time></trkpt><trkpt lat="42.512786942500426" lon="14.135083371564281"><ele>3.0</ele><time>2026-05-02T06:20:58.998Z</time></trkpt><trkpt lat="42.51266145734257" lon="14.134980708392971"><ele>3.0</ele><time>2026-05-02T06:20:59.998Z</time></trkpt><trkpt lat="42.512529631199484" lon="14.134894178793735"><ele>3.0</ele><time>2026-05-02T06:21:00.998Z</time></trkpt><trkpt lat="42.512402109378705" lon="14.134808285176755"><ele>2.5</ele><time>2026-05-02T06:21:01.998Z</time></trkpt><trkpt lat="42.51227733391643" lon="14.134724234224686"><ele>2.0</ele><time>2026-05-02T06:21:02.998Z</time></trkpt><trkpt lat="42.51215355468545" lon="14.134642749412572"><ele>1.5</ele><time>2026-05-02T06:21:03.998Z</time></trkpt><trkpt lat="42.5120315024433" lon="14.134558180221525"><ele>1.0</ele><time>2026-05-02T06:21:04.998Z</time></trkpt><trkpt lat="42.511912342064555" lon="14.134468202386866"><ele>2.0</ele><time>2026-05-02T06:21:05.998Z</time></trkpt><trkpt lat="42.511799037536576" lon="14.13436400182091"><ele>3.0</ele><time>2026-05-02T06:21:06.998Z</time></trkpt><trkpt lat="42.51169716319382" lon="14.134236784429854"><ele>4.0</ele><time>2026-05-02T06:21:07.998Z</time></trkpt><trkpt lat="42.51161205020684" lon="14.13408529574837"><ele>5.0</ele><time>2026-05-02T06:21:08.998Z</time></trkpt><trkpt lat="42.51153508555252" lon="14.133915958884673"><ele>5.0</ele><time>2026-05-02T06:21:09.998Z</time></trkpt><trkpt lat="42.51145746111288" lon="14.133739726884475"><ele>5.0</ele><time>2026-05-02T06:21:10.998Z</time></trkpt><trkpt lat="42.51136837996396" lon="14.133566098957461"><ele>5.0</ele><time>2026-05-02T06:21:11.998Z</time></trkpt><trkpt lat="42.51126823228504" lon="14.133399608501197"><ele>5.333333333333334</ele><time>2026-05-02T06:21:12.998Z</time></trkpt><trkpt lat="42.51115914541548" lon="14.133232726166346"><ele>5.666666666666667</ele><time>2026-05-02T06:21:13.999Z</time></trkpt><trkpt lat="42.51105277358308" lon="14.133061341704416"><ele>6.0</ele><time>2026-05-02T06:21:14.999Z</time></trkpt><trkpt lat="42.5109511425196" lon="14.132884867721254"><ele>6.0</ele><time>2026-05-02T06:21:15.999Z</time></trkpt><trkpt lat="42.51085530605806" lon="14.132705678728062"><ele>6.0</ele><time>2026-05-02T06:21:16.999Z</time></trkpt><trkpt lat="42.51076209917553" lon="14.13252548468806"><ele>6.0</ele><time>2026-05-02T06:21:17.999Z</time></trkpt><trkpt lat="42.510668309909796" lon="14.132345189427742"><ele>6.0</ele><time>2026-05-02T06:21:18.999Z</time></trkpt><trkpt lat="42.5105762602276" lon="14.13217168248288"><ele>6.0</ele><time>2026-05-02T06:21:19.999Z</time></trkpt><trkpt lat="42.510484369240544" lon="14.13200198748984"><ele>6.0</ele><time>2026-05-02T06:21:20.999Z</time></trkpt><trkpt lat="42.51039271830339" lon="14.131834129341451"><ele>6.0</ele><time>2026-05-02T06:21:21.999Z</time></trkpt><trkpt lat="42.51031559058045" lon="14.131652613594778"><ele>6.0</ele><time>2026-05-02T06:21:22.999Z</time></trkpt><trkpt lat="42.51021229774549" lon="14.13150141442664"><ele>6.0</ele><time>2026-05-02T06:21:23.999Z</time></trkpt><trkpt lat="42.510124345124765" lon="14.131343536268377"><ele>5.75</ele><time>2026-05-02T06:21:24.999Z</time></trkpt><trkpt lat="42.51003147506152" lon="14.131191852511447"><ele>5.5</ele><time>2026-05-02T06:21:25.999Z</time></trkpt><trkpt lat="42.50993259971761" lon="14.131039721067543"><ele>5.25</ele><time>2026-05-02T06:21:26.999Z</time></trkpt><trkpt lat="42.50982922266899" lon="14.130889356122736"><ele>5.0</ele><time>2026-05-02T06:21:27.999Z</time></trkpt><trkpt lat="42.50972531777216" lon="14.13073640815925"><ele>5.5</ele><time>2026-05-02T06:21:28.999Z</time></trkpt><trkpt lat="42.50962254429812" lon="14.130581900623316"><ele>6.0</ele><time>2026-05-02T06:21:29.999Z</time></trkpt><trkpt lat="42.509523703925375" lon="14.13043348330187"><ele>6.5</ele><time>2026-05-02T06:21:30.999Z</time></trkpt><trkpt lat="42.50942773097904" lon="14.13028977122177"><ele>7.0</ele><time>2026-05-02T06:21:31.999Z</time></trkpt><trkpt lat="42.509334342120006" lon="14.130153029242761"><ele>7.0</ele><time>2026-05-02T06:21:32.999Z</time></trkpt><trkpt lat="42.50925346283067" lon="14.130033896818398"><ele>6.999999999999999</ele><time>2026-05-02T06:21:33.999Z</time></trkpt><trkpt lat="42.50918848259538" lon="14.129935875539589"><ele>6.999999999999999</ele><time>2026-05-02T06:21:34.999Z</time></trkpt><trkpt lat="42.50913411179565" lon="14.129852568516736"><ele>7.0</ele><time>2026-05-02T06:21:35.999Z</time></trkpt><trkpt lat="42.50908402095347" lon="14.12976578877128"><ele>7.0</ele><time>2026-05-02T06:21:36.999Z</time></trkpt><trkpt lat="42.509057894399795" lon="14.129660728558639"><ele>6.6</ele><time>2026-05-02T06:21:37.999Z</time></trkpt><trkpt lat="42.50905622962041" lon="14.12954893006671"><ele>6.199999999999999</ele><time>2026-05-02T06:21:38.999Z</time></trkpt><trkpt lat="42.50902421389306" lon="14.12944580691465"><ele>5.8</ele><time>2026-05-02T06:21:39.999Z</time></trkpt><trkpt lat="42.50895451542136" lon="14.129370770258006"><ele>5.4</ele><time>2026-05-02T06:21:40.999Z</time></trkpt><trkpt lat="42.50886506849656" lon="14.129313721921251"><ele>5.0</ele><time>2026-05-02T06:21:41.999Z</time></trkpt><trkpt lat="42.50876287247203" lon="14.12923681925925"><ele>5.25</ele><time>2026-05-02T06:21:42.999Z</time></trkpt><trkpt lat="42.50866883229743" lon="14.129104010565458"><ele>5.5</ele><time>2026-05-02T06:21:43.999Z</time></trkpt><trkpt lat="42.50857996102488" lon="14.12892814425399"><ele>5.75</ele><time>2026-05-02T06:21:44.999Z</time></trkpt><trkpt lat="42.50848855629106" lon="14.128756334089267"><ele>6.0</ele><time>2026-05-02T06:21:45.999Z</time></trkpt><trkpt lat="42.508396305868146" lon="14.128595061148124"><ele>6.0</ele><time>2026-05-02T06:21:46.999Z</time></trkpt><trkpt lat="42.508300725811154" lon="14.12842785590735"><ele>6.0</ele><time>2026-05-02T06:21:47.999Z</time></trkpt><trkpt lat="42.50820456526206" lon="14.128254788543156"><ele>6.0</ele><time>2026-05-02T06:21:48.999Z</time></trkpt><trkpt lat="42.50810816572674" lon="14.128083214311756"><ele>5.666666666666667</ele><time>2026-05-02T06:21:49.999Z</time></trkpt><trkpt lat="42.507999151920565" lon="14.127887307912692"><ele>5.333333333333334</ele><time>2026-05-02T06:21:50.999Z</time></trkpt><trkpt lat="42.50787953439138" lon="14.127673677964088"><ele>5.0</ele><time>2026-05-02T06:21:51.999Z</time></trkpt><trkpt lat="42.50775720346688" lon="14.127456057950292"><ele>6.0</ele><time>2026-05-02T06:21:52.999Z</time></trkpt><trkpt lat="42.5076329499285" lon="14.12723582362329"><ele>7.0</ele><time>2026-05-02T06:21:53.999Z</time></trkpt><trkpt lat="42.50750922188912" lon="14.127016049984144"><ele>8.0</ele><time>2026-05-02T06:21:54.999Z</time></trkpt><trkpt lat="42.50738648223826" lon="14.126799352782504"><ele>8.0</ele><time>2026-05-02T06:21:55.999Z</time></trkpt><trkpt lat="42.50726680110605" lon="14.12658830059108"><ele>8.0</ele><time>2026-05-02T06:21:56.999Z</time></trkpt><trkpt lat="42.507147652358846" lon="14.126378824579284"><ele>8.0</ele><time>2026-05-02T06:21:57.999Z</time></trkpt><trkpt lat="42.50702842776986" lon="14.126172429881851"><ele>8.0</ele><time>2026-05-02T06:21:58.999Z</time></trkpt><trkpt lat="42.50690985986682" lon="14.125974351750616"><ele>8.0</ele><time>2026-05-02T06:21:59.999Z</time></trkpt><trkpt lat="42.506786619784016" lon="14.12578172321193"><ele>8.0</ele><time>2026-05-02T06:22:00.999Z</time></trkpt><trkpt lat="42.506658756562715" lon="14.125590149237617"><ele>8.0</ele><time>2026-05-02T06:22:01.999Z</time></trkpt><trkpt lat="42.50652870820534" lon="14.125400461474255"><ele>8.0</ele><time>2026-05-02T06:22:02.999Z</time></trkpt><trkpt lat="42.506395619992304" lon="14.125213604191606"><ele>8.0</ele><time>2026-05-02T06:22:03.999Z</time></trkpt><trkpt lat="42.50626077867546" lon="14.125034731349913"><ele>8.333333333333332</ele><time>2026-05-02T06:22:04.999Z</time></trkpt><trkpt lat="42.5061236960368" lon="14.124861540417522"><ele>8.666666666666666</ele><time>2026-05-02T06:22:05.999Z</time></trkpt><trkpt lat="42.505987778544" lon="14.124693912967548"><ele>9.0</ele><time>2026-05-02T06:22:06.999Z</time></trkpt><trkpt lat="42.5058474144597" lon="14.124529445878203"><ele>9.0</ele><time>2026-05-02T06:22:07.999Z</time></trkpt><trkpt lat="42.50570358184643" lon="14.124372968303168"><ele>9.0</ele><time>2026-05-02T06:22:08.999Z</time></trkpt><trkpt lat="42.5055536142444" lon="14.12421709062375"><ele>9.0</ele><time>2026-05-02T06:22:09.999Z</time></trkpt><trkpt lat="42.50540344546175" lon="14.124065471201666"><ele>8.333333333333334</ele><time>2026-05-02T06:22:10.999Z</time></trkpt><trkpt lat="42.50525378118247" lon="14.123918989713884"><ele>7.666666666666667</ele><time>2026-05-02T06:22:11.999Z</time></trkpt><trkpt lat="42.50510366621173" lon="14.12377694809685"><ele>7.0</ele><time>2026-05-02T06:22:12.999Z</time></trkpt><trkpt lat="42.50495398226866" lon="14.12363715545025"><ele>7.0</ele><time>2026-05-02T06:22:13.999Z</time></trkpt><trkpt lat="42.50480486415832" lon="14.12349928509429"><ele>7.0</ele><time>2026-05-02T06:22:14.999Z</time></trkpt><trkpt lat="42.50465622757178" lon="14.123363539501433"><ele>7.0</ele><time>2026-05-02T06:22:15.999Z</time></trkpt><trkpt lat="42.504509719794136" lon="14.123227016676617"><ele>8.0</ele><time>2026-05-02T06:22:16.999Z</time></trkpt><trkpt lat="42.50436441556054" lon="14.123091437922628"><ele>9.0</ele><time>2026-05-02T06:22:17.999Z</time></trkpt><trkpt lat="42.50421911453131" lon="14.122959623780618"><ele>10.0</ele><time>2026-05-02T06:22:18.999Z</time></trkpt><trkpt lat="42.50407067919969" lon="14.12282465293039"><ele>10.0</ele><time>2026-05-02T06:22:19.999Z</time></trkpt><trkpt lat="42.503923303211806" lon="14.122691894691153"><ele>10.0</ele><time>2026-05-02T06:22:20.999Z</time></trkpt><trkpt lat="42.50377873659454" lon="14.12255694016153"><ele>10.0</ele><time>2026-05-02T06:22:21.999Z</time></trkpt><trkpt lat="42.50363360343952" lon="14.122420704761852"><ele>9.666666666666668</ele><time>2026-05-02T06:22:22.999Z</time></trkpt><trkpt lat="42.503489160545236" lon="14.122289929290371"><ele>9.333333333333334</ele><time>2026-05-02T06:22:23.999Z</time></trkpt><trkpt lat="42.50335608419151" lon="14.122170934971706"><ele>9.0</ele><time>2026-05-02T06:22:24.999Z</time></trkpt><trkpt lat="42.5032364573726" lon="14.122068025197462"><ele>9.0</ele><time>2026-05-02T06:22:25.999Z</time></trkpt><trkpt lat="42.50313209777161" lon="14.12197266241157"><ele>9.0</ele><time>2026-05-02T06:22:26.999Z</time></trkpt><trkpt lat="42.50303716948798" lon="14.121886093914446"><ele>9.0</ele><time>2026-05-02T06:22:27.999Z</time></trkpt><trkpt lat="42.50295582126192" lon="14.121809039168673"><ele>9.0</ele><time>2026-05-02T06:22:28.999Z</time></trkpt><trkpt lat="42.50288862871191" lon="14.121728932984338"><ele>9.0</ele><time>2026-05-02T06:22:29.999Z</time></trkpt><trkpt lat="42.502842089050795" lon="14.121627776929367"><ele>8.833333333333334</ele><time>2026-05-02T06:22:30.999Z</time></trkpt><trkpt lat="42.50281501317674" lon="14.121523578594811"><ele>8.666666666666666</ele><time>2026-05-02T06:22:31.999Z</time></trkpt><trkpt lat="42.50277293597537" lon="14.121428566954254"><ele>8.5</ele><time>2026-05-02T06:22:32.999Z</time></trkpt><trkpt lat="42.502714371870326" lon="14.121353932919229"><ele>8.333333333333332</ele><time>2026-05-02T06:22:34Z</time></trkpt><trkpt lat="42.50263512416265" lon="14.121311484624346"><ele>8.166666666666666</ele><time>2026-05-02T06:22:35Z</time></trkpt><trkpt lat="42.50254111500777" lon="14.12130535699259"><ele>8.0</ele><time>2026-05-02T06:22:36Z</time></trkpt><trkpt lat="42.502438938670636" lon="14.121315458700758"><ele>8.0</ele><time>2026-05-02T06:22:37Z</time></trkpt><trkpt lat="42.50232542955864" lon="14.121300333767735"><ele>8.0</ele><time>2026-05-02T06:22:38Z</time></trkpt><trkpt lat="42.50220512638351" lon="14.121237991145263"><ele>8.0</ele><time>2026-05-02T06:22:39Z</time></trkpt><trkpt lat="42.50207177672403" lon="14.121149520842966"><ele>8.0</ele><time>2026-05-02T06:22:40Z</time></trkpt><trkpt lat="42.50191850689401" lon="14.12106070130799"><ele>8.666666666666666</ele><time>2026-05-02T06:22:41Z</time></trkpt><trkpt lat="42.50175595432098" lon="14.12097526483687"><ele>9.333333333333334</ele><time>2026-05-02T06:22:42Z</time></trkpt><trkpt lat="42.50161602498726" lon="14.120910008468023"><ele>10.0</ele><time>2026-05-02T06:22:43Z</time></trkpt><trkpt lat="42.50147635731932" lon="14.120827976146956"><ele>10.0</ele><time>2026-05-02T06:22:44Z</time></trkpt><trkpt lat="42.501331518593894" lon="14.120801949471641"><ele>10.0</ele><time>2026-05-02T06:22:45Z</time></trkpt><trkpt lat="42.50119222124149" lon="14.120762281879712"><ele>10.0</ele><time>2026-05-02T06:22:46Z</time></trkpt><trkpt lat="42.501059959276205" lon="14.120721272796365"><ele>10.0</ele><time>2026-05-02T06:22:47Z</time></trkpt><trkpt lat="42.50093926713822" lon="14.120669629367333"><ele>10.2</ele><time>2026-05-02T06:22:48Z</time></trkpt><trkpt lat="42.50083394462404" lon="14.120607381461724"><ele>10.4</ele><time>2026-05-02T06:22:49Z</time></trkpt><trkpt lat="42.50073376538714" lon="14.120535746200511"><ele>10.600000000000001</ele><time>2026-05-02T06:22:50Z</time></trkpt><trkpt lat="42.5006413319253" lon="14.120461454924937"><ele>10.8</ele><time>2026-05-02T06:22:51Z</time></trkpt><trkpt lat="42.50054320841485" lon="14.120392405096087"><ele>11.0</ele><time>2026-05-02T06:22:51.999Z</time></trkpt><trkpt lat="42.50044261630579" lon="14.12032468324219"><ele>11.600000000000001</ele><time>2026-05-02T06:22:52.999Z</time></trkpt><trkpt lat="42.5003379469218" lon="14.120255386449113"><ele>12.2</ele><time>2026-05-02T06:22:53.999Z</time></trkpt><trkpt lat="42.50023566866609" lon="14.120188589847652"><ele>12.799999999999999</ele><time>2026-05-02T06:22:54.999Z</time></trkpt><trkpt lat="42.500142562059274" lon="14.120128188021052"><ele>13.399999999999999</ele><time>2026-05-02T06:22:55.999Z</time></trkpt><trkpt lat="42.50005479814551" lon="14.120069249374293"><ele>14.0</ele><time>2026-05-02T06:22:56.999Z</time></trkpt><trkpt lat="42.499967344042275" lon="14.120007491568083"><ele>14.000000000000002</ele><time>2026-05-02T06:22:57.999Z</time></trkpt><trkpt lat="42.49988008808123" lon="14.119939154241168"><ele>14.0</ele><time>2026-05-02T06:22:58.999Z</time></trkpt><trkpt lat="42.499800599647784" lon="14.119877324283094"><ele>14.0</ele><time>2026-05-02T06:22:59.999Z</time></trkpt><trkpt lat="42.49972228480468" lon="14.11984196807438"><ele>14.0</ele><time>2026-05-02T06:23:00.999Z</time></trkpt><trkpt lat="42.49964646413461" lon="14.119856588985394"><ele>14.000000000000002</ele><time>2026-05-02T06:23:01.999Z</time></trkpt><trkpt lat="42.49957661171546" lon="14.119915415393734"><ele>14.0</ele><time>2026-05-02T06:23:02.999Z</time></trkpt><trkpt lat="42.499510242591306" lon="14.120015524969897"><ele>14.25</ele><time>2026-05-02T06:23:03.999Z</time></trkpt><trkpt lat="42.49943622144925" lon="14.120141857222293"><ele>14.5</ele><time>2026-05-02T06:23:04.999Z</time></trkpt><trkpt lat="42.499353793705545" lon="14.12025898395966"><ele>14.75</ele><time>2026-05-02T06:23:05.999Z</time></trkpt><trkpt lat="42.499264872312" lon="14.120385599716222"><ele>15.0</ele><time>2026-05-02T06:23:06.999Z</time></trkpt><trkpt lat="42.49916823243948" lon="14.120509987001643"><ele>15.0</ele><time>2026-05-02T06:23:07.999Z</time></trkpt><trkpt lat="42.49907601384997" lon="14.120621365771425"><ele>15.0</ele><time>2026-05-02T06:23:08.999Z</time></trkpt><trkpt lat="42.49898526246265" lon="14.120734764005508"><ele>15.0</ele><time>2026-05-02T06:23:09.999Z</time></trkpt><trkpt lat="42.498891915051004" lon="14.120852671315514"><ele>15.0</ele><time>2026-05-02T06:23:10.999Z</time></trkpt><trkpt lat="42.498799893256226" lon="14.120970009963264"><ele>15.25</ele><time>2026-05-02T06:23:11.999Z</time></trkpt><trkpt lat="42.49870665576834" lon="14.12108542789033"><ele>15.5</ele><time>2026-05-02T06:23:12.999Z</time></trkpt><trkpt lat="42.4986184667807" lon="14.121198186457388"><ele>15.75</ele><time>2026-05-02T06:23:13.999Z</time></trkpt><trkpt lat="42.498535936807805" lon="14.121304366932941"><ele>16.0</ele><time>2026-05-02T06:23:14.999Z</time></trkpt><trkpt lat="42.498452597081275" lon="14.121410284323847"><ele>16.0</ele><time>2026-05-02T06:23:15.999Z</time></trkpt><trkpt lat="42.49835893833829" lon="14.12150827306514"><ele>16.0</ele><time>2026-05-02T06:23:16.999Z</time></trkpt><trkpt lat="42.49825805581276" lon="14.121590043837926"><ele>16.0</ele><time>2026-05-02T06:23:17.999Z</time></trkpt><trkpt lat="42.49815145698826" lon="14.121661859320898"><ele>16.0</ele><time>2026-05-02T06:23:18.999Z</time></trkpt><trkpt lat="42.49805093132088" lon="14.121745145369195"><ele>15.75</ele><time>2026-05-02T06:23:19.999Z</time></trkpt><trkpt lat="42.497963198094425" lon="14.121864084747347"><ele>15.5</ele><time>2026-05-02T06:23:20.999Z</time></trkpt><trkpt lat="42.49787275038679" lon="14.122013572359451"><ele>15.25</ele><time>2026-05-02T06:23:21.999Z</time></trkpt><trkpt lat="42.49778182967096" lon="14.122168755945212"><ele>15.0</ele><time>2026-05-02T06:23:22.999Z</time></trkpt><trkpt lat="42.49768232814142" lon="14.122324718520792"><ele>14.666666666666668</ele><time>2026-05-02T06:23:23.999Z</time></trkpt><trkpt lat="42.497579462629226" lon="14.122481929816983"><ele>14.333333333333334</ele><time>2026-05-02T06:23:24.999Z</time></trkpt><trkpt lat="42.49747586587139" lon="14.122645597223311"><ele>14.0</ele><time>2026-05-02T06:23:26Z</time></trkpt><trkpt lat="42.497375371151364" lon="14.122808082107642"><ele>14.0</ele><time>2026-05-02T06:23:27Z</time></trkpt><trkpt lat="42.49727940615634" lon="14.122961120211722"><ele>14.0</ele><time>2026-05-02T06:23:28Z</time></trkpt><trkpt lat="42.49718740409108" lon="14.123105699113543"><ele>14.0</ele><time>2026-05-02T06:23:29Z</time></trkpt><trkpt lat="42.497100889567776" lon="14.123237006684326"><ele>14.0</ele><time>2026-05-02T06:23:30Z</time></trkpt><trkpt lat="42.49701784767874" lon="14.123358742180397"><ele>14.5</ele><time>2026-05-02T06:23:31Z</time></trkpt><trkpt lat="42.49693270140735" lon="14.123483905186868"><ele>15.0</ele><time>2026-05-02T06:23:32Z</time></trkpt><trkpt lat="42.4968450787963" lon="14.123605401349172"><ele>15.5</ele><time>2026-05-02T06:23:33Z</time></trkpt><trkpt lat="42.49675404176368" lon="14.123707692297197"><ele>16.0</ele><time>2026-05-02T06:23:34Z</time></trkpt><trkpt lat="42.49666142450813" lon="14.123793459414838"><ele>16.0</ele><time>2026-05-02T06:23:35Z</time></trkpt><trkpt lat="42.49656788048433" lon="14.123875257110871"><ele>16.0</ele><time>2026-05-02T06:23:36Z</time></trkpt><trkpt lat="42.49647264030224" lon="14.123962347806613"><ele>16.0</ele><time>2026-05-02T06:23:37Z</time></trkpt><trkpt lat="42.49637714683091" lon="14.124050303756137"><ele>16.0</ele><time>2026-05-02T06:23:38Z</time></trkpt><trkpt lat="42.49628796547718" lon="14.12413547314142"><ele>15.833333333333332</ele><time>2026-05-02T06:23:39Z</time></trkpt><trkpt lat="42.49620520857612" lon="14.12422435660419"><ele>15.666666666666666</ele><time>2026-05-02T06:23:40Z</time></trkpt><trkpt lat="42.496130408616715" lon="14.124309665205166"><ele>15.5</ele><time>2026-05-02T06:23:41Z</time></trkpt><trkpt lat="42.49606121081225" lon="14.124381767389524"><ele>15.333333333333332</ele><time>2026-05-02T06:23:42Z</time></trkpt><trkpt lat="42.49599166433535" lon="14.124434120210381"><ele>15.166666666666666</ele><time>2026-05-02T06:23:43Z</time></trkpt><trkpt lat="42.49591990406808" lon="14.124456231869981"><ele>15.0</ele><time>2026-05-02T06:23:44Z</time></trkpt><trkpt lat="42.49584564168742" lon="14.12448700908636"><ele>15.0</ele><time>2026-05-02T06:23:45Z</time></trkpt><trkpt lat="42.49578221697218" lon="14.124544561524552"><ele>15.0</ele><time>2026-05-02T06:23:46Z</time></trkpt><trkpt lat="42.495707927114616" lon="14.124539062548408"><ele>15.0</ele><time>2026-05-02T06:23:47Z</time></trkpt><trkpt lat="42.49562064574745" lon="14.124559173999192"><ele>15.0</ele><time>2026-05-02T06:23:48Z</time></trkpt><trkpt lat="42.4955359689935" lon="14.124553507889734"><ele>15.0</ele><time>2026-05-02T06:23:49Z</time></trkpt><trkpt lat="42.49545169339454" lon="14.124555533361717"><ele>15.0</ele><time>2026-05-02T06:23:50Z</time></trkpt><trkpt lat="42.49536552254193" lon="14.124537994749248"><ele>15.4</ele><time>2026-05-02T06:23:51Z</time></trkpt><trkpt lat="42.49527990147465" lon="14.124537994749288"><ele>15.8</ele><time>2026-05-02T06:23:52Z</time></trkpt><trkpt lat="42.4951914237801" lon="14.124559347963647"><ele>16.2</ele><time>2026-05-02T06:23:53Z</time></trkpt><trkpt lat="42.495101716808875" lon="14.124555379073195"><ele>16.6</ele><time>2026-05-02T06:23:54Z</time></trkpt><trkpt lat="42.49500966415993" lon="14.124562550619158"><ele>17.0</ele><time>2026-05-02T06:23:55Z</time></trkpt><trkpt lat="42.49490945766667" lon="14.124547077892627"><ele>17.0</ele><time>2026-05-02T06:23:56Z</time></trkpt><trkpt lat="42.49480793670555" lon="14.12455224583209"><ele>17.0</ele><time>2026-05-02T06:23:57Z</time></trkpt><trkpt lat="42.49471034593546" lon="14.124555394748553"><ele>17.0</ele><time>2026-05-02T06:23:58Z</time></trkpt><trkpt lat="42.49461785916213" lon="14.124552076739535"><ele>17.0</ele><time>2026-05-02T06:23:59Z</time></trkpt><trkpt lat="42.49453782990532" lon="14.124566448037912"><ele>17.0</ele><time>2026-05-02T06:24:00Z</time></trkpt><trkpt lat="42.49447346738398" lon="14.124558096246435"><ele>17.0</ele><time>2026-05-02T06:24:01Z</time></trkpt><trkpt lat="42.494355381044734" lon="14.12462056592198"><ele>17.166666666666668</ele><time>2026-05-02T06:24:03Z</time></trkpt><trkpt lat="42.494296483754056" lon="14.124705253085247"><ele>17.333333333333336</ele><time>2026-05-02T06:24:04Z</time></trkpt><trkpt lat="42.494232014038246" lon="14.124797335865688"><ele>17.5</ele><time>2026-05-02T06:24:05Z</time></trkpt><trkpt lat="42.49416503892886" lon="14.124885481916937"><ele>17.666666666666668</ele><time>2026-05-02T06:24:06Z</time></trkpt><trkpt lat="42.49411187530904" lon="14.124956512585877"><ele>17.833333333333332</ele><time>2026-05-02T06:24:07Z</time></trkpt><trkpt lat="42.4940588805239" lon="14.125015104572672"><ele>18.0</ele><time>2026-05-02T06:24:08Z</time></trkpt><trkpt lat="42.494017070090514" lon="14.125094029372981"><ele>18.0</ele><time>2026-05-02T06:24:09Z</time></trkpt><trkpt lat="42.4939803529641" lon="14.125183571830672"><ele>18.0</ele><time>2026-05-02T06:24:10Z</time></trkpt><trkpt lat="42.49392464881255" lon="14.125308206996396"><ele>18.0</ele><time>2026-05-02T06:24:12Z</time></trkpt><trkpt lat="42.49384006163156" lon="14.12533484665135"><ele>18.0</ele><time>2026-05-02T06:24:18Z</time></trkpt><trkpt lat="42.493759952645945" lon="14.125272547941318"><ele>18.0</ele><time>2026-05-02T06:24:19Z</time></trkpt><trkpt lat="42.49367995740116" lon="14.125180523806455"><ele>18.25</ele><time>2026-05-02T06:24:20Z</time></trkpt><trkpt lat="42.49358138959331" lon="14.125098253144474"><ele>18.5</ele><time>2026-05-02T06:24:21Z</time></trkpt><trkpt lat="42.493485601865444" lon="14.125021005090439"><ele>18.75</ele><time>2026-05-02T06:24:22Z</time></trkpt><trkpt lat="42.493391885194384" lon="14.124947077792775"><ele>19.0</ele><time>2026-05-02T06:24:23Z</time></trkpt><trkpt lat="42.493289760200526" lon="14.124866450405797"><ele>19.0</ele><time>2026-05-02T06:24:24Z</time></trkpt><trkpt lat="42.493187622972776" lon="14.124780760574295"><ele>19.0</ele><time>2026-05-02T06:24:25Z</time></trkpt><trkpt lat="42.49308586000914" lon="14.124698612002694"><ele>19.0</ele><time>2026-05-02T06:24:26Z</time></trkpt><trkpt lat="42.49298902389141" lon="14.12462107252608"><ele>19.0</ele><time>2026-05-02T06:24:27Z</time></trkpt><trkpt lat="42.492893639998165" lon="14.124545822730243"><ele>19.75</ele><time>2026-05-02T06:24:28Z</time></trkpt><trkpt lat="42.49279469275463" lon="14.124470332628462"><ele>20.5</ele><time>2026-05-02T06:24:29Z</time></trkpt><trkpt lat="42.492692183602905" lon="14.124391733972757"><ele>21.25</ele><time>2026-05-02T06:24:30Z</time></trkpt><trkpt lat="42.49258980359211" lon="14.124312262420291"><ele>22.0</ele><time>2026-05-02T06:24:31Z</time></trkpt><trkpt lat="42.492493190464764" lon="14.124230425686404"><ele>22.0</ele><time>2026-05-02T06:24:32Z</time></trkpt><trkpt lat="42.49239738485677" lon="14.124146017114125"><ele>22.0</ele><time>2026-05-02T06:24:33Z</time></trkpt><trkpt lat="42.49230377767811" lon="14.1240709591989"><ele>22.0</ele><time>2026-05-02T06:24:34Z</time></trkpt><trkpt lat="42.49221495473618" lon="14.124000063321501"><ele>22.0</ele><time>2026-05-02T06:24:35Z</time></trkpt><trkpt lat="42.49213374499606" lon="14.123929509279671"><ele>22.0</ele><time>2026-05-02T06:24:36Z</time></trkpt><trkpt lat="42.492054894356876" lon="14.123861609021967"><ele>21.8</ele><time>2026-05-02T06:24:37Z</time></trkpt><trkpt lat="42.49197556268285" lon="14.123798743340526"><ele>21.6</ele><time>2026-05-02T06:24:38Z</time></trkpt><trkpt lat="42.49189804535239" lon="14.12373431802228"><ele>21.400000000000002</ele><time>2026-05-02T06:24:39Z</time></trkpt><trkpt lat="42.49181507021991" lon="14.123666406424501"><ele>21.200000000000003</ele><time>2026-05-02T06:24:40Z</time></trkpt><trkpt lat="42.491722087024606" lon="14.123594264902183"><ele>21.0</ele><time>2026-05-02T06:24:41Z</time></trkpt><trkpt lat="42.49162379651254" lon="14.123518133478948"><ele>21.0</ele><time>2026-05-02T06:24:42Z</time></trkpt><trkpt lat="42.49152279839088" lon="14.123436855450095"><ele>21.0</ele><time>2026-05-02T06:24:43Z</time></trkpt><trkpt lat="42.49142498933922" lon="14.12335630010269"><ele>21.0</ele><time>2026-05-02T06:24:44Z</time></trkpt><trkpt lat="42.491338021918175" lon="14.123288524509242"><ele>21.0</ele><time>2026-05-02T06:24:45Z</time></trkpt><trkpt lat="42.49126682821709" lon="14.123229872022659"><ele>21.0</ele><time>2026-05-02T06:24:46Z</time></trkpt><trkpt lat="42.491202062019205" lon="14.123179082795597"><ele>21.333333333333332</ele><time>2026-05-02T06:24:47Z</time></trkpt><trkpt lat="42.4911440432299" lon="14.123130705474619"><ele>21.666666666666668</ele><time>2026-05-02T06:24:48Z</time></trkpt><trkpt lat="42.49108407383595" lon="14.123081432954748"><ele>22.0</ele><time>2026-05-02T06:24:49Z</time></trkpt><trkpt lat="42.491017372494376" lon="14.123027399266041"><ele>22.333333333333336</ele><time>2026-05-02T06:24:50Z</time></trkpt><trkpt lat="42.49095186253649" lon="14.122975436439868"><ele>22.666666666666668</ele><time>2026-05-02T06:24:51Z</time></trkpt><trkpt lat="42.49086047376737" lon="14.122903186407612"><ele>23.0</ele><time>2026-05-02T06:24:53Z</time></trkpt><trkpt lat="42.49078136063843" lon="14.122836135956188"><ele>23.0</ele><time>2026-05-02T06:24:55.001Z</time></trkpt><trkpt lat="42.49067529181544" lon="14.122741009183784"><ele>23.0</ele><time>2026-05-02T06:24:57.001Z</time></trkpt><trkpt lat="42.490619748140695" lon="14.122692030459696"><ele>23.0</ele><time>2026-05-02T06:24:58Z</time></trkpt><trkpt lat="42.49056241276945" lon="14.122647672607693"><ele>23.0</ele><time>2026-05-02T06:24:59Z</time></trkpt><trkpt lat="42.49050007370166" lon="14.122597364393641"><ele>23.0</ele><time>2026-05-02T06:25:00Z</time></trkpt><trkpt lat="42.49043588815348" lon="14.122546685779188"><ele>23.0</ele><time>2026-05-02T06:25:01Z</time></trkpt><trkpt lat="42.49035478509121" lon="14.122482663134043"><ele>23.0</ele><time>2026-05-02T06:25:03Z</time></trkpt><trkpt lat="42.49029035045135" lon="14.122423113999703"><ele>23.0</ele><time>2026-05-02T06:25:17Z</time></trkpt><trkpt lat="42.49018117414099" lon="14.122358032242024"><ele>23.0</ele><time>2026-05-02T06:25:19Z</time></trkpt><trkpt lat="42.49010853080018" lon="14.122299565489401"><ele>23.0</ele><time>2026-05-02T06:25:20Z</time></trkpt><trkpt lat="42.49002523226376" lon="14.122224524135335"><ele>23.0</ele><time>2026-05-02T06:25:21Z</time></trkpt><trkpt lat="42.489917897624515" lon="14.122137758422447"><ele>22.75</ele><time>2026-05-02T06:25:22Z</time></trkpt><trkpt lat="42.48979905851651" lon="14.122041036181173"><ele>22.5</ele><time>2026-05-02T06:25:23Z</time></trkpt><trkpt lat="42.48968344517825" lon="14.121945454059667"><ele>22.25</ele><time>2026-05-02T06:25:24Z</time></trkpt><trkpt lat="42.48956587091045" lon="14.121851208538597"><ele>22.0</ele><time>2026-05-02T06:25:25Z</time></trkpt><trkpt lat="42.489448001377134" lon="14.121755640906317"><ele>22.25</ele><time>2026-05-02T06:25:26Z</time></trkpt><trkpt lat="42.48933187745753" lon="14.121661333293048"><ele>22.5</ele><time>2026-05-02T06:25:27Z</time></trkpt><trkpt lat="42.48921658610283" lon="14.121568199245251"><ele>22.75</ele><time>2026-05-02T06:25:28Z</time></trkpt><trkpt lat="42.48910375822941" lon="14.121476833688149"><ele>23.0</ele><time>2026-05-02T06:25:29Z</time></trkpt><trkpt lat="42.48899725598766" lon="14.121387708072143"><ele>23.0</ele><time>2026-05-02T06:25:30Z</time></trkpt><trkpt lat="42.488893664069984" lon="14.121303996155039"><ele>23.0</ele><time>2026-05-02T06:25:31Z</time></trkpt><trkpt lat="42.488790707304545" lon="14.121224014191586"><ele>23.0</ele><time>2026-05-02T06:25:32Z</time></trkpt><trkpt lat="42.488688091673325" lon="14.121142060207314"><ele>23.0</ele><time>2026-05-02T06:25:33Z</time></trkpt><trkpt lat="42.48858818797374" lon="14.121060304903049"><ele>23.5</ele><time>2026-05-02T06:25:34Z</time></trkpt><trkpt lat="42.48849240920342" lon="14.120980652223501"><ele>24.0</ele><time>2026-05-02T06:25:35Z</time></trkpt><trkpt lat="42.48839514327905" lon="14.120903216926553"><ele>24.5</ele><time>2026-05-02T06:25:36Z</time></trkpt><trkpt lat="42.48829728084716" lon="14.120826791934634"><ele>25.0</ele><time>2026-05-02T06:25:37Z</time></trkpt><trkpt lat="42.48819977591655" lon="14.120749782537043"><ele>24.8</ele><time>2026-05-02T06:25:38Z</time></trkpt><trkpt lat="42.48810404412429" lon="14.120673055090853"><ele>24.6</ele><time>2026-05-02T06:25:39Z</time></trkpt><trkpt lat="42.488008848746944" lon="14.120599620424503"><ele>24.4</ele><time>2026-05-02T06:25:40Z</time></trkpt><trkpt lat="42.48791462468863" lon="14.120525634061824"><ele>24.2</ele><time>2026-05-02T06:25:41Z</time></trkpt><trkpt lat="42.48782117021338" lon="14.120449255511481"><ele>24.0</ele><time>2026-05-02T06:25:42Z</time></trkpt><trkpt lat="42.487725197215966" lon="14.120368869643103"><ele>24.5</ele><time>2026-05-02T06:25:43Z</time></trkpt><trkpt lat="42.487627903331486" lon="14.120282248473893"><ele>25.0</ele><time>2026-05-02T06:25:44Z</time></trkpt><trkpt lat="42.48752653954277" lon="14.12019998020024"><ele>25.5</ele><time>2026-05-02T06:25:45Z</time></trkpt><trkpt lat="42.487422512138" lon="14.120117041309667"><ele>26.0</ele><time>2026-05-02T06:25:46Z</time></trkpt><trkpt lat="42.48732008971428" lon="14.120033901455125"><ele>26.0</ele><time>2026-05-02T06:25:47Z</time></trkpt><trkpt lat="42.487221749429715" lon="14.119953533200693"><ele>26.0</ele><time>2026-05-02T06:25:48Z</time></trkpt><trkpt lat="42.48712612261566" lon="14.119877359429307"><ele>26.0</ele><time>2026-05-02T06:25:49Z</time></trkpt><trkpt lat="42.48703362857757" lon="14.119803684706795"><ele>26.0</ele><time>2026-05-02T06:25:50Z</time></trkpt><trkpt lat="42.48694519206893" lon="14.119732134540412"><ele>26.0</ele><time>2026-05-02T06:25:51Z</time></trkpt><trkpt lat="42.48686122888481" lon="14.119663376640297"><ele>25.999999999999996</ele><time>2026-05-02T06:25:52Z</time></trkpt><trkpt lat="42.486781185759604" lon="14.119596065073056"><ele>26.0</ele><time>2026-05-02T06:25:53Z</time></trkpt><trkpt lat="42.48670331749044" lon="14.119532738399737"><ele>26.0</ele><time>2026-05-02T06:25:54Z</time></trkpt><trkpt lat="42.48662936362086" lon="14.119472524810984"><ele>26.0</ele><time>2026-05-02T06:25:55Z</time></trkpt><trkpt lat="42.48655790225608" lon="14.11941244366508"><ele>25.999999999999996</ele><time>2026-05-02T06:25:56Z</time></trkpt><trkpt lat="42.486489488339494" lon="14.119358396727486"><ele>26.0</ele><time>2026-05-02T06:25:57Z</time></trkpt><trkpt lat="42.486423853255864" lon="14.119315353054011"><ele>26.0</ele><time>2026-05-02T06:25:58Z</time></trkpt><trkpt lat="42.48634878101359" lon="14.119267992849938"><ele>26.0</ele><time>2026-05-02T06:25:59Z</time></trkpt><trkpt lat="42.486258178088256" lon="14.119199274677113"><ele>26.0</ele><time>2026-05-02T06:26:00Z</time></trkpt><trkpt lat="42.486159993733025" lon="14.119094915886688"><ele>26.0</ele><time>2026-05-02T06:26:01Z</time></trkpt><trkpt lat="42.48603310428408" lon="14.119016815197213"><ele>25.666666666666664</ele><time>2026-05-02T06:26:02Z</time></trkpt><trkpt lat="42.485913935885065" lon="14.118891410627722"><ele>25.333333333333336</ele><time>2026-05-02T06:26:03Z</time></trkpt><trkpt lat="42.485772854547434" lon="14.118791485378386"><ele>25.0</ele><time>2026-05-02T06:26:04Z</time></trkpt><trkpt lat="42.4856492979387" lon="14.118684294759555"><ele>25.0</ele><time>2026-05-02T06:26:05Z</time></trkpt><trkpt lat="42.48553583489556" lon="14.118590466542466"><ele>25.0</ele><time>2026-05-02T06:26:06Z</time></trkpt><trkpt lat="42.48543360844105" lon="14.118506162381903"><ele>25.0</ele><time>2026-05-02T06:26:07Z</time></trkpt><trkpt lat="42.48533271856563" lon="14.118426161026179"><ele>25.0</ele><time>2026-05-02T06:26:08.001Z</time></trkpt><trkpt lat="42.485232901856605" lon="14.11834473981949"><ele>25.5</ele><time>2026-05-02T06:26:09.001Z</time></trkpt><trkpt lat="42.48513384443653" lon="14.118265700034534"><ele>26.0</ele><time>2026-05-02T06:26:10.001Z</time></trkpt><trkpt lat="42.48503470728823" lon="14.11818550007136"><ele>26.5</ele><time>2026-05-02T06:26:11.001Z</time></trkpt><trkpt lat="42.48493841464995" lon="14.118107135087454"><ele>27.0</ele><time>2026-05-02T06:26:12.001Z</time></trkpt><trkpt lat="42.48484481168996" lon="14.118035479639474"><ele>27.0</ele><time>2026-05-02T06:26:13.001Z</time></trkpt><trkpt lat="42.48475689623764" lon="14.117963118244203"><ele>27.000000000000004</ele><time>2026-05-02T06:26:14.001Z</time></trkpt><trkpt lat="42.48467295182227" lon="14.117896739465694"><ele>27.000000000000004</ele><time>2026-05-02T06:26:15.001Z</time></trkpt><trkpt lat="42.48459602459799" lon="14.117810751443256"><ele>27.0</ele><time>2026-05-02T06:26:16.001Z</time></trkpt><trkpt lat="42.48449789459368" lon="14.117754254863451"><ele>27.0</ele><time>2026-05-02T06:26:17.001Z</time></trkpt><trkpt lat="42.48439702875501" lon="14.117664891743752"><ele>27.0</ele><time>2026-05-02T06:26:18.001Z</time></trkpt><trkpt lat="42.48428185108475" lon="14.117567267515854"><ele>27.0</ele><time>2026-05-02T06:26:19.001Z</time></trkpt><trkpt lat="42.484159089814554" lon="14.117466230001824"><ele>27.0</ele><time>2026-05-02T06:26:20.001Z</time></trkpt><trkpt lat="42.48403328009376" lon="14.117363958594709"><ele>27.0</ele><time>2026-05-02T06:26:21.001Z</time></trkpt><trkpt lat="42.48390916746342" lon="14.117262667145036"><ele>27.0</ele><time>2026-05-02T06:26:22.001Z</time></trkpt><trkpt lat="42.48379163735753" lon="14.117167445696413"><ele>27.0</ele><time>2026-05-02T06:26:23.001Z</time></trkpt><trkpt lat="42.48367392460422" lon="14.117073765294727"><ele>27.0</ele><time>2026-05-02T06:26:24.001Z</time></trkpt><trkpt lat="42.483559909153996" lon="14.11698107097556"><ele>27.0</ele><time>2026-05-02T06:26:25.001Z</time></trkpt><trkpt lat="42.48344759757946" lon="14.116888845774662"><ele>27.25</ele><time>2026-05-02T06:26:26.001Z</time></trkpt><trkpt lat="42.48333690133428" lon="14.116794428146957"><ele>27.5</ele><time>2026-05-02T06:26:27.001Z</time></trkpt><trkpt lat="42.48322414888391" lon="14.116700923734932"><ele>27.75</ele><time>2026-05-02T06:26:28.001Z</time></trkpt><trkpt lat="42.48310923743723" lon="14.11660928216348"><ele>28.0</ele><time>2026-05-02T06:26:29.001Z</time></trkpt><trkpt lat="42.4829960983188" lon="14.116517372956984"><ele>28.25</ele><time>2026-05-02T06:26:30.001Z</time></trkpt><trkpt lat="42.48288517389581" lon="14.116425174582847"><ele>28.5</ele><time>2026-05-02T06:26:31.001Z</time></trkpt><trkpt lat="42.48277459927765" lon="14.116335989916577"><ele>28.75</ele><time>2026-05-02T06:26:32.001Z</time></trkpt><trkpt lat="42.48266344688062" lon="14.116247642426439"><ele>29.0</ele><time>2026-05-02T06:26:33.001Z</time></trkpt><trkpt lat="42.482552498208904" lon="14.116157773920408"><ele>29.0</ele><time>2026-05-02T06:26:34.001Z</time></trkpt><trkpt lat="42.48244492941573" lon="14.116072636444061"><ele>29.0</ele><time>2026-05-02T06:26:35.001Z</time></trkpt><trkpt lat="42.48233673287746" lon="14.115987471934083"><ele>29.0</ele><time>2026-05-02T06:26:36.001Z</time></trkpt><trkpt lat="42.482226753908805" lon="14.115898659244953"><ele>29.0</ele><time>2026-05-02T06:26:37.001Z</time></trkpt><trkpt lat="42.482118791241206" lon="14.11581015854107"><ele>30.0</ele><time>2026-05-02T06:26:38.001Z</time></trkpt><trkpt lat="42.482010138926405" lon="14.115720058221076"><ele>31.0</ele><time>2026-05-02T06:26:39.001Z</time></trkpt><trkpt lat="42.48190165570025" lon="14.115630254687586"><ele>32.0</ele><time>2026-05-02T06:26:40.001Z</time></trkpt><trkpt lat="42.48179025518102" lon="14.11554035388034"><ele>33.0</ele><time>2026-05-02T06:26:41.001Z</time></trkpt><trkpt lat="42.48168225763091" lon="14.115453760008602"><ele>33.0</ele><time>2026-05-02T06:26:42.001Z</time></trkpt><trkpt lat="42.481576747586736" lon="14.115375331640022"><ele>33.0</ele><time>2026-05-02T06:26:43.001Z</time></trkpt><trkpt lat="42.48147272865786" lon="14.115305836353516"><ele>33.0</ele><time>2026-05-02T06:26:44.001Z</time></trkpt><trkpt lat="42.481371007889294" lon="14.115224658613188"><ele>33.0</ele><time>2026-05-02T06:26:45.001Z</time></trkpt><trkpt lat="42.48126820685833" lon="14.11513449056969"><ele>33.0</ele><time>2026-05-02T06:26:46.001Z</time></trkpt><trkpt lat="42.48116368380155" lon="14.115044881910908"><ele>33.0</ele><time>2026-05-02T06:26:47.001Z</time></trkpt><trkpt lat="42.48105813041582" lon="14.11496015814223"><ele>33.0</ele><time>2026-05-02T06:26:48.001Z</time></trkpt><trkpt lat="42.48095190421975" lon="14.114876033578577"><ele>33.0</ele><time>2026-05-02T06:26:49.001Z</time></trkpt><trkpt lat="42.480845655723165" lon="14.114791646060445"><ele>32.25</ele><time>2026-05-02T06:26:50.001Z</time></trkpt><trkpt lat="42.48074060557405" lon="14.114704667866603"><ele>31.5</ele><time>2026-05-02T06:26:51.001Z</time></trkpt><trkpt lat="42.480635232937814" lon="14.11461532251666"><ele>30.75</ele><time>2026-05-02T06:26:52.001Z</time></trkpt><trkpt lat="42.480528104876676" lon="14.114527896471216"><ele>30.0</ele><time>2026-05-02T06:26:53.001Z</time></trkpt><trkpt lat="42.480421135593126" lon="14.114442462219376"><ele>30.0</ele><time>2026-05-02T06:26:54.001Z</time></trkpt><trkpt lat="42.48031617959598" lon="14.114359937423202"><ele>30.0</ele><time>2026-05-02T06:26:55.001Z</time></trkpt><trkpt lat="42.48021151095292" lon="14.114277471023675"><ele>30.0</ele><time>2026-05-02T06:26:56.001Z</time></trkpt><trkpt lat="42.48010849068143" lon="14.114190677174175"><ele>30.0</ele><time>2026-05-02T06:26:57.001Z</time></trkpt><trkpt lat="42.48000280999612" lon="14.114105289748965"><ele>29.75</ele><time>2026-05-02T06:26:58.001Z</time></trkpt><trkpt lat="42.4798972097882" lon="14.114016471380761"><ele>29.5</ele><time>2026-05-02T06:26:59.001Z</time></trkpt><trkpt lat="42.47979298698137" lon="14.113927694268098"><ele>29.25</ele><time>2026-05-02T06:27:00.001Z</time></trkpt><trkpt lat="42.47968579195779" lon="14.113837909640916"><ele>29.0</ele><time>2026-05-02T06:27:01.001Z</time></trkpt><trkpt lat="42.47958013145303" lon="14.113747224780287"><ele>29.75</ele><time>2026-05-02T06:27:02.001Z</time></trkpt><trkpt lat="42.47947633248141" lon="14.113659863192845"><ele>30.5</ele><time>2026-05-02T06:27:03.001Z</time></trkpt><trkpt lat="42.479370186461786" lon="14.113572941022017"><ele>31.25</ele><time>2026-05-02T06:27:04.001Z</time></trkpt><trkpt lat="42.479266306702776" lon="14.113486707711434"><ele>32.0</ele><time>2026-05-02T06:27:05.001Z</time></trkpt><trkpt lat="42.479164228898455" lon="14.113402363951561"><ele>32.0</ele><time>2026-05-02T06:27:06.001Z</time></trkpt><trkpt lat="42.47906092648586" lon="14.113317273825489"><ele>32.0</ele><time>2026-05-02T06:27:07.001Z</time></trkpt><trkpt lat="42.47895787931439" lon="14.113232782029508"><ele>32.0</ele><time>2026-05-02T06:27:08.001Z</time></trkpt><trkpt lat="42.478854004441914" lon="14.113148091138775"><ele>32.0</ele><time>2026-05-02T06:27:09.001Z</time></trkpt><trkpt lat="42.478750381991446" lon="14.113064603350324"><ele>32.25</ele><time>2026-05-02T06:27:10.001Z</time></trkpt><trkpt lat="42.478646653937595" lon="14.112979011184503"><ele>32.5</ele><time>2026-05-02T06:27:11.001Z</time></trkpt><trkpt lat="42.47854413793754" lon="14.112895329661441"><ele>32.75</ele><time>2026-05-02T06:27:12.001Z</time></trkpt><trkpt lat="42.4784388823297" lon="14.112806641910742"><ele>33.0</ele><time>2026-05-02T06:27:13.001Z</time></trkpt><trkpt lat="42.47833693964522" lon="14.11272749437236"><ele>33.0</ele><time>2026-05-02T06:27:14.001Z</time></trkpt><trkpt lat="42.478235602562464" lon="14.112644779458295"><ele>33.0</ele><time>2026-05-02T06:27:15.001Z</time></trkpt><trkpt lat="42.478130811190134" lon="14.112562516100148"><ele>33.0</ele><time>2026-05-02T06:27:16.001Z</time></trkpt><trkpt lat="42.47802357828821" lon="14.112480851715645"><ele>33.0</ele><time>2026-05-02T06:27:17.001Z</time></trkpt><trkpt lat="42.47791185957513" lon="14.112393781716902"><ele>33.5</ele><time>2026-05-02T06:27:18.001Z</time></trkpt><trkpt lat="42.47779268610378" lon="14.112303359255213"><ele>34.0</ele><time>2026-05-02T06:27:19.001Z</time></trkpt><trkpt lat="42.47766795959274" lon="14.112214595269963"><ele>34.5</ele><time>2026-05-02T06:27:20.001Z</time></trkpt><trkpt lat="42.4775376434794" lon="14.112112437581581"><ele>35.0</ele><time>2026-05-02T06:27:21.001Z</time></trkpt><trkpt lat="42.477406152315474" lon="14.112002425144446"><ele>35.0</ele><time>2026-05-02T06:27:22.001Z</time></trkpt><trkpt lat="42.477278211489875" lon="14.111897178875806"><ele>35.0</ele><time>2026-05-02T06:27:23.001Z</time></trkpt><trkpt lat="42.477158873138656" lon="14.11179966265107"><ele>35.0</ele><time>2026-05-02T06:27:24.001Z</time></trkpt><trkpt lat="42.47704368134849" lon="14.111704138729042"><ele>35.0</ele><time>2026-05-02T06:27:25.001Z</time></trkpt><trkpt lat="42.476933692346954" lon="14.111610692796182"><ele>35.0</ele><time>2026-05-02T06:27:26.001Z</time></trkpt><trkpt lat="42.47682880867232" lon="14.111522367274564"><ele>35.0</ele><time>2026-05-02T06:27:27.001Z</time></trkpt><trkpt lat="42.47673146835064" lon="14.111440418648652"><ele>35.0</ele><time>2026-05-02T06:27:28.001Z</time></trkpt><trkpt lat="42.47664074323502" lon="14.111367685608206"><ele>35.0</ele><time>2026-05-02T06:27:29.001Z</time></trkpt><trkpt lat="42.47656120118907" lon="14.111298822412463"><ele>35.0</ele><time>2026-05-02T06:27:30.001Z</time></trkpt><trkpt lat="42.47648789801507" lon="14.111229657875988"><ele>35.0</ele><time>2026-05-02T06:27:31.001Z</time></trkpt><trkpt lat="42.4764252800143" lon="14.111169400889064"><ele>35.0</ele><time>2026-05-02T06:27:32.001Z</time></trkpt><trkpt lat="42.47634991910915" lon="14.111082540869386"><ele>35.0</ele><time>2026-05-02T06:27:34.001Z</time></trkpt><trkpt lat="42.476308933259226" lon="14.111013907035307"><ele>35.0</ele><time>2026-05-02T06:27:36.001Z</time></trkpt><trkpt lat="42.476286362267864" lon="14.110909583329283"><ele>35.0</ele><time>2026-05-02T06:27:38.001Z</time></trkpt><trkpt lat="42.47628404666661" lon="14.11076185210458"><ele>35.0</ele><time>2026-05-02T06:27:40.001Z</time></trkpt><trkpt lat="42.47621272725521" lon="14.110655221586184"><ele>35.4</ele><time>2026-05-02T06:27:42.001Z</time></trkpt><trkpt lat="42.476108114200215" lon="14.110636876393711"><ele>35.8</ele><time>2026-05-02T06:27:44.001Z</time></trkpt><trkpt lat="42.476011317547595" lon="14.110682549222268"><ele>36.2</ele><time>2026-05-02T06:27:46.001Z</time></trkpt><trkpt lat="42.4758899109354" lon="14.110717408885002"><ele>36.6</ele><time>2026-05-02T06:27:48.001Z</time></trkpt><trkpt lat="42.475825545749316" lon="14.110702806041667"><ele>37.0</ele><time>2026-05-02T06:27:49.001Z</time></trkpt><trkpt lat="42.47576128289229" lon="14.110666235694312"><ele>37.0</ele><time>2026-05-02T06:27:50.001Z</time></trkpt><trkpt lat="42.47569429346692" lon="14.110621662725917"><ele>37.0</ele><time>2026-05-02T06:27:51.001Z</time></trkpt><trkpt lat="42.47562684042278" lon="14.110573242508735"><ele>37.0</ele><time>2026-05-02T06:27:52.001Z</time></trkpt><trkpt lat="42.475558948864084" lon="14.110530548434348"><ele>37.0</ele><time>2026-05-02T06:27:53.001Z</time></trkpt><trkpt lat="42.475469154955306" lon="14.110505707896673"><ele>37.0</ele><time>2026-05-02T06:27:54.001Z</time></trkpt><trkpt lat="42.47535691481996" lon="14.110471989632256"><ele>37.0</ele><time>2026-05-02T06:27:55.001Z</time></trkpt><trkpt lat="42.47522925768854" lon="14.110483562857349"><ele>38.75</ele><time>2026-05-02T06:27:56.001Z</time></trkpt><trkpt lat="42.47508513909282" lon="14.11051034619147"><ele>40.5</ele><time>2026-05-02T06:27:57.001Z</time></trkpt><trkpt lat="42.474954188478264" lon="14.110559254337298"><ele>42.25</ele><time>2026-05-02T06:27:58.001Z</time></trkpt><trkpt lat="42.474813733393276" lon="14.11056100119246"><ele>44.0</ele><time>2026-05-02T06:27:59.001Z</time></trkpt><trkpt lat="42.47466793503377" lon="14.110541463579969"><ele>46.666666666666664</ele><time>2026-05-02T06:28:00.001Z</time></trkpt><trkpt lat="42.474517602087474" lon="14.110499458894777"><ele>49.33333333333333</ele><time>2026-05-02T06:28:01.001Z</time></trkpt><trkpt lat="42.474363500768604" lon="14.110433372654064"><ele>52.0</ele><time>2026-05-02T06:28:02.001Z</time></trkpt><trkpt lat="42.47420986918973" lon="14.110355510022679"><ele>52.0</ele><time>2026-05-02T06:28:03.001Z</time></trkpt><trkpt lat="42.47405142365648" lon="14.110272488528123"><ele>52.0</ele><time>2026-05-02T06:28:04.001Z</time></trkpt><trkpt lat="42.473891600267244" lon="14.110189166827922"><ele>52.0</ele><time>2026-05-02T06:28:05.001Z</time></trkpt><trkpt lat="42.47374193513468" lon="14.110121039768094"><ele>53.33333333333333</ele><time>2026-05-02T06:28:06.001Z</time></trkpt><trkpt lat="42.47359034091629" lon="14.110058725088638"><ele>54.66666666666667</ele><time>2026-05-02T06:28:07.001Z</time></trkpt><trkpt lat="42.47343829668836" lon="14.109995234100003"><ele>56.0</ele><time>2026-05-02T06:28:08.001Z</time></trkpt><trkpt lat="42.47329553683799" lon="14.109929634924374"><ele>58.75</ele><time>2026-05-02T06:28:09.001Z</time></trkpt><trkpt lat="42.47315420581069" lon="14.10986185415002"><ele>61.5</ele><time>2026-05-02T06:28:10.001Z</time></trkpt><trkpt lat="42.47301291417355" lon="14.109797731426223"><ele>64.25</ele><time>2026-05-02T06:28:11.001Z</time></trkpt><trkpt lat="42.47287568937535" lon="14.109724452872365"><ele>67.0</ele><time>2026-05-02T06:28:12.001Z</time></trkpt><trkpt lat="42.47274056664739" lon="14.109651868227777"><ele>67.0</ele><time>2026-05-02T06:28:13.001Z</time></trkpt><trkpt lat="42.47260338474585" lon="14.109587108258758"><ele>67.0</ele><time>2026-05-02T06:28:14.001Z</time></trkpt><trkpt lat="42.47246170973679" lon="14.10954068414885"><ele>67.0</ele><time>2026-05-02T06:28:15.001Z</time></trkpt><trkpt lat="42.47231910580201" lon="14.109502712295557"><ele>67.0</ele><time>2026-05-02T06:28:16.001Z</time></trkpt><trkpt lat="42.47217908775028" lon="14.109467928814341"><ele>66.0</ele><time>2026-05-02T06:28:17.001Z</time></trkpt><trkpt lat="42.47204020030697" lon="14.109416819853543"><ele>65.0</ele><time>2026-05-02T06:28:18.001Z</time></trkpt><trkpt lat="42.471903751172654" lon="14.10934788007692"><ele>64.0</ele><time>2026-05-02T06:28:19.001Z</time></trkpt><trkpt lat="42.471772616311476" lon="14.109260578719201"><ele>63.0</ele><time>2026-05-02T06:28:20.001Z</time></trkpt><trkpt lat="42.47164523653612" lon="14.1091599684742"><ele>67.0</ele><time>2026-05-02T06:28:21.001Z</time></trkpt><trkpt lat="42.471523548257025" lon="14.109042278908198"><ele>71.0</ele><time>2026-05-02T06:28:22.001Z</time></trkpt><trkpt lat="42.471409339490855" lon="14.108907813975385"><ele>75.0</ele><time>2026-05-02T06:28:23.001Z</time></trkpt><trkpt lat="42.47129812979564" lon="14.108767278346823"><ele>75.75</ele><time>2026-05-02T06:28:24.001Z</time></trkpt><trkpt lat="42.47119065431285" lon="14.108626318622298"><ele>76.5</ele><time>2026-05-02T06:28:25.001Z</time></trkpt><trkpt lat="42.47108936406677" lon="14.108483424766048"><ele>77.25</ele><time>2026-05-02T06:28:26.001Z</time></trkpt><trkpt lat="42.47099174168513" lon="14.108339514793126"><ele>78.0</ele><time>2026-05-02T06:28:27.001Z</time></trkpt><trkpt lat="42.470911642466326" lon="14.108177072562489"><ele>78.0</ele><time>2026-05-02T06:28:28.001Z</time></trkpt><trkpt lat="42.470823881607146" lon="14.108024447164487"><ele>78.0</ele><time>2026-05-02T06:28:29.001Z</time></trkpt><trkpt lat="42.47072958294801" lon="14.107876421810678"><ele>78.0</ele><time>2026-05-02T06:28:30.001Z</time></trkpt><trkpt lat="42.47065971788089" lon="14.107708731103719"><ele>78.0</ele><time>2026-05-02T06:28:31.001Z</time></trkpt><trkpt lat="42.4705907310439" lon="14.10754182492122"><ele>76.5</ele><time>2026-05-02T06:28:32.001Z</time></trkpt><trkpt lat="42.47052615098107" lon="14.10737092202749"><ele>75.0</ele><time>2026-05-02T06:28:33.001Z</time></trkpt><trkpt lat="42.470473458950664" lon="14.107190802567459"><ele>73.5</ele><time>2026-05-02T06:28:34.001Z</time></trkpt><trkpt lat="42.47043192914494" lon="14.107009701323195"><ele>72.0</ele><time>2026-05-02T06:28:35.001Z</time></trkpt><trkpt lat="42.47038603583239" lon="14.106833434541267"><ele>72.0</ele><time>2026-05-02T06:28:36.001Z</time></trkpt><trkpt lat="42.47032153369953" lon="14.106665580099248"><ele>72.0</ele><time>2026-05-02T06:28:37.001Z</time></trkpt><trkpt lat="42.47024318675358" lon="14.10650807177857"><ele>72.0</ele><time>2026-05-02T06:28:38.001Z</time></trkpt><trkpt lat="42.470151566660306" lon="14.106359134625487"><ele>72.0</ele><time>2026-05-02T06:28:39.001Z</time></trkpt><trkpt lat="42.47004650202854" lon="14.106227916337073"><ele>74.25</ele><time>2026-05-02T06:28:40.001Z</time></trkpt><trkpt lat="42.46992818646091" lon="14.106118727999428"><ele>76.5</ele><time>2026-05-02T06:28:41.001Z</time></trkpt><trkpt lat="42.46980165424256" lon="14.106028151580489"><ele>78.75</ele><time>2026-05-02T06:28:42.001Z</time></trkpt><trkpt lat="42.46968119276207" lon="14.105922511752192"><ele>81.0</ele><time>2026-05-02T06:28:43.001Z</time></trkpt><trkpt lat="42.46954711244382" lon="14.105855306008088"><ele>81.0</ele><time>2026-05-02T06:28:44.001Z</time></trkpt><trkpt lat="42.46942204498292" lon="14.105766632847654"><ele>81.0</ele><time>2026-05-02T06:28:45.001Z</time></trkpt><trkpt lat="42.46929619744673" lon="14.105679715046067"><ele>81.0</ele><time>2026-05-02T06:28:46.001Z</time></trkpt><trkpt lat="42.46917166754074" lon="14.10559363637489"><ele>81.0</ele><time>2026-05-02T06:28:47.001Z</time></trkpt><trkpt lat="42.46905096430282" lon="14.105502727569661"><ele>84.25</ele><time>2026-05-02T06:28:48.001Z</time></trkpt><trkpt lat="42.468928113332844" lon="14.105417041629055"><ele>87.5</ele><time>2026-05-02T06:28:49.001Z</time></trkpt><trkpt lat="42.468802864417086" lon="14.10533663583997"><ele>90.75</ele><time>2026-05-02T06:28:50.001Z</time></trkpt><trkpt lat="42.468677486489256" lon="14.10525964484207"><ele>94.0</ele><time>2026-05-02T06:28:51.001Z</time></trkpt><trkpt lat="42.46854531366589" lon="14.105202992148774"><ele>94.5</ele><time>2026-05-02T06:28:52.001Z</time></trkpt><trkpt lat="42.46840441042696" lon="14.105167801984676"><ele>95.0</ele><time>2026-05-02T06:28:53.001Z</time></trkpt><trkpt lat="42.46825966215542" lon="14.105138040448002"><ele>95.5</ele><time>2026-05-02T06:28:54.001Z</time></trkpt><trkpt lat="42.46811419617619" lon="14.105104123505614"><ele>96.0</ele><time>2026-05-02T06:28:55.001Z</time></trkpt><trkpt lat="42.4679697523163" lon="14.10506494427364"><ele>94.5</ele><time>2026-05-02T06:28:56.001Z</time></trkpt><trkpt lat="42.46782943641169" lon="14.1050128425092"><ele>93.0</ele><time>2026-05-02T06:28:57.001Z</time></trkpt><trkpt lat="42.467706658770986" lon="14.104936707284006"><ele>91.5</ele><time>2026-05-02T06:28:58.001Z</time></trkpt><trkpt lat="42.46759870577027" lon="14.1048200652497"><ele>90.0</ele><time>2026-05-02T06:28:59.001Z</time></trkpt><trkpt lat="42.46748934179163" lon="14.104704013888814"><ele>92.5</ele><time>2026-05-02T06:29:00.001Z</time></trkpt><trkpt lat="42.46736901314632" lon="14.104595384900682"><ele>95.0</ele><time>2026-05-02T06:29:01.001Z</time></trkpt><trkpt lat="42.4672552739123" lon="14.10447807054991"><ele>97.5</ele><time>2026-05-02T06:29:02.001Z</time></trkpt><trkpt lat="42.46713523074908" lon="14.104380264329015"><ele>100.0</ele><time>2026-05-02T06:29:03.001Z</time></trkpt><trkpt lat="42.46701199924276" lon="14.104292001885439"><ele>100.0</ele><time>2026-05-02T06:29:04.001Z</time></trkpt><trkpt lat="42.46689079906716" lon="14.104199251025076"><ele>100.0</ele><time>2026-05-02T06:29:05.001Z</time></trkpt><trkpt lat="42.46676944669053" lon="14.104110126261777"><ele>100.0</ele><time>2026-05-02T06:29:06.001Z</time></trkpt><trkpt lat="42.46665080607562" lon="14.104013620548985"><ele>100.0</ele><time>2026-05-02T06:29:07.001Z</time></trkpt><trkpt lat="42.466530966758036" lon="14.103924044038147"><ele>99.75</ele><time>2026-05-02T06:29:08.001Z</time></trkpt><trkpt lat="42.46640516966791" lon="14.103853884000392"><ele>99.5</ele><time>2026-05-02T06:29:09.001Z</time></trkpt><trkpt lat="42.46627334611922" lon="14.103816171851681"><ele>99.25</ele><time>2026-05-02T06:29:10.001Z</time></trkpt><trkpt lat="42.466139138073125" lon="14.103805471261516"><ele>99.0</ele><time>2026-05-02T06:29:11.001Z</time></trkpt><trkpt lat="42.46600823971047" lon="14.103819638216912"><ele>102.5</ele><time>2026-05-02T06:29:12.001Z</time></trkpt><trkpt lat="42.46588190069237" lon="14.103840461669012"><ele>106.0</ele><time>2026-05-02T06:29:13.001Z</time></trkpt><trkpt lat="42.46576015942477" lon="14.103849570957433"><ele>109.5</ele><time>2026-05-02T06:29:14.001Z</time></trkpt><trkpt lat="42.46564413070002" lon="14.103847362164258"><ele>113.0</ele><time>2026-05-02T06:29:15.001Z</time></trkpt><trkpt lat="42.4655319844383" lon="14.103838258768146"><ele>114.0</ele><time>2026-05-02T06:29:16.001Z</time></trkpt><trkpt lat="42.465424222113796" lon="14.103811083650239"><ele>115.00000000000001</ele><time>2026-05-02T06:29:17.001Z</time></trkpt><trkpt lat="42.46532062194455" lon="14.103761034772212"><ele>116.00000000000001</ele><time>2026-05-02T06:29:18.001Z</time></trkpt><trkpt lat="42.465220716915994" lon="14.103703956125"><ele>117.0</ele><time>2026-05-02T06:29:19.001Z</time></trkpt><trkpt lat="42.46512568293651" lon="14.103646887376959"><ele>118.0</ele><time>2026-05-02T06:29:20.001Z</time></trkpt><trkpt lat="42.46503651572579" lon="14.103581672576446"><ele>118.0</ele><time>2026-05-02T06:29:21.001Z</time></trkpt><trkpt lat="42.46495709203714" lon="14.103510043632843"><ele>118.00000000000001</ele><time>2026-05-02T06:29:22.001Z</time></trkpt><trkpt lat="42.46488094858719" lon="14.103430460313303"><ele>118.00000000000001</ele><time>2026-05-02T06:29:23.001Z</time></trkpt><trkpt lat="42.46480996234779" lon="14.103339932665202"><ele>118.0</ele><time>2026-05-02T06:29:24.001Z</time></trkpt><trkpt lat="42.464744665600094" lon="14.103245476771274"><ele>118.0</ele><time>2026-05-02T06:29:25.001Z</time></trkpt><trkpt lat="42.464667107201805" lon="14.103166519106466"><ele>118.28571428571428</ele><time>2026-05-02T06:29:26.001Z</time></trkpt><trkpt lat="42.46459019329544" lon="14.10309941684157"><ele>118.57142857142858</ele><time>2026-05-02T06:29:27.001Z</time></trkpt><trkpt lat="42.46451941507962" lon="14.103058382629861"><ele>118.85714285714286</ele><time>2026-05-02T06:29:28.001Z</time></trkpt><trkpt lat="42.46445223960278" lon="14.10304994349632"><ele>119.14285714285714</ele><time>2026-05-02T06:29:29.001Z</time></trkpt><trkpt lat="42.46439337567707" lon="14.10309196099603"><ele>119.42857142857142</ele><time>2026-05-02T06:29:30.001Z</time></trkpt><trkpt lat="42.46436045148631" lon="14.103165088180926"><ele>119.71428571428572</ele><time>2026-05-02T06:29:31.001Z</time></trkpt><trkpt lat="42.46436867781197" lon="14.103258736438873"><ele>120.0</ele><time>2026-05-02T06:29:32.001Z</time></trkpt><trkpt lat="42.46441946042856" lon="14.103339633517718"><ele>120.0</ele><time>2026-05-02T06:29:33.001Z</time></trkpt><trkpt lat="42.464485356988966" lon="14.103398413875608"><ele>120.0</ele><time>2026-05-02T06:29:34.001Z</time></trkpt><trkpt lat="42.46456277528393" lon="14.103440691857289"><ele>120.0</ele><time>2026-05-02T06:29:35.001Z</time></trkpt><trkpt lat="42.464643084442635" lon="14.103479157596084"><ele>120.0</ele><time>2026-05-02T06:29:36.001Z</time></trkpt><trkpt lat="42.464711614888024" lon="14.1035323636289"><ele>120.0</ele><time>2026-05-02T06:29:37.001Z</time></trkpt><trkpt lat="42.46474918747328" lon="14.103612109674314"><ele>120.0</ele><time>2026-05-02T06:29:38.001Z</time></trkpt><trkpt lat="42.46472102507058" lon="14.103764863892437"><ele>120.0</ele><time>2026-05-02T06:29:40.001Z</time></trkpt><trkpt lat="42.46459545014289" lon="14.103831312876208"><ele>120.0</ele><time>2026-05-02T06:29:42.001Z</time></trkpt><trkpt lat="42.46451434978821" lon="14.10386945968102"><ele>120.0</ele><time>2026-05-02T06:29:43.001Z</time></trkpt><trkpt lat="42.46442640743895" lon="14.103910833069738"><ele>120.0</ele><time>2026-05-02T06:29:44.001Z</time></trkpt><trkpt lat="42.46432562294526" lon="14.103942138584447"><ele>120.0</ele><time>2026-05-02T06:29:45.001Z</time></trkpt><trkpt lat="42.4642165570059" lon="14.103967517534088"><ele>120.0</ele><time>2026-05-02T06:29:46.001Z</time></trkpt><trkpt lat="42.46410337980392" lon="14.103983958832918"><ele>120.0</ele><time>2026-05-02T06:29:47.001Z</time></trkpt><trkpt lat="42.46398666332704" lon="14.104000081856057"><ele>120.0</ele><time>2026-05-02T06:29:48.001Z</time></trkpt><trkpt lat="42.463866818758376" lon="14.10402243903484"><ele>120.0</ele><time>2026-05-02T06:29:49.001Z</time></trkpt><trkpt lat="42.46374958332634" lon="14.10404564169851"><ele>120.8</ele><time>2026-05-02T06:29:50.001Z</time></trkpt><trkpt lat="42.46363705201139" lon="14.104069600704662"><ele>121.6</ele><time>2026-05-02T06:29:51.001Z</time></trkpt><trkpt lat="42.46353592904244" lon="14.104095100422025"><ele>122.4</ele><time>2026-05-02T06:29:52.001Z</time></trkpt><trkpt lat="42.46344462648838" lon="14.104122520291298"><ele>123.2</ele><time>2026-05-02T06:29:53.001Z</time></trkpt><trkpt lat="42.46335873705658" lon="14.104159309740758"><ele>124.0</ele><time>2026-05-02T06:29:54.001Z</time></trkpt><trkpt lat="42.4632775813421" lon="14.104220864924732"><ele>125.0</ele><time>2026-05-02T06:29:55.001Z</time></trkpt><trkpt lat="42.463198902571605" lon="14.104297748174911"><ele>126.0</ele><time>2026-05-02T06:29:56.001Z</time></trkpt><trkpt lat="42.46311783104389" lon="14.104388297558692"><ele>127.0</ele><time>2026-05-02T06:29:57.001Z</time></trkpt><trkpt lat="42.463036080055154" lon="14.104481772601273"><ele>128.0</ele><time>2026-05-02T06:29:58.001Z</time></trkpt><trkpt lat="42.4629550105533" lon="14.104574522028791"><ele>129.0</ele><time>2026-05-02T06:29:59.001Z</time></trkpt><trkpt lat="42.46287778971965" lon="14.104665536416725"><ele>129.33333333333334</ele><time>2026-05-02T06:30:00.001Z</time></trkpt><trkpt lat="42.46280487660712" lon="14.104730511162233"><ele>129.66666666666666</ele><time>2026-05-02T06:30:01.001Z</time></trkpt><trkpt lat="42.46273612842651" lon="14.104774808203835"><ele>130.0</ele><time>2026-05-02T06:30:02.001Z</time></trkpt><trkpt lat="42.462671808655756" lon="14.104778169198442"><ele>130.33333333333331</ele><time>2026-05-02T06:30:03.001Z</time></trkpt><trkpt lat="42.46261392971739" lon="14.104734150395258"><ele>130.66666666666666</ele><time>2026-05-02T06:30:04.001Z</time></trkpt><trkpt lat="42.462561139706" lon="14.104678894668144"><ele>131.0</ele><time>2026-05-02T06:30:05.001Z</time></trkpt><trkpt lat="42.46245184690559" lon="14.104690041797879"><ele>131.0</ele><time>2026-05-02T06:30:07.001Z</time></trkpt><trkpt lat="42.4624145996126" lon="14.104840410125458"><ele>131.0</ele><time>2026-05-02T06:30:09.001Z</time></trkpt><trkpt lat="42.46244439240935" lon="14.104923602047247"><ele>131.0</ele><time>2026-05-02T06:30:10.001Z</time></trkpt><trkpt lat="42.46245530096919" lon="14.105015973946669"><ele>131.0</ele><time>2026-05-02T06:30:11.001Z</time></trkpt><trkpt lat="42.46240930895927" lon="14.105101532880418"><ele>131.0</ele><time>2026-05-02T06:30:12.001Z</time></trkpt><trkpt lat="42.46234557475066" lon="14.10517406621235"><ele>131.0</ele><time>2026-05-02T06:30:13.001Z</time></trkpt><trkpt lat="42.462268246928936" lon="14.105253227680839"><ele>131.5</ele><time>2026-05-02T06:30:14.001Z</time></trkpt><trkpt lat="42.462183582988615" lon="14.105339188931287"><ele>132.0</ele><time>2026-05-02T06:30:15.001Z</time></trkpt><trkpt lat="42.46208880128101" lon="14.10543564250411"><ele>132.5</ele><time>2026-05-02T06:30:16.001Z</time></trkpt><trkpt lat="42.46199127775499" lon="14.105536169216544"><ele>133.0</ele><time>2026-05-02T06:30:17.001Z</time></trkpt><trkpt lat="42.461891984916505" lon="14.10563229100002"><ele>134.5</ele><time>2026-05-02T06:30:18.001Z</time></trkpt><trkpt lat="42.461791982796356" lon="14.105728987301113"><ele>136.0</ele><time>2026-05-02T06:30:19.001Z</time></trkpt><trkpt lat="42.4616883214708" lon="14.105831759787888"><ele>137.5</ele><time>2026-05-02T06:30:20.001Z</time></trkpt><trkpt lat="42.461581694769436" lon="14.105932639122702"><ele>139.0</ele><time>2026-05-02T06:30:21.001Z</time></trkpt><trkpt lat="42.461475972429035" lon="14.106036631378862"><ele>139.0</ele><time>2026-05-02T06:30:22.001Z</time></trkpt><trkpt lat="42.46137727047105" lon="14.106141858345442"><ele>139.0</ele><time>2026-05-02T06:30:23.001Z</time></trkpt><trkpt lat="42.46128195215748" lon="14.106241858271327"><ele>139.0</ele><time>2026-05-02T06:30:24.001Z</time></trkpt><trkpt lat="42.46118578868933" lon="14.10632764787297"><ele>139.0</ele><time>2026-05-02T06:30:25.001Z</time></trkpt><trkpt lat="42.46107857962854" lon="14.10636876018717"><ele>140.0</ele><time>2026-05-02T06:30:26.001Z</time></trkpt><trkpt lat="42.46097752128993" lon="14.106409556342735"><ele>141.0</ele><time>2026-05-02T06:30:27.001Z</time></trkpt><trkpt lat="42.46087826859605" lon="14.106471701789033"><ele>142.0</ele><time>2026-05-02T06:30:28.001Z</time></trkpt><trkpt lat="42.46077814629484" lon="14.106527025343228"><ele>143.0</ele><time>2026-05-02T06:30:29.001Z</time></trkpt><trkpt lat="42.460682873871875" lon="14.106607041063603"><ele>144.0</ele><time>2026-05-02T06:30:30.001Z</time></trkpt><trkpt lat="42.46060082776559" lon="14.106711630345353"><ele>144.0</ele><time>2026-05-02T06:30:31.001Z</time></trkpt><trkpt lat="42.46053698039206" lon="14.10683950860156"><ele>144.0</ele><time>2026-05-02T06:30:32.001Z</time></trkpt><trkpt lat="42.46047926904917" lon="14.106970833312246"><ele>144.0</ele><time>2026-05-02T06:30:33.001Z</time></trkpt><trkpt lat="42.46042506147563" lon="14.107103805917616"><ele>144.0</ele><time>2026-05-02T06:30:34.001Z</time></trkpt><trkpt lat="42.460382964285465" lon="14.107245124107983"><ele>147.2</ele><time>2026-05-02T06:30:35.001Z</time></trkpt><trkpt lat="42.46035128859336" lon="14.107387853105426"><ele>150.4</ele><time>2026-05-02T06:30:36.001Z</time></trkpt><trkpt lat="42.460327221818076" lon="14.107532879139388"><ele>153.6</ele><time>2026-05-02T06:30:37.001Z</time></trkpt><trkpt lat="42.46030722540575" lon="14.107676519801368"><ele>156.8</ele><time>2026-05-02T06:30:38.001Z</time></trkpt><trkpt lat="42.46028481578836" lon="14.107817006792732"><ele>160.0</ele><time>2026-05-02T06:30:39.001Z</time></trkpt><trkpt lat="42.460249879938566" lon="14.107949309569921"><ele>160.0</ele><time>2026-05-02T06:30:40.001Z</time></trkpt><trkpt lat="42.4602052085697" lon="14.108073779918396"><ele>160.0</ele><time>2026-05-02T06:30:41.001Z</time></trkpt><trkpt lat="42.460158060865865" lon="14.108199773908837"><ele>160.0</ele><time>2026-05-02T06:30:42.001Z</time></trkpt><trkpt lat="42.46010961724156" lon="14.10833075753205"><ele>160.0</ele><time>2026-05-02T06:30:43.001Z</time></trkpt><trkpt lat="42.46005746886041" lon="14.108462933262034"><ele>160.0</ele><time>2026-05-02T06:30:44.001Z</time></trkpt><trkpt lat="42.46000580089311" lon="14.108599347900723"><ele>159.25</ele><time>2026-05-02T06:30:45.001Z</time></trkpt><trkpt lat="42.45995857151977" lon="14.108742284481334"><ele>158.5</ele><time>2026-05-02T06:30:46.001Z</time></trkpt><trkpt lat="42.459907472412084" lon="14.10888524679785"><ele>157.75</ele><time>2026-05-02T06:30:47.001Z</time></trkpt><trkpt lat="42.459845374812815" lon="14.10901663247099"><ele>157.0</ele><time>2026-05-02T06:30:48.001Z</time></trkpt><trkpt lat="42.45976926401971" lon="14.10913156192368"><ele>155.75</ele><time>2026-05-02T06:30:49.001Z</time></trkpt><trkpt lat="42.45968247659359" lon="14.109241439924428"><ele>154.5</ele><time>2026-05-02T06:30:50.001Z</time></trkpt><trkpt lat="42.45958517921319" lon="14.109340117859388"><ele>153.25</ele><time>2026-05-02T06:30:51.001Z</time></trkpt><trkpt lat="42.45948495218135" lon="14.109432409202876"><ele>152.0</ele><time>2026-05-02T06:30:52.001Z</time></trkpt><trkpt lat="42.45938844956579" lon="14.109523112388976"><ele>153.25</ele><time>2026-05-02T06:30:53.001Z</time></trkpt><trkpt lat="42.45930199264866" lon="14.109620004706326"><ele>154.5</ele><time>2026-05-02T06:30:54.001Z</time></trkpt><trkpt lat="42.45921997721634" lon="14.109726509120776"><ele>155.75</ele><time>2026-05-02T06:30:55.001Z</time></trkpt><trkpt lat="42.45913730595521" lon="14.109837206388317"><ele>157.0</ele><time>2026-05-02T06:30:56.001Z</time></trkpt><trkpt lat="42.459054524441676" lon="14.109951043351739"><ele>157.0</ele><time>2026-05-02T06:30:57.001Z</time></trkpt><trkpt lat="42.45897381321128" lon="14.110071366600781"><ele>157.0</ele><time>2026-05-02T06:30:58.001Z</time></trkpt><trkpt lat="42.458892701384535" lon="14.110196707017725"><ele>157.0</ele><time>2026-05-02T06:30:59.001Z</time></trkpt><trkpt lat="42.45881193810251" lon="14.110327116244846"><ele>157.0</ele><time>2026-05-02T06:31:00.001Z</time></trkpt><trkpt lat="42.45873161259517" lon="14.110462012118862"><ele>157.25</ele><time>2026-05-02T06:31:01.001Z</time></trkpt><trkpt lat="42.458651255931066" lon="14.110596690959444"><ele>157.5</ele><time>2026-05-02T06:31:02.001Z</time></trkpt><trkpt lat="42.458570483894604" lon="14.110727738736209"><ele>157.75</ele><time>2026-05-02T06:31:03.001Z</time></trkpt><trkpt lat="42.458492681032624" lon="14.110854345906677"><ele>158.0</ele><time>2026-05-02T06:31:04.001Z</time></trkpt><trkpt lat="42.45841898993976" lon="14.110978759693797"><ele>158.8</ele><time>2026-05-02T06:31:05.001Z</time></trkpt><trkpt lat="42.45835036044062" lon="14.111091393155876"><ele>159.60000000000002</ele><time>2026-05-02T06:31:06.001Z</time></trkpt><trkpt lat="42.458282083103995" lon="14.111185373792969"><ele>160.39999999999998</ele><time>2026-05-02T06:31:07.001Z</time></trkpt><trkpt lat="42.45820608446403" lon="14.111250731747223"><ele>161.2</ele><time>2026-05-02T06:31:08.001Z</time></trkpt><trkpt lat="42.45812644093944" lon="14.111273516237452"><ele>162.0</ele><time>2026-05-02T06:31:09.001Z</time></trkpt><trkpt lat="42.45804772679082" lon="14.111247800957697"><ele>162.0</ele><time>2026-05-02T06:31:10.001Z</time></trkpt><trkpt lat="42.457988940027526" lon="14.11117915114014"><ele>162.0</ele><time>2026-05-02T06:31:11.001Z</time></trkpt><trkpt lat="42.45794781602399" lon="14.111082708715092"><ele>162.0</ele><time>2026-05-02T06:31:12.001Z</time></trkpt><trkpt lat="42.45792521259487" lon="14.110974656803203"><ele>162.0</ele><time>2026-05-02T06:31:13.001Z</time></trkpt><trkpt lat="42.457898820572446" lon="14.110874160028615"><ele>162.0</ele><time>2026-05-02T06:31:14.001Z</time></trkpt><trkpt lat="42.45785623742409" lon="14.110801857542846"><ele>162.0</ele><time>2026-05-02T06:31:15.001Z</time></trkpt><trkpt lat="42.45773650276873" lon="14.110787511406494"><ele>164.16666666666666</ele><time>2026-05-02T06:31:17.001Z</time></trkpt><trkpt lat="42.457688247647084" lon="14.110860961202633"><ele>166.33333333333334</ele><time>2026-05-02T06:31:18.001Z</time></trkpt><trkpt lat="42.457680739080594" lon="14.110956622773912"><ele>168.5</ele><time>2026-05-02T06:31:19.001Z</time></trkpt><trkpt lat="42.45770408087044" lon="14.1110569035243"><ele>170.66666666666669</ele><time>2026-05-02T06:31:20.001Z</time></trkpt><trkpt lat="42.457736265614585" lon="14.111166116533497"><ele>172.83333333333334</ele><time>2026-05-02T06:31:21.001Z</time></trkpt><trkpt lat="42.45776977955112" lon="14.111288262076814"><ele>175.0</ele><time>2026-05-02T06:31:22.001Z</time></trkpt><trkpt lat="42.45780403869377" lon="14.111419184996967"><ele>175.0</ele><time>2026-05-02T06:31:23.001Z</time></trkpt><trkpt lat="42.45784008912713" lon="14.111554632858258"><ele>175.0</ele><time>2026-05-02T06:31:24.001Z</time></trkpt><trkpt lat="42.4578769209347" lon="14.111697642285415"><ele>175.0</ele><time>2026-05-02T06:31:25.001Z</time></trkpt><trkpt lat="42.45791154052992" lon="14.11184444958444"><ele>175.0</ele><time>2026-05-02T06:31:26.001Z</time></trkpt><trkpt lat="42.45794528260952" lon="14.111994976376888"><ele>175.0</ele><time>2026-05-02T06:31:27.001Z</time></trkpt><trkpt lat="42.45798140892881" lon="14.112144001726476"><ele>175.0</ele><time>2026-05-02T06:31:28.001Z</time></trkpt><trkpt lat="42.45801656427701" lon="14.112289360181492"><ele>175.0</ele><time>2026-05-02T06:31:29.001Z</time></trkpt><trkpt lat="42.458047698815406" lon="14.112430663104748"><ele>175.0</ele><time>2026-05-02T06:31:30.001Z</time></trkpt><trkpt lat="42.458073715047256" lon="14.112571326382103"><ele>175.0</ele><time>2026-05-02T06:31:31.001Z</time></trkpt><trkpt lat="42.45809179435651" lon="14.112712646213405"><ele>175.0</ele><time>2026-05-02T06:31:32.001Z</time></trkpt><trkpt lat="42.45810443032501" lon="14.112853707645987"><ele>175.0</ele><time>2026-05-02T06:31:33.001Z</time></trkpt><trkpt lat="42.45810081046709" lon="14.11299274478389"><ele>175.0</ele><time>2026-05-02T06:31:34.001Z</time></trkpt><trkpt lat="42.45807672888067" lon="14.113124745353474"><ele>175.0</ele><time>2026-05-02T06:31:35.001Z</time></trkpt><trkpt lat="42.45803534008697" lon="14.11324961315313"><ele>175.0</ele><time>2026-05-02T06:31:36.001Z</time></trkpt><trkpt lat="42.457987011175696" lon="14.113374826603673"><ele>175.0</ele><time>2026-05-02T06:31:37.001Z</time></trkpt><trkpt lat="42.457942818089336" lon="14.113512874264611"><ele>176.25</ele><time>2026-05-02T06:31:38.001Z</time></trkpt><trkpt lat="42.45791143163949" lon="14.113661524127066"><ele>177.5</ele><time>2026-05-02T06:31:39.001Z</time></trkpt><trkpt lat="42.45789699222343" lon="14.113820831127635"><ele>178.75</ele><time>2026-05-02T06:31:40.001Z</time></trkpt><trkpt lat="42.45790136628125" lon="14.113989714942067"><ele>180.0</ele><time>2026-05-02T06:31:41.001Z</time></trkpt><trkpt lat="42.45790706498861" lon="14.114162507441334"><ele>177.0</ele><time>2026-05-02T06:31:42.001Z</time></trkpt><trkpt lat="42.45790857145629" lon="14.114335366706959"><ele>174.0</ele><time>2026-05-02T06:31:43.001Z</time></trkpt><trkpt lat="42.457903514684" lon="14.114500503482285"><ele>171.0</ele><time>2026-05-02T06:31:44.001Z</time></trkpt><trkpt lat="42.45788221278374" lon="14.11466079975377"><ele>168.0</ele><time>2026-05-02T06:31:45.001Z</time></trkpt><trkpt lat="42.45784587889189" lon="14.114813583968917"><ele>167.8</ele><time>2026-05-02T06:31:46.001Z</time></trkpt><trkpt lat="42.45780672225186" lon="14.114956380638391"><ele>167.60000000000002</ele><time>2026-05-02T06:31:47.001Z</time></trkpt><trkpt lat="42.45778379642021" lon="14.115095334040205"><ele>167.39999999999998</ele><time>2026-05-02T06:31:48.001Z</time></trkpt><trkpt lat="42.45778464162789" lon="14.11523029240627"><ele>167.2</ele><time>2026-05-02T06:31:49.001Z</time></trkpt><trkpt lat="42.457809130812535" lon="14.115355862201648"><ele>167.0</ele><time>2026-05-02T06:31:50.001Z</time></trkpt><trkpt lat="42.45786002488853" lon="14.115468925247809"><ele>167.0</ele><time>2026-05-02T06:31:51.001Z</time></trkpt><trkpt lat="42.45792142927438" lon="14.115595197902433"><ele>167.0</ele><time>2026-05-02T06:31:52.001Z</time></trkpt><trkpt lat="42.45801897467564" lon="14.115679525695905"><ele>167.0</ele><time>2026-05-02T06:31:53.001Z</time></trkpt><trkpt lat="42.45811326300818" lon="14.115781537837229"><ele>167.0</ele><time>2026-05-02T06:31:54.001Z</time></trkpt><trkpt lat="42.45821353167539" lon="14.115887961711817"><ele>167.0</ele><time>2026-05-02T06:31:55.001Z</time></trkpt><trkpt lat="42.458313282047776" lon="14.116005058982179"><ele>167.0</ele><time>2026-05-02T06:31:56Z</time></trkpt><trkpt lat="42.45841009529564" lon="14.116127084542956"><ele>167.0</ele><time>2026-05-02T06:31:57Z</time></trkpt><trkpt lat="42.458507879107295" lon="14.116249918118397"><ele>167.0</ele><time>2026-05-02T06:31:58Z</time></trkpt><trkpt lat="42.4586083828842" lon="14.116369394002678"><ele>167.0</ele><time>2026-05-02T06:31:59Z</time></trkpt><trkpt lat="42.4587129697703" lon="14.11648349506469"><ele>167.0</ele><time>2026-05-02T06:32:00Z</time></trkpt><trkpt lat="42.45882038201683" lon="14.116591438376593"><ele>167.0</ele><time>2026-05-02T06:32:01Z</time></trkpt><trkpt lat="42.458929299478136" lon="14.116695253092542"><ele>167.0</ele><time>2026-05-02T06:32:02Z</time></trkpt><trkpt lat="42.45904244502694" lon="14.116796865410386"><ele>166.0</ele><time>2026-05-02T06:32:03Z</time></trkpt><trkpt lat="42.45915890875006" lon="14.116894975555734"><ele>165.0</ele><time>2026-05-02T06:32:04Z</time></trkpt><trkpt lat="42.45927527416176" lon="14.116991553963226"><ele>164.0</ele><time>2026-05-02T06:32:05Z</time></trkpt><trkpt lat="42.45939098456718" lon="14.117086749564292"><ele>163.0</ele><time>2026-05-02T06:32:06Z</time></trkpt><trkpt lat="42.45950734638958" lon="14.11717949746605"><ele>162.5</ele><time>2026-05-02T06:32:07Z</time></trkpt><trkpt lat="42.45962356340773" lon="14.117271507167636"><ele>162.0</ele><time>2026-05-02T06:32:08Z</time></trkpt><trkpt lat="42.45973714823193" lon="14.117365581589443"><ele>161.5</ele><time>2026-05-02T06:32:09Z</time></trkpt><trkpt lat="42.459850780358245" lon="14.117456513050355"><ele>161.0</ele><time>2026-05-02T06:32:10Z</time></trkpt><trkpt lat="42.459962212614734" lon="14.11754553053393"><ele>160.75</ele><time>2026-05-02T06:32:11Z</time></trkpt><trkpt lat="42.460070467286656" lon="14.117634520465185"><ele>160.5</ele><time>2026-05-02T06:32:12Z</time></trkpt><trkpt lat="42.4601736346024" lon="14.117717085730902"><ele>160.25</ele><time>2026-05-02T06:32:13Z</time></trkpt><trkpt lat="42.460267136763825" lon="14.117798940163903"><ele>160.0</ele><time>2026-05-02T06:32:14Z</time></trkpt><trkpt lat="42.460348772600675" lon="14.117888621048927"><ele>160.0</ele><time>2026-05-02T06:32:15Z</time></trkpt><trkpt lat="42.46040845367813" lon="14.117989613703276"><ele>160.0</ele><time>2026-05-02T06:32:16Z</time></trkpt><trkpt lat="42.46045116969306" lon="14.118102142134326"><ele>160.0</ele><time>2026-05-02T06:32:17Z</time></trkpt><trkpt lat="42.4604808781922" lon="14.11823486497815"><ele>160.0</ele><time>2026-05-02T06:32:18Z</time></trkpt><trkpt lat="42.46048911286364" lon="14.118387919493427"><ele>160.0</ele><time>2026-05-02T06:32:19Z</time></trkpt><trkpt lat="42.460480422127844" lon="14.118547491168972"><ele>160.0</ele><time>2026-05-02T06:32:20Z</time></trkpt><trkpt lat="42.46045093907587" lon="14.118711656223969"><ele>160.0</ele><time>2026-05-02T06:32:21Z</time></trkpt><trkpt lat="42.46040883723923" lon="14.118879097497283"><ele>160.0</ele><time>2026-05-02T06:32:22Z</time></trkpt><trkpt lat="42.46035910698839" lon="14.119045166154379"><ele>160.0</ele><time>2026-05-02T06:32:23Z</time></trkpt><trkpt lat="42.460307060825556" lon="14.119196233128184"><ele>160.0</ele><time>2026-05-02T06:32:24Z</time></trkpt><trkpt lat="42.46025538785633" lon="14.119330490195553"><ele>160.0</ele><time>2026-05-02T06:32:25Z</time></trkpt><trkpt lat="42.460202258643996" lon="14.119440658473692"><ele>160.0</ele><time>2026-05-02T06:32:26Z</time></trkpt><trkpt lat="42.46014931821956" lon="14.119530366336653"><ele>160.0</ele><time>2026-05-02T06:32:27Z</time></trkpt><trkpt lat="42.4600922003376" lon="14.119597342167088"><ele>160.0</ele><time>2026-05-02T06:32:28Z</time></trkpt><trkpt lat="42.46002578697313" lon="14.1196486397262"><ele>160.0</ele><time>2026-05-02T06:32:29Z</time></trkpt><trkpt lat="42.45995924193461" lon="14.119696773368045"><ele>160.0</ele><time>2026-05-02T06:32:30Z</time></trkpt><trkpt lat="42.4599071863884" lon="14.119757648809024"><ele>160.0</ele><time>2026-05-02T06:32:31.001Z</time></trkpt><trkpt lat="42.45986631851382" lon="14.119854761622717"><ele>160.0</ele><time>2026-05-02T06:32:32.001Z</time></trkpt><trkpt lat="42.459836818396916" lon="14.119967107583134"><ele>160.0</ele><time>2026-05-02T06:32:33.001Z</time></trkpt><trkpt lat="42.45979093799912" lon="14.120080229732125"><ele>160.0</ele><time>2026-05-02T06:32:34.001Z</time></trkpt><trkpt lat="42.45971930469357" lon="14.120183807881645"><ele>160.0</ele><time>2026-05-02T06:32:35.001Z</time></trkpt><trkpt lat="42.459631734348704" lon="14.120271953183021"><ele>159.75</ele><time>2026-05-02T06:32:36.001Z</time></trkpt><trkpt lat="42.459535057408715" lon="14.120363081683337"><ele>159.5</ele><time>2026-05-02T06:32:37.001Z</time></trkpt><trkpt lat="42.45942790472646" lon="14.120469131317563"><ele>159.25</ele><time>2026-05-02T06:32:38.001Z</time></trkpt><trkpt lat="42.45930922883497" lon="14.120589199835845"><ele>159.0</ele><time>2026-05-02T06:32:39.001Z</time></trkpt><trkpt lat="42.459184063944896" lon="14.120720183053947"><ele>159.25</ele><time>2026-05-02T06:32:40.001Z</time></trkpt><trkpt lat="42.45905882167603" lon="14.120850193744943"><ele>159.5</ele><time>2026-05-02T06:32:41.001Z</time></trkpt><trkpt lat="42.458957434098735" lon="14.120962742921886"><ele>159.75</ele><time>2026-05-02T06:32:42.001Z</time></trkpt><trkpt lat="42.45889180115763" lon="14.121036314827837"><ele>160.0</ele><time>2026-05-02T06:32:43.001Z</time></trkpt><trkpt lat="42.458814940843055" lon="14.121105137913931"><ele>160.0</ele><time>2026-05-02T06:32:45.001Z</time></trkpt><trkpt lat="42.4587505104963" lon="14.121109864338159"><ele>160.0</ele><time>2026-05-02T06:32:48.001Z</time></trkpt><trkpt lat="42.45882182379759" lon="14.121103142247993"><ele>160.0</ele><time>2026-05-02T06:33:00.001Z</time></trkpt><trkpt lat="42.458691067851916" lon="14.12101056052439"><ele>160.0</ele><time>2026-05-02T06:33:09.001Z</time></trkpt><trkpt lat="42.45859346504658" lon="14.120944102606316"><ele>160.0</ele><time>2026-05-02T06:33:10.001Z</time></trkpt><trkpt lat="42.45853160659162" lon="14.12084254722633"><ele>160.14285714285714</ele><time>2026-05-02T06:33:11.001Z</time></trkpt><trkpt lat="42.45848731964082" lon="14.120770357827999"><ele>160.28571428571428</ele><time>2026-05-02T06:33:12.001Z</time></trkpt><trkpt lat="42.458444438216816" lon="14.120700459415351"><ele>160.42857142857144</ele><time>2026-05-02T06:33:13.001Z</time></trkpt><trkpt lat="42.45840030386383" lon="14.120628518671817"><ele>160.57142857142856</ele><time>2026-05-02T06:33:14.001Z</time></trkpt><trkpt lat="42.45835540178765" lon="14.120555326613312"><ele>160.71428571428572</ele><time>2026-05-02T06:33:15.001Z</time></trkpt><trkpt lat="42.458324564102824" lon="14.120464478637617"><ele>160.85714285714286</ele><time>2026-05-02T06:33:16.001Z</time></trkpt><trkpt lat="42.45826523545656" lon="14.12040165224716"><ele>161.0</ele><time>2026-05-02T06:33:17.001Z</time></trkpt><trkpt lat="42.4582073496538" lon="14.120340613904965"><ele>159.71428571428572</ele><time>2026-05-02T06:33:18.001Z</time></trkpt><trkpt lat="42.45816108525986" lon="14.120259598998656"><ele>158.42857142857144</ele><time>2026-05-02T06:33:19.001Z</time></trkpt><trkpt lat="42.458105998556405" lon="14.120204018326753"><ele>157.14285714285714</ele><time>2026-05-02T06:33:20.001Z</time></trkpt><trkpt lat="42.458048779640706" lon="14.120165824529344"><ele>155.85714285714286</ele><time>2026-05-02T06:33:21.001Z</time></trkpt><trkpt lat="42.458001613345154" lon="14.120106730509747"><ele>154.57142857142858</ele><time>2026-05-02T06:33:22.001Z</time></trkpt><trkpt lat="42.457956284177776" lon="14.120032271450318"><ele>153.28571428571428</ele><time>2026-05-02T06:33:23.001Z</time></trkpt><trkpt lat="42.45790785452127" lon="14.119954980064675"><ele>152.0</ele><time>2026-05-02T06:33:24.001Z</time></trkpt><trkpt lat="42.45785174786605" lon="14.119882655146839"><ele>148.66666666666666</ele><time>2026-05-02T06:33:25.001Z</time></trkpt><trkpt lat="42.45780351515695" lon="14.119811432135219"><ele>145.33333333333331</ele><time>2026-05-02T06:33:26.001Z</time></trkpt><trkpt lat="42.457725137484005" lon="14.119699673905803"><ele>142.0</ele><time>2026-05-02T06:33:28.001Z</time></trkpt><trkpt lat="42.45766922329194" lon="14.119619056801577"><ele>138.66666666666666</ele><time>2026-05-02T06:33:30.001Z</time></trkpt><trkpt lat="42.45761644697864" lon="14.119550583678455"><ele>135.33333333333334</ele><time>2026-05-02T06:33:38.001Z</time></trkpt><trkpt lat="42.45757137872461" lon="14.119479168687018"><ele>132.0</ele><time>2026-05-02T06:33:40.001Z</time></trkpt><trkpt lat="42.45750405101246" lon="14.119395804311345"><ele>132.0</ele><time>2026-05-02T06:33:42Z</time></trkpt><trkpt lat="42.45743561530427" lon="14.119312573369625"><ele>132.0</ele><time>2026-05-02T06:33:44Z</time></trkpt><trkpt lat="42.45736056752831" lon="14.119269158741535"><ele>132.0</ele><time>2026-05-02T06:33:46Z</time></trkpt><trkpt lat="42.45728839059255" lon="14.119266358337335"><ele>132.0</ele><time>2026-05-02T06:33:48Z</time></trkpt><trkpt lat="42.45719157728901" lon="14.119261949976122"><ele>132.0</ele><time>2026-05-02T06:33:50Z</time></trkpt><trkpt lat="42.457086072540385" lon="14.119256028146667"><ele>132.0</ele><time>2026-05-02T06:33:52Z</time></trkpt><trkpt lat="42.45697514294385" lon="14.119258163941353"><ele>130.66666666666666</ele><time>2026-05-02T06:33:54Z</time></trkpt><trkpt lat="42.456881471824026" lon="14.119267959421652"><ele>129.33333333333334</ele><time>2026-05-02T06:33:56Z</time></trkpt><trkpt lat="42.45680158604655" lon="14.119275987999382"><ele>128.0</ele><time>2026-05-02T06:33:58Z</time></trkpt><trkpt lat="42.45673298869585" lon="14.119287743416072"><ele>126.66666666666667</ele><time>2026-05-02T06:34:01Z</time></trkpt><trkpt lat="42.45666714161938" lon="14.1193145857017"><ele>125.33333333333334</ele><time>2026-05-02T06:34:07Z</time></trkpt><trkpt lat="42.45659957732963" lon="14.119347511339633"><ele>124.0</ele><time>2026-05-02T06:34:09Z</time></trkpt><trkpt lat="42.4565102122811" lon="14.119336056780265"><ele>124.00000000000001</ele><time>2026-05-02T06:34:11Z</time></trkpt><trkpt lat="42.45642051209801" lon="14.119315600756117"><ele>124.0</ele><time>2026-05-02T06:34:13Z</time></trkpt><trkpt lat="42.456336568224096" lon="14.119315454802447"><ele>124.0</ele><time>2026-05-02T06:34:15Z</time></trkpt><trkpt lat="42.456267291777195" lon="14.119329487357701"><ele>124.0</ele><time>2026-05-02T06:34:17Z</time></trkpt><trkpt lat="42.45616055805748" lon="14.11935922019846"><ele>124.00000000000001</ele><time>2026-05-02T06:34:20Z</time></trkpt><trkpt lat="42.45608508150451" lon="14.119339541198027"><ele>124.0</ele><time>2026-05-02T06:34:27Z</time></trkpt><trkpt lat="42.456011570336756" lon="14.11933375468199"><ele>123.16666666666667</ele><time>2026-05-02T06:34:35Z</time></trkpt><trkpt lat="42.45592955407537" lon="14.119319599797903"><ele>122.33333333333334</ele><time>2026-05-02T06:34:39Z</time></trkpt><trkpt lat="42.45585590790325" lon="14.119281018997514"><ele>121.5</ele><time>2026-05-02T06:34:42Z</time></trkpt><trkpt lat="42.455786655212925" lon="14.11924948560305"><ele>120.66666666666666</ele><time>2026-05-02T06:34:46Z</time></trkpt><trkpt lat="42.45571204284296" lon="14.119220412132876"><ele>119.83333333333333</ele><time>2026-05-02T06:34:49Z</time></trkpt><trkpt lat="42.4556361523817" lon="14.11921350368243"><ele>119.0</ele><time>2026-05-02T06:34:52Z</time></trkpt><trkpt lat="42.45554903951907" lon="14.119221175356742"><ele>118.99999999999999</ele><time>2026-05-02T06:34:55Z</time></trkpt><trkpt lat="42.45546282468005" lon="14.119230612869153"><ele>119.0</ele><time>2026-05-02T06:35:17Z</time></trkpt><trkpt lat="42.45539363068083" lon="14.119224721377835"><ele>119.0</ele><time>2026-05-02T06:35:19Z</time></trkpt><trkpt lat="42.45531241580344" lon="14.119224893093303"><ele>119.0</ele><time>2026-05-02T06:35:22Z</time></trkpt><trkpt lat="42.455243502467134" lon="14.119245277230167"><ele>118.99999999999999</ele><time>2026-05-02T06:35:25Z</time></trkpt><trkpt lat="42.45517017448034" lon="14.119239043172092"><ele>119.0</ele><time>2026-05-02T06:35:28.001Z</time></trkpt><trkpt lat="42.45508685537913" lon="14.119212242601169"><ele>118.16666666666666</ele><time>2026-05-02T06:35:31.001Z</time></trkpt><trkpt lat="42.455023893852335" lon="14.119218379712125"><ele>117.33333333333333</ele><time>2026-05-02T06:35:33.001Z</time></trkpt><trkpt lat="42.454946018901616" lon="14.119215327479962"><ele>116.5</ele><time>2026-05-02T06:35:36.001Z</time></trkpt><trkpt lat="42.454868060466424" lon="14.119183190850094"><ele>115.66666666666666</ele><time>2026-05-02T06:35:40.001Z</time></trkpt><trkpt lat="42.454784452717966" lon="14.119111255043807"><ele>114.83333333333333</ele><time>2026-05-02T06:35:43.001Z</time></trkpt><trkpt lat="42.454784152977595" lon="14.118999303461804"><ele>114.0</ele><time>2026-05-02T06:35:46Z</time></trkpt><trkpt lat="42.45480355796001" lon="14.11887433408282"><ele>114.4</ele><time>2026-05-02T06:35:48Z</time></trkpt><trkpt lat="42.4548208781188" lon="14.118755367472913"><ele>114.80000000000001</ele><time>2026-05-02T06:35:50Z</time></trkpt><trkpt lat="42.45484862214588" lon="14.11859189742457"><ele>115.19999999999999</ele><time>2026-05-02T06:35:52Z</time></trkpt><trkpt lat="42.45484929264088" lon="14.118477049285856"><ele>115.6</ele><time>2026-05-02T06:35:54Z</time></trkpt><trkpt lat="42.454863827834295" lon="14.118366200484896"><ele>116.0</ele><time>2026-05-02T06:35:57Z</time></trkpt><trkpt lat="42.45487189616578" lon="14.118229354411355"><ele>116.0</ele><time>2026-05-02T06:35:59Z</time></trkpt><trkpt lat="42.45489543010229" lon="14.118078015400027"><ele>116.0</ele><time>2026-05-02T06:36:01Z</time></trkpt><trkpt lat="42.45492645594622" lon="14.117942037330415"><ele>116.0</ele><time>2026-05-02T06:36:03Z</time></trkpt><trkpt lat="42.45496080500138" lon="14.1177761292622"><ele>116.0</ele><time>2026-05-02T06:36:05Z</time></trkpt><trkpt lat="42.45497192188878" lon="14.117675206525613"><ele>116.0</ele><time>2026-05-02T06:36:06Z</time></trkpt><trkpt lat="42.45498023051672" lon="14.117573469299467"><ele>116.0</ele><time>2026-05-02T06:36:07Z</time></trkpt><trkpt lat="42.454984549760056" lon="14.117413628173807"><ele>116.0</ele><time>2026-05-02T06:36:09Z</time></trkpt><trkpt lat="42.45498573491623" lon="14.117286667835678"><ele>116.0</ele><time>2026-05-02T06:36:11Z</time></trkpt><trkpt lat="42.45492820378716" lon="14.11720397690088"><ele>116.0</ele><time>2026-05-02T06:36:14Z</time></trkpt><trkpt lat="42.45481523319659" lon="14.117188918501856"><ele>116.0</ele><time>2026-05-02T06:36:16Z</time></trkpt><trkpt lat="42.45472634052638" lon="14.117173820904656"><ele>117.16666666666666</ele><time>2026-05-02T06:36:17Z</time></trkpt><trkpt lat="42.45464071769659" lon="14.117152428559036"><ele>118.33333333333333</ele><time>2026-05-02T06:36:18Z</time></trkpt><trkpt lat="42.454561751316156" lon="14.117122041299528"><ele>119.5</ele><time>2026-05-02T06:36:19Z</time></trkpt><trkpt lat="42.45447430488646" lon="14.117097221059836"><ele>120.66666666666666</ele><time>2026-05-02T06:36:20Z</time></trkpt><trkpt lat="42.454384053443285" lon="14.117072748703787"><ele>121.83333333333333</ele><time>2026-05-02T06:36:21Z</time></trkpt><trkpt lat="42.45429476100535" lon="14.117053730455007"><ele>123.0</ele><time>2026-05-02T06:36:22Z</time></trkpt><trkpt lat="42.454198712055444" lon="14.117038958851078"><ele>123.33333333333333</ele><time>2026-05-02T06:36:23Z</time></trkpt><trkpt lat="42.454096023244304" lon="14.117023864805093"><ele>123.66666666666666</ele><time>2026-05-02T06:36:24Z</time></trkpt><trkpt lat="42.45401157912896" lon="14.117006083155381"><ele>124.0</ele><time>2026-05-02T06:36:25Z</time></trkpt><trkpt lat="42.45393798388059" lon="14.116982516682041"><ele>124.33333333333333</ele><time>2026-05-02T06:36:26Z</time></trkpt><trkpt lat="42.45385883098858" lon="14.116976313591376"><ele>124.66666666666666</ele><time>2026-05-02T06:36:27Z</time></trkpt><trkpt lat="42.45378594711685" lon="14.116965362608525"><ele>125.0</ele><time>2026-05-02T06:36:28Z</time></trkpt><trkpt lat="42.453718637934536" lon="14.116954987465924"><ele>125.33333333333333</ele><time>2026-05-02T06:36:29Z</time></trkpt><trkpt lat="42.45360337620322" lon="14.116980610260342"><ele>125.66666666666666</ele><time>2026-05-02T06:36:31Z</time></trkpt><trkpt lat="42.45354004287921" lon="14.117019997409374"><ele>126.0</ele><time>2026-05-02T06:36:32Z</time></trkpt><trkpt lat="42.453476843717375" lon="14.117076211474675"><ele>126.33333333333334</ele><time>2026-05-02T06:36:33Z</time></trkpt><trkpt lat="42.45342376688799" lon="14.11714888626559"><ele>126.66666666666667</ele><time>2026-05-02T06:36:34Z</time></trkpt><trkpt lat="42.453366891029745" lon="14.11720728159647"><ele>127.0</ele><time>2026-05-02T06:36:35Z</time></trkpt><trkpt lat="42.45325721327481" lon="14.117305636105161"><ele>127.0</ele><time>2026-05-02T06:36:37Z</time></trkpt><trkpt lat="42.45319815902898" lon="14.117345039780338"><ele>127.0</ele><time>2026-05-02T06:36:38Z</time></trkpt><trkpt lat="42.453127404588926" lon="14.117378820510435"><ele>127.0</ele><time>2026-05-02T06:36:39Z</time></trkpt><trkpt lat="42.453064002881604" lon="14.117398466419568"><ele>127.0</ele><time>2026-05-02T06:36:40Z</time></trkpt><trkpt lat="42.45299651724089" lon="14.117409954796377"><ele>127.0</ele><time>2026-05-02T06:36:41Z</time></trkpt><trkpt lat="42.452924318127025" lon="14.117415745301857"><ele>127.0</ele><time>2026-05-02T06:36:42Z</time></trkpt><trkpt lat="42.45285624721636" lon="14.117414257546281"><ele>127.0</ele><time>2026-05-02T06:36:43Z</time></trkpt><trkpt lat="42.45278435071807" lon="14.117413152714168"><ele>127.6</ele><time>2026-05-02T06:36:44Z</time></trkpt><trkpt lat="42.45271593098242" lon="14.117420904422369"><ele>128.2</ele><time>2026-05-02T06:36:45Z</time></trkpt><trkpt lat="42.45260287449631" lon="14.117378847283186"><ele>128.8</ele><time>2026-05-02T06:36:47Z</time></trkpt><trkpt lat="42.45254485521938" lon="14.117305953706817"><ele>129.4</ele><time>2026-05-02T06:36:49Z</time></trkpt><trkpt lat="42.45251710828993" lon="14.117150332734134"><ele>130.0</ele><time>2026-05-02T06:36:51Z</time></trkpt><trkpt lat="42.45248931615002" lon="14.117063173467027"><ele>130.0</ele><time>2026-05-02T06:36:52Z</time></trkpt><trkpt lat="42.452444948575824" lon="14.116970901392765"><ele>130.0</ele><time>2026-05-02T06:36:53Z</time></trkpt><trkpt lat="42.45240040673558" lon="14.116882747307258"><ele>130.0</ele><time>2026-05-02T06:36:54Z</time></trkpt><trkpt lat="42.45235480452349" lon="14.116780025642969"><ele>130.0</ele><time>2026-05-02T06:36:55Z</time></trkpt><trkpt lat="42.45230563373623" lon="14.116677057382006"><ele>130.0</ele><time>2026-05-02T06:36:56Z</time></trkpt><trkpt lat="42.452248357372866" lon="14.116588922318817"><ele>130.0</ele><time>2026-05-02T06:36:57Z</time></trkpt><trkpt lat="42.45218149098215" lon="14.116511027399293"><ele>131.16666666666669</ele><time>2026-05-02T06:36:58Z</time></trkpt><trkpt lat="42.452111368458866" lon="14.116440971787453"><ele>132.33333333333334</ele><time>2026-05-02T06:36:59Z</time></trkpt><trkpt lat="42.45204225026086" lon="14.116391436093329"><ele>133.5</ele><time>2026-05-02T06:37:00Z</time></trkpt><trkpt lat="42.451971524018994" lon="14.116365136878372"><ele>134.66666666666666</ele><time>2026-05-02T06:37:01Z</time></trkpt><trkpt lat="42.45188669243994" lon="14.116357130670986"><ele>135.83333333333331</ele><time>2026-05-02T06:37:02Z</time></trkpt><trkpt lat="42.45181102195317" lon="14.116358602187246"><ele>137.0</ele><time>2026-05-02T06:37:03Z</time></trkpt><trkpt lat="42.451731296395664" lon="14.116357476956008"><ele>137.0</ele><time>2026-05-02T06:37:04Z</time></trkpt><trkpt lat="42.45166294253219" lon="14.116361190402534"><ele>137.0</ele><time>2026-05-02T06:37:05Z</time></trkpt><trkpt lat="42.45157661308977" lon="14.11637161765087"><ele>137.0</ele><time>2026-05-02T06:37:07Z</time></trkpt><trkpt lat="42.451460513688424" lon="14.116376987069764"><ele>137.0</ele><time>2026-05-02T06:37:09Z</time></trkpt><trkpt lat="42.4513512397707" lon="14.116360547576473"><ele>137.0</ele><time>2026-05-02T06:37:11Z</time></trkpt><trkpt lat="42.451255324177765" lon="14.116303097407734"><ele>133.2</ele><time>2026-05-02T06:37:13Z</time></trkpt><trkpt lat="42.45118258682384" lon="14.11623934136163"><ele>129.39999999999998</ele><time>2026-05-02T06:37:15Z</time></trkpt><trkpt lat="42.45112830330803" lon="14.116169394564073"><ele>125.60000000000001</ele><time>2026-05-02T06:37:17Z</time></trkpt><trkpt lat="42.45104818236137" lon="14.11617174156633"><ele>121.80000000000001</ele><time>2026-05-02T06:37:20Z</time></trkpt><trkpt lat="42.45094144291565" lon="14.116211147758623"><ele>118.0</ele><time>2026-05-02T06:37:22Z</time></trkpt><trkpt lat="42.450830564439244" lon="14.116272958202003"><ele>118.0</ele><time>2026-05-02T06:37:24Z</time></trkpt><trkpt lat="42.45071523138558" lon="14.116340037971343"><ele>118.00000000000001</ele><time>2026-05-02T06:37:26Z</time></trkpt><trkpt lat="42.450603752525346" lon="14.116415159342669"><ele>118.00000000000001</ele><time>2026-05-02T06:37:28Z</time></trkpt><trkpt lat="42.45054655895561" lon="14.116456349960647"><ele>118.0</ele><time>2026-05-02T06:37:29Z</time></trkpt><trkpt lat="42.450494325155425" lon="14.116504172320727"><ele>118.0</ele><time>2026-05-02T06:37:30Z</time></trkpt><trkpt lat="42.45040073842801" lon="14.116609664277496"><ele>116.16666666666667</ele><time>2026-05-02T06:37:32Z</time></trkpt><trkpt lat="42.450351054872286" lon="14.116662638119413"><ele>114.33333333333334</ele><time>2026-05-02T06:37:33Z</time></trkpt><trkpt lat="42.45029607751998" lon="14.116723127541823"><ele>112.5</ele><time>2026-05-02T06:37:34Z</time></trkpt><trkpt lat="42.45024408303675" lon="14.11677589667076"><ele>110.66666666666666</ele><time>2026-05-02T06:37:35Z</time></trkpt><trkpt lat="42.45015171995259" lon="14.116872273063086"><ele>108.83333333333333</ele><time>2026-05-02T06:37:37Z</time></trkpt><trkpt lat="42.45005811165483" lon="14.116962009394422"><ele>107.0</ele><time>2026-05-02T06:37:39Z</time></trkpt><trkpt lat="42.44996070085771" lon="14.11703194118402"><ele>107.0</ele><time>2026-05-02T06:37:41Z</time></trkpt><trkpt lat="42.449859037663266" lon="14.117103893379324"><ele>106.99999999999999</ele><time>2026-05-02T06:37:43Z</time></trkpt><trkpt lat="42.449742342718444" lon="14.117168116772769"><ele>106.99999999999999</ele><time>2026-05-02T06:37:45Z</time></trkpt><trkpt lat="42.44967142803552" lon="14.11720730718764"><ele>107.0</ele><time>2026-05-02T06:37:46Z</time></trkpt><trkpt lat="42.449596960108956" lon="14.117233977980359"><ele>107.0</ele><time>2026-05-02T06:37:47Z</time></trkpt><trkpt lat="42.44951968542751" lon="14.117251227398667"><ele>105.33333333333333</ele><time>2026-05-02T06:37:48Z</time></trkpt><trkpt lat="42.44943989041495" lon="14.117255825692222"><ele>103.66666666666666</ele><time>2026-05-02T06:37:49Z</time></trkpt><trkpt lat="42.44936644366804" lon="14.117244848427813"><ele>102.0</ele><time>2026-05-02T06:37:50Z</time></trkpt><trkpt lat="42.44928059063233" lon="14.117220029223873"><ele>100.33333333333334</ele><time>2026-05-02T06:37:51Z</time></trkpt><trkpt lat="42.44920549497358" lon="14.117195926449488"><ele>98.66666666666667</ele><time>2026-05-02T06:37:52Z</time></trkpt><trkpt lat="42.44913309577697" lon="14.117170090008786"><ele>97.0</ele><time>2026-05-02T06:37:53Z</time></trkpt><trkpt lat="42.44904828280173" lon="14.117140193636105"><ele>97.00000000000001</ele><time>2026-05-02T06:37:54Z</time></trkpt><trkpt lat="42.4489666932" lon="14.117121588668844"><ele>97.0</ele><time>2026-05-02T06:37:55Z</time></trkpt><trkpt lat="42.44890068378038" lon="14.117108732368294"><ele>97.0</ele><time>2026-05-02T06:37:56Z</time></trkpt><trkpt lat="42.448810528943795" lon="14.117086247213518"><ele>97.0</ele><time>2026-05-02T06:37:58Z</time></trkpt><trkpt lat="42.44872211809518" lon="14.117078453308075"><ele>97.00000000000001</ele><time>2026-05-02T06:38:00Z</time></trkpt><trkpt lat="42.448634647904754" lon="14.117075768688945"><ele>97.0</ele><time>2026-05-02T06:38:02Z</time></trkpt><trkpt lat="42.44857282185889" lon="14.117098401757136"><ele>96.6</ele><time>2026-05-02T06:38:04Z</time></trkpt><trkpt lat="42.44851246944417" lon="14.117163438631001"><ele>96.19999999999999</ele><time>2026-05-02T06:38:07Z</time></trkpt><trkpt lat="42.448515045151645" lon="14.117249519491338"><ele>95.8</ele><time>2026-05-02T06:38:10Z</time></trkpt><trkpt lat="42.44849732924164" lon="14.117362496112184"><ele>95.4</ele><time>2026-05-02T06:38:11.999Z</time></trkpt><trkpt lat="42.44846481791389" lon="14.117490973766744"><ele>95.0</ele><time>2026-05-02T06:38:13.999Z</time></trkpt><trkpt lat="42.448490586309525" lon="14.117684003834398"><ele>93.8</ele><time>2026-05-02T06:38:15.999Z</time></trkpt><trkpt lat="42.44851457308619" lon="14.117783372419591"><ele>92.6</ele><time>2026-05-02T06:38:17.999Z</time></trkpt><trkpt lat="42.448538914751616" lon="14.117922230048233"><ele>91.4</ele><time>2026-05-02T06:38:19.999Z</time></trkpt><trkpt lat="42.448543294283695" lon="14.118040379907338"><ele>90.2</ele><time>2026-05-02T06:38:21.999Z</time></trkpt><trkpt lat="42.44852647845266" lon="14.118154061491474"><ele>89.0</ele><time>2026-05-02T06:38:23.999Z</time></trkpt><trkpt lat="42.44853140304553" lon="14.11831516003492"><ele>88.99999999999999</ele><time>2026-05-02T06:38:25.999Z</time></trkpt><trkpt lat="42.44854472751389" lon="14.118401406443024"><ele>89.0</ele><time>2026-05-02T06:38:26.999Z</time></trkpt><trkpt lat="42.44855956950869" lon="14.118485116647777"><ele>89.0</ele><time>2026-05-02T06:38:27.999Z</time></trkpt><trkpt lat="42.44857038695035" lon="14.118571330636103"><ele>89.0</ele><time>2026-05-02T06:38:28.999Z</time></trkpt><trkpt lat="42.44857962398887" lon="14.118656003721314"><ele>89.0</ele><time>2026-05-02T06:38:29.999Z</time></trkpt><trkpt lat="42.44858821666061" lon="14.118742241905126"><ele>88.99999999999999</ele><time>2026-05-02T06:38:30.999Z</time></trkpt><trkpt lat="42.44859614335113" lon="14.118829359555207"><ele>89.0</ele><time>2026-05-02T06:38:31.999Z</time></trkpt><trkpt lat="42.448605103703635" lon="14.118922259734791"><ele>89.0</ele><time>2026-05-02T06:38:32.999Z</time></trkpt><trkpt lat="42.44861237485678" lon="14.119008529275186"><ele>89.0</ele><time>2026-05-02T06:38:33.999Z</time></trkpt><trkpt lat="42.44862586626957" lon="14.119179554528706"><ele>89.0</ele><time>2026-05-02T06:38:35.999Z</time></trkpt><trkpt lat="42.44863733826833" lon="14.119303872054177"><ele>89.0</ele><time>2026-05-02T06:38:37.999Z</time></trkpt><trkpt lat="42.448641431217" lon="14.119424147222743"><ele>89.0</ele><time>2026-05-02T06:38:39.999Z</time></trkpt><trkpt lat="42.44864009783586" lon="14.119569350738248"><ele>90.4</ele><time>2026-05-02T06:38:41.999Z</time></trkpt><trkpt lat="42.44864713572941" lon="14.119741283437149"><ele>91.80000000000001</ele><time>2026-05-02T06:38:43.999Z</time></trkpt><trkpt lat="42.44864863339931" lon="14.119828057683677"><ele>93.19999999999999</ele><time>2026-05-02T06:38:44.999Z</time></trkpt><trkpt lat="42.44865527551414" lon="14.120000465099952"><ele>94.6</ele><time>2026-05-02T06:38:46.999Z</time></trkpt><trkpt lat="42.448653046716615" lon="14.120110618283606"><ele>96.0</ele><time>2026-05-02T06:38:48.999Z</time></trkpt><trkpt lat="42.44865822157814" lon="14.120230776027993"><ele>97.66666666666667</ele><time>2026-05-02T06:38:50.999Z</time></trkpt><trkpt lat="42.44865946383759" lon="14.12032057516035"><ele>99.33333333333334</ele><time>2026-05-02T06:38:52.999Z</time></trkpt><trkpt lat="42.44866464385935" lon="14.120437373390077"><ele>101.0</ele><time>2026-05-02T06:38:55.999Z</time></trkpt><trkpt lat="42.448661496768864" lon="14.120532174186593"><ele>102.66666666666667</ele><time>2026-05-02T06:38:58.999Z</time></trkpt><trkpt lat="42.44866574954585" lon="14.120631452551253"><ele>104.33333333333334</ele><time>2026-05-02T06:39:01.999Z</time></trkpt><trkpt lat="42.44866288689601" lon="14.12075089720597"><ele>106.0</ele><time>2026-05-02T06:39:04.999Z</time></trkpt><trkpt lat="42.44867251094466" lon="14.120870560271197"><ele>108.4</ele><time>2026-05-02T06:39:06.999Z</time></trkpt><trkpt lat="42.44867516950188" lon="14.121026430887332"><ele>110.8</ele><time>2026-05-02T06:39:08.999Z</time></trkpt><trkpt lat="42.44867609122051" lon="14.121125906150453"><ele>113.20000000000002</ele><time>2026-05-02T06:39:09.999Z</time></trkpt><trkpt lat="42.44867713112178" lon="14.121287077650791"><ele>115.60000000000001</ele><time>2026-05-02T06:39:11.999Z</time></trkpt><trkpt lat="42.448679034831706" lon="14.121375948012224"><ele>118.0</ele><time>2026-05-02T06:39:13.999Z</time></trkpt><trkpt lat="42.448679389287776" lon="14.121488628631512"><ele>119.80000000000001</ele><time>2026-05-02T06:39:15.999Z</time></trkpt><trkpt lat="42.448685742886774" lon="14.12164098987587"><ele>121.60000000000001</ele><time>2026-05-02T06:39:17.999Z</time></trkpt><trkpt lat="42.448706087787215" lon="14.121822234260298"><ele>123.39999999999999</ele><time>2026-05-02T06:39:19.999Z</time></trkpt><trkpt lat="42.4487165226682" lon="14.121914158940688"><ele>125.19999999999999</ele><time>2026-05-02T06:39:20.999Z</time></trkpt><trkpt lat="42.44873559280645" lon="14.12201119817604"><ele>127.0</ele><time>2026-05-02T06:39:21.999Z</time></trkpt><trkpt lat="42.448753270398186" lon="14.122100715929648"><ele>127.00000000000001</ele><time>2026-05-02T06:39:22.999Z</time></trkpt><trkpt lat="42.44877608552925" lon="14.122185892199056"><ele>127.0</ele><time>2026-05-02T06:39:23.999Z</time></trkpt><trkpt lat="42.44879541509424" lon="14.122267454872874"><ele>127.0</ele><time>2026-05-02T06:39:24.999Z</time></trkpt><trkpt lat="42.44884641507634" lon="14.122415823677382"><ele>127.0</ele><time>2026-05-02T06:39:26.999Z</time></trkpt><trkpt lat="42.44889258812652" lon="14.122539292199535"><ele>127.00000000000001</ele><time>2026-05-02T06:39:28.999Z</time></trkpt><trkpt lat="42.44889271569919" lon="14.122632501123602"><ele>127.0</ele><time>2026-05-02T06:39:30.999Z</time></trkpt><trkpt lat="42.44879932938345" lon="14.122640056846414"><ele>127.00000000000001</ele><time>2026-05-02T06:39:33.999Z</time></trkpt><trkpt lat="42.448738807968525" lon="14.122616105263768"><ele>127.0</ele><time>2026-05-02T06:39:34.999Z</time></trkpt><trkpt lat="42.448664918744136" lon="14.122576772002255"><ele>127.0</ele><time>2026-05-02T06:39:35.999Z</time></trkpt><trkpt lat="42.448580045428166" lon="14.122533362021693"><ele>127.0</ele><time>2026-05-02T06:39:36.999Z</time></trkpt><trkpt lat="42.44849135531554" lon="14.12248214044387"><ele>127.00000000000001</ele><time>2026-05-02T06:39:37.999Z</time></trkpt><trkpt lat="42.44840948343678" lon="14.122430907823357"><ele>127.0</ele><time>2026-05-02T06:39:39Z</time></trkpt><trkpt lat="42.4483126700755" lon="14.122375442309984"><ele>127.0</ele><time>2026-05-02T06:39:40Z</time></trkpt><trkpt lat="42.44821432608566" lon="14.122315234840574"><ele>126.99999999999999</ele><time>2026-05-02T06:39:41Z</time></trkpt><trkpt lat="42.44811808559744" lon="14.122249704986915"><ele>126.99999999999999</ele><time>2026-05-02T06:39:42Z</time></trkpt><trkpt lat="42.448027606546475" lon="14.122187043914453"><ele>127.0</ele><time>2026-05-02T06:39:43Z</time></trkpt><trkpt lat="42.44793554952967" lon="14.122120995461463"><ele>127.0</ele><time>2026-05-02T06:39:44Z</time></trkpt><trkpt lat="42.44784716649394" lon="14.122061947574455"><ele>128.33333333333334</ele><time>2026-05-02T06:39:45Z</time></trkpt><trkpt lat="42.44775704774253" lon="14.122005250335267"><ele>129.66666666666669</ele><time>2026-05-02T06:39:46Z</time></trkpt><trkpt lat="42.447681196111425" lon="14.121952618983986"><ele>131.0</ele><time>2026-05-02T06:39:47Z</time></trkpt><trkpt lat="42.44761135364629" lon="14.121903106812645"><ele>132.33333333333334</ele><time>2026-05-02T06:39:48Z</time></trkpt><trkpt lat="42.44754694703497" lon="14.121856096747306"><ele>133.66666666666666</ele><time>2026-05-02T06:39:49Z</time></trkpt><trkpt lat="42.44747838359338" lon="14.121813066103106"><ele>135.0</ele><time>2026-05-02T06:39:50Z</time></trkpt><trkpt lat="42.44740875311677" lon="14.12178275371122"><ele>135.0</ele><time>2026-05-02T06:39:51Z</time></trkpt><trkpt lat="42.44733178716162" lon="14.121772993188252"><ele>135.0</ele><time>2026-05-02T06:39:52Z</time></trkpt><trkpt lat="42.44725403619699" lon="14.121746925045281"><ele>135.0</ele><time>2026-05-02T06:39:53Z</time></trkpt><trkpt lat="42.44717573727225" lon="14.121738724734122"><ele>135.0</ele><time>2026-05-02T06:39:54Z</time></trkpt><trkpt lat="42.447098988062045" lon="14.121752507364352"><ele>135.0</ele><time>2026-05-02T06:39:55Z</time></trkpt><trkpt lat="42.44702002277555" lon="14.121737894196544"><ele>135.0</ele><time>2026-05-02T06:39:56Z</time></trkpt><trkpt lat="42.44694620071797" lon="14.121723363021019"><ele>134.5</ele><time>2026-05-02T06:39:57Z</time></trkpt><trkpt lat="42.44687391427403" lon="14.121714496719735"><ele>134.0</ele><time>2026-05-02T06:39:58Z</time></trkpt><trkpt lat="42.446806792741576" lon="14.121710365621938"><ele>133.5</ele><time>2026-05-02T06:39:59Z</time></trkpt><trkpt lat="42.446741897932895" lon="14.121704325366586"><ele>133.0</ele><time>2026-05-02T06:40:00Z</time></trkpt><trkpt lat="42.446677961102814" lon="14.12170218092338"><ele>132.5</ele><time>2026-05-02T06:40:01Z</time></trkpt><trkpt lat="42.44661340990736" lon="14.121707366514341"><ele>132.0</ele><time>2026-05-02T06:40:02Z</time></trkpt><trkpt lat="42.44649302056737" lon="14.121741675023662"><ele>132.0</ele><time>2026-05-02T06:40:04Z</time></trkpt><trkpt lat="42.4463754086865" lon="14.121781673008412"><ele>132.0</ele><time>2026-05-02T06:40:06Z</time></trkpt><trkpt lat="42.44625821356735" lon="14.121818613583333"><ele>132.0</ele><time>2026-05-02T06:40:08Z</time></trkpt><trkpt lat="42.44614716167541" lon="14.121845736887227"><ele>132.0</ele><time>2026-05-02T06:40:10Z</time></trkpt><trkpt lat="42.446044167506635" lon="14.121862324064967"><ele>131.33333333333334</ele><time>2026-05-02T06:40:12Z</time></trkpt><trkpt lat="42.44597844324948" lon="14.121876348018395"><ele>130.66666666666666</ele><time>2026-05-02T06:40:13Z</time></trkpt><trkpt lat="42.44590613658695" lon="14.12189731534524"><ele>130.0</ele><time>2026-05-02T06:40:14Z</time></trkpt><trkpt lat="42.44582923917842" lon="14.121924053493363"><ele>129.33333333333331</ele><time>2026-05-02T06:40:15Z</time></trkpt><trkpt lat="42.44574516692559" lon="14.121967568551447"><ele>128.66666666666666</ele><time>2026-05-02T06:40:16Z</time></trkpt><trkpt lat="42.445662652659294" lon="14.122037820007778"><ele>128.0</ele><time>2026-05-02T06:40:17Z</time></trkpt><trkpt lat="42.44558385669613" lon="14.122130553994594"><ele>128.0</ele><time>2026-05-02T06:40:18Z</time></trkpt><trkpt lat="42.445509423491465" lon="14.122235928291504"><ele>128.0</ele><time>2026-05-02T06:40:19Z</time></trkpt><trkpt lat="42.445431427917065" lon="14.122338359959116"><ele>128.0</ele><time>2026-05-02T06:40:20Z</time></trkpt><trkpt lat="42.44535029859009" lon="14.122433288980977"><ele>128.0</ele><time>2026-05-02T06:40:21Z</time></trkpt><trkpt lat="42.445268968752636" lon="14.122512140272496"><ele>128.0</ele><time>2026-05-02T06:40:22Z</time></trkpt><trkpt lat="42.44518533001498" lon="14.12257679594975"><ele>127.60000000000001</ele><time>2026-05-02T06:40:23Z</time></trkpt><trkpt lat="42.44509237551434" lon="14.122631232528256"><ele>127.20000000000002</ele><time>2026-05-02T06:40:24Z</time></trkpt><trkpt lat="42.44500232812337" lon="14.12268557672489"><ele>126.8</ele><time>2026-05-02T06:40:25Z</time></trkpt><trkpt lat="42.44491159872666" lon="14.122738848059038"><ele>126.4</ele><time>2026-05-02T06:40:26Z</time></trkpt><trkpt lat="42.44482226577889" lon="14.122792584865374"><ele>126.0</ele><time>2026-05-02T06:40:27Z</time></trkpt><trkpt lat="42.44473754857824" lon="14.122864380443383"><ele>126.0</ele><time>2026-05-02T06:40:28Z</time></trkpt><trkpt lat="42.44465732117461" lon="14.122960832965461"><ele>126.0</ele><time>2026-05-02T06:40:29Z</time></trkpt><trkpt lat="42.44458039549052" lon="14.123066561368653"><ele>126.0</ele><time>2026-05-02T06:40:30Z</time></trkpt><trkpt lat="42.44450337839196" lon="14.123167628812709"><ele>126.0</ele><time>2026-05-02T06:40:31Z</time></trkpt><trkpt lat="42.44442796383261" lon="14.123260297053237"><ele>126.0</ele><time>2026-05-02T06:40:32Z</time></trkpt><trkpt lat="42.44434982836969" lon="14.123343667041066"><ele>124.6</ele><time>2026-05-02T06:40:33Z</time></trkpt><trkpt lat="42.444270075894245" lon="14.123403283259812"><ele>123.19999999999999</ele><time>2026-05-02T06:40:34Z</time></trkpt><trkpt lat="42.44417954683132" lon="14.12343799354666"><ele>121.80000000000001</ele><time>2026-05-02T06:40:35Z</time></trkpt><trkpt lat="42.444087698887216" lon="14.123443031454759"><ele>120.4</ele><time>2026-05-02T06:40:36Z</time></trkpt><trkpt lat="42.44399178985408" lon="14.123430698532042"><ele>119.0</ele><time>2026-05-02T06:40:37Z</time></trkpt><trkpt lat="42.44389553785153" lon="14.12342147594594"><ele>117.4</ele><time>2026-05-02T06:40:38Z</time></trkpt><trkpt lat="42.44379666551324" lon="14.123435300543287"><ele>115.80000000000001</ele><time>2026-05-02T06:40:39Z</time></trkpt><trkpt lat="42.44369652314523" lon="14.123463234325358"><ele>114.19999999999999</ele><time>2026-05-02T06:40:40Z</time></trkpt><trkpt lat="42.443593906919794" lon="14.123494283655694"><ele>112.6</ele><time>2026-05-02T06:40:41Z</time></trkpt><trkpt lat="42.44348625227564" lon="14.123528952348192"><ele>111.0</ele><time>2026-05-02T06:40:42Z</time></trkpt><trkpt lat="42.44337156328869" lon="14.123566735320178"><ele>111.0</ele><time>2026-05-02T06:40:43Z</time></trkpt><trkpt lat="42.44325893772416" lon="14.123604045316885"><ele>111.0</ele><time>2026-05-02T06:40:44Z</time></trkpt><trkpt lat="42.44314460793403" lon="14.12364241721032"><ele>111.0</ele><time>2026-05-02T06:40:45Z</time></trkpt><trkpt lat="42.443028438663276" lon="14.123683153008864"><ele>111.0</ele><time>2026-05-02T06:40:46Z</time></trkpt><trkpt lat="42.44291325080592" lon="14.123720532569124"><ele>109.5</ele><time>2026-05-02T06:40:47Z</time></trkpt><trkpt lat="42.44280068307646" lon="14.123757721758018"><ele>108.0</ele><time>2026-05-02T06:40:48Z</time></trkpt><trkpt lat="42.44268574905178" lon="14.123795345841467"><ele>106.5</ele><time>2026-05-02T06:40:49Z</time></trkpt><trkpt lat="42.44256723193951" lon="14.123829332103131"><ele>105.0</ele><time>2026-05-02T06:40:50Z</time></trkpt><trkpt lat="42.442448871795904" lon="14.123859520426995"><ele>105.0</ele><time>2026-05-02T06:40:51Z</time></trkpt><trkpt lat="42.442331215995935" lon="14.123885381023989"><ele>105.0</ele><time>2026-05-02T06:40:52Z</time></trkpt><trkpt lat="42.44221390623324" lon="14.123907908826176"><ele>105.0</ele><time>2026-05-02T06:40:53Z</time></trkpt><trkpt lat="42.442097985173554" lon="14.123927385469083"><ele>105.0</ele><time>2026-05-02T06:40:54Z</time></trkpt><trkpt lat="42.44198262410147" lon="14.12393445417925"><ele>107.0</ele><time>2026-05-02T06:40:55Z</time></trkpt><trkpt lat="42.44186666009147" lon="14.123926431182905"><ele>109.0</ele><time>2026-05-02T06:40:56Z</time></trkpt><trkpt lat="42.44174910296286" lon="14.123910586073247"><ele>111.0</ele><time>2026-05-02T06:40:57Z</time></trkpt><trkpt lat="42.44163180450232" lon="14.123888940133721"><ele>113.0</ele><time>2026-05-02T06:40:58Z</time></trkpt><trkpt lat="42.441523052260614" lon="14.123865606414594"><ele>113.0</ele><time>2026-05-02T06:40:59Z</time></trkpt><trkpt lat="42.4414251669277" lon="14.123843192648776"><ele>113.00000000000001</ele><time>2026-05-02T06:41:00Z</time></trkpt><trkpt lat="42.441335942976096" lon="14.123806063674106"><ele>113.00000000000001</ele><time>2026-05-02T06:41:01Z</time></trkpt><trkpt lat="42.44124789951323" lon="14.123747776412747"><ele>113.0</ele><time>2026-05-02T06:41:02Z</time></trkpt><trkpt lat="42.44115491189552" lon="14.123685755399979"><ele>113.0</ele><time>2026-05-02T06:41:03Z</time></trkpt><trkpt lat="42.44105678453292" lon="14.123628128534879"><ele>111.60000000000001</ele><time>2026-05-02T06:41:04Z</time></trkpt><trkpt lat="42.44095352325555" lon="14.123570225598902"><ele>110.20000000000002</ele><time>2026-05-02T06:41:05Z</time></trkpt><trkpt lat="42.44085930339562" lon="14.12348824656176"><ele>108.8</ele><time>2026-05-02T06:41:06Z</time></trkpt><trkpt lat="42.440760930642064" lon="14.123426386096018"><ele>107.4</ele><time>2026-05-02T06:41:07Z</time></trkpt><trkpt lat="42.4406537189344" lon="14.123386422775901"><ele>106.0</ele><time>2026-05-02T06:41:08Z</time></trkpt><trkpt lat="42.440545078910226" lon="14.123334469236529"><ele>106.25</ele><time>2026-05-02T06:41:09Z</time></trkpt><trkpt lat="42.44043218640146" lon="14.123296468173564"><ele>106.5</ele><time>2026-05-02T06:41:10Z</time></trkpt><trkpt lat="42.44031521926002" lon="14.123267930851078"><ele>106.75</ele><time>2026-05-02T06:41:11Z</time></trkpt><trkpt lat="42.440200075255284" lon="14.123241650713323"><ele>107.0</ele><time>2026-05-02T06:41:12Z</time></trkpt><trkpt lat="42.44008067190137" lon="14.123229362930248"><ele>107.0</ele><time>2026-05-02T06:41:13Z</time></trkpt><trkpt lat="42.43996430276352" lon="14.123221599861399"><ele>106.99999999999999</ele><time>2026-05-02T06:41:14Z</time></trkpt><trkpt lat="42.439853642033874" lon="14.123206727608718"><ele>106.99999999999999</ele><time>2026-05-02T06:41:15Z</time></trkpt><trkpt lat="42.43974727779179" lon="14.123216169819953"><ele>107.0</ele><time>2026-05-02T06:41:16Z</time></trkpt><trkpt lat="42.43964529722406" lon="14.123229912770764"><ele>107.0</ele><time>2026-05-02T06:41:17Z</time></trkpt><trkpt lat="42.439540197522035" lon="14.123261438293168"><ele>100.25</ele><time>2026-05-02T06:41:18Z</time></trkpt><trkpt lat="42.43942731984132" lon="14.123313895629405"><ele>93.5</ele><time>2026-05-02T06:41:19Z</time></trkpt><trkpt lat="42.439313731667575" lon="14.123375589692206"><ele>86.75</ele><time>2026-05-02T06:41:20Z</time></trkpt><trkpt lat="42.43919839065099" lon="14.123422225431494"><ele>80.0</ele><time>2026-05-02T06:41:21Z</time></trkpt><trkpt lat="42.43908243790555" lon="14.123456772639516"><ele>80.0</ele><time>2026-05-02T06:41:22Z</time></trkpt><trkpt lat="42.438961284604645" lon="14.123479426010084"><ele>80.0</ele><time>2026-05-02T06:41:23Z</time></trkpt><trkpt lat="42.43883938495464" lon="14.123491700804758"><ele>80.0</ele><time>2026-05-02T06:41:24Z</time></trkpt><trkpt lat="42.4387161303595" lon="14.123507972389175"><ele>80.0</ele><time>2026-05-02T06:41:24.999Z</time></trkpt><trkpt lat="42.438596988668415" lon="14.123506639701594"><ele>77.25</ele><time>2026-05-02T06:41:25.999Z</time></trkpt><trkpt lat="42.438477295729435" lon="14.123532870823263"><ele>74.5</ele><time>2026-05-02T06:41:26.999Z</time></trkpt><trkpt lat="42.438362625161915" lon="14.12356494875475"><ele>71.75</ele><time>2026-05-02T06:41:27.999Z</time></trkpt><trkpt lat="42.43825158147999" lon="14.123599922939182"><ele>69.0</ele><time>2026-05-02T06:41:28.999Z</time></trkpt><trkpt lat="42.43814021855058" lon="14.123635518525504"><ele>69.0</ele><time>2026-05-02T06:41:29.999Z</time></trkpt><trkpt lat="42.438032662511255" lon="14.123669897366577"><ele>69.0</ele><time>2026-05-02T06:41:30.999Z</time></trkpt><trkpt lat="42.43792636534341" lon="14.123702711561723"><ele>69.0</ele><time>2026-05-02T06:41:31.999Z</time></trkpt><trkpt lat="42.43783434007424" lon="14.123746893738447"><ele>69.0</ele><time>2026-05-02T06:41:32.999Z</time></trkpt><trkpt lat="42.437756798272325" lon="14.123768607063024"><ele>69.0</ele><time>2026-05-02T06:41:33.999Z</time></trkpt><trkpt lat="42.43768342928663" lon="14.123773858143162"><ele>68.83333333333333</ele><time>2026-05-02T06:41:34.999Z</time></trkpt><trkpt lat="42.43761674493789" lon="14.123732237473863"><ele>68.66666666666667</ele><time>2026-05-02T06:41:35.999Z</time></trkpt><trkpt lat="42.437554510350736" lon="14.123698926408265"><ele>68.5</ele><time>2026-05-02T06:41:36.999Z</time></trkpt><trkpt lat="42.43743883173451" lon="14.123669123541244"><ele>68.33333333333334</ele><time>2026-05-02T06:41:38.999Z</time></trkpt><trkpt lat="42.43733611834755" lon="14.123655367397298"><ele>68.16666666666667</ele><time>2026-05-02T06:41:40.999Z</time></trkpt><trkpt lat="42.43725739246514" lon="14.123651492564742"><ele>68.0</ele><time>2026-05-02T06:41:42.999Z</time></trkpt><trkpt lat="42.43719464487753" lon="14.123585541716684"><ele>66.33333333333334</ele><time>2026-05-02T06:41:46Z</time></trkpt><trkpt lat="42.43712771270096" lon="14.123552195968056"><ele>64.66666666666667</ele><time>2026-05-02T06:41:49Z</time></trkpt><trkpt lat="42.43707583294085" lon="14.12348903007738"><ele>63.0</ele><time>2026-05-02T06:42:12Z</time></trkpt><trkpt lat="42.436972171112735" lon="14.12341938180016"><ele>61.33333333333333</ele><time>2026-05-02T06:42:15Z</time></trkpt><trkpt lat="42.43690780518008" lon="14.123385428948"><ele>59.666666666666664</ele><time>2026-05-02T06:42:16Z</time></trkpt><trkpt lat="42.436832477895074" lon="14.123351622344467"><ele>58.0</ele><time>2026-05-02T06:42:17Z</time></trkpt><trkpt lat="42.43675819072452" lon="14.123322376646486"><ele>57.99999999999999</ele><time>2026-05-02T06:42:18Z</time></trkpt><trkpt lat="42.43667853849157" lon="14.12331743378863"><ele>58.0</ele><time>2026-05-02T06:42:19Z</time></trkpt><trkpt lat="42.43660174253282" lon="14.123289788285671"><ele>58.0</ele><time>2026-05-02T06:42:20Z</time></trkpt><trkpt lat="42.43652259333161" lon="14.123265778807076"><ele>58.0</ele><time>2026-05-02T06:42:21Z</time></trkpt><trkpt lat="42.43642706985776" lon="14.123243008451906"><ele>57.99999999999999</ele><time>2026-05-02T06:42:22Z</time></trkpt><trkpt lat="42.43632082204282" lon="14.123217060178881"><ele>58.0</ele><time>2026-05-02T06:42:23Z</time></trkpt><trkpt lat="42.43621610686133" lon="14.123194403329299"><ele>59.2</ele><time>2026-05-02T06:42:24Z</time></trkpt><trkpt lat="42.43611174913805" lon="14.123167933550366"><ele>60.4</ele><time>2026-05-02T06:42:25Z</time></trkpt><trkpt lat="42.43600779531438" lon="14.123136675189018"><ele>61.60000000000001</ele><time>2026-05-02T06:42:26Z</time></trkpt><trkpt lat="42.43591037099463" lon="14.123073766167321"><ele>62.800000000000004</ele><time>2026-05-02T06:42:27Z</time></trkpt><trkpt lat="42.43580528094931" lon="14.123043874198226"><ele>64.0</ele><time>2026-05-02T06:42:28Z</time></trkpt><trkpt lat="42.43569945213399" lon="14.123035816371514"><ele>64.0</ele><time>2026-05-02T06:42:29Z</time></trkpt><trkpt lat="42.43560044948959" lon="14.123057910451616"><ele>64.0</ele><time>2026-05-02T06:42:30Z</time></trkpt><trkpt lat="42.43550814635255" lon="14.123125762460822"><ele>64.0</ele><time>2026-05-02T06:42:31Z</time></trkpt><trkpt lat="42.43543062513672" lon="14.12322427853273"><ele>64.0</ele><time>2026-05-02T06:42:32Z</time></trkpt><trkpt lat="42.43533548331428" lon="14.123331046435474"><ele>64.0</ele><time>2026-05-02T06:42:33Z</time></trkpt><trkpt lat="42.43523281840686" lon="14.123453398702843"><ele>64.66666666666666</ele><time>2026-05-02T06:42:34Z</time></trkpt><trkpt lat="42.43511561718326" lon="14.123592008512038"><ele>65.33333333333333</ele><time>2026-05-02T06:42:35Z</time></trkpt><trkpt lat="42.43500030186556" lon="14.123732067141956"><ele>66.0</ele><time>2026-05-02T06:42:36Z</time></trkpt><trkpt lat="42.434882675959045" lon="14.123876924354693"><ele>66.0</ele><time>2026-05-02T06:42:37Z</time></trkpt><trkpt lat="42.43476375139189" lon="14.124028751659797"><ele>66.0</ele><time>2026-05-02T06:42:38Z</time></trkpt><trkpt lat="42.43464248493861" lon="14.124187088089045"><ele>66.0</ele><time>2026-05-02T06:42:39Z</time></trkpt><trkpt lat="42.43452339068921" lon="14.124347933837711"><ele>65.33333333333333</ele><time>2026-05-02T06:42:40Z</time></trkpt><trkpt lat="42.434406105267534" lon="14.124511707952266"><ele>64.66666666666666</ele><time>2026-05-02T06:42:41Z</time></trkpt><trkpt lat="42.434290208100435" lon="14.124675802745491"><ele>64.0</ele><time>2026-05-02T06:42:42Z</time></trkpt><trkpt lat="42.43417399432784" lon="14.124840310212685"><ele>61.25</ele><time>2026-05-02T06:42:43Z</time></trkpt><trkpt lat="42.43406040912538" lon="14.125000822612735"><ele>58.5</ele><time>2026-05-02T06:42:44Z</time></trkpt><trkpt lat="42.43395414633619" lon="14.125148592679912"><ele>55.75</ele><time>2026-05-02T06:42:44.999Z</time></trkpt><trkpt lat="42.43387570159801" lon="14.125261867879606"><ele>53.0</ele><time>2026-05-02T06:42:45.999Z</time></trkpt><trkpt lat="42.4338161867283" lon="14.125347814754608"><ele>54.599999999999994</ele><time>2026-05-02T06:42:46.999Z</time></trkpt><trkpt lat="42.43376496179215" lon="14.12540708309074"><ele>56.199999999999996</ele><time>2026-05-02T06:42:47.999Z</time></trkpt><trkpt lat="42.43369583337887" lon="14.12546325678927"><ele>57.8</ele><time>2026-05-02T06:42:49.999Z</time></trkpt><trkpt lat="42.43361963245797" lon="14.125344496611252"><ele>59.4</ele><time>2026-05-02T06:42:51.999Z</time></trkpt><trkpt lat="42.433544382654375" lon="14.12524100336132"><ele>61.0</ele><time>2026-05-02T06:42:53.999Z</time></trkpt><trkpt lat="42.433486936849526" lon="14.125157697866204"><ele>61.0</ele><time>2026-05-02T06:42:55.999Z</time></trkpt><trkpt lat="42.43340980610684" lon="14.125083992244424"><ele>60.99999999999999</ele><time>2026-05-02T06:42:58.999Z</time></trkpt><trkpt lat="42.43332612742841" lon="14.125071133816252"><ele>60.99999999999999</ele><time>2026-05-02T06:43:00.999Z</time></trkpt><trkpt lat="42.43323390872221" lon="14.125196528375351"><ele>61.0</ele><time>2026-05-02T06:43:02.999Z</time></trkpt><trkpt lat="42.433173479015956" lon="14.125243346984734"><ele>61.0</ele><time>2026-05-02T06:43:03.999Z</time></trkpt><trkpt lat="42.43310406769105" lon="14.125301521029819"><ele>61.0</ele><time>2026-05-02T06:43:04.999Z</time></trkpt><trkpt lat="42.43302982795648" lon="14.125364872233048"><ele>60.99999999999999</ele><time>2026-05-02T06:43:05.999Z</time></trkpt><trkpt lat="42.43294744869986" lon="14.12543516920093"><ele>60.99999999999999</ele><time>2026-05-02T06:43:06.999Z</time></trkpt><trkpt lat="42.43286498740648" lon="14.125504538392287"><ele>61.0</ele><time>2026-05-02T06:43:07.999Z</time></trkpt><trkpt lat="42.43279696539484" lon="14.125586802680193"><ele>61.0</ele><time>2026-05-02T06:43:08.999Z</time></trkpt><trkpt lat="42.43272407963577" lon="14.125634409278566"><ele>61.33333333333333</ele><time>2026-05-02T06:43:09.999Z</time></trkpt><trkpt lat="42.432658441480825" lon="14.125697106910028"><ele>61.666666666666664</ele><time>2026-05-02T06:43:10.999Z</time></trkpt><trkpt lat="42.432583942121894" lon="14.125736869251668"><ele>62.0</ele><time>2026-05-02T06:43:11.999Z</time></trkpt><trkpt lat="42.43252881812958" lon="14.125781212806453"><ele>62.33333333333333</ele><time>2026-05-02T06:43:12.999Z</time></trkpt><trkpt lat="42.43242919680435" lon="14.125861657240133"><ele>62.666666666666664</ele><time>2026-05-02T06:43:14.999Z</time></trkpt><trkpt lat="42.43235506946785" lon="14.125921627781333"><ele>63.0</ele><time>2026-05-02T06:43:15.999Z</time></trkpt><trkpt lat="42.43228314877298" lon="14.125977421059867"><ele>63.0</ele><time>2026-05-02T06:43:16.999Z</time></trkpt><trkpt lat="42.43220663681479" lon="14.126034055576616"><ele>63.0</ele><time>2026-05-02T06:43:17.999Z</time></trkpt><trkpt lat="42.43212759981872" lon="14.126087581403334"><ele>63.0</ele><time>2026-05-02T06:43:18.999Z</time></trkpt><trkpt lat="42.43204739537627" lon="14.126159327038595"><ele>63.0</ele><time>2026-05-02T06:43:19.999Z</time></trkpt><trkpt lat="42.43197079885561" lon="14.126183080433847"><ele>63.0</ele><time>2026-05-02T06:43:20.999Z</time></trkpt><trkpt lat="42.43190134361266" lon="14.12621584512744"><ele>63.0</ele><time>2026-05-02T06:43:21.999Z</time></trkpt><trkpt lat="42.43183309179257" lon="14.126238948795466"><ele>64.8</ele><time>2026-05-02T06:43:22.999Z</time></trkpt><trkpt lat="42.43170838901444" lon="14.126259071864716"><ele>66.6</ele><time>2026-05-02T06:43:24.999Z</time></trkpt><trkpt lat="42.43163057994329" lon="14.126262214768062"><ele>68.4</ele><time>2026-05-02T06:43:25.999Z</time></trkpt><trkpt lat="42.431545674770256" lon="14.126266530142559"><ele>70.2</ele><time>2026-05-02T06:43:26.999Z</time></trkpt><trkpt lat="42.43145023756837" lon="14.126290601317127"><ele>72.0</ele><time>2026-05-02T06:43:27.999Z</time></trkpt><trkpt lat="42.43135495817275" lon="14.12632350765071"><ele>75.2</ele><time>2026-05-02T06:43:28.999Z</time></trkpt><trkpt lat="42.43126728110458" lon="14.126378348305215"><ele>78.4</ele><time>2026-05-02T06:43:29.999Z</time></trkpt><trkpt lat="42.4311701832264" lon="14.126385040786605"><ele>81.60000000000001</ele><time>2026-05-02T06:43:30.999Z</time></trkpt><trkpt lat="42.43108326737964" lon="14.126437107264088"><ele>84.80000000000001</ele><time>2026-05-02T06:43:31.999Z</time></trkpt><trkpt lat="42.431004077892894" lon="14.126475793935422"><ele>88.0</ele><time>2026-05-02T06:43:32.999Z</time></trkpt><trkpt lat="42.430927697917554" lon="14.126521881371769"><ele>86.0</ele><time>2026-05-02T06:43:33.999Z</time></trkpt><trkpt lat="42.430854814607386" lon="14.126573435469084"><ele>84.0</ele><time>2026-05-02T06:43:34.999Z</time></trkpt><trkpt lat="42.430778064576415" lon="14.126620442597718"><ele>82.0</ele><time>2026-05-02T06:43:35.999Z</time></trkpt><trkpt lat="42.430703201480405" lon="14.126691287918236"><ele>80.0</ele><time>2026-05-02T06:43:36.999Z</time></trkpt><trkpt lat="42.43063487000135" lon="14.12677168760358"><ele>78.0</ele><time>2026-05-02T06:43:37.999Z</time></trkpt><trkpt lat="42.43057264337842" lon="14.126843734397433"><ele>76.0</ele><time>2026-05-02T06:43:38.999Z</time></trkpt><trkpt lat="42.430520363471494" lon="14.126912107262207"><ele>76.83333333333333</ele><time>2026-05-02T06:43:39.999Z</time></trkpt><trkpt lat="42.430455849768826" lon="14.12693275748428"><ele>77.66666666666666</ele><time>2026-05-02T06:43:40.999Z</time></trkpt><trkpt lat="42.430351246210954" lon="14.1268756902653"><ele>78.5</ele><time>2026-05-02T06:43:42.999Z</time></trkpt><trkpt lat="42.43027409778127" lon="14.126811019552164"><ele>79.33333333333333</ele><time>2026-05-02T06:43:44.999Z</time></trkpt><trkpt lat="42.43021310858646" lon="14.12674405230823"><ele>80.16666666666667</ele><time>2026-05-02T06:43:48.999Z</time></trkpt><trkpt lat="42.43014045339358" lon="14.126744636899899"><ele>81.0</ele><time>2026-05-02T06:43:51Z</time></trkpt><trkpt lat="42.4300515235193" lon="14.12676017167394"><ele>81.0</ele><time>2026-05-02T06:43:53Z</time></trkpt><trkpt lat="42.42995315655401" lon="14.126810164697462"><ele>81.0</ele><time>2026-05-02T06:43:55Z</time></trkpt><trkpt lat="42.429832735887416" lon="14.126806153802622"><ele>81.0</ele><time>2026-05-02T06:43:57Z</time></trkpt><trkpt lat="42.42976974513155" lon="14.126826960321331"><ele>81.0</ele><time>2026-05-02T06:43:58Z</time></trkpt><trkpt lat="42.429706772356184" lon="14.126843703968756"><ele>81.0</ele><time>2026-05-02T06:43:59Z</time></trkpt><trkpt lat="42.42960608187164" lon="14.126862520556045"><ele>78.66666666666667</ele><time>2026-05-02T06:44:01Z</time></trkpt><trkpt lat="42.4295102427924" lon="14.126868050113574"><ele>76.33333333333333</ele><time>2026-05-02T06:44:03Z</time></trkpt><trkpt lat="42.42940290290432" lon="14.126864543106509"><ele>74.0</ele><time>2026-05-02T06:44:05Z</time></trkpt><trkpt lat="42.42933998770681" lon="14.126860603555187"><ele>71.66666666666666</ele><time>2026-05-02T06:44:06Z</time></trkpt><trkpt lat="42.42927566997124" lon="14.126855334006025"><ele>69.33333333333333</ele><time>2026-05-02T06:44:07Z</time></trkpt><trkpt lat="42.42921185535629" lon="14.126848700723132"><ele>67.0</ele><time>2026-05-02T06:44:08Z</time></trkpt><trkpt lat="42.42911621185726" lon="14.126833000172002"><ele>67.0</ele><time>2026-05-02T06:44:10Z</time></trkpt><trkpt lat="42.429006916375386" lon="14.126807714423148"><ele>67.0</ele><time>2026-05-02T06:44:12Z</time></trkpt><trkpt lat="42.42890044716802" lon="14.126772065578393"><ele>67.0</ele><time>2026-05-02T06:44:14Z</time></trkpt><trkpt lat="42.42881165307236" lon="14.12670255275216"><ele>67.0</ele><time>2026-05-02T06:44:16Z</time></trkpt><trkpt lat="42.428739784944675" lon="14.126592070695004"><ele>67.0</ele><time>2026-05-02T06:44:18Z</time></trkpt><trkpt lat="42.42868175200304" lon="14.126459290629988"><ele>64.0</ele><time>2026-05-02T06:44:20Z</time></trkpt><trkpt lat="42.428628779559475" lon="14.126333931565908"><ele>61.0</ele><time>2026-05-02T06:44:22Z</time></trkpt><trkpt lat="42.42856131282895" lon="14.126202668373981"><ele>58.0</ele><time>2026-05-02T06:44:24Z</time></trkpt><trkpt lat="42.42848077825965" lon="14.126103311165092"><ele>55.0</ele><time>2026-05-02T06:44:26Z</time></trkpt><trkpt lat="42.42842218994802" lon="14.126068367993167"><ele>52.0</ele><time>2026-05-02T06:44:27Z</time></trkpt><trkpt lat="42.428302311882476" lon="14.126032290946164"><ele>52.0</ele><time>2026-05-02T06:44:29Z</time></trkpt><trkpt lat="42.42818647899235" lon="14.126019528562937"><ele>52.0</ele><time>2026-05-02T06:44:31Z</time></trkpt><trkpt lat="42.42806668049711" lon="14.12603490371025"><ele>52.0</ele><time>2026-05-02T06:44:33Z</time></trkpt><trkpt lat="42.42800470438277" lon="14.12605516330286"><ele>52.0</ele><time>2026-05-02T06:44:34Z</time></trkpt><trkpt lat="42.427896245222605" lon="14.126022357207297"><ele>52.0</ele><time>2026-05-02T06:44:36Z</time></trkpt><trkpt lat="42.42776636064425" lon="14.125977068304344"><ele>50.83333333333333</ele><time>2026-05-02T06:44:38Z</time></trkpt><trkpt lat="42.42768432599048" lon="14.125943199291612"><ele>49.666666666666664</ele><time>2026-05-02T06:44:39Z</time></trkpt><trkpt lat="42.427604904596535" lon="14.125899201211842"><ele>48.5</ele><time>2026-05-02T06:44:40Z</time></trkpt><trkpt lat="42.427534056364294" lon="14.125857107678575"><ele>47.33333333333333</ele><time>2026-05-02T06:44:41Z</time></trkpt><trkpt lat="42.427474645478526" lon="14.125822309331424"><ele>46.166666666666664</ele><time>2026-05-02T06:44:42Z</time></trkpt><trkpt lat="42.42741032868935" lon="14.125787913201535"><ele>45.0</ele><time>2026-05-02T06:44:43Z</time></trkpt><trkpt lat="42.427336000259366" lon="14.125777982253192"><ele>45.0</ele><time>2026-05-02T06:44:43.999Z</time></trkpt><trkpt lat="42.42727235121055" lon="14.125755481118869"><ele>45.0</ele><time>2026-05-02T06:44:44.999Z</time></trkpt><trkpt lat="42.427214512756265" lon="14.125713580024938"><ele>45.0</ele><time>2026-05-02T06:44:45.999Z</time></trkpt><trkpt lat="42.427152398041834" lon="14.125729559276682"><ele>45.0</ele><time>2026-05-02T06:44:46.999Z</time></trkpt><trkpt lat="42.4270681602853" lon="14.125700628201503"><ele>45.0</ele><time>2026-05-02T06:44:48.999Z</time></trkpt><trkpt lat="42.42697910401312" lon="14.125689720641946"><ele>45.0</ele><time>2026-05-02T06:44:50.999Z</time></trkpt><trkpt lat="42.426869521354945" lon="14.125637842307372"><ele>43.5</ele><time>2026-05-02T06:44:52.999Z</time></trkpt><trkpt lat="42.426794924271334" lon="14.125614565825181"><ele>42.0</ele><time>2026-05-02T06:44:54.999Z</time></trkpt><trkpt lat="42.426743109321464" lon="14.125563762011462"><ele>40.5</ele><time>2026-05-02T06:44:57.999Z</time></trkpt><trkpt lat="42.426768089032464" lon="14.125439455707692"><ele>39.0</ele><time>2026-05-02T06:44:59.999Z</time></trkpt><trkpt lat="42.42679449784375" lon="14.125335346500444"><ele>37.5</ele><time>2026-05-02T06:45:00.999Z</time></trkpt><trkpt lat="42.4268192731617" lon="14.125203300850952"><ele>36.0</ele><time>2026-05-02T06:45:01.999Z</time></trkpt><trkpt lat="42.426841436064926" lon="14.125069547502173"><ele>36.0</ele><time>2026-05-02T06:45:02.999Z</time></trkpt><trkpt lat="42.426862995346205" lon="14.12493930379438"><ele>36.0</ele><time>2026-05-02T06:45:03.999Z</time></trkpt><trkpt lat="42.42688980913992" lon="14.124809799223799"><ele>36.0</ele><time>2026-05-02T06:45:04.999Z</time></trkpt><trkpt lat="42.42691145334693" lon="14.124690312363898"><ele>36.0</ele><time>2026-05-02T06:45:05.999Z</time></trkpt><trkpt lat="42.42692866950446" lon="14.124587821394467"><ele>36.0</ele><time>2026-05-02T06:45:06.999Z</time></trkpt><trkpt lat="42.42694898465994" lon="14.124469778155206"><ele>36.75</ele><time>2026-05-02T06:45:08.999Z</time></trkpt><trkpt lat="42.42695068311676" lon="14.124377867711177"><ele>37.5</ele><time>2026-05-02T06:45:12.999Z</time></trkpt><trkpt lat="42.42674708856416" lon="14.124292656532266"><ele>38.25</ele><time>2026-05-02T06:45:13.999Z</time></trkpt><trkpt lat="42.42666890308474" lon="14.124245638484064"><ele>39.0</ele><time>2026-05-02T06:45:14.999Z</time></trkpt><trkpt lat="42.42658961768398" lon="14.124193813164004"><ele>39.0</ele><time>2026-05-02T06:45:15.999Z</time></trkpt><trkpt lat="42.42651964946089" lon="14.124137737113939"><ele>39.0</ele><time>2026-05-02T06:45:16.999Z</time></trkpt><trkpt lat="42.42646198246144" lon="14.1240701897861"><ele>39.0</ele><time>2026-05-02T06:45:17.999Z</time></trkpt><trkpt lat="42.42641307100708" lon="14.123967534035357"><ele>39.0</ele><time>2026-05-02T06:45:18.999Z</time></trkpt><trkpt lat="42.426373102433" lon="14.123831946766854"><ele>39.0</ele><time>2026-05-02T06:45:19.999Z</time></trkpt><trkpt lat="42.426339869160635" lon="14.12364982957133"><ele>38.75</ele><time>2026-05-02T06:45:20.999Z</time></trkpt><trkpt lat="42.42630901150845" lon="14.123477539517307"><ele>38.5</ele><time>2026-05-02T06:45:21.999Z</time></trkpt><trkpt lat="42.42627822675546" lon="14.123296489035065"><ele>38.25</ele><time>2026-05-02T06:45:22.999Z</time></trkpt><trkpt lat="42.42624826636018" lon="14.123104083838165"><ele>38.0</ele><time>2026-05-02T06:45:23.999Z</time></trkpt><trkpt lat="42.42622065888745" lon="14.12290726950545"><ele>38.0</ele><time>2026-05-02T06:45:24.999Z</time></trkpt><trkpt lat="42.42619525392182" lon="14.122711800319632"><ele>38.0</ele><time>2026-05-02T06:45:25.999Z</time></trkpt><trkpt lat="42.42617223363213" lon="14.12251479991642"><ele>38.0</ele><time>2026-05-02T06:45:26.999Z</time></trkpt><trkpt lat="42.426147492187134" lon="14.122317103501631"><ele>38.0</ele><time>2026-05-02T06:45:27.999Z</time></trkpt><trkpt lat="42.42612170061693" lon="14.122120252378119"><ele>38.25</ele><time>2026-05-02T06:45:28.999Z</time></trkpt><trkpt lat="42.42609639022423" lon="14.12192342430102"><ele>38.5</ele><time>2026-05-02T06:45:29.999Z</time></trkpt><trkpt lat="42.426070172129116" lon="14.121724445102377"><ele>38.75</ele><time>2026-05-02T06:45:30.999Z</time></trkpt><trkpt lat="42.42604397166752" lon="14.121525803620147"><ele>39.0</ele><time>2026-05-02T06:45:31.999Z</time></trkpt><trkpt lat="42.42601718170477" lon="14.121328100411517"><ele>39.5</ele><time>2026-05-02T06:45:32.999Z</time></trkpt><trkpt lat="42.425985347035734" lon="14.121134883637087"><ele>40.0</ele><time>2026-05-02T06:45:33.999Z</time></trkpt><trkpt lat="42.42593901176049" lon="14.120944979848845"><ele>40.5</ele><time>2026-05-02T06:45:34.999Z</time></trkpt><trkpt lat="42.42587569819225" lon="14.120762820499452"><ele>41.0</ele><time>2026-05-02T06:45:35.999Z</time></trkpt><trkpt lat="42.425809244745416" lon="14.120583685643327"><ele>42.0</ele><time>2026-05-02T06:45:36.999Z</time></trkpt><trkpt lat="42.4257453888146" lon="14.12041540294114"><ele>43.0</ele><time>2026-05-02T06:45:37.999Z</time></trkpt><trkpt lat="42.42568709175207" lon="14.120252789152515"><ele>44.0</ele><time>2026-05-02T06:45:38.999Z</time></trkpt><trkpt lat="42.4256297992693" lon="14.120095436736511"><ele>45.0</ele><time>2026-05-02T06:45:39.999Z</time></trkpt><trkpt lat="42.42557460413011" lon="14.119927609912006"><ele>46.5</ele><time>2026-05-02T06:45:40.999Z</time></trkpt><trkpt lat="42.4255230419063" lon="14.119751037722716"><ele>48.0</ele><time>2026-05-02T06:45:41.999Z</time></trkpt><trkpt lat="42.42548377145865" lon="14.119568553044358"><ele>49.5</ele><time>2026-05-02T06:45:42.999Z</time></trkpt><trkpt lat="42.42545559082347" lon="14.119374185561854"><ele>51.0</ele><time>2026-05-02T06:45:43.999Z</time></trkpt><trkpt lat="42.42542433459226" lon="14.11917914694818"><ele>47.0</ele><time>2026-05-02T06:45:44.999Z</time></trkpt><trkpt lat="42.425390771762586" lon="14.118980265493098"><ele>43.0</ele><time>2026-05-02T06:45:45.999Z</time></trkpt><trkpt lat="42.42535737559208" lon="14.118778382127227"><ele>39.0</ele><time>2026-05-02T06:45:46.999Z</time></trkpt><trkpt lat="42.42532281365226" lon="14.118562640745731"><ele>39.0</ele><time>2026-05-02T06:45:47.999Z</time></trkpt><trkpt lat="42.42528514713004" lon="14.1183372665084"><ele>39.0</ele><time>2026-05-02T06:45:48.999Z</time></trkpt><trkpt lat="42.42524521192859" lon="14.11809602229251"><ele>39.0</ele><time>2026-05-02T06:45:49.999Z</time></trkpt><trkpt lat="42.42520695433788" lon="14.117868331120103"><ele>39.333333333333336</ele><time>2026-05-02T06:45:50.999Z</time></trkpt><trkpt lat="42.42516623210086" lon="14.117632923498883"><ele>39.66666666666667</ele><time>2026-05-02T06:45:51.999Z</time></trkpt><trkpt lat="42.42513082434964" lon="14.11739394929871"><ele>40.0</ele><time>2026-05-02T06:45:52.999Z</time></trkpt><trkpt lat="42.4251023632455" lon="14.117150609556255"><ele>41.333333333333336</ele><time>2026-05-02T06:45:53.999Z</time></trkpt><trkpt lat="42.42508917949446" lon="14.116902899837688"><ele>42.666666666666664</ele><time>2026-05-02T06:45:54.999Z</time></trkpt><trkpt lat="42.42507769842728" lon="14.116653490158502"><ele>44.0</ele><time>2026-05-02T06:45:55.999Z</time></trkpt><trkpt lat="42.42505911605233" lon="14.116401452525757"><ele>44.0</ele><time>2026-05-02T06:45:57Z</time></trkpt><trkpt lat="42.42504486724173" lon="14.116157637847847"><ele>44.0</ele><time>2026-05-02T06:45:58Z</time></trkpt><trkpt lat="42.42502736944852" lon="14.115907075923916"><ele>44.0</ele><time>2026-05-02T06:45:59Z</time></trkpt><trkpt lat="42.425004580136516" lon="14.115656817304329"><ele>44.33333333333333</ele><time>2026-05-02T06:46:00Z</time></trkpt><trkpt lat="42.42498703902742" lon="14.115407571535426"><ele>44.666666666666664</ele><time>2026-05-02T06:46:01Z</time></trkpt><trkpt lat="42.42497198151023" lon="14.115160371308557"><ele>45.0</ele><time>2026-05-02T06:46:02Z</time></trkpt><trkpt lat="42.42495646807978" lon="14.11491788968813"><ele>46.0</ele><time>2026-05-02T06:46:03Z</time></trkpt><trkpt lat="42.42494014106813" lon="14.114679094597308"><ele>47.0</ele><time>2026-05-02T06:46:04Z</time></trkpt><trkpt lat="42.424924737107666" lon="14.11443930126189"><ele>48.0</ele><time>2026-05-02T06:46:05Z</time></trkpt><trkpt lat="42.42490846001891" lon="14.11420686664953"><ele>48.66666666666667</ele><time>2026-05-02T06:46:06Z</time></trkpt><trkpt lat="42.42489248366684" lon="14.113976839640754"><ele>49.333333333333336</ele><time>2026-05-02T06:46:07Z</time></trkpt><trkpt lat="42.42487572154664" lon="14.113743950323636"><ele>50.0</ele><time>2026-05-02T06:46:08Z</time></trkpt><trkpt lat="42.42486062944912" lon="14.113518061781472"><ele>50.0</ele><time>2026-05-02T06:46:09Z</time></trkpt><trkpt lat="42.424846139219056" lon="14.113297932165981"><ele>50.0</ele><time>2026-05-02T06:46:10Z</time></trkpt><trkpt lat="42.42483582751618" lon="14.113102575389322"><ele>50.0</ele><time>2026-05-02T06:46:11Z</time></trkpt><trkpt lat="42.42483591348636" lon="14.11292250079553"><ele>50.0</ele><time>2026-05-02T06:46:12Z</time></trkpt><trkpt lat="42.424869224699535" lon="14.11275250845165"><ele>50.5</ele><time>2026-05-02T06:46:13Z</time></trkpt><trkpt lat="42.42490379458228" lon="14.112582969554042"><ele>51.0</ele><time>2026-05-02T06:46:14Z</time></trkpt><trkpt lat="42.424939228741266" lon="14.112422342957746"><ele>51.5</ele><time>2026-05-02T06:46:15Z</time></trkpt><trkpt lat="42.424972656669496" lon="14.112260483520359"><ele>52.0</ele><time>2026-05-02T06:46:16Z</time></trkpt><trkpt lat="42.424991332871315" lon="14.112085963594867"><ele>51.2</ele><time>2026-05-02T06:46:17Z</time></trkpt><trkpt lat="42.42502621686445" lon="14.111923170553755"><ele>50.400000000000006</ele><time>2026-05-02T06:46:18Z</time></trkpt><trkpt lat="42.42507243049209" lon="14.11180031643861"><ele>49.599999999999994</ele><time>2026-05-02T06:46:19Z</time></trkpt><trkpt lat="42.42510567829598" lon="14.111680971873655"><ele>48.8</ele><time>2026-05-02T06:46:20Z</time></trkpt><trkpt lat="42.42513439659418" lon="14.111589770729399"><ele>48.0</ele><time>2026-05-02T06:46:21Z</time></trkpt><trkpt lat="42.425186009364026" lon="14.111464035862555"><ele>48.0</ele><time>2026-05-02T06:46:23Z</time></trkpt><trkpt lat="42.42521254962635" lon="14.111377208942013"><ele>48.0</ele><time>2026-05-02T06:46:27Z</time></trkpt><trkpt lat="42.425063166402126" lon="14.111442377603774"><ele>48.0</ele><time>2026-05-02T06:46:34.999Z</time></trkpt><trkpt lat="42.42499564687694" lon="14.111509418789698"><ele>48.0</ele><time>2026-05-02T06:46:35.999Z</time></trkpt><trkpt lat="42.424904917864794" lon="14.111579174360788"><ele>48.0</ele><time>2026-05-02T06:46:36.999Z</time></trkpt><trkpt lat="42.42480569082692" lon="14.111655001152323"><ele>48.0</ele><time>2026-05-02T06:46:37.999Z</time></trkpt><trkpt lat="42.42469815973378" lon="14.111727296334701"><ele>48.0</ele><time>2026-05-02T06:46:38.999Z</time></trkpt><trkpt lat="42.42458005663296" lon="14.111762373185512"><ele>48.0</ele><time>2026-05-02T06:46:39.999Z</time></trkpt><trkpt lat="42.42447431933111" lon="14.111831714687645"><ele>48.0</ele><time>2026-05-02T06:46:40.999Z</time></trkpt><trkpt lat="42.424363997750966" lon="14.111866481064268"><ele>46.8</ele><time>2026-05-02T06:46:41.999Z</time></trkpt><trkpt lat="42.42424722848398" lon="14.111867128934021"><ele>45.599999999999994</ele><time>2026-05-02T06:46:42.999Z</time></trkpt><trkpt lat="42.42413676645235" lon="14.111889753690516"><ele>44.400000000000006</ele><time>2026-05-02T06:46:43.999Z</time></trkpt><trkpt lat="42.424040136332486" lon="14.111909039962446"><ele>43.2</ele><time>2026-05-02T06:46:44.999Z</time></trkpt><trkpt lat="42.42395222594388" lon="14.111927939957578"><ele>42.0</ele><time>2026-05-02T06:46:45.999Z</time></trkpt><trkpt lat="42.42386807696327" lon="14.11195264860431"><ele>41.166666666666664</ele><time>2026-05-02T06:46:46.999Z</time></trkpt><trkpt lat="42.42378589685872" lon="14.11197357416843"><ele>40.333333333333336</ele><time>2026-05-02T06:46:47.999Z</time></trkpt><trkpt lat="42.423701625128786" lon="14.111978319790426"><ele>39.5</ele><time>2026-05-02T06:46:48.999Z</time></trkpt><trkpt lat="42.42360893650304" lon="14.111976581566415"><ele>38.66666666666667</ele><time>2026-05-02T06:46:49.999Z</time></trkpt><trkpt lat="42.423516007407656" lon="14.111971962428044"><ele>37.833333333333336</ele><time>2026-05-02T06:46:50.999Z</time></trkpt><trkpt lat="42.423427468379884" lon="14.111966183682894"><ele>37.0</ele><time>2026-05-02T06:46:51.999Z</time></trkpt><trkpt lat="42.423347787076125" lon="14.111966582479084"><ele>37.0</ele><time>2026-05-02T06:46:52.999Z</time></trkpt><trkpt lat="42.4232867182823" lon="14.112013019038828"><ele>37.0</ele><time>2026-05-02T06:46:53.999Z</time></trkpt><trkpt lat="42.42322312664664" lon="14.112061230782652"><ele>37.0</ele><time>2026-05-02T06:46:54.999Z</time></trkpt><trkpt lat="42.42314766007493" lon="14.112144033641332"><ele>37.0</ele><time>2026-05-02T06:46:55.999Z</time></trkpt><trkpt lat="42.42305735050562" lon="14.112251118407956"><ele>37.0</ele><time>2026-05-02T06:46:56.999Z</time></trkpt><trkpt lat="42.422949676629045" lon="14.112349281165827"><ele>38.75</ele><time>2026-05-02T06:46:57.999Z</time></trkpt><trkpt lat="42.42284646634104" lon="14.112479141997314"><ele>40.5</ele><time>2026-05-02T06:46:58.999Z</time></trkpt><trkpt lat="42.42275634414285" lon="14.112634601856891"><ele>42.25</ele><time>2026-05-02T06:46:59.999Z</time></trkpt><trkpt lat="42.42264065900502" lon="14.112758587731618"><ele>44.0</ele><time>2026-05-02T06:47:00.999Z</time></trkpt><trkpt lat="42.422514870608175" lon="14.112874700669046"><ele>44.0</ele><time>2026-05-02T06:47:01.999Z</time></trkpt><trkpt lat="42.42238941453232" lon="14.112985614237338"><ele>44.0</ele><time>2026-05-02T06:47:02.999Z</time></trkpt><trkpt lat="42.42227423587435" lon="14.113086525319249"><ele>44.0</ele><time>2026-05-02T06:47:03.999Z</time></trkpt><trkpt lat="42.42216269693235" lon="14.11319086401992"><ele>44.0</ele><time>2026-05-02T06:47:04.999Z</time></trkpt><trkpt lat="42.42206961522632" lon="14.113282625876195"><ele>45.0</ele><time>2026-05-02T06:47:05.999Z</time></trkpt><trkpt lat="42.42198457397466" lon="14.113372856092612"><ele>46.0</ele><time>2026-05-02T06:47:06.999Z</time></trkpt><trkpt lat="42.421885003893685" lon="14.113424867746291"><ele>47.0</ele><time>2026-05-02T06:47:07.999Z</time></trkpt><trkpt lat="42.42178882151778" lon="14.113475356258197"><ele>48.0</ele><time>2026-05-02T06:47:08.999Z</time></trkpt><trkpt lat="42.42168741219264" lon="14.1135355760297"><ele>49.0</ele><time>2026-05-02T06:47:09.999Z</time></trkpt><trkpt lat="42.421569314544485" lon="14.113574935933501"><ele>49.0</ele><time>2026-05-02T06:47:10.999Z</time></trkpt><trkpt lat="42.42144830667511" lon="14.113616521140333"><ele>49.0</ele><time>2026-05-02T06:47:11.999Z</time></trkpt><trkpt lat="42.421329742659864" lon="14.113668054672672"><ele>49.0</ele><time>2026-05-02T06:47:12.999Z</time></trkpt><trkpt lat="42.421210940930614" lon="14.113729883163431"><ele>49.0</ele><time>2026-05-02T06:47:13.999Z</time></trkpt><trkpt lat="42.42109803559023" lon="14.113815443296081"><ele>50.0</ele><time>2026-05-02T06:47:14.999Z</time></trkpt><trkpt lat="42.42098610270816" lon="14.11390875180339"><ele>51.0</ele><time>2026-05-02T06:47:15.999Z</time></trkpt><trkpt lat="42.42088020811815" lon="14.11399600487864"><ele>52.0</ele><time>2026-05-02T06:47:16.999Z</time></trkpt><trkpt lat="42.420778410064" lon="14.114065792769273"><ele>53.0</ele><time>2026-05-02T06:47:17.999Z</time></trkpt><trkpt lat="42.420681517086216" lon="14.11412411756175"><ele>55.0</ele><time>2026-05-02T06:47:18.999Z</time></trkpt><trkpt lat="42.4205950198497" lon="14.114205266094354"><ele>57.0</ele><time>2026-05-02T06:47:19.999Z</time></trkpt><trkpt lat="42.420514808860936" lon="14.114306642755357"><ele>59.0</ele><time>2026-05-02T06:47:20.999Z</time></trkpt><trkpt lat="42.4204407064977" lon="14.114426513742249"><ele>61.0</ele><time>2026-05-02T06:47:21.999Z</time></trkpt><trkpt lat="42.42037007551613" lon="14.114555511564413"><ele>63.0</ele><time>2026-05-02T06:47:22.999Z</time></trkpt><trkpt lat="42.42028957817349" lon="14.114670696250991"><ele>63.0</ele><time>2026-05-02T06:47:23.999Z</time></trkpt><trkpt lat="42.42019258847068" lon="14.114757673830544"><ele>63.0</ele><time>2026-05-02T06:47:24.999Z</time></trkpt><trkpt lat="42.42007606056115" lon="14.11479159541676"><ele>63.0</ele><time>2026-05-02T06:47:25.999Z</time></trkpt><trkpt lat="42.419956477563254" lon="14.114843400586844"><ele>63.0</ele><time>2026-05-02T06:47:26.999Z</time></trkpt><trkpt lat="42.41984315026703" lon="14.114933112291475"><ele>64.5</ele><time>2026-05-02T06:47:27.999Z</time></trkpt><trkpt lat="42.41971910805331" lon="14.114998635745271"><ele>66.0</ele><time>2026-05-02T06:47:28.999Z</time></trkpt><trkpt lat="42.41961928823545" lon="14.115116471083468"><ele>67.5</ele><time>2026-05-02T06:47:29.999Z</time></trkpt><trkpt lat="42.4195199059782" lon="14.115233846484536"><ele>69.0</ele><time>2026-05-02T06:47:30.999Z</time></trkpt><trkpt lat="42.41941382372719" lon="14.115326172593834"><ele>71.75</ele><time>2026-05-02T06:47:31.999Z</time></trkpt><trkpt lat="42.41931477468331" lon="14.1154211920867"><ele>74.5</ele><time>2026-05-02T06:47:32.999Z</time></trkpt><trkpt lat="42.4192167606448" lon="14.115513314669828"><ele>77.25</ele><time>2026-05-02T06:47:33.999Z</time></trkpt><trkpt lat="42.4191198896116" lon="14.115599117331051"><ele>80.0</ele><time>2026-05-02T06:47:34.999Z</time></trkpt><trkpt lat="42.4190432523541" lon="14.11570893222008"><ele>81.0</ele><time>2026-05-02T06:47:35.999Z</time></trkpt><trkpt lat="42.41897087026551" lon="14.115798639372569"><ele>82.0</ele><time>2026-05-02T06:47:36.999Z</time></trkpt><trkpt lat="42.41891610135965" lon="14.115877523503807"><ele>83.0</ele><time>2026-05-02T06:47:37.999Z</time></trkpt><trkpt lat="42.418853255347244" lon="14.115944790268085"><ele>84.0</ele><time>2026-05-02T06:47:39.999Z</time></trkpt><trkpt lat="42.41878513511099" lon="14.115890071641747"><ele>85.0</ele><time>2026-05-02T06:47:41.999Z</time></trkpt><trkpt lat="42.418723412353636" lon="14.115823954079815"><ele>86.0</ele><time>2026-05-02T06:47:42.999Z</time></trkpt><trkpt lat="42.418646210775385" lon="14.115744758569823"><ele>89.0</ele><time>2026-05-02T06:47:43.999Z</time></trkpt><trkpt lat="42.41855182832284" lon="14.115658347920993"><ele>92.0</ele><time>2026-05-02T06:47:44.999Z</time></trkpt><trkpt lat="42.41844557723241" lon="14.11557755649537"><ele>95.0</ele><time>2026-05-02T06:47:45.999Z</time></trkpt><trkpt lat="42.418335047454406" lon="14.115504650537085"><ele>98.0</ele><time>2026-05-02T06:47:46.999Z</time></trkpt><trkpt lat="42.41823363401861" lon="14.115442732223299"><ele>98.0</ele><time>2026-05-02T06:47:47.999Z</time></trkpt><trkpt lat="42.41812644998705" lon="14.11538157249309"><ele>98.0</ele><time>2026-05-02T06:47:48.999Z</time></trkpt><trkpt lat="42.41801907631428" lon="14.115325517652016"><ele>98.0</ele><time>2026-05-02T06:47:49.999Z</time></trkpt><trkpt lat="42.417909245747495" lon="14.11528090675698"><ele>98.0</ele><time>2026-05-02T06:47:50.999Z</time></trkpt><trkpt lat="42.417800198937094" lon="14.115244168421329"><ele>99.60000000000001</ele><time>2026-05-02T06:47:51.999Z</time></trkpt><trkpt lat="42.4176919460658" lon="14.115210768311645"><ele>101.2</ele><time>2026-05-02T06:47:52.999Z</time></trkpt><trkpt lat="42.41758672875651" lon="14.115184790553194"><ele>102.8</ele><time>2026-05-02T06:47:53.999Z</time></trkpt><trkpt lat="42.41748720480904" lon="14.115163518332901"><ele>104.4</ele><time>2026-05-02T06:47:54.999Z</time></trkpt><trkpt lat="42.41738372055258" lon="14.115145893263403"><ele>106.0</ele><time>2026-05-02T06:47:55.999Z</time></trkpt><trkpt lat="42.417271912438565" lon="14.115130865701879"><ele>106.0</ele><time>2026-05-02T06:47:56.999Z</time></trkpt><trkpt lat="42.417154589951295" lon="14.115119987908653"><ele>106.0</ele><time>2026-05-02T06:47:57.999Z</time></trkpt><trkpt lat="42.417038842154994" lon="14.11511186891118"><ele>106.0</ele><time>2026-05-02T06:47:58.999Z</time></trkpt><trkpt lat="42.416921393640024" lon="14.1151135200435"><ele>106.0</ele><time>2026-05-02T06:47:59.999Z</time></trkpt><trkpt lat="42.41680649019883" lon="14.115123606048293"><ele>107.25</ele><time>2026-05-02T06:48:00.999Z</time></trkpt><trkpt lat="42.41669027365564" lon="14.115140432905196"><ele>108.5</ele><time>2026-05-02T06:48:01.999Z</time></trkpt><trkpt lat="42.41657246136563" lon="14.115157954379978"><ele>109.75</ele><time>2026-05-02T06:48:03Z</time></trkpt><trkpt lat="42.41644926631255" lon="14.115177733051189"><ele>111.0</ele><time>2026-05-02T06:48:04Z</time></trkpt><trkpt lat="42.416326035096056" lon="14.115198509718939"><ele>112.25</ele><time>2026-05-02T06:48:05Z</time></trkpt><trkpt lat="42.41620550902962" lon="14.115212963483428"><ele>113.5</ele><time>2026-05-02T06:48:06Z</time></trkpt><trkpt lat="42.416082926204986" lon="14.11521482344134"><ele>114.75</ele><time>2026-05-02T06:48:07Z</time></trkpt><trkpt lat="42.415959820713276" lon="14.11521515060641"><ele>116.0</ele><time>2026-05-02T06:48:08Z</time></trkpt><trkpt lat="42.41583117348119" lon="14.115227109841895"><ele>116.0</ele><time>2026-05-02T06:48:09Z</time></trkpt><trkpt lat="42.41570481839955" lon="14.115270126571172"><ele>116.0</ele><time>2026-05-02T06:48:10Z</time></trkpt><trkpt lat="42.41558192098495" lon="14.115306742981659"><ele>116.0</ele><time>2026-05-02T06:48:11Z</time></trkpt><trkpt lat="42.41547258314229" lon="14.115327622988092"><ele>116.0</ele><time>2026-05-02T06:48:11.999Z</time></trkpt><trkpt lat="42.41539894323567" lon="14.115383697626392"><ele>116.0</ele><time>2026-05-02T06:48:12.999Z</time></trkpt><trkpt lat="42.415321522657116" lon="14.115416639291611"><ele>116.0</ele><time>2026-05-02T06:48:14.999Z</time></trkpt><trkpt lat="42.41522070647135" lon="14.115460616641172"><ele>116.0</ele><time>2026-05-02T06:48:17.999Z</time></trkpt><trkpt lat="42.41517228618477" lon="14.11558653131821"><ele>116.0</ele><time>2026-05-02T06:48:18.999Z</time></trkpt><trkpt lat="42.415097157212344" lon="14.115675296775281"><ele>116.0</ele><time>2026-05-02T06:48:19.999Z</time></trkpt><trkpt lat="42.415025887183816" lon="14.115772102427089"><ele>116.0</ele><time>2026-05-02T06:48:20.999Z</time></trkpt><trkpt lat="42.41495934383149" lon="14.115859789218137"><ele>116.0</ele><time>2026-05-02T06:48:21.999Z</time></trkpt><trkpt lat="42.41488288541484" lon="14.115952651604351"><ele>116.0</ele><time>2026-05-02T06:48:22.999Z</time></trkpt><trkpt lat="42.41479761889346" lon="14.116045067645329"><ele>116.0</ele><time>2026-05-02T06:48:23.999Z</time></trkpt><trkpt lat="42.41470220085868" lon="14.116134045037052"><ele>116.0</ele><time>2026-05-02T06:48:24.999Z</time></trkpt><trkpt lat="42.41459976375185" lon="14.11622156806849"><ele>114.75</ele><time>2026-05-02T06:48:25.999Z</time></trkpt><trkpt lat="42.414489290783585" lon="14.116313902843501"><ele>113.5</ele><time>2026-05-02T06:48:26.999Z</time></trkpt><trkpt lat="42.414374677649214" lon="14.116404450810272"><ele>112.25</ele><time>2026-05-02T06:48:27.999Z</time></trkpt><trkpt lat="42.41425357933481" lon="14.11647218398566"><ele>111.0</ele><time>2026-05-02T06:48:28.999Z</time></trkpt><trkpt lat="42.41414138000397" lon="14.116544645596225"><ele>110.8</ele><time>2026-05-02T06:48:29.999Z</time></trkpt><trkpt lat="42.41403127166931" lon="14.116609739121266"><ele>110.6</ele><time>2026-05-02T06:48:30.999Z</time></trkpt><trkpt lat="42.41393147964452" lon="14.116691436018069"><ele>110.4</ele><time>2026-05-02T06:48:31.999Z</time></trkpt><trkpt lat="42.41384314164211" lon="14.116740295174111"><ele>110.2</ele><time>2026-05-02T06:48:32.999Z</time></trkpt><trkpt lat="42.41377007659089" lon="14.116786087341845"><ele>110.0</ele><time>2026-05-02T06:48:33.999Z</time></trkpt><trkpt lat="42.413713878018754" lon="14.116837808734026"><ele>109.4</ele><time>2026-05-02T06:48:34.999Z</time></trkpt><trkpt lat="42.41366100470256" lon="14.116914213208046"><ele>108.8</ele><time>2026-05-02T06:48:35.999Z</time></trkpt><trkpt lat="42.41359058294663" lon="14.116991054948103"><ele>108.19999999999999</ele><time>2026-05-02T06:48:36.999Z</time></trkpt><trkpt lat="42.413528636532426" lon="14.117093885669789"><ele>107.6</ele><time>2026-05-02T06:48:37.999Z</time></trkpt><trkpt lat="42.413476616963315" lon="14.117220159149124"><ele>107.0</ele><time>2026-05-02T06:48:38.999Z</time></trkpt><trkpt lat="42.413406706607155" lon="14.117338143528618"><ele>107.39999999999999</ele><time>2026-05-02T06:48:39.999Z</time></trkpt><trkpt lat="42.413335483455306" lon="14.117461290234747"><ele>107.79999999999998</ele><time>2026-05-02T06:48:40.999Z</time></trkpt><trkpt lat="42.41326705272271" lon="14.117586210334748"><ele>108.2</ele><time>2026-05-02T06:48:41.999Z</time></trkpt><trkpt lat="42.41320103568585" lon="14.117707316510762"><ele>108.6</ele><time>2026-05-02T06:48:42.999Z</time></trkpt><trkpt lat="42.41313708853226" lon="14.117820388281332"><ele>109.0</ele><time>2026-05-02T06:48:43.999Z</time></trkpt><trkpt lat="42.41307670389289" lon="14.11792691306"><ele>109.0</ele><time>2026-05-02T06:48:44.999Z</time></trkpt><trkpt lat="42.41301505612988" lon="14.118035760971818"><ele>109.0</ele><time>2026-05-02T06:48:45.999Z</time></trkpt><trkpt lat="42.41294828098571" lon="14.118144923318305"><ele>109.0</ele><time>2026-05-02T06:48:46.999Z</time></trkpt><trkpt lat="42.41287403137779" lon="14.118258167848946"><ele>109.0</ele><time>2026-05-02T06:48:47.999Z</time></trkpt><trkpt lat="42.41279157959147" lon="14.118371257338753"><ele>109.0</ele><time>2026-05-02T06:48:48.999Z</time></trkpt><trkpt lat="42.41270220507007" lon="14.118479639870744"><ele>108.5</ele><time>2026-05-02T06:48:49.999Z</time></trkpt><trkpt lat="42.41260296516862" lon="14.118577336654187"><ele>108.0</ele><time>2026-05-02T06:48:50.999Z</time></trkpt><trkpt lat="42.41249853189187" lon="14.118665103431619"><ele>107.5</ele><time>2026-05-02T06:48:51.999Z</time></trkpt><trkpt lat="42.41239140986697" lon="14.118746351075742"><ele>107.0</ele><time>2026-05-02T06:48:52.999Z</time></trkpt><trkpt lat="42.412281580479366" lon="14.11881949599167"><ele>107.0</ele><time>2026-05-02T06:48:53.999Z</time></trkpt><trkpt lat="42.41217102611595" lon="14.1188897650988"><ele>107.0</ele><time>2026-05-02T06:48:54.999Z</time></trkpt><trkpt lat="42.41206183877694" lon="14.118959345958963"><ele>107.0</ele><time>2026-05-02T06:48:55.999Z</time></trkpt><trkpt lat="42.41195544408193" lon="14.119035220257032"><ele>107.0</ele><time>2026-05-02T06:48:56.999Z</time></trkpt><trkpt lat="42.41185007576695" lon="14.119109098640179"><ele>106.0</ele><time>2026-05-02T06:48:57.999Z</time></trkpt><trkpt lat="42.411741142921166" lon="14.119182063160709"><ele>104.99999999999999</ele><time>2026-05-02T06:48:58.999Z</time></trkpt><trkpt lat="42.4116227686095" lon="14.119227635925954"><ele>104.0</ele><time>2026-05-02T06:48:59.999Z</time></trkpt><trkpt lat="42.41153506310799" lon="14.11930096359386"><ele>103.0</ele><time>2026-05-02T06:49:00.999Z</time></trkpt><trkpt lat="42.41145921692808" lon="14.11934683994188"><ele>102.0</ele><time>2026-05-02T06:49:01.999Z</time></trkpt><trkpt lat="42.41138774052655" lon="14.119365776350374"><ele>102.0</ele><time>2026-05-02T06:49:02.999Z</time></trkpt><trkpt lat="42.41133750802667" lon="14.119418913470136"><ele>102.0</ele><time>2026-05-02T06:49:03.999Z</time></trkpt><trkpt lat="42.411265603985534" lon="14.119462369112348"><ele>102.0</ele><time>2026-05-02T06:49:05.999Z</time></trkpt><trkpt lat="42.41118896825924" lon="14.119516968148679"><ele>102.0</ele><time>2026-05-02T06:49:07.999Z</time></trkpt><trkpt lat="42.41112653674247" lon="14.119573638218393"><ele>102.0</ele><time>2026-05-02T06:49:08.999Z</time></trkpt><trkpt lat="42.41105846913079" lon="14.119636671022558"><ele>102.0</ele><time>2026-05-02T06:49:09.999Z</time></trkpt><trkpt lat="42.41099561510845" lon="14.119694475592572"><ele>102.16666666666667</ele><time>2026-05-02T06:49:10.999Z</time></trkpt><trkpt lat="42.41092957095537" lon="14.119756470416869"><ele>102.33333333333334</ele><time>2026-05-02T06:49:11.999Z</time></trkpt><trkpt lat="42.4108672854781" lon="14.119818522419827"><ele>102.5</ele><time>2026-05-02T06:49:12.999Z</time></trkpt><trkpt lat="42.41080601701284" lon="14.119852274174727"><ele>102.66666666666667</ele><time>2026-05-02T06:49:13.999Z</time></trkpt><trkpt lat="42.410727218148466" lon="14.119923716896464"><ele>102.83333333333334</ele><time>2026-05-02T06:49:15.999Z</time></trkpt><trkpt lat="42.41066344803782" lon="14.11997518013274"><ele>103.0</ele><time>2026-05-02T06:49:17.999Z</time></trkpt><trkpt lat="42.410602222143176" lon="14.120017596457258"><ele>103.0</ele><time>2026-05-02T06:49:19.999Z</time></trkpt><trkpt lat="42.41052850202522" lon="14.120041752307563"><ele>103.0</ele><time>2026-05-02T06:49:23Z</time></trkpt><trkpt lat="42.410509783758776" lon="14.119861153183663"><ele>103.0</ele><time>2026-05-02T06:49:24Z</time></trkpt><trkpt lat="42.410455676027176" lon="14.119777795072654"><ele>103.0</ele><time>2026-05-02T06:49:26Z</time></trkpt><trkpt lat="42.41040677977859" lon="14.119683395211654"><ele>103.0</ele><time>2026-05-02T06:49:29Z</time></trkpt><trkpt lat="42.410379150583076" lon="14.119592384907223"><ele>101.60000000000001</ele><time>2026-05-02T06:49:32Z</time></trkpt><trkpt lat="42.41035490328286" lon="14.119475612531467"><ele>100.2</ele><time>2026-05-02T06:49:34Z</time></trkpt><trkpt lat="42.41032269630449" lon="14.119339014330295"><ele>98.8</ele><time>2026-05-02T06:49:35Z</time></trkpt><trkpt lat="42.41027325457727" lon="14.119258711169868"><ele>97.4</ele><time>2026-05-02T06:49:36Z</time></trkpt><trkpt lat="42.410213740834315" lon="14.119162403954507"><ele>96.0</ele><time>2026-05-02T06:49:38Z</time></trkpt><trkpt lat="42.410150367177" lon="14.119059850487703"><ele>96.0</ele><time>2026-05-02T06:49:40Z</time></trkpt><trkpt lat="42.410074107961485" lon="14.118936445144286"><ele>96.0</ele><time>2026-05-02T06:49:42Z</time></trkpt><trkpt lat="42.409876004543236" lon="14.119061827954372"><ele>96.0</ele><time>2026-05-02T06:49:43Z</time></trkpt><trkpt lat="42.40977620968535" lon="14.11899591877587"><ele>96.0</ele><time>2026-05-02T06:49:45Z</time></trkpt><trkpt lat="42.40968755263128" lon="14.11893593454856"><ele>93.6</ele><time>2026-05-02T06:49:47Z</time></trkpt><trkpt lat="42.409590655327804" lon="14.118857574411443"><ele>91.19999999999999</ele><time>2026-05-02T06:49:49Z</time></trkpt><trkpt lat="42.409505988998575" lon="14.118785352112141"><ele>88.80000000000001</ele><time>2026-05-02T06:49:51Z</time></trkpt><trkpt lat="42.40941327942959" lon="14.118725984069034"><ele>86.4</ele><time>2026-05-02T06:49:53Z</time></trkpt><trkpt lat="42.409307226688846" lon="14.118653745631155"><ele>84.0</ele><time>2026-05-02T06:49:55Z</time></trkpt><trkpt lat="42.40919705981697" lon="14.118576790505669"><ele>84.0</ele><time>2026-05-02T06:49:57Z</time></trkpt><trkpt lat="42.409116410441776" lon="14.118485492626604"><ele>84.0</ele><time>2026-05-02T06:49:59Z</time></trkpt><trkpt lat="42.40902970913105" lon="14.118387794716295"><ele>84.0</ele><time>2026-05-02T06:50:01Z</time></trkpt><trkpt lat="42.408950157152155" lon="14.118271682070478"><ele>84.0</ele><time>2026-05-02T06:50:03Z</time></trkpt><trkpt lat="42.40891707328433" lon="14.118197787195973"><ele>84.0</ele><time>2026-05-02T06:50:04Z</time></trkpt><trkpt lat="42.408886634809996" lon="14.118118814323704"><ele>82.83333333333333</ele><time>2026-05-02T06:50:05Z</time></trkpt><trkpt lat="42.40885572278746" lon="14.118040784063162"><ele>81.66666666666667</ele><time>2026-05-02T06:50:06Z</time></trkpt><trkpt lat="42.4088252873241" lon="14.117964435276647"><ele>80.5</ele><time>2026-05-02T06:50:07Z</time></trkpt><trkpt lat="42.40879645889106" lon="14.117882398757672"><ele>79.33333333333334</ele><time>2026-05-02T06:50:08Z</time></trkpt><trkpt lat="42.40873878585712" lon="14.117723400732318"><ele>78.16666666666667</ele><time>2026-05-02T06:50:10Z</time></trkpt><trkpt lat="42.40870991882527" lon="14.117641406546683"><ele>77.0</ele><time>2026-05-02T06:50:11Z</time></trkpt><trkpt lat="42.40866154715861" lon="14.117505113211744"><ele>77.8</ele><time>2026-05-02T06:50:13Z</time></trkpt><trkpt lat="42.40862260321441" lon="14.117390710048117"><ele>78.6</ele><time>2026-05-02T06:50:15Z</time></trkpt><trkpt lat="42.40858902106171" lon="14.117288303143985"><ele>79.39999999999999</ele><time>2026-05-02T06:50:17Z</time></trkpt><trkpt lat="42.408493281500256" lon="14.117210143484428"><ele>80.2</ele><time>2026-05-02T06:50:20Z</time></trkpt><trkpt lat="42.40842530762435" lon="14.11714738038197"><ele>81.0</ele><time>2026-05-02T06:50:21Z</time></trkpt><trkpt lat="42.40835539911909" lon="14.117088936887392"><ele>81.0</ele><time>2026-05-02T06:50:22Z</time></trkpt><trkpt lat="42.40828697529565" lon="14.117030148347968"><ele>81.0</ele><time>2026-05-02T06:50:23Z</time></trkpt><trkpt lat="42.40823209124997" lon="14.11695323762336"><ele>81.0</ele><time>2026-05-02T06:50:24Z</time></trkpt><trkpt lat="42.408175282410824" lon="14.11688411956387"><ele>81.0</ele><time>2026-05-02T06:50:25Z</time></trkpt><trkpt lat="42.40811713010432" lon="14.116815594276725"><ele>81.0</ele><time>2026-05-02T06:50:26Z</time></trkpt><trkpt lat="42.40806032440865" lon="14.116755011072323"><ele>81.0</ele><time>2026-05-02T06:50:27Z</time></trkpt><trkpt lat="42.40798407089318" lon="14.116714480459105"><ele>82.83333333333333</ele><time>2026-05-02T06:50:28Z</time></trkpt><trkpt lat="42.40791381166132" lon="14.116701347867668"><ele>84.66666666666667</ele><time>2026-05-02T06:50:29Z</time></trkpt><trkpt lat="42.40782344082093" lon="14.116621789614857"><ele>86.5</ele><time>2026-05-02T06:50:31Z</time></trkpt><trkpt lat="42.407767586984214" lon="14.116568485938174"><ele>88.33333333333334</ele><time>2026-05-02T06:50:32Z</time></trkpt><trkpt lat="42.40767612457161" lon="14.116545445244075"><ele>90.16666666666667</ele><time>2026-05-02T06:50:33Z</time></trkpt><trkpt lat="42.40757251787871" lon="14.116509244212127"><ele>92.0</ele><time>2026-05-02T06:50:34Z</time></trkpt><trkpt lat="42.40745250981983" lon="14.116467476091454"><ele>92.6</ele><time>2026-05-02T06:50:35Z</time></trkpt><trkpt lat="42.4073410825644" lon="14.116429754917577"><ele>93.19999999999999</ele><time>2026-05-02T06:50:36Z</time></trkpt><trkpt lat="42.40724509512253" lon="14.116397879463324"><ele>93.8</ele><time>2026-05-02T06:50:37Z</time></trkpt><trkpt lat="42.40716650551398" lon="14.116379818057123"><ele>94.4</ele><time>2026-05-02T06:50:38Z</time></trkpt><trkpt lat="42.40703635166601" lon="14.116351927766562"><ele>95.0</ele><time>2026-05-02T06:50:40Z</time></trkpt><trkpt lat="42.406971706491476" lon="14.116333756198264"><ele>97.0</ele><time>2026-05-02T06:50:41Z</time></trkpt><trkpt lat="42.406852474942205" lon="14.11623909683008"><ele>99.0</ele><time>2026-05-02T06:50:43Z</time></trkpt><trkpt lat="42.40676869149504" lon="14.116159839329104"><ele>101.0</ele><time>2026-05-02T06:50:44Z</time></trkpt><trkpt lat="42.40667008530503" lon="14.116079615690273"><ele>103.0</ele><time>2026-05-02T06:50:45Z</time></trkpt><trkpt lat="42.406560244547215" lon="14.115994273195113"><ele>103.0</ele><time>2026-05-02T06:50:46Z</time></trkpt><trkpt lat="42.40645586191454" lon="14.11591683320183"><ele>103.0</ele><time>2026-05-02T06:50:47Z</time></trkpt><trkpt lat="42.406367941120294" lon="14.115849605864163"><ele>103.0</ele><time>2026-05-02T06:50:48Z</time></trkpt><trkpt lat="42.40627429009399" lon="14.115790868575699"><ele>103.0</ele><time>2026-05-02T06:50:49Z</time></trkpt><trkpt lat="42.40618103547914" lon="14.115737090720746"><ele>103.0</ele><time>2026-05-02T06:50:50Z</time></trkpt><trkpt lat="42.406088707395426" lon="14.115678437293044"><ele>104.00000000000001</ele><time>2026-05-02T06:50:51Z</time></trkpt><trkpt lat="42.4060092003277" lon="14.115613776900126"><ele>105.0</ele><time>2026-05-02T06:50:52Z</time></trkpt><trkpt lat="42.405937141779326" lon="14.115554072212898"><ele>106.0</ele><time>2026-05-02T06:50:53Z</time></trkpt><trkpt lat="42.405882078267645" lon="14.115504103205028"><ele>107.0</ele><time>2026-05-02T06:50:54Z</time></trkpt><trkpt lat="42.40582515421426" lon="14.11546114945781"><ele>108.00000000000001</ele><time>2026-05-02T06:50:55Z</time></trkpt><trkpt lat="42.40579904846947" lon="14.115382173743878"><ele>109.0</ele><time>2026-05-02T06:50:56Z</time></trkpt><trkpt lat="42.405679293151195" lon="14.115421641337479"><ele>109.0</ele><time>2026-05-02T06:50:57Z</time></trkpt><trkpt lat="42.40559748511926" lon="14.115449084284705"><ele>109.0</ele><time>2026-05-02T06:50:58Z</time></trkpt><trkpt lat="42.405503527403845" lon="14.115466145049506"><ele>109.0</ele><time>2026-05-02T06:51:00Z</time></trkpt><trkpt lat="42.40542895151195" lon="14.115479621272126"><ele>109.0</ele><time>2026-05-02T06:51:04Z</time></trkpt><trkpt lat="42.405334794555486" lon="14.115461534657017"><ele>109.0</ele><time>2026-05-02T06:51:06Z</time></trkpt><trkpt lat="42.40523452264874" lon="14.115456899942805"><ele>107.83333333333334</ele><time>2026-05-02T06:51:08Z</time></trkpt><trkpt lat="42.40515085767986" lon="14.115449809012375"><ele>106.66666666666667</ele><time>2026-05-02T06:51:10Z</time></trkpt><trkpt lat="42.40508217206058" lon="14.115439357150418"><ele>105.5</ele><time>2026-05-02T06:51:12Z</time></trkpt><trkpt lat="42.40501639134798" lon="14.115427852659886"><ele>104.33333333333334</ele><time>2026-05-02T06:51:15Z</time></trkpt><trkpt lat="42.40507897409515" lon="14.115438795471228"><ele>103.16666666666667</ele><time>2026-05-02T06:51:21Z</time></trkpt><trkpt lat="42.40518859895378" lon="14.115474192886188"><ele>102.0</ele><time>2026-05-02T06:51:23Z</time></trkpt><trkpt lat="42.40526008424332" lon="14.115474294696094"><ele>102.0</ele><time>2026-05-02T06:51:24Z</time></trkpt><trkpt lat="42.40532487727678" lon="14.115477243124069"><ele>102.0</ele><time>2026-05-02T06:51:25Z</time></trkpt><trkpt lat="42.405417979608764" lon="14.115464643091187"><ele>102.0</ele><time>2026-05-02T06:51:27Z</time></trkpt><trkpt lat="42.40537443377325" lon="14.115699004243709"><ele>102.0</ele><time>2026-05-02T06:51:30Z</time></trkpt><trkpt lat="42.40533704812042" lon="14.115785166692483"><ele>102.0</ele><time>2026-05-02T06:51:31Z</time></trkpt><trkpt lat="42.40529601817607" lon="14.115879728148576"><ele>102.0</ele><time>2026-05-02T06:51:32Z</time></trkpt><trkpt lat="42.4052524176849" lon="14.115974595414386"><ele>102.0</ele><time>2026-05-02T06:51:33Z</time></trkpt><trkpt lat="42.405219813995934" lon="14.116077368001742"><ele>102.0</ele><time>2026-05-02T06:51:34Z</time></trkpt><trkpt lat="42.40515777592763" lon="14.116163918110114"><ele>102.0</ele><time>2026-05-02T06:51:35Z</time></trkpt><trkpt lat="42.40509183256069" lon="14.116244272924408"><ele>102.0</ele><time>2026-05-02T06:51:36Z</time></trkpt><trkpt lat="42.4050225904334" lon="14.116330046929741"><ele>102.0</ele><time>2026-05-02T06:51:37Z</time></trkpt><trkpt lat="42.404951079986475" lon="14.116420540396623"><ele>102.0</ele><time>2026-05-02T06:51:38Z</time></trkpt><trkpt lat="42.40487907085779" lon="14.116513713595179"><ele>102.0</ele><time>2026-05-02T06:51:39Z</time></trkpt><trkpt lat="42.404802485812134" lon="14.116609909088277"><ele>102.0</ele><time>2026-05-02T06:51:40Z</time></trkpt><trkpt lat="42.40472280729355" lon="14.116707178767589"><ele>102.0</ele><time>2026-05-02T06:51:41Z</time></trkpt><trkpt lat="42.40464372563247" lon="14.11680014689515"><ele>102.0</ele><time>2026-05-02T06:51:42Z</time></trkpt><trkpt lat="42.40455683522471" lon="14.116897871697269"><ele>99.0</ele><time>2026-05-02T06:51:43Z</time></trkpt><trkpt lat="42.40447272986518" lon="14.11700113182233"><ele>96.0</ele><time>2026-05-02T06:51:44Z</time></trkpt><trkpt lat="42.40438871074641" lon="14.117106912412515"><ele>93.0</ele><time>2026-05-02T06:51:45Z</time></trkpt><trkpt lat="42.404303665291785" lon="14.117215932382983"><ele>90.0</ele><time>2026-05-02T06:51:46Z</time></trkpt><trkpt lat="42.404217902462015" lon="14.11732376003098"><ele>89.0</ele><time>2026-05-02T06:51:47Z</time></trkpt><trkpt lat="42.404132604956125" lon="14.117426113434062"><ele>88.0</ele><time>2026-05-02T06:51:48Z</time></trkpt><trkpt lat="42.404046522667" lon="14.117528053235176"><ele>87.0</ele><time>2026-05-02T06:51:49Z</time></trkpt><trkpt lat="42.403964461096145" lon="14.117627690264857"><ele>86.0</ele><time>2026-05-02T06:51:50Z</time></trkpt><trkpt lat="42.4038848457473" lon="14.117729452289096"><ele>85.0</ele><time>2026-05-02T06:51:51Z</time></trkpt><trkpt lat="42.4038047365163" lon="14.117831396062828"><ele>84.4</ele><time>2026-05-02T06:51:52Z</time></trkpt><trkpt lat="42.4037292582655" lon="14.117929282137679"><ele>83.8</ele><time>2026-05-02T06:51:53Z</time></trkpt><trkpt lat="42.40364698241394" lon="14.118031866287938"><ele>83.19999999999999</ele><time>2026-05-02T06:51:54Z</time></trkpt><trkpt lat="42.40357064588501" lon="14.118122393696712"><ele>82.6</ele><time>2026-05-02T06:51:55Z</time></trkpt><trkpt lat="42.40350334141152" lon="14.118208798767958"><ele>82.0</ele><time>2026-05-02T06:51:56Z</time></trkpt><trkpt lat="42.40341955550172" lon="14.118297278469003"><ele>81.5</ele><time>2026-05-02T06:51:57Z</time></trkpt><trkpt lat="42.40333258530071" lon="14.11840592452896"><ele>81.0</ele><time>2026-05-02T06:51:58Z</time></trkpt><trkpt lat="42.40323709645475" lon="14.118518457610081"><ele>80.5</ele><time>2026-05-02T06:51:59Z</time></trkpt><trkpt lat="42.4031409822736" lon="14.118634448041387"><ele>80.0</ele><time>2026-05-02T06:52:00Z</time></trkpt><trkpt lat="42.40305198838182" lon="14.118752430424395"><ele>79.8</ele><time>2026-05-02T06:52:01Z</time></trkpt><trkpt lat="42.402966375952" lon="14.118859200098647"><ele>79.6</ele><time>2026-05-02T06:52:02Z</time></trkpt><trkpt lat="42.4028905436783" lon="14.118959813861094"><ele>79.4</ele><time>2026-05-02T06:52:03Z</time></trkpt><trkpt lat="42.402815638167894" lon="14.119057960517782"><ele>79.2</ele><time>2026-05-02T06:52:04Z</time></trkpt><trkpt lat="42.40273234821113" lon="14.119125402849724"><ele>79.0</ele><time>2026-05-02T06:52:05Z</time></trkpt><trkpt lat="42.40265647446893" lon="14.119213922275856"><ele>78.2</ele><time>2026-05-02T06:52:06Z</time></trkpt><trkpt lat="42.402586638619994" lon="14.119292499107864"><ele>77.4</ele><time>2026-05-02T06:52:07Z</time></trkpt><trkpt lat="42.402505154398426" lon="14.119383399295693"><ele>76.6</ele><time>2026-05-02T06:52:08Z</time></trkpt><trkpt lat="42.402428027606504" lon="14.119466014227845"><ele>75.8</ele><time>2026-05-02T06:52:09Z</time></trkpt><trkpt lat="42.40236213524935" lon="14.119560152772745"><ele>75.0</ele><time>2026-05-02T06:52:10Z</time></trkpt><trkpt lat="42.40228371834719" lon="14.119632297405223"><ele>75.0</ele><time>2026-05-02T06:52:11Z</time></trkpt><trkpt lat="42.40219507500147" lon="14.119716128413428"><ele>75.0</ele><time>2026-05-02T06:52:12Z</time></trkpt><trkpt lat="42.40210461444537" lon="14.119803893672016"><ele>75.0</ele><time>2026-05-02T06:52:13Z</time></trkpt><trkpt lat="42.402007631251976" lon="14.119886560203721"><ele>75.0</ele><time>2026-05-02T06:52:14Z</time></trkpt><trkpt lat="42.40190434163679" lon="14.119967253357451"><ele>73.0</ele><time>2026-05-02T06:52:15Z</time></trkpt><trkpt lat="42.40180581143305" lon="14.120054010882736"><ele>71.0</ele><time>2026-05-02T06:52:16Z</time></trkpt><trkpt lat="42.40170657773168" lon="14.120146414939427"><ele>69.0</ele><time>2026-05-02T06:52:17Z</time></trkpt><trkpt lat="42.40160948671243" lon="14.120237954726191"><ele>67.0</ele><time>2026-05-02T06:52:18Z</time></trkpt><trkpt lat="42.40151299827507" lon="14.120326597817389"><ele>67.0</ele><time>2026-05-02T06:52:19Z</time></trkpt><trkpt lat="42.40141423405954" lon="14.12040554851516"><ele>67.0</ele><time>2026-05-02T06:52:20Z</time></trkpt><trkpt lat="42.40131580304201" lon="14.120490629917072"><ele>67.0</ele><time>2026-05-02T06:52:21Z</time></trkpt><trkpt lat="42.40122279439385" lon="14.120577085448575"><ele>67.0</ele><time>2026-05-02T06:52:22Z</time></trkpt><trkpt lat="42.40113044832321" lon="14.120665151358645"><ele>66.4</ele><time>2026-05-02T06:52:23Z</time></trkpt><trkpt lat="42.40104565316546" lon="14.1207507832997"><ele>65.80000000000001</ele><time>2026-05-02T06:52:24Z</time></trkpt><trkpt lat="42.40095857842234" lon="14.120833626546306"><ele>65.2</ele><time>2026-05-02T06:52:25Z</time></trkpt><trkpt lat="42.40087011316602" lon="14.120916442722054"><ele>64.60000000000001</ele><time>2026-05-02T06:52:26Z</time></trkpt><trkpt lat="42.40077572561237" lon="14.120996237688189"><ele>64.0</ele><time>2026-05-02T06:52:27Z</time></trkpt><trkpt lat="42.40068148580872" lon="14.12109141332351"><ele>64.0</ele><time>2026-05-02T06:52:28Z</time></trkpt><trkpt lat="42.40059404343696" lon="14.121187892373078"><ele>64.0</ele><time>2026-05-02T06:52:29Z</time></trkpt><trkpt lat="42.4004979319944" lon="14.121273801160235"><ele>64.0</ele><time>2026-05-02T06:52:30Z</time></trkpt><trkpt lat="42.400400231292316" lon="14.12135784704397"><ele>64.0</ele><time>2026-05-02T06:52:31Z</time></trkpt><trkpt lat="42.40030087473177" lon="14.121437250871562"><ele>63.400000000000006</ele><time>2026-05-02T06:52:32Z</time></trkpt><trkpt lat="42.400205021384835" lon="14.121510483459444"><ele>62.800000000000004</ele><time>2026-05-02T06:52:33Z</time></trkpt><trkpt lat="42.400119564587065" lon="14.121590282997706"><ele>62.199999999999996</ele><time>2026-05-02T06:52:34Z</time></trkpt><trkpt lat="42.40005370374564" lon="14.121685574520553"><ele>61.599999999999994</ele><time>2026-05-02T06:52:35Z</time></trkpt><trkpt lat="42.399995174257946" lon="14.121800896029573"><ele>61.0</ele><time>2026-05-02T06:52:36Z</time></trkpt><trkpt lat="42.39995418210433" lon="14.121931697909615"><ele>61.0</ele><time>2026-05-02T06:52:37Z</time></trkpt><trkpt lat="42.39990919249483" lon="14.12208177580513"><ele>61.0</ele><time>2026-05-02T06:52:38Z</time></trkpt><trkpt lat="42.39986089096761" lon="14.122231271073451"><ele>61.0</ele><time>2026-05-02T06:52:39Z</time></trkpt><trkpt lat="42.39980995984689" lon="14.122375106965965"><ele>61.0</ele><time>2026-05-02T06:52:40Z</time></trkpt><trkpt lat="42.39975883784179" lon="14.122507236604983"><ele>61.0</ele><time>2026-05-02T06:52:41Z</time></trkpt><trkpt lat="42.39971859226269" lon="14.122628454069188"><ele>60.99999999999999</ele><time>2026-05-02T06:52:42Z</time></trkpt><trkpt lat="42.399697894263525" lon="14.122739499757637"><ele>60.99999999999999</ele><time>2026-05-02T06:52:43Z</time></trkpt><trkpt lat="42.39969927211292" lon="14.122859718589032"><ele>61.0</ele><time>2026-05-02T06:52:44Z</time></trkpt><trkpt lat="42.399714348276866" lon="14.122993774635123"><ele>61.0</ele><time>2026-05-02T06:52:45Z</time></trkpt><trkpt lat="42.399736230364866" lon="14.123130590179327"><ele>61.0</ele><time>2026-05-02T06:52:46Z</time></trkpt><trkpt lat="42.399748052090764" lon="14.12325281107375"><ele>60.99999999999999</ele><time>2026-05-02T06:52:47Z</time></trkpt><trkpt lat="42.399739845383806" lon="14.123371264443403"><ele>60.99999999999999</ele><time>2026-05-02T06:52:48Z</time></trkpt><trkpt lat="42.399711297365926" lon="14.123483693448591"><ele>61.0</ele><time>2026-05-02T06:52:49Z</time></trkpt><trkpt lat="42.39966230810165" lon="14.123603451258958"><ele>61.0</ele><time>2026-05-02T06:52:50Z</time></trkpt><trkpt lat="42.399608567224696" lon="14.123743267445029"><ele>59.25</ele><time>2026-05-02T06:52:51Z</time></trkpt><trkpt lat="42.3995495840056" lon="14.123892289993083"><ele>57.5</ele><time>2026-05-02T06:52:52Z</time></trkpt><trkpt lat="42.399481131348566" lon="14.124047150654691"><ele>55.75</ele><time>2026-05-02T06:52:53Z</time></trkpt><trkpt lat="42.39941743335477" lon="14.124205165186241"><ele>54.0</ele><time>2026-05-02T06:52:54Z</time></trkpt><trkpt lat="42.399349830965" lon="14.124356391852013"><ele>53.5</ele><time>2026-05-02T06:52:55Z</time></trkpt><trkpt lat="42.39928228576014" lon="14.124503541903668"><ele>53.0</ele><time>2026-05-02T06:52:56Z</time></trkpt><trkpt lat="42.399206844064246" lon="14.124644928445234"><ele>52.5</ele><time>2026-05-02T06:52:57Z</time></trkpt><trkpt lat="42.39913058925198" lon="14.124780950393248"><ele>52.0</ele><time>2026-05-02T06:52:58Z</time></trkpt><trkpt lat="42.39905459028973" lon="14.124914844674503"><ele>51.8</ele><time>2026-05-02T06:52:59Z</time></trkpt><trkpt lat="42.39898188782634" lon="14.125042506791353"><ele>51.6</ele><time>2026-05-02T06:53:00Z</time></trkpt><trkpt lat="42.39891400326738" lon="14.125146496794239"><ele>51.4</ele><time>2026-05-02T06:53:01Z</time></trkpt><trkpt lat="42.39884145301918" lon="14.12523640008312"><ele>51.199999999999996</ele><time>2026-05-02T06:53:02Z</time></trkpt><trkpt lat="42.39875835285897" lon="14.125302263273642"><ele>51.0</ele><time>2026-05-02T06:53:03Z</time></trkpt><trkpt lat="42.39865559978138" lon="14.125308562842523"><ele>49.8</ele><time>2026-05-02T06:53:04Z</time></trkpt><trkpt lat="42.3985538208411" lon="14.125323046266509"><ele>48.599999999999994</ele><time>2026-05-02T06:53:05Z</time></trkpt><trkpt lat="42.39844997166007" lon="14.125328198809163"><ele>47.4</ele><time>2026-05-02T06:53:06Z</time></trkpt><trkpt lat="42.39834325722313" lon="14.125311992696076"><ele>46.2</ele><time>2026-05-02T06:53:07Z</time></trkpt><trkpt lat="42.39823645014671" lon="14.125281100825164"><ele>45.0</ele><time>2026-05-02T06:53:08Z</time></trkpt><trkpt lat="42.39812845741661" lon="14.125247593978976"><ele>45.0</ele><time>2026-05-02T06:53:09Z</time></trkpt><trkpt lat="42.39801677406607" lon="14.125264407723595"><ele>45.0</ele><time>2026-05-02T06:53:10Z</time></trkpt><trkpt lat="42.39791642459561" lon="14.125291712678164"><ele>45.0</ele><time>2026-05-02T06:53:11Z</time></trkpt><trkpt lat="42.397830717672264" lon="14.125351192737796"><ele>45.0</ele><time>2026-05-02T06:53:12Z</time></trkpt><trkpt lat="42.39776227890191" lon="14.125437393891078"><ele>45.0</ele><time>2026-05-02T06:53:13Z</time></trkpt><trkpt lat="42.397706555859756" lon="14.125548753773613"><ele>45.2</ele><time>2026-05-02T06:53:14Z</time></trkpt><trkpt lat="42.39766139002983" lon="14.12566904441672"><ele>45.4</ele><time>2026-05-02T06:53:15Z</time></trkpt><trkpt lat="42.39761228820167" lon="14.125787639137743"><ele>45.599999999999994</ele><time>2026-05-02T06:53:16Z</time></trkpt><trkpt lat="42.39755361937427" lon="14.1258867167315"><ele>45.8</ele><time>2026-05-02T06:53:17Z</time></trkpt><trkpt lat="42.3974807578425" lon="14.125972425943983"><ele>46.0</ele><time>2026-05-02T06:53:18Z</time></trkpt><trkpt lat="42.397397942214" lon="14.12604525164868"><ele>46.8</ele><time>2026-05-02T06:53:19Z</time></trkpt><trkpt lat="42.39730546952897" lon="14.126103141440424"><ele>47.599999999999994</ele><time>2026-05-02T06:53:20Z</time></trkpt><trkpt lat="42.39720798869437" lon="14.126140001549564"><ele>48.4</ele><time>2026-05-02T06:53:21Z</time></trkpt><trkpt lat="42.397112673181184" lon="14.12617185615317"><ele>49.2</ele><time>2026-05-02T06:53:22Z</time></trkpt><trkpt lat="42.397026497740086" lon="14.126210777689371"><ele>50.0</ele><time>2026-05-02T06:53:23Z</time></trkpt><trkpt lat="42.396945319498336" lon="14.126249031048282"><ele>50.8</ele><time>2026-05-02T06:53:24Z</time></trkpt><trkpt lat="42.396860670280525" lon="14.126289126972319"><ele>51.6</ele><time>2026-05-02T06:53:25Z</time></trkpt><trkpt lat="42.39676082674909" lon="14.126344783311225"><ele>52.400000000000006</ele><time>2026-05-02T06:53:26Z</time></trkpt><trkpt lat="42.39664782401805" lon="14.126411740954323"><ele>53.2</ele><time>2026-05-02T06:53:27Z</time></trkpt><trkpt lat="42.396533284124494" lon="14.126477055519404"><ele>54.0</ele><time>2026-05-02T06:53:28Z</time></trkpt><trkpt lat="42.39643180326084" lon="14.126520599648682"><ele>54.0</ele><time>2026-05-02T06:53:29Z</time></trkpt><trkpt lat="42.39632676378707" lon="14.126534733967704"><ele>54.0</ele><time>2026-05-02T06:53:30Z</time></trkpt><trkpt lat="42.396197905393684" lon="14.126555294094121"><ele>54.0</ele><time>2026-05-02T06:53:31Z</time></trkpt><trkpt lat="42.396039374280306" lon="14.126571033826165"><ele>54.0</ele><time>2026-05-02T06:53:32Z</time></trkpt><trkpt lat="42.39587555227317" lon="14.126612603865928"><ele>54.0</ele><time>2026-05-02T06:53:33Z</time></trkpt><trkpt lat="42.39572035846794" lon="14.126632386858613"><ele>54.0</ele><time>2026-05-02T06:53:34Z</time></trkpt><trkpt lat="42.39556698345158" lon="14.12667502493977"><ele>54.0</ele><time>2026-05-02T06:53:35Z</time></trkpt><trkpt lat="42.3954127821199" lon="14.12671740749147"><ele>54.0</ele><time>2026-05-02T06:53:36Z</time></trkpt><trkpt lat="42.3952615814041" lon="14.126750126085224"><ele>54.0</ele><time>2026-05-02T06:53:37Z</time></trkpt><trkpt lat="42.39511380454203" lon="14.126777048838424"><ele>54.0</ele><time>2026-05-02T06:53:38Z</time></trkpt><trkpt lat="42.39496836632547" lon="14.126806520913805"><ele>54.0</ele><time>2026-05-02T06:53:39Z</time></trkpt><trkpt lat="42.394823338446415" lon="14.126837876399605"><ele>54.0</ele><time>2026-05-02T06:53:40Z</time></trkpt><trkpt lat="42.39467787219352" lon="14.126865524511839"><ele>54.0</ele><time>2026-05-02T06:53:41Z</time></trkpt><trkpt lat="42.394533273211366" lon="14.126892235782513"><ele>54.0</ele><time>2026-05-02T06:53:42Z</time></trkpt><trkpt lat="42.3943888787416" lon="14.126921250900468"><ele>54.0</ele><time>2026-05-02T06:53:43Z</time></trkpt><trkpt lat="42.394245205757436" lon="14.12694850786213"><ele>54.25</ele><time>2026-05-02T06:53:44Z</time></trkpt><trkpt lat="42.394102548788" lon="14.126973880948562"><ele>54.5</ele><time>2026-05-02T06:53:45Z</time></trkpt><trkpt lat="42.39396027784516" lon="14.12700363473837"><ele>54.75</ele><time>2026-05-02T06:53:46Z</time></trkpt><trkpt lat="42.39381990513537" lon="14.127038300509492"><ele>55.0</ele><time>2026-05-02T06:53:47Z</time></trkpt><trkpt lat="42.39368172422355" lon="14.12708750218351"><ele>55.0</ele><time>2026-05-02T06:53:48Z</time></trkpt><trkpt lat="42.39355501416371" lon="14.127170281464801"><ele>55.0</ele><time>2026-05-02T06:53:49Z</time></trkpt><trkpt lat="42.39344331515025" lon="14.12727976709799"><ele>55.0</ele><time>2026-05-02T06:53:50Z</time></trkpt><trkpt lat="42.39333733489298" lon="14.127407189022314"><ele>55.0</ele><time>2026-05-02T06:53:51Z</time></trkpt><trkpt lat="42.39323007390632" lon="14.127533386223256"><ele>54.75</ele><time>2026-05-02T06:53:52Z</time></trkpt><trkpt lat="42.39311986723229" lon="14.127659685536651"><ele>54.5</ele><time>2026-05-02T06:53:53Z</time></trkpt><trkpt lat="42.39300664600366" lon="14.12778524846381"><ele>54.25</ele><time>2026-05-02T06:53:54Z</time></trkpt><trkpt lat="42.39289448950418" lon="14.127908626147681"><ele>54.0</ele><time>2026-05-02T06:53:55Z</time></trkpt><trkpt lat="42.39278423706075" lon="14.128039971429848"><ele>54.0</ele><time>2026-05-02T06:53:56Z</time></trkpt><trkpt lat="42.3926789821518" lon="14.128182265476886"><ele>54.0</ele><time>2026-05-02T06:53:57Z</time></trkpt><trkpt lat="42.39257576128092" lon="14.128328109897836"><ele>54.0</ele><time>2026-05-02T06:53:58Z</time></trkpt><trkpt lat="42.39247168977981" lon="14.1284737171659"><ele>54.0</ele><time>2026-05-02T06:53:59Z</time></trkpt><trkpt lat="42.392370186789684" lon="14.128623119253803"><ele>54.0</ele><time>2026-05-02T06:54:00Z</time></trkpt><trkpt lat="42.392271946350704" lon="14.128770519466656"><ele>54.0</ele><time>2026-05-02T06:54:01Z</time></trkpt><trkpt lat="42.392176511532725" lon="14.128910160524018"><ele>54.0</ele><time>2026-05-02T06:54:02Z</time></trkpt><trkpt lat="42.3920856561691" lon="14.129044019764567"><ele>54.0</ele><time>2026-05-02T06:54:03Z</time></trkpt><trkpt lat="42.39200073275682" lon="14.12917201840817"><ele>54.2</ele><time>2026-05-02T06:54:04Z</time></trkpt><trkpt lat="42.39192234883923" lon="14.129287392489312"><ele>54.400000000000006</ele><time>2026-05-02T06:54:05Z</time></trkpt><trkpt lat="42.39184809951194" lon="14.129384699612286"><ele>54.6</ele><time>2026-05-02T06:54:06Z</time></trkpt><trkpt lat="42.391777670333745" lon="14.129464502232109"><ele>54.8</ele><time>2026-05-02T06:54:07Z</time></trkpt><trkpt lat="42.391702373707446" lon="14.129524096800292"><ele>55.0</ele><time>2026-05-02T06:54:08Z</time></trkpt><trkpt lat="42.391617673993274" lon="14.129550800331447"><ele>55.0</ele><time>2026-05-02T06:54:09Z</time></trkpt><trkpt lat="42.39152696501696" lon="14.129544775342728"><ele>55.0</ele><time>2026-05-02T06:54:10Z</time></trkpt><trkpt lat="42.39143702400972" lon="14.129518543115202"><ele>55.0</ele><time>2026-05-02T06:54:11Z</time></trkpt><trkpt lat="42.391350911645645" lon="14.129477229128614"><ele>55.0</ele><time>2026-05-02T06:54:12Z</time></trkpt><trkpt lat="42.3912541921082" lon="14.129441894465506"><ele>55.0</ele><time>2026-05-02T06:54:13Z</time></trkpt><trkpt lat="42.39114360704189" lon="14.129413107090345"><ele>51.75</ele><time>2026-05-02T06:54:14Z</time></trkpt><trkpt lat="42.391022517116696" lon="14.12939270244069"><ele>48.5</ele><time>2026-05-02T06:54:15Z</time></trkpt><trkpt lat="42.39089356807229" lon="14.12940376745016"><ele>45.25</ele><time>2026-05-02T06:54:16Z</time></trkpt><trkpt lat="42.39075814188103" lon="14.12944948888302"><ele>42.0</ele><time>2026-05-02T06:54:17Z</time></trkpt><trkpt lat="42.39062053053499" lon="14.12950719908963"><ele>39.0</ele><time>2026-05-02T06:54:18Z</time></trkpt><trkpt lat="42.39048614987573" lon="14.12955982518136"><ele>36.0</ele><time>2026-05-02T06:54:19Z</time></trkpt><trkpt lat="42.390357717915606" lon="14.129612120526168"><ele>33.0</ele><time>2026-05-02T06:54:20Z</time></trkpt><trkpt lat="42.390237083094874" lon="14.129664069779132"><ele>30.0</ele><time>2026-05-02T06:54:21Z</time></trkpt><trkpt lat="42.39012514732575" lon="14.129710864984572"><ele>30.0</ele><time>2026-05-02T06:54:22Z</time></trkpt><trkpt lat="42.39002060062705" lon="14.129752916315098"><ele>30.0</ele><time>2026-05-02T06:54:23Z</time></trkpt><trkpt lat="42.389924863048385" lon="14.129794242942582"><ele>30.0</ele><time>2026-05-02T06:54:24Z</time></trkpt><trkpt lat="42.38983775559233" lon="14.129832233275659"><ele>30.0</ele><time>2026-05-02T06:54:25Z</time></trkpt><trkpt lat="42.389760480708176" lon="14.129859749820397"><ele>30.0</ele><time>2026-05-02T06:54:26Z</time></trkpt><trkpt lat="42.389690663140044" lon="14.12987397808541"><ele>30.0</ele><time>2026-05-02T06:54:27Z</time></trkpt><trkpt lat="42.38958383222311" lon="14.12989159118263"><ele>30.0</ele><time>2026-05-02T06:54:29Z</time></trkpt><trkpt lat="42.38949881667949" lon="14.129920729456368"><ele>30.0</ele><time>2026-05-02T06:54:37Z</time></trkpt><trkpt lat="42.3893909807409" lon="14.130026609081577"><ele>30.0</ele><time>2026-05-02T06:54:39Z</time></trkpt><trkpt lat="42.38933132257053" lon="14.130093520740052"><ele>30.0</ele><time>2026-05-02T06:54:40Z</time></trkpt><trkpt lat="42.38925762289647" lon="14.130134286000631"><ele>30.0</ele><time>2026-05-02T06:54:41Z</time></trkpt><trkpt lat="42.38918895201652" lon="14.130193018409031"><ele>30.0</ele><time>2026-05-02T06:54:42Z</time></trkpt><trkpt lat="42.38912056673879" lon="14.130275986134901"><ele>30.0</ele><time>2026-05-02T06:54:43Z</time></trkpt><trkpt lat="42.38903146787244" lon="14.130345194808534"><ele>30.0</ele><time>2026-05-02T06:54:44Z</time></trkpt><trkpt lat="42.38894400719239" lon="14.130410278362227"><ele>30.0</ele><time>2026-05-02T06:54:45Z</time></trkpt><trkpt lat="42.38886862217457" lon="14.130464434549184"><ele>30.0</ele><time>2026-05-02T06:54:46Z</time></trkpt><trkpt lat="42.38880230874328" lon="14.130514954531968"><ele>30.0</ele><time>2026-05-02T06:54:47Z</time></trkpt><trkpt lat="42.38873429082432" lon="14.130541597549048"><ele>30.0</ele><time>2026-05-02T06:54:48Z</time></trkpt><trkpt lat="42.388670286074245" lon="14.1305878328478"><ele>30.0</ele><time>2026-05-02T06:54:49Z</time></trkpt><trkpt lat="42.38862568430424" lon="14.130656116269387"><ele>30.0</ele><time>2026-05-02T06:54:50Z</time></trkpt><trkpt lat="42.38852031943198" lon="14.130704789551128"><ele>30.0</ele><time>2026-05-02T06:54:52Z</time></trkpt><trkpt lat="42.38843421643766" lon="14.13064436811786"><ele>30.0</ele><time>2026-05-02T06:54:53Z</time></trkpt><trkpt lat="42.388359920857276" lon="14.130607725920491"><ele>30.0</ele><time>2026-05-02T06:54:54Z</time></trkpt><trkpt lat="42.388279187535275" lon="14.130566037776388"><ele>30.0</ele><time>2026-05-02T06:54:55Z</time></trkpt><trkpt lat="42.38820684510981" lon="14.130524235685668"><ele>30.0</ele><time>2026-05-02T06:54:56Z</time></trkpt><trkpt lat="42.38810928903954" lon="14.130450449395063"><ele>30.0</ele><time>2026-05-02T06:54:58Z</time></trkpt><trkpt lat="42.38806788940494" lon="14.130375885395326"><ele>30.0</ele><time>2026-05-02T06:55:00Z</time></trkpt><trkpt lat="42.38802835595163" lon="14.130308083332709"><ele>30.4</ele><time>2026-05-02T06:55:02Z</time></trkpt><trkpt lat="42.387926858244946" lon="14.130359299062404"><ele>30.8</ele><time>2026-05-02T06:55:03Z</time></trkpt><trkpt lat="42.3878482630715" lon="14.130337254997567"><ele>31.200000000000003</ele><time>2026-05-02T06:55:05Z</time></trkpt><trkpt lat="42.38774502589328" lon="14.130239909577403"><ele>31.6</ele><time>2026-05-02T06:55:07Z</time></trkpt><trkpt lat="42.38768286035195" lon="14.130176404274915"><ele>32.0</ele><time>2026-05-02T06:55:08Z</time></trkpt><trkpt lat="42.38761469270445" lon="14.1301135493351"><ele>31.999999999999996</ele><time>2026-05-02T06:55:09Z</time></trkpt><trkpt lat="42.3875400261704" lon="14.130050308875212"><ele>32.0</ele><time>2026-05-02T06:55:10Z</time></trkpt><trkpt lat="42.38747246942792" lon="14.129990631458051"><ele>32.0</ele><time>2026-05-02T06:55:11Z</time></trkpt><trkpt lat="42.387407870544884" lon="14.129932610033594"><ele>32.0</ele><time>2026-05-02T06:55:12Z</time></trkpt><trkpt lat="42.387343194180616" lon="14.129868156661807"><ele>31.999999999999996</ele><time>2026-05-02T06:55:13Z</time></trkpt><trkpt lat="42.387279421708534" lon="14.129806309270835"><ele>32.0</ele><time>2026-05-02T06:55:14Z</time></trkpt><trkpt lat="42.3872149684554" lon="14.129748184393156"><ele>32.166666666666664</ele><time>2026-05-02T06:55:15Z</time></trkpt><trkpt lat="42.387152703284364" lon="14.129690529788256"><ele>32.33333333333333</ele><time>2026-05-02T06:55:16Z</time></trkpt><trkpt lat="42.387095468437735" lon="14.129630442897993"><ele>32.5</ele><time>2026-05-02T06:55:17Z</time></trkpt><trkpt lat="42.3870489745778" lon="14.129571037452832"><ele>32.666666666666664</ele><time>2026-05-02T06:55:18Z</time></trkpt><trkpt lat="42.38695181019725" lon="14.129461003172786"><ele>32.833333333333336</ele><time>2026-05-02T06:55:20Z</time></trkpt><trkpt lat="42.38688536000053" lon="14.129398250857701"><ele>33.0</ele><time>2026-05-02T06:55:21Z</time></trkpt><trkpt lat="42.386817433559415" lon="14.129318984285225"><ele>33.0</ele><time>2026-05-02T06:55:22Z</time></trkpt><trkpt lat="42.3867441699063" lon="14.129215414565055"><ele>33.0</ele><time>2026-05-02T06:55:23Z</time></trkpt><trkpt lat="42.38666366479808" lon="14.129083340115436"><ele>33.0</ele><time>2026-05-02T06:55:24Z</time></trkpt><trkpt lat="42.3865868155051" lon="14.128952975033325"><ele>33.0</ele><time>2026-05-02T06:55:25Z</time></trkpt><trkpt lat="42.38650791283738" lon="14.128820821411324"><ele>33.5</ele><time>2026-05-02T06:55:26Z</time></trkpt><trkpt lat="42.386423815526676" lon="14.128686649486221"><ele>34.0</ele><time>2026-05-02T06:55:27Z</time></trkpt><trkpt lat="42.386337631781274" lon="14.128549099413938"><ele>34.5</ele><time>2026-05-02T06:55:28Z</time></trkpt><trkpt lat="42.38624761396272" lon="14.12841928688755"><ele>35.0</ele><time>2026-05-02T06:55:29Z</time></trkpt><trkpt lat="42.38614153971422" lon="14.128307614939029"><ele>35.25</ele><time>2026-05-02T06:55:30Z</time></trkpt><trkpt lat="42.386027224340985" lon="14.128203790801548"><ele>35.5</ele><time>2026-05-02T06:55:31Z</time></trkpt><trkpt lat="42.385913178929364" lon="14.128098978256443"><ele>35.75</ele><time>2026-05-02T06:55:32Z</time></trkpt><trkpt lat="42.38579937802077" lon="14.127993046770115"><ele>36.0</ele><time>2026-05-02T06:55:33Z</time></trkpt><trkpt lat="42.38568891375762" lon="14.127885664922308"><ele>36.0</ele><time>2026-05-02T06:55:34Z</time></trkpt><trkpt lat="42.385591796916266" lon="14.12775431082649"><ele>36.0</ele><time>2026-05-02T06:55:35Z</time></trkpt><trkpt lat="42.38547541540918" lon="14.127651231027102"><ele>36.0</ele><time>2026-05-02T06:55:36Z</time></trkpt><trkpt lat="42.38536671445831" lon="14.127531788244298"><ele>36.0</ele><time>2026-05-02T06:55:37Z</time></trkpt><trkpt lat="42.38525868605824" lon="14.127411280279905"><ele>38.25</ele><time>2026-05-02T06:55:38Z</time></trkpt><trkpt lat="42.385148227118066" lon="14.127297155328373"><ele>40.5</ele><time>2026-05-02T06:55:39Z</time></trkpt><trkpt lat="42.385034380852375" lon="14.127199767129365"><ele>42.75</ele><time>2026-05-02T06:55:40Z</time></trkpt><trkpt lat="42.38491290449245" lon="14.12711784845863"><ele>45.0</ele><time>2026-05-02T06:55:41Z</time></trkpt><trkpt lat="42.38478219625063" lon="14.127058428024183"><ele>44.25</ele><time>2026-05-02T06:55:42Z</time></trkpt><trkpt lat="42.38463990783951" lon="14.12701317484383"><ele>43.5</ele><time>2026-05-02T06:55:43Z</time></trkpt><trkpt lat="42.384495664069206" lon="14.126968226605678"><ele>42.75</ele><time>2026-05-02T06:55:44Z</time></trkpt><trkpt lat="42.38434907175166" lon="14.126919589636268"><ele>42.0</ele><time>2026-05-02T06:55:45Z</time></trkpt><trkpt lat="42.38420535144503" lon="14.126855030855477"><ele>42.0</ele><time>2026-05-02T06:55:46Z</time></trkpt><trkpt lat="42.384063004054134" lon="14.126787986530106"><ele>42.0</ele><time>2026-05-02T06:55:47Z</time></trkpt><trkpt lat="42.38392492813547" lon="14.126714709894193"><ele>42.0</ele><time>2026-05-02T06:55:48Z</time></trkpt><trkpt lat="42.38379437020325" lon="14.126637291985093"><ele>42.0</ele><time>2026-05-02T06:55:49Z</time></trkpt><trkpt lat="42.383672232240805" lon="14.126558719579737"><ele>44.75</ele><time>2026-05-02T06:55:50Z</time></trkpt><trkpt lat="42.383560852588715" lon="14.126485387274066"><ele>47.5</ele><time>2026-05-02T06:55:51Z</time></trkpt><trkpt lat="42.38346644394292" lon="14.126437144811314"><ele>50.25</ele><time>2026-05-02T06:55:52Z</time></trkpt><trkpt lat="42.38335920930533" lon="14.126407088404079"><ele>53.0</ele><time>2026-05-02T06:55:53Z</time></trkpt><trkpt lat="42.38324268588464" lon="14.126395198444557"><ele>53.0</ele><time>2026-05-02T06:55:54Z</time></trkpt><trkpt lat="42.3831189029243" lon="14.126394540832672"><ele>53.0</ele><time>2026-05-02T06:55:55Z</time></trkpt><trkpt lat="42.38298957832033" lon="14.12639433949762"><ele>53.0</ele><time>2026-05-02T06:55:56Z</time></trkpt><trkpt lat="42.382861254741854" lon="14.126378499781884"><ele>53.0</ele><time>2026-05-02T06:55:57Z</time></trkpt><trkpt lat="42.38273537500888" lon="14.12634707418373"><ele>53.0</ele><time>2026-05-02T06:55:58Z</time></trkpt><trkpt lat="42.382610535342415" lon="14.12629675246471"><ele>53.0</ele><time>2026-05-02T06:55:59Z</time></trkpt><trkpt lat="42.38248732923401" lon="14.126231279788527"><ele>53.0</ele><time>2026-05-02T06:56:00Z</time></trkpt><trkpt lat="42.38236571447632" lon="14.126142471916861"><ele>53.0</ele><time>2026-05-02T06:56:01Z</time></trkpt><trkpt lat="42.38224424564438" lon="14.126031744863356"><ele>53.0</ele><time>2026-05-02T06:56:02Z</time></trkpt><trkpt lat="42.38211512867494" lon="14.125906755219793"><ele>53.0</ele><time>2026-05-02T06:56:03Z</time></trkpt><trkpt lat="42.38197706002212" lon="14.125781061655987"><ele>53.0</ele><time>2026-05-02T06:56:04Z</time></trkpt><trkpt lat="42.38183323576618" lon="14.125658189295176"><ele>53.0</ele><time>2026-05-02T06:56:05Z</time></trkpt><trkpt lat="42.38169142601922" lon="14.125549298600845"><ele>53.0</ele><time>2026-05-02T06:56:06Z</time></trkpt><trkpt lat="42.38154087942991" lon="14.125440319275597"><ele>53.0</ele><time>2026-05-02T06:56:07Z</time></trkpt><trkpt lat="42.381385573241594" lon="14.12532971621626"><ele>51.333333333333336</ele><time>2026-05-02T06:56:08Z</time></trkpt><trkpt lat="42.38123036086805" lon="14.125220023080104"><ele>49.66666666666667</ele><time>2026-05-02T06:56:09Z</time></trkpt><trkpt lat="42.38107462381824" lon="14.125115315611215"><ele>48.0</ele><time>2026-05-02T06:56:10Z</time></trkpt><trkpt lat="42.380925647584036" lon="14.125011928410013"><ele>48.0</ele><time>2026-05-02T06:56:11Z</time></trkpt><trkpt lat="42.38078357981958" lon="14.124907398691414"><ele>48.0</ele><time>2026-05-02T06:56:12Z</time></trkpt><trkpt lat="42.38064510800498" lon="14.124802430722013"><ele>48.0</ele><time>2026-05-02T06:56:13Z</time></trkpt><trkpt lat="42.38050921654344" lon="14.124700623772437"><ele>49.0</ele><time>2026-05-02T06:56:14Z</time></trkpt><trkpt lat="42.38037564670671" lon="14.124601783106746"><ele>50.0</ele><time>2026-05-02T06:56:15Z</time></trkpt><trkpt lat="42.380247172324594" lon="14.124506708539132"><ele>51.0</ele><time>2026-05-02T06:56:16Z</time></trkpt><trkpt lat="42.3801285234401" lon="14.124418627509177"><ele>52.0</ele><time>2026-05-02T06:56:17Z</time></trkpt><trkpt lat="42.38003419074873" lon="14.124348092117671"><ele>52.0</ele><time>2026-05-02T06:56:18Z</time></trkpt><trkpt lat="42.379954464071766" lon="14.12428626005585"><ele>52.0</ele><time>2026-05-02T06:56:19Z</time></trkpt><trkpt lat="42.37989192175474" lon="14.124224971903445"><ele>52.0</ele><time>2026-05-02T06:56:20Z</time></trkpt><trkpt lat="42.37982554296343" lon="14.124104307155651"><ele>52.0</ele><time>2026-05-02T06:56:22Z</time></trkpt><trkpt lat="42.37981252842783" lon="14.123956740651053"><ele>52.0</ele><time>2026-05-02T06:56:24Z</time></trkpt><trkpt lat="42.37980563563024" lon="14.123871991504322"><ele>53.0</ele><time>2026-05-02T06:56:25Z</time></trkpt><trkpt lat="42.37977474934251" lon="14.12379664359257"><ele>54.0</ele><time>2026-05-02T06:56:26Z</time></trkpt><trkpt lat="42.37971637084144" lon="14.123750994103156"><ele>55.0</ele><time>2026-05-02T06:56:27Z</time></trkpt><trkpt lat="42.37964650767691" lon="14.123739149098613"><ele>56.0</ele><time>2026-05-02T06:56:28Z</time></trkpt><trkpt lat="42.37957716962575" lon="14.123752002213498"><ele>57.0</ele><time>2026-05-02T06:56:29Z</time></trkpt><trkpt lat="42.37951309772994" lon="14.123752523783661"><ele>58.0</ele><time>2026-05-02T06:56:30Z</time></trkpt><trkpt lat="42.379446680679976" lon="14.123727783547295"><ele>59.0</ele><time>2026-05-02T06:56:31Z</time></trkpt><trkpt lat="42.37937017370931" lon="14.123697874965732"><ele>59.0</ele><time>2026-05-02T06:56:32Z</time></trkpt><trkpt lat="42.37928452737275" lon="14.123675970275064"><ele>59.00000000000001</ele><time>2026-05-02T06:56:33Z</time></trkpt><trkpt lat="42.37919376194616" lon="14.123654358107684"><ele>59.00000000000001</ele><time>2026-05-02T06:56:34Z</time></trkpt><trkpt lat="42.37910329656661" lon="14.123635481508478"><ele>59.0</ele><time>2026-05-02T06:56:35Z</time></trkpt><trkpt lat="42.37901012825274" lon="14.123621386641672"><ele>59.0</ele><time>2026-05-02T06:56:36Z</time></trkpt><trkpt lat="42.378912855137706" lon="14.123604344215272"><ele>58.2</ele><time>2026-05-02T06:56:37Z</time></trkpt><trkpt lat="42.37881396926595" lon="14.123582878468492"><ele>57.400000000000006</ele><time>2026-05-02T06:56:38Z</time></trkpt><trkpt lat="42.37870967444576" lon="14.123562420102855"><ele>56.6</ele><time>2026-05-02T06:56:39Z</time></trkpt><trkpt lat="42.378599867260796" lon="14.123545469289125"><ele>55.8</ele><time>2026-05-02T06:56:40Z</time></trkpt><trkpt lat="42.378485672830664" lon="14.123529326143034"><ele>55.0</ele><time>2026-05-02T06:56:41Z</time></trkpt><trkpt lat="42.378367548507356" lon="14.123512364036912"><ele>55.0</ele><time>2026-05-02T06:56:42Z</time></trkpt><trkpt lat="42.378247816757856" lon="14.12349289495802"><ele>55.0</ele><time>2026-05-02T06:56:43Z</time></trkpt><trkpt lat="42.37812936439238" lon="14.123473837133993"><ele>55.0</ele><time>2026-05-02T06:56:44Z</time></trkpt><trkpt lat="42.37801249580502" lon="14.123455164023154"><ele>55.0</ele><time>2026-05-02T06:56:45Z</time></trkpt><trkpt lat="42.37790409962995" lon="14.123439575652437"><ele>53.2</ele><time>2026-05-02T06:56:46Z</time></trkpt><trkpt lat="42.37780288391901" lon="14.123422364545705"><ele>51.4</ele><time>2026-05-02T06:56:47Z</time></trkpt><trkpt lat="42.37770713792853" lon="14.123399143284967"><ele>49.599999999999994</ele><time>2026-05-02T06:56:48Z</time></trkpt><trkpt lat="42.377610964117224" lon="14.123385447468205"><ele>47.8</ele><time>2026-05-02T06:56:49Z</time></trkpt><trkpt lat="42.37751836223478" lon="14.123375196861707"><ele>46.0</ele><time>2026-05-02T06:56:50Z</time></trkpt><trkpt lat="42.377428440827934" lon="14.123366373104362"><ele>46.0</ele><time>2026-05-02T06:56:51Z</time></trkpt><trkpt lat="42.377336107635465" lon="14.123370954350685"><ele>46.0</ele><time>2026-05-02T06:56:52Z</time></trkpt><trkpt lat="42.37724500211436" lon="14.123416994094915"><ele>46.0</ele><time>2026-05-02T06:56:53Z</time></trkpt><trkpt lat="42.37715796858728" lon="14.123498318184065"><ele>46.0</ele><time>2026-05-02T06:56:54Z</time></trkpt><trkpt lat="42.37709150989645" lon="14.12360467066022"><ele>46.0</ele><time>2026-05-02T06:56:55Z</time></trkpt><trkpt lat="42.37703255380286" lon="14.123718631805607"><ele>45.66666666666667</ele><time>2026-05-02T06:56:56Z</time></trkpt><trkpt lat="42.37697690957433" lon="14.123824996530788"><ele>45.333333333333336</ele><time>2026-05-02T06:56:57Z</time></trkpt><trkpt lat="42.37692172329659" lon="14.12391973639544"><ele>45.0</ele><time>2026-05-02T06:56:58Z</time></trkpt><trkpt lat="42.376867236502676" lon="14.124000286425167"><ele>44.666666666666664</ele><time>2026-05-02T06:56:59Z</time></trkpt><trkpt lat="42.37681938168922" lon="14.12405895930433"><ele>44.33333333333333</ele><time>2026-05-02T06:57:00Z</time></trkpt><trkpt lat="42.3767297716807" lon="14.124141481188968"><ele>44.0</ele><time>2026-05-02T06:57:02Z</time></trkpt><trkpt lat="42.376631849951245" lon="14.1242239543422"><ele>42.800000000000004</ele><time>2026-05-02T06:57:04Z</time></trkpt><trkpt lat="42.37654574346849" lon="14.12419106055405"><ele>41.6</ele><time>2026-05-02T06:57:05Z</time></trkpt><trkpt lat="42.376471451292375" lon="14.124185734838116"><ele>40.4</ele><time>2026-05-02T06:57:06Z</time></trkpt><trkpt lat="42.37638363493978" lon="14.124177187009721"><ele>39.2</ele><time>2026-05-02T06:57:07Z</time></trkpt><trkpt lat="42.37628865103788" lon="14.124140634680405"><ele>38.0</ele><time>2026-05-02T06:57:08Z</time></trkpt><trkpt lat="42.37619084483042" lon="14.12407914549199"><ele>39.25</ele><time>2026-05-02T06:57:09Z</time></trkpt><trkpt lat="42.37607916388554" lon="14.1240322896876"><ele>40.5</ele><time>2026-05-02T06:57:10Z</time></trkpt><trkpt lat="42.37595134747801" lon="14.123995403266687"><ele>41.75</ele><time>2026-05-02T06:57:11Z</time></trkpt><trkpt lat="42.37581805343658" lon="14.123951524893686"><ele>43.0</ele><time>2026-05-02T06:57:12Z</time></trkpt><trkpt lat="42.3756882622834" lon="14.123895262244913"><ele>43.0</ele><time>2026-05-02T06:57:13Z</time></trkpt><trkpt lat="42.37557217974468" lon="14.123827331819973"><ele>43.0</ele><time>2026-05-02T06:57:14Z</time></trkpt><trkpt lat="42.37546991672407" lon="14.123752424778893"><ele>43.0</ele><time>2026-05-02T06:57:15Z</time></trkpt><trkpt lat="42.3753794122464" lon="14.123681445787149"><ele>43.0</ele><time>2026-05-02T06:57:16Z</time></trkpt><trkpt lat="42.3752945232852" lon="14.123617541830775"><ele>43.0</ele><time>2026-05-02T06:57:17Z</time></trkpt><trkpt lat="42.37521599276148" lon="14.123556584800717"><ele>42.199999999999996</ele><time>2026-05-02T06:57:18Z</time></trkpt><trkpt lat="42.3751405171736" lon="14.123498885435254"><ele>41.4</ele><time>2026-05-02T06:57:19Z</time></trkpt><trkpt lat="42.37505954640174" lon="14.123438285430138"><ele>40.599999999999994</ele><time>2026-05-02T06:57:20Z</time></trkpt><trkpt lat="42.37497533270921" lon="14.123374621858847"><ele>39.8</ele><time>2026-05-02T06:57:21Z</time></trkpt><trkpt lat="42.37489408599582" lon="14.123302463378021"><ele>39.0</ele><time>2026-05-02T06:57:22Z</time></trkpt><trkpt lat="42.37481281938782" lon="14.123228501068095"><ele>39.4</ele><time>2026-05-02T06:57:23Z</time></trkpt><trkpt lat="42.37473617453157" lon="14.123158846829064"><ele>39.8</ele><time>2026-05-02T06:57:24Z</time></trkpt><trkpt lat="42.37466409337786" lon="14.123095561231223"><ele>40.199999999999996</ele><time>2026-05-02T06:57:25Z</time></trkpt><trkpt lat="42.37459314471502" lon="14.123034980120757"><ele>40.599999999999994</ele><time>2026-05-02T06:57:26Z</time></trkpt><trkpt lat="42.374509926388704" lon="14.12297083074134"><ele>41.0</ele><time>2026-05-02T06:57:27Z</time></trkpt><trkpt lat="42.37442378712295" lon="14.122898188474332"><ele>41.0</ele><time>2026-05-02T06:57:28Z</time></trkpt><trkpt lat="42.37434326468387" lon="14.122822838852734"><ele>41.0</ele><time>2026-05-02T06:57:29Z</time></trkpt><trkpt lat="42.374271443809214" lon="14.122748286539533"><ele>41.0</ele><time>2026-05-02T06:57:30Z</time></trkpt><trkpt lat="42.37419812189734" lon="14.122647450343607"><ele>41.0</ele><time>2026-05-02T06:57:32Z</time></trkpt><trkpt lat="42.37416563788926" lon="14.122566186673934"><ele>41.0</ele><time>2026-05-02T06:57:34Z</time></trkpt><trkpt lat="42.373990204341304" lon="14.12254681492721"><ele>41.0</ele><time>2026-05-02T06:57:36Z</time></trkpt><trkpt lat="42.373891431944465" lon="14.122497031721856"><ele>41.0</ele><time>2026-05-02T06:57:37Z</time></trkpt><trkpt lat="42.37379086453402" lon="14.12242777350087"><ele>41.0</ele><time>2026-05-02T06:57:38Z</time></trkpt><trkpt lat="42.37369759307626" lon="14.122353926759363"><ele>41.0</ele><time>2026-05-02T06:57:39Z</time></trkpt><trkpt lat="42.373595324289" lon="14.122279046343941"><ele>41.0</ele><time>2026-05-02T06:57:40Z</time></trkpt><trkpt lat="42.37348681589357" lon="14.122194945035167"><ele>41.0</ele><time>2026-05-02T06:57:41Z</time></trkpt><trkpt lat="42.37337249738476" lon="14.122103079381729"><ele>41.0</ele><time>2026-05-02T06:57:42Z</time></trkpt><trkpt lat="42.3732576011306" lon="14.122014901126233"><ele>41.0</ele><time>2026-05-02T06:57:43Z</time></trkpt><trkpt lat="42.37314166462359" lon="14.121926549448116"><ele>41.0</ele><time>2026-05-02T06:57:44Z</time></trkpt><trkpt lat="42.373026688999566" lon="14.121836069540695"><ele>41.5</ele><time>2026-05-02T06:57:45Z</time></trkpt><trkpt lat="42.37291322221089" lon="14.12174643018354"><ele>42.0</ele><time>2026-05-02T06:57:46Z</time></trkpt><trkpt lat="42.37280164056977" lon="14.121655324724252"><ele>42.5</ele><time>2026-05-02T06:57:47Z</time></trkpt><trkpt lat="42.37269021391451" lon="14.121565352243072"><ele>43.0</ele><time>2026-05-02T06:57:48Z</time></trkpt><trkpt lat="42.37257632216863" lon="14.12147554052926"><ele>43.0</ele><time>2026-05-02T06:57:49Z</time></trkpt><trkpt lat="42.372463413670076" lon="14.12138507120332"><ele>43.0</ele><time>2026-05-02T06:57:50Z</time></trkpt><trkpt lat="42.372351268836105" lon="14.121295327443976"><ele>43.0</ele><time>2026-05-02T06:57:51Z</time></trkpt><trkpt lat="42.37223817559038" lon="14.121205080406408"><ele>43.0</ele><time>2026-05-02T06:57:52Z</time></trkpt><trkpt lat="42.37212124034975" lon="14.121120000472297"><ele>40.5</ele><time>2026-05-02T06:57:53Z</time></trkpt><trkpt lat="42.372000462744786" lon="14.121045779215882"><ele>38.0</ele><time>2026-05-02T06:57:54Z</time></trkpt><trkpt lat="42.37187102358631" lon="14.120975755547459"><ele>35.5</ele><time>2026-05-02T06:57:55Z</time></trkpt><trkpt lat="42.37173658301416" lon="14.120913094833485"><ele>33.0</ele><time>2026-05-02T06:57:56Z</time></trkpt><trkpt lat="42.371599034848565" lon="14.120852478261954"><ele>33.0</ele><time>2026-05-02T06:57:57Z</time></trkpt><trkpt lat="42.37146130790447" lon="14.120789727067516"><ele>33.0</ele><time>2026-05-02T06:57:58Z</time></trkpt><trkpt lat="42.37132185902487" lon="14.120728412071262"><ele>33.0</ele><time>2026-05-02T06:57:59Z</time></trkpt><trkpt lat="42.37118267846681" lon="14.120666600853461"><ele>33.0</ele><time>2026-05-02T06:58:00Z</time></trkpt><trkpt lat="42.37104208947029" lon="14.120610584831388"><ele>34.0</ele><time>2026-05-02T06:58:01Z</time></trkpt><trkpt lat="42.37090105262555" lon="14.120563539984694"><ele>35.0</ele><time>2026-05-02T06:58:02Z</time></trkpt><trkpt lat="42.37075090095545" lon="14.120528019223807"><ele>36.0</ele><time>2026-05-02T06:58:03Z</time></trkpt><trkpt lat="42.37060382398301" lon="14.12050138425704"><ele>37.0</ele><time>2026-05-02T06:58:04Z</time></trkpt><trkpt lat="42.37046171141137" lon="14.120481612242358"><ele>37.0</ele><time>2026-05-02T06:58:05Z</time></trkpt><trkpt lat="42.37031751661703" lon="14.12046112839777"><ele>37.0</ele><time>2026-05-02T06:58:06Z</time></trkpt><trkpt lat="42.370174896587635" lon="14.120439962499011"><ele>37.0</ele><time>2026-05-02T06:58:07Z</time></trkpt><trkpt lat="42.370032616717275" lon="14.120418603863122"><ele>37.0</ele><time>2026-05-02T06:58:08Z</time></trkpt><trkpt lat="42.36988994581399" lon="14.12039959210398"><ele>37.0</ele><time>2026-05-02T06:58:09Z</time></trkpt><trkpt lat="42.36974692147039" lon="14.120383296006665"><ele>37.0</ele><time>2026-05-02T06:58:10Z</time></trkpt><trkpt lat="42.369604954012324" lon="14.120366612183131"><ele>37.0</ele><time>2026-05-02T06:58:11Z</time></trkpt><trkpt lat="42.36946194009267" lon="14.120343273652413"><ele>37.0</ele><time>2026-05-02T06:58:12Z</time></trkpt><trkpt lat="42.369320968276355" lon="14.120327098327222"><ele>37.0</ele><time>2026-05-02T06:58:13Z</time></trkpt><trkpt lat="42.369183266412996" lon="14.120313840979732"><ele>37.0</ele><time>2026-05-02T06:58:14Z</time></trkpt><trkpt lat="42.369049765723254" lon="14.120298500874796"><ele>37.0</ele><time>2026-05-02T06:58:15Z</time></trkpt><trkpt lat="42.36892303688815" lon="14.120279572730501"><ele>37.0</ele><time>2026-05-02T06:58:16Z</time></trkpt><trkpt lat="42.36879304805983" lon="14.12026312345273"><ele>35.0</ele><time>2026-05-02T06:58:17Z</time></trkpt><trkpt lat="42.36865577896257" lon="14.12024372679647"><ele>33.0</ele><time>2026-05-02T06:58:18Z</time></trkpt><trkpt lat="42.36851570942768" lon="14.12021855702378"><ele>31.0</ele><time>2026-05-02T06:58:19Z</time></trkpt><trkpt lat="42.36837448801563" lon="14.120170686828931"><ele>29.0</ele><time>2026-05-02T06:58:20Z</time></trkpt><trkpt lat="42.3682355969347" lon="14.120100279681088"><ele>29.0</ele><time>2026-05-02T06:58:21Z</time></trkpt><trkpt lat="42.36809825800613" lon="14.120018000939478"><ele>29.0</ele><time>2026-05-02T06:58:22Z</time></trkpt><trkpt lat="42.367959916996774" lon="14.11992822888296"><ele>29.0</ele><time>2026-05-02T06:58:23Z</time></trkpt><trkpt lat="42.3678251510478" lon="14.119835946685114"><ele>28.75</ele><time>2026-05-02T06:58:24Z</time></trkpt><trkpt lat="42.36769516247131" lon="14.119746285508178"><ele>28.5</ele><time>2026-05-02T06:58:25Z</time></trkpt><trkpt lat="42.367568951417425" lon="14.119661787119949"><ele>28.25</ele><time>2026-05-02T06:58:26Z</time></trkpt><trkpt lat="42.36744554354546" lon="14.11957669306211"><ele>28.0</ele><time>2026-05-02T06:58:27Z</time></trkpt><trkpt lat="42.36731481431775" lon="14.119488174802287"><ele>27.666666666666668</ele><time>2026-05-02T06:58:28Z</time></trkpt><trkpt lat="42.36717519763406" lon="14.119387363368032"><ele>27.333333333333336</ele><time>2026-05-02T06:58:29Z</time></trkpt><trkpt lat="42.36702270780709" lon="14.119283474058504"><ele>27.0</ele><time>2026-05-02T06:58:30Z</time></trkpt><trkpt lat="42.36686418310188" lon="14.119172754121468"><ele>27.333333333333336</ele><time>2026-05-02T06:58:31Z</time></trkpt><trkpt lat="42.366702560310436" lon="14.119060653523485"><ele>27.666666666666668</ele><time>2026-05-02T06:58:32Z</time></trkpt><trkpt lat="42.36654255951002" lon="14.118947685805603"><ele>28.0</ele><time>2026-05-02T06:58:33Z</time></trkpt><trkpt lat="42.366385620582896" lon="14.118837787794478"><ele>28.0</ele><time>2026-05-02T06:58:34Z</time></trkpt><trkpt lat="42.36623608962203" lon="14.118733865220014"><ele>28.0</ele><time>2026-05-02T06:58:35Z</time></trkpt><trkpt lat="42.36608645826784" lon="14.118629308863616"><ele>28.0</ele><time>2026-05-02T06:58:36Z</time></trkpt><trkpt lat="42.36594004445878" lon="14.118523509188904"><ele>28.0</ele><time>2026-05-02T06:58:37Z</time></trkpt><trkpt lat="42.365793799998706" lon="14.118423215402236"><ele>28.0</ele><time>2026-05-02T06:58:38Z</time></trkpt><trkpt lat="42.365647895065116" lon="14.118326958656159"><ele>28.0</ele><time>2026-05-02T06:58:39Z</time></trkpt><trkpt lat="42.36550148236309" lon="14.118231417676084"><ele>29.333333333333336</ele><time>2026-05-02T06:58:40Z</time></trkpt><trkpt lat="42.365354988004775" lon="14.118134113745867"><ele>30.666666666666664</ele><time>2026-05-02T06:58:41Z</time></trkpt><trkpt lat="42.36521372121878" lon="14.118037516866625"><ele>32.0</ele><time>2026-05-02T06:58:42Z</time></trkpt><trkpt lat="42.36507260988038" lon="14.11794194161569"><ele>32.0</ele><time>2026-05-02T06:58:43Z</time></trkpt><trkpt lat="42.36493031778998" lon="14.11784642515351"><ele>32.0</ele><time>2026-05-02T06:58:44Z</time></trkpt><trkpt lat="42.36478940012459" lon="14.117754024563471"><ele>32.0</ele><time>2026-05-02T06:58:45Z</time></trkpt><trkpt lat="42.364647369678806" lon="14.117663634606862"><ele>32.33333333333333</ele><time>2026-05-02T06:58:46Z</time></trkpt><trkpt lat="42.36451263383014" lon="14.11755180381402"><ele>32.666666666666664</ele><time>2026-05-02T06:58:47Z</time></trkpt><trkpt lat="42.36436367580031" lon="14.117478590937028"><ele>33.0</ele><time>2026-05-02T06:58:48Z</time></trkpt><trkpt lat="42.36420032368004" lon="14.117462026947942"><ele>33.0</ele><time>2026-05-02T06:58:49Z</time></trkpt><trkpt lat="42.36404252904988" lon="14.117445748478346"><ele>33.0</ele><time>2026-05-02T06:58:50Z</time></trkpt><trkpt lat="42.36388212068876" lon="14.117444545249404"><ele>33.0</ele><time>2026-05-02T06:58:51Z</time></trkpt><trkpt lat="42.36371822995118" lon="14.117421241305236"><ele>32.333333333333336</ele><time>2026-05-02T06:58:52Z</time></trkpt><trkpt lat="42.36355190967179" lon="14.117441429434418"><ele>31.666666666666668</ele><time>2026-05-02T06:58:53Z</time></trkpt><trkpt lat="42.363380336197885" lon="14.117439508602748"><ele>31.0</ele><time>2026-05-02T06:58:54Z</time></trkpt><trkpt lat="42.36320846517639" lon="14.117434088601533"><ele>31.0</ele><time>2026-05-02T06:58:55Z</time></trkpt><trkpt lat="42.36303463337061" lon="14.117425383387722"><ele>31.0</ele><time>2026-05-02T06:58:56Z</time></trkpt><trkpt lat="42.362863351463936" lon="14.117408429794212"><ele>31.0</ele><time>2026-05-02T06:58:57Z</time></trkpt><trkpt lat="42.36269984248104" lon="14.11737480973981"><ele>35.66666666666667</ele><time>2026-05-02T06:58:58Z</time></trkpt><trkpt lat="42.36253928002193" lon="14.11731688488183"><ele>40.333333333333336</ele><time>2026-05-02T06:58:59Z</time></trkpt><trkpt lat="42.36238112496971" lon="14.117244734028953"><ele>45.0</ele><time>2026-05-02T06:59:00Z</time></trkpt><trkpt lat="42.36222230116022" lon="14.117174018113944"><ele>42.0</ele><time>2026-05-02T06:59:01Z</time></trkpt><trkpt lat="42.36206150515668" lon="14.117101080926325"><ele>39.0</ele><time>2026-05-02T06:59:02Z</time></trkpt><trkpt lat="42.361900954466094" lon="14.117027316609484"><ele>36.0</ele><time>2026-05-02T06:59:03Z</time></trkpt><trkpt lat="42.36173907218957" lon="14.11695498289765"><ele>36.0</ele><time>2026-05-02T06:59:04Z</time></trkpt><trkpt lat="42.361576534960186" lon="14.1168826347466"><ele>36.0</ele><time>2026-05-02T06:59:05Z</time></trkpt><trkpt lat="42.36141375451136" lon="14.116811132198151"><ele>36.0</ele><time>2026-05-02T06:59:06Z</time></trkpt><trkpt lat="42.36125242874443" lon="14.116741551599889"><ele>34.0</ele><time>2026-05-02T06:59:07Z</time></trkpt><trkpt lat="42.36109118117241" lon="14.11666893539287"><ele>32.0</ele><time>2026-05-02T06:59:08Z</time></trkpt><trkpt lat="42.36093034878351" lon="14.116593375620123"><ele>30.0</ele><time>2026-05-02T06:59:09Z</time></trkpt><trkpt lat="42.36077178983583" lon="14.116521577502438"><ele>32.333333333333336</ele><time>2026-05-02T06:59:10Z</time></trkpt><trkpt lat="42.360609591888014" lon="14.11645108895969"><ele>34.66666666666667</ele><time>2026-05-02T06:59:11Z</time></trkpt><trkpt lat="42.36044870295123" lon="14.116378241834022"><ele>37.0</ele><time>2026-05-02T06:59:12Z</time></trkpt><trkpt lat="42.36028855063008" lon="14.11630462647789"><ele>37.0</ele><time>2026-05-02T06:59:13Z</time></trkpt><trkpt lat="42.36013033754568" lon="14.11623208094844"><ele>37.0</ele><time>2026-05-02T06:59:14Z</time></trkpt><trkpt lat="42.35997310538084" lon="14.116162845021996"><ele>37.0</ele><time>2026-05-02T06:59:15Z</time></trkpt><trkpt lat="42.3598167695773" lon="14.116096464955863"><ele>36.66666666666667</ele><time>2026-05-02T06:59:16Z</time></trkpt><trkpt lat="42.35966265911854" lon="14.11602677215147"><ele>36.333333333333336</ele><time>2026-05-02T06:59:17Z</time></trkpt><trkpt lat="42.359510433460805" lon="14.115959708172568"><ele>36.0</ele><time>2026-05-02T06:59:18Z</time></trkpt><trkpt lat="42.35936091071246" lon="14.115889584494886"><ele>36.0</ele><time>2026-05-02T06:59:19Z</time></trkpt><trkpt lat="42.35921065449859" lon="14.1158284358141"><ele>36.0</ele><time>2026-05-02T06:59:20Z</time></trkpt><trkpt lat="42.35906275029426" lon="14.115772544673836"><ele>36.0</ele><time>2026-05-02T06:59:21Z</time></trkpt><trkpt lat="42.358916030453074" lon="14.115714256938226"><ele>37.666666666666664</ele><time>2026-05-02T06:59:22Z</time></trkpt><trkpt lat="42.358770094291394" lon="14.115655834331061"><ele>39.33333333333333</ele><time>2026-05-02T06:59:23Z</time></trkpt><trkpt lat="42.358625087506596" lon="14.115598643284262"><ele>41.0</ele><time>2026-05-02T06:59:24Z</time></trkpt><trkpt lat="42.35848061540702" lon="14.115539457414243"><ele>41.0</ele><time>2026-05-02T06:59:25Z</time></trkpt><trkpt lat="42.35833639235035" lon="14.115480301556842"><ele>41.0</ele><time>2026-05-02T06:59:26Z</time></trkpt><trkpt lat="42.358192056813046" lon="14.115422690118026"><ele>41.0</ele><time>2026-05-02T06:59:27Z</time></trkpt><trkpt lat="42.358046309160244" lon="14.115364326610885"><ele>41.0</ele><time>2026-05-02T06:59:28Z</time></trkpt><trkpt lat="42.35789710777984" lon="14.11530666392148"><ele>41.0</ele><time>2026-05-02T06:59:29Z</time></trkpt><trkpt lat="42.357746976350285" lon="14.115249976194233"><ele>41.0</ele><time>2026-05-02T06:59:30Z</time></trkpt><trkpt lat="42.35759765302054" lon="14.115194715722115"><ele>41.0</ele><time>2026-05-02T06:59:31Z</time></trkpt><trkpt lat="42.35744607319248" lon="14.115136542044949"><ele>41.0</ele><time>2026-05-02T06:59:32Z</time></trkpt><trkpt lat="42.35729370610085" lon="14.115075701231893"><ele>41.0</ele><time>2026-05-02T06:59:33Z</time></trkpt><trkpt lat="42.357141997888114" lon="14.115012411004695"><ele>40.33333333333333</ele><time>2026-05-02T06:59:34Z</time></trkpt><trkpt lat="42.35698533924461" lon="14.114950412977691"><ele>39.666666666666664</ele><time>2026-05-02T06:59:35Z</time></trkpt><trkpt lat="42.35682413378456" lon="14.114886072116073"><ele>39.0</ele><time>2026-05-02T06:59:36Z</time></trkpt><trkpt lat="42.35665976702856" lon="14.114819112743282"><ele>41.666666666666664</ele><time>2026-05-02T06:59:37Z</time></trkpt><trkpt lat="42.35649341598268" lon="14.11475051260399"><ele>44.33333333333333</ele><time>2026-05-02T06:59:38Z</time></trkpt><trkpt lat="42.35632344312847" lon="14.114682568128941"><ele>47.0</ele><time>2026-05-02T06:59:39Z</time></trkpt><trkpt lat="42.356154762450295" lon="14.114614026144299"><ele>47.0</ele><time>2026-05-02T06:59:40Z</time></trkpt><trkpt lat="42.35598542789946" lon="14.114546520930219"><ele>47.0</ele><time>2026-05-02T06:59:41Z</time></trkpt><trkpt lat="42.355816853469605" lon="14.114478408121704"><ele>47.0</ele><time>2026-05-02T06:59:42Z</time></trkpt><trkpt lat="42.35565161344462" lon="14.114413013003952"><ele>43.666666666666664</ele><time>2026-05-02T06:59:43Z</time></trkpt><trkpt lat="42.355489856589266" lon="14.11434953347014"><ele>40.333333333333336</ele><time>2026-05-02T06:59:44Z</time></trkpt><trkpt lat="42.35533089504328" lon="14.11428398244298"><ele>37.0</ele><time>2026-05-02T06:59:45Z</time></trkpt><trkpt lat="42.35516924800853" lon="14.114218669491166"><ele>37.0</ele><time>2026-05-02T06:59:46Z</time></trkpt><trkpt lat="42.355007210126715" lon="14.114152562060065"><ele>37.0</ele><time>2026-05-02T06:59:47Z</time></trkpt><trkpt lat="42.35484327226436" lon="14.114090217132947"><ele>37.0</ele><time>2026-05-02T06:59:48Z</time></trkpt><trkpt lat="42.354679294229264" lon="14.114023151291939"><ele>36.66666666666667</ele><time>2026-05-02T06:59:49Z</time></trkpt><trkpt lat="42.35451601801795" lon="14.113955237880036"><ele>36.333333333333336</ele><time>2026-05-02T06:59:50Z</time></trkpt><trkpt lat="42.35435222612995" lon="14.113890728912446"><ele>36.0</ele><time>2026-05-02T06:59:51Z</time></trkpt><trkpt lat="42.354187100274174" lon="14.113824984414551"><ele>36.0</ele><time>2026-05-02T06:59:52Z</time></trkpt><trkpt lat="42.354021287394104" lon="14.113758894804057"><ele>36.0</ele><time>2026-05-02T06:59:53Z</time></trkpt><trkpt lat="42.353858566656406" lon="14.113695528105428"><ele>36.0</ele><time>2026-05-02T06:59:54Z</time></trkpt><trkpt lat="42.35370148480645" lon="14.113633939714662"><ele>35.666666666666664</ele><time>2026-05-02T06:59:55Z</time></trkpt><trkpt lat="42.35354523773484" lon="14.113573026361385"><ele>35.33333333333333</ele><time>2026-05-02T06:59:56Z</time></trkpt><trkpt lat="42.35338892577871" lon="14.113511426538588"><ele>35.0</ele><time>2026-05-02T06:59:57Z</time></trkpt><trkpt lat="42.353235240941224" lon="14.113448975554395"><ele>35.0</ele><time>2026-05-02T06:59:58Z</time></trkpt><trkpt lat="42.35308195629797" lon="14.113386564654403"><ele>35.0</ele><time>2026-05-02T06:59:59Z</time></trkpt><trkpt lat="42.35293082288573" lon="14.113325793020646"><ele>35.0</ele><time>2026-05-02T07:00:00Z</time></trkpt><trkpt lat="42.3527796988028" lon="14.113264394550178"><ele>35.0</ele><time>2026-05-02T07:00:01Z</time></trkpt><trkpt lat="42.35263074571406" lon="14.113203594411464"><ele>35.0</ele><time>2026-05-02T07:00:02Z</time></trkpt><trkpt lat="42.35248125084878" lon="14.113141964883376"><ele>35.0</ele><time>2026-05-02T07:00:03Z</time></trkpt><trkpt lat="42.35233439340983" lon="14.113083756838373"><ele>36.25</ele><time>2026-05-02T07:00:04Z</time></trkpt><trkpt lat="42.35218692941028" lon="14.11302660738386"><ele>37.5</ele><time>2026-05-02T07:00:05Z</time></trkpt><trkpt lat="42.35204343705821" lon="14.112972032614572"><ele>38.75</ele><time>2026-05-02T07:00:06Z</time></trkpt><trkpt lat="42.35190524564224" lon="14.112917024457369"><ele>40.0</ele><time>2026-05-02T07:00:07Z</time></trkpt><trkpt lat="42.35177928547876" lon="14.112843120191275"><ele>40.0</ele><time>2026-05-02T07:00:08Z</time></trkpt><trkpt lat="42.35164757707368" lon="14.112810156461576"><ele>40.0</ele><time>2026-05-02T07:00:09Z</time></trkpt><trkpt lat="42.351522864535255" lon="14.112751068864094"><ele>40.0</ele><time>2026-05-02T07:00:10Z</time></trkpt><trkpt lat="42.35139504528845" lon="14.112696791297868"><ele>40.0</ele><time>2026-05-02T07:00:11Z</time></trkpt><trkpt lat="42.351264942657416" lon="14.112642457190299"><ele>41.0</ele><time>2026-05-02T07:00:12Z</time></trkpt><trkpt lat="42.35113335797538" lon="14.1125917982382"><ele>42.0</ele><time>2026-05-02T07:00:13Z</time></trkpt><trkpt lat="42.351000507730056" lon="14.112548755351439"><ele>43.0</ele><time>2026-05-02T07:00:14Z</time></trkpt><trkpt lat="42.35086735524191" lon="14.1125168665032"><ele>44.0</ele><time>2026-05-02T07:00:15Z</time></trkpt><trkpt lat="42.35073696334633" lon="14.112492243227491"><ele>44.0</ele><time>2026-05-02T07:00:16Z</time></trkpt><trkpt lat="42.350620613493" lon="14.112476889311012"><ele>44.0</ele><time>2026-05-02T07:00:17Z</time></trkpt><trkpt lat="42.3505191121508" lon="14.11246346447027"><ele>44.0</ele><time>2026-05-02T07:00:18Z</time></trkpt><trkpt lat="42.35042768209175" lon="14.112448260172341"><ele>44.0</ele><time>2026-05-02T07:00:19Z</time></trkpt><trkpt lat="42.350342366849574" lon="14.11243248233695"><ele>44.0</ele><time>2026-05-02T07:00:20Z</time></trkpt><trkpt lat="42.35027040201139" lon="14.11241558965537"><ele>44.0</ele><time>2026-05-02T07:00:21Z</time></trkpt><trkpt lat="42.35018179067069" lon="14.11239295194513"><ele>44.0</ele><time>2026-05-02T07:00:23Z</time></trkpt><trkpt lat="42.350115260717075" lon="14.112373743566895"><ele>44.0</ele><time>2026-05-02T07:00:25Z</time></trkpt><trkpt lat="42.349999795293634" lon="14.112344300023992"><ele>44.0</ele><time>2026-05-02T07:00:27Z</time></trkpt><trkpt lat="42.349898103437255" lon="14.11238884238632"><ele>44.0</ele><time>2026-05-02T07:00:29Z</time></trkpt><trkpt lat="42.34984060054382" lon="14.11254637854818"><ele>44.0</ele><time>2026-05-02T07:00:31Z</time></trkpt><trkpt lat="42.34975970954717" lon="14.112640084697116"><ele>44.0</ele><time>2026-05-02T07:00:33Z</time></trkpt><trkpt lat="42.34962490881142" lon="14.112703668250845"><ele>44.0</ele><time>2026-05-02T07:00:36Z</time></trkpt><trkpt lat="42.34956581460753" lon="14.112775110947899"><ele>44.0</ele><time>2026-05-02T07:00:38Z</time></trkpt><trkpt lat="42.349492642584686" lon="14.112741604819568"><ele>44.0</ele><time>2026-05-02T07:00:40Z</time></trkpt><trkpt lat="42.349443752513864" lon="14.112615389770452"><ele>43.83333333333333</ele><time>2026-05-02T07:00:42Z</time></trkpt><trkpt lat="42.34942595895642" lon="14.112532353937217"><ele>43.666666666666664</ele><time>2026-05-02T07:00:43Z</time></trkpt><trkpt lat="42.34936661184259" lon="14.112398214231446"><ele>43.5</ele><time>2026-05-02T07:00:45Z</time></trkpt><trkpt lat="42.34931172246289" lon="14.112347049974009"><ele>43.333333333333336</ele><time>2026-05-02T07:00:46Z</time></trkpt><trkpt lat="42.349252075531915" lon="14.112305557763367"><ele>43.16666666666667</ele><time>2026-05-02T07:00:47Z</time></trkpt><trkpt lat="42.349191103322454" lon="14.11226681729757"><ele>43.0</ele><time>2026-05-02T07:00:48Z</time></trkpt><trkpt lat="42.34907517326449" lon="14.112221655757736"><ele>43.0</ele><time>2026-05-02T07:00:50Z</time></trkpt><trkpt lat="42.34900529234695" lon="14.112167284534344"><ele>43.0</ele><time>2026-05-02T07:00:52Z</time></trkpt><trkpt lat="42.34898920053419" lon="14.111940779989046"><ele>43.0</ele><time>2026-05-02T07:00:55Z</time></trkpt><trkpt lat="42.34898296552262" lon="14.111849023781659"><ele>43.0</ele><time>2026-05-02T07:00:56Z</time></trkpt><trkpt lat="42.348967933421655" lon="14.111691490637355"><ele>43.0</ele><time>2026-05-02T07:00:58Z</time></trkpt><trkpt lat="42.348954366203316" lon="14.111561635111071"><ele>43.0</ele><time>2026-05-02T07:01:00Z</time></trkpt><trkpt lat="42.348936865423745" lon="14.111397512087906"><ele>43.0</ele><time>2026-05-02T07:01:02Z</time></trkpt><trkpt lat="42.348925819741" lon="14.111310399329781"><ele>43.0</ele><time>2026-05-02T07:01:03Z</time></trkpt><trkpt lat="42.34891586407964" lon="14.111222820839515"><ele>43.0</ele><time>2026-05-02T07:01:04Z</time></trkpt><trkpt lat="42.348905717777626" lon="14.111138456087543"><ele>43.0</ele><time>2026-05-02T07:01:05Z</time></trkpt><trkpt lat="42.34889020808509" lon="14.110992498023563"><ele>43.0</ele><time>2026-05-02T07:01:07Z</time></trkpt><trkpt lat="42.34888078174132" lon="14.110864806013957"><ele>43.333333333333336</ele><time>2026-05-02T07:01:09Z</time></trkpt><trkpt lat="42.34890546505749" lon="14.110715911320892"><ele>43.66666666666667</ele><time>2026-05-02T07:01:11Z</time></trkpt><trkpt lat="42.34890426528885" lon="14.110581066769864"><ele>44.0</ele><time>2026-05-02T07:01:13Z</time></trkpt><trkpt lat="42.34888155962176" lon="14.11048940221883"><ele>44.333333333333336</ele><time>2026-05-02T07:01:15Z</time></trkpt><trkpt lat="42.348857643531375" lon="14.110365542807124"><ele>44.666666666666664</ele><time>2026-05-02T07:01:17Z</time></trkpt><trkpt lat="42.34884611042478" lon="14.110278546676918"><ele>45.0</ele><time>2026-05-02T07:01:18Z</time></trkpt><trkpt lat="42.34883093374859" lon="14.110126809973933"><ele>45.333333333333336</ele><time>2026-05-02T07:01:20Z</time></trkpt><trkpt lat="42.348788820811386" lon="14.1100390161515"><ele>45.666666666666664</ele><time>2026-05-02T07:01:22Z</time></trkpt><trkpt lat="42.3487056060657" lon="14.109972647887465"><ele>46.0</ele><time>2026-05-02T07:01:24Z</time></trkpt><trkpt lat="42.34862766173305" lon="14.109882289409523"><ele>46.33333333333333</ele><time>2026-05-02T07:01:26Z</time></trkpt><trkpt lat="42.34855948341372" lon="14.10983744578968"><ele>46.666666666666664</ele><time>2026-05-02T07:01:28Z</time></trkpt><trkpt lat="42.34849810108794" lon="14.109788919085794"><ele>47.0</ele><time>2026-05-02T07:01:30Z</time></trkpt><trkpt lat="42.34844924809652" lon="14.109729849253851"><ele>47.0</ele><time>2026-05-02T07:01:33Z</time></trkpt><trkpt lat="42.34837746375223" lon="14.109657428380174"><ele>47.0</ele><time>2026-05-02T07:01:37Z</time></trkpt><trkpt lat="42.348298009005575" lon="14.1095961576585"><ele>47.0</ele><time>2026-05-02T07:01:39Z</time></trkpt><trkpt lat="42.34821735375328" lon="14.109500482973624"><ele>47.0</ele><time>2026-05-02T07:01:41Z</time></trkpt><trkpt lat="42.34817654594888" lon="14.109421745701715"><ele>47.0</ele><time>2026-05-02T07:01:42Z</time></trkpt><trkpt lat="42.34813293236495" lon="14.109350587817868"><ele>47.0</ele><time>2026-05-02T07:01:43Z</time></trkpt><trkpt lat="42.348065672959606" lon="14.109214934871241"><ele>46.666666666666664</ele><time>2026-05-02T07:01:45Z</time></trkpt><trkpt lat="42.34798873270152" lon="14.109116663595104"><ele>46.33333333333333</ele><time>2026-05-02T07:01:47Z</time></trkpt><trkpt lat="42.34792861908936" lon="14.1090269460805"><ele>46.0</ele><time>2026-05-02T07:01:49Z</time></trkpt><trkpt lat="42.347890830341626" lon="14.108908473885782"><ele>45.666666666666664</ele><time>2026-05-02T07:01:51Z</time></trkpt><trkpt lat="42.34786681784661" lon="14.108827777526002"><ele>45.333333333333336</ele><time>2026-05-02T07:01:52Z</time></trkpt><trkpt lat="42.347834505234644" lon="14.108738088881443"><ele>45.0</ele><time>2026-05-02T07:01:53Z</time></trkpt><trkpt lat="42.34779243728002" lon="14.108646682795085"><ele>44.857142857142854</ele><time>2026-05-02T07:01:54Z</time></trkpt><trkpt lat="42.34775286294405" lon="14.108566963005694"><ele>44.714285714285715</ele><time>2026-05-02T07:01:55Z</time></trkpt><trkpt lat="42.3477103499871" lon="14.10849219051594"><ele>44.57142857142857</ele><time>2026-05-02T07:01:56Z</time></trkpt><trkpt lat="42.34766757854195" lon="14.108415222738474"><ele>44.42857142857143</ele><time>2026-05-02T07:01:57Z</time></trkpt><trkpt lat="42.34762678943187" lon="14.108325768144923"><ele>44.285714285714285</ele><time>2026-05-02T07:01:58Z</time></trkpt><trkpt lat="42.34758643689001" lon="14.108246785475984"><ele>44.142857142857146</ele><time>2026-05-02T07:01:59Z</time></trkpt><trkpt lat="42.3475480925606" lon="14.108177583236946"><ele>44.0</ele><time>2026-05-02T07:02:00Z</time></trkpt><trkpt lat="42.347479921478985" lon="14.108043334133095"><ele>44.400000000000006</ele><time>2026-05-02T07:02:02Z</time></trkpt><trkpt lat="42.347427743528655" lon="14.107907237853322"><ele>44.8</ele><time>2026-05-02T07:02:04Z</time></trkpt><trkpt lat="42.34741432522983" lon="14.107804294566336"><ele>45.2</ele><time>2026-05-02T07:02:05Z</time></trkpt><trkpt lat="42.34739538257308" lon="14.107691635168063"><ele>45.599999999999994</ele><time>2026-05-02T07:02:06Z</time></trkpt><trkpt lat="42.347363887958196" lon="14.107591691435454"><ele>46.0</ele><time>2026-05-02T07:02:07Z</time></trkpt><trkpt lat="42.3473075887716" lon="14.107459369728241"><ele>46.0</ele><time>2026-05-02T07:02:09Z</time></trkpt><trkpt lat="42.34726553393722" lon="14.107286433981685"><ele>46.0</ele><time>2026-05-02T07:02:11Z</time></trkpt><trkpt lat="42.347234762507426" lon="14.107191588249508"><ele>46.0</ele><time>2026-05-02T07:02:12Z</time></trkpt><trkpt lat="42.347202784837016" lon="14.107110602003042"><ele>46.0</ele><time>2026-05-02T07:02:13Z</time></trkpt><trkpt lat="42.347161233853434" lon="14.106974571756835"><ele>46.0</ele><time>2026-05-02T07:02:15Z</time></trkpt><trkpt lat="42.347181990447154" lon="14.106814119619342"><ele>46.0</ele><time>2026-05-02T07:02:17Z</time></trkpt><trkpt lat="42.34722823422934" lon="14.10666622707234"><ele>46.0</ele><time>2026-05-02T07:02:19Z</time></trkpt><trkpt lat="42.347266312749916" lon="14.106575445353437"><ele>46.0</ele><time>2026-05-02T07:02:20Z</time></trkpt><trkpt lat="42.34730141713511" lon="14.106488960849346"><ele>46.0</ele><time>2026-05-02T07:02:21Z</time></trkpt><trkpt lat="42.3473160547275" lon="14.106405407170632"><ele>46.0</ele><time>2026-05-02T07:02:22Z</time></trkpt><trkpt lat="42.3473317140618" lon="14.106321084942039"><ele>46.0</ele><time>2026-05-02T07:02:23Z</time></trkpt><trkpt lat="42.347382325659275" lon="14.10617393801086"><ele>46.0</ele><time>2026-05-02T07:02:25Z</time></trkpt><trkpt lat="42.347413435752614" lon="14.106093960970131"><ele>46.0</ele><time>2026-05-02T07:02:26Z</time></trkpt><trkpt lat="42.34742785216264" lon="14.105995084720709"><ele>46.0</ele><time>2026-05-02T07:02:27Z</time></trkpt><trkpt lat="42.3474393840586" lon="14.105906352372354"><ele>46.0</ele><time>2026-05-02T07:02:28Z</time></trkpt><trkpt lat="42.347507667513355" lon="14.105768542713196"><ele>46.0</ele><time>2026-05-02T07:02:30Z</time></trkpt><trkpt lat="42.34756440666151" lon="14.105708646699162"><ele>46.0</ele><time>2026-05-02T07:02:31Z</time></trkpt><trkpt lat="42.347619719162566" lon="14.105633153181763"><ele>45.833333333333336</ele><time>2026-05-02T07:02:32Z</time></trkpt><trkpt lat="42.34765562708129" lon="14.105542737242432"><ele>45.66666666666667</ele><time>2026-05-02T07:02:33Z</time></trkpt><trkpt lat="42.34770205466183" lon="14.105441932181764"><ele>45.5</ele><time>2026-05-02T07:02:34Z</time></trkpt><trkpt lat="42.347744582414606" lon="14.10536802848211"><ele>45.333333333333336</ele><time>2026-05-02T07:02:35Z</time></trkpt><trkpt lat="42.34781159008136" lon="14.105270274891193"><ele>45.166666666666664</ele><time>2026-05-02T07:02:37Z</time></trkpt><trkpt lat="42.34787117375061" lon="14.105144289648793"><ele>45.0</ele><time>2026-05-02T07:02:39Z</time></trkpt><trkpt lat="42.34791679791727" lon="14.10507342921842"><ele>45.0</ele><time>2026-05-02T07:02:40Z</time></trkpt><trkpt lat="42.3479590337546" lon="14.10499392686798"><ele>45.0</ele><time>2026-05-02T07:02:41Z</time></trkpt><trkpt lat="42.34799552110473" lon="14.104916855897349"><ele>45.0</ele><time>2026-05-02T07:02:42Z</time></trkpt><trkpt lat="42.34803859515189" lon="14.10485465421954"><ele>45.0</ele><time>2026-05-02T07:02:43Z</time></trkpt><trkpt lat="42.34809156692346" lon="14.104792360811915"><ele>45.0</ele><time>2026-05-02T07:02:44Z</time></trkpt><trkpt lat="42.34814569768243" lon="14.104731244400435"><ele>45.0</ele><time>2026-05-02T07:02:45Z</time></trkpt><trkpt lat="42.348189562024295" lon="14.104656750749129"><ele>45.0</ele><time>2026-05-02T07:02:46Z</time></trkpt><trkpt lat="42.34823037907686" lon="14.10456807156987"><ele>45.4</ele><time>2026-05-02T07:02:47Z</time></trkpt><trkpt lat="42.34826084196784" lon="14.104486472510489"><ele>45.8</ele><time>2026-05-02T07:02:48Z</time></trkpt><trkpt lat="42.34829886420489" lon="14.104343376671654"><ele>46.2</ele><time>2026-05-02T07:02:50Z</time></trkpt><trkpt lat="42.34832230159159" lon="14.104260487646055"><ele>46.6</ele><time>2026-05-02T07:02:51Z</time></trkpt><trkpt lat="42.34835271736485" lon="14.104112296949465"><ele>47.0</ele><time>2026-05-02T07:02:53Z</time></trkpt><trkpt lat="42.34840802617451" lon="14.103955799510372"><ele>47.0</ele><time>2026-05-02T07:02:55Z</time></trkpt><trkpt lat="42.348434541680895" lon="14.103866779751637"><ele>47.0</ele><time>2026-05-02T07:02:56Z</time></trkpt><trkpt lat="42.34844989840349" lon="14.10376013203207"><ele>47.0</ele><time>2026-05-02T07:02:57Z</time></trkpt><trkpt lat="42.34846268103687" lon="14.103649865449778"><ele>47.0</ele><time>2026-05-02T07:02:58Z</time></trkpt><trkpt lat="42.34847565126013" lon="14.103545809091449"><ele>47.0</ele><time>2026-05-02T07:02:59Z</time></trkpt><trkpt lat="42.34848839128792" lon="14.103439107645103"><ele>47.0</ele><time>2026-05-02T07:03:00Z</time></trkpt><trkpt lat="42.34849255776923" lon="14.103313481451135"><ele>47.2</ele><time>2026-05-02T07:03:01Z</time></trkpt><trkpt lat="42.34850281977487" lon="14.103175719407867"><ele>47.400000000000006</ele><time>2026-05-02T07:03:02Z</time></trkpt><trkpt lat="42.34851132703245" lon="14.103037688109081"><ele>47.599999999999994</ele><time>2026-05-02T07:03:03Z</time></trkpt><trkpt lat="42.34851863578227" lon="14.102901417682485"><ele>47.8</ele><time>2026-05-02T07:03:04Z</time></trkpt><trkpt lat="42.348528075518665" lon="14.102762684754321"><ele>48.0</ele><time>2026-05-02T07:03:05Z</time></trkpt><trkpt lat="42.34854215108538" lon="14.102627245312382"><ele>48.0</ele><time>2026-05-02T07:03:06Z</time></trkpt><trkpt lat="42.34855874527327" lon="14.10250118825046"><ele>48.0</ele><time>2026-05-02T07:03:07Z</time></trkpt><trkpt lat="42.348586464876234" lon="14.102365521497463"><ele>48.0</ele><time>2026-05-02T07:03:08Z</time></trkpt><trkpt lat="42.34861399650384" lon="14.10222828030579"><ele>48.0</ele><time>2026-05-02T07:03:09Z</time></trkpt><trkpt lat="42.34863837146043" lon="14.102094179990441"><ele>48.0</ele><time>2026-05-02T07:03:10Z</time></trkpt><trkpt lat="42.348663947682006" lon="14.10196012563017"><ele>48.0</ele><time>2026-05-02T07:03:11Z</time></trkpt><trkpt lat="42.3486899070635" lon="14.101825449537431"><ele>48.0</ele><time>2026-05-02T07:03:12Z</time></trkpt><trkpt lat="42.348719442920505" lon="14.101693034764534"><ele>48.0</ele><time>2026-05-02T07:03:13Z</time></trkpt><trkpt lat="42.348749086809214" lon="14.10155997423753"><ele>48.0</ele><time>2026-05-02T07:03:14Z</time></trkpt><trkpt lat="42.348780365464826" lon="14.101439884604996"><ele>48.0</ele><time>2026-05-02T07:03:15Z</time></trkpt><trkpt lat="42.34881052551318" lon="14.101323724307003"><ele>48.333333333333336</ele><time>2026-05-02T07:03:16Z</time></trkpt><trkpt lat="42.348837149064465" lon="14.10124510107375"><ele>48.66666666666667</ele><time>2026-05-02T07:03:17Z</time></trkpt><trkpt lat="42.348876826532795" lon="14.10111378811016"><ele>49.0</ele><time>2026-05-02T07:03:19Z</time></trkpt><trkpt lat="42.34896560914446" lon="14.101049920569622"><ele>49.333333333333336</ele><time>2026-05-02T07:03:21Z</time></trkpt><trkpt lat="42.34903529268189" lon="14.101011785955377"><ele>49.66666666666667</ele><time>2026-05-02T07:03:22Z</time></trkpt><trkpt lat="42.34909041897824" lon="14.100948324665257"><ele>50.0</ele><time>2026-05-02T07:03:23Z</time></trkpt><trkpt lat="42.349118520239436" lon="14.10086356107267"><ele>50.333333333333336</ele><time>2026-05-02T07:03:24Z</time></trkpt><trkpt lat="42.34913244028798" lon="14.100778299169148"><ele>50.66666666666667</ele><time>2026-05-02T07:03:25Z</time></trkpt><trkpt lat="42.349184571461855" lon="14.100658724062395"><ele>51.0</ele><time>2026-05-02T07:03:27Z</time></trkpt><trkpt lat="42.34924724003834" lon="14.100600516273502"><ele>51.33333333333333</ele><time>2026-05-02T07:03:29Z</time></trkpt><trkpt lat="42.3493043917556" lon="14.100519937922284"><ele>51.666666666666664</ele><time>2026-05-02T07:03:31Z</time></trkpt><trkpt lat="42.3493432085594" lon="14.100449550000244"><ele>52.0</ele><time>2026-05-02T07:03:32Z</time></trkpt><trkpt lat="42.349387503293414" lon="14.100362971983348"><ele>52.0</ele><time>2026-05-02T07:03:33Z</time></trkpt><trkpt lat="42.34941937288685" lon="14.10027227552097"><ele>52.0</ele><time>2026-05-02T07:03:34Z</time></trkpt><trkpt lat="42.34946704266878" lon="14.100116189844899"><ele>52.0</ele><time>2026-05-02T07:03:36Z</time></trkpt><trkpt lat="42.34950869549026" lon="14.099971740611718"><ele>52.0</ele><time>2026-05-02T07:03:38Z</time></trkpt><trkpt lat="42.34951804613384" lon="14.099879650556135"><ele>52.0</ele><time>2026-05-02T07:03:40Z</time></trkpt><trkpt lat="42.349523737970486" lon="14.099771516166236"><ele>51.2</ele><time>2026-05-02T07:03:42Z</time></trkpt><trkpt lat="42.349530111250274" lon="14.099649884130425"><ele>50.400000000000006</ele><time>2026-05-02T07:03:44Z</time></trkpt><trkpt lat="42.34950440642378" lon="14.099492819814113"><ele>49.599999999999994</ele><time>2026-05-02T07:03:46Z</time></trkpt><trkpt lat="42.34944480333836" lon="14.09936894999187"><ele>48.8</ele><time>2026-05-02T07:03:48Z</time></trkpt><trkpt lat="42.34942024526949" lon="14.099279516620314"><ele>48.0</ele><time>2026-05-02T07:03:49Z</time></trkpt><trkpt lat="42.349417367582255" lon="14.099134650478142"><ele>48.4</ele><time>2026-05-02T07:03:51Z</time></trkpt><trkpt lat="42.34940863549855" lon="14.09903766085912"><ele>48.8</ele><time>2026-05-02T07:03:53Z</time></trkpt><trkpt lat="42.34944210839698" lon="14.098922014447847"><ele>49.2</ele><time>2026-05-02T07:03:55Z</time></trkpt><trkpt lat="42.349493819236606" lon="14.098744543559418"><ele>49.6</ele><time>2026-05-02T07:03:57Z</time></trkpt><trkpt lat="42.34951974530344" lon="14.098632451782581"><ele>50.0</ele><time>2026-05-02T07:03:58Z</time></trkpt><trkpt lat="42.349559044418356" lon="14.098495715550078"><ele>50.00000000000001</ele><time>2026-05-02T07:03:59Z</time></trkpt><trkpt lat="42.34959169125314" lon="14.098362041508617"><ele>50.0</ele><time>2026-05-02T07:04:00Z</time></trkpt><trkpt lat="42.34961565307763" lon="14.098237969977953"><ele>50.0</ele><time>2026-05-02T07:04:01Z</time></trkpt><trkpt lat="42.34963031706909" lon="14.098135477849521"><ele>50.0</ele><time>2026-05-02T07:04:02Z</time></trkpt><trkpt lat="42.34963570109077" lon="14.098043010039845"><ele>50.00000000000001</ele><time>2026-05-02T07:04:03Z</time></trkpt><trkpt lat="42.34965471403284" lon="14.097953711992343"><ele>50.0</ele><time>2026-05-02T07:04:04Z</time></trkpt><trkpt lat="42.349688123191626" lon="14.09785161004656"><ele>50.2</ele><time>2026-05-02T07:04:05Z</time></trkpt><trkpt lat="42.34972675428735" lon="14.097742209807038"><ele>50.4</ele><time>2026-05-02T07:04:06Z</time></trkpt><trkpt lat="42.34976027928088" lon="14.097614806083577"><ele>50.599999999999994</ele><time>2026-05-02T07:04:07Z</time></trkpt><trkpt lat="42.349796020942144" lon="14.097485327786357"><ele>50.8</ele><time>2026-05-02T07:04:08Z</time></trkpt><trkpt lat="42.34982361338467" lon="14.09736863497917"><ele>51.0</ele><time>2026-05-02T07:04:09Z</time></trkpt><trkpt lat="42.349850446714285" lon="14.097242502144448"><ele>51.0</ele><time>2026-05-02T07:04:10Z</time></trkpt><trkpt lat="42.349874949696876" lon="14.09710746273488"><ele>51.0</ele><time>2026-05-02T07:04:11Z</time></trkpt><trkpt lat="42.349897901345514" lon="14.096966968632733"><ele>51.0</ele><time>2026-05-02T07:04:12Z</time></trkpt><trkpt lat="42.34991435852098" lon="14.096829967768697"><ele>51.0</ele><time>2026-05-02T07:04:13Z</time></trkpt><trkpt lat="42.34992136967885" lon="14.096691664101346"><ele>51.0</ele><time>2026-05-02T07:04:14Z</time></trkpt><trkpt lat="42.349931105184275" lon="14.09656282617761"><ele>51.199999999999996</ele><time>2026-05-02T07:04:15Z</time></trkpt><trkpt lat="42.34994245575002" lon="14.096428453876026"><ele>51.4</ele><time>2026-05-02T07:04:16Z</time></trkpt><trkpt lat="42.34994867033124" lon="14.09630096158364"><ele>51.6</ele><time>2026-05-02T07:04:17Z</time></trkpt><trkpt lat="42.34995624598101" lon="14.096172427284722"><ele>51.8</ele><time>2026-05-02T07:04:18Z</time></trkpt><trkpt lat="42.34996441281723" lon="14.096052289983916"><ele>52.0</ele><time>2026-05-02T07:04:19Z</time></trkpt><trkpt lat="42.3499547773939" lon="14.095911907899792"><ele>51.99999999999999</ele><time>2026-05-02T07:04:20Z</time></trkpt><trkpt lat="42.34997598592971" lon="14.095803920830674"><ele>52.0</ele><time>2026-05-02T07:04:21Z</time></trkpt><trkpt lat="42.3499837672442" lon="14.095686771071575"><ele>52.0</ele><time>2026-05-02T07:04:22Z</time></trkpt><trkpt lat="42.349992187824796" lon="14.095564458048242"><ele>52.0</ele><time>2026-05-02T07:04:23Z</time></trkpt><trkpt lat="42.34999589865692" lon="14.09546066987948"><ele>51.99999999999999</ele><time>2026-05-02T07:04:24Z</time></trkpt><trkpt lat="42.35000224652875" lon="14.095362162182386"><ele>52.0</ele><time>2026-05-02T07:04:25Z</time></trkpt><trkpt lat="42.35001367423564" lon="14.095273260317617"><ele>51.99999999999999</ele><time>2026-05-02T07:04:26Z</time></trkpt><trkpt lat="42.350023933532704" lon="14.09518057818253"><ele>52.0</ele><time>2026-05-02T07:04:27Z</time></trkpt><trkpt lat="42.35002130103121" lon="14.095069758782742"><ele>52.0</ele><time>2026-05-02T07:04:28Z</time></trkpt><trkpt lat="42.350011888261434" lon="14.094941539602988"><ele>52.0</ele><time>2026-05-02T07:04:29Z</time></trkpt><trkpt lat="42.34999438646519" lon="14.094817324426026"><ele>51.99999999999999</ele><time>2026-05-02T07:04:30Z</time></trkpt><trkpt lat="42.349980483799754" lon="14.0946950794993"><ele>52.0</ele><time>2026-05-02T07:04:31Z</time></trkpt><trkpt lat="42.34995881599926" lon="14.094584656254415"><ele>51.99999999999999</ele><time>2026-05-02T07:04:32Z</time></trkpt><trkpt lat="42.349933875737364" lon="14.094460818452736"><ele>52.0</ele><time>2026-05-02T07:04:33Z</time></trkpt><trkpt lat="42.3499195245282" lon="14.094348050310849"><ele>52.0</ele><time>2026-05-02T07:04:34Z</time></trkpt><trkpt lat="42.349891160145084" lon="14.094238368471398"><ele>52.0</ele><time>2026-05-02T07:04:35Z</time></trkpt><trkpt lat="42.349860263932335" lon="14.094122124459838"><ele>51.99999999999999</ele><time>2026-05-02T07:04:36Z</time></trkpt><trkpt lat="42.34983960473892" lon="14.094001452965985"><ele>52.0</ele><time>2026-05-02T07:04:37Z</time></trkpt><trkpt lat="42.34981314148115" lon="14.093886670728558"><ele>51.83333333333333</ele><time>2026-05-02T07:04:38Z</time></trkpt><trkpt lat="42.34979630506846" lon="14.093772521123874"><ele>51.666666666666664</ele><time>2026-05-02T07:04:39Z</time></trkpt><trkpt lat="42.349775004741325" lon="14.093676939344824"><ele>51.5</ele><time>2026-05-02T07:04:40Z</time></trkpt><trkpt lat="42.34974673503713" lon="14.093589280925187"><ele>51.33333333333333</ele><time>2026-05-02T07:04:41Z</time></trkpt><trkpt lat="42.349712996437354" lon="14.093517211183563"><ele>51.166666666666664</ele><time>2026-05-02T07:04:42Z</time></trkpt><trkpt lat="42.34967010064526" lon="14.093388943037137"><ele>51.0</ele><time>2026-05-02T07:04:44Z</time></trkpt><trkpt lat="42.349647174171665" lon="14.093285833445076"><ele>51.714285714285715</ele><time>2026-05-02T07:04:46Z</time></trkpt><trkpt lat="42.34964348859668" lon="14.093146840200644"><ele>52.42857142857143</ele><time>2026-05-02T07:04:48Z</time></trkpt><trkpt lat="42.34964651223032" lon="14.093057379189045"><ele>53.14285714285714</ele><time>2026-05-02T07:04:49Z</time></trkpt><trkpt lat="42.34964018128924" lon="14.092970171924897"><ele>53.85714285714286</ele><time>2026-05-02T07:04:50Z</time></trkpt><trkpt lat="42.3496136288591" lon="14.09287774991371"><ele>54.57142857142857</ele><time>2026-05-02T07:04:51Z</time></trkpt><trkpt lat="42.349583115691296" lon="14.09279416131222"><ele>55.285714285714285</ele><time>2026-05-02T07:04:52Z</time></trkpt><trkpt lat="42.349536993846954" lon="14.092724035352955"><ele>56.0</ele><time>2026-05-02T07:04:53Z</time></trkpt><trkpt lat="42.349494812100446" lon="14.092648694220966"><ele>56.0</ele><time>2026-05-02T07:04:54Z</time></trkpt><trkpt lat="42.34944435986819" lon="14.092592674896903"><ele>56.0</ele><time>2026-05-02T07:04:55Z</time></trkpt><trkpt lat="42.349394646083745" lon="14.0925328671722"><ele>56.0</ele><time>2026-05-02T07:04:56Z</time></trkpt><trkpt lat="42.34935527991658" lon="14.092459333674746"><ele>56.0</ele><time>2026-05-02T07:04:57Z</time></trkpt><trkpt lat="42.34932701712567" lon="14.092368010470985"><ele>56.0</ele><time>2026-05-02T07:04:58Z</time></trkpt><trkpt lat="42.34930801544622" lon="14.092274264206864"><ele>56.0</ele><time>2026-05-02T07:04:59Z</time></trkpt><trkpt lat="42.34929154291287" lon="14.09216992751336"><ele>56.0</ele><time>2026-05-02T07:05:00Z</time></trkpt><trkpt lat="42.34926802186496" lon="14.092061853429817"><ele>56.16666666666667</ele><time>2026-05-02T07:05:01Z</time></trkpt><trkpt lat="42.34923574505362" lon="14.091943515818615"><ele>56.333333333333336</ele><time>2026-05-02T07:05:02Z</time></trkpt><trkpt lat="42.34920664286048" lon="14.091824257584477"><ele>56.5</ele><time>2026-05-02T07:05:03Z</time></trkpt><trkpt lat="42.34918415359422" lon="14.091720071193024"><ele>56.66666666666667</ele><time>2026-05-02T07:05:04Z</time></trkpt><trkpt lat="42.34916502047089" lon="14.09161820064005"><ele>56.833333333333336</ele><time>2026-05-02T07:05:05Z</time></trkpt><trkpt lat="42.34915992226571" lon="14.09149298905742"><ele>57.0</ele><time>2026-05-02T07:05:06Z</time></trkpt><trkpt lat="42.34914679862921" lon="14.091383155320308"><ele>57.0</ele><time>2026-05-02T07:05:07Z</time></trkpt><trkpt lat="42.34913598960839" lon="14.091259266218648"><ele>57.0</ele><time>2026-05-02T07:05:08Z</time></trkpt><trkpt lat="42.34911853918087" lon="14.09115439265451"><ele>57.0</ele><time>2026-05-02T07:05:09Z</time></trkpt><trkpt lat="42.34910830852064" lon="14.091052946003348"><ele>57.0</ele><time>2026-05-02T07:05:10Z</time></trkpt><trkpt lat="42.34910995407665" lon="14.090949157423312"><ele>57.0</ele><time>2026-05-02T07:05:11Z</time></trkpt><trkpt lat="42.34909967386392" lon="14.090845634553073"><ele>57.0</ele><time>2026-05-02T07:05:12Z</time></trkpt><trkpt lat="42.34907275884542" lon="14.090733181294535"><ele>56.8</ele><time>2026-05-02T07:05:13Z</time></trkpt><trkpt lat="42.34903922823982" lon="14.090610688109305"><ele>56.6</ele><time>2026-05-02T07:05:14Z</time></trkpt><trkpt lat="42.34901177920914" lon="14.090473331737936"><ele>56.39999999999999</ele><time>2026-05-02T07:05:15Z</time></trkpt><trkpt lat="42.34898323749507" lon="14.090338211858894"><ele>56.199999999999996</ele><time>2026-05-02T07:05:16Z</time></trkpt><trkpt lat="42.34896111458839" lon="14.09022840266025"><ele>56.0</ele><time>2026-05-02T07:05:17Z</time></trkpt><trkpt lat="42.34896062324005" lon="14.090127397494637"><ele>56.00000000000001</ele><time>2026-05-02T07:05:18Z</time></trkpt><trkpt lat="42.34893466264335" lon="14.090026891700695"><ele>56.0</ele><time>2026-05-02T07:05:19Z</time></trkpt><trkpt lat="42.34892284356843" lon="14.089919994942456"><ele>56.0</ele><time>2026-05-02T07:05:20Z</time></trkpt><trkpt lat="42.34890549944486" lon="14.089801215325167"><ele>56.0</ele><time>2026-05-02T07:05:21Z</time></trkpt><trkpt lat="42.34888770880434" lon="14.089688813999587"><ele>56.00000000000001</ele><time>2026-05-02T07:05:22Z</time></trkpt><trkpt lat="42.34888299725482" lon="14.089580194908796"><ele>56.0</ele><time>2026-05-02T07:05:23Z</time></trkpt><trkpt lat="42.348876973640344" lon="14.089489291214052"><ele>57.8</ele><time>2026-05-02T07:05:24Z</time></trkpt><trkpt lat="42.348834655433016" lon="14.089326446017273"><ele>59.599999999999994</ele><time>2026-05-02T07:05:26Z</time></trkpt><trkpt lat="42.3488212186431" lon="14.089226540300249"><ele>61.4</ele><time>2026-05-02T07:05:27Z</time></trkpt><trkpt lat="42.34880487477889" lon="14.089112095135174"><ele>63.2</ele><time>2026-05-02T07:05:28Z</time></trkpt><trkpt lat="42.348785755848006" lon="14.08899409559776"><ele>65.0</ele><time>2026-05-02T07:05:29Z</time></trkpt><trkpt lat="42.34877299859729" lon="14.088876924679465"><ele>65.0</ele><time>2026-05-02T07:05:30Z</time></trkpt><trkpt lat="42.348768437969774" lon="14.088755794253037"><ele>65.0</ele><time>2026-05-02T07:05:31Z</time></trkpt><trkpt lat="42.34877350754682" lon="14.088634595613902"><ele>65.0</ele><time>2026-05-02T07:05:32Z</time></trkpt><trkpt lat="42.3487798129179" lon="14.088517358294999"><ele>65.0</ele><time>2026-05-02T07:05:33Z</time></trkpt><trkpt lat="42.34877598293725" lon="14.08841350497409"><ele>65.0</ele><time>2026-05-02T07:05:34Z</time></trkpt><trkpt lat="42.34876620706623" lon="14.088302753661361"><ele>65.0</ele><time>2026-05-02T07:05:35Z</time></trkpt><trkpt lat="42.348757862523975" lon="14.088199114566818"><ele>64.57142857142858</ele><time>2026-05-02T07:05:36Z</time></trkpt><trkpt lat="42.34875080543289" lon="14.088105714705254"><ele>64.14285714285714</ele><time>2026-05-02T07:05:37Z</time></trkpt><trkpt lat="42.34874549206567" lon="14.088014262805329"><ele>63.71428571428572</ele><time>2026-05-02T07:05:38Z</time></trkpt><trkpt lat="42.348723412392985" lon="14.087926671664203"><ele>63.28571428571429</ele><time>2026-05-02T07:05:39Z</time></trkpt><trkpt lat="42.348693833364585" lon="14.087843992619922"><ele>62.85714285714286</ele><time>2026-05-02T07:05:40Z</time></trkpt><trkpt lat="42.3486804490387" lon="14.08775687869533"><ele>62.42857142857143</ele><time>2026-05-02T07:05:41Z</time></trkpt><trkpt lat="42.34867436751305" lon="14.08766842103845"><ele>62.0</ele><time>2026-05-02T07:05:42Z</time></trkpt><trkpt lat="42.348671736004455" lon="14.087568207988392"><ele>62.00000000000001</ele><time>2026-05-02T07:05:43Z</time></trkpt><trkpt lat="42.3486489899254" lon="14.087453579755358"><ele>62.0</ele><time>2026-05-02T07:05:44Z</time></trkpt><trkpt lat="42.34864818375528" lon="14.087347286987514"><ele>62.0</ele><time>2026-05-02T07:05:45Z</time></trkpt><trkpt lat="42.34863342170251" lon="14.087252289814945"><ele>62.0</ele><time>2026-05-02T07:05:46Z</time></trkpt><trkpt lat="42.3485695571209" lon="14.08710205043286"><ele>62.00000000000001</ele><time>2026-05-02T07:05:48Z</time></trkpt><trkpt lat="42.348508374020106" lon="14.08703986264379"><ele>62.0</ele><time>2026-05-02T07:05:49Z</time></trkpt><trkpt lat="42.34845211511606" lon="14.086990856265182"><ele>62.16666666666667</ele><time>2026-05-02T07:05:50Z</time></trkpt><trkpt lat="42.34838484640825" lon="14.086899149488822"><ele>62.333333333333336</ele><time>2026-05-02T07:05:52Z</time></trkpt><trkpt lat="42.34832034835629" lon="14.08684661289037"><ele>62.5</ele><time>2026-05-02T07:05:55Z</time></trkpt><trkpt lat="42.348268403600294" lon="14.086758928768752"><ele>62.66666666666667</ele><time>2026-05-02T07:05:58Z</time></trkpt><trkpt lat="42.348215249482394" lon="14.086660372674618"><ele>62.833333333333336</ele><time>2026-05-02T07:06:01Z</time></trkpt><trkpt lat="42.34814568448168" lon="14.086573361560973"><ele>63.0</ele><time>2026-05-02T07:06:03Z</time></trkpt><trkpt lat="42.34810838976777" lon="14.086435303151731"><ele>63.0</ele><time>2026-05-02T07:06:05Z</time></trkpt><trkpt lat="42.348079896012095" lon="14.086300928857213"><ele>63.0</ele><time>2026-05-02T07:06:07Z</time></trkpt><trkpt lat="42.34807313278803" lon="14.086135144809232"><ele>63.0</ele><time>2026-05-02T07:06:09Z</time></trkpt><trkpt lat="42.34806102209491" lon="14.08598474466677"><ele>63.0</ele><time>2026-05-02T07:06:11Z</time></trkpt><trkpt lat="42.34803584278727" lon="14.085885919970666"><ele>63.0</ele><time>2026-05-02T07:06:13Z</time></trkpt><trkpt lat="42.34802253690054" lon="14.085794945344508"><ele>64.0</ele><time>2026-05-02T07:06:15Z</time></trkpt><trkpt lat="42.34800479351043" lon="14.085713115759418"><ele>65.0</ele><time>2026-05-02T07:06:17Z</time></trkpt><trkpt lat="42.347984388724335" lon="14.085569242091204"><ele>66.0</ele><time>2026-05-02T07:06:19Z</time></trkpt><trkpt lat="42.34797908139326" lon="14.085476309286053"><ele>67.0</ele><time>2026-05-02T07:06:20Z</time></trkpt><trkpt lat="42.347967749144686" lon="14.085372321979115"><ele>68.0</ele><time>2026-05-02T07:06:21Z</time></trkpt><trkpt lat="42.34794360077803" lon="14.085290586072423"><ele>69.0</ele><time>2026-05-02T07:06:22Z</time></trkpt><trkpt lat="42.347863954542795" lon="14.085168710258227"><ele>69.0</ele><time>2026-05-02T07:06:24Z</time></trkpt><trkpt lat="42.34782091192721" lon="14.085093393523751"><ele>69.0</ele><time>2026-05-02T07:06:25Z</time></trkpt><trkpt lat="42.34779665714286" lon="14.08500045040313"><ele>69.0</ele><time>2026-05-02T07:06:26Z</time></trkpt><trkpt lat="42.34778578819414" lon="14.084899751180366"><ele>69.0</ele><time>2026-05-02T07:06:27Z</time></trkpt><trkpt lat="42.34778528429376" lon="14.084788914615713"><ele>69.0</ele><time>2026-05-02T07:06:28Z</time></trkpt><trkpt lat="42.34778597708679" lon="14.084685145448645"><ele>69.0</ele><time>2026-05-02T07:06:29Z</time></trkpt><trkpt lat="42.347770430159336" lon="14.084601274901814"><ele>69.0</ele><time>2026-05-02T07:06:30Z</time></trkpt><trkpt lat="42.34773542635996" lon="14.084514224961424"><ele>68.85714285714286</ele><time>2026-05-02T07:06:31Z</time></trkpt><trkpt lat="42.34769384544568" lon="14.084420588050618"><ele>68.71428571428572</ele><time>2026-05-02T07:06:32Z</time></trkpt><trkpt lat="42.34766460932025" lon="14.084312459384284"><ele>68.57142857142857</ele><time>2026-05-02T07:06:33Z</time></trkpt><trkpt lat="42.347638624795394" lon="14.084216447707004"><ele>68.42857142857143</ele><time>2026-05-02T07:06:34Z</time></trkpt><trkpt lat="42.34761824773278" lon="14.08412929435622"><ele>68.28571428571428</ele><time>2026-05-02T07:06:35Z</time></trkpt><trkpt lat="42.34760370150302" lon="14.084036160008203"><ele>68.14285714285714</ele><time>2026-05-02T07:06:36Z</time></trkpt><trkpt lat="42.34759947441423" lon="14.083942251075161"><ele>68.0</ele><time>2026-05-02T07:06:37Z</time></trkpt><trkpt lat="42.34759091865675" lon="14.08384909550015"><ele>68.0</ele><time>2026-05-02T07:06:38Z</time></trkpt><trkpt lat="42.3475815047309" lon="14.083760950234618"><ele>68.0</ele><time>2026-05-02T07:06:39Z</time></trkpt><trkpt lat="42.34758084408402" lon="14.083628840889729"><ele>68.0</ele><time>2026-05-02T07:06:41Z</time></trkpt><trkpt lat="42.34756252871059" lon="14.08347640936362"><ele>68.0</ele><time>2026-05-02T07:06:43Z</time></trkpt><trkpt lat="42.34756863649457" lon="14.083369922031888"><ele>68.0</ele><time>2026-05-02T07:06:44Z</time></trkpt><trkpt lat="42.3475837091252" lon="14.083251063193472"><ele>68.0</ele><time>2026-05-02T07:06:45Z</time></trkpt><trkpt lat="42.34760943723879" lon="14.083140559760336"><ele>68.0</ele><time>2026-05-02T07:06:46Z</time></trkpt><trkpt lat="42.347644916945704" lon="14.083047424375962"><ele>68.0</ele><time>2026-05-02T07:06:47Z</time></trkpt><trkpt lat="42.347684320300324" lon="14.082978402556623"><ele>68.0</ele><time>2026-05-02T07:06:48Z</time></trkpt><trkpt lat="42.347773061685494" lon="14.082884064143082"><ele>68.0</ele><time>2026-05-02T07:06:50Z</time></trkpt><trkpt lat="42.34783911245425" lon="14.082834430439252"><ele>68.0</ele><time>2026-05-02T07:06:51Z</time></trkpt><trkpt lat="42.34790705046492" lon="14.08276518895337"><ele>68.0</ele><time>2026-05-02T07:06:52Z</time></trkpt><trkpt lat="42.347964206956064" lon="14.082668672357476"><ele>68.0</ele><time>2026-05-02T07:06:53Z</time></trkpt><trkpt lat="42.34801237673936" lon="14.082555245115945"><ele>68.0</ele><time>2026-05-02T07:06:54Z</time></trkpt><trkpt lat="42.34806039597906" lon="14.0824363093305"><ele>68.0</ele><time>2026-05-02T07:06:55Z</time></trkpt><trkpt lat="42.34811734988104" lon="14.08234431431606"><ele>68.0</ele><time>2026-05-02T07:06:56.001Z</time></trkpt><trkpt lat="42.34816474085042" lon="14.082246408561426"><ele>68.0</ele><time>2026-05-02T07:06:57.001Z</time></trkpt><trkpt lat="42.34820157402905" lon="14.082168367498307"><ele>68.0</ele><time>2026-05-02T07:06:58.001Z</time></trkpt><trkpt lat="42.348269710657995" lon="14.082034725459811"><ele>67.25</ele><time>2026-05-02T07:07:00.001Z</time></trkpt><trkpt lat="42.3483130946643" lon="14.081966547284239"><ele>66.5</ele><time>2026-05-02T07:07:01.001Z</time></trkpt><trkpt lat="42.3483554794723" lon="14.081897669809077"><ele>65.75</ele><time>2026-05-02T07:07:02.001Z</time></trkpt><trkpt lat="42.348568833177474" lon="14.081813874365729"><ele>65.0</ele><time>2026-05-02T07:07:03.001Z</time></trkpt><trkpt lat="42.34858823446311" lon="14.08167145450885"><ele>65.0</ele><time>2026-05-02T07:07:05.001Z</time></trkpt><trkpt lat="42.348356512194194" lon="14.081486071194925"><ele>65.0</ele><time>2026-05-02T07:07:20.001Z</time></trkpt><trkpt lat="42.348350121588744" lon="14.081604328051807"><ele>65.0</ele><time>2026-05-02T07:08:06Z</time></trkpt><trkpt lat="42.34832909178623" lon="14.081716158102232"><ele>65.0</ele><time>2026-05-02T07:08:10Z</time></trkpt><trkpt lat="42.34831337235445" lon="14.08182577276415"><ele>65.0</ele><time>2026-05-02T07:08:12Z</time></trkpt><trkpt lat="42.34830782919222" lon="14.081927176447817"><ele>65.0</ele><time>2026-05-02T07:08:16Z</time></trkpt><trkpt lat="42.3483767691485" lon="14.081950187541981"><ele>65.0</ele><time>2026-05-02T07:08:19Z</time></trkpt><trkpt lat="42.348442044196155" lon="14.08200010798446"><ele>65.0</ele><time>2026-05-02T07:08:21Z</time></trkpt><trkpt lat="42.348519340184616" lon="14.081987394427921"><ele>65.0</ele><time>2026-05-02T07:08:24Z</time></trkpt><trkpt lat="42.34854684382787" lon="14.081899203419056"><ele>65.0</ele><time>2026-05-02T07:08:26Z</time></trkpt><trkpt lat="42.34858987622496" lon="14.08177270035786"><ele>65.0</ele><time>2026-05-02T07:08:28Z</time></trkpt><trkpt lat="42.34859014431787" lon="14.081658079907903"><ele>65.0</ele><time>2026-05-02T07:08:30Z</time></trkpt><trkpt lat="42.348641817139644" lon="14.081549958776492"><ele>65.0</ele><time>2026-05-02T07:08:32Z</time></trkpt><trkpt lat="42.34870058481524" lon="14.081500261032401"><ele>65.0</ele><time>2026-05-02T07:08:33Z</time></trkpt><trkpt lat="42.34877040420309" lon="14.081450662463409"><ele>65.0</ele><time>2026-05-02T07:08:34Z</time></trkpt><trkpt lat="42.34883743608376" lon="14.081401844355973"><ele>65.0</ele><time>2026-05-02T07:08:35Z</time></trkpt><trkpt lat="42.34890649150777" lon="14.081346733321729"><ele>65.33333333333334</ele><time>2026-05-02T07:08:36Z</time></trkpt><trkpt lat="42.34897706717599" lon="14.08129636759225"><ele>65.66666666666667</ele><time>2026-05-02T07:08:37Z</time></trkpt><trkpt lat="42.3490416627923" lon="14.08125593622658"><ele>66.0</ele><time>2026-05-02T07:08:38Z</time></trkpt><trkpt lat="42.3491595736188" lon="14.081224935953895"><ele>66.33333333333333</ele><time>2026-05-02T07:08:40Z</time></trkpt><trkpt lat="42.349224387180946" lon="14.081238047965853"><ele>66.66666666666666</ele><time>2026-05-02T07:08:41Z</time></trkpt><trkpt lat="42.34928651808269" lon="14.081261168633683"><ele>67.0</ele><time>2026-05-02T07:08:42Z</time></trkpt><trkpt lat="42.349410020489564" lon="14.081297600253952"><ele>67.0</ele><time>2026-05-02T07:08:44Z</time></trkpt><trkpt lat="42.34951776802051" lon="14.081315557406725"><ele>67.0</ele><time>2026-05-02T07:08:46Z</time></trkpt><trkpt lat="42.34958784618028" lon="14.081274946915089"><ele>67.0</ele><time>2026-05-02T07:08:48Z</time></trkpt><trkpt lat="42.34965367492352" lon="14.081190811673139"><ele>67.0</ele><time>2026-05-02T07:08:50Z</time></trkpt><trkpt lat="42.349676558482756" lon="14.081077733760207"><ele>67.0</ele><time>2026-05-02T07:08:52Z</time></trkpt><trkpt lat="42.34965831804644" lon="14.080964930857407"><ele>67.0</ele><time>2026-05-02T07:08:54Z</time></trkpt><trkpt lat="42.34960694935922" lon="14.08085267525301"><ele>66.83333333333333</ele><time>2026-05-02T07:08:56Z</time></trkpt><trkpt lat="42.34955879169213" lon="14.080753855745732"><ele>66.66666666666666</ele><time>2026-05-02T07:08:58Z</time></trkpt><trkpt lat="42.34952993603449" lon="14.080664206092326"><ele>66.5</ele><time>2026-05-02T07:09:00Z</time></trkpt><trkpt lat="42.34955620053672" lon="14.080566582693763"><ele>66.33333333333333</ele><time>2026-05-02T07:09:02.001Z</time></trkpt><trkpt lat="42.34961135543294" lon="14.080507446854229"><ele>66.16666666666667</ele><time>2026-05-02T07:09:03.001Z</time></trkpt><trkpt lat="42.3496874123085" lon="14.080430678716821"><ele>66.0</ele><time>2026-05-02T07:09:04.001Z</time></trkpt><trkpt lat="42.34976244971954" lon="14.08033611535292"><ele>66.0</ele><time>2026-05-02T07:09:05.001Z</time></trkpt><trkpt lat="42.34983543897353" lon="14.080258948823554"><ele>66.0</ele><time>2026-05-02T07:09:06.001Z</time></trkpt><trkpt lat="42.34990397948594" lon="14.08018897604039"><ele>66.0</ele><time>2026-05-02T07:09:07.001Z</time></trkpt><trkpt lat="42.34997914880106" lon="14.080124731622705"><ele>66.0</ele><time>2026-05-02T07:09:08.001Z</time></trkpt><trkpt lat="42.35005685619793" lon="14.080068444626853"><ele>66.0</ele><time>2026-05-02T07:09:09.001Z</time></trkpt><trkpt lat="42.3501338433333" lon="14.080002887595523"><ele>66.0</ele><time>2026-05-02T07:09:10.001Z</time></trkpt><trkpt lat="42.35019023173378" lon="14.07993108857381"><ele>66.0</ele><time>2026-05-02T07:09:11.001Z</time></trkpt><trkpt lat="42.350236943128984" lon="14.079841263730243"><ele>66.0</ele><time>2026-05-02T07:09:12.001Z</time></trkpt><trkpt lat="42.35028090583066" lon="14.079741666462386"><ele>66.0</ele><time>2026-05-02T07:09:13.001Z</time></trkpt><trkpt lat="42.35031791838991" lon="14.079632249168492"><ele>66.0</ele><time>2026-05-02T07:09:14.001Z</time></trkpt><trkpt lat="42.35034894378104" lon="14.07951113773372"><ele>66.0</ele><time>2026-05-02T07:09:15.001Z</time></trkpt><trkpt lat="42.35037407184633" lon="14.07935728395354"><ele>66.0</ele><time>2026-05-02T07:09:16.001Z</time></trkpt><trkpt lat="42.35039078055415" lon="14.079205511044707"><ele>66.0</ele><time>2026-05-02T07:09:17.001Z</time></trkpt><trkpt lat="42.3504120318082" lon="14.07908011301606"><ele>66.0</ele><time>2026-05-02T07:09:18Z</time></trkpt><trkpt lat="42.35044000748577" lon="14.078972078662746"><ele>66.0</ele><time>2026-05-02T07:09:19Z</time></trkpt><trkpt lat="42.35047785786073" lon="14.078843296786676"><ele>66.0</ele><time>2026-05-02T07:09:20Z</time></trkpt><trkpt lat="42.3505197327254" lon="14.07872962088895"><ele>66.16666666666667</ele><time>2026-05-02T07:09:21Z</time></trkpt><trkpt lat="42.35055828246035" lon="14.078637566175331"><ele>66.33333333333333</ele><time>2026-05-02T07:09:22Z</time></trkpt><trkpt lat="42.35056795198352" lon="14.078480122179105"><ele>66.5</ele><time>2026-05-02T07:09:24Z</time></trkpt><trkpt lat="42.35055961046807" lon="14.078382454558513"><ele>66.66666666666666</ele><time>2026-05-02T07:09:25Z</time></trkpt><trkpt lat="42.35054657804585" lon="14.07827577642375"><ele>66.83333333333333</ele><time>2026-05-02T07:09:26Z</time></trkpt><trkpt lat="42.35052594020003" lon="14.078168030612296"><ele>67.0</ele><time>2026-05-02T07:09:27Z</time></trkpt><trkpt lat="42.350498003402436" lon="14.078064736685352"><ele>67.0</ele><time>2026-05-02T07:09:28Z</time></trkpt><trkpt lat="42.35047597123292" lon="14.077964648901807"><ele>67.0</ele><time>2026-05-02T07:09:29Z</time></trkpt><trkpt lat="42.35048125347293" lon="14.077830017739021"><ele>67.0</ele><time>2026-05-02T07:09:31Z</time></trkpt><trkpt lat="42.35045638368361" lon="14.077682659789506"><ele>67.0</ele><time>2026-05-02T07:09:33Z</time></trkpt><trkpt lat="42.350441758290174" lon="14.07752859097181"><ele>67.0</ele><time>2026-05-02T07:09:34.999Z</time></trkpt><trkpt lat="42.35044146715975" lon="14.077434754813133"><ele>67.2</ele><time>2026-05-02T07:09:35.999Z</time></trkpt><trkpt lat="42.350441924046784" lon="14.077308214808598"><ele>67.4</ele><time>2026-05-02T07:09:36.999Z</time></trkpt><trkpt lat="42.35044863997719" lon="14.077157926340428"><ele>67.6</ele><time>2026-05-02T07:09:37.999Z</time></trkpt><trkpt lat="42.350453574529986" lon="14.077011800830924"><ele>67.8</ele><time>2026-05-02T07:09:38.999Z</time></trkpt><trkpt lat="42.350442431106025" lon="14.07688027238857"><ele>68.0</ele><time>2026-05-02T07:09:39.999Z</time></trkpt><trkpt lat="42.350432259225215" lon="14.076772107909662"><ele>68.0</ele><time>2026-05-02T07:09:40.999Z</time></trkpt><trkpt lat="42.35042969000558" lon="14.076669125112648"><ele>68.0</ele><time>2026-05-02T07:09:41.999Z</time></trkpt><trkpt lat="42.35044472087936" lon="14.076567699396328"><ele>68.0</ele><time>2026-05-02T07:09:42.999Z</time></trkpt><trkpt lat="42.35047554341982" lon="14.076457409996403"><ele>68.0</ele><time>2026-05-02T07:09:43.999Z</time></trkpt><trkpt lat="42.3504984302802" lon="14.076350512717768"><ele>68.0</ele><time>2026-05-02T07:09:44.999Z</time></trkpt><trkpt lat="42.350498319274294" lon="14.076254617564453"><ele>68.0</ele><time>2026-05-02T07:09:45.999Z</time></trkpt><trkpt lat="42.35048256211271" lon="14.07616722071333"><ele>68.33333333333334</ele><time>2026-05-02T07:09:46.999Z</time></trkpt><trkpt lat="42.35044010634625" lon="14.076001289369522"><ele>68.66666666666667</ele><time>2026-05-02T07:09:48.999Z</time></trkpt><trkpt lat="42.35041991466664" lon="14.075910696415844"><ele>69.0</ele><time>2026-05-02T07:09:49.999Z</time></trkpt><trkpt lat="42.35040428633649" lon="14.075752626566823"><ele>69.33333333333333</ele><time>2026-05-02T07:09:51.999Z</time></trkpt><trkpt lat="42.35040159884369" lon="14.075666513861188"><ele>69.66666666666666</ele><time>2026-05-02T07:09:52.999Z</time></trkpt><trkpt lat="42.3504162617526" lon="14.075580405999311"><ele>70.0</ele><time>2026-05-02T07:09:53.999Z</time></trkpt><trkpt lat="42.350401231903234" lon="14.075447664415881"><ele>70.2</ele><time>2026-05-02T07:09:55.999Z</time></trkpt><trkpt lat="42.350461561726625" lon="14.075396354232673"><ele>70.4</ele><time>2026-05-02T07:09:57.999Z</time></trkpt><trkpt lat="42.350588673536656" lon="14.075358370414383"><ele>70.6</ele><time>2026-05-02T07:09:59.999Z</time></trkpt><trkpt lat="42.35067596015773" lon="14.075343478338347"><ele>70.8</ele><time>2026-05-02T07:10:00.999Z</time></trkpt><trkpt lat="42.35077511287061" lon="14.075313106557731"><ele>71.0</ele><time>2026-05-02T07:10:01.999Z</time></trkpt><trkpt lat="42.35090054087122" lon="14.075266543530764"><ele>71.0</ele><time>2026-05-02T07:10:02.999Z</time></trkpt><trkpt lat="42.35101793858827" lon="14.075225588073234"><ele>71.0</ele><time>2026-05-02T07:10:03.999Z</time></trkpt><trkpt lat="42.351135254850874" lon="14.075184411946152"><ele>71.0</ele><time>2026-05-02T07:10:04.999Z</time></trkpt><trkpt lat="42.351240981980595" lon="14.075147367615347"><ele>71.0</ele><time>2026-05-02T07:10:05.999Z</time></trkpt><trkpt lat="42.35132514574444" lon="14.075115659446825"><ele>71.0</ele><time>2026-05-02T07:10:06.999Z</time></trkpt><trkpt lat="42.35139768355257" lon="14.075090899628599"><ele>71.39999999999999</ele><time>2026-05-02T07:10:07.999Z</time></trkpt><trkpt lat="42.35147243973708" lon="14.075068268751888"><ele>71.8</ele><time>2026-05-02T07:10:08.999Z</time></trkpt><trkpt lat="42.35156822365039" lon="14.075062417244045"><ele>72.19999999999999</ele><time>2026-05-02T07:10:10.999Z</time></trkpt><trkpt lat="42.35172463256916" lon="14.075080992755833"><ele>72.6</ele><time>2026-05-02T07:10:12.999Z</time></trkpt><trkpt lat="42.35183395875853" lon="14.075098290502341"><ele>73.0</ele><time>2026-05-02T07:10:13.999Z</time></trkpt><trkpt lat="42.351957745605716" lon="14.075112929527597"><ele>73.0</ele><time>2026-05-02T07:10:14.999Z</time></trkpt><trkpt lat="42.352087998952506" lon="14.075131684020059"><ele>73.0</ele><time>2026-05-02T07:10:15.999Z</time></trkpt><trkpt lat="42.35222374984496" lon="14.07515205969612"><ele>73.0</ele><time>2026-05-02T07:10:16.999Z</time></trkpt><trkpt lat="42.35236091054001" lon="14.075173205874298"><ele>73.0</ele><time>2026-05-02T07:10:17.999Z</time></trkpt><trkpt lat="42.35249316402166" lon="14.075192962249906"><ele>74.0</ele><time>2026-05-02T07:10:18.999Z</time></trkpt><trkpt lat="42.352616728717344" lon="14.07520890705417"><ele>75.0</ele><time>2026-05-02T07:10:19.999Z</time></trkpt><trkpt lat="42.352739109419275" lon="14.075223029752713"><ele>76.0</ele><time>2026-05-02T07:10:20.999Z</time></trkpt><trkpt lat="42.35285358336264" lon="14.075248178718171"><ele>77.0</ele><time>2026-05-02T07:10:21.999Z</time></trkpt><trkpt lat="42.35295884734482" lon="14.075285162642096"><ele>79.8</ele><time>2026-05-02T07:10:22.999Z</time></trkpt><trkpt lat="42.35306521013737" lon="14.075321696291757"><ele>82.6</ele><time>2026-05-02T07:10:23.999Z</time></trkpt><trkpt lat="42.35316273965759" lon="14.075390122989413"><ele>85.39999999999999</ele><time>2026-05-02T07:10:24.999Z</time></trkpt><trkpt lat="42.35326906799201" lon="14.075387612776089"><ele>88.2</ele><time>2026-05-02T07:10:25.999Z</time></trkpt><trkpt lat="42.353373474927416" lon="14.075391920226867"><ele>91.0</ele><time>2026-05-02T07:10:26.999Z</time></trkpt><trkpt lat="42.35349075657974" lon="14.075367502667943"><ele>91.0</ele><time>2026-05-02T07:10:27.999Z</time></trkpt><trkpt lat="42.35362275849625" lon="14.07533084680378"><ele>91.0</ele><time>2026-05-02T07:10:28.999Z</time></trkpt><trkpt lat="42.35375971162189" lon="14.075292438757485"><ele>91.0</ele><time>2026-05-02T07:10:29.999Z</time></trkpt><trkpt lat="42.353876113409974" lon="14.07525676387225"><ele>91.0</ele><time>2026-05-02T07:10:30.999Z</time></trkpt><trkpt lat="42.35398098977448" lon="14.075236700390757"><ele>92.5</ele><time>2026-05-02T07:10:31.999Z</time></trkpt><trkpt lat="42.354090680733925" lon="14.075212936433397"><ele>94.0</ele><time>2026-05-02T07:10:32.999Z</time></trkpt><trkpt lat="42.35420720732029" lon="14.075185335863107"><ele>95.5</ele><time>2026-05-02T07:10:33.999Z</time></trkpt><trkpt lat="42.35432974737625" lon="14.07515101182366"><ele>97.0</ele><time>2026-05-02T07:10:34.999Z</time></trkpt><trkpt lat="42.354454936554795" lon="14.075115764635488"><ele>97.0</ele><time>2026-05-02T07:10:35.999Z</time></trkpt><trkpt lat="42.35458182270482" lon="14.075082818788529"><ele>97.0</ele><time>2026-05-02T07:10:36.999Z</time></trkpt><trkpt lat="42.35471409335652" lon="14.075045924435118"><ele>97.0</ele><time>2026-05-02T07:10:37.999Z</time></trkpt><trkpt lat="42.35483885824473" lon="14.075008597049331"><ele>97.0</ele><time>2026-05-02T07:10:38.999Z</time></trkpt><trkpt lat="42.354951246167865" lon="14.074983760992879"><ele>100.25</ele><time>2026-05-02T07:10:39.999Z</time></trkpt><trkpt lat="42.35507166272687" lon="14.074962221478227"><ele>103.5</ele><time>2026-05-02T07:10:40.999Z</time></trkpt><trkpt lat="42.35520205741957" lon="14.074943512895596"><ele>106.75</ele><time>2026-05-02T07:10:41.999Z</time></trkpt><trkpt lat="42.35533304798603" lon="14.074927517208843"><ele>110.0</ele><time>2026-05-02T07:10:42.999Z</time></trkpt><trkpt lat="42.35546036998591" lon="14.074908745558274"><ele>112.5</ele><time>2026-05-02T07:10:43.999Z</time></trkpt><trkpt lat="42.355586672456326" lon="14.074887781917253"><ele>115.0</ele><time>2026-05-02T07:10:44.999Z</time></trkpt><trkpt lat="42.35571157605536" lon="14.074867776911622"><ele>117.5</ele><time>2026-05-02T07:10:45.999Z</time></trkpt><trkpt lat="42.35582749569198" lon="14.074855620172833"><ele>120.0</ele><time>2026-05-02T07:10:46.999Z</time></trkpt><trkpt lat="42.35593874239939" lon="14.074853758284945"><ele>120.0</ele><time>2026-05-02T07:10:47.999Z</time></trkpt><trkpt lat="42.35604720446487" lon="14.074859813179936"><ele>120.0</ele><time>2026-05-02T07:10:48.999Z</time></trkpt><trkpt lat="42.35616919613468" lon="14.074870386069874"><ele>120.0</ele><time>2026-05-02T07:10:49.999Z</time></trkpt><trkpt lat="42.35630167132533" lon="14.074884938127653"><ele>120.0</ele><time>2026-05-02T07:10:50.999Z</time></trkpt><trkpt lat="42.35644236699199" lon="14.074909275967755"><ele>120.75</ele><time>2026-05-02T07:10:51.999Z</time></trkpt><trkpt lat="42.356579172152514" lon="14.07493420620603"><ele>121.5</ele><time>2026-05-02T07:10:52.999Z</time></trkpt><trkpt lat="42.35670334890603" lon="14.07495531083409"><ele>122.25</ele><time>2026-05-02T07:10:53.999Z</time></trkpt><trkpt lat="42.35681108606566" lon="14.074969832701882"><ele>123.0</ele><time>2026-05-02T07:10:54.999Z</time></trkpt><trkpt lat="42.35691196349077" lon="14.074988650758556"><ele>123.0</ele><time>2026-05-02T07:10:55.999Z</time></trkpt><trkpt lat="42.35702328797326" lon="14.075014294492695"><ele>123.00000000000001</ele><time>2026-05-02T07:10:56.999Z</time></trkpt><trkpt lat="42.35713491536299" lon="14.07503577923408"><ele>123.00000000000001</ele><time>2026-05-02T07:10:57.999Z</time></trkpt><trkpt lat="42.35724790922275" lon="14.075061560736572"><ele>123.0</ele><time>2026-05-02T07:10:58.999Z</time></trkpt><trkpt lat="42.35735301417568" lon="14.07508466679597"><ele>123.0</ele><time>2026-05-02T07:10:59.999Z</time></trkpt><trkpt lat="42.35745745445921" lon="14.07510611719357"><ele>122.80000000000001</ele><time>2026-05-02T07:11:00.999Z</time></trkpt><trkpt lat="42.35756442853586" lon="14.075135053456528"><ele>122.60000000000001</ele><time>2026-05-02T07:11:01.999Z</time></trkpt><trkpt lat="42.35767013806991" lon="14.07516093028064"><ele>122.39999999999999</ele><time>2026-05-02T07:11:02.999Z</time></trkpt><trkpt lat="42.35778119301438" lon="14.07519337778535"><ele>122.19999999999999</ele><time>2026-05-02T07:11:03.999Z</time></trkpt><trkpt lat="42.35788904239742" lon="14.075227461007861"><ele>122.0</ele><time>2026-05-02T07:11:04.999Z</time></trkpt><trkpt lat="42.35799674977527" lon="14.075266014793222"><ele>121.8</ele><time>2026-05-02T07:11:05.999Z</time></trkpt><trkpt lat="42.35810564965371" lon="14.075303609950645"><ele>121.6</ele><time>2026-05-02T07:11:06.999Z</time></trkpt><trkpt lat="42.358213439623604" lon="14.075343046399688"><ele>121.39999999999999</ele><time>2026-05-02T07:11:07.999Z</time></trkpt><trkpt lat="42.35832128840735" lon="14.075385882441571"><ele>121.19999999999999</ele><time>2026-05-02T07:11:08.999Z</time></trkpt><trkpt lat="42.35842203734033" lon="14.075424990905114"><ele>121.0</ele><time>2026-05-02T07:11:09.999Z</time></trkpt><trkpt lat="42.35851166367077" lon="14.075458762299847"><ele>121.0</ele><time>2026-05-02T07:11:10.999Z</time></trkpt><trkpt lat="42.358587129377575" lon="14.075489600052107"><ele>121.0</ele><time>2026-05-02T07:11:11.999Z</time></trkpt><trkpt lat="42.358680532900365" lon="14.075537791964903"><ele>121.0</ele><time>2026-05-02T07:11:13.999Z</time></trkpt><trkpt lat="42.35875802335616" lon="14.075588891403896"><ele>121.0</ele><time>2026-05-02T07:11:16Z</time></trkpt><trkpt lat="42.35884609004833" lon="14.075508021763344"><ele>121.0</ele><time>2026-05-02T07:11:17Z</time></trkpt><trkpt lat="42.35892407179547" lon="14.075459710359945"><ele>121.8</ele><time>2026-05-02T07:11:18Z</time></trkpt><trkpt lat="42.35900956871538" lon="14.075402290619202"><ele>122.6</ele><time>2026-05-02T07:11:19Z</time></trkpt><trkpt lat="42.359096879865554" lon="14.075334702215427"><ele>123.4</ele><time>2026-05-02T07:11:20Z</time></trkpt><trkpt lat="42.35918413948602" lon="14.07527843069463"><ele>124.2</ele><time>2026-05-02T07:11:21Z</time></trkpt><trkpt lat="42.35927357423966" lon="14.075214475786566"><ele>125.0</ele><time>2026-05-02T07:11:22Z</time></trkpt><trkpt lat="42.359362368973144" lon="14.075149712214923"><ele>125.0</ele><time>2026-05-02T07:11:23Z</time></trkpt><trkpt lat="42.359460203240765" lon="14.075081316156705"><ele>125.0</ele><time>2026-05-02T07:11:24Z</time></trkpt><trkpt lat="42.35955569095225" lon="14.075011533781014"><ele>125.0</ele><time>2026-05-02T07:11:25Z</time></trkpt><trkpt lat="42.35965638383816" lon="14.074964589105072"><ele>125.0</ele><time>2026-05-02T07:11:26Z</time></trkpt><trkpt lat="42.35974321412653" lon="14.074880776147408"><ele>125.0</ele><time>2026-05-02T07:11:27Z</time></trkpt><trkpt lat="42.35983343611229" lon="14.074818292011479"><ele>125.6</ele><time>2026-05-02T07:11:28Z</time></trkpt><trkpt lat="42.3599174933759" lon="14.074761877848504"><ele>126.2</ele><time>2026-05-02T07:11:29Z</time></trkpt><trkpt lat="42.360011867358864" lon="14.07472009069799"><ele>126.80000000000001</ele><time>2026-05-02T07:11:30Z</time></trkpt><trkpt lat="42.36009735716005" lon="14.074661509861043"><ele>127.4</ele><time>2026-05-02T07:11:31Z</time></trkpt><trkpt lat="42.36018363558196" lon="14.074602388676828"><ele>128.0</ele><time>2026-05-02T07:11:32Z</time></trkpt><trkpt lat="42.36026786190826" lon="14.074544673644551"><ele>128.0</ele><time>2026-05-02T07:11:33Z</time></trkpt><trkpt lat="42.360336326348495" lon="14.074497759191004"><ele>128.0</ele><time>2026-05-02T07:11:34Z</time></trkpt><trkpt lat="42.360417508262685" lon="14.074442130305577"><ele>128.0</ele><time>2026-05-02T07:11:35Z</time></trkpt><trkpt lat="42.36050689055394" lon="14.074380882229558"><ele>128.0</ele><time>2026-05-02T07:11:36Z</time></trkpt><trkpt lat="42.360602586423546" lon="14.074314943059289"><ele>128.0</ele><time>2026-05-02T07:11:37Z</time></trkpt><trkpt lat="42.36069218107513" lon="14.074228064646933"><ele>128.5</ele><time>2026-05-02T07:11:38Z</time></trkpt><trkpt lat="42.36077844679797" lon="14.074166434823844"><ele>129.0</ele><time>2026-05-02T07:11:39Z</time></trkpt><trkpt lat="42.36086465304861" lon="14.074128186861758"><ele>129.5</ele><time>2026-05-02T07:11:40Z</time></trkpt><trkpt lat="42.360935380020315" lon="14.07405254667427"><ele>130.0</ele><time>2026-05-02T07:11:41Z</time></trkpt><trkpt lat="42.36101610966479" lon="14.074005310594323"><ele>130.5</ele><time>2026-05-02T07:11:42Z</time></trkpt><trkpt lat="42.3610919152857" lon="14.073968181428588"><ele>131.0</ele><time>2026-05-02T07:11:43Z</time></trkpt><trkpt lat="42.36115828811416" lon="14.073932348800469"><ele>131.6</ele><time>2026-05-02T07:11:44Z</time></trkpt><trkpt lat="42.36121765599453" lon="14.073880279804417"><ele>132.2</ele><time>2026-05-02T07:11:45Z</time></trkpt><trkpt lat="42.36127656943448" lon="14.073829453238735"><ele>132.8</ele><time>2026-05-02T07:11:46Z</time></trkpt><trkpt lat="42.36135726920213" lon="14.073776180820426"><ele>133.4</ele><time>2026-05-02T07:11:48Z</time></trkpt><trkpt lat="42.36143265980778" lon="14.073719322633613"><ele>134.0</ele><time>2026-05-02T07:11:51Z</time></trkpt><trkpt lat="42.361548970769135" lon="14.07361795029779"><ele>134.6</ele><time>2026-05-02T07:11:53Z</time></trkpt><trkpt lat="42.36161235827257" lon="14.073569211425653"><ele>135.2</ele><time>2026-05-02T07:11:54Z</time></trkpt><trkpt lat="42.36168722828815" lon="14.07353061966318"><ele>135.79999999999998</ele><time>2026-05-02T07:11:56Z</time></trkpt><trkpt lat="42.361750865495935" lon="14.073503187242629"><ele>136.4</ele><time>2026-05-02T07:11:59Z</time></trkpt><trkpt lat="42.36165910720891" lon="14.073261203641621"><ele>137.0</ele><time>2026-05-02T07:12:03Z</time></trkpt><trkpt lat="42.36158727793225" lon="14.073164740522852"><ele>137.0</ele><time>2026-05-02T07:12:04Z</time></trkpt><trkpt lat="42.36153215540728" lon="14.073068648559452"><ele>137.0</ele><time>2026-05-02T07:12:05Z</time></trkpt><trkpt lat="42.36147889485489" lon="14.072982839493406"><ele>137.0</ele><time>2026-05-02T07:12:06Z</time></trkpt><trkpt lat="42.36143000114558" lon="14.072909540172962"><ele>137.0</ele><time>2026-05-02T07:12:07Z</time></trkpt><trkpt lat="42.36137766504629" lon="14.07283981264738"><ele>137.0</ele><time>2026-05-02T07:12:08Z</time></trkpt><trkpt lat="42.361324274846055" lon="14.072761320772083"><ele>137.0</ele><time>2026-05-02T07:12:09Z</time></trkpt><trkpt lat="42.36126599711383" lon="14.072677713092851"><ele>136.33333333333331</ele><time>2026-05-02T07:12:10Z</time></trkpt><trkpt lat="42.361205105809525" lon="14.072592730901299"><ele>135.66666666666666</ele><time>2026-05-02T07:12:11Z</time></trkpt><trkpt lat="42.361164641485374" lon="14.072522333219759"><ele>135.0</ele><time>2026-05-02T07:12:12Z</time></trkpt><trkpt lat="42.36112883443177" lon="14.072440465022506"><ele>134.33333333333334</ele><time>2026-05-02T07:12:13Z</time></trkpt><trkpt lat="42.36107490168105" lon="14.072343830318685"><ele>133.66666666666669</ele><time>2026-05-02T07:12:14Z</time></trkpt><trkpt lat="42.360995677459755" lon="14.072230742461974"><ele>133.0</ele><time>2026-05-02T07:12:15Z</time></trkpt><trkpt lat="42.36091019564712" lon="14.072106975231009"><ele>133.0</ele><time>2026-05-02T07:12:16Z</time></trkpt><trkpt lat="42.36081598474187" lon="14.071965856665846"><ele>133.0</ele><time>2026-05-02T07:12:17Z</time></trkpt><trkpt lat="42.36073220855742" lon="14.07181629778255"><ele>133.0</ele><time>2026-05-02T07:12:18Z</time></trkpt><trkpt lat="42.36066999711793" lon="14.071661249757836"><ele>133.0</ele><time>2026-05-02T07:12:19Z</time></trkpt><trkpt lat="42.36061458925236" lon="14.071497421031225"><ele>133.0</ele><time>2026-05-02T07:12:20Z</time></trkpt><trkpt lat="42.360571201203975" lon="14.071321383343804"><ele>133.0</ele><time>2026-05-02T07:12:21Z</time></trkpt><trkpt lat="42.36053382219894" lon="14.071138787410463"><ele>133.0</ele><time>2026-05-02T07:12:22Z</time></trkpt><trkpt lat="42.3605000222347" lon="14.070952756561315"><ele>133.0</ele><time>2026-05-02T07:12:23Z</time></trkpt><trkpt lat="42.36046364485407" lon="14.070763782284912"><ele>133.5</ele><time>2026-05-02T07:12:24Z</time></trkpt><trkpt lat="42.360423867386125" lon="14.070573102278559"><ele>134.0</ele><time>2026-05-02T07:12:25Z</time></trkpt><trkpt lat="42.360384704689544" lon="14.070383513992331"><ele>134.5</ele><time>2026-05-02T07:12:26Z</time></trkpt><trkpt lat="42.3603464564011" lon="14.070195938326973"><ele>135.0</ele><time>2026-05-02T07:12:27Z</time></trkpt><trkpt lat="42.36030674764809" lon="14.070009166850717"><ele>135.75</ele><time>2026-05-02T07:12:28Z</time></trkpt><trkpt lat="42.3602677663063" lon="14.069830599857164"><ele>136.5</ele><time>2026-05-02T07:12:29Z</time></trkpt><trkpt lat="42.36023786255527" lon="14.069669330154673"><ele>137.25</ele><time>2026-05-02T07:12:30Z</time></trkpt><trkpt lat="42.360217477980235" lon="14.069520232658586"><ele>138.0</ele><time>2026-05-02T07:12:31Z</time></trkpt><trkpt lat="42.360208942606086" lon="14.06936744755109"><ele>138.0</ele><time>2026-05-02T07:12:32Z</time></trkpt><trkpt lat="42.36021319169548" lon="14.069214414414565"><ele>138.0</ele><time>2026-05-02T07:12:33Z</time></trkpt><trkpt lat="42.3602285148615" lon="14.069055040596663"><ele>138.0</ele><time>2026-05-02T07:12:34Z</time></trkpt><trkpt lat="42.36025659000404" lon="14.068896512174147"><ele>138.0</ele><time>2026-05-02T07:12:35Z</time></trkpt><trkpt lat="42.36030047035423" lon="14.068744680327935"><ele>138.4</ele><time>2026-05-02T07:12:36Z</time></trkpt><trkpt lat="42.36035676598238" lon="14.06860717148247"><ele>138.8</ele><time>2026-05-02T07:12:37Z</time></trkpt><trkpt lat="42.360417295371214" lon="14.068484207873096"><ele>139.2</ele><time>2026-05-02T07:12:38Z</time></trkpt><trkpt lat="42.360484674668875" lon="14.068376794596269"><ele>139.6</ele><time>2026-05-02T07:12:39Z</time></trkpt><trkpt lat="42.36054679188797" lon="14.068298422745695"><ele>140.0</ele><time>2026-05-02T07:12:40Z</time></trkpt><trkpt lat="42.360591629629695" lon="14.06823752047625"><ele>140.0</ele><time>2026-05-02T07:12:41Z</time></trkpt><trkpt lat="42.36066145806075" lon="14.06810297268291"><ele>140.0</ele><time>2026-05-02T07:12:43Z</time></trkpt><trkpt lat="42.36068962376953" lon="14.06799937044211"><ele>140.0</ele><time>2026-05-02T07:12:44Z</time></trkpt><trkpt lat="42.360713782892134" lon="14.067887875535284"><ele>140.0</ele><time>2026-05-02T07:12:45Z</time></trkpt><trkpt lat="42.360724425206264" lon="14.067777006093337"><ele>140.0</ele><time>2026-05-02T07:12:46Z</time></trkpt><trkpt lat="42.36072127168871" lon="14.06766367556729"><ele>140.0</ele><time>2026-05-02T07:12:47Z</time></trkpt><trkpt lat="42.360698172601786" lon="14.067553381944084"><ele>140.0</ele><time>2026-05-02T07:12:48Z</time></trkpt><trkpt lat="42.36065581280462" lon="14.067439602112781"><ele>140.0</ele><time>2026-05-02T07:12:49Z</time></trkpt><trkpt lat="42.360595783964634" lon="14.067335286347369"><ele>140.0</ele><time>2026-05-02T07:12:50Z</time></trkpt><trkpt lat="42.360532011352774" lon="14.06723234335028"><ele>140.0</ele><time>2026-05-02T07:12:51Z</time></trkpt><trkpt lat="42.36047653904239" lon="14.06713739259529"><ele>138.5</ele><time>2026-05-02T07:12:52Z</time></trkpt><trkpt lat="42.36042522802809" lon="14.067036772570601"><ele>137.0</ele><time>2026-05-02T07:12:53Z</time></trkpt><trkpt lat="42.36038720712413" lon="14.06694679083195"><ele>135.5</ele><time>2026-05-02T07:12:54Z</time></trkpt><trkpt lat="42.36037182195035" lon="14.06685395604467"><ele>134.0</ele><time>2026-05-02T07:12:55Z</time></trkpt><trkpt lat="42.36037256803227" lon="14.06675940859457"><ele>132.5</ele><time>2026-05-02T07:12:56Z</time></trkpt><trkpt lat="42.36035212181558" lon="14.066629215284824"><ele>131.0</ele><time>2026-05-02T07:12:58Z</time></trkpt><trkpt lat="42.36024709276271" lon="14.066565182566814"><ele>131.0</ele><time>2026-05-02T07:13:00Z</time></trkpt><trkpt lat="42.36017563510583" lon="14.066560868892404"><ele>131.0</ele><time>2026-05-02T07:13:01Z</time></trkpt><trkpt lat="42.36009406326243" lon="14.066548050744428"><ele>131.0</ele><time>2026-05-02T07:13:02Z</time></trkpt><trkpt lat="42.36001069752399" lon="14.06649852634863"><ele>131.0</ele><time>2026-05-02T07:13:03Z</time></trkpt><trkpt lat="42.35992855774143" lon="14.06640139243824"><ele>131.0</ele><time>2026-05-02T07:13:04Z</time></trkpt><trkpt lat="42.35985406688853" lon="14.066278012097744"><ele>131.0</ele><time>2026-05-02T07:13:05Z</time></trkpt><trkpt lat="42.3597794331207" lon="14.066135912839542"><ele>131.0</ele><time>2026-05-02T07:13:06Z</time></trkpt><trkpt lat="42.35970348131952" lon="14.065983194428096"><ele>131.0</ele><time>2026-05-02T07:13:07Z</time></trkpt><trkpt lat="42.359627141874206" lon="14.065827072188837"><ele>131.0</ele><time>2026-05-02T07:13:08Z</time></trkpt><trkpt lat="42.359552075567926" lon="14.065669282513523"><ele>129.25</ele><time>2026-05-02T07:13:09Z</time></trkpt><trkpt lat="42.359477532901685" lon="14.065521153679299"><ele>127.5</ele><time>2026-05-02T07:13:10Z</time></trkpt><trkpt lat="42.35940126965723" lon="14.065385287116856"><ele>125.75</ele><time>2026-05-02T07:13:11Z</time></trkpt><trkpt lat="42.35931417409407" lon="14.065260500552025"><ele>124.0</ele><time>2026-05-02T07:13:12Z</time></trkpt><trkpt lat="42.35920658502802" lon="14.065145741277329"><ele>124.0</ele><time>2026-05-02T07:13:13Z</time></trkpt><trkpt lat="42.3590843545526" lon="14.065049626614538"><ele>124.0</ele><time>2026-05-02T07:13:14Z</time></trkpt><trkpt lat="42.3589927623026" lon="14.064914609672156"><ele>124.0</ele><time>2026-05-02T07:13:15Z</time></trkpt><trkpt lat="42.358890403799236" lon="14.06478400386231"><ele>124.0</ele><time>2026-05-02T07:13:16Z</time></trkpt><trkpt lat="42.35880857263987" lon="14.064622992773211"><ele>123.0</ele><time>2026-05-02T07:13:17Z</time></trkpt><trkpt lat="42.35873114204857" lon="14.06448131577938"><ele>122.0</ele><time>2026-05-02T07:13:18Z</time></trkpt><trkpt lat="42.35865652726166" lon="14.064343111575926"><ele>121.0</ele><time>2026-05-02T07:13:19Z</time></trkpt><trkpt lat="42.358588533136434" lon="14.064218014480359"><ele>120.0</ele><time>2026-05-02T07:13:20Z</time></trkpt><trkpt lat="42.35851450426092" lon="14.064110727267078"><ele>117.25</ele><time>2026-05-02T07:13:21Z</time></trkpt><trkpt lat="42.358426029031115" lon="14.064021308447906"><ele>114.5</ele><time>2026-05-02T07:13:22Z</time></trkpt><trkpt lat="42.35831978410524" lon="14.063964269151342"><ele>111.75</ele><time>2026-05-02T07:13:23Z</time></trkpt><trkpt lat="42.35820780139188" lon="14.06394420736195"><ele>109.0</ele><time>2026-05-02T07:13:24Z</time></trkpt><trkpt lat="42.35809594273342" lon="14.063954436056479"><ele>108.2</ele><time>2026-05-02T07:13:25Z</time></trkpt><trkpt lat="42.3579809646023" lon="14.063981344245553"><ele>107.4</ele><time>2026-05-02T07:13:26Z</time></trkpt><trkpt lat="42.35786723724787" lon="14.064011439208716"><ele>106.6</ele><time>2026-05-02T07:13:27Z</time></trkpt><trkpt lat="42.35776069809632" lon="14.064015906269637"><ele>105.8</ele><time>2026-05-02T07:13:28Z</time></trkpt><trkpt lat="42.3576597968528" lon="14.06397612825027"><ele>105.0</ele><time>2026-05-02T07:13:29Z</time></trkpt><trkpt lat="42.35756225454107" lon="14.063905336733171"><ele>105.0</ele><time>2026-05-02T07:13:30Z</time></trkpt><trkpt lat="42.3574623980476" lon="14.06381189002363"><ele>105.0</ele><time>2026-05-02T07:13:31Z</time></trkpt><trkpt lat="42.35735341772061" lon="14.063725150045842"><ele>105.0</ele><time>2026-05-02T07:13:32Z</time></trkpt><trkpt lat="42.35722754899074" lon="14.063659831059539"><ele>105.0</ele><time>2026-05-02T07:13:33Z</time></trkpt><trkpt lat="42.357091239827035" lon="14.063611496169813"><ele>103.75</ele><time>2026-05-02T07:13:34Z</time></trkpt><trkpt lat="42.35696478988004" lon="14.063566014604104"><ele>102.5</ele><time>2026-05-02T07:13:35Z</time></trkpt><trkpt lat="42.35684314455924" lon="14.063540586090461"><ele>101.25</ele><time>2026-05-02T07:13:36Z</time></trkpt><trkpt lat="42.35672403004409" lon="14.063545497105807"><ele>100.0</ele><time>2026-05-02T07:13:37Z</time></trkpt><trkpt lat="42.35660086840173" lon="14.063576669434505"><ele>100.0</ele><time>2026-05-02T07:13:38Z</time></trkpt><trkpt lat="42.35647498634808" lon="14.063623944002817"><ele>100.0</ele><time>2026-05-02T07:13:39Z</time></trkpt><trkpt lat="42.35635326767726" lon="14.063686592954637"><ele>100.0</ele><time>2026-05-02T07:13:40Z</time></trkpt><trkpt lat="42.35623989280422" lon="14.063764786191552"><ele>100.0</ele><time>2026-05-02T07:13:41Z</time></trkpt><trkpt lat="42.35614456876091" lon="14.063834367600588"><ele>98.4</ele><time>2026-05-02T07:13:42Z</time></trkpt><trkpt lat="42.35604862303528" lon="14.063877598851619"><ele>96.8</ele><time>2026-05-02T07:13:43Z</time></trkpt><trkpt lat="42.35595216094209" lon="14.06388695538058"><ele>95.19999999999999</ele><time>2026-05-02T07:13:44Z</time></trkpt><trkpt lat="42.35585677392696" lon="14.063864908570725"><ele>93.6</ele><time>2026-05-02T07:13:45Z</time></trkpt><trkpt lat="42.35576540708298" lon="14.06380868964996"><ele>92.0</ele><time>2026-05-02T07:13:46Z</time></trkpt><trkpt lat="42.355688686857015" lon="14.063717770656389"><ele>92.0</ele><time>2026-05-02T07:13:47Z</time></trkpt><trkpt lat="42.35563222407212" lon="14.06361469882027"><ele>92.0</ele><time>2026-05-02T07:13:48Z</time></trkpt><trkpt lat="42.35560160156646" lon="14.063498148672943"><ele>92.0</ele><time>2026-05-02T07:13:49Z</time></trkpt><trkpt lat="42.35556841802346" lon="14.06335775792654"><ele>92.0</ele><time>2026-05-02T07:13:50Z</time></trkpt><trkpt lat="42.355531576237254" lon="14.063205947302633"><ele>92.0</ele><time>2026-05-02T07:13:51Z</time></trkpt><trkpt lat="42.35548899345921" lon="14.063046336875319"><ele>91.5</ele><time>2026-05-02T07:13:52Z</time></trkpt><trkpt lat="42.35543202454408" lon="14.062885023468976"><ele>91.0</ele><time>2026-05-02T07:13:53Z</time></trkpt><trkpt lat="42.35535225133577" lon="14.062723187920664"><ele>90.5</ele><time>2026-05-02T07:13:54Z</time></trkpt><trkpt lat="42.355263411361015" lon="14.062571958173697"><ele>90.0</ele><time>2026-05-02T07:13:55Z</time></trkpt><trkpt lat="42.355171279549424" lon="14.06243174274666"><ele>90.0</ele><time>2026-05-02T07:13:56Z</time></trkpt><trkpt lat="42.35507645243984" lon="14.062288941282521"><ele>90.0</ele><time>2026-05-02T07:13:57Z</time></trkpt><trkpt lat="42.35498325153138" lon="14.062145873509483"><ele>90.0</ele><time>2026-05-02T07:13:58Z</time></trkpt><trkpt lat="42.35488845553351" lon="14.062005929232617"><ele>90.0</ele><time>2026-05-02T07:13:59Z</time></trkpt><trkpt lat="42.354792031425504" lon="14.06186393312994"><ele>89.25</ele><time>2026-05-02T07:14:00Z</time></trkpt><trkpt lat="42.354693510628785" lon="14.061712268497287"><ele>88.5</ele><time>2026-05-02T07:14:01Z</time></trkpt><trkpt lat="42.35459872693865" lon="14.061555762089641"><ele>87.75</ele><time>2026-05-02T07:14:02Z</time></trkpt><trkpt lat="42.35450847888503" lon="14.061397946389594"><ele>87.0</ele><time>2026-05-02T07:14:03Z</time></trkpt><trkpt lat="42.354417675118704" lon="14.061240304252225"><ele>88.75</ele><time>2026-05-02T07:14:04Z</time></trkpt><trkpt lat="42.354326025819994" lon="14.061082780579667"><ele>90.5</ele><time>2026-05-02T07:14:05Z</time></trkpt><trkpt lat="42.35423349119634" lon="14.060923567006018"><ele>92.25</ele><time>2026-05-02T07:14:06Z</time></trkpt><trkpt lat="42.354142093160874" lon="14.060765659302652"><ele>94.0</ele><time>2026-05-02T07:14:07Z</time></trkpt><trkpt lat="42.35405378746355" lon="14.06060986984404"><ele>93.5</ele><time>2026-05-02T07:14:08Z</time></trkpt><trkpt lat="42.35396260155884" lon="14.06045859363956"><ele>93.0</ele><time>2026-05-02T07:14:09Z</time></trkpt><trkpt lat="42.35387418568237" lon="14.060307608671149"><ele>92.5</ele><time>2026-05-02T07:14:10Z</time></trkpt><trkpt lat="42.353785364238796" lon="14.06015747682256"><ele>92.0</ele><time>2026-05-02T07:14:11Z</time></trkpt><trkpt lat="42.35369151915741" lon="14.059999516092535"><ele>92.66666666666667</ele><time>2026-05-02T07:14:12Z</time></trkpt><trkpt lat="42.35360389169908" lon="14.059830428676497"><ele>93.33333333333333</ele><time>2026-05-02T07:14:13Z</time></trkpt><trkpt lat="42.353529291774905" lon="14.059652800616158"><ele>94.0</ele><time>2026-05-02T07:14:14Z</time></trkpt><trkpt lat="42.35347777223935" lon="14.059462881226834"><ele>94.0</ele><time>2026-05-02T07:14:15Z</time></trkpt><trkpt lat="42.35344924268517" lon="14.059260172642778"><ele>94.0</ele><time>2026-05-02T07:14:16Z</time></trkpt><trkpt lat="42.353431260607735" lon="14.059043158849859"><ele>94.0</ele><time>2026-05-02T07:14:17Z</time></trkpt><trkpt lat="42.35341073659045" lon="14.058820709086673"><ele>93.66666666666666</ele><time>2026-05-02T07:14:18Z</time></trkpt><trkpt lat="42.3533855809722" lon="14.058590065465973"><ele>93.33333333333333</ele><time>2026-05-02T07:14:19Z</time></trkpt><trkpt lat="42.35335925688004" lon="14.058343187955803"><ele>93.0</ele><time>2026-05-02T07:14:20Z</time></trkpt><trkpt lat="42.35333301493922" lon="14.058090391242866"><ele>92.66666666666667</ele><time>2026-05-02T07:14:21Z</time></trkpt><trkpt lat="42.35330732291077" lon="14.05783520435823"><ele>92.33333333333334</ele><time>2026-05-02T07:14:22Z</time></trkpt><trkpt lat="42.35328304408516" lon="14.057579609378346"><ele>92.0</ele><time>2026-05-02T07:14:23Z</time></trkpt><trkpt lat="42.35325467040918" lon="14.057323775291632"><ele>91.33333333333334</ele><time>2026-05-02T07:14:24Z</time></trkpt><trkpt lat="42.353226828550156" lon="14.05707067598337"><ele>90.66666666666667</ele><time>2026-05-02T07:14:25Z</time></trkpt><trkpt lat="42.35320065106569" lon="14.056825045938108"><ele>90.0</ele><time>2026-05-02T07:14:26Z</time></trkpt><trkpt lat="42.353177576714174" lon="14.056581507582926"><ele>89.66666666666667</ele><time>2026-05-02T07:14:27Z</time></trkpt><trkpt lat="42.35315374715039" lon="14.056343522837572"><ele>89.33333333333334</ele><time>2026-05-02T07:14:28Z</time></trkpt><trkpt lat="42.35312871915894" lon="14.056111020033224"><ele>89.0</ele><time>2026-05-02T07:14:29Z</time></trkpt><trkpt lat="42.35310607301608" lon="14.055881984110083"><ele>89.66666666666667</ele><time>2026-05-02T07:14:30Z</time></trkpt><trkpt lat="42.35308459568768" lon="14.055660152221327"><ele>90.33333333333333</ele><time>2026-05-02T07:14:31Z</time></trkpt><trkpt lat="42.35306193199722" lon="14.055452743100364"><ele>91.0</ele><time>2026-05-02T07:14:32Z</time></trkpt><trkpt lat="42.35304053753259" lon="14.055244420134718"><ele>91.0</ele><time>2026-05-02T07:14:33Z</time></trkpt><trkpt lat="42.35302161996833" lon="14.055033074405083"><ele>91.0</ele><time>2026-05-02T07:14:34Z</time></trkpt><trkpt lat="42.35301332761827" lon="14.054820101772805"><ele>91.0</ele><time>2026-05-02T07:14:35Z</time></trkpt><trkpt lat="42.35302621435366" lon="14.054604571212638"><ele>91.75</ele><time>2026-05-02T07:14:36Z</time></trkpt><trkpt lat="42.35305620273979" lon="14.054407477547807"><ele>92.5</ele><time>2026-05-02T07:14:37Z</time></trkpt><trkpt lat="42.353087113290975" lon="14.05421811290457"><ele>93.25</ele><time>2026-05-02T07:14:38Z</time></trkpt><trkpt lat="42.353119089967166" lon="14.054049478268777"><ele>94.0</ele><time>2026-05-02T07:14:39Z</time></trkpt><trkpt lat="42.353147453315124" lon="14.053897614691985"><ele>95.6</ele><time>2026-05-02T07:14:40Z</time></trkpt><trkpt lat="42.35317077046503" lon="14.053758852354944"><ele>97.2</ele><time>2026-05-02T07:14:41Z</time></trkpt><trkpt lat="42.35318559388994" lon="14.053631408700813"><ele>98.8</ele><time>2026-05-02T07:14:42Z</time></trkpt><trkpt lat="42.353183933861565" lon="14.053514414196544"><ele>100.39999999999999</ele><time>2026-05-02T07:14:43Z</time></trkpt><trkpt lat="42.353168523609" lon="14.053429702518034"><ele>102.0</ele><time>2026-05-02T07:14:44Z</time></trkpt><trkpt lat="42.35314886584827" lon="14.05329230879626"><ele>102.0</ele><time>2026-05-02T07:14:46Z</time></trkpt><trkpt lat="42.35312063621377" lon="14.053196134588019"><ele>102.0</ele><time>2026-05-02T07:14:48Z</time></trkpt><trkpt lat="42.353047991992966" lon="14.05311978834448"><ele>102.0</ele><time>2026-05-02T07:14:50Z</time></trkpt><trkpt lat="42.35300300604826" lon="14.053046942594577"><ele>102.0</ele><time>2026-05-02T07:14:52Z</time></trkpt><trkpt lat="42.352959510328944" lon="14.052934314011422"><ele>102.0</ele><time>2026-05-02T07:14:54Z</time></trkpt><trkpt lat="42.35292507650126" lon="14.052849209399875"><ele>102.0</ele><time>2026-05-02T07:14:55Z</time></trkpt><trkpt lat="42.35289747855082" lon="14.052746573616567"><ele>102.0</ele><time>2026-05-02T07:14:56Z</time></trkpt><trkpt lat="42.352877285618845" lon="14.052646850322741"><ele>102.0</ele><time>2026-05-02T07:14:57Z</time></trkpt><trkpt lat="42.35285648377082" lon="14.052501371577263"><ele>102.0</ele><time>2026-05-02T07:14:59Z</time></trkpt><trkpt lat="42.352861050151546" lon="14.052410228860209"><ele>102.0</ele><time>2026-05-02T07:15:00Z</time></trkpt><trkpt lat="42.352867699181004" lon="14.052307334130345"><ele>102.0</ele><time>2026-05-02T07:15:01Z</time></trkpt><trkpt lat="42.352880059261636" lon="14.052206987400984"><ele>102.0</ele><time>2026-05-02T07:15:02Z</time></trkpt><trkpt lat="42.35291891784801" lon="14.052024483788118"><ele>103.25</ele><time>2026-05-02T07:15:04Z</time></trkpt><trkpt lat="42.352956241085444" lon="14.05187686552361"><ele>104.5</ele><time>2026-05-02T07:15:05Z</time></trkpt><trkpt lat="42.35300360293713" lon="14.051709799877859"><ele>105.75</ele><time>2026-05-02T07:15:06Z</time></trkpt><trkpt lat="42.35304268725577" lon="14.051538468705722"><ele>107.0</ele><time>2026-05-02T07:15:07Z</time></trkpt><trkpt lat="42.35308048911398" lon="14.051341532540022"><ele>108.33333333333333</ele><time>2026-05-02T07:15:08Z</time></trkpt><trkpt lat="42.35309428865704" lon="14.051128361417557"><ele>109.66666666666666</ele><time>2026-05-02T07:15:09Z</time></trkpt><trkpt lat="42.35309503387783" lon="14.05090270805723"><ele>111.0</ele><time>2026-05-02T07:15:10Z</time></trkpt><trkpt lat="42.35313478203047" lon="14.050686213349824"><ele>111.5</ele><time>2026-05-02T07:15:11Z</time></trkpt><trkpt lat="42.35317758804251" lon="14.050482312298639"><ele>112.0</ele><time>2026-05-02T07:15:12Z</time></trkpt><trkpt lat="42.35321218298413" lon="14.050293907168573"><ele>112.5</ele><time>2026-05-02T07:15:13Z</time></trkpt><trkpt lat="42.35322776634753" lon="14.050115710963913"><ele>113.0</ele><time>2026-05-02T07:15:14Z</time></trkpt><trkpt lat="42.353220335436454" lon="14.04994088832465"><ele>114.25</ele><time>2026-05-02T07:15:15Z</time></trkpt><trkpt lat="42.35319293333925" lon="14.049767992289338"><ele>115.5</ele><time>2026-05-02T07:15:16Z</time></trkpt><trkpt lat="42.35315674306915" lon="14.049594540467917"><ele>116.75</ele><time>2026-05-02T07:15:17Z</time></trkpt><trkpt lat="42.3531199254584" lon="14.049427729939064"><ele>118.0</ele><time>2026-05-02T07:15:18Z</time></trkpt><trkpt lat="42.35309161007918" lon="14.049260885441829"><ele>118.25</ele><time>2026-05-02T07:15:19Z</time></trkpt><trkpt lat="42.35308577643479" lon="14.049083263674794"><ele>118.5</ele><time>2026-05-02T07:15:20Z</time></trkpt><trkpt lat="42.353093937743495" lon="14.048897364020355"><ele>118.75</ele><time>2026-05-02T07:15:21Z</time></trkpt><trkpt lat="42.35309303293394" lon="14.04870824492206"><ele>119.0</ele><time>2026-05-02T07:15:22Z</time></trkpt><trkpt lat="42.35306738163503" lon="14.048524396822677"><ele>115.75</ele><time>2026-05-02T07:15:23Z</time></trkpt><trkpt lat="42.353026506865966" lon="14.04835167190738"><ele>112.5</ele><time>2026-05-02T07:15:24Z</time></trkpt><trkpt lat="42.35298365784472" lon="14.048195898644707"><ele>109.25</ele><time>2026-05-02T07:15:25Z</time></trkpt><trkpt lat="42.35295511294535" lon="14.048043848149643"><ele>106.0</ele><time>2026-05-02T07:15:26Z</time></trkpt><trkpt lat="42.3529550323967" lon="14.047905917093193"><ele>105.75</ele><time>2026-05-02T07:15:27Z</time></trkpt><trkpt lat="42.352982398780554" lon="14.047768005367171"><ele>105.5</ele><time>2026-05-02T07:15:28Z</time></trkpt><trkpt lat="42.353038813687725" lon="14.047640436842277"><ele>105.25</ele><time>2026-05-02T07:15:29Z</time></trkpt><trkpt lat="42.353115924335974" lon="14.047512480611081"><ele>105.0</ele><time>2026-05-02T07:15:30Z</time></trkpt><trkpt lat="42.353197160332336" lon="14.04737330264768"><ele>108.5</ele><time>2026-05-02T07:15:31Z</time></trkpt><trkpt lat="42.35327595583742" lon="14.047212684609107"><ele>112.0</ele><time>2026-05-02T07:15:32Z</time></trkpt><trkpt lat="42.35333821377903" lon="14.047033734939587"><ele>115.5</ele><time>2026-05-02T07:15:33Z</time></trkpt><trkpt lat="42.35339289704599" lon="14.046842017368487"><ele>119.0</ele><time>2026-05-02T07:15:34Z</time></trkpt><trkpt lat="42.35345333392626" lon="14.046650585456195"><ele>118.0</ele><time>2026-05-02T07:15:35Z</time></trkpt><trkpt lat="42.353511306094624" lon="14.046438243905847"><ele>117.0</ele><time>2026-05-02T07:15:36Z</time></trkpt><trkpt lat="42.353559247136126" lon="14.04620792581429"><ele>116.0</ele><time>2026-05-02T07:15:37Z</time></trkpt><trkpt lat="42.353594157333234" lon="14.045978907121139"><ele>117.33333333333333</ele><time>2026-05-02T07:15:38Z</time></trkpt><trkpt lat="42.35361888536506" lon="14.045741537060467"><ele>118.66666666666666</ele><time>2026-05-02T07:15:39Z</time></trkpt><trkpt lat="42.35363493767423" lon="14.045495942200557"><ele>120.0</ele><time>2026-05-02T07:15:40Z</time></trkpt><trkpt lat="42.35363515869098" lon="14.045246751881182"><ele>120.0</ele><time>2026-05-02T07:15:41Z</time></trkpt><trkpt lat="42.3536408368213" lon="14.045003387661705"><ele>120.0</ele><time>2026-05-02T07:15:42Z</time></trkpt><trkpt lat="42.35360832562473" lon="14.044775907997964"><ele>120.0</ele><time>2026-05-02T07:15:43Z</time></trkpt><trkpt lat="42.35359371022724" lon="14.044556301069028"><ele>121.66666666666666</ele><time>2026-05-02T07:15:44Z</time></trkpt><trkpt lat="42.353593967341055" lon="14.044347111369781"><ele>123.33333333333333</ele><time>2026-05-02T07:15:45Z</time></trkpt><trkpt lat="42.35362428616668" lon="14.044136868227676"><ele>125.0</ele><time>2026-05-02T07:15:46Z</time></trkpt><trkpt lat="42.35367488382039" lon="14.043930352254456"><ele>126.33333333333333</ele><time>2026-05-02T07:15:47Z</time></trkpt><trkpt lat="42.35373150696938" lon="14.043720147850928"><ele>127.66666666666666</ele><time>2026-05-02T07:15:48Z</time></trkpt><trkpt lat="42.35378981262754" lon="14.043495065145455"><ele>129.0</ele><time>2026-05-02T07:15:49Z</time></trkpt><trkpt lat="42.353849807262264" lon="14.043259189100887"><ele>130.0</ele><time>2026-05-02T07:15:50Z</time></trkpt><trkpt lat="42.35390786040028" lon="14.043017258578143"><ele>131.0</ele><time>2026-05-02T07:15:51Z</time></trkpt><trkpt lat="42.353959754344935" lon="14.04277456104273"><ele>132.0</ele><time>2026-05-02T07:15:52Z</time></trkpt><trkpt lat="42.35400262455749" lon="14.042528373946059"><ele>132.0</ele><time>2026-05-02T07:15:53Z</time></trkpt><trkpt lat="42.35403993869982" lon="14.042281535165426"><ele>132.0</ele><time>2026-05-02T07:15:54Z</time></trkpt><trkpt lat="42.35407864296522" lon="14.042030025794832"><ele>132.0</ele><time>2026-05-02T07:15:55Z</time></trkpt><trkpt lat="42.35412368383195" lon="14.04177154753363"><ele>133.0</ele><time>2026-05-02T07:15:56Z</time></trkpt><trkpt lat="42.35416730123085" lon="14.041511025548983"><ele>134.0</ele><time>2026-05-02T07:15:57Z</time></trkpt><trkpt lat="42.35420784698472" lon="14.041251102975261"><ele>135.0</ele><time>2026-05-02T07:15:58Z</time></trkpt><trkpt lat="42.3542490020041" lon="14.040996660635578"><ele>136.66666666666666</ele><time>2026-05-02T07:15:59Z</time></trkpt><trkpt lat="42.354290063268294" lon="14.040753680978145"><ele>138.33333333333331</ele><time>2026-05-02T07:16:00Z</time></trkpt><trkpt lat="42.35433104852946" lon="14.040526819704235"><ele>140.0</ele><time>2026-05-02T07:16:01Z</time></trkpt><trkpt lat="42.35436868606909" lon="14.040318129316555"><ele>140.0</ele><time>2026-05-02T07:16:02Z</time></trkpt><trkpt lat="42.354400475445765" lon="14.040126180176761"><ele>140.0</ele><time>2026-05-02T07:16:03Z</time></trkpt><trkpt lat="42.354429014199305" lon="14.039946318620173"><ele>140.0</ele><time>2026-05-02T07:16:04Z</time></trkpt><trkpt lat="42.354457213464784" lon="14.039779465892131"><ele>140.0</ele><time>2026-05-02T07:16:05Z</time></trkpt><trkpt lat="42.35448551239131" lon="14.039620104123694"><ele>140.25</ele><time>2026-05-02T07:16:06Z</time></trkpt><trkpt lat="42.35450964459067" lon="14.039458197685274"><ele>140.5</ele><time>2026-05-02T07:16:07Z</time></trkpt><trkpt lat="42.35453512400863" lon="14.039291921656407"><ele>140.75</ele><time>2026-05-02T07:16:08Z</time></trkpt><trkpt lat="42.35456364250181" lon="14.039126020807545"><ele>141.0</ele><time>2026-05-02T07:16:09Z</time></trkpt><trkpt lat="42.35458941575971" lon="14.038957654853034"><ele>140.25</ele><time>2026-05-02T07:16:10Z</time></trkpt><trkpt lat="42.35461606367117" lon="14.038784138186692"><ele>139.5</ele><time>2026-05-02T07:16:11Z</time></trkpt><trkpt lat="42.35464382033679" lon="14.038607225038497"><ele>138.75</ele><time>2026-05-02T07:16:12Z</time></trkpt><trkpt lat="42.35467471590604" lon="14.038430018484332"><ele>138.0</ele><time>2026-05-02T07:16:13Z</time></trkpt><trkpt lat="42.3547041769887" lon="14.038253608849557"><ele>136.5</ele><time>2026-05-02T07:16:14Z</time></trkpt><trkpt lat="42.35472983618716" lon="14.038073212067752"><ele>135.0</ele><time>2026-05-02T07:16:15Z</time></trkpt><trkpt lat="42.35475800992478" lon="14.037891287949316"><ele>133.5</ele><time>2026-05-02T07:16:16Z</time></trkpt><trkpt lat="42.35478897703259" lon="14.037708397949418"><ele>132.0</ele><time>2026-05-02T07:16:17Z</time></trkpt><trkpt lat="42.35481750081992" lon="14.037525344991828"><ele>132.25</ele><time>2026-05-02T07:16:18Z</time></trkpt><trkpt lat="42.35484345526445" lon="14.03734504692076"><ele>132.5</ele><time>2026-05-02T07:16:19Z</time></trkpt><trkpt lat="42.35486676960092" lon="14.03716317884379"><ele>132.75</ele><time>2026-05-02T07:16:20Z</time></trkpt><trkpt lat="42.35488234350061" lon="14.036980234797188"><ele>133.0</ele><time>2026-05-02T07:16:21Z</time></trkpt><trkpt lat="42.3548894205406" lon="14.036795446960777"><ele>133.25</ele><time>2026-05-02T07:16:22Z</time></trkpt><trkpt lat="42.35488960595541" lon="14.036608712302936"><ele>133.5</ele><time>2026-05-02T07:16:23Z</time></trkpt><trkpt lat="42.35488652476627" lon="14.03641793983229"><ele>133.75</ele><time>2026-05-02T07:16:24Z</time></trkpt><trkpt lat="42.354884710268095" lon="14.036216463835045"><ele>134.0</ele><time>2026-05-02T07:16:25Z</time></trkpt><trkpt lat="42.35488209332457" lon="14.036002895199662"><ele>135.0</ele><time>2026-05-02T07:16:26Z</time></trkpt><trkpt lat="42.35487806107575" lon="14.035784521353618"><ele>136.0</ele><time>2026-05-02T07:16:27Z</time></trkpt><trkpt lat="42.35487567783584" lon="14.035562049820157"><ele>137.0</ele><time>2026-05-02T07:16:28Z</time></trkpt><trkpt lat="42.35487349734722" lon="14.035336908806498"><ele>137.0</ele><time>2026-05-02T07:16:29Z</time></trkpt><trkpt lat="42.354870876033765" lon="14.03512053562407"><ele>137.0</ele><time>2026-05-02T07:16:30Z</time></trkpt><trkpt lat="42.35486806135206" lon="14.034917664302517"><ele>137.0</ele><time>2026-05-02T07:16:31Z</time></trkpt><trkpt lat="42.35486679548519" lon="14.034725344101231"><ele>137.25</ele><time>2026-05-02T07:16:32Z</time></trkpt><trkpt lat="42.354865095818695" lon="14.034536118037638"><ele>137.5</ele><time>2026-05-02T07:16:33Z</time></trkpt><trkpt lat="42.3548629303479" lon="14.034351702520082"><ele>137.75</ele><time>2026-05-02T07:16:34Z</time></trkpt><trkpt lat="42.354860728241775" lon="14.034171324413135"><ele>138.0</ele><time>2026-05-02T07:16:35Z</time></trkpt><trkpt lat="42.354859688316886" lon="14.033991694551935"><ele>138.0</ele><time>2026-05-02T07:16:36Z</time></trkpt><trkpt lat="42.354857959235346" lon="14.033814959717184"><ele>138.0</ele><time>2026-05-02T07:16:37Z</time></trkpt><trkpt lat="42.35485660006837" lon="14.033650647654781"><ele>138.0</ele><time>2026-05-02T07:16:38Z</time></trkpt><trkpt lat="42.35485371979914" lon="14.033507037999527"><ele>138.0</ele><time>2026-05-02T07:16:39Z</time></trkpt><trkpt lat="42.35485196916749" lon="14.033365735985267"><ele>138.25</ele><time>2026-05-02T07:16:40Z</time></trkpt><trkpt lat="42.354849705039214" lon="14.033219333050052"><ele>138.5</ele><time>2026-05-02T07:16:41Z</time></trkpt><trkpt lat="42.354849264989134" lon="14.03306720496082"><ele>138.75</ele><time>2026-05-02T07:16:42Z</time></trkpt><trkpt lat="42.354848392505566" lon="14.032906913022563"><ele>139.0</ele><time>2026-05-02T07:16:43Z</time></trkpt><trkpt lat="42.35484637696066" lon="14.032738953679294"><ele>139.0</ele><time>2026-05-02T07:16:44Z</time></trkpt><trkpt lat="42.354844993948056" lon="14.03256522397576"><ele>139.0</ele><time>2026-05-02T07:16:45Z</time></trkpt><trkpt lat="42.35484455571195" lon="14.032385638580703"><ele>139.0</ele><time>2026-05-02T07:16:46Z</time></trkpt><trkpt lat="42.35484217544358" lon="14.032201661536764"><ele>139.0</ele><time>2026-05-02T07:16:47Z</time></trkpt><trkpt lat="42.35483811354391" lon="14.032025118307589"><ele>139.0</ele><time>2026-05-02T07:16:48Z</time></trkpt><trkpt lat="42.354834921082855" lon="14.031868536937003"><ele>139.0</ele><time>2026-05-02T07:16:49Z</time></trkpt><trkpt lat="42.35483474009739" lon="14.03173141751012"><ele>139.0</ele><time>2026-05-02T07:16:50Z</time></trkpt><trkpt lat="42.35483421395396" lon="14.031607218643641"><ele>139.0</ele><time>2026-05-02T07:16:51Z</time></trkpt><trkpt lat="42.3548336240227" lon="14.031492292086604"><ele>139.0</ele><time>2026-05-02T07:16:52Z</time></trkpt><trkpt lat="42.354832722119774" lon="14.031380887296002"><ele>139.0</ele><time>2026-05-02T07:16:53Z</time></trkpt><trkpt lat="42.35483139399324" lon="14.031263712248338"><ele>139.0</ele><time>2026-05-02T07:16:54Z</time></trkpt><trkpt lat="42.35483025244193" lon="14.031141492890987"><ele>139.0</ele><time>2026-05-02T07:16:55Z</time></trkpt><trkpt lat="42.354828275043985" lon="14.031012297864606"><ele>139.0</ele><time>2026-05-02T07:16:56Z</time></trkpt><trkpt lat="42.354828117020574" lon="14.030884427277819"><ele>139.0</ele><time>2026-05-02T07:16:57Z</time></trkpt><trkpt lat="42.354826697326786" lon="14.030755807766079"><ele>139.4</ele><time>2026-05-02T07:16:58Z</time></trkpt><trkpt lat="42.354823680155626" lon="14.030624155108486"><ele>139.8</ele><time>2026-05-02T07:16:59Z</time></trkpt><trkpt lat="42.35482529119504" lon="14.030485713769316"><ele>140.2</ele><time>2026-05-02T07:17:00Z</time></trkpt><trkpt lat="42.35482612275511" lon="14.0303400566622"><ele>140.6</ele><time>2026-05-02T07:17:01Z</time></trkpt><trkpt lat="42.35482510145792" lon="14.0301911998365"><ele>141.0</ele><time>2026-05-02T07:17:02Z</time></trkpt><trkpt lat="42.35482311360331" lon="14.030037350901019"><ele>141.8</ele><time>2026-05-02T07:17:03Z</time></trkpt><trkpt lat="42.3548205426534" lon="14.02988448184649"><ele>142.6</ele><time>2026-05-02T07:17:04Z</time></trkpt><trkpt lat="42.35481857827607" lon="14.02973138772437"><ele>143.4</ele><time>2026-05-02T07:17:05Z</time></trkpt><trkpt lat="42.354817257836224" lon="14.029581072271528"><ele>144.2</ele><time>2026-05-02T07:17:06Z</time></trkpt><trkpt lat="42.35481594089972" lon="14.029431079517668"><ele>145.0</ele><time>2026-05-02T07:17:07Z</time></trkpt><trkpt lat="42.35481315888784" lon="14.029273016845945"><ele>144.75</ele><time>2026-05-02T07:17:08Z</time></trkpt><trkpt lat="42.35481011914686" lon="14.029112012409287"><ele>144.5</ele><time>2026-05-02T07:17:09Z</time></trkpt><trkpt lat="42.35480527050103" lon="14.028947338576739"><ele>144.25</ele><time>2026-05-02T07:17:10Z</time></trkpt><trkpt lat="42.35480185995839" lon="14.02877754214344"><ele>144.0</ele><time>2026-05-02T07:17:11Z</time></trkpt><trkpt lat="42.35479787744603" lon="14.028605684768316"><ele>144.0</ele><time>2026-05-02T07:17:12Z</time></trkpt><trkpt lat="42.35479733976889" lon="14.028433057210501"><ele>144.0</ele><time>2026-05-02T07:17:13Z</time></trkpt><trkpt lat="42.35479980725339" lon="14.028264306870716"><ele>144.0</ele><time>2026-05-02T07:17:14Z</time></trkpt><trkpt lat="42.354800783422576" lon="14.028097048394518"><ele>144.0</ele><time>2026-05-02T07:17:15Z</time></trkpt><trkpt lat="42.35479772351071" lon="14.027931000270106"><ele>144.25</ele><time>2026-05-02T07:17:16Z</time></trkpt><trkpt lat="42.354795481367574" lon="14.027764862268521"><ele>144.5</ele><time>2026-05-02T07:17:17Z</time></trkpt><trkpt lat="42.35479318522795" lon="14.027600179383487"><ele>144.75</ele><time>2026-05-02T07:17:18Z</time></trkpt><trkpt lat="42.35479063489053" lon="14.027438743502858"><ele>145.0</ele><time>2026-05-02T07:17:19Z</time></trkpt><trkpt lat="42.35478987758405" lon="14.027284655287213"><ele>145.5</ele><time>2026-05-02T07:17:20Z</time></trkpt><trkpt lat="42.354788218092196" lon="14.027130710980112"><ele>146.0</ele><time>2026-05-02T07:17:21Z</time></trkpt><trkpt lat="42.354786954913116" lon="14.026969985044351"><ele>146.5</ele><time>2026-05-02T07:17:22Z</time></trkpt><trkpt lat="42.35478636679793" lon="14.026799327488673"><ele>147.0</ele><time>2026-05-02T07:17:23Z</time></trkpt><trkpt lat="42.35478293392431" lon="14.026621679331292"><ele>147.0</ele><time>2026-05-02T07:17:24Z</time></trkpt><trkpt lat="42.35478015770215" lon="14.026438128927078"><ele>147.0</ele><time>2026-05-02T07:17:25Z</time></trkpt><trkpt lat="42.35477778655202" lon="14.026253707965301"><ele>147.0</ele><time>2026-05-02T07:17:26Z</time></trkpt><trkpt lat="42.354776326292516" lon="14.026072411869281"><ele>147.0</ele><time>2026-05-02T07:17:27Z</time></trkpt><trkpt lat="42.354775862950206" lon="14.02589243426721"><ele>147.5</ele><time>2026-05-02T07:17:28Z</time></trkpt><trkpt lat="42.354773830767954" lon="14.025710442249249"><ele>148.0</ele><time>2026-05-02T07:17:29Z</time></trkpt><trkpt lat="42.354774239648094" lon="14.025531062109762"><ele>148.5</ele><time>2026-05-02T07:17:30Z</time></trkpt><trkpt lat="42.354775036195434" lon="14.025355995921142"><ele>149.0</ele><time>2026-05-02T07:17:31Z</time></trkpt><trkpt lat="42.35477798166621" lon="14.025181543732097"><ele>149.0</ele><time>2026-05-02T07:17:32Z</time></trkpt><trkpt lat="42.35478568329934" lon="14.025007511384437"><ele>149.0</ele><time>2026-05-02T07:17:33Z</time></trkpt><trkpt lat="42.35479322384028" lon="14.024832833806707"><ele>149.0</ele><time>2026-05-02T07:17:34Z</time></trkpt><trkpt lat="42.35480367684089" lon="14.02465985298357"><ele>149.0</ele><time>2026-05-02T07:17:35Z</time></trkpt><trkpt lat="42.35481581303564" lon="14.024487987419695"><ele>149.2</ele><time>2026-05-02T07:17:36Z</time></trkpt><trkpt lat="42.354825262480894" lon="14.024327751305849"><ele>149.4</ele><time>2026-05-02T07:17:37Z</time></trkpt><trkpt lat="42.3548342894856" lon="14.024181211011827"><ele>149.6</ele><time>2026-05-02T07:17:38Z</time></trkpt><trkpt lat="42.35484175187459" lon="14.024054610226235"><ele>149.8</ele><time>2026-05-02T07:17:39Z</time></trkpt><trkpt lat="42.35484993836372" lon="14.023940717462013"><ele>150.0</ele><time>2026-05-02T07:17:40Z</time></trkpt><trkpt lat="42.35485718917075" lon="14.023837892342176"><ele>150.5</ele><time>2026-05-02T07:17:41Z</time></trkpt><trkpt lat="42.35484525267537" lon="14.023701158171475"><ele>151.0</ele><time>2026-05-02T07:17:43Z</time></trkpt><trkpt lat="42.35479524926756" lon="14.023518068661751"><ele>151.5</ele><time>2026-05-02T07:17:45Z</time></trkpt><trkpt lat="42.35467007878661" lon="14.023711128984258"><ele>152.0</ele><time>2026-05-02T07:17:47Z</time></trkpt><trkpt lat="42.354604640852095" lon="14.023776543793701"><ele>152.4</ele><time>2026-05-02T07:17:48Z</time></trkpt><trkpt lat="42.35454999283623" lon="14.023857980901242"><ele>152.79999999999998</ele><time>2026-05-02T07:17:49Z</time></trkpt><trkpt lat="42.354491989445066" lon="14.023947105594164"><ele>153.2</ele><time>2026-05-02T07:17:50Z</time></trkpt><trkpt lat="42.35440864515857" lon="14.024024708359846"><ele>153.6</ele><time>2026-05-02T07:17:51Z</time></trkpt><trkpt lat="42.354339733449535" lon="14.024130105274466"><ele>154.0</ele><time>2026-05-02T07:17:52Z</time></trkpt><trkpt lat="42.3542499738725" lon="14.02420210364528"><ele>154.0</ele><time>2026-05-02T07:17:53Z</time></trkpt><trkpt lat="42.35418865908629" lon="14.024269402812866"><ele>154.0</ele><time>2026-05-02T07:17:54Z</time></trkpt><trkpt lat="42.354092457576456" lon="14.024332799640675"><ele>154.0</ele><time>2026-05-02T07:17:56Z</time></trkpt><trkpt lat="42.3540194014055" lon="14.02428329487373"><ele>154.0</ele><time>2026-05-02T07:17:58Z</time></trkpt><trkpt lat="42.353889875002324" lon="14.024211210652968"><ele>154.0</ele><time>2026-05-02T07:18:00Z</time></trkpt><trkpt lat="42.353820240054624" lon="14.024157684455327"><ele>154.66666666666669</ele><time>2026-05-02T07:18:01Z</time></trkpt><trkpt lat="42.35374751769235" lon="14.024120273505158"><ele>155.33333333333334</ele><time>2026-05-02T07:18:02Z</time></trkpt><trkpt lat="42.35367434810202" lon="14.024089015406304"><ele>156.0</ele><time>2026-05-02T07:18:03Z</time></trkpt><trkpt lat="42.353594254133796" lon="14.024071109038148"><ele>156.66666666666666</ele><time>2026-05-02T07:18:04Z</time></trkpt><trkpt lat="42.35351591318647" lon="14.024065400834639"><ele>157.33333333333331</ele><time>2026-05-02T07:18:05Z</time></trkpt><trkpt lat="42.353442589403826" lon="14.024068179621555"><ele>158.0</ele><time>2026-05-02T07:18:06Z</time></trkpt><trkpt lat="42.35337081092936" lon="14.024041580688563"><ele>158.0</ele><time>2026-05-02T07:18:07Z</time></trkpt><trkpt lat="42.353279852160014" lon="14.024028580165227"><ele>158.0</ele><time>2026-05-02T07:18:08Z</time></trkpt><trkpt lat="42.35318677120639" lon="14.0240081463796"><ele>158.0</ele><time>2026-05-02T07:18:09Z</time></trkpt><trkpt lat="42.35308047281149" lon="14.023986455819646"><ele>158.0</ele><time>2026-05-02T07:18:10Z</time></trkpt><trkpt lat="42.35297938524018" lon="14.023968140900408"><ele>158.0</ele><time>2026-05-02T07:18:11Z</time></trkpt><trkpt lat="42.35287002703561" lon="14.023948221157694"><ele>159.60000000000002</ele><time>2026-05-02T07:18:12Z</time></trkpt><trkpt lat="42.35277227633035" lon="14.023930415740612"><ele>161.20000000000002</ele><time>2026-05-02T07:18:13Z</time></trkpt><trkpt lat="42.352671296955485" lon="14.023912022214864"><ele>162.8</ele><time>2026-05-02T07:18:14Z</time></trkpt><trkpt lat="42.352572492107065" lon="14.023895206097194"><ele>164.4</ele><time>2026-05-02T07:18:15Z</time></trkpt><trkpt lat="42.35248671624444" lon="14.023882943074103"><ele>166.0</ele><time>2026-05-02T07:18:16Z</time></trkpt><trkpt lat="42.35239600754361" lon="14.023872267192866"><ele>166.0</ele><time>2026-05-02T07:18:17Z</time></trkpt><trkpt lat="42.3523048668242" lon="14.02386563172803"><ele>166.0</ele><time>2026-05-02T07:18:18Z</time></trkpt><trkpt lat="42.35222045400979" lon="14.02388175177614"><ele>166.0</ele><time>2026-05-02T07:18:19Z</time></trkpt><trkpt lat="42.35213361777483" lon="14.023864510430373"><ele>166.0</ele><time>2026-05-02T07:18:20Z</time></trkpt><trkpt lat="42.352062876725604" lon="14.02389434063404"><ele>166.0</ele><time>2026-05-02T07:18:21Z</time></trkpt><trkpt lat="42.35199717367112" lon="14.023906067370893"><ele>166.0</ele><time>2026-05-02T07:18:22Z</time></trkpt><trkpt lat="42.35192101611055" lon="14.023931131720223"><ele>167.16666666666669</ele><time>2026-05-02T07:18:23Z</time></trkpt><trkpt lat="42.35183156340165" lon="14.023969289760585"><ele>168.33333333333334</ele><time>2026-05-02T07:18:24Z</time></trkpt><trkpt lat="42.351738144148435" lon="14.024006114422653"><ele>169.5</ele><time>2026-05-02T07:18:25Z</time></trkpt><trkpt lat="42.35164840760723" lon="14.024040335332757"><ele>170.66666666666666</ele><time>2026-05-02T07:18:26Z</time></trkpt><trkpt lat="42.351569563060565" lon="14.024039144316305"><ele>171.83333333333331</ele><time>2026-05-02T07:18:27Z</time></trkpt><trkpt lat="42.351496368631594" lon="14.024048764903341"><ele>173.0</ele><time>2026-05-02T07:18:28Z</time></trkpt><trkpt lat="42.35137476771982" lon="14.024020501570922"><ele>174.33333333333331</ele><time>2026-05-02T07:18:30Z</time></trkpt><trkpt lat="42.35131423125276" lon="14.023989802835715"><ele>175.66666666666666</ele><time>2026-05-02T07:18:31Z</time></trkpt><trkpt lat="42.35124820260737" lon="14.023881565230944"><ele>177.0</ele><time>2026-05-02T07:18:33Z</time></trkpt><trkpt lat="42.3512185416116" lon="14.02378887988349"><ele>178.33333333333334</ele><time>2026-05-02T07:18:34Z</time></trkpt><trkpt lat="42.351187015977224" lon="14.023687793724584"><ele>179.66666666666669</ele><time>2026-05-02T07:18:35Z</time></trkpt><trkpt lat="42.35115464536904" lon="14.023579714722475"><ele>181.0</ele><time>2026-05-02T07:18:36Z</time></trkpt><trkpt lat="42.351119907747595" lon="14.023467325099958"><ele>181.0</ele><time>2026-05-02T07:18:37Z</time></trkpt><trkpt lat="42.35107996012774" lon="14.023363289416938"><ele>181.0</ele><time>2026-05-02T07:18:38Z</time></trkpt><trkpt lat="42.351020923117495" lon="14.023285419763702"><ele>181.0</ele><time>2026-05-02T07:18:39Z</time></trkpt><trkpt lat="42.35097446092869" lon="14.023207051921117"><ele>181.0</ele><time>2026-05-02T07:18:40Z</time></trkpt><trkpt lat="42.35091513599545" lon="14.023138201693182"><ele>181.0</ele><time>2026-05-02T07:18:41Z</time></trkpt><trkpt lat="42.3508646787086" lon="14.02304605924033"><ele>181.0</ele><time>2026-05-02T07:18:42Z</time></trkpt><trkpt lat="42.350806084213446" lon="14.022963540783453"><ele>182.0</ele><time>2026-05-02T07:18:43Z</time></trkpt><trkpt lat="42.35074486689135" lon="14.022876992972682"><ele>183.0</ele><time>2026-05-02T07:18:44Z</time></trkpt><trkpt lat="42.35067605889508" lon="14.022777034083388"><ele>184.0</ele><time>2026-05-02T07:18:45Z</time></trkpt><trkpt lat="42.35060460241852" lon="14.022673227688415"><ele>185.0</ele><time>2026-05-02T07:18:46Z</time></trkpt><trkpt lat="42.35052782359988" lon="14.0225840635972"><ele>186.0</ele><time>2026-05-02T07:18:47Z</time></trkpt><trkpt lat="42.350472905680775" lon="14.022469729459633"><ele>186.66666666666666</ele><time>2026-05-02T07:18:48Z</time></trkpt><trkpt lat="42.35041562071207" lon="14.022385511781524"><ele>187.33333333333334</ele><time>2026-05-02T07:18:49Z</time></trkpt><trkpt lat="42.35034998214351" lon="14.022321536030711"><ele>188.0</ele><time>2026-05-02T07:18:50Z</time></trkpt><trkpt lat="42.35029771469619" lon="14.02224449279632"><ele>188.66666666666669</ele><time>2026-05-02T07:18:51Z</time></trkpt><trkpt lat="42.35022744154253" lon="14.022214599966242"><ele>189.33333333333334</ele><time>2026-05-02T07:18:52Z</time></trkpt><trkpt lat="42.35016246412694" lon="14.022198486998017"><ele>190.0</ele><time>2026-05-02T07:18:53Z</time></trkpt><trkpt lat="42.35009471276481" lon="14.022234825831198"><ele>190.0</ele><time>2026-05-02T07:18:54Z</time></trkpt><trkpt lat="42.35003284024312" lon="14.022339682073516"><ele>190.0</ele><time>2026-05-02T07:18:55Z</time></trkpt><trkpt lat="42.34994607474543" lon="14.022398933286436"><ele>190.0</ele><time>2026-05-02T07:18:56Z</time></trkpt><trkpt lat="42.34985858856305" lon="14.022477402238392"><ele>190.0</ele><time>2026-05-02T07:18:57Z</time></trkpt><trkpt lat="42.34977158731425" lon="14.022555436269503"><ele>190.0</ele><time>2026-05-02T07:18:58Z</time></trkpt><trkpt lat="42.34968744034447" lon="14.022630910197858"><ele>190.0</ele><time>2026-05-02T07:18:59Z</time></trkpt><trkpt lat="42.34960141626329" lon="14.022709483018733"><ele>190.0</ele><time>2026-05-02T07:19:00Z</time></trkpt><trkpt lat="42.34950583591206" lon="14.02279750177667"><ele>190.0</ele><time>2026-05-02T07:19:01Z</time></trkpt><trkpt lat="42.349407872479006" lon="14.02288785647946"><ele>190.0</ele><time>2026-05-02T07:19:02Z</time></trkpt><trkpt lat="42.34931495798735" lon="14.023001388602438"><ele>190.0</ele><time>2026-05-02T07:19:03Z</time></trkpt><trkpt lat="42.34920540715364" lon="14.023080855366565"><ele>190.0</ele><time>2026-05-02T07:19:04Z</time></trkpt><trkpt lat="42.34912093594537" lon="14.023164273570805"><ele>190.0</ele><time>2026-05-02T07:19:05Z</time></trkpt><trkpt lat="42.3490492380155" lon="14.02323507772589"><ele>190.0</ele><time>2026-05-02T07:19:06Z</time></trkpt><trkpt lat="42.348991569323964" lon="14.023288176557417"><ele>190.0</ele><time>2026-05-02T07:19:07Z</time></trkpt><trkpt lat="42.348892758884816" lon="14.023333326145348"><ele>191.25</ele><time>2026-05-02T07:19:09Z</time></trkpt><trkpt lat="42.34882924102141" lon="14.023255431408575"><ele>192.5</ele><time>2026-05-02T07:19:11Z</time></trkpt><trkpt lat="42.348747651134495" lon="14.023078900189018"><ele>193.75</ele><time>2026-05-02T07:19:13Z</time></trkpt><trkpt lat="42.348680338826156" lon="14.02295738604959"><ele>195.0</ele><time>2026-05-02T07:19:14Z</time></trkpt><trkpt lat="42.34859725168668" lon="14.022853895840088"><ele>195.0</ele><time>2026-05-02T07:19:15Z</time></trkpt><trkpt lat="42.348560872032714" lon="14.022690375327818"><ele>195.0</ele><time>2026-05-02T07:19:16Z</time></trkpt><trkpt lat="42.34848219672518" lon="14.022540464385195"><ele>195.0</ele><time>2026-05-02T07:19:17Z</time></trkpt><trkpt lat="42.34839543183175" lon="14.02238374978161"><ele>195.0</ele><time>2026-05-02T07:19:18Z</time></trkpt><trkpt lat="42.348297981927416" lon="14.02223022950353"><ele>195.0</ele><time>2026-05-02T07:19:19Z</time></trkpt><trkpt lat="42.348197027726954" lon="14.02208442642975"><ele>195.0</ele><time>2026-05-02T07:19:20Z</time></trkpt><trkpt lat="42.34809913471585" lon="14.021947171538706"><ele>195.0</ele><time>2026-05-02T07:19:21Z</time></trkpt><trkpt lat="42.34800005775937" lon="14.021808256623281"><ele>195.0</ele><time>2026-05-02T07:19:22Z</time></trkpt><trkpt lat="42.34790470146161" lon="14.021674558252485"><ele>195.25</ele><time>2026-05-02T07:19:23Z</time></trkpt><trkpt lat="42.34781412173183" lon="14.021547612209444"><ele>195.5</ele><time>2026-05-02T07:19:24Z</time></trkpt><trkpt lat="42.347726899689555" lon="14.021424337634578"><ele>195.75</ele><time>2026-05-02T07:19:25Z</time></trkpt><trkpt lat="42.34764163159961" lon="14.021301899135194"><ele>196.0</ele><time>2026-05-02T07:19:26Z</time></trkpt><trkpt lat="42.347558116665795" lon="14.021182095211234"><ele>196.0</ele><time>2026-05-02T07:19:27Z</time></trkpt><trkpt lat="42.3474739874169" lon="14.021063546808096"><ele>196.0</ele><time>2026-05-02T07:19:28Z</time></trkpt><trkpt lat="42.34739348201347" lon="14.020948032768072"><ele>196.0</ele><time>2026-05-02T07:19:29Z</time></trkpt><trkpt lat="42.34731679869785" lon="14.020828585663864"><ele>196.0</ele><time>2026-05-02T07:19:30Z</time></trkpt><trkpt lat="42.347242458687084" lon="14.020701217143245"><ele>196.5</ele><time>2026-05-02T07:19:31Z</time></trkpt><trkpt lat="42.34716795966727" lon="14.02057179088725"><ele>197.0</ele><time>2026-05-02T07:19:32Z</time></trkpt><trkpt lat="42.34709075848095" lon="14.020437670171042"><ele>197.5</ele><time>2026-05-02T07:19:33Z</time></trkpt><trkpt lat="42.34701407813054" lon="14.020301910887854"><ele>198.0</ele><time>2026-05-02T07:19:34Z</time></trkpt><trkpt lat="42.34694299203591" lon="14.020167027785028"><ele>198.0</ele><time>2026-05-02T07:19:35Z</time></trkpt><trkpt lat="42.34687527132217" lon="14.020029125962335"><ele>198.0</ele><time>2026-05-02T07:19:36Z</time></trkpt><trkpt lat="42.346807162759866" lon="14.019888863773234"><ele>198.0</ele><time>2026-05-02T07:19:37Z</time></trkpt><trkpt lat="42.346738273810985" lon="14.01975115056369"><ele>198.0</ele><time>2026-05-02T07:19:38Z</time></trkpt><trkpt lat="42.34666998712963" lon="14.01961308172575"><ele>197.75</ele><time>2026-05-02T07:19:39Z</time></trkpt><trkpt lat="42.34658772144558" lon="14.019480975148715"><ele>197.5</ele><time>2026-05-02T07:19:40Z</time></trkpt><trkpt lat="42.34652145924024" lon="14.019332657496546"><ele>197.25</ele><time>2026-05-02T07:19:41Z</time></trkpt><trkpt lat="42.34645443678654" lon="14.019188855516397"><ele>197.0</ele><time>2026-05-02T07:19:42Z</time></trkpt><trkpt lat="42.34640438187522" lon="14.019035701013081"><ele>198.0</ele><time>2026-05-02T07:19:43Z</time></trkpt><trkpt lat="42.34634250521737" lon="14.018891185422621"><ele>199.0</ele><time>2026-05-02T07:19:44Z</time></trkpt><trkpt lat="42.34628170464363" lon="14.018747016690655"><ele>200.0</ele><time>2026-05-02T07:19:45Z</time></trkpt><trkpt lat="42.34621645237169" lon="14.018601769752207"><ele>201.0</ele><time>2026-05-02T07:19:46Z</time></trkpt><trkpt lat="42.346146490265994" lon="14.01846297946056"><ele>201.0</ele><time>2026-05-02T07:19:47Z</time></trkpt><trkpt lat="42.34607608260193" lon="14.018326426044265"><ele>201.0</ele><time>2026-05-02T07:19:48Z</time></trkpt><trkpt lat="42.34598940371" lon="14.018198374097633"><ele>201.0</ele><time>2026-05-02T07:19:49Z</time></trkpt><trkpt lat="42.34591889638723" lon="14.018059653468956"><ele>201.0</ele><time>2026-05-02T07:19:50Z</time></trkpt><trkpt lat="42.34584630387756" lon="14.017924183646947"><ele>201.5</ele><time>2026-05-02T07:19:51Z</time></trkpt><trkpt lat="42.34577487960829" lon="14.017786016752595"><ele>202.0</ele><time>2026-05-02T07:19:52Z</time></trkpt><trkpt lat="42.345704882199435" lon="14.017650154458467"><ele>202.5</ele><time>2026-05-02T07:19:53Z</time></trkpt><trkpt lat="42.34563184229043" lon="14.017520199283823"><ele>203.0</ele><time>2026-05-02T07:19:54Z</time></trkpt><trkpt lat="42.34555859919524" lon="14.017388834381872"><ele>203.5</ele><time>2026-05-02T07:19:55Z</time></trkpt><trkpt lat="42.345482379922046" lon="14.017256177157606"><ele>204.0</ele><time>2026-05-02T07:19:56Z</time></trkpt><trkpt lat="42.34540647798401" lon="14.017121577618305"><ele>204.5</ele><time>2026-05-02T07:19:57Z</time></trkpt><trkpt lat="42.34533395378409" lon="14.016980512532864"><ele>205.0</ele><time>2026-05-02T07:19:58Z</time></trkpt><trkpt lat="42.34526444260682" lon="14.016837847022872"><ele>205.0</ele><time>2026-05-02T07:19:59Z</time></trkpt><trkpt lat="42.345202221711844" lon="14.016695995622497"><ele>205.0</ele><time>2026-05-02T07:20:00Z</time></trkpt><trkpt lat="42.345149398329816" lon="14.016556438968285"><ele>205.0</ele><time>2026-05-02T07:20:01Z</time></trkpt><trkpt lat="42.34510466108969" lon="14.016423209537066"><ele>205.0</ele><time>2026-05-02T07:20:02Z</time></trkpt><trkpt lat="42.34507243242431" lon="14.016314253010382"><ele>205.0</ele><time>2026-05-02T07:20:03Z</time></trkpt><trkpt lat="42.345039647793456" lon="14.016232404504075"><ele>205.5</ele><time>2026-05-02T07:20:04Z</time></trkpt><trkpt lat="42.34502967879706" lon="14.01612078396585"><ele>206.0</ele><time>2026-05-02T07:20:06Z</time></trkpt><trkpt lat="42.34487150805249" lon="14.016171211948377"><ele>206.5</ele><time>2026-05-02T07:20:07Z</time></trkpt><trkpt lat="42.34477253933893" lon="14.01617016198038"><ele>207.0</ele><time>2026-05-02T07:20:08Z</time></trkpt><trkpt lat="42.344668073061" lon="14.01619198627246"><ele>207.0</ele><time>2026-05-02T07:20:09Z</time></trkpt><trkpt lat="42.34456039840289" lon="14.016214480836483"><ele>207.0</ele><time>2026-05-02T07:20:10Z</time></trkpt><trkpt lat="42.344451965756164" lon="14.01623713374853"><ele>207.0</ele><time>2026-05-02T07:20:11Z</time></trkpt><trkpt lat="42.34434322681544" lon="14.016257370424018"><ele>207.0</ele><time>2026-05-02T07:20:12Z</time></trkpt><trkpt lat="42.3442370222044" lon="14.016274810883601"><ele>207.0</ele><time>2026-05-02T07:20:13Z</time></trkpt><trkpt lat="42.344134408644706" lon="14.016293098011818"><ele>207.0</ele><time>2026-05-02T07:20:14Z</time></trkpt><trkpt lat="42.34403871655119" lon="14.016317033754765"><ele>207.0</ele><time>2026-05-02T07:20:15Z</time></trkpt><trkpt lat="42.343952215575094" lon="14.016339327299924"><ele>207.0</ele><time>2026-05-02T07:20:16Z</time></trkpt><trkpt lat="42.343876702385515" lon="14.016349949118789"><ele>207.0</ele><time>2026-05-02T07:20:17Z</time></trkpt><trkpt lat="42.343793275228975" lon="14.016341343116768"><ele>207.0</ele><time>2026-05-02T07:20:18Z</time></trkpt><trkpt lat="42.343704549825404" lon="14.01632290209791"><ele>207.0</ele><time>2026-05-02T07:20:19Z</time></trkpt><trkpt lat="42.34361362517478" lon="14.016303435196473"><ele>206.39999999999998</ele><time>2026-05-02T07:20:20Z</time></trkpt><trkpt lat="42.34352369317834" lon="14.016282869005128"><ele>205.79999999999998</ele><time>2026-05-02T07:20:21Z</time></trkpt><trkpt lat="42.343435826274046" lon="14.016260848659144"><ele>205.2</ele><time>2026-05-02T07:20:22Z</time></trkpt><trkpt lat="42.343348361481915" lon="14.016235370188944"><ele>204.6</ele><time>2026-05-02T07:20:23Z</time></trkpt><trkpt lat="42.34325968995952" lon="14.016206216126792"><ele>204.0</ele><time>2026-05-02T07:20:24Z</time></trkpt><trkpt lat="42.343168335727206" lon="14.016175752960402"><ele>204.0</ele><time>2026-05-02T07:20:25Z</time></trkpt><trkpt lat="42.343081330512575" lon="14.016146942862592"><ele>204.0</ele><time>2026-05-02T07:20:26Z</time></trkpt><trkpt lat="42.34299929748865" lon="14.016119779233309"><ele>204.0</ele><time>2026-05-02T07:20:27Z</time></trkpt><trkpt lat="42.34292424937483" lon="14.016094928512262"><ele>204.0</ele><time>2026-05-02T07:20:28Z</time></trkpt><trkpt lat="42.342860291947105" lon="14.016096297803092"><ele>204.0</ele><time>2026-05-02T07:20:29Z</time></trkpt><trkpt lat="42.34276408365024" lon="14.01610383767771"><ele>204.0</ele><time>2026-05-02T07:20:31Z</time></trkpt><trkpt lat="42.342701096323616" lon="14.01615936790382"><ele>202.16666666666666</ele><time>2026-05-02T07:20:33Z</time></trkpt><trkpt lat="42.342659424418414" lon="14.0162383448562"><ele>200.33333333333331</ele><time>2026-05-02T07:21:07Z</time></trkpt><trkpt lat="42.342633560401964" lon="14.01632064801505"><ele>198.5</ele><time>2026-05-02T07:21:10Z</time></trkpt><trkpt lat="42.342605897505045" lon="14.016420536957687"><ele>196.66666666666666</ele><time>2026-05-02T07:21:13Z</time></trkpt><trkpt lat="42.34257794930973" lon="14.016521456094319"><ele>194.83333333333331</ele><time>2026-05-02T07:21:15Z</time></trkpt><trkpt lat="42.34253338060977" lon="14.016685976248583"><ele>193.0</ele><time>2026-05-02T07:21:17Z</time></trkpt><trkpt lat="42.34251887855398" lon="14.016813334260545"><ele>192.60000000000002</ele><time>2026-05-02T07:21:19Z</time></trkpt><trkpt lat="42.342511105818936" lon="14.016915683826218"><ele>192.20000000000002</ele><time>2026-05-02T07:21:21Z</time></trkpt><trkpt lat="42.3423354224504" lon="14.017058648394531"><ele>191.8</ele><time>2026-05-02T07:21:27Z</time></trkpt><trkpt lat="42.34227257239525" lon="14.017096444633696"><ele>191.4</ele><time>2026-05-02T07:21:29Z</time></trkpt><trkpt lat="42.3422151771683" lon="14.017132079225123"><ele>191.0</ele><time>2026-05-02T07:21:32Z</time></trkpt><trkpt lat="42.34213829795694" lon="14.017189442681236"><ele>189.16666666666666</ele><time>2026-05-02T07:21:35Z</time></trkpt><trkpt lat="42.342077812925794" lon="14.017243068949307"><ele>187.33333333333331</ele><time>2026-05-02T07:21:37Z</time></trkpt><trkpt lat="42.342007614380734" lon="14.017314651537033"><ele>185.5</ele><time>2026-05-02T07:21:39Z</time></trkpt><trkpt lat="42.34192524003878" lon="14.017388625524788"><ele>183.66666666666666</ele><time>2026-05-02T07:21:41Z</time></trkpt><trkpt lat="42.34186773344983" lon="14.017425695672866"><ele>181.83333333333334</ele><time>2026-05-02T07:21:43Z</time></trkpt><trkpt lat="42.3418031405671" lon="14.017469846275695"><ele>180.0</ele><time>2026-05-02T07:21:46Z</time></trkpt><trkpt lat="42.34172813801142" lon="14.017477663478372"><ele>180.0</ele><time>2026-05-02T07:21:49Z</time></trkpt><trkpt lat="42.34179705201596" lon="14.017485204973788"><ele>180.0</ele><time>2026-05-02T07:21:57Z</time></trkpt><trkpt lat="42.34185938584304" lon="14.017436468119548"><ele>180.0</ele><time>2026-05-02T07:21:59Z</time></trkpt><trkpt lat="42.34193839995362" lon="14.017376706309172"><ele>180.0</ele><time>2026-05-02T07:22:01Z</time></trkpt><trkpt lat="42.342011708133754" lon="14.01731021920323"><ele>180.0</ele><time>2026-05-02T07:22:03Z</time></trkpt><trkpt lat="42.3420784801573" lon="14.017248279018517"><ele>180.0</ele><time>2026-05-02T07:22:05Z</time></trkpt><trkpt lat="42.34213504799407" lon="14.017199669114248"><ele>180.0</ele><time>2026-05-02T07:22:07Z</time></trkpt><trkpt lat="42.34221544955865" lon="14.017131107381736"><ele>180.0</ele><time>2026-05-02T07:22:10Z</time></trkpt><trkpt lat="42.34218355205138" lon="14.017043410679687"><ele>180.0</ele><time>2026-05-02T07:22:26Z</time></trkpt><trkpt lat="42.342061350755436" lon="14.01693889694654"><ele>180.0</ele><time>2026-05-02T07:22:28Z</time></trkpt><trkpt lat="42.34201192967118" lon="14.016860751473185"><ele>180.0</ele><time>2026-05-02T07:22:29Z</time></trkpt><trkpt lat="42.341952958637066" lon="14.016814425821272"><ele>180.0</ele><time>2026-05-02T07:22:30Z</time></trkpt><trkpt lat="42.34189327915935" lon="14.016767041299957"><ele>180.0</ele><time>2026-05-02T07:22:31Z</time></trkpt><trkpt lat="42.34183175011986" lon="14.016719048755448"><ele>180.0</ele><time>2026-05-02T07:22:32Z</time></trkpt><trkpt lat="42.34177082886357" lon="14.016671756308435"><ele>180.0</ele><time>2026-05-02T07:22:33Z</time></trkpt><trkpt lat="42.341708019834115" lon="14.01662343237484"><ele>180.0</ele><time>2026-05-02T07:22:34Z</time></trkpt><trkpt lat="42.341642515160515" lon="14.01657351296772"><ele>180.0</ele><time>2026-05-02T07:22:35Z</time></trkpt><trkpt lat="42.34157390961871" lon="14.016521960434703"><ele>180.0</ele><time>2026-05-02T07:22:36Z</time></trkpt><trkpt lat="42.34150465016007" lon="14.016471316363676"><ele>179.7142857142857</ele><time>2026-05-02T07:22:37Z</time></trkpt><trkpt lat="42.34143409157321" lon="14.016418067109727"><ele>179.42857142857144</ele><time>2026-05-02T07:22:38Z</time></trkpt><trkpt lat="42.3413656413032" lon="14.016363938490159"><ele>179.14285714285714</ele><time>2026-05-02T07:22:39Z</time></trkpt><trkpt lat="42.34130078349536" lon="14.01630873706388"><ele>178.85714285714283</ele><time>2026-05-02T07:22:40Z</time></trkpt><trkpt lat="42.341241745507745" lon="14.016257982727115"><ele>178.57142857142856</ele><time>2026-05-02T07:22:41Z</time></trkpt><trkpt lat="42.341186673925435" lon="14.016210638277434"><ele>178.28571428571428</ele><time>2026-05-02T07:22:42Z</time></trkpt><trkpt lat="42.341129114649355" lon="14.016161155195153"><ele>178.0</ele><time>2026-05-02T07:22:43Z</time></trkpt><trkpt lat="42.34106847091676" lon="14.016109020275438"><ele>178.33333333333334</ele><time>2026-05-02T07:22:44Z</time></trkpt><trkpt lat="42.34100507326989" lon="14.016042039038368"><ele>178.66666666666669</ele><time>2026-05-02T07:22:45Z</time></trkpt><trkpt lat="42.340941327433946" lon="14.015951950716309"><ele>179.0</ele><time>2026-05-02T07:22:46Z</time></trkpt><trkpt lat="42.3408866747897" lon="14.01587073385415"><ele>179.33333333333334</ele><time>2026-05-02T07:22:47Z</time></trkpt><trkpt lat="42.34082940366421" lon="14.015779148199332"><ele>179.66666666666666</ele><time>2026-05-02T07:22:48Z</time></trkpt><trkpt lat="42.34078722326036" lon="14.015703707102249"><ele>180.0</ele><time>2026-05-02T07:22:49Z</time></trkpt><trkpt lat="42.34072423306699" lon="14.015613179579724"><ele>180.0</ele><time>2026-05-02T07:22:50Z</time></trkpt><trkpt lat="42.34068559671503" lon="14.015512211582424"><ele>180.0</ele><time>2026-05-02T07:22:51Z</time></trkpt><trkpt lat="42.340657421664254" lon="14.01541127149816"><ele>180.0</ele><time>2026-05-02T07:22:52Z</time></trkpt><trkpt lat="42.3406247436681" lon="14.015330468687116"><ele>180.0</ele><time>2026-05-02T07:22:53Z</time></trkpt><trkpt lat="42.34058573232796" lon="14.015247430401486"><ele>180.0</ele><time>2026-05-02T07:22:54Z</time></trkpt><trkpt lat="42.34049391750786" lon="14.015142854595954"><ele>180.0</ele><time>2026-05-02T07:22:56Z</time></trkpt><trkpt lat="42.340413227298484" lon="14.015179174233253"><ele>180.8</ele><time>2026-05-02T07:22:57Z</time></trkpt><trkpt lat="42.34033461389385" lon="14.015216383611778"><ele>181.6</ele><time>2026-05-02T07:22:58Z</time></trkpt><trkpt lat="42.340249939494456" lon="14.015279813819589"><ele>182.39999999999998</ele><time>2026-05-02T07:22:59Z</time></trkpt><trkpt lat="42.34014772822221" lon="14.015349055186585"><ele>183.2</ele><time>2026-05-02T07:23:00Z</time></trkpt><trkpt lat="42.340062065331004" lon="14.015409850094676"><ele>184.0</ele><time>2026-05-02T07:23:01Z</time></trkpt><trkpt lat="42.33999598967564" lon="14.015438910158782"><ele>184.0</ele><time>2026-05-02T07:23:02Z</time></trkpt><trkpt lat="42.33993754850722" lon="14.015487490172127"><ele>184.0</ele><time>2026-05-02T07:23:03Z</time></trkpt><trkpt lat="42.339895598011715" lon="14.015558874908775"><ele>184.0</ele><time>2026-05-02T07:23:04Z</time></trkpt><trkpt lat="42.33979707590573" lon="14.015644742154135"><ele>184.0</ele><time>2026-05-02T07:23:06Z</time></trkpt><trkpt lat="42.33967862997386" lon="14.015667793714432"><ele>184.0</ele><time>2026-05-02T07:23:08Z</time></trkpt><trkpt lat="42.339611676487046" lon="14.015641367304879"><ele>184.0</ele><time>2026-05-02T07:23:09Z</time></trkpt><trkpt lat="42.33954597388667" lon="14.015587598405533"><ele>183.16666666666669</ele><time>2026-05-02T07:23:10Z</time></trkpt><trkpt lat="42.33946398384411" lon="14.015529661799"><ele>182.33333333333334</ele><time>2026-05-02T07:23:11Z</time></trkpt><trkpt lat="42.33938116630841" lon="14.015474580199102"><ele>181.5</ele><time>2026-05-02T07:23:12Z</time></trkpt><trkpt lat="42.339316055744945" lon="14.015436806452641"><ele>180.66666666666666</ele><time>2026-05-02T07:23:13Z</time></trkpt><trkpt lat="42.33925932351219" lon="14.015321298554229"><ele>179.83333333333331</ele><time>2026-05-02T07:23:15Z</time></trkpt><trkpt lat="42.339231458412875" lon="14.015220316548644"><ele>179.0</ele><time>2026-05-02T07:23:16Z</time></trkpt><trkpt lat="42.33920302342942" lon="14.015111831146129"><ele>179.0</ele><time>2026-05-02T07:23:17Z</time></trkpt><trkpt lat="42.33916751910192" lon="14.015008902670578"><ele>179.0</ele><time>2026-05-02T07:23:18Z</time></trkpt><trkpt lat="42.3391242691665" lon="14.014904494872638"><ele>179.0</ele><time>2026-05-02T07:23:19Z</time></trkpt><trkpt lat="42.33907663193873" lon="14.014795414942467"><ele>179.0</ele><time>2026-05-02T07:23:20Z</time></trkpt><trkpt lat="42.33902945329602" lon="14.014680715073283"><ele>179.0</ele><time>2026-05-02T07:23:21Z</time></trkpt><trkpt lat="42.33898756266971" lon="14.014577210936332"><ele>178.39999999999998</ele><time>2026-05-02T07:23:22Z</time></trkpt><trkpt lat="42.338947125519276" lon="14.014469092153352"><ele>177.8</ele><time>2026-05-02T07:23:23Z</time></trkpt><trkpt lat="42.338902861420145" lon="14.014355517080322"><ele>177.2</ele><time>2026-05-02T07:23:24Z</time></trkpt><trkpt lat="42.33885629540183" lon="14.014247069912695"><ele>176.60000000000002</ele><time>2026-05-02T07:23:25Z</time></trkpt><trkpt lat="42.33880907181776" lon="14.014133975634854"><ele>176.0</ele><time>2026-05-02T07:23:26Z</time></trkpt><trkpt lat="42.33876080221329" lon="14.014019932283693"><ele>177.60000000000002</ele><time>2026-05-02T07:23:27Z</time></trkpt><trkpt lat="42.33870889809361" lon="14.0138954860352"><ele>179.2</ele><time>2026-05-02T07:23:28Z</time></trkpt><trkpt lat="42.338670759770125" lon="14.01377048599651"><ele>180.8</ele><time>2026-05-02T07:23:29Z</time></trkpt><trkpt lat="42.33863240558413" lon="14.013654326855635"><ele>182.39999999999998</ele><time>2026-05-02T07:23:30Z</time></trkpt><trkpt lat="42.33858799102776" lon="14.013520561782842"><ele>184.0</ele><time>2026-05-02T07:23:31Z</time></trkpt><trkpt lat="42.33853813518611" lon="14.01337933901305"><ele>185.39999999999998</ele><time>2026-05-02T07:23:32Z</time></trkpt><trkpt lat="42.338493500807274" lon="14.013249344890284"><ele>186.8</ele><time>2026-05-02T07:23:33Z</time></trkpt><trkpt lat="42.33845688854952" lon="14.0131221548621"><ele>188.2</ele><time>2026-05-02T07:23:34Z</time></trkpt><trkpt lat="42.33842049399069" lon="14.013011376786714"><ele>189.60000000000002</ele><time>2026-05-02T07:23:35Z</time></trkpt><trkpt lat="42.33838993127879" lon="14.01292523322424"><ele>191.0</ele><time>2026-05-02T07:23:36Z</time></trkpt><trkpt lat="42.338346464435595" lon="14.012805099358593"><ele>191.0</ele><time>2026-05-02T07:23:38Z</time></trkpt><trkpt lat="42.3383980969654" lon="14.012704194060431"><ele>191.0</ele><time>2026-05-02T07:23:41Z</time></trkpt><trkpt lat="42.33850879883097" lon="14.012645169213318"><ele>191.0</ele><time>2026-05-02T07:23:43Z</time></trkpt><trkpt lat="42.33859279718028" lon="14.012593058059812"><ele>191.0</ele><time>2026-05-02T07:23:44Z</time></trkpt><trkpt lat="42.33868041365284" lon="14.01252611291759"><ele>191.0</ele><time>2026-05-02T07:23:45Z</time></trkpt><trkpt lat="42.338777068989494" lon="14.012471420973604"><ele>192.16666666666666</ele><time>2026-05-02T07:23:46Z</time></trkpt><trkpt lat="42.338843300591726" lon="14.012427645471586"><ele>193.33333333333331</ele><time>2026-05-02T07:23:47Z</time></trkpt><trkpt lat="42.33886917740671" lon="14.012344659702212"><ele>194.5</ele><time>2026-05-02T07:23:50Z</time></trkpt><trkpt lat="42.33879342391634" lon="14.012312498520592"><ele>195.66666666666666</ele><time>2026-05-02T07:23:52Z</time></trkpt><trkpt lat="42.33868559635133" lon="14.012312313897555"><ele>196.83333333333334</ele><time>2026-05-02T07:23:53Z</time></trkpt><trkpt lat="42.338571528384286" lon="14.012274301639124"><ele>198.0</ele><time>2026-05-02T07:23:54Z</time></trkpt><trkpt lat="42.33846389115506" lon="14.012199045417896"><ele>198.0</ele><time>2026-05-02T07:23:55Z</time></trkpt><trkpt lat="42.33835570917393" lon="14.0121365504031"><ele>198.0</ele><time>2026-05-02T07:23:56Z</time></trkpt><trkpt lat="42.33824420785061" lon="14.012094891165335"><ele>198.0</ele><time>2026-05-02T07:23:57Z</time></trkpt><trkpt lat="42.3381335327976" lon="14.012056997605086"><ele>198.0</ele><time>2026-05-02T07:23:58Z</time></trkpt><trkpt lat="42.33802707447189" lon="14.012015557774156"><ele>196.0</ele><time>2026-05-02T07:23:59Z</time></trkpt><trkpt lat="42.33792344556403" lon="14.011971931138142"><ele>194.0</ele><time>2026-05-02T07:24:00Z</time></trkpt><trkpt lat="42.3378253527646" lon="14.01191547332891"><ele>192.0</ele><time>2026-05-02T07:24:01Z</time></trkpt><trkpt lat="42.33773065305363" lon="14.011839817235565"><ele>190.0</ele><time>2026-05-02T07:24:02Z</time></trkpt><trkpt lat="42.33762796336244" lon="14.011752939447328"><ele>188.0</ele><time>2026-05-02T07:24:03Z</time></trkpt><trkpt lat="42.33752769567162" lon="14.011659697179358"><ele>189.4</ele><time>2026-05-02T07:24:04Z</time></trkpt><trkpt lat="42.3374372672506" lon="14.011568054767158"><ele>190.8</ele><time>2026-05-02T07:24:05Z</time></trkpt><trkpt lat="42.33735774659474" lon="14.011468271998075"><ele>192.2</ele><time>2026-05-02T07:24:06Z</time></trkpt><trkpt lat="42.33729490709311" lon="14.011358308216955"><ele>193.6</ele><time>2026-05-02T07:24:07Z</time></trkpt><trkpt lat="42.337237830070436" lon="14.011239774260654"><ele>195.0</ele><time>2026-05-02T07:24:08Z</time></trkpt><trkpt lat="42.33717955865276" lon="14.01111998873215"><ele>192.66666666666666</ele><time>2026-05-02T07:24:09Z</time></trkpt><trkpt lat="42.337117252860764" lon="14.011011737891934"><ele>190.33333333333334</ele><time>2026-05-02T07:24:10Z</time></trkpt><trkpt lat="42.33706108387694" lon="14.010937711494009"><ele>188.0</ele><time>2026-05-02T07:24:11Z</time></trkpt><trkpt lat="42.33699556530041" lon="14.010887906073213"><ele>185.66666666666669</ele><time>2026-05-02T07:24:12Z</time></trkpt><trkpt lat="42.336910827842935" lon="14.010885315784062"><ele>183.33333333333334</ele><time>2026-05-02T07:24:13Z</time></trkpt><trkpt lat="42.33681901278651" lon="14.010918786148649"><ele>181.0</ele><time>2026-05-02T07:24:14Z</time></trkpt><trkpt lat="42.33672815548956" lon="14.010977961984343"><ele>181.0</ele><time>2026-05-02T07:24:15Z</time></trkpt><trkpt lat="42.33663483614092" lon="14.011039155117626"><ele>181.0</ele><time>2026-05-02T07:24:16Z</time></trkpt><trkpt lat="42.33653462873414" lon="14.01110080674861"><ele>181.0</ele><time>2026-05-02T07:24:17Z</time></trkpt><trkpt lat="42.336443887698294" lon="14.01116618292609"><ele>181.0</ele><time>2026-05-02T07:24:18Z</time></trkpt><trkpt lat="42.33636800735945" lon="14.011253522403644"><ele>181.0</ele><time>2026-05-02T07:24:19Z</time></trkpt><trkpt lat="42.33631389282391" lon="14.011374221765386"><ele>183.20000000000002</ele><time>2026-05-02T07:24:20Z</time></trkpt><trkpt lat="42.33626563959776" lon="14.011504952490576"><ele>185.4</ele><time>2026-05-02T07:24:21Z</time></trkpt><trkpt lat="42.336214931191314" lon="14.011636687261573"><ele>187.6</ele><time>2026-05-02T07:24:22Z</time></trkpt><trkpt lat="42.336156449914526" lon="14.011762150086001"><ele>189.8</ele><time>2026-05-02T07:24:23Z</time></trkpt><trkpt lat="42.33610919189607" lon="14.01189353280384"><ele>192.0</ele><time>2026-05-02T07:24:24Z</time></trkpt><trkpt lat="42.336075485677775" lon="14.01203868622553"><ele>192.39999999999998</ele><time>2026-05-02T07:24:25Z</time></trkpt><trkpt lat="42.33603089450662" lon="14.012169385194092"><ele>192.79999999999998</ele><time>2026-05-02T07:24:26Z</time></trkpt><trkpt lat="42.336007356194564" lon="14.01230594051773"><ele>193.2</ele><time>2026-05-02T07:24:27Z</time></trkpt><trkpt lat="42.33600300818479" lon="14.012446071269018"><ele>193.6</ele><time>2026-05-02T07:24:28Z</time></trkpt><trkpt lat="42.33601120512698" lon="14.012588428285268"><ele>194.0</ele><time>2026-05-02T07:24:29Z</time></trkpt><trkpt lat="42.33600462687126" lon="14.012727872637216"><ele>195.25</ele><time>2026-05-02T07:24:30Z</time></trkpt><trkpt lat="42.33600968050135" lon="14.012874871584172"><ele>196.5</ele><time>2026-05-02T07:24:31Z</time></trkpt><trkpt lat="42.33601485187737" lon="14.013025242517847"><ele>197.75</ele><time>2026-05-02T07:24:32Z</time></trkpt><trkpt lat="42.336019257721944" lon="14.013180482485472"><ele>199.0</ele><time>2026-05-02T07:24:33Z</time></trkpt><trkpt lat="42.336023684082335" lon="14.013336445639219"><ele>200.0</ele><time>2026-05-02T07:24:34Z</time></trkpt><trkpt lat="42.33602817512226" lon="14.013494687450834"><ele>201.0</ele><time>2026-05-02T07:24:35Z</time></trkpt><trkpt lat="42.33603258600409" lon="14.013650105068578"><ele>202.0</ele><time>2026-05-02T07:24:36Z</time></trkpt><trkpt lat="42.33603691507767" lon="14.013802640482568"><ele>203.0</ele><time>2026-05-02T07:24:37Z</time></trkpt><trkpt lat="42.336041264278805" lon="14.013955884788066"><ele>203.0</ele><time>2026-05-02T07:24:38Z</time></trkpt><trkpt lat="42.33604306885037" lon="14.014107442689815"><ele>203.0</ele><time>2026-05-02T07:24:39Z</time></trkpt><trkpt lat="42.33604305284211" lon="14.01426115487755"><ele>203.0</ele><time>2026-05-02T07:24:40Z</time></trkpt><trkpt lat="42.3360439901583" lon="14.014413376130625"><ele>203.0</ele><time>2026-05-02T07:24:41Z</time></trkpt><trkpt lat="42.33605422389095" lon="14.014557050704541"><ele>203.0</ele><time>2026-05-02T07:24:42Z</time></trkpt><trkpt lat="42.336078088047756" lon="14.014691275532352"><ele>203.2</ele><time>2026-05-02T07:24:43Z</time></trkpt><trkpt lat="42.33611938206285" lon="14.014809064845611"><ele>203.4</ele><time>2026-05-02T07:24:44Z</time></trkpt><trkpt lat="42.33615175510935" lon="14.014921034969332"><ele>203.6</ele><time>2026-05-02T07:24:45Z</time></trkpt><trkpt lat="42.336175238966" lon="14.015012981237994"><ele>203.79999999999998</ele><time>2026-05-02T07:24:46Z</time></trkpt><trkpt lat="42.33616738891936" lon="14.015121962786623"><ele>204.0</ele><time>2026-05-02T07:24:48Z</time></trkpt><trkpt lat="42.336048722270924" lon="14.015149396248432"><ele>204.0</ele><time>2026-05-02T07:24:50Z</time></trkpt><trkpt lat="42.335990495999326" lon="14.015108936547222"><ele>204.0</ele><time>2026-05-02T07:24:51Z</time></trkpt><trkpt lat="42.33592765591024" lon="14.015040294413184"><ele>204.0</ele><time>2026-05-02T07:24:52Z</time></trkpt><trkpt lat="42.335863894680855" lon="14.014983148097674"><ele>204.0</ele><time>2026-05-02T07:24:53Z</time></trkpt><trkpt lat="42.33578853981829" lon="14.014948495685449"><ele>204.0</ele><time>2026-05-02T07:24:55Z</time></trkpt><trkpt lat="42.3357535512009" lon="14.014837409290351"><ele>204.0</ele><time>2026-05-02T07:24:58Z</time></trkpt><trkpt lat="42.335687856833374" lon="14.014737920398161"><ele>204.0</ele><time>2026-05-02T07:25:04Z</time></trkpt><trkpt lat="42.33565892155405" lon="14.014588632500828"><ele>204.0</ele><time>2026-05-02T07:25:06Z</time></trkpt><trkpt lat="42.33550391392751" lon="14.014592215384358"><ele>204.0</ele><time>2026-05-02T07:25:07Z</time></trkpt><trkpt lat="42.33539970795886" lon="14.014587319215202"><ele>204.0</ele><time>2026-05-02T07:25:08Z</time></trkpt><trkpt lat="42.33528479528886" lon="14.014580338366569"><ele>204.75</ele><time>2026-05-02T07:25:09Z</time></trkpt><trkpt lat="42.33516754222196" lon="14.014562289416045"><ele>205.5</ele><time>2026-05-02T07:25:10Z</time></trkpt><trkpt lat="42.33504649625789" lon="14.014544212868827"><ele>206.25</ele><time>2026-05-02T07:25:11Z</time></trkpt><trkpt lat="42.33491682142254" lon="14.014526349832282"><ele>207.0</ele><time>2026-05-02T07:25:12Z</time></trkpt><trkpt lat="42.334780816222214" lon="14.01450813383851"><ele>205.25</ele><time>2026-05-02T07:25:13Z</time></trkpt><trkpt lat="42.334642806715806" lon="14.014487428120479"><ele>203.5</ele><time>2026-05-02T07:25:14Z</time></trkpt><trkpt lat="42.334503990119735" lon="14.01446822274117"><ele>201.75</ele><time>2026-05-02T07:25:15Z</time></trkpt><trkpt lat="42.3343661753166" lon="14.01445210893178"><ele>200.0</ele><time>2026-05-02T07:25:16Z</time></trkpt><trkpt lat="42.33422992315658" lon="14.014434923014317"><ele>200.0</ele><time>2026-05-02T07:25:17Z</time></trkpt><trkpt lat="42.33409387993732" lon="14.014414249565316"><ele>200.0</ele><time>2026-05-02T07:25:18Z</time></trkpt><trkpt lat="42.33395919531267" lon="14.01439681628405"><ele>200.0</ele><time>2026-05-02T07:25:19Z</time></trkpt><trkpt lat="42.33382524373001" lon="14.01438214987298"><ele>200.0</ele><time>2026-05-02T07:25:20Z</time></trkpt><trkpt lat="42.333694066263305" lon="14.014365312159832"><ele>199.0</ele><time>2026-05-02T07:25:21Z</time></trkpt><trkpt lat="42.33356355074453" lon="14.014348703303332"><ele>198.0</ele><time>2026-05-02T07:25:22Z</time></trkpt><trkpt lat="42.33343397480528" lon="14.014331084740373"><ele>197.0</ele><time>2026-05-02T07:25:23Z</time></trkpt><trkpt lat="42.3333054775183" lon="14.014314384981548"><ele>196.0</ele><time>2026-05-02T07:25:24Z</time></trkpt><trkpt lat="42.33317629387465" lon="14.014297913505583"><ele>195.25</ele><time>2026-05-02T07:25:25Z</time></trkpt><trkpt lat="42.33304817773143" lon="14.014280748975246"><ele>194.5</ele><time>2026-05-02T07:25:26Z</time></trkpt><trkpt lat="42.33292113080711" lon="14.014262846652802"><ele>193.75</ele><time>2026-05-02T07:25:27Z</time></trkpt><trkpt lat="42.33279462942309" lon="14.01424592740692"><ele>193.0</ele><time>2026-05-02T07:25:28Z</time></trkpt><trkpt lat="42.33267324981316" lon="14.014227951511318"><ele>193.0</ele><time>2026-05-02T07:25:29Z</time></trkpt><trkpt lat="42.33256427404565" lon="14.014212843907835"><ele>193.0</ele><time>2026-05-02T07:25:30Z</time></trkpt><trkpt lat="42.33246381295237" lon="14.014200493981956"><ele>193.0</ele><time>2026-05-02T07:25:31Z</time></trkpt><trkpt lat="42.33236764361557" lon="14.01419054626172"><ele>193.0</ele><time>2026-05-02T07:25:32Z</time></trkpt><trkpt lat="42.33227388681928" lon="14.014187398842783"><ele>193.0</ele><time>2026-05-02T07:25:33Z</time></trkpt><trkpt lat="42.3321921307002" lon="14.014192851778002"><ele>191.49999999999997</ele><time>2026-05-02T07:25:34Z</time></trkpt><trkpt lat="42.33212645192595" lon="14.014201702927474"><ele>190.0</ele><time>2026-05-02T07:25:35Z</time></trkpt><trkpt lat="42.3320438578933" lon="14.014213256004957"><ele>188.5</ele><time>2026-05-02T07:25:37Z</time></trkpt><trkpt lat="42.33196055568299" lon="14.014251391418115"><ele>187.0</ele><time>2026-05-02T07:25:39Z</time></trkpt><trkpt lat="42.33190073797894" lon="14.01428817036753"><ele>185.5</ele><time>2026-05-02T07:25:40Z</time></trkpt><trkpt lat="42.33182977426712" lon="14.014336409192053"><ele>184.0</ele><time>2026-05-02T07:25:41Z</time></trkpt><trkpt lat="42.331741932590624" lon="14.014371992452913"><ele>184.0</ele><time>2026-05-02T07:25:42Z</time></trkpt><trkpt lat="42.33165369936632" lon="14.014434264789365"><ele>184.0</ele><time>2026-05-02T07:25:43Z</time></trkpt><trkpt lat="42.33156136164069" lon="14.01450233156582"><ele>184.0</ele><time>2026-05-02T07:25:44Z</time></trkpt><trkpt lat="42.33146883939557" lon="14.014571415332878"><ele>184.0</ele><time>2026-05-02T07:25:45Z</time></trkpt><trkpt lat="42.33137909075364" lon="14.014638427838332"><ele>184.0</ele><time>2026-05-02T07:25:46Z</time></trkpt><trkpt lat="42.331298543910236" lon="14.014723007532668"><ele>182.6</ele><time>2026-05-02T07:25:47Z</time></trkpt><trkpt lat="42.33120934585561" lon="14.014790789667492"><ele>181.2</ele><time>2026-05-02T07:25:48Z</time></trkpt><trkpt lat="42.33111761003498" lon="14.014862667681312"><ele>179.79999999999998</ele><time>2026-05-02T07:25:49Z</time></trkpt><trkpt lat="42.33102329970611" lon="14.014928532269336"><ele>178.39999999999998</ele><time>2026-05-02T07:25:50Z</time></trkpt><trkpt lat="42.33092289284049" lon="14.014985083246396"><ele>177.0</ele><time>2026-05-02T07:25:51Z</time></trkpt><trkpt lat="42.330822710272066" lon="14.015021530303018"><ele>177.0</ele><time>2026-05-02T07:25:52Z</time></trkpt><trkpt lat="42.330725383494624" lon="14.015036571362682"><ele>177.0</ele><time>2026-05-02T07:25:53Z</time></trkpt><trkpt lat="42.330631041383135" lon="14.01503537739531"><ele>177.0</ele><time>2026-05-02T07:25:54Z</time></trkpt><trkpt lat="42.33053913849152" lon="14.015014478572521"><ele>177.0</ele><time>2026-05-02T07:25:55Z</time></trkpt><trkpt lat="42.33044520560461" lon="14.01497437926847"><ele>177.0</ele><time>2026-05-02T07:25:56Z</time></trkpt><trkpt lat="42.33035344290776" lon="14.014917374407855"><ele>175.6</ele><time>2026-05-02T07:25:57Z</time></trkpt><trkpt lat="42.33026935474265" lon="14.014835512973077"><ele>174.2</ele><time>2026-05-02T07:25:58Z</time></trkpt><trkpt lat="42.33019092422614" lon="14.01473818844894"><ele>172.8</ele><time>2026-05-02T07:25:59Z</time></trkpt><trkpt lat="42.330113922186506" lon="14.014628864086044"><ele>171.4</ele><time>2026-05-02T07:26:00Z</time></trkpt><trkpt lat="42.330030255496304" lon="14.014510452213322"><ele>170.0</ele><time>2026-05-02T07:26:01Z</time></trkpt><trkpt lat="42.32994115583708" lon="14.014385981978615"><ele>170.0</ele><time>2026-05-02T07:26:02Z</time></trkpt><trkpt lat="42.32984924248756" lon="14.014251985349933"><ele>170.0</ele><time>2026-05-02T07:26:03Z</time></trkpt><trkpt lat="42.329754782228704" lon="14.014111021703293"><ele>170.0</ele><time>2026-05-02T07:26:04Z</time></trkpt><trkpt lat="42.32966047572108" lon="14.013967109744074"><ele>170.0</ele><time>2026-05-02T07:26:05Z</time></trkpt><trkpt lat="42.32956890347886" lon="14.013826674299006"><ele>168.25</ele><time>2026-05-02T07:26:06Z</time></trkpt><trkpt lat="42.32947860079361" lon="14.013686821193954"><ele>166.5</ele><time>2026-05-02T07:26:07Z</time></trkpt><trkpt lat="42.32938956925567" lon="14.013548968384615"><ele>164.75</ele><time>2026-05-02T07:26:08Z</time></trkpt><trkpt lat="42.32930203469492" lon="14.013412398657263"><ele>163.0</ele><time>2026-05-02T07:26:09Z</time></trkpt><trkpt lat="42.329220490842815" lon="14.013272140204476"><ele>161.75</ele><time>2026-05-02T07:26:10Z</time></trkpt><trkpt lat="42.32914210013654" lon="14.01312893845759"><ele>160.5</ele><time>2026-05-02T07:26:11Z</time></trkpt><trkpt lat="42.32906517503112" lon="14.012983458493865"><ele>159.25</ele><time>2026-05-02T07:26:12Z</time></trkpt><trkpt lat="42.32898720881579" lon="14.012841279243826"><ele>158.0</ele><time>2026-05-02T07:26:13Z</time></trkpt><trkpt lat="42.32890546869697" lon="14.012703111982283"><ele>158.0</ele><time>2026-05-02T07:26:14Z</time></trkpt><trkpt lat="42.32881742025412" lon="14.012573667656238"><ele>158.0</ele><time>2026-05-02T07:26:15Z</time></trkpt><trkpt lat="42.32871596248419" lon="14.012464906556104"><ele>158.0</ele><time>2026-05-02T07:26:16Z</time></trkpt><trkpt lat="42.32860242685687" lon="14.012379328950182"><ele>158.0</ele><time>2026-05-02T07:26:17Z</time></trkpt><trkpt lat="42.328477921002296" lon="14.01231329656259"><ele>158.0</ele><time>2026-05-02T07:26:18Z</time></trkpt><trkpt lat="42.32834738775129" lon="14.012256697029526"><ele>158.0</ele><time>2026-05-02T07:26:19Z</time></trkpt><trkpt lat="42.328217509572596" lon="14.0121995913982"><ele>158.0</ele><time>2026-05-02T07:26:20Z</time></trkpt><trkpt lat="42.328087391251245" lon="14.012143789709201"><ele>158.0</ele><time>2026-05-02T07:26:21Z</time></trkpt><trkpt lat="42.32795899578134" lon="14.012086231188311"><ele>157.0</ele><time>2026-05-02T07:26:22Z</time></trkpt><trkpt lat="42.32783151356697" lon="14.01203161277794"><ele>156.0</ele><time>2026-05-02T07:26:23Z</time></trkpt><trkpt lat="42.32770293550723" lon="14.011983492961205"><ele>155.0</ele><time>2026-05-02T07:26:24Z</time></trkpt><trkpt lat="42.327573414653784" lon="14.011934354398853"><ele>154.0</ele><time>2026-05-02T07:26:25Z</time></trkpt><trkpt lat="42.3274501870634" lon="14.01188621211353"><ele>154.0</ele><time>2026-05-02T07:26:26Z</time></trkpt><trkpt lat="42.327334184696795" lon="14.011843799014587"><ele>154.0</ele><time>2026-05-02T07:26:27Z</time></trkpt><trkpt lat="42.32722279476965" lon="14.011810298699004"><ele>154.0</ele><time>2026-05-02T07:26:28Z</time></trkpt><trkpt lat="42.32711885356896" lon="14.011782557531594"><ele>154.0</ele><time>2026-05-02T07:26:29Z</time></trkpt><trkpt lat="42.32702241295663" lon="14.011751855364647"><ele>154.0</ele><time>2026-05-02T07:26:30Z</time></trkpt><trkpt lat="42.326934048529985" lon="14.01171056421072"><ele>153.2</ele><time>2026-05-02T07:26:31Z</time></trkpt><trkpt lat="42.326852209309116" lon="14.011656408261999"><ele>152.4</ele><time>2026-05-02T07:26:32Z</time></trkpt><trkpt lat="42.32677142601557" lon="14.011610468785792"><ele>151.6</ele><time>2026-05-02T07:26:33Z</time></trkpt><trkpt lat="42.326717015019554" lon="14.01147214493711"><ele>150.8</ele><time>2026-05-02T07:26:34Z</time></trkpt><trkpt lat="42.326665345115714" lon="14.011340572651157"><ele>150.0</ele><time>2026-05-02T07:26:35Z</time></trkpt><trkpt lat="42.32661631604539" lon="14.01119523247945"><ele>150.0</ele><time>2026-05-02T07:26:36Z</time></trkpt><trkpt lat="42.32656527731821" lon="14.011039994863463"><ele>150.0</ele><time>2026-05-02T07:26:37Z</time></trkpt><trkpt lat="42.32651012994044" lon="14.010878941118941"><ele>150.0</ele><time>2026-05-02T07:26:38Z</time></trkpt><trkpt lat="42.32645393693331" lon="14.010715764489117"><ele>150.0</ele><time>2026-05-02T07:26:39Z</time></trkpt><trkpt lat="42.32639848832705" lon="14.010547832471303"><ele>148.75</ele><time>2026-05-02T07:26:40Z</time></trkpt><trkpt lat="42.326341685211524" lon="14.010379363935035"><ele>147.5</ele><time>2026-05-02T07:26:41Z</time></trkpt><trkpt lat="42.326284386864096" lon="14.010214870864083"><ele>146.25</ele><time>2026-05-02T07:26:42Z</time></trkpt><trkpt lat="42.32622901911974" lon="14.010052344050413"><ele>145.0</ele><time>2026-05-02T07:26:43Z</time></trkpt><trkpt lat="42.32617187507852" lon="14.009893261971087"><ele>145.0</ele><time>2026-05-02T07:26:44Z</time></trkpt><trkpt lat="42.32611367089339" lon="14.00973607532067"><ele>145.0</ele><time>2026-05-02T07:26:45Z</time></trkpt><trkpt lat="42.326074928355666" lon="14.009564163340752"><ele>145.0</ele><time>2026-05-02T07:26:46Z</time></trkpt><trkpt lat="42.326008084551084" lon="14.009402638136574"><ele>145.0</ele><time>2026-05-02T07:26:47Z</time></trkpt><trkpt lat="42.325957873925454" lon="14.00922773767429"><ele>144.5</ele><time>2026-05-02T07:26:48Z</time></trkpt><trkpt lat="42.3259046743424" lon="14.009058142350364"><ele>144.0</ele><time>2026-05-02T07:26:49Z</time></trkpt><trkpt lat="42.32585064747798" lon="14.00889079336636"><ele>143.5</ele><time>2026-05-02T07:26:50Z</time></trkpt><trkpt lat="42.32579716631692" lon="14.00872565216853"><ele>143.0</ele><time>2026-05-02T07:26:51Z</time></trkpt><trkpt lat="42.3257429187526" lon="14.008562625660696"><ele>143.0</ele><time>2026-05-02T07:26:52Z</time></trkpt><trkpt lat="42.32568698187651" lon="14.008399710694931"><ele>143.0</ele><time>2026-05-02T07:26:53Z</time></trkpt><trkpt lat="42.32562957666203" lon="14.008238241907062"><ele>143.0</ele><time>2026-05-02T07:26:54Z</time></trkpt><trkpt lat="42.32556479976524" lon="14.008078154425405"><ele>143.0</ele><time>2026-05-02T07:26:55Z</time></trkpt><trkpt lat="42.325490424749816" lon="14.007908186160487"><ele>142.0</ele><time>2026-05-02T07:26:56Z</time></trkpt><trkpt lat="42.32541466609236" lon="14.007745315699283"><ele>141.0</ele><time>2026-05-02T07:26:57Z</time></trkpt><trkpt lat="42.325334127228594" lon="14.007580198885544"><ele>140.0</ele><time>2026-05-02T07:26:58Z</time></trkpt><trkpt lat="42.32525406777315" lon="14.007408428070947"><ele>139.0</ele><time>2026-05-02T07:26:59Z</time></trkpt><trkpt lat="42.32518136601291" lon="14.007227909211718"><ele>138.0</ele><time>2026-05-02T07:27:00Z</time></trkpt><trkpt lat="42.32511726178027" lon="14.00703951248493"><ele>137.0</ele><time>2026-05-02T07:27:01Z</time></trkpt><trkpt lat="42.32506107637134" lon="14.006846103207085"><ele>136.0</ele><time>2026-05-02T07:27:02Z</time></trkpt><trkpt lat="42.325014064466" lon="14.006649313455375"><ele>135.75</ele><time>2026-05-02T07:27:03Z</time></trkpt><trkpt lat="42.324966149098834" lon="14.006457352687741"><ele>135.5</ele><time>2026-05-02T07:27:04Z</time></trkpt><trkpt lat="42.32491859738035" lon="14.006267623993956"><ele>135.25</ele><time>2026-05-02T07:27:05Z</time></trkpt><trkpt lat="42.32487323193171" lon="14.006078269398072"><ele>135.0</ele><time>2026-05-02T07:27:06Z</time></trkpt><trkpt lat="42.324826268594464" lon="14.005880367032507"><ele>133.33333333333334</ele><time>2026-05-02T07:27:07Z</time></trkpt><trkpt lat="42.32477864392448" lon="14.00567668217059"><ele>131.66666666666669</ele><time>2026-05-02T07:27:08Z</time></trkpt><trkpt lat="42.324727573416425" lon="14.005470661171383"><ele>130.0</ele><time>2026-05-02T07:27:09Z</time></trkpt><trkpt lat="42.324673847408114" lon="14.005264167185592"><ele>130.0</ele><time>2026-05-02T07:27:10Z</time></trkpt><trkpt lat="42.32461402085263" lon="14.005056823285916"><ele>130.0</ele><time>2026-05-02T07:27:11Z</time></trkpt><trkpt lat="42.32454916291995" lon="14.00485023341733"><ele>130.0</ele><time>2026-05-02T07:27:12Z</time></trkpt><trkpt lat="42.324480137021204" lon="14.004646726730083"><ele>131.66666666666669</ele><time>2026-05-02T07:27:13Z</time></trkpt><trkpt lat="42.32440730074161" lon="14.004447278670085"><ele>133.33333333333334</ele><time>2026-05-02T07:27:14Z</time></trkpt><trkpt lat="42.324333095641016" lon="14.004255537064225"><ele>135.0</ele><time>2026-05-02T07:27:15Z</time></trkpt><trkpt lat="42.32425958884815" lon="14.00406335472784"><ele>136.33333333333334</ele><time>2026-05-02T07:27:16Z</time></trkpt><trkpt lat="42.32418760944709" lon="14.00387262398568"><ele>137.66666666666669</ele><time>2026-05-02T07:27:17Z</time></trkpt><trkpt lat="42.32411342722156" lon="14.00368177977258"><ele>139.0</ele><time>2026-05-02T07:27:18Z</time></trkpt><trkpt lat="42.324037043007905" lon="14.003487166629291"><ele>138.0</ele><time>2026-05-02T07:27:19Z</time></trkpt><trkpt lat="42.323963084344776" lon="14.00328742264274"><ele>137.0</ele><time>2026-05-02T07:27:20Z</time></trkpt><trkpt lat="42.32389030712617" lon="14.003082956883553"><ele>136.0</ele><time>2026-05-02T07:27:21Z</time></trkpt><trkpt lat="42.3238169223774" lon="14.002879688531072"><ele>136.0</ele><time>2026-05-02T07:27:22Z</time></trkpt><trkpt lat="42.3237442776035" lon="14.002673573795304"><ele>136.0</ele><time>2026-05-02T07:27:23Z</time></trkpt><trkpt lat="42.32367176989583" lon="14.002466074476184"><ele>136.0</ele><time>2026-05-02T07:27:24Z</time></trkpt><trkpt lat="42.32359913187948" lon="14.00225957722367"><ele>136.66666666666669</ele><time>2026-05-02T07:27:25Z</time></trkpt><trkpt lat="42.323528319776" lon="14.002054919813633"><ele>137.33333333333334</ele><time>2026-05-02T07:27:26Z</time></trkpt><trkpt lat="42.32345916475423" lon="14.00184845357397"><ele>138.0</ele><time>2026-05-02T07:27:27Z</time></trkpt><trkpt lat="42.32339010067756" lon="14.001641607993767"><ele>138.66666666666666</ele><time>2026-05-02T07:27:28Z</time></trkpt><trkpt lat="42.32332035295618" lon="14.001434135295352"><ele>139.33333333333331</ele><time>2026-05-02T07:27:29Z</time></trkpt><trkpt lat="42.32325171116325" lon="14.001229081986864"><ele>140.0</ele><time>2026-05-02T07:27:30Z</time></trkpt><trkpt lat="42.3231818350405" lon="14.001022938414435"><ele>141.66666666666666</ele><time>2026-05-02T07:27:31Z</time></trkpt><trkpt lat="42.32311392762735" lon="14.000817489467176"><ele>143.33333333333334</ele><time>2026-05-02T07:27:32Z</time></trkpt><trkpt lat="42.32304503340584" lon="14.000613272787621"><ele>145.0</ele><time>2026-05-02T07:27:33Z</time></trkpt><trkpt lat="42.32297687014781" lon="14.00041425758345"><ele>141.66666666666669</ele><time>2026-05-02T07:27:34Z</time></trkpt><trkpt lat="42.322913236261265" lon="14.000217845494445"><ele>138.33333333333334</ele><time>2026-05-02T07:27:35Z</time></trkpt><trkpt lat="42.322850009300396" lon="14.000022553766685"><ele>135.0</ele><time>2026-05-02T07:27:36Z</time></trkpt><trkpt lat="42.322786681238945" lon="13.999828155328936"><ele>135.0</ele><time>2026-05-02T07:27:37Z</time></trkpt><trkpt lat="42.32272220324496" lon="13.999637011559399"><ele>135.0</ele><time>2026-05-02T07:27:38Z</time></trkpt><trkpt lat="42.322658211526" lon="13.999447702805066"><ele>135.0</ele><time>2026-05-02T07:27:39Z</time></trkpt><trkpt lat="42.32259564481959" lon="13.999257298557355"><ele>136.33333333333334</ele><time>2026-05-02T07:27:40Z</time></trkpt><trkpt lat="42.32253694524691" lon="13.999069819036789"><ele>137.66666666666669</ele><time>2026-05-02T07:27:41Z</time></trkpt><trkpt lat="42.32247830990838" lon="13.998883884702233"><ele>139.0</ele><time>2026-05-02T07:27:42Z</time></trkpt><trkpt lat="42.32241878475607" lon="13.99869586464268"><ele>139.0</ele><time>2026-05-02T07:27:43Z</time></trkpt><trkpt lat="42.322357644538215" lon="13.998507171761245"><ele>139.0</ele><time>2026-05-02T07:27:44Z</time></trkpt><trkpt lat="42.32229599568487" lon="13.998315296982835"><ele>139.0</ele><time>2026-05-02T07:27:45Z</time></trkpt><trkpt lat="42.3222363629282" lon="13.998120552928405"><ele>136.0</ele><time>2026-05-02T07:27:46Z</time></trkpt><trkpt lat="42.322176110609924" lon="13.99792221875739"><ele>133.0</ele><time>2026-05-02T07:27:47Z</time></trkpt><trkpt lat="42.322115820743" lon="13.997721186266924"><ele>130.0</ele><time>2026-05-02T07:27:48Z</time></trkpt><trkpt lat="42.32205407285913" lon="13.997517537478736"><ele>131.33333333333334</ele><time>2026-05-02T07:27:49Z</time></trkpt><trkpt lat="42.32198881066376" lon="13.997309373225514"><ele>132.66666666666666</ele><time>2026-05-02T07:27:50Z</time></trkpt><trkpt lat="42.32192287057106" lon="13.99709833434555"><ele>134.0</ele><time>2026-05-02T07:27:51Z</time></trkpt><trkpt lat="42.32185777035577" lon="13.996882709925144"><ele>133.66666666666666</ele><time>2026-05-02T07:27:52Z</time></trkpt><trkpt lat="42.32179168623288" lon="13.996664591517396"><ele>133.33333333333334</ele><time>2026-05-02T07:27:53Z</time></trkpt><trkpt lat="42.321722970531006" lon="13.996447723182774"><ele>133.0</ele><time>2026-05-02T07:27:54Z</time></trkpt><trkpt lat="42.321653815128" lon="13.996231748157074"><ele>133.0</ele><time>2026-05-02T07:27:55Z</time></trkpt><trkpt lat="42.32158314497561" lon="13.9960169257675"><ele>133.0</ele><time>2026-05-02T07:27:56Z</time></trkpt><trkpt lat="42.32151254676784" lon="13.995806034436605"><ele>133.0</ele><time>2026-05-02T07:27:57Z</time></trkpt><trkpt lat="42.32144170217166" lon="13.995598818849508"><ele>133.0</ele><time>2026-05-02T07:27:58Z</time></trkpt><trkpt lat="42.32137043566701" lon="13.995395945881532"><ele>133.0</ele><time>2026-05-02T07:27:59Z</time></trkpt><trkpt lat="42.3212976721436" lon="13.995197474342582"><ele>133.0</ele><time>2026-05-02T07:28:00Z</time></trkpt><trkpt lat="42.32122659582743" lon="13.995001224061232"><ele>133.0</ele><time>2026-05-02T07:28:01Z</time></trkpt><trkpt lat="42.321155480937676" lon="13.994807310291538"><ele>133.0</ele><time>2026-05-02T07:28:02Z</time></trkpt><trkpt lat="42.32108626809794" lon="13.994621261435368"><ele>133.0</ele><time>2026-05-02T07:28:03Z</time></trkpt><trkpt lat="42.32101859585052" lon="13.994443359099607"><ele>133.0</ele><time>2026-05-02T07:28:04Z</time></trkpt><trkpt lat="42.32095265415609" lon="13.994277501151355"><ele>133.0</ele><time>2026-05-02T07:28:05Z</time></trkpt><trkpt lat="42.32088836241105" lon="13.99412864390844"><ele>133.0</ele><time>2026-05-02T07:28:06Z</time></trkpt><trkpt lat="42.32082755723226" lon="13.993991553953467"><ele>133.0</ele><time>2026-05-02T07:28:07Z</time></trkpt><trkpt lat="42.32077405361093" lon="13.993876975576939"><ele>133.20000000000002</ele><time>2026-05-02T07:28:08Z</time></trkpt><trkpt lat="42.32072672694173" lon="13.99378607581904"><ele>133.4</ele><time>2026-05-02T07:28:09Z</time></trkpt><trkpt lat="42.32068226418623" lon="13.993711479863919"><ele>133.60000000000002</ele><time>2026-05-02T07:28:10Z</time></trkpt><trkpt lat="42.32062711609395" lon="13.993595683353368"><ele>133.8</ele><time>2026-05-02T07:28:12Z</time></trkpt><trkpt lat="42.32045004213463" lon="13.993653888774023"><ele>134.0</ele><time>2026-05-02T07:28:14Z</time></trkpt><trkpt lat="42.320398970975354" lon="13.993738176838201"><ele>135.0</ele><time>2026-05-02T07:28:15Z</time></trkpt><trkpt lat="42.320321208636145" lon="13.993803428789786"><ele>136.0</ele><time>2026-05-02T07:28:16Z</time></trkpt><trkpt lat="42.320240293757365" lon="13.993872679265282"><ele>137.0</ele><time>2026-05-02T07:28:17Z</time></trkpt><trkpt lat="42.32015634419068" lon="13.993952483235875"><ele>138.0</ele><time>2026-05-02T07:28:18Z</time></trkpt><trkpt lat="42.32008175343614" lon="13.99404671656606"><ele>139.0</ele><time>2026-05-02T07:28:19Z</time></trkpt><trkpt lat="42.32002181485268" lon="13.99416555190539"><ele>138.75</ele><time>2026-05-02T07:28:20Z</time></trkpt><trkpt lat="42.31996383013022" lon="13.99429956269265"><ele>138.5</ele><time>2026-05-02T07:28:21Z</time></trkpt><trkpt lat="42.319895843135775" lon="13.994432178492751"><ele>138.25</ele><time>2026-05-02T07:28:22Z</time></trkpt><trkpt lat="42.31982114105441" lon="13.994546648877424"><ele>138.0</ele><time>2026-05-02T07:28:23Z</time></trkpt><trkpt lat="42.31974819094302" lon="13.994649278330742"><ele>137.5</ele><time>2026-05-02T07:28:24Z</time></trkpt><trkpt lat="42.31967118968705" lon="13.994755236055365"><ele>137.0</ele><time>2026-05-02T07:28:25Z</time></trkpt><trkpt lat="42.31959681943229" lon="13.994870538356563"><ele>136.5</ele><time>2026-05-02T07:28:26Z</time></trkpt><trkpt lat="42.31953220062912" lon="13.994988145696645"><ele>136.0</ele><time>2026-05-02T07:28:27Z</time></trkpt><trkpt lat="42.31946504126018" lon="13.995123140197196"><ele>137.25</ele><time>2026-05-02T07:28:28Z</time></trkpt><trkpt lat="42.31940276340268" lon="13.995260195661933"><ele>138.5</ele><time>2026-05-02T07:28:29Z</time></trkpt><trkpt lat="42.31934186395429" lon="13.995403747996559"><ele>139.75</ele><time>2026-05-02T07:28:30Z</time></trkpt><trkpt lat="42.31927966161227" lon="13.99554125365524"><ele>141.0</ele><time>2026-05-02T07:28:31Z</time></trkpt><trkpt lat="42.319211787775465" lon="13.995674712226101"><ele>141.0</ele><time>2026-05-02T07:28:32Z</time></trkpt><trkpt lat="42.319149571053096" lon="13.99581341147297"><ele>141.0</ele><time>2026-05-02T07:28:33Z</time></trkpt><trkpt lat="42.31908831702559" lon="13.995953144863883"><ele>141.0</ele><time>2026-05-02T07:28:34Z</time></trkpt><trkpt lat="42.31902677863406" lon="13.99609067989621"><ele>141.0</ele><time>2026-05-02T07:28:35Z</time></trkpt><trkpt lat="42.31896538694399" lon="13.99622716297822"><ele>140.75</ele><time>2026-05-02T07:28:36Z</time></trkpt><trkpt lat="42.31890375564993" lon="13.996361328734823"><ele>140.5</ele><time>2026-05-02T07:28:37Z</time></trkpt><trkpt lat="42.3188428756648" lon="13.996491356256062"><ele>140.25</ele><time>2026-05-02T07:28:38Z</time></trkpt><trkpt lat="42.3187840334456" lon="13.996617398739117"><ele>140.0</ele><time>2026-05-02T07:28:39Z</time></trkpt><trkpt lat="42.31872634037853" lon="13.996742593007399"><ele>141.6</ele><time>2026-05-02T07:28:40Z</time></trkpt><trkpt lat="42.31867756876961" lon="13.996866476795844"><ele>143.2</ele><time>2026-05-02T07:28:41Z</time></trkpt><trkpt lat="42.31864211393972" lon="13.996994811605498"><ele>144.8</ele><time>2026-05-02T07:28:42Z</time></trkpt><trkpt lat="42.31861940314288" lon="13.997130802936416"><ele>146.4</ele><time>2026-05-02T07:28:43Z</time></trkpt><trkpt lat="42.31860663550912" lon="13.99727311200259"><ele>148.0</ele><time>2026-05-02T07:28:44Z</time></trkpt><trkpt lat="42.31859093586587" lon="13.997423548677814"><ele>147.75</ele><time>2026-05-02T07:28:45Z</time></trkpt><trkpt lat="42.318571098542584" lon="13.997575715501485"><ele>147.5</ele><time>2026-05-02T07:28:46Z</time></trkpt><trkpt lat="42.31855181602802" lon="13.997728904570971"><ele>147.25</ele><time>2026-05-02T07:28:47Z</time></trkpt><trkpt lat="42.318531887941376" lon="13.997881774589894"><ele>147.0</ele><time>2026-05-02T07:28:48Z</time></trkpt><trkpt lat="42.318514896594216" lon="13.998034190513984"><ele>147.0</ele><time>2026-05-02T07:28:49Z</time></trkpt><trkpt lat="42.31849876614942" lon="13.998188702982667"><ele>147.0</ele><time>2026-05-02T07:28:50Z</time></trkpt><trkpt lat="42.31848378029603" lon="13.99833624134027"><ele>147.0</ele><time>2026-05-02T07:28:51Z</time></trkpt><trkpt lat="42.318468097068134" lon="13.998483818892575"><ele>147.0</ele><time>2026-05-02T07:28:52Z</time></trkpt><trkpt lat="42.31845460767865" lon="13.99862295516613"><ele>147.0</ele><time>2026-05-02T07:28:53Z</time></trkpt><trkpt lat="42.31844566978563" lon="13.998760400244402"><ele>146.6</ele><time>2026-05-02T07:28:54Z</time></trkpt><trkpt lat="42.318436911898296" lon="13.998897705958882"><ele>146.2</ele><time>2026-05-02T07:28:55Z</time></trkpt><trkpt lat="42.31842907327354" lon="13.999030453051903"><ele>145.8</ele><time>2026-05-02T07:28:56Z</time></trkpt><trkpt lat="42.31842181531277" lon="13.999176502881234"><ele>145.4</ele><time>2026-05-02T07:28:57Z</time></trkpt><trkpt lat="42.31841369899374" lon="13.999323763654012"><ele>145.0</ele><time>2026-05-02T07:28:58Z</time></trkpt><trkpt lat="42.31840432499289" lon="13.999470443748457"><ele>143.8</ele><time>2026-05-02T07:28:59Z</time></trkpt><trkpt lat="42.318393673325524" lon="13.99961166438663"><ele>142.6</ele><time>2026-05-02T07:29:00Z</time></trkpt><trkpt lat="42.31838751150238" lon="13.99975096897843"><ele>141.4</ele><time>2026-05-02T07:29:01Z</time></trkpt><trkpt lat="42.31838255330368" lon="13.999893018862059"><ele>140.2</ele><time>2026-05-02T07:29:02Z</time></trkpt><trkpt lat="42.31838234642926" lon="14.000028194547774"><ele>139.0</ele><time>2026-05-02T07:29:03Z</time></trkpt><trkpt lat="42.318378800156424" lon="14.000151668957567"><ele>139.0</ele><time>2026-05-02T07:29:04Z</time></trkpt><trkpt lat="42.31835554061487" lon="14.00027519192426"><ele>139.0</ele><time>2026-05-02T07:29:05Z</time></trkpt><trkpt lat="42.3183471780307" lon="14.000418829677162"><ele>139.0</ele><time>2026-05-02T07:29:06Z</time></trkpt><trkpt lat="42.318337486881575" lon="14.000564329769015"><ele>139.0</ele><time>2026-05-02T07:29:07Z</time></trkpt><trkpt lat="42.31832784494134" lon="14.000704099101343"><ele>139.0</ele><time>2026-05-02T07:29:08Z</time></trkpt><trkpt lat="42.318318200687116" lon="14.000838423170169"><ele>138.33333333333334</ele><time>2026-05-02T07:29:09Z</time></trkpt><trkpt lat="42.318308211806084" lon="14.000959737545866"><ele>137.66666666666669</ele><time>2026-05-02T07:29:10Z</time></trkpt><trkpt lat="42.31829508362493" lon="14.001066579151098"><ele>137.0</ele><time>2026-05-02T07:29:11Z</time></trkpt><trkpt lat="42.31827718349217" lon="14.001167225630153"><ele>136.33333333333334</ele><time>2026-05-02T07:29:12Z</time></trkpt><trkpt lat="42.31825383587784" lon="14.001272182964609"><ele>135.66666666666666</ele><time>2026-05-02T07:29:13Z</time></trkpt><trkpt lat="42.31822970172216" lon="14.001373749842882"><ele>135.0</ele><time>2026-05-02T07:29:14Z</time></trkpt><trkpt lat="42.3182054965107" lon="14.001457122401284"><ele>135.0</ele><time>2026-05-02T07:29:15Z</time></trkpt><trkpt lat="42.31817395338444" lon="14.001559490262894"><ele>135.0</ele><time>2026-05-02T07:29:16Z</time></trkpt><trkpt lat="42.318158637764704" lon="14.001643050662056"><ele>135.0</ele><time>2026-05-02T07:29:17Z</time></trkpt><trkpt lat="42.318182017928685" lon="14.001808044899482"><ele>135.0</ele><time>2026-05-02T07:29:19Z</time></trkpt><trkpt lat="42.31822212902309" lon="14.001897188964268"><ele>135.0</ele><time>2026-05-02T07:29:20Z</time></trkpt><trkpt lat="42.31825763485405" lon="14.002010743240408"><ele>135.0</ele><time>2026-05-02T07:29:21Z</time></trkpt><trkpt lat="42.31827568961021" lon="14.002135287197573"><ele>134.2</ele><time>2026-05-02T07:29:22Z</time></trkpt><trkpt lat="42.31830358255835" lon="14.002268748765383"><ele>133.4</ele><time>2026-05-02T07:29:23Z</time></trkpt><trkpt lat="42.31832487562946" lon="14.00238786373914"><ele>132.6</ele><time>2026-05-02T07:29:24Z</time></trkpt><trkpt lat="42.31836201917146" lon="14.002518268197507"><ele>131.8</ele><time>2026-05-02T07:29:25Z</time></trkpt><trkpt lat="42.318360751319695" lon="14.002662834378475"><ele>131.0</ele><time>2026-05-02T07:29:26Z</time></trkpt><trkpt lat="42.31837633009398" lon="14.002842019453048"><ele>129.6</ele><time>2026-05-02T07:29:27Z</time></trkpt><trkpt lat="42.31839076329315" lon="14.00301305937818"><ele>128.2</ele><time>2026-05-02T07:29:28Z</time></trkpt><trkpt lat="42.31840140136923" lon="14.003162766281472"><ele>126.80000000000001</ele><time>2026-05-02T07:29:29Z</time></trkpt><trkpt lat="42.31842392824154" lon="14.003301183244844"><ele>125.4</ele><time>2026-05-02T07:29:30Z</time></trkpt><trkpt lat="42.31842823827092" lon="14.003441860518114"><ele>124.0</ele><time>2026-05-02T07:29:31Z</time></trkpt><trkpt lat="42.31843092192518" lon="14.003569830107192"><ele>123.2</ele><time>2026-05-02T07:29:32Z</time></trkpt><trkpt lat="42.31840810551812" lon="14.00370065620606"><ele>122.4</ele><time>2026-05-02T07:29:33Z</time></trkpt><trkpt lat="42.3183565685526" lon="14.003816089445467"><ele>121.6</ele><time>2026-05-02T07:29:34Z</time></trkpt><trkpt lat="42.31832307606123" lon="14.003918566096564"><ele>120.8</ele><time>2026-05-02T07:29:35Z</time></trkpt><trkpt lat="42.31829651787579" lon="14.004031734595625"><ele>120.0</ele><time>2026-05-02T07:29:36Z</time></trkpt><trkpt lat="42.318261141893366" lon="14.004132432383077"><ele>119.5</ele><time>2026-05-02T07:29:37Z</time></trkpt><trkpt lat="42.31822666646926" lon="14.004219670588878"><ele>119.0</ele><time>2026-05-02T07:29:38Z</time></trkpt><trkpt lat="42.31818900325675" lon="14.004318526965333"><ele>118.5</ele><time>2026-05-02T07:29:39Z</time></trkpt><trkpt lat="42.31815231380279" lon="14.00442692129022"><ele>118.0</ele><time>2026-05-02T07:29:40Z</time></trkpt><trkpt lat="42.31811625365901" lon="14.004542035415147"><ele>117.5</ele><time>2026-05-02T07:29:41Z</time></trkpt><trkpt lat="42.318074801921284" lon="14.004650552582534"><ele>117.0</ele><time>2026-05-02T07:29:42Z</time></trkpt><trkpt lat="42.31803378406481" lon="14.004756202125172"><ele>117.0</ele><time>2026-05-02T07:29:43Z</time></trkpt><trkpt lat="42.3179889874091" lon="14.00487935380323"><ele>117.0</ele><time>2026-05-02T07:29:44Z</time></trkpt><trkpt lat="42.317936719902164" lon="14.005029570365581"><ele>117.0</ele><time>2026-05-02T07:29:45Z</time></trkpt><trkpt lat="42.317884263934154" lon="14.005182988343767"><ele>117.0</ele><time>2026-05-02T07:29:46Z</time></trkpt><trkpt lat="42.31783584251592" lon="14.00533422047842"><ele>117.0</ele><time>2026-05-02T07:29:47Z</time></trkpt><trkpt lat="42.31778516155986" lon="14.005454708054199"><ele>116.99999999999999</ele><time>2026-05-02T07:29:48Z</time></trkpt><trkpt lat="42.31775028404768" lon="14.005568933431244"><ele>116.99999999999999</ele><time>2026-05-02T07:29:49Z</time></trkpt><trkpt lat="42.31770859612863" lon="14.005693739150827"><ele>117.0</ele><time>2026-05-02T07:29:50Z</time></trkpt><trkpt lat="42.3176502138464" lon="14.005812765940604"><ele>117.0</ele><time>2026-05-02T07:29:51Z</time></trkpt><trkpt lat="42.31760872393747" lon="14.005951245136297"><ele>117.6</ele><time>2026-05-02T07:29:52Z</time></trkpt><trkpt lat="42.317561727725426" lon="14.006072066675117"><ele>118.19999999999999</ele><time>2026-05-02T07:29:53Z</time></trkpt><trkpt lat="42.31752309381872" lon="14.006182726114295"><ele>118.8</ele><time>2026-05-02T07:29:54Z</time></trkpt><trkpt lat="42.317489610318354" lon="14.006311816350282"><ele>119.4</ele><time>2026-05-02T07:29:55Z</time></trkpt><trkpt lat="42.3174617367972" lon="14.006439209283675"><ele>120.0</ele><time>2026-05-02T07:29:56Z</time></trkpt><trkpt lat="42.31740908616282" lon="14.00657085656327"><ele>120.0</ele><time>2026-05-02T07:29:57Z</time></trkpt><trkpt lat="42.31736454870676" lon="14.006704024577797"><ele>120.0</ele><time>2026-05-02T07:29:58Z</time></trkpt><trkpt lat="42.31731439905073" lon="14.006844501542696"><ele>120.0</ele><time>2026-05-02T07:29:59Z</time></trkpt><trkpt lat="42.317264598744835" lon="14.006979168150135"><ele>120.0</ele><time>2026-05-02T07:30:00Z</time></trkpt><trkpt lat="42.31721518751906" lon="14.007109414447118"><ele>120.0</ele><time>2026-05-02T07:30:01Z</time></trkpt><trkpt lat="42.31717782343284" lon="14.007206441213654"><ele>120.0</ele><time>2026-05-02T07:30:02Z</time></trkpt><trkpt lat="42.31714799774931" lon="14.007285555474356"><ele>120.0</ele><time>2026-05-02T07:30:03Z</time></trkpt><trkpt lat="42.3171291576546" lon="14.007450887635015"><ele>120.0</ele><time>2026-05-02T07:30:05Z</time></trkpt><trkpt lat="42.317111018085875" lon="14.007546249476697"><ele>120.0</ele><time>2026-05-02T07:30:06Z</time></trkpt><trkpt lat="42.3170714402825" lon="14.007634529018624"><ele>120.0</ele><time>2026-05-02T07:30:07Z</time></trkpt><trkpt lat="42.31703904777691" lon="14.007731311539608"><ele>120.0</ele><time>2026-05-02T07:30:08Z</time></trkpt><trkpt lat="42.316991132254046" lon="14.007829796936855"><ele>120.0</ele><time>2026-05-02T07:30:09Z</time></trkpt><trkpt lat="42.31692530794433" lon="14.007930306421212"><ele>120.0</ele><time>2026-05-02T07:30:10Z</time></trkpt><trkpt lat="42.316843902686564" lon="14.008022456343443"><ele>120.0</ele><time>2026-05-02T07:30:11Z</time></trkpt><trkpt lat="42.31676106004042" lon="14.008129844230492"><ele>120.0</ele><time>2026-05-02T07:30:12Z</time></trkpt><trkpt lat="42.316671267748056" lon="14.008222417928375"><ele>120.0</ele><time>2026-05-02T07:30:13Z</time></trkpt><trkpt lat="42.31658486016658" lon="14.008312207749299"><ele>118.83333333333333</ele><time>2026-05-02T07:30:14Z</time></trkpt><trkpt lat="42.31649859168929" lon="14.008400236263647"><ele>117.66666666666666</ele><time>2026-05-02T07:30:15Z</time></trkpt><trkpt lat="42.31641055332185" lon="14.008465423186736"><ele>116.5</ele><time>2026-05-02T07:30:16Z</time></trkpt><trkpt lat="42.31633958322558" lon="14.008537368503907"><ele>115.33333333333333</ele><time>2026-05-02T07:30:17Z</time></trkpt><trkpt lat="42.31628167127567" lon="14.008603237716661"><ele>114.16666666666666</ele><time>2026-05-02T07:30:18Z</time></trkpt><trkpt lat="42.31624098637602" lon="14.008668493474188"><ele>113.0</ele><time>2026-05-02T07:30:19Z</time></trkpt><trkpt lat="42.31618680937801" lon="14.008789711896165"><ele>112.60000000000001</ele><time>2026-05-02T07:30:20.999Z</time></trkpt><trkpt lat="42.31611943568417" lon="14.008841516822647"><ele>112.20000000000002</ele><time>2026-05-02T07:30:21.999Z</time></trkpt><trkpt lat="42.31602414444293" lon="14.008896202430583"><ele>111.8</ele><time>2026-05-02T07:30:22.999Z</time></trkpt><trkpt lat="42.315917868222925" lon="14.008956613686422"><ele>111.4</ele><time>2026-05-02T07:30:23.999Z</time></trkpt><trkpt lat="42.31581270874159" lon="14.00902489242503"><ele>111.0</ele><time>2026-05-02T07:30:24.999Z</time></trkpt><trkpt lat="42.31570039649679" lon="14.009109739270137"><ele>110.0</ele><time>2026-05-02T07:30:25.999Z</time></trkpt><trkpt lat="42.31558240042213" lon="14.00920031037998"><ele>109.0</ele><time>2026-05-02T07:30:26.999Z</time></trkpt><trkpt lat="42.31546119574115" lon="14.009302821067953"><ele>108.0</ele><time>2026-05-02T07:30:27.999Z</time></trkpt><trkpt lat="42.315335356040286" lon="14.009408832043219"><ele>107.0</ele><time>2026-05-02T07:30:28.999Z</time></trkpt><trkpt lat="42.31521510162917" lon="14.009510609167407"><ele>107.0</ele><time>2026-05-02T07:30:29.999Z</time></trkpt><trkpt lat="42.31509179680865" lon="14.00961604709917"><ele>107.0</ele><time>2026-05-02T07:30:30.999Z</time></trkpt><trkpt lat="42.31496329791658" lon="14.00972504572523"><ele>107.0</ele><time>2026-05-02T07:30:31.999Z</time></trkpt><trkpt lat="42.314830351422806" lon="14.009832349089406"><ele>106.33333333333333</ele><time>2026-05-02T07:30:32.998Z</time></trkpt><trkpt lat="42.31469677762613" lon="14.009939974864752"><ele>105.66666666666666</ele><time>2026-05-02T07:30:33.998Z</time></trkpt><trkpt lat="42.31456155798366" lon="14.01005348651064"><ele>105.0</ele><time>2026-05-02T07:30:34.998Z</time></trkpt><trkpt lat="42.31442468193583" lon="14.010164546226722"><ele>104.66666666666666</ele><time>2026-05-02T07:30:35.998Z</time></trkpt><trkpt lat="42.31428737647164" lon="14.010277807831526"><ele>104.33333333333333</ele><time>2026-05-02T07:30:36.998Z</time></trkpt><trkpt lat="42.31415112413444" lon="14.010393397826345"><ele>104.0</ele><time>2026-05-02T07:30:37.998Z</time></trkpt><trkpt lat="42.31401413483977" lon="14.010507845299546"><ele>104.0</ele><time>2026-05-02T07:30:38.998Z</time></trkpt><trkpt lat="42.31387881976058" lon="14.010617353621914"><ele>104.0</ele><time>2026-05-02T07:30:39.998Z</time></trkpt><trkpt lat="42.31374972696566" lon="14.0107190010174"><ele>104.0</ele><time>2026-05-02T07:30:40.998Z</time></trkpt><trkpt lat="42.31362743477807" lon="14.010811504548599"><ele>104.0</ele><time>2026-05-02T07:30:41.998Z</time></trkpt><trkpt lat="42.31350836468428" lon="14.010891726428852"><ele>103.5</ele><time>2026-05-02T07:30:42.998Z</time></trkpt><trkpt lat="42.31338613244417" lon="14.010956315021636"><ele>103.0</ele><time>2026-05-02T07:30:43.998Z</time></trkpt><trkpt lat="42.313256599825" lon="14.01100817135904"><ele>102.5</ele><time>2026-05-02T07:30:44.998Z</time></trkpt><trkpt lat="42.313120251300994" lon="14.01104497881985"><ele>102.0</ele><time>2026-05-02T07:30:45.998Z</time></trkpt><trkpt lat="42.31297981933799" lon="14.011074366220422"><ele>102.0</ele><time>2026-05-02T07:30:46.998Z</time></trkpt><trkpt lat="42.31283620488074" lon="14.011100132046321"><ele>102.0</ele><time>2026-05-02T07:30:47.998Z</time></trkpt><trkpt lat="42.312689257562226" lon="14.011124297263768"><ele>102.0</ele><time>2026-05-02T07:30:48.998Z</time></trkpt><trkpt lat="42.312538179655455" lon="14.011143970542697"><ele>102.0</ele><time>2026-05-02T07:30:49.998Z</time></trkpt><trkpt lat="42.312384513995845" lon="14.011158855961556"><ele>102.33333333333334</ele><time>2026-05-02T07:30:50.998Z</time></trkpt><trkpt lat="42.3122295795843" lon="14.011163958977875"><ele>102.66666666666667</ele><time>2026-05-02T07:30:51.998Z</time></trkpt><trkpt lat="42.31207194964591" lon="14.011155485857005"><ele>103.0</ele><time>2026-05-02T07:30:52.998Z</time></trkpt><trkpt lat="42.31191632990073" lon="14.011133302923222"><ele>103.0</ele><time>2026-05-02T07:30:53.998Z</time></trkpt><trkpt lat="42.311761282935315" lon="14.01110039994433"><ele>103.0</ele><time>2026-05-02T07:30:54.998Z</time></trkpt><trkpt lat="42.31160525763581" lon="14.011066442003184"><ele>103.0</ele><time>2026-05-02T07:30:55.998Z</time></trkpt><trkpt lat="42.31144965224766" lon="14.011038216037166"><ele>102.33333333333334</ele><time>2026-05-02T07:30:56.998Z</time></trkpt><trkpt lat="42.311292289574936" lon="14.011010915902935"><ele>101.66666666666666</ele><time>2026-05-02T07:30:57.998Z</time></trkpt><trkpt lat="42.31113716577647" lon="14.010980127015378"><ele>101.0</ele><time>2026-05-02T07:30:58.998Z</time></trkpt><trkpt lat="42.310980164692644" lon="14.010950885038199"><ele>101.0</ele><time>2026-05-02T07:30:59.998Z</time></trkpt><trkpt lat="42.31082046898006" lon="14.010921101783447"><ele>101.0</ele><time>2026-05-02T07:31:00.998Z</time></trkpt><trkpt lat="42.310657613184944" lon="14.010890989528107"><ele>101.0</ele><time>2026-05-02T07:31:01.998Z</time></trkpt><trkpt lat="42.3104967039697" lon="14.010860332872145"><ele>101.0</ele><time>2026-05-02T07:31:02.998Z</time></trkpt><trkpt lat="42.31033725075292" lon="14.010830456218487"><ele>101.0</ele><time>2026-05-02T07:31:03.998Z</time></trkpt><trkpt lat="42.31018050767081" lon="14.010800054558754"><ele>101.0</ele><time>2026-05-02T07:31:04.998Z</time></trkpt><trkpt lat="42.31002530026713" lon="14.010773460752217"><ele>101.33333333333333</ele><time>2026-05-02T07:31:05.998Z</time></trkpt><trkpt lat="42.309869713441586" lon="14.01074479505225"><ele>101.66666666666666</ele><time>2026-05-02T07:31:06.998Z</time></trkpt><trkpt lat="42.30971467560334" lon="14.010714748455296"><ele>102.0</ele><time>2026-05-02T07:31:07.998Z</time></trkpt><trkpt lat="42.30956051717445" lon="14.010683584437524"><ele>102.33333333333334</ele><time>2026-05-02T07:31:08.998Z</time></trkpt><trkpt lat="42.30940515573657" lon="14.010653466667742"><ele>102.66666666666667</ele><time>2026-05-02T07:31:09.998Z</time></trkpt><trkpt lat="42.30925199235114" lon="14.010625061304593"><ele>103.0</ele><time>2026-05-02T07:31:10.998Z</time></trkpt><trkpt lat="42.30909696804812" lon="14.010594694179877"><ele>103.0</ele><time>2026-05-02T07:31:11.998Z</time></trkpt><trkpt lat="42.30894131424608" lon="14.010560884821432"><ele>103.0</ele><time>2026-05-02T07:31:12.998Z</time></trkpt><trkpt lat="42.30878690567169" lon="14.010528568743597"><ele>103.0</ele><time>2026-05-02T07:31:13.998Z</time></trkpt><trkpt lat="42.308641445834766" lon="14.010501337632986"><ele>104.75</ele><time>2026-05-02T07:31:14.998Z</time></trkpt><trkpt lat="42.30850828688422" lon="14.010486616644682"><ele>106.5</ele><time>2026-05-02T07:31:15.998Z</time></trkpt><trkpt lat="42.308389400447865" lon="14.010499739071133"><ele>108.25</ele><time>2026-05-02T07:31:16.998Z</time></trkpt><trkpt lat="42.30827480190086" lon="14.010535674518739"><ele>110.0</ele><time>2026-05-02T07:31:17.998Z</time></trkpt><trkpt lat="42.30816998932947" lon="14.01062254317597"><ele>111.0</ele><time>2026-05-02T07:31:18.998Z</time></trkpt><trkpt lat="42.30807240153057" lon="14.010727172511523"><ele>112.0</ele><time>2026-05-02T07:31:19.998Z</time></trkpt><trkpt lat="42.30795997663641" lon="14.010804702897241"><ele>113.0</ele><time>2026-05-02T07:31:20.998Z</time></trkpt><trkpt lat="42.30786756891331" lon="14.010897188604424"><ele>114.0</ele><time>2026-05-02T07:31:21.998Z</time></trkpt><trkpt lat="42.30775921870167" lon="14.010941398478826"><ele>114.0</ele><time>2026-05-02T07:31:22.998Z</time></trkpt><trkpt lat="42.3076457842699" lon="14.010945040917035"><ele>114.0</ele><time>2026-05-02T07:31:23.998Z</time></trkpt><trkpt lat="42.307532223516226" lon="14.01090946089972"><ele>114.0</ele><time>2026-05-02T07:31:24.998Z</time></trkpt><trkpt lat="42.307415768907916" lon="14.010854652252467"><ele>114.0</ele><time>2026-05-02T07:31:25.998Z</time></trkpt><trkpt lat="42.3072933933007" lon="14.01079637301189"><ele>116.75</ele><time>2026-05-02T07:31:26.998Z</time></trkpt><trkpt lat="42.30717173366567" lon="14.010742122301485"><ele>119.5</ele><time>2026-05-02T07:31:27.998Z</time></trkpt><trkpt lat="42.307066514594766" lon="14.010674570566797"><ele>122.25</ele><time>2026-05-02T07:31:28.998Z</time></trkpt><trkpt lat="42.30697670487241" lon="14.01058183723889"><ele>125.0</ele><time>2026-05-02T07:31:29.998Z</time></trkpt><trkpt lat="42.30690395556393" lon="14.010459486941144"><ele>125.0</ele><time>2026-05-02T07:31:30.998Z</time></trkpt><trkpt lat="42.30685400132017" lon="14.01030910901409"><ele>125.0</ele><time>2026-05-02T07:31:31.998Z</time></trkpt><trkpt lat="42.306811308032586" lon="14.010146426625584"><ele>125.0</ele><time>2026-05-02T07:31:32.998Z</time></trkpt><trkpt lat="42.30676478373944" lon="14.009972607282497"><ele>125.0</ele><time>2026-05-02T07:31:33.998Z</time></trkpt><trkpt lat="42.30671448576728" lon="14.009790322422573"><ele>126.0</ele><time>2026-05-02T07:31:34.998Z</time></trkpt><trkpt lat="42.306662045054395" lon="14.009600330473338"><ele>127.0</ele><time>2026-05-02T07:31:35.998Z</time></trkpt><trkpt lat="42.30660927303606" lon="14.009403061134352"><ele>128.0</ele><time>2026-05-02T07:31:36.998Z</time></trkpt><trkpt lat="42.306554191263714" lon="14.00919835487121"><ele>129.66666666666666</ele><time>2026-05-02T07:31:37.998Z</time></trkpt><trkpt lat="42.306495613801545" lon="14.008990492667643"><ele>131.33333333333334</ele><time>2026-05-02T07:31:38.998Z</time></trkpt><trkpt lat="42.30643711340334" lon="14.008779477512507"><ele>133.0</ele><time>2026-05-02T07:31:39.998Z</time></trkpt><trkpt lat="42.30638082429422" lon="14.00856580307968"><ele>136.66666666666669</ele><time>2026-05-02T07:31:40.998Z</time></trkpt><trkpt lat="42.306323689507586" lon="14.008353743405078"><ele>140.33333333333334</ele><time>2026-05-02T07:31:41.998Z</time></trkpt><trkpt lat="42.30626671052675" lon="14.008140689065096"><ele>144.0</ele><time>2026-05-02T07:31:42.998Z</time></trkpt><trkpt lat="42.306214075868574" lon="14.007932837684082"><ele>144.66666666666666</ele><time>2026-05-02T07:31:43.998Z</time></trkpt><trkpt lat="42.306160152840526" lon="14.007726170500968"><ele>145.33333333333331</ele><time>2026-05-02T07:31:44.998Z</time></trkpt><trkpt lat="42.30610644128354" lon="14.007521991333912"><ele>146.0</ele><time>2026-05-02T07:31:45.998Z</time></trkpt><trkpt lat="42.30604963525442" lon="14.007321418834147"><ele>147.0</ele><time>2026-05-02T07:31:46.998Z</time></trkpt><trkpt lat="42.305983999878784" lon="14.007125023089698"><ele>148.0</ele><time>2026-05-02T07:31:47.998Z</time></trkpt><trkpt lat="42.30591343850399" lon="14.006933576663592"><ele>149.0</ele><time>2026-05-02T07:31:48.998Z</time></trkpt><trkpt lat="42.30584087292688" lon="14.00674600970281"><ele>148.66666666666666</ele><time>2026-05-02T07:31:49.998Z</time></trkpt><trkpt lat="42.30575665270964" lon="14.006566095146916"><ele>148.33333333333334</ele><time>2026-05-02T07:31:50.998Z</time></trkpt><trkpt lat="42.30566392118797" lon="14.00639133360222"><ele>148.0</ele><time>2026-05-02T07:31:51.998Z</time></trkpt><trkpt lat="42.305567933158386" lon="14.00622171088949"><ele>153.0</ele><time>2026-05-02T07:31:52.997Z</time></trkpt><trkpt lat="42.30547288695632" lon="14.006054949216795"><ele>158.0</ele><time>2026-05-02T07:31:53.997Z</time></trkpt><trkpt lat="42.30537212920736" lon="14.005883315098794"><ele>163.0</ele><time>2026-05-02T07:31:54.997Z</time></trkpt><trkpt lat="42.30525971730436" lon="14.00568957589738"><ele>163.0</ele><time>2026-05-02T07:31:55.997Z</time></trkpt><trkpt lat="42.30514462790057" lon="14.005476713945411"><ele>163.0</ele><time>2026-05-02T07:31:56.997Z</time></trkpt><trkpt lat="42.3050387450422" lon="14.005249528028568"><ele>163.0</ele><time>2026-05-02T07:31:57.997Z</time></trkpt><trkpt lat="42.30494567414373" lon="14.005019668016567"><ele>162.66666666666669</ele><time>2026-05-02T07:31:58.997Z</time></trkpt><trkpt lat="42.304855059921586" lon="14.004796246177083"><ele>162.33333333333334</ele><time>2026-05-02T07:31:59.997Z</time></trkpt><trkpt lat="42.30476976273908" lon="14.004594998198602"><ele>162.0</ele><time>2026-05-02T07:32:00.997Z</time></trkpt><trkpt lat="42.3046908667419" lon="14.00442127342826"><ele>164.0</ele><time>2026-05-02T07:32:01.997Z</time></trkpt><trkpt lat="42.30461801302066" lon="14.004264328653097"><ele>166.0</ele><time>2026-05-02T07:32:02.997Z</time></trkpt><trkpt lat="42.30454571483143" lon="14.004128073458164"><ele>168.0</ele><time>2026-05-02T07:32:03.997Z</time></trkpt><trkpt lat="42.30446998309874" lon="14.004008310113408"><ele>170.0</ele><time>2026-05-02T07:32:04.997Z</time></trkpt><trkpt lat="42.30438451743614" lon="14.003925104486434"><ele>170.0</ele><time>2026-05-02T07:32:05.997Z</time></trkpt><trkpt lat="42.304285483426376" lon="14.0038697280558"><ele>170.0</ele><time>2026-05-02T07:32:06.997Z</time></trkpt><trkpt lat="42.304166104533024" lon="14.003830140759337"><ele>170.0</ele><time>2026-05-02T07:32:07.998Z</time></trkpt><trkpt lat="42.30403374292048" lon="14.003777895206635"><ele>170.0</ele><time>2026-05-02T07:32:08.998Z</time></trkpt><trkpt lat="42.303898072501546" lon="14.003718719911076"><ele>169.0</ele><time>2026-05-02T07:32:09.998Z</time></trkpt><trkpt lat="42.303763970026694" lon="14.003648987665887"><ele>168.0</ele><time>2026-05-02T07:32:10.998Z</time></trkpt><trkpt lat="42.30363627840936" lon="14.003570709549011"><ele>167.0</ele><time>2026-05-02T07:32:11.998Z</time></trkpt><trkpt lat="42.303513527400916" lon="14.003474913003215"><ele>166.0</ele><time>2026-05-02T07:32:12.998Z</time></trkpt><trkpt lat="42.30339147516315" lon="14.003381554851147"><ele>166.75</ele><time>2026-05-02T07:32:13.998Z</time></trkpt><trkpt lat="42.30326268187338" lon="14.003301193246736"><ele>167.5</ele><time>2026-05-02T07:32:14.998Z</time></trkpt><trkpt lat="42.303130651648225" lon="14.003230211204917"><ele>168.25</ele><time>2026-05-02T07:32:15.999Z</time></trkpt><trkpt lat="42.3029935104255" lon="14.003175917369283"><ele>169.0</ele><time>2026-05-02T07:32:16.999Z</time></trkpt><trkpt lat="42.30285394142907" lon="14.00313537349827"><ele>169.0</ele><time>2026-05-02T07:32:17.999Z</time></trkpt><trkpt lat="42.302715534266355" lon="14.003105625932173"><ele>169.0</ele><time>2026-05-02T07:32:18.999Z</time></trkpt><trkpt lat="42.30257655383554" lon="14.003092217368026"><ele>169.0</ele><time>2026-05-02T07:32:19.999Z</time></trkpt><trkpt lat="42.30243662394568" lon="14.00306001613865"><ele>169.0</ele><time>2026-05-02T07:32:20.999Z</time></trkpt><trkpt lat="42.30229749816622" lon="14.003056663387296"><ele>166.5</ele><time>2026-05-02T07:32:21.999Z</time></trkpt><trkpt lat="42.30216233362245" lon="14.00307729959052"><ele>164.0</ele><time>2026-05-02T07:32:22.999Z</time></trkpt><trkpt lat="42.302040563568305" lon="14.003068541018457"><ele>161.5</ele><time>2026-05-02T07:32:23.999Z</time></trkpt><trkpt lat="42.30192738064077" lon="14.003026173558945"><ele>159.0</ele><time>2026-05-02T07:32:24.999Z</time></trkpt><trkpt lat="42.301818830477345" lon="14.003001481860817"><ele>159.0</ele><time>2026-05-02T07:32:25.999Z</time></trkpt><trkpt lat="42.30172215950007" lon="14.002933804026226"><ele>159.0</ele><time>2026-05-02T07:32:26.999Z</time></trkpt><trkpt lat="42.30164177137938" lon="14.002858273008934"><ele>159.0</ele><time>2026-05-02T07:32:28Z</time></trkpt><trkpt lat="42.30158069545521" lon="14.002790667241953"><ele>159.0</ele><time>2026-05-02T07:32:29Z</time></trkpt><trkpt lat="42.30149525726854" lon="14.002690082869687"><ele>159.0</ele><time>2026-05-02T07:32:31Z</time></trkpt><trkpt lat="42.3014331070596" lon="14.002633307196001"><ele>158.2</ele><time>2026-05-02T07:32:33Z</time></trkpt><trkpt lat="42.301374915984454" lon="14.002570763187881"><ele>157.4</ele><time>2026-05-02T07:32:43Z</time></trkpt><trkpt lat="42.301407936797546" lon="14.002363167834995"><ele>156.6</ele><time>2026-05-02T07:32:44Z</time></trkpt><trkpt lat="42.30138371137679" lon="14.00225826228356"><ele>155.8</ele><time>2026-05-02T07:32:45Z</time></trkpt><trkpt lat="42.301362851736855" lon="14.002127618773734"><ele>155.0</ele><time>2026-05-02T07:32:46Z</time></trkpt><trkpt lat="42.301346563448725" lon="14.001979401701217"><ele>155.0</ele><time>2026-05-02T07:32:47Z</time></trkpt><trkpt lat="42.30131545126972" lon="14.001835569161505"><ele>155.0</ele><time>2026-05-02T07:32:48Z</time></trkpt><trkpt lat="42.30127645064031" lon="14.00170748128701"><ele>155.0</ele><time>2026-05-02T07:32:49Z</time></trkpt><trkpt lat="42.30122923179105" lon="14.001571069406719"><ele>155.0</ele><time>2026-05-02T07:32:50Z</time></trkpt><trkpt lat="42.30117975671352" lon="14.001431566810858"><ele>155.0</ele><time>2026-05-02T07:32:51Z</time></trkpt><trkpt lat="42.30113045103309" lon="14.001291659969779"><ele>156.5</ele><time>2026-05-02T07:32:52Z</time></trkpt><trkpt lat="42.30107664539649" lon="14.001153377505565"><ele>158.0</ele><time>2026-05-02T07:32:53Z</time></trkpt><trkpt lat="42.301020260730205" lon="14.001019489286195"><ele>159.5</ele><time>2026-05-02T07:32:54Z</time></trkpt><trkpt lat="42.30096220871575" lon="14.000889022918457"><ele>161.0</ele><time>2026-05-02T07:32:55Z</time></trkpt><trkpt lat="42.300907597044606" lon="14.00075559467703"><ele>160.25</ele><time>2026-05-02T07:32:56Z</time></trkpt><trkpt lat="42.30083406811161" lon="14.000630801708745"><ele>159.5</ele><time>2026-05-02T07:32:57Z</time></trkpt><trkpt lat="42.30075639888506" lon="14.000505245848746"><ele>158.75</ele><time>2026-05-02T07:32:58Z</time></trkpt><trkpt lat="42.30066654308207" lon="14.000390540892326"><ele>158.0</ele><time>2026-05-02T07:32:59Z</time></trkpt><trkpt lat="42.300576002776516" lon="14.000278388924967"><ele>158.0</ele><time>2026-05-02T07:33:00Z</time></trkpt><trkpt lat="42.3004924990257" lon="14.000172944482957"><ele>158.0</ele><time>2026-05-02T07:33:01Z</time></trkpt><trkpt lat="42.30041204047399" lon="14.000067307231445"><ele>158.0</ele><time>2026-05-02T07:33:02Z</time></trkpt><trkpt lat="42.30033571954044" lon="13.999946789821518"><ele>158.0</ele><time>2026-05-02T07:33:03Z</time></trkpt><trkpt lat="42.30026806929744" lon="13.99981833452802"><ele>158.0</ele><time>2026-05-02T07:33:04Z</time></trkpt><trkpt lat="42.30020816716434" lon="13.999684352745682"><ele>158.0</ele><time>2026-05-02T07:33:05Z</time></trkpt><trkpt lat="42.30015428807473" lon="13.99954751199835"><ele>158.0</ele><time>2026-05-02T07:33:06Z</time></trkpt><trkpt lat="42.30009894178827" lon="13.99941652872318"><ele>158.0</ele><time>2026-05-02T07:33:07Z</time></trkpt><trkpt lat="42.300036954792894" lon="13.999290030872105"><ele>159.5</ele><time>2026-05-02T07:33:08Z</time></trkpt><trkpt lat="42.299970854354015" lon="13.999165717632273"><ele>161.0</ele><time>2026-05-02T07:33:09Z</time></trkpt><trkpt lat="42.299901451134026" lon="13.999039480891131"><ele>162.5</ele><time>2026-05-02T07:33:10Z</time></trkpt><trkpt lat="42.29983312233847" lon="13.998906829374665"><ele>164.0</ele><time>2026-05-02T07:33:11Z</time></trkpt><trkpt lat="42.29976438502741" lon="13.998767043693908"><ele>163.0</ele><time>2026-05-02T07:33:12Z</time></trkpt><trkpt lat="42.299694062177984" lon="13.998624982509503"><ele>162.0</ele><time>2026-05-02T07:33:13Z</time></trkpt><trkpt lat="42.29962245929929" lon="13.99848489360558"><ele>161.0</ele><time>2026-05-02T07:33:14Z</time></trkpt><trkpt lat="42.299548549779445" lon="13.99834855118681"><ele>160.0</ele><time>2026-05-02T07:33:15Z</time></trkpt><trkpt lat="42.299472642924805" lon="13.998216061390316"><ele>159.6</ele><time>2026-05-02T07:33:16Z</time></trkpt><trkpt lat="42.29939905089193" lon="13.998087909890984"><ele>159.2</ele><time>2026-05-02T07:33:17Z</time></trkpt><trkpt lat="42.29933419737602" lon="13.997966118945978"><ele>158.8</ele><time>2026-05-02T07:33:18Z</time></trkpt><trkpt lat="42.29927764821151" lon="13.997848114535866"><ele>158.4</ele><time>2026-05-02T07:33:19Z</time></trkpt><trkpt lat="42.29923765779705" lon="13.997728055701181"><ele>158.0</ele><time>2026-05-02T07:33:20Z</time></trkpt><trkpt lat="42.29921247312772" lon="13.997592494732972"><ele>158.0</ele><time>2026-05-02T07:33:21Z</time></trkpt><trkpt lat="42.29919019691621" lon="13.997450592659936"><ele>158.0</ele><time>2026-05-02T07:33:22Z</time></trkpt><trkpt lat="42.2991734881878" lon="13.997309631206926"><ele>158.0</ele><time>2026-05-02T07:33:23Z</time></trkpt><trkpt lat="42.29916547328168" lon="13.997169954780874"><ele>158.0</ele><time>2026-05-02T07:33:24Z</time></trkpt><trkpt lat="42.29917103745549" lon="13.997026275975175"><ele>158.0</ele><time>2026-05-02T07:33:25Z</time></trkpt><trkpt lat="42.2991725585129" lon="13.996886471768152"><ele>158.0</ele><time>2026-05-02T07:33:26Z</time></trkpt><trkpt lat="42.29916225274836" lon="13.996751247886765"><ele>158.0</ele><time>2026-05-02T07:33:27Z</time></trkpt><trkpt lat="42.299129637928104" lon="13.996626335044969"><ele>158.0</ele><time>2026-05-02T07:33:28Z</time></trkpt><trkpt lat="42.29908013765294" lon="13.996507770884506"><ele>158.0</ele><time>2026-05-02T07:33:29Z</time></trkpt><trkpt lat="42.299016260396556" lon="13.996393892494861"><ele>158.0</ele><time>2026-05-02T07:33:30Z</time></trkpt><trkpt lat="42.298939570653225" lon="13.996287974928629"><ele>156.4</ele><time>2026-05-02T07:33:31Z</time></trkpt><trkpt lat="42.298851792535906" lon="13.99619451577107"><ele>154.8</ele><time>2026-05-02T07:33:32Z</time></trkpt><trkpt lat="42.298780407950595" lon="13.996084446331858"><ele>153.2</ele><time>2026-05-02T07:33:33Z</time></trkpt><trkpt lat="42.298699078075195" lon="13.995993628373537"><ele>151.6</ele><time>2026-05-02T07:33:34Z</time></trkpt><trkpt lat="42.298644168509114" lon="13.995877436630684"><ele>150.0</ele><time>2026-05-02T07:33:35Z</time></trkpt><trkpt lat="42.29859597308713" lon="13.99574935916295"><ele>150.0</ele><time>2026-05-02T07:33:36Z</time></trkpt><trkpt lat="42.298558792510086" lon="13.995632413601053"><ele>150.0</ele><time>2026-05-02T07:33:37Z</time></trkpt><trkpt lat="42.298514196308645" lon="13.99553340116843"><ele>150.0</ele><time>2026-05-02T07:33:38Z</time></trkpt><trkpt lat="42.298462168797634" lon="13.99543946143528"><ele>150.0</ele><time>2026-05-02T07:33:39Z</time></trkpt><trkpt lat="42.29840449604908" lon="13.995332541494323"><ele>150.0</ele><time>2026-05-02T07:33:40Z</time></trkpt><trkpt lat="42.298347270612325" lon="13.995226215277091"><ele>150.0</ele><time>2026-05-02T07:33:41Z</time></trkpt><trkpt lat="42.29829274951599" lon="13.995117760342206"><ele>150.0</ele><time>2026-05-02T07:33:42Z</time></trkpt><trkpt lat="42.29824722046014" lon="13.994973418608728"><ele>150.0</ele><time>2026-05-02T07:33:43Z</time></trkpt><trkpt lat="42.29817390712047" lon="13.99483123242422"><ele>150.0</ele><time>2026-05-02T07:33:44Z</time></trkpt><trkpt lat="42.29807662787222" lon="13.994710730726855"><ele>147.75</ele><time>2026-05-02T07:33:45Z</time></trkpt><trkpt lat="42.29799106835314" lon="13.994580024522993"><ele>145.5</ele><time>2026-05-02T07:33:46Z</time></trkpt><trkpt lat="42.297920906576266" lon="13.994448665271014"><ele>143.25</ele><time>2026-05-02T07:33:47Z</time></trkpt><trkpt lat="42.29785000582747" lon="13.994321581514058"><ele>141.0</ele><time>2026-05-02T07:33:48Z</time></trkpt><trkpt lat="42.29778862899538" lon="13.994167985779384"><ele>141.0</ele><time>2026-05-02T07:33:49Z</time></trkpt><trkpt lat="42.29772262637204" lon="13.9940072801638"><ele>141.0</ele><time>2026-05-02T07:33:50Z</time></trkpt><trkpt lat="42.29765315896079" lon="13.993848179170042"><ele>141.0</ele><time>2026-05-02T07:33:51Z</time></trkpt><trkpt lat="42.29758516571486" lon="13.993692520654164"><ele>141.0</ele><time>2026-05-02T07:33:52Z</time></trkpt><trkpt lat="42.29752404199494" lon="13.993529124389323"><ele>141.0</ele><time>2026-05-02T07:33:53Z</time></trkpt><trkpt lat="42.297447210424636" lon="13.993386696287041"><ele>141.0</ele><time>2026-05-02T07:33:54Z</time></trkpt><trkpt lat="42.297374282816904" lon="13.993253055500011"><ele>141.0</ele><time>2026-05-02T07:33:55Z</time></trkpt><trkpt lat="42.297293463135" lon="13.993129293229911"><ele>141.0</ele><time>2026-05-02T07:33:56Z</time></trkpt><trkpt lat="42.29724330805239" lon="13.99298544704054"><ele>140.0</ele><time>2026-05-02T07:33:57Z</time></trkpt><trkpt lat="42.29718150613079" lon="13.992853980285597"><ele>139.0</ele><time>2026-05-02T07:33:58Z</time></trkpt><trkpt lat="42.29711695455933" lon="13.992721330116648"><ele>138.0</ele><time>2026-05-02T07:33:59Z</time></trkpt><trkpt lat="42.29703604558475" lon="13.99259985477185"><ele>137.0</ele><time>2026-05-02T07:34:00Z</time></trkpt><trkpt lat="42.296965933979784" lon="13.992468936191262"><ele>137.0</ele><time>2026-05-02T07:34:01Z</time></trkpt><trkpt lat="42.2969268480191" lon="13.992318841352002"><ele>137.0</ele><time>2026-05-02T07:34:02Z</time></trkpt><trkpt lat="42.296865723252616" lon="13.992171812900121"><ele>137.0</ele><time>2026-05-02T07:34:03Z</time></trkpt><trkpt lat="42.29682456855876" lon="13.991996377798046"><ele>137.0</ele><time>2026-05-02T07:34:04Z</time></trkpt><trkpt lat="42.29677600250685" lon="13.991830529907073"><ele>137.0</ele><time>2026-05-02T07:34:05Z</time></trkpt><trkpt lat="42.29673610834891" lon="13.991681118763504"><ele>137.0</ele><time>2026-05-02T07:34:06Z</time></trkpt><trkpt lat="42.29670663865826" lon="13.99152628848091"><ele>137.0</ele><time>2026-05-02T07:34:07Z</time></trkpt><trkpt lat="42.29668539130303" lon="13.991358158832995"><ele>137.0</ele><time>2026-05-02T07:34:08Z</time></trkpt><trkpt lat="42.29666766691942" lon="13.991185787038047"><ele>137.25</ele><time>2026-05-02T07:34:09Z</time></trkpt><trkpt lat="42.29665310069916" lon="13.991001536255304"><ele>137.5</ele><time>2026-05-02T07:34:10Z</time></trkpt><trkpt lat="42.296643212678674" lon="13.990826993260754"><ele>137.75</ele><time>2026-05-02T07:34:11Z</time></trkpt><trkpt lat="42.2966369928934" lon="13.990674244271029"><ele>138.0</ele><time>2026-05-02T07:34:12Z</time></trkpt><trkpt lat="42.29663046026243" lon="13.990542342051487"><ele>138.0</ele><time>2026-05-02T07:34:13Z</time></trkpt><trkpt lat="42.29661541138788" lon="13.990426822104716"><ele>138.0</ele><time>2026-05-02T07:34:14Z</time></trkpt><trkpt lat="42.296584358494634" lon="13.990319859685657"><ele>138.0</ele><time>2026-05-02T07:34:15Z</time></trkpt><trkpt lat="42.29654174598115" lon="13.990219270147232"><ele>138.0</ele><time>2026-05-02T07:34:16Z</time></trkpt><trkpt lat="42.29649101745693" lon="13.990118676458716"><ele>138.0</ele><time>2026-05-02T07:34:17Z</time></trkpt><trkpt lat="42.29642792086373" lon="13.990021919113309"><ele>138.0</ele><time>2026-05-02T07:34:18Z</time></trkpt><trkpt lat="42.29637235742058" lon="13.989960955550874"><ele>136.33333333333334</ele><time>2026-05-02T07:34:19Z</time></trkpt><trkpt lat="42.296301484721454" lon="13.989919731211316"><ele>134.66666666666666</ele><time>2026-05-02T07:34:20Z</time></trkpt><trkpt lat="42.29621493936709" lon="13.989890917687058"><ele>133.0</ele><time>2026-05-02T07:34:21Z</time></trkpt><trkpt lat="42.29612920946481" lon="13.989838338568978"><ele>131.33333333333331</ele><time>2026-05-02T07:34:22Z</time></trkpt><trkpt lat="42.29604635394851" lon="13.989806438461995"><ele>129.66666666666666</ele><time>2026-05-02T07:34:23Z</time></trkpt><trkpt lat="42.29596703668731" lon="13.989774358256884"><ele>128.0</ele><time>2026-05-02T07:34:24Z</time></trkpt><trkpt lat="42.29589114068663" lon="13.989731280393963"><ele>128.0</ele><time>2026-05-02T07:34:25Z</time></trkpt><trkpt lat="42.29581764823376" lon="13.989675237132618"><ele>128.0</ele><time>2026-05-02T07:34:26Z</time></trkpt><trkpt lat="42.29574140128132" lon="13.989612645819525"><ele>128.0</ele><time>2026-05-02T07:34:27Z</time></trkpt><trkpt lat="42.29565933344814" lon="13.989546072877339"><ele>128.0</ele><time>2026-05-02T07:34:28Z</time></trkpt><trkpt lat="42.295576239424754" lon="13.989477603845046"><ele>128.0</ele><time>2026-05-02T07:34:29Z</time></trkpt><trkpt lat="42.295495232189715" lon="13.989409927639676"><ele>127.66666666666666</ele><time>2026-05-02T07:34:30Z</time></trkpt><trkpt lat="42.29541259499623" lon="13.989357520245063"><ele>127.33333333333333</ele><time>2026-05-02T07:34:31Z</time></trkpt><trkpt lat="42.295348987776656" lon="13.989320650457861"><ele>127.0</ele><time>2026-05-02T07:34:32Z</time></trkpt><trkpt lat="42.29526997454861" lon="13.989283670825372"><ele>126.66666666666666</ele><time>2026-05-02T07:34:34Z</time></trkpt><trkpt lat="42.29520614407296" lon="13.989289058062523"><ele>126.33333333333333</ele><time>2026-05-02T07:34:36Z</time></trkpt><trkpt lat="42.29508711898893" lon="13.98931471908161"><ele>126.0</ele><time>2026-05-02T07:34:39Z</time></trkpt><trkpt lat="42.29502984587147" lon="13.989351184194623"><ele>126.0</ele><time>2026-05-02T07:34:40Z</time></trkpt><trkpt lat="42.29497102116139" lon="13.98928828035771"><ele>126.0</ele><time>2026-05-02T07:34:42Z</time></trkpt><trkpt lat="42.29495830310401" lon="13.98909759470414"><ele>126.0</ele><time>2026-05-02T07:34:43.999Z</time></trkpt><trkpt lat="42.294926205026556" lon="13.988962308397749"><ele>126.0</ele><time>2026-05-02T07:34:44.999Z</time></trkpt><trkpt lat="42.294897569168214" lon="13.98880184164569"><ele>126.0</ele><time>2026-05-02T07:34:45.999Z</time></trkpt><trkpt lat="42.294855131145496" lon="13.988651596868197"><ele>127.0</ele><time>2026-05-02T07:34:46.999Z</time></trkpt><trkpt lat="42.294811474314024" lon="13.988493386405063"><ele>128.0</ele><time>2026-05-02T07:34:47.999Z</time></trkpt><trkpt lat="42.29476937085458" lon="13.98832191340532"><ele>129.0</ele><time>2026-05-02T07:34:48.999Z</time></trkpt><trkpt lat="42.29472191968397" lon="13.988135697288564"><ele>130.0</ele><time>2026-05-02T07:34:49.999Z</time></trkpt><trkpt lat="42.29466622394802" lon="13.987936785359258"><ele>130.75</ele><time>2026-05-02T07:34:50.999Z</time></trkpt><trkpt lat="42.294612763444604" lon="13.9877449028433"><ele>131.5</ele><time>2026-05-02T07:34:51.999Z</time></trkpt><trkpt lat="42.294563521626664" lon="13.987566810367033"><ele>132.25</ele><time>2026-05-02T07:34:52.999Z</time></trkpt><trkpt lat="42.29452423143225" lon="13.987417527410528"><ele>133.0</ele><time>2026-05-02T07:34:53.999Z</time></trkpt><trkpt lat="42.294486218344446" lon="13.987286271780135"><ele>133.4</ele><time>2026-05-02T07:34:54.999Z</time></trkpt><trkpt lat="42.294443181101585" lon="13.987160565325281"><ele>133.8</ele><time>2026-05-02T07:34:55.999Z</time></trkpt><trkpt lat="42.294403870223604" lon="13.987046876725678"><ele>134.2</ele><time>2026-05-02T07:34:56.999Z</time></trkpt><trkpt lat="42.294395139039324" lon="13.986952282682665"><ele>134.6</ele><time>2026-05-02T07:34:57.999Z</time></trkpt><trkpt lat="42.29437172579524" lon="13.98680637524663"><ele>135.0</ele><time>2026-05-02T07:34:59.999Z</time></trkpt><trkpt lat="42.294407736684136" lon="13.986702521766482"><ele>135.5</ele><time>2026-05-02T07:35:01.999Z</time></trkpt><trkpt lat="42.29436388128409" lon="13.986565841474162"><ele>136.0</ele><time>2026-05-02T07:35:04.999Z</time></trkpt><trkpt lat="42.29434000109357" lon="13.986463340418101"><ele>136.5</ele><time>2026-05-02T07:35:05.999Z</time></trkpt><trkpt lat="42.29430986555981" lon="13.986375301382841"><ele>137.0</ele><time>2026-05-02T07:35:06.999Z</time></trkpt><trkpt lat="42.29427325845939" lon="13.986264912480761"><ele>137.5</ele><time>2026-05-02T07:35:07.999Z</time></trkpt><trkpt lat="42.29423620277389" lon="13.986148473954394"><ele>138.0</ele><time>2026-05-02T07:35:08.999Z</time></trkpt><trkpt lat="42.29419577481807" lon="13.986016880732514"><ele>138.0</ele><time>2026-05-02T07:35:09.999Z</time></trkpt><trkpt lat="42.29414438239955" lon="13.985895984047982"><ele>138.0</ele><time>2026-05-02T07:35:10.999Z</time></trkpt><trkpt lat="42.29411221035161" lon="13.985769239938037"><ele>138.0</ele><time>2026-05-02T07:35:11.999Z</time></trkpt><trkpt lat="42.29407864064758" lon="13.985634070479545"><ele>138.0</ele><time>2026-05-02T07:35:12.999Z</time></trkpt><trkpt lat="42.29404391293075" lon="13.985504427857649"><ele>138.0</ele><time>2026-05-02T07:35:13.999Z</time></trkpt><trkpt lat="42.29400642656244" lon="13.985370588778178"><ele>138.6</ele><time>2026-05-02T07:35:14.999Z</time></trkpt><trkpt lat="42.29396525693547" lon="13.985236503823776"><ele>139.20000000000002</ele><time>2026-05-02T07:35:15.999Z</time></trkpt><trkpt lat="42.293923464939205" lon="13.985107324762936"><ele>139.8</ele><time>2026-05-02T07:35:16.999Z</time></trkpt><trkpt lat="42.29387782074001" lon="13.98496867652862"><ele>140.4</ele><time>2026-05-02T07:35:17.999Z</time></trkpt><trkpt lat="42.29383632344443" lon="13.984837899497279"><ele>141.0</ele><time>2026-05-02T07:35:19.999Z</time></trkpt><trkpt lat="42.293784651514166" lon="13.984684011441637"><ele>142.4</ele><time>2026-05-02T07:35:21.999Z</time></trkpt><trkpt lat="42.293735185512844" lon="13.98458501784929"><ele>143.8</ele><time>2026-05-02T07:35:22.999Z</time></trkpt><trkpt lat="42.293662935130556" lon="13.984465119477102"><ele>145.20000000000002</ele><time>2026-05-02T07:35:23.999Z</time></trkpt><trkpt lat="42.29359614986058" lon="13.984359711349454"><ele>146.6</ele><time>2026-05-02T07:35:24.999Z</time></trkpt><trkpt lat="42.29353701983845" lon="13.98427461260176"><ele>148.0</ele><time>2026-05-02T07:35:25.999Z</time></trkpt><trkpt lat="42.293483822106765" lon="13.98418967760743"><ele>148.4</ele><time>2026-05-02T07:35:26.999Z</time></trkpt><trkpt lat="42.293430616780725" lon="13.984095837347503"><ele>148.8</ele><time>2026-05-02T07:35:27.999Z</time></trkpt><trkpt lat="42.29337746433882" lon="13.98399865424911"><ele>149.2</ele><time>2026-05-02T07:35:28.999Z</time></trkpt><trkpt lat="42.293302968432876" lon="13.983911842550874"><ele>149.6</ele><time>2026-05-02T07:35:29.999Z</time></trkpt><trkpt lat="42.293218797803114" lon="13.983841880499115"><ele>150.0</ele><time>2026-05-02T07:35:30.999Z</time></trkpt><trkpt lat="42.29313211265736" lon="13.983781847020861"><ele>152.0</ele><time>2026-05-02T07:35:31.999Z</time></trkpt><trkpt lat="42.293060657391024" lon="13.983711244746209"><ele>154.0</ele><time>2026-05-02T07:35:32.999Z</time></trkpt><trkpt lat="42.29299923557811" lon="13.983625476838318"><ele>156.0</ele><time>2026-05-02T07:35:33.999Z</time></trkpt><trkpt lat="42.29293409202436" lon="13.983524160077012"><ele>158.0</ele><time>2026-05-02T07:35:34.999Z</time></trkpt><trkpt lat="42.29287297934738" lon="13.983415195668808"><ele>160.0</ele><time>2026-05-02T07:35:35.999Z</time></trkpt><trkpt lat="42.292821868654364" lon="13.983308318975705"><ele>160.0</ele><time>2026-05-02T07:35:36.999Z</time></trkpt><trkpt lat="42.29276890233552" lon="13.983201863051825"><ele>160.0</ele><time>2026-05-02T07:35:37.999Z</time></trkpt><trkpt lat="42.29271304009194" lon="13.983092444918752"><ele>160.0</ele><time>2026-05-02T07:35:38.999Z</time></trkpt><trkpt lat="42.292638758364454" lon="13.983008841140975"><ele>160.0</ele><time>2026-05-02T07:35:39.999Z</time></trkpt><trkpt lat="42.29258784352432" lon="13.982915848963419"><ele>160.0</ele><time>2026-05-02T07:35:40.999Z</time></trkpt><trkpt lat="42.29254384243455" lon="13.982831438788521"><ele>160.0</ele><time>2026-05-02T07:35:41.999Z</time></trkpt><trkpt lat="42.29250539592579" lon="13.982757298132901"><ele>160.0</ele><time>2026-05-02T07:35:42.999Z</time></trkpt><trkpt lat="42.29246107939569" lon="13.982680253295843"><ele>160.0</ele><time>2026-05-02T07:35:43.999Z</time></trkpt><trkpt lat="42.292416818429004" lon="13.982604377323142"><ele>160.0</ele><time>2026-05-02T07:35:44.999Z</time></trkpt><trkpt lat="42.292369795358624" lon="13.982527233266046"><ele>160.0</ele><time>2026-05-02T07:35:45.999Z</time></trkpt><trkpt lat="42.29232042970698" lon="13.98244509362478"><ele>160.0</ele><time>2026-05-02T07:35:46.999Z</time></trkpt><trkpt lat="42.29227207682386" lon="13.982360871455581"><ele>160.0</ele><time>2026-05-02T07:35:47.999Z</time></trkpt><trkpt lat="42.29221946542669" lon="13.982272701158909"><ele>161.5</ele><time>2026-05-02T07:35:48.999Z</time></trkpt><trkpt lat="42.292178703271986" lon="13.982202457037758"><ele>163.0</ele><time>2026-05-02T07:35:49.999Z</time></trkpt><trkpt lat="42.29213110106265" lon="13.982124449169573"><ele>164.5</ele><time>2026-05-02T07:35:51.999Z</time></trkpt><trkpt lat="42.29206020537809" lon="13.982012047195813"><ele>166.0</ele><time>2026-05-02T07:35:53.999Z</time></trkpt><trkpt lat="42.29201748544347" lon="13.98193591418295"><ele>167.5</ele><time>2026-05-02T07:35:54.999Z</time></trkpt><trkpt lat="42.29195420769914" lon="13.981840458624479"><ele>169.0</ele><time>2026-05-02T07:35:55.999Z</time></trkpt><trkpt lat="42.291897926781935" lon="13.981758832449144"><ele>168.66666666666669</ele><time>2026-05-02T07:35:56.999Z</time></trkpt><trkpt lat="42.29183676500605" lon="13.981666339091936"><ele>168.33333333333334</ele><time>2026-05-02T07:35:57.999Z</time></trkpt><trkpt lat="42.291780298587355" lon="13.981589301518103"><ele>168.0</ele><time>2026-05-02T07:35:58.999Z</time></trkpt><trkpt lat="42.291720397563665" lon="13.981509430428577"><ele>167.66666666666666</ele><time>2026-05-02T07:35:59.999Z</time></trkpt><trkpt lat="42.29165942839713" lon="13.981427732309845"><ele>167.33333333333331</ele><time>2026-05-02T07:36:00.999Z</time></trkpt><trkpt lat="42.29160316183205" lon="13.981341654887785"><ele>167.0</ele><time>2026-05-02T07:36:01.999Z</time></trkpt><trkpt lat="42.291555235697174" lon="13.981270679935212"><ele>167.0</ele><time>2026-05-02T07:36:02.999Z</time></trkpt><trkpt lat="42.29148828280742" lon="13.981183387257841"><ele>167.0</ele><time>2026-05-02T07:36:04.999Z</time></trkpt><trkpt lat="42.29141492796042" lon="13.981133126344371"><ele>167.0</ele><time>2026-05-02T07:36:06.999Z</time></trkpt><trkpt lat="42.29132720454576" lon="13.981115938404379"><ele>167.0</ele><time>2026-05-02T07:36:08.999Z</time></trkpt><trkpt lat="42.291229155184034" lon="13.981121719365586"><ele>167.0</ele><time>2026-05-02T07:36:10.999Z</time></trkpt><trkpt lat="42.291162634849925" lon="13.981120020851373"><ele>167.0</ele><time>2026-05-02T07:36:12.999Z</time></trkpt><trkpt lat="42.291085103881706" lon="13.981103891635604"><ele>167.33333333333331</ele><time>2026-05-02T07:36:14.999Z</time></trkpt><trkpt lat="42.29102338322971" lon="13.981054699232173"><ele>167.66666666666666</ele><time>2026-05-02T07:36:16.999Z</time></trkpt><trkpt lat="42.29092925599835" lon="13.980962773092596"><ele>168.0</ele><time>2026-05-02T07:36:18.999Z</time></trkpt><trkpt lat="42.29089581233103" lon="13.98088478157022"><ele>168.33333333333334</ele><time>2026-05-02T07:36:19.999Z</time></trkpt><trkpt lat="42.290882817357435" lon="13.980792954234794"><ele>168.66666666666669</ele><time>2026-05-02T07:36:20.999Z</time></trkpt><trkpt lat="42.290876823948004" lon="13.980696740326259"><ele>169.0</ele><time>2026-05-02T07:36:21.999Z</time></trkpt><trkpt lat="42.29088173368854" lon="13.980603173399857"><ele>169.0</ele><time>2026-05-02T07:36:22.999Z</time></trkpt><trkpt lat="42.29088230893334" lon="13.980511534420613"><ele>169.0</ele><time>2026-05-02T07:36:23.999Z</time></trkpt><trkpt lat="42.29087592091898" lon="13.980422683877128"><ele>169.0</ele><time>2026-05-02T07:36:24.999Z</time></trkpt><trkpt lat="42.29086657765508" lon="13.980332478292054"><ele>169.0</ele><time>2026-05-02T07:36:25.999Z</time></trkpt><trkpt lat="42.29085259702423" lon="13.9802372589927"><ele>169.0</ele><time>2026-05-02T07:36:26.999Z</time></trkpt><trkpt lat="42.29083514077673" lon="13.980138550459381"><ele>169.0</ele><time>2026-05-02T07:36:27.999Z</time></trkpt><trkpt lat="42.290798789644455" lon="13.980035163978531"><ele>169.0</ele><time>2026-05-02T07:36:28.999Z</time></trkpt><trkpt lat="42.290746370364936" lon="13.979922002532765"><ele>169.33333333333334</ele><time>2026-05-02T07:36:29.999Z</time></trkpt><trkpt lat="42.29068247336783" lon="13.97981973458314"><ele>169.66666666666669</ele><time>2026-05-02T07:36:30.999Z</time></trkpt><trkpt lat="42.2906300181217" lon="13.97971693009522"><ele>170.0</ele><time>2026-05-02T07:36:32Z</time></trkpt><trkpt lat="42.29055062311313" lon="13.979668539746251"><ele>170.33333333333334</ele><time>2026-05-02T07:36:33Z</time></trkpt><trkpt lat="42.29049294298217" lon="13.979595499325306"><ele>170.66666666666666</ele><time>2026-05-02T07:36:34Z</time></trkpt><trkpt lat="42.29042736728242" lon="13.979547259784066"><ele>171.0</ele><time>2026-05-02T07:36:35Z</time></trkpt><trkpt lat="42.29037371026858" lon="13.97950158696664"><ele>173.33333333333334</ele><time>2026-05-02T07:36:36Z</time></trkpt><trkpt lat="42.29029478698309" lon="13.979389300229949"><ele>175.66666666666666</ele><time>2026-05-02T07:36:38Z</time></trkpt><trkpt lat="42.29028774272356" lon="13.979302394381719"><ele>178.0</ele><time>2026-05-02T07:36:39Z</time></trkpt><trkpt lat="42.29029973877847" lon="13.979206498741494"><ele>180.33333333333331</ele><time>2026-05-02T07:36:40Z</time></trkpt><trkpt lat="42.29032711128645" lon="13.979124634658199"><ele>182.66666666666666</ele><time>2026-05-02T07:36:41Z</time></trkpt><trkpt lat="42.29037394877322" lon="13.97898374203265"><ele>185.0</ele><time>2026-05-02T07:36:43Z</time></trkpt><trkpt lat="42.2904180552572" lon="13.97885045854646"><ele>185.0</ele><time>2026-05-02T07:36:45Z</time></trkpt><trkpt lat="42.2904222123903" lon="13.978700355066046"><ele>185.0</ele><time>2026-05-02T07:36:47Z</time></trkpt><trkpt lat="42.290350305908554" lon="13.978570401644964"><ele>185.0</ele><time>2026-05-02T07:36:49Z</time></trkpt><trkpt lat="42.290283210316076" lon="13.978567655308733"><ele>185.0</ele><time>2026-05-02T07:36:50Z</time></trkpt><trkpt lat="42.29021385449854" lon="13.9786126073073"><ele>185.0</ele><time>2026-05-02T07:36:51Z</time></trkpt><trkpt lat="42.29014348858173" lon="13.978685838182834"><ele>185.0</ele><time>2026-05-02T07:36:52Z</time></trkpt><trkpt lat="42.29006100281535" lon="13.978763704841645"><ele>185.0</ele><time>2026-05-02T07:36:53Z</time></trkpt><trkpt lat="42.2899694188325" lon="13.978828429875533"><ele>185.0</ele><time>2026-05-02T07:36:54Z</time></trkpt><trkpt lat="42.289867338713506" lon="13.978879041255569"><ele>185.0</ele><time>2026-05-02T07:36:55Z</time></trkpt><trkpt lat="42.28977732330092" lon="13.978914508016551"><ele>185.0</ele><time>2026-05-02T07:36:56Z</time></trkpt><trkpt lat="42.289705008417634" lon="13.978935553878477"><ele>187.16666666666666</ele><time>2026-05-02T07:36:57Z</time></trkpt><trkpt lat="42.28964328036335" lon="13.978916299084792"><ele>189.33333333333331</ele><time>2026-05-02T07:36:58Z</time></trkpt><trkpt lat="42.28959747152049" lon="13.978854980966066"><ele>191.5</ele><time>2026-05-02T07:36:59Z</time></trkpt><trkpt lat="42.28955483477167" lon="13.97876456425199"><ele>193.66666666666666</ele><time>2026-05-02T07:37:00Z</time></trkpt><trkpt lat="42.28952446412458" lon="13.978646146284195"><ele>195.83333333333334</ele><time>2026-05-02T07:37:01Z</time></trkpt><trkpt lat="42.289503569832675" lon="13.978520012040041"><ele>198.0</ele><time>2026-05-02T07:37:02Z</time></trkpt><trkpt lat="42.28949287735194" lon="13.97840536943313"><ele>198.5</ele><time>2026-05-02T07:37:03Z</time></trkpt><trkpt lat="42.28948394218229" lon="13.978297544798393"><ele>199.0</ele><time>2026-05-02T07:37:04Z</time></trkpt><trkpt lat="42.28947606354014" lon="13.97820209372432"><ele>199.5</ele><time>2026-05-02T07:37:05Z</time></trkpt><trkpt lat="42.28945930719109" lon="13.978100119927515"><ele>200.0</ele><time>2026-05-02T07:37:06Z</time></trkpt><trkpt lat="42.28941965735675" lon="13.977968222789151"><ele>200.5</ele><time>2026-05-02T07:37:08Z</time></trkpt><trkpt lat="42.289358045983946" lon="13.977899895447402"><ele>201.0</ele><time>2026-05-02T07:37:10Z</time></trkpt><trkpt lat="42.2892670120107" lon="13.97786071087929"><ele>201.0</ele><time>2026-05-02T07:37:12Z</time></trkpt><trkpt lat="42.28919971114246" lon="13.977868085748979"><ele>201.0</ele><time>2026-05-02T07:37:13Z</time></trkpt><trkpt lat="42.289117844316586" lon="13.977903112425999"><ele>201.0</ele><time>2026-05-02T07:37:14Z</time></trkpt><trkpt lat="42.289032370505204" lon="13.977966130540434"><ele>201.0</ele><time>2026-05-02T07:37:15Z</time></trkpt><trkpt lat="42.288941941818955" lon="13.97802475971378"><ele>201.0</ele><time>2026-05-02T07:37:16Z</time></trkpt><trkpt lat="42.288873269170736" lon="13.978092051121228"><ele>201.0</ele><time>2026-05-02T07:37:17Z</time></trkpt><trkpt lat="42.28881480346419" lon="13.978171317216011"><ele>203.16666666666666</ele><time>2026-05-02T07:37:18Z</time></trkpt><trkpt lat="42.28877380921599" lon="13.978254477533467"><ele>205.33333333333331</ele><time>2026-05-02T07:37:19Z</time></trkpt><trkpt lat="42.28874370763455" lon="13.97834724353871"><ele>207.5</ele><time>2026-05-02T07:37:20Z</time></trkpt><trkpt lat="42.288724494146244" lon="13.97843807735369"><ele>209.66666666666666</ele><time>2026-05-02T07:37:21Z</time></trkpt><trkpt lat="42.28869464303083" lon="13.978547906211658"><ele>211.83333333333331</ele><time>2026-05-02T07:37:22Z</time></trkpt><trkpt lat="42.288648503079685" lon="13.978629008640539"><ele>214.0</ele><time>2026-05-02T07:37:23Z</time></trkpt><trkpt lat="42.28858047083225" lon="13.97872926666042"><ele>214.0</ele><time>2026-05-02T07:37:24Z</time></trkpt><trkpt lat="42.288513379753006" lon="13.978845696307598"><ele>213.99999999999997</ele><time>2026-05-02T07:37:25Z</time></trkpt><trkpt lat="42.288462142583995" lon="13.978935884184898"><ele>213.99999999999997</ele><time>2026-05-02T07:37:26Z</time></trkpt><trkpt lat="42.28841023389716" lon="13.979051407098021"><ele>214.0</ele><time>2026-05-02T07:37:28Z</time></trkpt><trkpt lat="42.288410866928615" lon="13.979206703718992"><ele>214.0</ele><time>2026-05-02T07:37:30Z</time></trkpt><trkpt lat="42.28840434755056" lon="13.979328801874614"><ele>214.79999999999998</ele><time>2026-05-02T07:37:31Z</time></trkpt><trkpt lat="42.28839083088624" lon="13.979449819255874"><ele>215.59999999999997</ele><time>2026-05-02T07:37:32Z</time></trkpt><trkpt lat="42.28837747578026" lon="13.979581305742208"><ele>216.4</ele><time>2026-05-02T07:37:33Z</time></trkpt><trkpt lat="42.28837170253873" lon="13.979708660456687"><ele>217.2</ele><time>2026-05-02T07:37:34Z</time></trkpt><trkpt lat="42.288365628258504" lon="13.97983264894361"><ele>218.0</ele><time>2026-05-02T07:37:35Z</time></trkpt><trkpt lat="42.28835474305678" lon="13.979948465997648"><ele>218.42857142857144</ele><time>2026-05-02T07:37:36Z</time></trkpt><trkpt lat="42.2883464617023" lon="13.980040135029185"><ele>218.85714285714286</ele><time>2026-05-02T07:37:37Z</time></trkpt><trkpt lat="42.288348184295195" lon="13.980144959311573"><ele>219.28571428571428</ele><time>2026-05-02T07:37:38Z</time></trkpt><trkpt lat="42.288372381070346" lon="13.980231136922274"><ele>219.71428571428572</ele><time>2026-05-02T07:37:39Z</time></trkpt><trkpt lat="42.288414002005474" lon="13.980328182097812"><ele>220.14285714285714</ele><time>2026-05-02T07:37:40Z</time></trkpt><trkpt lat="42.28845432376021" lon="13.980408063567321"><ele>220.57142857142858</ele><time>2026-05-02T07:37:41Z</time></trkpt><trkpt lat="42.28849317105848" lon="13.980493866686382"><ele>221.0</ele><time>2026-05-02T07:37:42Z</time></trkpt><trkpt lat="42.28851249123726" lon="13.980585171171318"><ele>221.00000000000003</ele><time>2026-05-02T07:37:43Z</time></trkpt><trkpt lat="42.28850233372627" lon="13.980683840014299"><ele>221.0</ele><time>2026-05-02T07:37:44Z</time></trkpt><trkpt lat="42.288466954703196" lon="13.980763126304607"><ele>221.0</ele><time>2026-05-02T07:37:45Z</time></trkpt><trkpt lat="42.28841455059825" lon="13.980823608971951"><ele>221.0</ele><time>2026-05-02T07:37:46Z</time></trkpt><trkpt lat="42.288354338211384" lon="13.980850448986114"><ele>221.0</ele><time>2026-05-02T07:37:47Z</time></trkpt><trkpt lat="42.28829078013644" lon="13.980843635248034"><ele>221.00000000000003</ele><time>2026-05-02T07:37:48Z</time></trkpt><trkpt lat="42.288229109684266" lon="13.980806372375344"><ele>221.0</ele><time>2026-05-02T07:37:49Z</time></trkpt><trkpt lat="42.288177906506625" lon="13.980744097872027"><ele>221.00000000000003</ele><time>2026-05-02T07:37:50Z</time></trkpt><trkpt lat="42.288150341925736" lon="13.980661362907057"><ele>221.0</ele><time>2026-05-02T07:37:51Z</time></trkpt><trkpt lat="42.28813441095091" lon="13.980576534688353"><ele>221.0</ele><time>2026-05-02T07:37:52Z</time></trkpt><trkpt lat="42.288053325033715" lon="13.98049472898539"><ele>221.0</ele><time>2026-05-02T07:37:54Z</time></trkpt><trkpt lat="42.28799011726945" lon="13.980492429758444"><ele>221.00000000000003</ele><time>2026-05-02T07:37:55Z</time></trkpt><trkpt lat="42.28792930729815" lon="13.980583496102922"><ele>221.0</ele><time>2026-05-02T07:37:57Z</time></trkpt><trkpt lat="42.28793084674701" lon="13.98074506644314"><ele>225.00000000000003</ele><time>2026-05-02T07:37:59Z</time></trkpt><trkpt lat="42.28795870001799" lon="13.98082998819478"><ele>229.0</ele><time>2026-05-02T07:38:00Z</time></trkpt><trkpt lat="42.28797734178048" lon="13.980921418754333"><ele>233.0</ele><time>2026-05-02T07:38:01Z</time></trkpt><trkpt lat="42.287979421340225" lon="13.981029258319396"><ele>237.0</ele><time>2026-05-02T07:38:02Z</time></trkpt><trkpt lat="42.28799310972312" lon="13.981139282814054"><ele>241.00000000000003</ele><time>2026-05-02T07:38:03Z</time></trkpt><trkpt lat="42.28801436971299" lon="13.981242659168483"><ele>245.0</ele><time>2026-05-02T07:38:04Z</time></trkpt><trkpt lat="42.28803097563138" lon="13.981341738099868"><ele>246.33333333333334</ele><time>2026-05-02T07:38:05Z</time></trkpt><trkpt lat="42.28800115578545" lon="13.98145945282255"><ele>247.66666666666669</ele><time>2026-05-02T07:38:07Z</time></trkpt><trkpt lat="42.287914722812545" lon="13.9814960528813"><ele>249.0</ele><time>2026-05-02T07:38:09Z</time></trkpt><trkpt lat="42.28785308853253" lon="13.981462670048888"><ele>250.33333333333331</ele><time>2026-05-02T07:38:10Z</time></trkpt><trkpt lat="42.287810083489966" lon="13.981387329111168"><ele>251.66666666666666</ele><time>2026-05-02T07:38:11Z</time></trkpt><trkpt lat="42.28779451038903" lon="13.981292825931872"><ele>253.0</ele><time>2026-05-02T07:38:12Z</time></trkpt><trkpt lat="42.287787188431295" lon="13.981202660725186"><ele>253.0</ele><time>2026-05-02T07:38:13Z</time></trkpt><trkpt lat="42.28770195729921" lon="13.981101893383942"><ele>253.0</ele><time>2026-05-02T07:38:15Z</time></trkpt><trkpt lat="42.28764027237501" lon="13.981079286048978"><ele>253.0</ele><time>2026-05-02T07:38:16Z</time></trkpt><trkpt lat="42.28755462071192" lon="13.981057965064341"><ele>253.0</ele><time>2026-05-02T07:38:17Z</time></trkpt><trkpt lat="42.287455228910964" lon="13.981025957747075"><ele>253.0</ele><time>2026-05-02T07:38:18Z</time></trkpt><trkpt lat="42.28735420249836" lon="13.981000414903752"><ele>253.8</ele><time>2026-05-02T07:38:19Z</time></trkpt><trkpt lat="42.287253341896154" lon="13.980961590941824"><ele>254.60000000000002</ele><time>2026-05-02T07:38:20Z</time></trkpt><trkpt lat="42.28715478651139" lon="13.98092608946299"><ele>255.39999999999998</ele><time>2026-05-02T07:38:21Z</time></trkpt><trkpt lat="42.28707748543039" lon="13.980901207678231"><ele>256.2</ele><time>2026-05-02T07:38:22Z</time></trkpt><trkpt lat="42.28701548536711" lon="13.980874151044087"><ele>257.0</ele><time>2026-05-02T07:38:23Z</time></trkpt><trkpt lat="42.286964372169116" lon="13.980743782973768"><ele>257.0</ele><time>2026-05-02T07:38:25Z</time></trkpt><trkpt lat="42.28695273665414" lon="13.98064883204766"><ele>257.0</ele><time>2026-05-02T07:38:26Z</time></trkpt><trkpt lat="42.28695723743545" lon="13.980534306210213"><ele>257.0</ele><time>2026-05-02T07:38:27Z</time></trkpt><trkpt lat="42.28696666642822" lon="13.980409672050115"><ele>257.0</ele><time>2026-05-02T07:38:28Z</time></trkpt><trkpt lat="42.28698067423671" lon="13.980301801850645"><ele>257.0</ele><time>2026-05-02T07:38:29Z</time></trkpt><trkpt lat="42.28698687920918" lon="13.98019863303075"><ele>257.0</ele><time>2026-05-02T07:38:30Z</time></trkpt><trkpt lat="42.286987448655125" lon="13.980072812457356"><ele>257.1666666666667</ele><time>2026-05-02T07:38:31Z</time></trkpt><trkpt lat="42.28697917191396" lon="13.97995323560422"><ele>257.33333333333337</ele><time>2026-05-02T07:38:32Z</time></trkpt><trkpt lat="42.286961039134866" lon="13.9798536637576"><ele>257.5</ele><time>2026-05-02T07:38:33Z</time></trkpt><trkpt lat="42.28693166100284" lon="13.979761574174539"><ele>257.6666666666667</ele><time>2026-05-02T07:38:34Z</time></trkpt><trkpt lat="42.28689623419753" lon="13.979664877829402"><ele>257.8333333333333</ele><time>2026-05-02T07:38:35Z</time></trkpt><trkpt lat="42.28686432981099" lon="13.979566799344544"><ele>258.0</ele><time>2026-05-02T07:38:36Z</time></trkpt><trkpt lat="42.28684730572896" lon="13.97946556416126"><ele>258.0</ele><time>2026-05-02T07:38:37Z</time></trkpt><trkpt lat="42.28684739469498" lon="13.979351363566144"><ele>258.0</ele><time>2026-05-02T07:38:38Z</time></trkpt><trkpt lat="42.28684573220794" lon="13.979225159500082"><ele>258.0</ele><time>2026-05-02T07:38:39Z</time></trkpt><trkpt lat="42.28683363195977" lon="13.979093974564481"><ele>258.0</ele><time>2026-05-02T07:38:40Z</time></trkpt><trkpt lat="42.28681563967313" lon="13.978961766362186"><ele>258.0</ele><time>2026-05-02T07:38:41Z</time></trkpt><trkpt lat="42.28679610681159" lon="13.978836145086074"><ele>257.8333333333333</ele><time>2026-05-02T07:38:42Z</time></trkpt><trkpt lat="42.28677319874918" lon="13.978731739798343"><ele>257.6666666666667</ele><time>2026-05-02T07:38:43Z</time></trkpt><trkpt lat="42.286752139226486" lon="13.978639470211144"><ele>257.5</ele><time>2026-05-02T07:38:44Z</time></trkpt><trkpt lat="42.28670657224778" lon="13.978510131774813"><ele>257.33333333333337</ele><time>2026-05-02T07:38:46Z</time></trkpt><trkpt lat="42.28666490604527" lon="13.978414182936053"><ele>257.1666666666667</ele><time>2026-05-02T07:38:48Z</time></trkpt><trkpt lat="42.286624717189774" lon="13.978339202465971"><ele>257.0</ele><time>2026-05-02T07:38:50Z</time></trkpt><trkpt lat="42.286578608584236" lon="13.978269579698875"><ele>257.0</ele><time>2026-05-02T07:38:52Z</time></trkpt><trkpt lat="42.286517650394" lon="13.978186147356704"><ele>257.0</ele><time>2026-05-02T07:38:54Z</time></trkpt><trkpt lat="42.28641861423727" lon="13.978081793810121"><ele>257.0</ele><time>2026-05-02T07:38:56Z</time></trkpt><trkpt lat="42.28636080975547" lon="13.978021928141503"><ele>257.0</ele><time>2026-05-02T07:38:57Z</time></trkpt><trkpt lat="42.28629671030613" lon="13.977948797967736"><ele>257.0</ele><time>2026-05-02T07:38:58Z</time></trkpt><trkpt lat="42.28623612626683" lon="13.977876877911394"><ele>258.1666666666667</ele><time>2026-05-02T07:38:59Z</time></trkpt><trkpt lat="42.28617147240761" lon="13.977789673371392"><ele>259.33333333333337</ele><time>2026-05-02T07:39:00Z</time></trkpt><trkpt lat="42.286120614936266" lon="13.977701245126404"><ele>260.5</ele><time>2026-05-02T07:39:01Z</time></trkpt><trkpt lat="42.28607107289435" lon="13.977601448159545"><ele>261.6666666666667</ele><time>2026-05-02T07:39:02Z</time></trkpt><trkpt lat="42.286032361677165" lon="13.97749515772488"><ele>262.8333333333333</ele><time>2026-05-02T07:39:03Z</time></trkpt><trkpt lat="42.285986572977144" lon="13.97739345351732"><ele>264.0</ele><time>2026-05-02T07:39:04Z</time></trkpt><trkpt lat="42.285924603604194" lon="13.977297316370768"><ele>264.0</ele><time>2026-05-02T07:39:05Z</time></trkpt><trkpt lat="42.28585057658626" lon="13.977219883372962"><ele>264.0</ele><time>2026-05-02T07:39:06Z</time></trkpt><trkpt lat="42.28577481963333" lon="13.977146228244589"><ele>264.0</ele><time>2026-05-02T07:39:07Z</time></trkpt><trkpt lat="42.28570315162823" lon="13.97708804683322"><ele>264.0</ele><time>2026-05-02T07:39:08Z</time></trkpt><trkpt lat="42.28562961755653" lon="13.97703220883162"><ele>264.0</ele><time>2026-05-02T07:39:09Z</time></trkpt><trkpt lat="42.28556285907957" lon="13.976988044157494"><ele>264.0</ele><time>2026-05-02T07:39:10Z</time></trkpt><trkpt lat="42.28550549871374" lon="13.976950282494522"><ele>264.8333333333333</ele><time>2026-05-02T07:39:11Z</time></trkpt><trkpt lat="42.28545175521646" lon="13.976891175525456"><ele>265.6666666666667</ele><time>2026-05-02T07:39:12Z</time></trkpt><trkpt lat="42.285397691305754" lon="13.976818891221795"><ele>266.5</ele><time>2026-05-02T07:39:13Z</time></trkpt><trkpt lat="42.285353217063665" lon="13.976740874117363"><ele>267.33333333333337</ele><time>2026-05-02T07:39:14Z</time></trkpt><trkpt lat="42.28533625263534" lon="13.976590801433767"><ele>268.1666666666667</ele><time>2026-05-02T07:39:16Z</time></trkpt><trkpt lat="42.28534884280356" lon="13.976491180511596"><ele>269.0</ele><time>2026-05-02T07:39:17Z</time></trkpt><trkpt lat="42.28537289036639" lon="13.97635894595639"><ele>269.0</ele><time>2026-05-02T07:39:18Z</time></trkpt><trkpt lat="42.285396579690186" lon="13.976212074655802"><ele>269.0</ele><time>2026-05-02T07:39:19Z</time></trkpt><trkpt lat="42.285415777363795" lon="13.97606986047624"><ele>269.0</ele><time>2026-05-02T07:39:20Z</time></trkpt><trkpt lat="42.28542533157874" lon="13.975937602493838"><ele>269.0</ele><time>2026-05-02T07:39:21Z</time></trkpt><trkpt lat="42.28541963475661" lon="13.975791937483223"><ele>269.0</ele><time>2026-05-02T07:39:22Z</time></trkpt><trkpt lat="42.28540263561893" lon="13.975639677998922"><ele>270.0</ele><time>2026-05-02T07:39:23Z</time></trkpt><trkpt lat="42.28538012259872" lon="13.975495117736553"><ele>271.0</ele><time>2026-05-02T07:39:24Z</time></trkpt><trkpt lat="42.2853565346625" lon="13.975340169213622"><ele>272.0</ele><time>2026-05-02T07:39:25Z</time></trkpt><trkpt lat="42.28533151960268" lon="13.975191040718677"><ele>273.0</ele><time>2026-05-02T07:39:26Z</time></trkpt><trkpt lat="42.28530184759414" lon="13.975059371348168"><ele>274.0</ele><time>2026-05-02T07:39:27Z</time></trkpt><trkpt lat="42.28526668373994" lon="13.974940098652546"><ele>274.4</ele><time>2026-05-02T07:39:28Z</time></trkpt><trkpt lat="42.28522464368598" lon="13.974823646649597"><ele>274.79999999999995</ele><time>2026-05-02T07:39:29Z</time></trkpt><trkpt lat="42.285176145492144" lon="13.974712659157124"><ele>275.20000000000005</ele><time>2026-05-02T07:39:30Z</time></trkpt><trkpt lat="42.285119637223374" lon="13.97460205073443"><ele>275.6</ele><time>2026-05-02T07:39:31Z</time></trkpt><trkpt lat="42.28504808686023" lon="13.974467315928317"><ele>276.0</ele><time>2026-05-02T07:39:32Z</time></trkpt><trkpt lat="42.284974263535254" lon="13.974308824439719"><ele>276.25</ele><time>2026-05-02T07:39:33Z</time></trkpt><trkpt lat="42.28490094419254" lon="13.974145782454784"><ele>276.5</ele><time>2026-05-02T07:39:34Z</time></trkpt><trkpt lat="42.284832532811855" lon="13.973995670866216"><ele>276.75</ele><time>2026-05-02T07:39:35Z</time></trkpt><trkpt lat="42.28477287153899" lon="13.973856094117263"><ele>277.0</ele><time>2026-05-02T07:39:36Z</time></trkpt><trkpt lat="42.28471312446558" lon="13.973715167522462"><ele>279.2</ele><time>2026-05-02T07:39:37Z</time></trkpt><trkpt lat="42.28466151989828" lon="13.973574713923925"><ele>281.4</ele><time>2026-05-02T07:39:38Z</time></trkpt><trkpt lat="42.284611566265" lon="13.973434317539434"><ele>283.6</ele><time>2026-05-02T07:39:39Z</time></trkpt><trkpt lat="42.28456470385529" lon="13.97331606864624"><ele>285.8</ele><time>2026-05-02T07:39:40Z</time></trkpt><trkpt lat="42.284515469480226" lon="13.973217389291682"><ele>288.0</ele><time>2026-05-02T07:39:41Z</time></trkpt><trkpt lat="42.284469861011246" lon="13.973127277003002"><ele>288.6</ele><time>2026-05-02T07:39:42Z</time></trkpt><trkpt lat="42.284413752654864" lon="13.973060688823384"><ele>289.20000000000005</ele><time>2026-05-02T07:39:43Z</time></trkpt><trkpt lat="42.28434882159361" lon="13.973004877898404"><ele>289.8</ele><time>2026-05-02T07:39:44Z</time></trkpt><trkpt lat="42.284272924926206" lon="13.972948213695206"><ele>290.40000000000003</ele><time>2026-05-02T07:39:45Z</time></trkpt><trkpt lat="42.284182797308" lon="13.972886103648777"><ele>291.0</ele><time>2026-05-02T07:39:46Z</time></trkpt><trkpt lat="42.28408161149186" lon="13.972821321544336"><ele>291.0</ele><time>2026-05-02T07:39:47Z</time></trkpt><trkpt lat="42.283965481711846" lon="13.972750661135017"><ele>291.0</ele><time>2026-05-02T07:39:48Z</time></trkpt><trkpt lat="42.283840564398524" lon="13.972679058819796"><ele>291.0</ele><time>2026-05-02T07:39:49Z</time></trkpt><trkpt lat="42.28371919344187" lon="13.972615060203294"><ele>291.0</ele><time>2026-05-02T07:39:50Z</time></trkpt><trkpt lat="42.283612130995444" lon="13.97255915037772"><ele>291.40000000000003</ele><time>2026-05-02T07:39:51Z</time></trkpt><trkpt lat="42.28351164478778" lon="13.97251042794083"><ele>291.8</ele><time>2026-05-02T07:39:52Z</time></trkpt><trkpt lat="42.28341809420746" lon="13.972477682508725"><ele>292.20000000000005</ele><time>2026-05-02T07:39:53Z</time></trkpt><trkpt lat="42.28330803865296" lon="13.972478038148713"><ele>292.6</ele><time>2026-05-02T07:39:54Z</time></trkpt><trkpt lat="42.28321968158925" lon="13.972473863081134"><ele>293.0</ele><time>2026-05-02T07:39:55Z</time></trkpt><trkpt lat="42.28315756510667" lon="13.972439629584162"><ele>293.0</ele><time>2026-05-02T07:39:56Z</time></trkpt><trkpt lat="42.28310845788955" lon="13.972384412303988"><ele>293.0</ele><time>2026-05-02T07:39:57Z</time></trkpt><trkpt lat="42.283063034751926" lon="13.972307309459946"><ele>293.0</ele><time>2026-05-02T07:39:58Z</time></trkpt><trkpt lat="42.28301280002508" lon="13.972210299532838"><ele>293.0</ele><time>2026-05-02T07:39:59Z</time></trkpt><trkpt lat="42.28296584820278" lon="13.972128345155562"><ele>293.0</ele><time>2026-05-02T07:40:00Z</time></trkpt><trkpt lat="42.28290601566383" lon="13.972037153808996"><ele>293.0</ele><time>2026-05-02T07:40:02Z</time></trkpt><trkpt lat="42.28286457830266" lon="13.971853780091816"><ele>292.5</ele><time>2026-05-02T07:40:06Z</time></trkpt><trkpt lat="42.28301708167799" lon="13.971749424401336"><ele>292.0</ele><time>2026-05-02T07:40:07Z</time></trkpt><trkpt lat="42.283069419838746" lon="13.971626485438748"><ele>291.5</ele><time>2026-05-02T07:40:08Z</time></trkpt><trkpt lat="42.283107463871" lon="13.971497864426437"><ele>291.0</ele><time>2026-05-02T07:40:09Z</time></trkpt><trkpt lat="42.28314498873916" lon="13.971381760889436"><ele>291.0</ele><time>2026-05-02T07:40:10Z</time></trkpt><trkpt lat="42.28317944299682" lon="13.971264483736967"><ele>291.0</ele><time>2026-05-02T07:40:11Z</time></trkpt><trkpt lat="42.28322899565169" lon="13.97115830243908"><ele>291.0</ele><time>2026-05-02T07:40:12Z</time></trkpt><trkpt lat="42.28329785357951" lon="13.971063848257906"><ele>291.0</ele><time>2026-05-02T07:40:13Z</time></trkpt><trkpt lat="42.28338089760321" lon="13.970969947632433"><ele>291.0</ele><time>2026-05-02T07:40:14Z</time></trkpt><trkpt lat="42.28346746992527" lon="13.970871921959873"><ele>290.8</ele><time>2026-05-02T07:40:15Z</time></trkpt><trkpt lat="42.28355009123553" lon="13.970771411837974"><ele>290.6</ele><time>2026-05-02T07:40:16Z</time></trkpt><trkpt lat="42.28362761558352" lon="13.970670910525328"><ele>290.4</ele><time>2026-05-02T07:40:17Z</time></trkpt><trkpt lat="42.28370030672824" lon="13.970592622636408"><ele>290.2</ele><time>2026-05-02T07:40:18Z</time></trkpt><trkpt lat="42.2837745943701" lon="13.970542661548073"><ele>290.0</ele><time>2026-05-02T07:40:19Z</time></trkpt><trkpt lat="42.28385589763032" lon="13.970523191546938"><ele>289.4</ele><time>2026-05-02T07:40:20Z</time></trkpt><trkpt lat="42.28394855262785" lon="13.970525342449212"><ele>288.8</ele><time>2026-05-02T07:40:21Z</time></trkpt><trkpt lat="42.28405172915315" lon="13.970530339935342"><ele>288.2</ele><time>2026-05-02T07:40:22Z</time></trkpt><trkpt lat="42.284157505906194" lon="13.97053392996507"><ele>287.6</ele><time>2026-05-02T07:40:23Z</time></trkpt><trkpt lat="42.28427345746779" lon="13.970527077156284"><ele>287.0</ele><time>2026-05-02T07:40:24Z</time></trkpt><trkpt lat="42.28439466882137" lon="13.970503655936238"><ele>287.0</ele><time>2026-05-02T07:40:25Z</time></trkpt><trkpt lat="42.284514903465016" lon="13.970468575065206"><ele>287.0</ele><time>2026-05-02T07:40:26Z</time></trkpt><trkpt lat="42.28463583815469" lon="13.970436532719562"><ele>287.0</ele><time>2026-05-02T07:40:27Z</time></trkpt><trkpt lat="42.284750669735985" lon="13.970394052538829"><ele>287.0</ele><time>2026-05-02T07:40:28Z</time></trkpt><trkpt lat="42.284860647992446" lon="13.970358766671007"><ele>287.2</ele><time>2026-05-02T07:40:29Z</time></trkpt><trkpt lat="42.284955771262446" lon="13.970325412201214"><ele>287.4</ele><time>2026-05-02T07:40:30Z</time></trkpt><trkpt lat="42.285047401039066" lon="13.97029277839985"><ele>287.6</ele><time>2026-05-02T07:40:31Z</time></trkpt><trkpt lat="42.28513526949531" lon="13.97025867618883"><ele>287.8</ele><time>2026-05-02T07:40:32Z</time></trkpt><trkpt lat="42.28521726252381" lon="13.970227268131666"><ele>288.0</ele><time>2026-05-02T07:40:33Z</time></trkpt><trkpt lat="42.28529672659142" lon="13.970176603213844"><ele>288.0</ele><time>2026-05-02T07:40:35Z</time></trkpt><trkpt lat="42.285340489506225" lon="13.970087241574289"><ele>288.0</ele><time>2026-05-02T07:40:37Z</time></trkpt><trkpt lat="42.28537898479385" lon="13.9700013341605"><ele>288.0</ele><time>2026-05-02T07:40:38Z</time></trkpt><trkpt lat="42.285417589682325" lon="13.96991368588586"><ele>288.0</ele><time>2026-05-02T07:40:39Z</time></trkpt><trkpt lat="42.28547038402911" lon="13.96978848108836"><ele>288.0</ele><time>2026-05-02T07:40:40Z</time></trkpt><trkpt lat="42.285534483643595" lon="13.969633754181844"><ele>288.0</ele><time>2026-05-02T07:40:41Z</time></trkpt><trkpt lat="42.285597841707485" lon="13.969478214324555"><ele>288.0</ele><time>2026-05-02T07:40:42Z</time></trkpt><trkpt lat="42.28564781979468" lon="13.96934540355876"><ele>288.0</ele><time>2026-05-02T07:40:43Z</time></trkpt><trkpt lat="42.28568229113535" lon="13.969247564337554"><ele>288.0</ele><time>2026-05-02T07:40:44Z</time></trkpt><trkpt lat="42.28571561853475" lon="13.969158350545678"><ele>288.0</ele><time>2026-05-02T07:40:45Z</time></trkpt><trkpt lat="42.28574550721543" lon="13.96906965720414"><ele>289.3333333333333</ele><time>2026-05-02T07:40:46Z</time></trkpt><trkpt lat="42.285775988537395" lon="13.968988885114442"><ele>290.6666666666667</ele><time>2026-05-02T07:40:47Z</time></trkpt><trkpt lat="42.28579824210085" lon="13.968891194767243"><ele>292.0</ele><time>2026-05-02T07:40:48Z</time></trkpt><trkpt lat="42.28582978543693" lon="13.968798892476816"><ele>293.33333333333337</ele><time>2026-05-02T07:40:49Z</time></trkpt><trkpt lat="42.285872076790874" lon="13.968725569171932"><ele>294.6666666666667</ele><time>2026-05-02T07:40:50Z</time></trkpt><trkpt lat="42.28596922767141" lon="13.968611110479797"><ele>296.0</ele><time>2026-05-02T07:40:52Z</time></trkpt><trkpt lat="42.28602694934248" lon="13.968542704583005"><ele>296.0</ele><time>2026-05-02T07:40:53Z</time></trkpt><trkpt lat="42.28608862894809" lon="13.968463554477886"><ele>296.0</ele><time>2026-05-02T07:40:54Z</time></trkpt><trkpt lat="42.28615576677703" lon="13.968369801547627"><ele>296.0</ele><time>2026-05-02T07:40:55Z</time></trkpt><trkpt lat="42.28621684262704" lon="13.968270733780148"><ele>296.0</ele><time>2026-05-02T07:40:56Z</time></trkpt><trkpt lat="42.28626641413337" lon="13.968182797966373"><ele>296.0</ele><time>2026-05-02T07:40:57Z</time></trkpt><trkpt lat="42.286308061273914" lon="13.968106069366216"><ele>296.0</ele><time>2026-05-02T07:40:58Z</time></trkpt><trkpt lat="42.28635214223706" lon="13.968033428163059"><ele>297.2</ele><time>2026-05-02T07:40:59Z</time></trkpt><trkpt lat="42.2864006279507" lon="13.967942253447914"><ele>298.40000000000003</ele><time>2026-05-02T07:41:00Z</time></trkpt><trkpt lat="42.28645350635452" lon="13.967832108580382"><ele>299.6</ele><time>2026-05-02T07:41:01Z</time></trkpt><trkpt lat="42.28650299680885" lon="13.967729776298167"><ele>300.8</ele><time>2026-05-02T07:41:02Z</time></trkpt><trkpt lat="42.286560311782495" lon="13.967632917186268"><ele>302.0</ele><time>2026-05-02T07:41:03Z</time></trkpt><trkpt lat="42.28661562002197" lon="13.967536901096798"><ele>301.0</ele><time>2026-05-02T07:41:04Z</time></trkpt><trkpt lat="42.28667098385997" lon="13.96743569414011"><ele>300.0</ele><time>2026-05-02T07:41:05Z</time></trkpt><trkpt lat="42.286725400461236" lon="13.967337274600856"><ele>299.0</ele><time>2026-05-02T07:41:06Z</time></trkpt><trkpt lat="42.28678247994581" lon="13.967256388057951"><ele>298.0</ele><time>2026-05-02T07:41:07Z</time></trkpt><trkpt lat="42.28683901976845" lon="13.96718854267495"><ele>297.0</ele><time>2026-05-02T07:41:08Z</time></trkpt><trkpt lat="42.286893052598614" lon="13.967102344489714"><ele>296.0</ele><time>2026-05-02T07:41:09Z</time></trkpt><trkpt lat="42.28693437282764" lon="13.967011269826543"><ele>296.0</ele><time>2026-05-02T07:41:10Z</time></trkpt><trkpt lat="42.28697005345998" lon="13.96692037907908"><ele>296.0</ele><time>2026-05-02T07:41:11Z</time></trkpt><trkpt lat="42.286996768462686" lon="13.96681504118379"><ele>296.0</ele><time>2026-05-02T07:41:12Z</time></trkpt><trkpt lat="42.28700088555681" lon="13.966701246997703"><ele>296.0</ele><time>2026-05-02T07:41:13Z</time></trkpt><trkpt lat="42.286979603421855" lon="13.96659851297194"><ele>296.0</ele><time>2026-05-02T07:41:14Z</time></trkpt><trkpt lat="42.28694155747654" lon="13.966478697187076"><ele>296.0</ele><time>2026-05-02T07:41:15Z</time></trkpt><trkpt lat="42.28690195363277" lon="13.96633485501952"><ele>298.75</ele><time>2026-05-02T07:41:16Z</time></trkpt><trkpt lat="42.28686003565513" lon="13.966178273553925"><ele>301.5</ele><time>2026-05-02T07:41:17Z</time></trkpt><trkpt lat="42.28680868514167" lon="13.966013271704302"><ele>304.25</ele><time>2026-05-02T07:41:18Z</time></trkpt><trkpt lat="42.28675838325853" lon="13.965842468479751"><ele>307.0</ele><time>2026-05-02T07:41:19Z</time></trkpt><trkpt lat="42.286716776936245" lon="13.965684171724785"><ele>308.0</ele><time>2026-05-02T07:41:20Z</time></trkpt><trkpt lat="42.28667066074085" lon="13.965541110669054"><ele>309.0</ele><time>2026-05-02T07:41:21Z</time></trkpt><trkpt lat="42.286634263768995" lon="13.96540728640209"><ele>310.0</ele><time>2026-05-02T07:41:22Z</time></trkpt><trkpt lat="42.28659505988834" lon="13.96527986665752"><ele>311.0</ele><time>2026-05-02T07:41:23Z</time></trkpt><trkpt lat="42.28657532516156" lon="13.965163171261443"><ele>312.0</ele><time>2026-05-02T07:41:24Z</time></trkpt><trkpt lat="42.286550151730445" lon="13.965056184882359"><ele>312.1666666666667</ele><time>2026-05-02T07:41:25Z</time></trkpt><trkpt lat="42.28654218448162" lon="13.964933097659461"><ele>312.3333333333333</ele><time>2026-05-02T07:41:26Z</time></trkpt><trkpt lat="42.28654655958058" lon="13.96480576575792"><ele>312.5</ele><time>2026-05-02T07:41:27Z</time></trkpt><trkpt lat="42.286551745758196" lon="13.964674667573059"><ele>312.66666666666663</ele><time>2026-05-02T07:41:28Z</time></trkpt><trkpt lat="42.28655736068906" lon="13.96456576073855"><ele>312.8333333333333</ele><time>2026-05-02T07:41:29Z</time></trkpt><trkpt lat="42.28656772630698" lon="13.96447549882176"><ele>313.0</ele><time>2026-05-02T07:41:30Z</time></trkpt><trkpt lat="42.286579463995515" lon="13.964385332233013"><ele>313.0</ele><time>2026-05-02T07:41:31Z</time></trkpt><trkpt lat="42.28659976465559" lon="13.964289715676763"><ele>313.0</ele><time>2026-05-02T07:41:32Z</time></trkpt><trkpt lat="42.28663621391081" lon="13.96419745581866"><ele>313.0</ele><time>2026-05-02T07:41:33Z</time></trkpt><trkpt lat="42.28668242927882" lon="13.964110601989324"><ele>313.0</ele><time>2026-05-02T07:41:34Z</time></trkpt><trkpt lat="42.286730039746764" lon="13.964029070661041"><ele>313.0</ele><time>2026-05-02T07:41:35Z</time></trkpt><trkpt lat="42.286780698407675" lon="13.963961176985295"><ele>313.0</ele><time>2026-05-02T07:41:36Z</time></trkpt><trkpt lat="42.2868277720058" lon="13.963899950085095"><ele>313.0</ele><time>2026-05-02T07:41:37Z</time></trkpt><trkpt lat="42.28686910849505" lon="13.963833775280674"><ele>313.3333333333333</ele><time>2026-05-02T07:41:38Z</time></trkpt><trkpt lat="42.28690152142854" lon="13.963759420324987"><ele>313.66666666666663</ele><time>2026-05-02T07:41:39Z</time></trkpt><trkpt lat="42.286937434787276" lon="13.963685187510103"><ele>314.0</ele><time>2026-05-02T07:41:40Z</time></trkpt><trkpt lat="42.28694212654442" lon="13.963580839951536"><ele>314.3333333333333</ele><time>2026-05-02T07:41:41Z</time></trkpt><trkpt lat="42.28690170575624" lon="13.963470837207991"><ele>314.6666666666667</ele><time>2026-05-02T07:41:42Z</time></trkpt><trkpt lat="42.28688514200699" lon="13.96336671912955"><ele>315.0</ele><time>2026-05-02T07:41:43Z</time></trkpt><trkpt lat="42.28684052569063" lon="13.963259691922183"><ele>314.0</ele><time>2026-05-02T07:41:44Z</time></trkpt><trkpt lat="42.28678315732336" lon="13.96314106681282"><ele>313.0</ele><time>2026-05-02T07:41:45Z</time></trkpt><trkpt lat="42.28673891595935" lon="13.963035511398356"><ele>312.0</ele><time>2026-05-02T07:41:46Z</time></trkpt><trkpt lat="42.286694310399625" lon="13.96291294723921"><ele>311.0</ele><time>2026-05-02T07:41:47Z</time></trkpt><trkpt lat="42.28663825982416" lon="13.962789752363301"><ele>310.0</ele><time>2026-05-02T07:41:48Z</time></trkpt><trkpt lat="42.28659278396851" lon="13.962652833845514"><ele>310.0</ele><time>2026-05-02T07:41:49Z</time></trkpt><trkpt lat="42.2865595036782" lon="13.96250315732931"><ele>310.0</ele><time>2026-05-02T07:41:50Z</time></trkpt><trkpt lat="42.28649747913177" lon="13.962366299683879"><ele>310.0</ele><time>2026-05-02T07:41:51Z</time></trkpt><trkpt lat="42.286448593344005" lon="13.962216783489973"><ele>310.0</ele><time>2026-05-02T07:41:52Z</time></trkpt><trkpt lat="42.28639923290147" lon="13.9620697056257"><ele>310.0</ele><time>2026-05-02T07:41:53Z</time></trkpt><trkpt lat="42.286351983179124" lon="13.961932236578257"><ele>310.0</ele><time>2026-05-02T07:41:54Z</time></trkpt><trkpt lat="42.28631357842663" lon="13.961806982691474"><ele>310.0</ele><time>2026-05-02T07:41:55Z</time></trkpt><trkpt lat="42.28627379917702" lon="13.961689044240018"><ele>310.0</ele><time>2026-05-02T07:41:56Z</time></trkpt><trkpt lat="42.286235523773705" lon="13.961585824192042"><ele>310.0</ele><time>2026-05-02T07:41:57Z</time></trkpt><trkpt lat="42.28620102785486" lon="13.961487668175213"><ele>309.3333333333333</ele><time>2026-05-02T07:41:58Z</time></trkpt><trkpt lat="42.28617017848149" lon="13.961374851889525"><ele>308.66666666666663</ele><time>2026-05-02T07:41:59Z</time></trkpt><trkpt lat="42.286148152843474" lon="13.961260439954296"><ele>308.0</ele><time>2026-05-02T07:42:00Z</time></trkpt><trkpt lat="42.28613204352557" lon="13.961144257622019"><ele>307.3333333333333</ele><time>2026-05-02T07:42:01Z</time></trkpt><trkpt lat="42.28611981322806" lon="13.961026893662293"><ele>306.6666666666667</ele><time>2026-05-02T07:42:02Z</time></trkpt><trkpt lat="42.28611483812331" lon="13.960905672881783"><ele>306.0</ele><time>2026-05-02T07:42:03Z</time></trkpt><trkpt lat="42.286117687440886" lon="13.960784812183629"><ele>305.6</ele><time>2026-05-02T07:42:04Z</time></trkpt><trkpt lat="42.286125819683775" lon="13.960668520515231"><ele>305.20000000000005</ele><time>2026-05-02T07:42:05Z</time></trkpt><trkpt lat="42.28614342492259" lon="13.960547523908883"><ele>304.79999999999995</ele><time>2026-05-02T07:42:06Z</time></trkpt><trkpt lat="42.2861664772593" lon="13.960417285202867"><ele>304.4</ele><time>2026-05-02T07:42:07Z</time></trkpt><trkpt lat="42.28619075064216" lon="13.960284968125912"><ele>304.0</ele><time>2026-05-02T07:42:08Z</time></trkpt><trkpt lat="42.2862170525399" lon="13.96015397542144"><ele>304.0</ele><time>2026-05-02T07:42:09Z</time></trkpt><trkpt lat="42.286236501274516" lon="13.96003448392113"><ele>304.0</ele><time>2026-05-02T07:42:10Z</time></trkpt><trkpt lat="42.2862493543764" lon="13.959924264026707"><ele>304.0</ele><time>2026-05-02T07:42:11Z</time></trkpt><trkpt lat="42.28625610631586" lon="13.95983069408096"><ele>304.0</ele><time>2026-05-02T07:42:12Z</time></trkpt><trkpt lat="42.28625875254836" lon="13.95973746244992"><ele>304.0</ele><time>2026-05-02T07:42:28Z</time></trkpt><trkpt lat="42.286277216143546" lon="13.959607529409928"><ele>304.0</ele><time>2026-05-02T07:42:30Z</time></trkpt><trkpt lat="42.286274813493606" lon="13.959518566090331"><ele>304.0</ele><time>2026-05-02T07:42:31Z</time></trkpt><trkpt lat="42.286266059773894" lon="13.959417128426338"><ele>304.0</ele><time>2026-05-02T07:42:32Z</time></trkpt><trkpt lat="42.28624256802642" lon="13.959310314181007"><ele>304.0</ele><time>2026-05-02T07:42:33Z</time></trkpt><trkpt lat="42.28620687148788" lon="13.959213117230235"><ele>304.0</ele><time>2026-05-02T07:42:34Z</time></trkpt><trkpt lat="42.28615847610097" lon="13.959118032458967"><ele>304.0</ele><time>2026-05-02T07:42:35Z</time></trkpt><trkpt lat="42.28610218773828" lon="13.959027409313814"><ele>304.0</ele><time>2026-05-02T07:42:36Z</time></trkpt><trkpt lat="42.286053799641756" lon="13.958927857301576"><ele>302.66666666666663</ele><time>2026-05-02T07:42:37Z</time></trkpt><trkpt lat="42.285980168114655" lon="13.958835559456732"><ele>301.3333333333333</ele><time>2026-05-02T07:42:38Z</time></trkpt><trkpt lat="42.28590635125822" lon="13.958745866818171"><ele>300.0</ele><time>2026-05-02T07:42:39Z</time></trkpt><trkpt lat="42.28583809316937" lon="13.958665419725014"><ele>298.6666666666667</ele><time>2026-05-02T07:42:40Z</time></trkpt><trkpt lat="42.28576745240802" lon="13.958608520502262"><ele>297.33333333333337</ele><time>2026-05-02T07:42:41Z</time></trkpt><trkpt lat="42.285720993148054" lon="13.95854363717411"><ele>296.0</ele><time>2026-05-02T07:42:42Z</time></trkpt><trkpt lat="42.285659839936535" lon="13.958437157462766"><ele>295.40000000000003</ele><time>2026-05-02T07:42:44Z</time></trkpt><trkpt lat="42.285613877254995" lon="13.958332515908168"><ele>294.8</ele><time>2026-05-02T07:42:47Z</time></trkpt><trkpt lat="42.28550446872796" lon="13.958336096261727"><ele>294.20000000000005</ele><time>2026-05-02T07:42:48Z</time></trkpt><trkpt lat="42.285534627663026" lon="13.958203322891192"><ele>293.6</ele><time>2026-05-02T07:43:13Z</time></trkpt><trkpt lat="42.28547956722071" lon="13.958144130064545"><ele>293.0</ele><time>2026-05-02T07:43:14Z</time></trkpt><trkpt lat="42.28539555494299" lon="13.958116129725036"><ele>293.0</ele><time>2026-05-02T07:43:15Z</time></trkpt><trkpt lat="42.285316485400074" lon="13.958088267853705"><ele>293.0</ele><time>2026-05-02T07:43:16Z</time></trkpt><trkpt lat="42.28524949994421" lon="13.958066503819307"><ele>293.0</ele><time>2026-05-02T07:43:17Z</time></trkpt><trkpt lat="42.285128711936466" lon="13.958061361833769"><ele>293.0</ele><time>2026-05-02T07:43:19Z</time></trkpt><trkpt lat="42.285046079858276" lon="13.958071288885975"><ele>293.0</ele><time>2026-05-02T07:43:20Z</time></trkpt><trkpt lat="42.28493843228112" lon="13.95806952549508"><ele>293.0</ele><time>2026-05-02T07:43:21Z</time></trkpt><trkpt lat="42.284820268524435" lon="13.958059134993444"><ele>293.0</ele><time>2026-05-02T07:43:22Z</time></trkpt><trkpt lat="42.28470139242354" lon="13.958049190250488"><ele>293.0</ele><time>2026-05-02T07:43:23Z</time></trkpt><trkpt lat="42.284589667293424" lon="13.958017564375115"><ele>293.0</ele><time>2026-05-02T07:43:24Z</time></trkpt><trkpt lat="42.28451176408115" lon="13.958028598286353"><ele>293.0</ele><time>2026-05-02T07:43:25Z</time></trkpt><trkpt lat="42.28443486887714" lon="13.958018758467222"><ele>293.0</ele><time>2026-05-02T07:43:27Z</time></trkpt><trkpt lat="42.28451611317618" lon="13.958025999222302"><ele>293.0</ele><time>2026-05-02T07:43:32Z</time></trkpt><trkpt lat="42.28459312460102" lon="13.958098584569774"><ele>293.0</ele><time>2026-05-02T07:43:33Z</time></trkpt><trkpt lat="42.284666357954244" lon="13.958073237970252"><ele>293.0</ele><time>2026-05-02T07:43:34Z</time></trkpt><trkpt lat="42.284754623737605" lon="13.9580703766317"><ele>293.0</ele><time>2026-05-02T07:43:35Z</time></trkpt><trkpt lat="42.28485356759112" lon="13.958081166618229"><ele>293.0</ele><time>2026-05-02T07:43:36Z</time></trkpt><trkpt lat="42.28495535636349" lon="13.958095708989426"><ele>293.0</ele><time>2026-05-02T07:43:37Z</time></trkpt><trkpt lat="42.285040924213" lon="13.958107727146581"><ele>293.0</ele><time>2026-05-02T07:43:38Z</time></trkpt><trkpt lat="42.28513837736825" lon="13.9580970207536"><ele>293.0</ele><time>2026-05-02T07:43:40Z</time></trkpt><trkpt lat="42.285205441551916" lon="13.958103211159086"><ele>293.0</ele><time>2026-05-02T07:43:43Z</time></trkpt><trkpt lat="42.28508212971983" lon="13.957932358141385"><ele>293.0</ele><time>2026-05-02T07:43:47Z</time></trkpt><trkpt lat="42.285020708438246" lon="13.957885494014931"><ele>293.0</ele><time>2026-05-02T07:43:48Z</time></trkpt><trkpt lat="42.28492632859504" lon="13.957841792930347"><ele>293.0</ele><time>2026-05-02T07:43:50Z</time></trkpt><trkpt lat="42.28484547101225" lon="13.957813848521162"><ele>293.0</ele><time>2026-05-02T07:43:54Z</time></trkpt><trkpt lat="42.284781276035055" lon="13.95773018870225"><ele>293.0</ele><time>2026-05-02T07:43:57Z</time></trkpt><trkpt lat="42.28466809909689" lon="13.957658410411229"><ele>293.0</ele><time>2026-05-02T07:43:59Z</time></trkpt><trkpt lat="42.28458635691173" lon="13.957607337068584"><ele>292.0</ele><time>2026-05-02T07:44:00Z</time></trkpt><trkpt lat="42.28450045570776" lon="13.957551628507764"><ele>291.0</ele><time>2026-05-02T07:44:01Z</time></trkpt><trkpt lat="42.28441507173927" lon="13.957489581787081"><ele>290.0</ele><time>2026-05-02T07:44:02Z</time></trkpt><trkpt lat="42.28432607114605" lon="13.957421728456067"><ele>289.0</ele><time>2026-05-02T07:44:03Z</time></trkpt><trkpt lat="42.28423853765597" lon="13.957349848323998"><ele>288.0</ele><time>2026-05-02T07:44:04Z</time></trkpt><trkpt lat="42.28415117305916" lon="13.957267690192237"><ele>287.4</ele><time>2026-05-02T07:44:05Z</time></trkpt><trkpt lat="42.28407881776232" lon="13.957162611566053"><ele>286.8</ele><time>2026-05-02T07:44:06Z</time></trkpt><trkpt lat="42.28399913152729" lon="13.957058681687666"><ele>286.2</ele><time>2026-05-02T07:44:07Z</time></trkpt><trkpt lat="42.2839125970702" lon="13.956964492577356"><ele>285.6</ele><time>2026-05-02T07:44:08Z</time></trkpt><trkpt lat="42.283832718251645" lon="13.956865580341212"><ele>285.0</ele><time>2026-05-02T07:44:09Z</time></trkpt><trkpt lat="42.283758306416345" lon="13.956770202546762"><ele>283.0</ele><time>2026-05-02T07:44:10Z</time></trkpt><trkpt lat="42.28368739948557" lon="13.956671173901642"><ele>281.0</ele><time>2026-05-02T07:44:11Z</time></trkpt><trkpt lat="42.28362063841595" lon="13.956548809153203"><ele>279.0</ele><time>2026-05-02T07:44:12Z</time></trkpt><trkpt lat="42.28353775137202" lon="13.95642755328727"><ele>277.0</ele><time>2026-05-02T07:44:13Z</time></trkpt><trkpt lat="42.28343971784519" lon="13.95630547696506"><ele>277.0</ele><time>2026-05-02T07:44:14Z</time></trkpt><trkpt lat="42.28334939075691" lon="13.956158616068539"><ele>277.0</ele><time>2026-05-02T07:44:15Z</time></trkpt><trkpt lat="42.28325257987076" lon="13.95602544429849"><ele>277.0</ele><time>2026-05-02T07:44:16Z</time></trkpt><trkpt lat="42.28315078272911" lon="13.955903722867752"><ele>277.0</ele><time>2026-05-02T07:44:17Z</time></trkpt><trkpt lat="42.28305823797937" lon="13.955769272412363"><ele>275.0</ele><time>2026-05-02T07:44:18Z</time></trkpt><trkpt lat="42.28295736626915" lon="13.9556542890725"><ele>273.0</ele><time>2026-05-02T07:44:19Z</time></trkpt><trkpt lat="42.28285561557016" lon="13.955538302492462"><ele>271.0</ele><time>2026-05-02T07:44:20Z</time></trkpt><trkpt lat="42.28274106710021" lon="13.955434635797028"><ele>269.0</ele><time>2026-05-02T07:44:21Z</time></trkpt><trkpt lat="42.28264013250639" lon="13.95530837963829"><ele>269.0</ele><time>2026-05-02T07:44:22Z</time></trkpt><trkpt lat="42.2825451840673" lon="13.955190460574443"><ele>269.0</ele><time>2026-05-02T07:44:23Z</time></trkpt><trkpt lat="42.282454562835966" lon="13.955080164876025"><ele>269.0</ele><time>2026-05-02T07:44:24Z</time></trkpt><trkpt lat="42.28236666015624" lon="13.954976898484308"><ele>269.0</ele><time>2026-05-02T07:44:25Z</time></trkpt><trkpt lat="42.28225334911605" lon="13.954923756151969"><ele>267.0</ele><time>2026-05-02T07:44:26Z</time></trkpt><trkpt lat="42.282126922746976" lon="13.95489209425346"><ele>265.0</ele><time>2026-05-02T07:44:27Z</time></trkpt><trkpt lat="42.28199259626591" lon="13.954885072140677"><ele>263.0</ele><time>2026-05-02T07:44:28Z</time></trkpt><trkpt lat="42.281863717366456" lon="13.954901766534636"><ele>261.0</ele><time>2026-05-02T07:44:29Z</time></trkpt><trkpt lat="42.28174340844795" lon="13.954906501484201"><ele>261.0</ele><time>2026-05-02T07:44:30Z</time></trkpt><trkpt lat="42.28163025777714" lon="13.95490028697002"><ele>261.0</ele><time>2026-05-02T07:44:31Z</time></trkpt><trkpt lat="42.28152499024186" lon="13.954884537817277"><ele>261.0</ele><time>2026-05-02T07:44:32Z</time></trkpt><trkpt lat="42.28143493747539" lon="13.954840216813674"><ele>261.0</ele><time>2026-05-02T07:44:33Z</time></trkpt><trkpt lat="42.281348481725765" lon="13.954761669167372"><ele>261.0</ele><time>2026-05-02T07:44:34Z</time></trkpt><trkpt lat="42.281252794183644" lon="13.954657054065219"><ele>260.25</ele><time>2026-05-02T07:44:35Z</time></trkpt><trkpt lat="42.281140601384465" lon="13.9545587188295"><ele>259.5</ele><time>2026-05-02T07:44:36Z</time></trkpt><trkpt lat="42.281033627617376" lon="13.954429485876348"><ele>258.75</ele><time>2026-05-02T07:44:37Z</time></trkpt><trkpt lat="42.28090199039209" lon="13.95435776549244"><ele>258.0</ele><time>2026-05-02T07:44:38Z</time></trkpt><trkpt lat="42.280772214549216" lon="13.95430051004665"><ele>258.0</ele><time>2026-05-02T07:44:39Z</time></trkpt><trkpt lat="42.28064941176237" lon="13.954230772675658"><ele>258.0</ele><time>2026-05-02T07:44:40Z</time></trkpt><trkpt lat="42.28053856025603" lon="13.954140761262938"><ele>258.0</ele><time>2026-05-02T07:44:41Z</time></trkpt><trkpt lat="42.28043367926938" lon="13.95405638434512"><ele>258.0</ele><time>2026-05-02T07:44:42Z</time></trkpt><trkpt lat="42.28032483589181" lon="13.953989665244132"><ele>255.2</ele><time>2026-05-02T07:44:43Z</time></trkpt><trkpt lat="42.28022620951091" lon="13.95393903059378"><ele>252.4</ele><time>2026-05-02T07:44:44Z</time></trkpt><trkpt lat="42.28013570813789" lon="13.953900461097987"><ele>249.59999999999997</ele><time>2026-05-02T07:44:45Z</time></trkpt><trkpt lat="42.28004388486067" lon="13.953880095302429"><ele>246.79999999999998</ele><time>2026-05-02T07:44:46Z</time></trkpt><trkpt lat="42.279953224382474" lon="13.953877207775964"><ele>244.0</ele><time>2026-05-02T07:44:47Z</time></trkpt><trkpt lat="42.27985441081693" lon="13.953883077562484"><ele>243.79999999999998</ele><time>2026-05-02T07:44:48Z</time></trkpt><trkpt lat="42.279759574106926" lon="13.953872901042674"><ele>243.59999999999997</ele><time>2026-05-02T07:44:49Z</time></trkpt><trkpt lat="42.27966494928005" lon="13.953832553935136"><ele>243.4</ele><time>2026-05-02T07:44:50Z</time></trkpt><trkpt lat="42.27956417232102" lon="13.953781038745404"><ele>243.2</ele><time>2026-05-02T07:44:51Z</time></trkpt><trkpt lat="42.27945608003214" lon="13.953725475084127"><ele>243.0</ele><time>2026-05-02T07:44:52Z</time></trkpt><trkpt lat="42.279342859853" lon="13.95368288567202"><ele>243.0</ele><time>2026-05-02T07:44:53Z</time></trkpt><trkpt lat="42.27922811364566" lon="13.953646083067035"><ele>243.0</ele><time>2026-05-02T07:44:54Z</time></trkpt><trkpt lat="42.27911562145474" lon="13.95361017066178"><ele>243.0</ele><time>2026-05-02T07:44:55Z</time></trkpt><trkpt lat="42.27899774154874" lon="13.953572538244204"><ele>243.0</ele><time>2026-05-02T07:44:56Z</time></trkpt><trkpt lat="42.27886866378076" lon="13.953531184155864"><ele>244.25</ele><time>2026-05-02T07:44:57Z</time></trkpt><trkpt lat="42.27873322265823" lon="13.953486946803608"><ele>245.5</ele><time>2026-05-02T07:44:58Z</time></trkpt><trkpt lat="42.278601086251584" lon="13.953442593584526"><ele>246.75</ele><time>2026-05-02T07:44:59Z</time></trkpt><trkpt lat="42.27847278043877" lon="13.953397587123906"><ele>248.0</ele><time>2026-05-02T07:45:00Z</time></trkpt><trkpt lat="42.278351771205806" lon="13.953355140167066"><ele>245.8</ele><time>2026-05-02T07:45:01Z</time></trkpt><trkpt lat="42.27824001815141" lon="13.953318919701797"><ele>243.60000000000002</ele><time>2026-05-02T07:45:02Z</time></trkpt><trkpt lat="42.278133788925956" lon="13.95328807505713"><ele>241.39999999999998</ele><time>2026-05-02T07:45:03Z</time></trkpt><trkpt lat="42.27802999089267" lon="13.953259680486543"><ele>239.2</ele><time>2026-05-02T07:45:04Z</time></trkpt><trkpt lat="42.27792560722961" lon="13.953231798324929"><ele>237.0</ele><time>2026-05-02T07:45:05Z</time></trkpt><trkpt lat="42.277830614775375" lon="13.953207188289916"><ele>237.0</ele><time>2026-05-02T07:45:06Z</time></trkpt><trkpt lat="42.27774555226793" lon="13.95318515089698"><ele>237.0</ele><time>2026-05-02T07:45:07Z</time></trkpt><trkpt lat="42.277674331307566" lon="13.953166193598204"><ele>237.0</ele><time>2026-05-02T07:45:08Z</time></trkpt><trkpt lat="42.27760587391288" lon="13.953147560836147"><ele>237.0</ele><time>2026-05-02T07:45:09Z</time></trkpt><trkpt lat="42.27754070649537" lon="13.95312982353472"><ele>237.0</ele><time>2026-05-02T07:45:10Z</time></trkpt><trkpt lat="42.27747653917913" lon="13.953112358405175"><ele>237.0</ele><time>2026-05-02T07:45:11Z</time></trkpt><trkpt lat="42.27737327325778" lon="13.95308233582512"><ele>237.0</ele><time>2026-05-02T07:45:13Z</time></trkpt><trkpt lat="42.27728396512643" lon="13.953051016643071"><ele>237.0</ele><time>2026-05-02T07:45:15Z</time></trkpt><trkpt lat="42.27719451455931" lon="13.953002455211813"><ele>237.0</ele><time>2026-05-02T07:45:17Z</time></trkpt><trkpt lat="42.277281060507725" lon="13.953020823786225"><ele>237.0</ele><time>2026-05-02T07:45:28Z</time></trkpt><trkpt lat="42.27734172161362" lon="13.953064863451967"><ele>237.0</ele><time>2026-05-02T07:45:29Z</time></trkpt><trkpt lat="42.27740036837507" lon="13.953096808921883"><ele>237.0</ele><time>2026-05-02T07:45:30Z</time></trkpt><trkpt lat="42.27746637063951" lon="13.953131331658076"><ele>237.0</ele><time>2026-05-02T07:45:31Z</time></trkpt><trkpt lat="42.277571218868395" lon="13.953011814309955"><ele>237.0</ele><time>2026-05-02T07:45:32Z</time></trkpt><trkpt lat="42.27768819974095" lon="13.952976906024723"><ele>237.0</ele><time>2026-05-02T07:45:34Z</time></trkpt><trkpt lat="42.27777851756674" lon="13.952906268609807"><ele>237.0</ele><time>2026-05-02T07:45:36Z</time></trkpt><trkpt lat="42.27783423016833" lon="13.952789958437034"><ele>237.0</ele><time>2026-05-02T07:45:38Z</time></trkpt><trkpt lat="42.27784448410316" lon="13.952630267290882"><ele>237.0</ele><time>2026-05-02T07:45:40Z</time></trkpt><trkpt lat="42.27780755383548" lon="13.95248409640216"><ele>237.0</ele><time>2026-05-02T07:45:42Z</time></trkpt><trkpt lat="42.277736062905525" lon="13.952372086307005"><ele>237.0</ele><time>2026-05-02T07:45:44Z</time></trkpt><trkpt lat="42.27765283003234" lon="13.95229016278012"><ele>237.0</ele><time>2026-05-02T07:45:46Z</time></trkpt><trkpt lat="42.27759624203816" lon="13.952251370199848"><ele>235.0</ele><time>2026-05-02T07:45:47Z</time></trkpt><trkpt lat="42.27749482639954" lon="13.952205501522263"><ele>233.0</ele><time>2026-05-02T07:45:49Z</time></trkpt><trkpt lat="42.27742610916613" lon="13.952155347861058"><ele>231.0</ele><time>2026-05-02T07:45:51Z</time></trkpt><trkpt lat="42.27735137528718" lon="13.952089110372574"><ele>229.0</ele><time>2026-05-02T07:45:53Z</time></trkpt><trkpt lat="42.27733337106266" lon="13.951985171959999"><ele>227.0</ele><time>2026-05-02T07:45:55Z</time></trkpt><trkpt lat="42.277341022991564" lon="13.951858343529093"><ele>225.0</ele><time>2026-05-02T07:45:57Z</time></trkpt><trkpt lat="42.277337451731995" lon="13.951737321571402"><ele>223.0</ele><time>2026-05-02T07:45:59Z</time></trkpt><trkpt lat="42.27735972242316" lon="13.95161640934989"><ele>221.0</ele><time>2026-05-02T07:46:01Z</time></trkpt><trkpt lat="42.2773923293119" lon="13.951512044033562"><ele>219.0</ele><time>2026-05-02T07:46:03Z</time></trkpt><trkpt lat="42.27744991885345" lon="13.951452401373484"><ele>217.0</ele><time>2026-05-02T07:46:05Z</time></trkpt><trkpt lat="42.277533597138714" lon="13.951472722873492"><ele>215.0</ele><time>2026-05-02T07:46:07Z</time></trkpt><trkpt lat="42.27759503874349" lon="13.951497211074829"><ele>213.0</ele><time>2026-05-02T07:46:08Z</time></trkpt><trkpt lat="42.277666806105415" lon="13.951532331223376"><ele>213.0</ele><time>2026-05-02T07:46:09Z</time></trkpt><trkpt lat="42.277747930337135" lon="13.951543853481468"><ele>213.0</ele><time>2026-05-02T07:46:11Z</time></trkpt><trkpt lat="42.27777986893507" lon="13.951467760180478"><ele>213.0</ele><time>2026-05-02T07:46:13Z</time></trkpt><trkpt lat="42.27775691806481" lon="13.951372672221346"><ele>213.0</ele><time>2026-05-02T07:46:15Z</time></trkpt><trkpt lat="42.27768673198308" lon="13.951257501865172"><ele>213.0</ele><time>2026-05-02T07:46:17Z</time></trkpt><trkpt lat="42.27765281381182" lon="13.951183734879544"><ele>213.0</ele><time>2026-05-02T07:46:18Z</time></trkpt><trkpt lat="42.27757622065277" lon="13.9510243816304"><ele>213.0</ele><time>2026-05-02T07:46:20Z</time></trkpt><trkpt lat="42.27754057921217" lon="13.950939140527945"><ele>213.0</ele><time>2026-05-02T07:46:21Z</time></trkpt><trkpt lat="42.277505187393096" lon="13.950868305544248"><ele>213.0</ele><time>2026-05-02T07:46:22Z</time></trkpt><trkpt lat="42.27743375656514" lon="13.950717521745995"><ele>213.0</ele><time>2026-05-02T07:46:24Z</time></trkpt><trkpt lat="42.27738784350486" lon="13.950637329809433"><ele>213.0</ele><time>2026-05-02T07:46:25Z</time></trkpt><trkpt lat="42.277353141274055" lon="13.95055377826164"><ele>213.0</ele><time>2026-05-02T07:46:26Z</time></trkpt><trkpt lat="42.27731778709439" lon="13.95047436138945"><ele>211.0</ele><time>2026-05-02T07:46:27Z</time></trkpt><trkpt lat="42.27727289532791" lon="13.95038838358495"><ele>209.0</ele><time>2026-05-02T07:46:28Z</time></trkpt><trkpt lat="42.27722040960453" lon="13.950293653447394"><ele>207.0</ele><time>2026-05-02T07:46:29Z</time></trkpt><trkpt lat="42.277174593724034" lon="13.95022523408447"><ele>205.0</ele><time>2026-05-02T07:46:30Z</time></trkpt><trkpt lat="42.27712265193244" lon="13.950156561874614"><ele>203.0</ele><time>2026-05-02T07:46:31Z</time></trkpt><trkpt lat="42.27706959711553" lon="13.950100221782249"><ele>201.0</ele><time>2026-05-02T07:46:32Z</time></trkpt><trkpt lat="42.27698419760169" lon="13.950030269430671"><ele>199.66666666666666</ele><time>2026-05-02T07:46:34Z</time></trkpt><trkpt lat="42.27691149618114" lon="13.949967631794696"><ele>198.33333333333331</ele><time>2026-05-02T07:46:37Z</time></trkpt><trkpt lat="42.27693401640114" lon="13.949857008814606"><ele>197.0</ele><time>2026-05-02T07:46:40Z</time></trkpt><trkpt lat="42.27701944341584" lon="13.949839807836584"><ele>195.66666666666666</ele><time>2026-05-02T07:46:42Z</time></trkpt><trkpt lat="42.27708379038551" lon="13.949849952691869"><ele>194.33333333333331</ele><time>2026-05-02T07:46:43Z</time></trkpt><trkpt lat="42.27715212632247" lon="13.949861042409829"><ele>193.0</ele><time>2026-05-02T07:46:44Z</time></trkpt><trkpt lat="42.27721679554082" lon="13.949862168136768"><ele>192.2</ele><time>2026-05-02T07:46:45Z</time></trkpt><trkpt lat="42.27732634678305" lon="13.949810480101894"><ele>191.4</ele><time>2026-05-02T07:46:47Z</time></trkpt><trkpt lat="42.27739453264001" lon="13.94968942746796"><ele>190.6</ele><time>2026-05-02T07:46:49Z</time></trkpt><trkpt lat="42.277403937511416" lon="13.949593509132455"><ele>189.79999999999998</ele><time>2026-05-02T07:46:50Z</time></trkpt><trkpt lat="42.27740216458327" lon="13.949502817015539"><ele>189.0</ele><time>2026-05-02T07:46:51Z</time></trkpt><trkpt lat="42.277340419049054" lon="13.949374473655908"><ele>189.0</ele><time>2026-05-02T07:46:53Z</time></trkpt><trkpt lat="42.27728316501914" lon="13.949330651191797"><ele>189.0</ele><time>2026-05-02T07:46:54Z</time></trkpt><trkpt lat="42.27720971709212" lon="13.949304762618459"><ele>189.0</ele><time>2026-05-02T07:46:55Z</time></trkpt><trkpt lat="42.2771397542392" lon="13.949288481822537"><ele>189.0</ele><time>2026-05-02T07:46:56Z</time></trkpt><trkpt lat="42.277073509305204" lon="13.949275175246152"><ele>189.0</ele><time>2026-05-02T07:46:57Z</time></trkpt><trkpt lat="42.27696422936061" lon="13.949191953612104"><ele>189.0</ele><time>2026-05-02T07:46:59Z</time></trkpt><trkpt lat="42.27691406558334" lon="13.949122391680312"><ele>188.57142857142858</ele><time>2026-05-02T07:47:00Z</time></trkpt><trkpt lat="42.27685650117323" lon="13.949054430261448"><ele>188.14285714285714</ele><time>2026-05-02T07:47:01Z</time></trkpt><trkpt lat="42.27679862842918" lon="13.94899597576012"><ele>187.71428571428572</ele><time>2026-05-02T07:47:02Z</time></trkpt><trkpt lat="42.276741093507844" lon="13.948934167351318"><ele>187.28571428571428</ele><time>2026-05-02T07:47:03Z</time></trkpt><trkpt lat="42.27669377971102" lon="13.948865774902368"><ele>186.85714285714286</ele><time>2026-05-02T07:47:04Z</time></trkpt><trkpt lat="42.27665986464019" lon="13.948785334717243"><ele>186.42857142857144</ele><time>2026-05-02T07:47:05Z</time></trkpt><trkpt lat="42.27662660184918" lon="13.948688339905399"><ele>186.0</ele><time>2026-05-02T07:47:06Z</time></trkpt><trkpt lat="42.27659971857974" lon="13.948580499744953"><ele>186.0</ele><time>2026-05-02T07:47:07Z</time></trkpt><trkpt lat="42.27657672237083" lon="13.94846267035201"><ele>186.0</ele><time>2026-05-02T07:47:08Z</time></trkpt><trkpt lat="42.27654969395888" lon="13.948337996128176"><ele>186.0</ele><time>2026-05-02T07:47:09Z</time></trkpt><trkpt lat="42.27652729638905" lon="13.948221653442127"><ele>186.0</ele><time>2026-05-02T07:47:10Z</time></trkpt><trkpt lat="42.27651773215259" lon="13.948102224492892"><ele>186.0</ele><time>2026-05-02T07:47:11Z</time></trkpt><trkpt lat="42.27650230217372" lon="13.94798472385298"><ele>186.83333333333334</ele><time>2026-05-02T07:47:12Z</time></trkpt><trkpt lat="42.27648014013941" lon="13.947878460885219"><ele>187.66666666666666</ele><time>2026-05-02T07:47:13Z</time></trkpt><trkpt lat="42.27646353638727" lon="13.947751947840967"><ele>188.5</ele><time>2026-05-02T07:47:14Z</time></trkpt><trkpt lat="42.276448769118126" lon="13.947620089830636"><ele>189.33333333333331</ele><time>2026-05-02T07:47:15Z</time></trkpt><trkpt lat="42.27643235579756" lon="13.947506806087565"><ele>190.16666666666666</ele><time>2026-05-02T07:47:16Z</time></trkpt><trkpt lat="42.27641161788567" lon="13.947391593782568"><ele>191.0</ele><time>2026-05-02T07:47:17Z</time></trkpt><trkpt lat="42.2763888599621" lon="13.947249966000491"><ele>191.60000000000002</ele><time>2026-05-02T07:47:18Z</time></trkpt><trkpt lat="42.276370992581874" lon="13.947117760053144"><ele>192.2</ele><time>2026-05-02T07:47:19Z</time></trkpt><trkpt lat="42.27635841525139" lon="13.947001371516834"><ele>192.8</ele><time>2026-05-02T07:47:20Z</time></trkpt><trkpt lat="42.276342027390186" lon="13.946887216070424"><ele>193.39999999999998</ele><time>2026-05-02T07:47:21Z</time></trkpt><trkpt lat="42.276317012554124" lon="13.946753943639038"><ele>194.0</ele><time>2026-05-02T07:47:22Z</time></trkpt><trkpt lat="42.276290651561254" lon="13.94662835407362"><ele>194.00000000000003</ele><time>2026-05-02T07:47:23Z</time></trkpt><trkpt lat="42.276271377704205" lon="13.946502318124509"><ele>194.0</ele><time>2026-05-02T07:47:24Z</time></trkpt><trkpt lat="42.27626147267143" lon="13.9464066299994"><ele>194.0</ele><time>2026-05-02T07:47:25Z</time></trkpt><trkpt lat="42.27623617382757" lon="13.946310289229647"><ele>194.0</ele><time>2026-05-02T07:47:26Z</time></trkpt><trkpt lat="42.27619430691189" lon="13.946220130900741"><ele>194.00000000000003</ele><time>2026-05-02T07:47:27Z</time></trkpt><trkpt lat="42.276140983406634" lon="13.94615723253845"><ele>194.0</ele><time>2026-05-02T07:47:28Z</time></trkpt><trkpt lat="42.276075386824445" lon="13.946116221742441"><ele>194.00000000000003</ele><time>2026-05-02T07:47:29Z</time></trkpt><trkpt lat="42.275995068949385" lon="13.94607206570688"><ele>194.0</ele><time>2026-05-02T07:47:30Z</time></trkpt><trkpt lat="42.275911950061946" lon="13.94601922654836"><ele>194.0</ele><time>2026-05-02T07:47:31Z</time></trkpt><trkpt lat="42.27583836023514" lon="13.945967086005705"><ele>194.0</ele><time>2026-05-02T07:47:32Z</time></trkpt><trkpt lat="42.2757601004179" lon="13.945915388952809"><ele>194.00000000000003</ele><time>2026-05-02T07:47:33Z</time></trkpt><trkpt lat="42.27569352200128" lon="13.94587489401103"><ele>194.0</ele><time>2026-05-02T07:47:34Z</time></trkpt><trkpt lat="42.275626288920584" lon="13.945831984972274"><ele>193.79999999999998</ele><time>2026-05-02T07:47:35Z</time></trkpt><trkpt lat="42.275561862299874" lon="13.9457827708139"><ele>193.6</ele><time>2026-05-02T07:47:36Z</time></trkpt><trkpt lat="42.27548290297052" lon="13.94567857914959"><ele>193.4</ele><time>2026-05-02T07:47:38Z</time></trkpt><trkpt lat="42.275452429870136" lon="13.94555773770424"><ele>193.2</ele><time>2026-05-02T07:47:40Z</time></trkpt><trkpt lat="42.27547437910067" lon="13.94541851094612"><ele>193.0</ele><time>2026-05-02T07:47:42Z</time></trkpt><trkpt lat="42.27555658904959" lon="13.945349510185979"><ele>197.0</ele><time>2026-05-02T07:47:44Z</time></trkpt><trkpt lat="42.27570217403264" lon="13.945343449649501"><ele>201.0</ele><time>2026-05-02T07:47:46Z</time></trkpt><trkpt lat="42.2757998196457" lon="13.945328942190228"><ele>205.0</ele><time>2026-05-02T07:47:47Z</time></trkpt><trkpt lat="42.27590169521545" lon="13.945302595165368"><ele>209.0</ele><time>2026-05-02T07:47:48Z</time></trkpt><trkpt lat="42.27600663422962" lon="13.945273460803516"><ele>209.0</ele><time>2026-05-02T07:47:49Z</time></trkpt><trkpt lat="42.2761107019785" lon="13.945248776960929"><ele>209.0</ele><time>2026-05-02T07:47:50Z</time></trkpt><trkpt lat="42.276214560871274" lon="13.945225206587754"><ele>209.0</ele><time>2026-05-02T07:47:51Z</time></trkpt><trkpt lat="42.27630512634872" lon="13.945207350469966"><ele>209.0</ele><time>2026-05-02T07:47:52Z</time></trkpt><trkpt lat="42.27639652374642" lon="13.945185513945448"><ele>209.0</ele><time>2026-05-02T07:47:53Z</time></trkpt><trkpt lat="42.276494533036804" lon="13.945166179204811"><ele>210.6</ele><time>2026-05-02T07:47:54Z</time></trkpt><trkpt lat="42.2765860135958" lon="13.945146939713261"><ele>212.2</ele><time>2026-05-02T07:47:55Z</time></trkpt><trkpt lat="42.27668278024144" lon="13.945129534819618"><ele>213.79999999999998</ele><time>2026-05-02T07:47:56Z</time></trkpt><trkpt lat="42.27677392478168" lon="13.945112258392088"><ele>215.39999999999998</ele><time>2026-05-02T07:47:57Z</time></trkpt><trkpt lat="42.27685126302146" lon="13.945079036813857"><ele>217.0</ele><time>2026-05-02T07:47:58Z</time></trkpt><trkpt lat="42.27693238521232" lon="13.945034822708687"><ele>217.71428571428572</ele><time>2026-05-02T07:47:59Z</time></trkpt><trkpt lat="42.276981964064866" lon="13.944974129862477"><ele>218.42857142857144</ele><time>2026-05-02T07:48:00Z</time></trkpt><trkpt lat="42.277010844202046" lon="13.94489574457986"><ele>219.14285714285714</ele><time>2026-05-02T07:48:01Z</time></trkpt><trkpt lat="42.277038442189365" lon="13.944807328521886"><ele>219.85714285714286</ele><time>2026-05-02T07:48:02Z</time></trkpt><trkpt lat="42.27705700784475" lon="13.94471032673148"><ele>220.57142857142858</ele><time>2026-05-02T07:48:03Z</time></trkpt><trkpt lat="42.277070814241284" lon="13.944607589075947"><ele>221.28571428571428</ele><time>2026-05-02T07:48:04Z</time></trkpt><trkpt lat="42.277090756785796" lon="13.944511504227263"><ele>222.0</ele><time>2026-05-02T07:48:05Z</time></trkpt><trkpt lat="42.277120324500835" lon="13.944370002840413"><ele>222.0</ele><time>2026-05-02T07:48:07Z</time></trkpt><trkpt lat="42.27714461125368" lon="13.944241070334664"><ele>222.0</ele><time>2026-05-02T07:48:09Z</time></trkpt><trkpt lat="42.277160899276645" lon="13.94415115435014"><ele>222.0</ele><time>2026-05-02T07:48:10Z</time></trkpt><trkpt lat="42.277174684510605" lon="13.944047233553176"><ele>222.0</ele><time>2026-05-02T07:48:11Z</time></trkpt><trkpt lat="42.27718804525675" lon="13.94393579670507"><ele>222.0</ele><time>2026-05-02T07:48:12Z</time></trkpt><trkpt lat="42.277194903178454" lon="13.94383365267662"><ele>222.0</ele><time>2026-05-02T07:48:13Z</time></trkpt><trkpt lat="42.277195325005614" lon="13.943726642491958"><ele>222.16666666666666</ele><time>2026-05-02T07:48:14Z</time></trkpt><trkpt lat="42.27718458705867" lon="13.94361436164436"><ele>222.33333333333331</ele><time>2026-05-02T07:48:15Z</time></trkpt><trkpt lat="42.2771662327406" lon="13.94348698985777"><ele>222.5</ele><time>2026-05-02T07:48:16Z</time></trkpt><trkpt lat="42.277145161670965" lon="13.943380206868186"><ele>222.66666666666666</ele><time>2026-05-02T07:48:17Z</time></trkpt><trkpt lat="42.27711687430166" lon="13.943295212670115"><ele>222.83333333333331</ele><time>2026-05-02T07:48:18Z</time></trkpt><trkpt lat="42.27707422029974" lon="13.943219782929747"><ele>223.0</ele><time>2026-05-02T07:48:19Z</time></trkpt><trkpt lat="42.27698654126986" lon="13.94310744548265"><ele>223.99999999999997</ele><time>2026-05-02T07:48:21Z</time></trkpt><trkpt lat="42.2769308308471" lon="13.943061575080936"><ele>225.0</ele><time>2026-05-02T07:48:22Z</time></trkpt><trkpt lat="42.2768647982164" lon="13.943020751815379"><ele>226.0</ele><time>2026-05-02T07:48:23Z</time></trkpt><trkpt lat="42.27675574424751" lon="13.942983407660257"><ele>227.0</ele><time>2026-05-02T07:48:25Z</time></trkpt><trkpt lat="42.276660010735164" lon="13.942964876087226"><ele>227.99999999999997</ele><time>2026-05-02T07:48:27Z</time></trkpt><trkpt lat="42.27656233459202" lon="13.942928997944959"><ele>229.0</ele><time>2026-05-02T07:48:29Z</time></trkpt><trkpt lat="42.27649817884076" lon="13.942924437851165"><ele>226.6</ele><time>2026-05-02T07:48:30Z</time></trkpt><trkpt lat="42.276411102592455" lon="13.9429141828647"><ele>224.2</ele><time>2026-05-02T07:48:31Z</time></trkpt><trkpt lat="42.27632740260318" lon="13.942897107414359"><ele>221.79999999999998</ele><time>2026-05-02T07:48:32Z</time></trkpt><trkpt lat="42.27625231136395" lon="13.942872485734545"><ele>219.39999999999998</ele><time>2026-05-02T07:48:33Z</time></trkpt><trkpt lat="42.27615183656392" lon="13.942807997230682"><ele>217.0</ele><time>2026-05-02T07:48:35Z</time></trkpt><trkpt lat="42.27608640334515" lon="13.942679368516638"><ele>219.49999999999997</ele><time>2026-05-02T07:48:37Z</time></trkpt><trkpt lat="42.27604278307219" lon="13.942532824210597"><ele>222.0</ele><time>2026-05-02T07:48:39Z</time></trkpt><trkpt lat="42.27601968127275" lon="13.9424372331971"><ele>224.5</ele><time>2026-05-02T07:48:40Z</time></trkpt><trkpt lat="42.27598368789575" lon="13.942322160793722"><ele>227.0</ele><time>2026-05-02T07:48:41Z</time></trkpt><trkpt lat="42.27594714102872" lon="13.942199313099469"><ele>229.49999999999997</ele><time>2026-05-02T07:48:42Z</time></trkpt><trkpt lat="42.275919999573915" lon="13.94211805215824"><ele>232.0</ele><time>2026-05-02T07:48:43Z</time></trkpt><trkpt lat="42.27588780327056" lon="13.94203446271139"><ele>231.99999999999997</ele><time>2026-05-02T07:48:44Z</time></trkpt><trkpt lat="42.275855991208445" lon="13.941943504000982"><ele>232.0</ele><time>2026-05-02T07:48:45Z</time></trkpt><trkpt lat="42.275829027751946" lon="13.941846958383264"><ele>232.0</ele><time>2026-05-02T07:48:46Z</time></trkpt><trkpt lat="42.27580129365708" lon="13.941756752967462"><ele>232.0</ele><time>2026-05-02T07:48:47Z</time></trkpt><trkpt lat="42.27577140709364" lon="13.941681349892885"><ele>231.99999999999997</ele><time>2026-05-02T07:48:48Z</time></trkpt><trkpt lat="42.27572019206254" lon="13.941589121827281"><ele>232.0</ele><time>2026-05-02T07:48:50Z</time></trkpt><trkpt lat="42.27571725474439" lon="13.941480481389497"><ele>231.99999999999997</ele><time>2026-05-02T07:48:52Z</time></trkpt><trkpt lat="42.27571120912088" lon="13.941377122787477"><ele>232.0</ele><time>2026-05-02T07:48:53Z</time></trkpt><trkpt lat="42.2756854728784" lon="13.941262599545757"><ele>232.0</ele><time>2026-05-02T07:48:54Z</time></trkpt><trkpt lat="42.27565044945576" lon="13.94114005936827"><ele>232.0</ele><time>2026-05-02T07:48:55Z</time></trkpt><trkpt lat="42.27562291484099" lon="13.941035696344546"><ele>231.99999999999997</ele><time>2026-05-02T07:48:56.001Z</time></trkpt><trkpt lat="42.27560540570693" lon="13.94094239799615"><ele>232.0</ele><time>2026-05-02T07:48:57.001Z</time></trkpt><trkpt lat="42.27559475916839" lon="13.940854401563026"><ele>232.0</ele><time>2026-05-02T07:48:58.001Z</time></trkpt><trkpt lat="42.27558630836216" lon="13.940761128341972"><ele>232.0</ele><time>2026-05-02T07:48:59.001Z</time></trkpt><trkpt lat="42.27558651671944" lon="13.940598192422309"><ele>232.0</ele><time>2026-05-02T07:49:01.001Z</time></trkpt><trkpt lat="42.275602661196935" lon="13.940432244579839"><ele>232.0</ele><time>2026-05-02T07:49:03.001Z</time></trkpt><trkpt lat="42.275613108449086" lon="13.940347035168793"><ele>232.0</ele><time>2026-05-02T07:49:04.001Z</time></trkpt><trkpt lat="42.2756327311742" lon="13.940185327044642"><ele>232.0</ele><time>2026-05-02T07:49:06.001Z</time></trkpt><trkpt lat="42.27564826234336" lon="13.94007896325621"><ele>232.0</ele><time>2026-05-02T07:49:08.001Z</time></trkpt><trkpt lat="42.27557282783142" lon="13.940066841334742"><ele>232.0</ele><time>2026-05-02T07:49:11.001Z</time></trkpt><trkpt lat="42.27547655129553" lon="13.94012381145598"><ele>232.0</ele><time>2026-05-02T07:49:13Z</time></trkpt><trkpt lat="42.275348276114364" lon="13.940145570339611"><ele>232.0</ele><time>2026-05-02T07:49:15Z</time></trkpt><trkpt lat="42.27525663772206" lon="13.940233578471926"><ele>231.99999999999997</ele><time>2026-05-02T07:49:17Z</time></trkpt><trkpt lat="42.275146708154004" lon="13.940320970642105"><ele>232.0</ele><time>2026-05-02T07:49:19Z</time></trkpt><trkpt lat="42.275085644044914" lon="13.940362517700903"><ele>232.0</ele><time>2026-05-02T07:49:20Z</time></trkpt><trkpt lat="42.27501001501315" lon="13.940411695740652"><ele>232.0</ele><time>2026-05-02T07:49:21Z</time></trkpt><trkpt lat="42.27493664331856" lon="13.940465860977689"><ele>231.99999999999997</ele><time>2026-05-02T07:49:22Z</time></trkpt><trkpt lat="42.27486810148195" lon="13.940515621322255"><ele>232.0</ele><time>2026-05-02T07:49:23Z</time></trkpt><trkpt lat="42.27480158447654" lon="13.940558686199992"><ele>230.33333333333331</ele><time>2026-05-02T07:49:24Z</time></trkpt><trkpt lat="42.27473464396088" lon="13.9405965690727"><ele>228.66666666666666</ele><time>2026-05-02T07:49:25Z</time></trkpt><trkpt lat="42.27465423205638" lon="13.940639957619135"><ele>227.0</ele><time>2026-05-02T07:49:26Z</time></trkpt><trkpt lat="42.27457752274601" lon="13.940683169836527"><ele>225.33333333333331</ele><time>2026-05-02T07:49:27Z</time></trkpt><trkpt lat="42.27449709816123" lon="13.940718977416163"><ele>223.66666666666666</ele><time>2026-05-02T07:49:28Z</time></trkpt><trkpt lat="42.27440753389938" lon="13.940748296752655"><ele>222.0</ele><time>2026-05-02T07:49:29Z</time></trkpt><trkpt lat="42.274333098587505" lon="13.940773841000011"><ele>222.0</ele><time>2026-05-02T07:49:30Z</time></trkpt><trkpt lat="42.27427009141665" lon="13.940798699712678"><ele>222.0</ele><time>2026-05-02T07:49:31Z</time></trkpt><trkpt lat="42.27415147367255" lon="13.940817522906856"><ele>222.0</ele><time>2026-05-02T07:49:33Z</time></trkpt><trkpt lat="42.274035396411854" lon="13.940817112764352"><ele>222.0</ele><time>2026-05-02T07:49:35Z</time></trkpt><trkpt lat="42.273921058355256" lon="13.94079656388413"><ele>222.0</ele><time>2026-05-02T07:49:37Z</time></trkpt><trkpt lat="42.27379957584288" lon="13.940757130423217"><ele>219.66666666666666</ele><time>2026-05-02T07:49:39Z</time></trkpt><trkpt lat="42.27372306237877" lon="13.94073516830533"><ele>217.33333333333331</ele><time>2026-05-02T07:49:40Z</time></trkpt><trkpt lat="42.27363698845466" lon="13.940709010361187"><ele>215.0</ele><time>2026-05-02T07:49:41Z</time></trkpt><trkpt lat="42.273548324080295" lon="13.940683725910137"><ele>212.66666666666666</ele><time>2026-05-02T07:49:42Z</time></trkpt><trkpt lat="42.27346308617182" lon="13.94066057815441"><ele>210.33333333333331</ele><time>2026-05-02T07:49:43Z</time></trkpt><trkpt lat="42.273379826577894" lon="13.94063895987745"><ele>208.0</ele><time>2026-05-02T07:49:44Z</time></trkpt><trkpt lat="42.273297801989735" lon="13.940625769374641"><ele>207.99999999999997</ele><time>2026-05-02T07:49:45Z</time></trkpt><trkpt lat="42.273225571179786" lon="13.940582476940886"><ele>208.0</ele><time>2026-05-02T07:49:46Z</time></trkpt><trkpt lat="42.2731550831504" lon="13.94056775845136"><ele>208.0</ele><time>2026-05-02T07:49:47Z</time></trkpt><trkpt lat="42.273063164007716" lon="13.940581235900293"><ele>208.0</ele><time>2026-05-02T07:49:48Z</time></trkpt><trkpt lat="42.27297506980038" lon="13.940560831628016"><ele>207.99999999999997</ele><time>2026-05-02T07:49:49Z</time></trkpt><trkpt lat="42.27289564918546" lon="13.940543747201913"><ele>208.0</ele><time>2026-05-02T07:49:50Z</time></trkpt><trkpt lat="42.272824650491565" lon="13.940528166898078"><ele>206.16666666666666</ele><time>2026-05-02T07:49:51Z</time></trkpt><trkpt lat="42.27274476988288" lon="13.940514174833368"><ele>204.33333333333331</ele><time>2026-05-02T07:49:52Z</time></trkpt><trkpt lat="42.27265738755678" lon="13.940500960513878"><ele>202.5</ele><time>2026-05-02T07:49:53Z</time></trkpt><trkpt lat="42.27257717766199" lon="13.940488958195926"><ele>200.66666666666669</ele><time>2026-05-02T07:49:54Z</time></trkpt><trkpt lat="42.27251083772732" lon="13.9404791801114"><ele>198.83333333333334</ele><time>2026-05-02T07:49:55Z</time></trkpt><trkpt lat="42.27241826414148" lon="13.940447270314229"><ele>197.0</ele><time>2026-05-02T07:49:57Z</time></trkpt><trkpt lat="42.272379178859055" lon="13.9403290439002"><ele>197.0</ele><time>2026-05-02T07:50:00Z</time></trkpt><trkpt lat="42.27243572569918" lon="13.940208880235902"><ele>197.0</ele><time>2026-05-02T07:50:02Z</time></trkpt><trkpt lat="42.272497692720975" lon="13.940139651916216"><ele>197.0</ele><time>2026-05-02T07:50:03Z</time></trkpt><trkpt lat="42.27257091616234" lon="13.94004734058353"><ele>197.0</ele><time>2026-05-02T07:50:04Z</time></trkpt><trkpt lat="42.272636850898664" lon="13.939960649627938"><ele>197.0</ele><time>2026-05-02T07:50:05Z</time></trkpt><trkpt lat="42.27270011375055" lon="13.939885859246324"><ele>196.83333333333334</ele><time>2026-05-02T07:50:06Z</time></trkpt><trkpt lat="42.27275827246692" lon="13.939816035589171"><ele>196.66666666666669</ele><time>2026-05-02T07:50:07Z</time></trkpt><trkpt lat="42.272814013858266" lon="13.93975245372133"><ele>196.5</ele><time>2026-05-02T07:50:08Z</time></trkpt><trkpt lat="42.272866230155664" lon="13.939690600991002"><ele>196.33333333333331</ele><time>2026-05-02T07:50:09Z</time></trkpt><trkpt lat="42.272909891699" lon="13.93962800186882"><ele>196.16666666666666</ele><time>2026-05-02T07:50:10Z</time></trkpt><trkpt lat="42.27294578488192" lon="13.9395554597694"><ele>196.0</ele><time>2026-05-02T07:50:11Z</time></trkpt><trkpt lat="42.27296567349962" lon="13.939396165841186"><ele>195.99999999999997</ele><time>2026-05-02T07:50:13Z</time></trkpt><trkpt lat="42.27293349859136" lon="13.939243394911697"><ele>196.0</ele><time>2026-05-02T07:50:15Z</time></trkpt><trkpt lat="42.27287063044116" lon="13.93910558352899"><ele>196.0</ele><time>2026-05-02T07:50:17Z</time></trkpt><trkpt lat="42.27283158430331" lon="13.939038532734086"><ele>196.0</ele><time>2026-05-02T07:50:18Z</time></trkpt><trkpt lat="42.27278362895072" lon="13.938977572559653"><ele>195.99999999999997</ele><time>2026-05-02T07:50:19Z</time></trkpt><trkpt lat="42.27273555421692" lon="13.938916604544877"><ele>196.0</ele><time>2026-05-02T07:50:20Z</time></trkpt><trkpt lat="42.27264557972932" lon="13.938796841954359"><ele>195.0</ele><time>2026-05-02T07:50:22Z</time></trkpt><trkpt lat="42.2725916223192" lon="13.938724056178078"><ele>194.0</ele><time>2026-05-02T07:50:23Z</time></trkpt><trkpt lat="42.27254205000892" lon="13.938658909566994"><ele>193.0</ele><time>2026-05-02T07:50:24Z</time></trkpt><trkpt lat="42.272486673397744" lon="13.93861096704264"><ele>192.0</ele><time>2026-05-02T07:50:25Z</time></trkpt><trkpt lat="42.27241948157591" lon="13.93856960193921"><ele>191.0</ele><time>2026-05-02T07:50:26Z</time></trkpt><trkpt lat="42.27234234943812" lon="13.938528600264265"><ele>190.0</ele><time>2026-05-02T07:50:27Z</time></trkpt><trkpt lat="42.27226703468188" lon="13.938494598935824"><ele>189.0</ele><time>2026-05-02T07:50:28Z</time></trkpt><trkpt lat="42.27219070416593" lon="13.938462407207284"><ele>188.0</ele><time>2026-05-02T07:50:29Z</time></trkpt><trkpt lat="42.2721117144876" lon="13.938433767138386"><ele>187.0</ele><time>2026-05-02T07:50:30Z</time></trkpt><trkpt lat="42.272036300172715" lon="13.938408148896238"><ele>186.0</ele><time>2026-05-02T07:50:31Z</time></trkpt><trkpt lat="42.27196848999774" lon="13.938394246295706"><ele>185.0</ele><time>2026-05-02T07:50:32Z</time></trkpt><trkpt lat="42.27185840421523" lon="13.938389301324714"><ele>184.0</ele><time>2026-05-02T07:50:34Z</time></trkpt><trkpt lat="42.271785399912915" lon="13.938341842682192"><ele>183.0</ele><time>2026-05-02T07:50:36Z</time></trkpt><trkpt lat="42.27172767758917" lon="13.938205530784968"><ele>181.5</ele><time>2026-05-02T07:50:38Z</time></trkpt><trkpt lat="42.27171760241795" lon="13.938110732211953"><ele>180.0</ele><time>2026-05-02T07:50:39Z</time></trkpt><trkpt lat="42.271709357344314" lon="13.938019360420585"><ele>178.5</ele><time>2026-05-02T07:50:40Z</time></trkpt><trkpt lat="42.27163568509997" lon="13.937898628327716"><ele>177.0</ele><time>2026-05-02T07:50:42Z</time></trkpt><trkpt lat="42.271576325181925" lon="13.93784959519119"><ele>175.5</ele><time>2026-05-02T07:50:43Z</time></trkpt><trkpt lat="42.27150744408764" lon="13.937834399939803"><ele>174.0</ele><time>2026-05-02T07:50:44Z</time></trkpt><trkpt lat="42.27142673657559" lon="13.937833068680634"><ele>173.28571428571428</ele><time>2026-05-02T07:50:45Z</time></trkpt><trkpt lat="42.271357640635046" lon="13.937835908732703"><ele>172.57142857142858</ele><time>2026-05-02T07:50:46Z</time></trkpt><trkpt lat="42.27128958299868" lon="13.937846116620628"><ele>171.85714285714286</ele><time>2026-05-02T07:50:47Z</time></trkpt><trkpt lat="42.27122105663736" lon="13.937864339941534"><ele>171.14285714285714</ele><time>2026-05-02T07:50:48Z</time></trkpt><trkpt lat="42.271160171927214" lon="13.937894588066738"><ele>170.42857142857142</ele><time>2026-05-02T07:50:49Z</time></trkpt><trkpt lat="42.27110538608897" lon="13.937951137738255"><ele>169.71428571428572</ele><time>2026-05-02T07:50:50Z</time></trkpt><trkpt lat="42.2710570033748" lon="13.93803086873591"><ele>169.0</ele><time>2026-05-02T07:50:51Z</time></trkpt><trkpt lat="42.27100644452226" lon="13.938124184642932"><ele>169.0</ele><time>2026-05-02T07:50:52Z</time></trkpt><trkpt lat="42.270963426120844" lon="13.938219706353259"><ele>169.0</ele><time>2026-05-02T07:50:53Z</time></trkpt><trkpt lat="42.2709255896182" lon="13.938317594038518"><ele>169.0</ele><time>2026-05-02T07:50:54Z</time></trkpt><trkpt lat="42.270891607134686" lon="13.938437868809"><ele>169.0</ele><time>2026-05-02T07:50:55Z</time></trkpt><trkpt lat="42.270868373024655" lon="13.93855788501947"><ele>169.0</ele><time>2026-05-02T07:50:56Z</time></trkpt><trkpt lat="42.27084256580411" lon="13.938666951389388"><ele>169.0</ele><time>2026-05-02T07:50:57Z</time></trkpt><trkpt lat="42.27082122313236" lon="13.938762603565472"><ele>169.39999999999998</ele><time>2026-05-02T07:50:58Z</time></trkpt><trkpt lat="42.270781304771205" lon="13.93891996538883"><ele>169.8</ele><time>2026-05-02T07:51:00Z</time></trkpt><trkpt lat="42.27075030076782" lon="13.939010124029931"><ele>170.2</ele><time>2026-05-02T07:51:01Z</time></trkpt><trkpt lat="42.27072428280846" lon="13.939124129928679"><ele>170.60000000000002</ele><time>2026-05-02T07:51:02Z</time></trkpt><trkpt lat="42.2706705391291" lon="13.939235767399202"><ele>171.0</ele><time>2026-05-02T07:51:03Z</time></trkpt><trkpt lat="42.270653024883565" lon="13.939360229572383"><ele>171.20000000000002</ele><time>2026-05-02T07:51:04Z</time></trkpt><trkpt lat="42.270634916520315" lon="13.939488913819226"><ele>171.4</ele><time>2026-05-02T07:51:05Z</time></trkpt><trkpt lat="42.27061273895976" lon="13.939624283574704"><ele>171.6</ele><time>2026-05-02T07:51:06Z</time></trkpt><trkpt lat="42.27058482211048" lon="13.939737038247092"><ele>171.8</ele><time>2026-05-02T07:51:07Z</time></trkpt><trkpt lat="42.27054351178615" lon="13.939842134136672"><ele>172.0</ele><time>2026-05-02T07:51:08Z</time></trkpt><trkpt lat="42.270497717132635" lon="13.939952136026445"><ele>169.5</ele><time>2026-05-02T07:51:09Z</time></trkpt><trkpt lat="42.27045503685713" lon="13.940056074347554"><ele>167.0</ele><time>2026-05-02T07:51:10Z</time></trkpt><trkpt lat="42.270413450226705" lon="13.940168677354922"><ele>164.5</ele><time>2026-05-02T07:51:11Z</time></trkpt><trkpt lat="42.27037732410423" lon="13.940281132846529"><ele>162.0</ele><time>2026-05-02T07:51:12Z</time></trkpt><trkpt lat="42.27034475400586" lon="13.940380544838906"><ele>159.5</ele><time>2026-05-02T07:51:13Z</time></trkpt><trkpt lat="42.27032043630584" lon="13.94049914036754"><ele>157.0</ele><time>2026-05-02T07:51:14Z</time></trkpt><trkpt lat="42.27026813017809" lon="13.940609058825988"><ele>157.0</ele><time>2026-05-02T07:51:15Z</time></trkpt><trkpt lat="42.27022447174744" lon="13.94073746312177"><ele>157.0</ele><time>2026-05-02T07:51:16Z</time></trkpt><trkpt lat="42.27018555146745" lon="13.940853333323343"><ele>157.0</ele><time>2026-05-02T07:51:17Z</time></trkpt><trkpt lat="42.27015451899037" lon="13.940945720675371"><ele>157.0</ele><time>2026-05-02T07:51:18Z</time></trkpt><trkpt lat="42.27012542985584" lon="13.941027274466563"><ele>157.0</ele><time>2026-05-02T07:51:19Z</time></trkpt><trkpt lat="42.27009162827199" lon="13.941110145334882"><ele>157.0</ele><time>2026-05-02T07:51:20Z</time></trkpt><trkpt lat="42.27005132959143" lon="13.941187011595515"><ele>157.0</ele><time>2026-05-02T07:51:21Z</time></trkpt><trkpt lat="42.26998883270968" lon="13.94124944349441"><ele>157.0</ele><time>2026-05-02T07:51:22Z</time></trkpt><trkpt lat="42.26994290594584" lon="13.941324391853978"><ele>157.0</ele><time>2026-05-02T07:51:23Z</time></trkpt><trkpt lat="42.269898822009765" lon="13.941405598410158"><ele>157.0</ele><time>2026-05-02T07:51:24Z</time></trkpt><trkpt lat="42.269875608324604" lon="13.941504357941975"><ele>157.0</ele><time>2026-05-02T07:51:25Z</time></trkpt><trkpt lat="42.26988244552328" lon="13.941630256060817"><ele>157.0</ele><time>2026-05-02T07:51:26Z</time></trkpt><trkpt lat="42.269893233931114" lon="13.941743736554416"><ele>156.33333333333334</ele><time>2026-05-02T07:51:27Z</time></trkpt><trkpt lat="42.26990199543985" lon="13.94184597142752"><ele>155.66666666666669</ele><time>2026-05-02T07:51:28Z</time></trkpt><trkpt lat="42.26990655999196" lon="13.94193177026386"><ele>155.0</ele><time>2026-05-02T07:51:29Z</time></trkpt><trkpt lat="42.269910536005476" lon="13.942018209656629"><ele>154.33333333333334</ele><time>2026-05-02T07:51:30Z</time></trkpt><trkpt lat="42.269895066594465" lon="13.942151708641038"><ele>153.66666666666666</ele><time>2026-05-02T07:51:32Z</time></trkpt><trkpt lat="42.2698119360783" lon="13.942255210257274"><ele>153.0</ele><time>2026-05-02T07:51:34Z</time></trkpt><trkpt lat="42.26971695808387" lon="13.942304949610415"><ele>152.16666666666666</ele><time>2026-05-02T07:51:36Z</time></trkpt><trkpt lat="42.26962318334755" lon="13.94234787284495"><ele>151.33333333333334</ele><time>2026-05-02T07:51:38Z</time></trkpt><trkpt lat="42.26955279706502" lon="13.942375938811354"><ele>150.5</ele><time>2026-05-02T07:51:39Z</time></trkpt><trkpt lat="42.269472380252466" lon="13.942406186613209"><ele>149.66666666666669</ele><time>2026-05-02T07:51:40Z</time></trkpt><trkpt lat="42.26938480129267" lon="13.942434962925653"><ele>148.83333333333334</ele><time>2026-05-02T07:51:41Z</time></trkpt><trkpt lat="42.26929632363484" lon="13.942462116791775"><ele>148.0</ele><time>2026-05-02T07:51:42Z</time></trkpt><trkpt lat="42.26920458486594" lon="13.942489151904063"><ele>148.0</ele><time>2026-05-02T07:51:43Z</time></trkpt><trkpt lat="42.26912014438089" lon="13.942515138866328"><ele>148.0</ele><time>2026-05-02T07:51:44Z</time></trkpt><trkpt lat="42.269032766" lon="13.942542619250364"><ele>148.0</ele><time>2026-05-02T07:51:45Z</time></trkpt><trkpt lat="42.26894982670687" lon="13.942567300721013"><ele>148.0</ele><time>2026-05-02T07:51:46Z</time></trkpt><trkpt lat="42.268888043436455" lon="13.942584479984607"><ele>148.0</ele><time>2026-05-02T07:51:47Z</time></trkpt><trkpt lat="42.26877141808687" lon="13.942624434502823"><ele>148.0</ele><time>2026-05-02T07:51:49Z</time></trkpt><trkpt lat="42.2686581235947" lon="13.942679032387664"><ele>148.0</ele><time>2026-05-02T07:51:51Z</time></trkpt><trkpt lat="42.268590931880176" lon="13.94269259681225"><ele>148.0</ele><time>2026-05-02T07:51:52Z</time></trkpt><trkpt lat="42.26853140757715" lon="13.942722360710754"><ele>148.0</ele><time>2026-05-02T07:51:53Z</time></trkpt><trkpt lat="42.26845788034036" lon="13.942629450876117"><ele>148.0</ele><time>2026-05-02T07:51:54Z</time></trkpt><trkpt lat="42.26839584272138" lon="13.942597053668571"><ele>148.0</ele><time>2026-05-02T07:51:57Z</time></trkpt><trkpt lat="42.26829172409567" lon="13.942530867226836"><ele>148.0</ele><time>2026-05-02T07:51:59Z</time></trkpt><trkpt lat="42.268227415491765" lon="13.942468279485789"><ele>148.0</ele><time>2026-05-02T07:52:00Z</time></trkpt><trkpt lat="42.26816845748068" lon="13.942389907228769"><ele>148.0</ele><time>2026-05-02T07:52:01Z</time></trkpt><trkpt lat="42.26811231782765" lon="13.942329158145549"><ele>148.0</ele><time>2026-05-02T07:52:02Z</time></trkpt><trkpt lat="42.26800389857551" lon="13.942301887758074"><ele>148.0</ele><time>2026-05-02T07:52:04Z</time></trkpt><trkpt lat="42.267885334113345" lon="13.942320935475479"><ele>148.0</ele><time>2026-05-02T07:52:06Z</time></trkpt><trkpt lat="42.26780044988234" lon="13.942315453196848"><ele>149.83333333333334</ele><time>2026-05-02T07:52:08Z</time></trkpt><trkpt lat="42.26773973870641" lon="13.942273612515732"><ele>151.66666666666669</ele><time>2026-05-02T07:52:10Z</time></trkpt><trkpt lat="42.26770846819962" lon="13.942138972262859"><ele>153.5</ele><time>2026-05-02T07:52:12Z</time></trkpt><trkpt lat="42.26770792082401" lon="13.94197916502328"><ele>155.33333333333334</ele><time>2026-05-02T07:52:14Z</time></trkpt><trkpt lat="42.2676907013894" lon="13.941894232317486"><ele>157.16666666666666</ele><time>2026-05-02T07:52:15Z</time></trkpt><trkpt lat="42.26766530945397" lon="13.941797026396474"><ele>159.0</ele><time>2026-05-02T07:52:16Z</time></trkpt><trkpt lat="42.267638808406176" lon="13.941716566190177"><ele>158.83333333333334</ele><time>2026-05-02T07:52:17Z</time></trkpt><trkpt lat="42.26758859681078" lon="13.941588152951017"><ele>158.66666666666666</ele><time>2026-05-02T07:52:19Z</time></trkpt><trkpt lat="42.26754452463789" lon="13.94144131887055"><ele>158.5</ele><time>2026-05-02T07:52:21Z</time></trkpt><trkpt lat="42.26750271496904" lon="13.941363120261288"><ele>158.33333333333331</ele><time>2026-05-02T07:52:22Z</time></trkpt><trkpt lat="42.267454696349205" lon="13.941290516009328"><ele>158.16666666666666</ele><time>2026-05-02T07:52:23Z</time></trkpt><trkpt lat="42.26741004533801" lon="13.941228203136658"><ele>158.0</ele><time>2026-05-02T07:52:24Z</time></trkpt><trkpt lat="42.26735970517523" lon="13.94115064503992"><ele>158.0</ele><time>2026-05-02T07:52:25Z</time></trkpt><trkpt lat="42.267312966204074" lon="13.941067871623563"><ele>158.0</ele><time>2026-05-02T07:52:26Z</time></trkpt><trkpt lat="42.267263159279025" lon="13.940980379966659"><ele>158.0</ele><time>2026-05-02T07:52:27Z</time></trkpt><trkpt lat="42.267214437892356" lon="13.940892546357386"><ele>158.0</ele><time>2026-05-02T07:52:28Z</time></trkpt><trkpt lat="42.267163570744216" lon="13.940801696481024"><ele>158.0</ele><time>2026-05-02T07:52:29Z</time></trkpt><trkpt lat="42.26711931662729" lon="13.940718793743507"><ele>158.0</ele><time>2026-05-02T07:52:30Z</time></trkpt><trkpt lat="42.26708056394126" lon="13.940622341315628"><ele>161.2</ele><time>2026-05-02T07:52:31Z</time></trkpt><trkpt lat="42.26704080292121" lon="13.940540294847349"><ele>164.4</ele><time>2026-05-02T07:52:32Z</time></trkpt><trkpt lat="42.26700182329767" lon="13.940469899156865"><ele>167.6</ele><time>2026-05-02T07:52:33Z</time></trkpt><trkpt lat="42.266937148393744" lon="13.940329332499727"><ele>170.79999999999998</ele><time>2026-05-02T07:52:35Z</time></trkpt><trkpt lat="42.26689659923838" lon="13.940189141720044"><ele>174.0</ele><time>2026-05-02T07:52:37Z</time></trkpt><trkpt lat="42.26683095082513" lon="13.940127252938915"><ele>174.0</ele><time>2026-05-02T07:52:39Z</time></trkpt><trkpt lat="42.266737839908565" lon="13.94019702381835"><ele>174.0</ele><time>2026-05-02T07:52:41Z</time></trkpt><trkpt lat="42.26668856258093" lon="13.940330921896855"><ele>174.0</ele><time>2026-05-02T07:52:43Z</time></trkpt><trkpt lat="42.266673149484" lon="13.94041891593397"><ele>174.0</ele><time>2026-05-02T07:52:44Z</time></trkpt><trkpt lat="42.266651971032765" lon="13.940506365172446"><ele>174.0</ele><time>2026-05-02T07:52:45Z</time></trkpt><trkpt lat="42.26662161025453" lon="13.940608834866703"><ele>174.0</ele><time>2026-05-02T07:52:46Z</time></trkpt><trkpt lat="42.266580277385145" lon="13.940715738776117"><ele>174.0</ele><time>2026-05-02T07:52:47Z</time></trkpt><trkpt lat="42.26654036640693" lon="13.940819767152359"><ele>174.0</ele><time>2026-05-02T07:52:48Z</time></trkpt><trkpt lat="42.266503366870715" lon="13.940935415099721"><ele>174.0</ele><time>2026-05-02T07:52:49Z</time></trkpt><trkpt lat="42.266462653099396" lon="13.941074433707286"><ele>174.0</ele><time>2026-05-02T07:52:50Z</time></trkpt><trkpt lat="42.266423735867214" lon="13.94120091347404"><ele>174.0</ele><time>2026-05-02T07:52:51Z</time></trkpt><trkpt lat="42.26638463863401" lon="13.941326187510677"><ele>177.16666666666666</ele><time>2026-05-02T07:52:52Z</time></trkpt><trkpt lat="42.266355256985186" lon="13.941433073804253"><ele>180.33333333333331</ele><time>2026-05-02T07:52:53Z</time></trkpt><trkpt lat="42.26632962975219" lon="13.941530062451033"><ele>183.5</ele><time>2026-05-02T07:52:54Z</time></trkpt><trkpt lat="42.266325291410126" lon="13.941623310820702"><ele>186.66666666666666</ele><time>2026-05-02T07:52:55Z</time></trkpt><trkpt lat="42.266335153888676" lon="13.941725948678604"><ele>189.83333333333331</ele><time>2026-05-02T07:52:56Z</time></trkpt><trkpt lat="42.26635679559797" lon="13.94183581443878"><ele>193.0</ele><time>2026-05-02T07:52:57Z</time></trkpt><trkpt lat="42.2663752928191" lon="13.941943743888597"><ele>193.8</ele><time>2026-05-02T07:52:58Z</time></trkpt><trkpt lat="42.266392098763234" lon="13.942057172680762"><ele>194.60000000000002</ele><time>2026-05-02T07:52:59Z</time></trkpt><trkpt lat="42.26640653918803" lon="13.942163308914063"><ele>195.39999999999998</ele><time>2026-05-02T07:53:00Z</time></trkpt><trkpt lat="42.26642085700158" lon="13.942286213113034"><ele>196.2</ele><time>2026-05-02T07:53:01Z</time></trkpt><trkpt lat="42.266434593097834" lon="13.94242279310902"><ele>197.0</ele><time>2026-05-02T07:53:02Z</time></trkpt><trkpt lat="42.266449621654985" lon="13.94254647938314"><ele>194.00000000000003</ele><time>2026-05-02T07:53:03Z</time></trkpt><trkpt lat="42.26646412726282" lon="13.942655204499069"><ele>191.0</ele><time>2026-05-02T07:53:04Z</time></trkpt><trkpt lat="42.26648018485578" lon="13.942754715764941"><ele>188.0</ele><time>2026-05-02T07:53:05Z</time></trkpt><trkpt lat="42.266501295248055" lon="13.942882236839607"><ele>185.0</ele><time>2026-05-02T07:53:06Z</time></trkpt><trkpt lat="42.26651177755123" lon="13.94298921948735"><ele>182.0</ele><time>2026-05-02T07:53:07Z</time></trkpt><trkpt lat="42.26651844326415" lon="13.943090333296523"><ele>179.0</ele><time>2026-05-02T07:53:08Z</time></trkpt><trkpt lat="42.266527427215635" lon="13.943215898658472"><ele>179.0</ele><time>2026-05-02T07:53:10Z</time></trkpt><trkpt lat="42.26647272913831" lon="13.943285205083935"><ele>179.0</ele><time>2026-05-02T07:53:15Z</time></trkpt><trkpt lat="42.26637451048816" lon="13.943296606652273"><ele>179.0</ele><time>2026-05-02T07:53:17Z</time></trkpt><trkpt lat="42.26629464693458" lon="13.943289186339676"><ele>179.0</ele><time>2026-05-02T07:53:18Z</time></trkpt><trkpt lat="42.266211608510666" lon="13.943296136560427"><ele>179.0</ele><time>2026-05-02T07:53:19Z</time></trkpt><trkpt lat="42.26612588910489" lon="13.943305179964826"><ele>179.0</ele><time>2026-05-02T07:53:20Z</time></trkpt><trkpt lat="42.26603511350656" lon="13.943317247840376"><ele>181.16666666666666</ele><time>2026-05-02T07:53:21Z</time></trkpt><trkpt lat="42.265948425370404" lon="13.943332034623014"><ele>183.33333333333331</ele><time>2026-05-02T07:53:22Z</time></trkpt><trkpt lat="42.26587874263736" lon="13.943345071710421"><ele>185.5</ele><time>2026-05-02T07:53:23Z</time></trkpt><trkpt lat="42.265806300226366" lon="13.94334657709376"><ele>187.66666666666666</ele><time>2026-05-02T07:53:24Z</time></trkpt><trkpt lat="42.26573332097964" lon="13.943331936082986"><ele>189.83333333333334</ele><time>2026-05-02T07:53:25Z</time></trkpt><trkpt lat="42.26561742131876" lon="13.943252389072251"><ele>192.0</ele><time>2026-05-02T07:53:27Z</time></trkpt><trkpt lat="42.26555635890033" lon="13.943190711636573"><ele>191.99999999999997</ele><time>2026-05-02T07:53:28Z</time></trkpt><trkpt lat="42.26548985792037" lon="13.943111562374005"><ele>192.0</ele><time>2026-05-02T07:53:29Z</time></trkpt><trkpt lat="42.26542334766247" lon="13.943046596579505"><ele>192.0</ele><time>2026-05-02T07:53:30Z</time></trkpt><trkpt lat="42.26537530470931" lon="13.942987467370335"><ele>192.0</ele><time>2026-05-02T07:53:31Z</time></trkpt><trkpt lat="42.265330529203894" lon="13.942914343282979"><ele>192.0</ele><time>2026-05-02T07:53:32Z</time></trkpt><trkpt lat="42.2652935449673" lon="13.942832726714453"><ele>191.99999999999997</ele><time>2026-05-02T07:53:33Z</time></trkpt><trkpt lat="42.26526961160646" lon="13.942741442629236"><ele>192.0</ele><time>2026-05-02T07:53:34Z</time></trkpt><trkpt lat="42.26524453783839" lon="13.942658410572184"><ele>191.99999999999997</ele><time>2026-05-02T07:53:35Z</time></trkpt><trkpt lat="42.265215146691716" lon="13.942582829272792"><ele>192.0</ele><time>2026-05-02T07:53:36Z</time></trkpt><trkpt lat="42.26517818105798" lon="13.942510024513634"><ele>192.0</ele><time>2026-05-02T07:53:37Z</time></trkpt><trkpt lat="42.26514503935865" lon="13.942419677729843"><ele>192.0</ele><time>2026-05-02T07:53:38Z</time></trkpt><trkpt lat="42.26511287557866" lon="13.942333592115757"><ele>192.0</ele><time>2026-05-02T07:53:39Z</time></trkpt><trkpt lat="42.26507669360724" lon="13.942242304048012"><ele>191.99999999999997</ele><time>2026-05-02T07:53:40Z</time></trkpt><trkpt lat="42.2650412815551" lon="13.94214782057378"><ele>192.0</ele><time>2026-05-02T07:53:41Z</time></trkpt><trkpt lat="42.26500796350803" lon="13.94206049246384"><ele>194.5</ele><time>2026-05-02T07:53:42Z</time></trkpt><trkpt lat="42.26497248863173" lon="13.94196932199687"><ele>197.0</ele><time>2026-05-02T07:53:43Z</time></trkpt><trkpt lat="42.264935679505875" lon="13.941875352459817"><ele>199.5</ele><time>2026-05-02T07:53:44Z</time></trkpt><trkpt lat="42.26489069374172" lon="13.941774691076084"><ele>202.0</ele><time>2026-05-02T07:53:45Z</time></trkpt><trkpt lat="42.26483934824804" lon="13.941670333132063"><ele>204.5</ele><time>2026-05-02T07:53:46Z</time></trkpt><trkpt lat="42.26479765222566" lon="13.941576471030846"><ele>207.0</ele><time>2026-05-02T07:53:47Z</time></trkpt><trkpt lat="42.26476414104972" lon="13.941460781046834"><ele>207.5</ele><time>2026-05-02T07:53:48Z</time></trkpt><trkpt lat="42.26474640495072" lon="13.941352175234465"><ele>208.0</ele><time>2026-05-02T07:53:49Z</time></trkpt><trkpt lat="42.264735599354694" lon="13.941243523447946"><ele>208.5</ele><time>2026-05-02T07:53:50Z</time></trkpt><trkpt lat="42.26473621148612" lon="13.941122598401439"><ele>209.0</ele><time>2026-05-02T07:53:51Z</time></trkpt><trkpt lat="42.26473682271663" lon="13.941017371675894"><ele>209.5</ele><time>2026-05-02T07:53:52Z</time></trkpt><trkpt lat="42.26473252666378" lon="13.940909069024238"><ele>210.0</ele><time>2026-05-02T07:53:53Z</time></trkpt><trkpt lat="42.26471874774548" lon="13.94081179023449"><ele>212.0</ele><time>2026-05-02T07:53:54Z</time></trkpt><trkpt lat="42.26469742409655" lon="13.940701056974328"><ele>214.0</ele><time>2026-05-02T07:53:55Z</time></trkpt><trkpt lat="42.26467523640014" lon="13.940596237725886"><ele>216.0</ele><time>2026-05-02T07:53:56Z</time></trkpt><trkpt lat="42.26464810486655" lon="13.940484608277364"><ele>218.0</ele><time>2026-05-02T07:53:57Z</time></trkpt><trkpt lat="42.26462159139363" lon="13.94037398415065"><ele>220.0</ele><time>2026-05-02T07:53:58Z</time></trkpt><trkpt lat="42.26459855140409" lon="13.940251107695289"><ele>222.0</ele><time>2026-05-02T07:53:59Z</time></trkpt><trkpt lat="42.26457570648889" lon="13.940124704742155"><ele>223.0</ele><time>2026-05-02T07:54:00Z</time></trkpt><trkpt lat="42.26455867384366" lon="13.939983308257437"><ele>224.0</ele><time>2026-05-02T07:54:01Z</time></trkpt><trkpt lat="42.264543101470885" lon="13.939845540659324"><ele>225.0</ele><time>2026-05-02T07:54:02Z</time></trkpt><trkpt lat="42.264524462095366" lon="13.939716410169304"><ele>226.0</ele><time>2026-05-02T07:54:03Z</time></trkpt><trkpt lat="42.26450709705346" lon="13.93960468417894"><ele>227.0</ele><time>2026-05-02T07:54:04Z</time></trkpt><trkpt lat="42.2644811491043" lon="13.939484268399317"><ele>227.00000000000003</ele><time>2026-05-02T07:54:05Z</time></trkpt><trkpt lat="42.26445228433327" lon="13.939397812981026"><ele>227.0</ele><time>2026-05-02T07:54:06Z</time></trkpt><trkpt lat="42.26441502145258" lon="13.939294860532932"><ele>227.0</ele><time>2026-05-02T07:54:07Z</time></trkpt><trkpt lat="42.264383342508054" lon="13.939185863249984"><ele>227.0</ele><time>2026-05-02T07:54:08Z</time></trkpt><trkpt lat="42.264353768704375" lon="13.939090285566419"><ele>227.00000000000003</ele><time>2026-05-02T07:54:09Z</time></trkpt><trkpt lat="42.26431234340279" lon="13.939015363036038"><ele>227.0</ele><time>2026-05-02T07:54:10Z</time></trkpt><trkpt lat="42.26425889536183" lon="13.938943364837115"><ele>225.66666666666669</ele><time>2026-05-02T07:54:11Z</time></trkpt><trkpt lat="42.264194144178994" lon="13.9388613323555"><ele>224.33333333333334</ele><time>2026-05-02T07:54:12Z</time></trkpt><trkpt lat="42.26413085616076" lon="13.938774925764394"><ele>223.0</ele><time>2026-05-02T07:54:13Z</time></trkpt><trkpt lat="42.264079679463116" lon="13.938698980471317"><ele>221.66666666666669</ele><time>2026-05-02T07:54:14Z</time></trkpt><trkpt lat="42.264023025558416" lon="13.938617108377363"><ele>220.33333333333334</ele><time>2026-05-02T07:54:15Z</time></trkpt><trkpt lat="42.26395786273682" lon="13.938532638024485"><ele>219.0</ele><time>2026-05-02T07:54:16Z</time></trkpt><trkpt lat="42.263882283072384" lon="13.938441324721976"><ele>222.33333333333334</ele><time>2026-05-02T07:54:17Z</time></trkpt><trkpt lat="42.2638052440765" lon="13.9383531736168"><ele>225.66666666666669</ele><time>2026-05-02T07:54:18Z</time></trkpt><trkpt lat="42.26374426237403" lon="13.938271381408013"><ele>229.0</ele><time>2026-05-02T07:54:19Z</time></trkpt><trkpt lat="42.263689417487825" lon="13.938192239975729"><ele>232.33333333333334</ele><time>2026-05-02T07:54:20Z</time></trkpt><trkpt lat="42.263646897486474" lon="13.938110829271832"><ele>235.66666666666669</ele><time>2026-05-02T07:54:21Z</time></trkpt><trkpt lat="42.26359133241207" lon="13.938001600542693"><ele>239.0</ele><time>2026-05-02T07:54:22Z</time></trkpt><trkpt lat="42.26353686245403" lon="13.937881330183954"><ele>239.0</ele><time>2026-05-02T07:54:23Z</time></trkpt><trkpt lat="42.26347946773969" lon="13.937752199173778"><ele>238.99999999999997</ele><time>2026-05-02T07:54:24Z</time></trkpt><trkpt lat="42.263426892228466" lon="13.937613014225496"><ele>238.99999999999997</ele><time>2026-05-02T07:54:25Z</time></trkpt><trkpt lat="42.26338329814644" lon="13.937473067976278"><ele>239.0</ele><time>2026-05-02T07:54:26Z</time></trkpt><trkpt lat="42.26334624201954" lon="13.937338353596068"><ele>239.0</ele><time>2026-05-02T07:54:27Z</time></trkpt><trkpt lat="42.263322384262544" lon="13.93721003240976"><ele>242.16666666666669</ele><time>2026-05-02T07:54:28Z</time></trkpt><trkpt lat="42.26330767936885" lon="13.93708490215919"><ele>245.33333333333334</ele><time>2026-05-02T07:54:29Z</time></trkpt><trkpt lat="42.26329233073324" lon="13.93695891826544"><ele>248.5</ele><time>2026-05-02T07:54:30Z</time></trkpt><trkpt lat="42.26327288031069" lon="13.936840327969175"><ele>251.66666666666669</ele><time>2026-05-02T07:54:31Z</time></trkpt><trkpt lat="42.263249422186895" lon="13.936735370184685"><ele>254.83333333333334</ele><time>2026-05-02T07:54:32Z</time></trkpt><trkpt lat="42.2632151181049" lon="13.936644581081735"><ele>258.0</ele><time>2026-05-02T07:54:33Z</time></trkpt><trkpt lat="42.26316775529978" lon="13.936562227782225"><ele>259.1666666666667</ele><time>2026-05-02T07:54:34Z</time></trkpt><trkpt lat="42.26312110091519" lon="13.936493659078117"><ele>260.3333333333333</ele><time>2026-05-02T07:54:35Z</time></trkpt><trkpt lat="42.263033398828455" lon="13.936424782268526"><ele>261.5</ele><time>2026-05-02T07:54:37Z</time></trkpt><trkpt lat="42.26291318396199" lon="13.936437236749985"><ele>262.66666666666663</ele><time>2026-05-02T07:54:39Z</time></trkpt><trkpt lat="42.262844725334226" lon="13.936428861744739"><ele>263.8333333333333</ele><time>2026-05-02T07:54:40Z</time></trkpt><trkpt lat="42.262782361604955" lon="13.93638390318376"><ele>265.0</ele><time>2026-05-02T07:54:41Z</time></trkpt><trkpt lat="42.26268220435284" lon="13.936316106553651"><ele>265.0</ele><time>2026-05-02T07:54:43Z</time></trkpt><trkpt lat="42.2625904443402" lon="13.936185542053941"><ele>265.0</ele><time>2026-05-02T07:54:45Z</time></trkpt><trkpt lat="42.262527733160816" lon="13.936092777779457"><ele>265.0</ele><time>2026-05-02T07:54:46Z</time></trkpt><trkpt lat="42.262451485912116" lon="13.936012371613987"><ele>265.0</ele><time>2026-05-02T07:54:47Z</time></trkpt><trkpt lat="42.26238391978076" lon="13.935907662553138"><ele>265.0</ele><time>2026-05-02T07:54:48Z</time></trkpt><trkpt lat="42.26228521786368" lon="13.935815763778907"><ele>267.0</ele><time>2026-05-02T07:54:49Z</time></trkpt><trkpt lat="42.26221450940504" lon="13.935722440823747"><ele>269.0</ele><time>2026-05-02T07:54:50Z</time></trkpt><trkpt lat="42.26216777976035" lon="13.93566244118304"><ele>271.0</ele><time>2026-05-02T07:54:51Z</time></trkpt><trkpt lat="42.26209575905421" lon="13.935551816367305"><ele>273.0</ele><time>2026-05-02T07:54:53Z</time></trkpt><trkpt lat="42.26209755799678" lon="13.935385969255444"><ele>275.0</ele><time>2026-05-02T07:54:55Z</time></trkpt><trkpt lat="42.26211161214267" lon="13.935269881369342"><ele>275.0</ele><time>2026-05-02T07:54:56Z</time></trkpt><trkpt lat="42.26210071767981" lon="13.935125446498098"><ele>275.0</ele><time>2026-05-02T07:54:57Z</time></trkpt><trkpt lat="42.26210180751181" lon="13.934971567465142"><ele>275.0</ele><time>2026-05-02T07:54:58Z</time></trkpt><trkpt lat="42.26209369018736" lon="13.934807365005796"><ele>275.0</ele><time>2026-05-02T07:54:59Z</time></trkpt><trkpt lat="42.26210038256812" lon="13.934645710934891"><ele>276.1666666666667</ele><time>2026-05-02T07:55:00Z</time></trkpt><trkpt lat="42.262102794979576" lon="13.93450585159462"><ele>277.33333333333337</ele><time>2026-05-02T07:55:01Z</time></trkpt><trkpt lat="42.262103621302245" lon="13.934401163288904"><ele>278.5</ele><time>2026-05-02T07:55:02Z</time></trkpt><trkpt lat="42.26211593852387" lon="13.934308514886197"><ele>279.6666666666667</ele><time>2026-05-02T07:55:03Z</time></trkpt><trkpt lat="42.26211223157712" lon="13.934218234040557"><ele>280.8333333333333</ele><time>2026-05-02T07:55:04Z</time></trkpt><trkpt lat="42.262084328845056" lon="13.934091087202683"><ele>282.0</ele><time>2026-05-02T07:55:06Z</time></trkpt><trkpt lat="42.26190597371796" lon="13.934061717395132"><ele>282.0</ele><time>2026-05-02T07:55:09Z</time></trkpt><trkpt lat="42.26182146849229" lon="13.934064554762855"><ele>282.0</ele><time>2026-05-02T07:55:10Z</time></trkpt><trkpt lat="42.261727559680246" lon="13.934051265577576"><ele>282.0</ele><time>2026-05-02T07:55:11Z</time></trkpt><trkpt lat="42.261623915242815" lon="13.934020883602127"><ele>282.0</ele><time>2026-05-02T07:55:12Z</time></trkpt><trkpt lat="42.26150306957534" lon="13.933977458816239"><ele>282.0</ele><time>2026-05-02T07:55:13Z</time></trkpt><trkpt lat="42.261375078877236" lon="13.933925325808932"><ele>282.0</ele><time>2026-05-02T07:55:14Z</time></trkpt><trkpt lat="42.26124000456011" lon="13.933864131730914"><ele>282.0</ele><time>2026-05-02T07:55:15Z</time></trkpt><trkpt lat="42.26111463805584" lon="13.933805867028235"><ele>282.0</ele><time>2026-05-02T07:55:16Z</time></trkpt><trkpt lat="42.26100239467315" lon="13.933751963349058"><ele>282.0</ele><time>2026-05-02T07:55:17Z</time></trkpt><trkpt lat="42.26088908411605" lon="13.933697568709661"><ele>282.0</ele><time>2026-05-02T07:55:18Z</time></trkpt><trkpt lat="42.260778923175806" lon="13.933664642957337"><ele>282.0</ele><time>2026-05-02T07:55:19Z</time></trkpt><trkpt lat="42.26067310788257" lon="13.933616513491858"><ele>282.0</ele><time>2026-05-02T07:55:20Z</time></trkpt><trkpt lat="42.260568162077945" lon="13.93356153605176"><ele>282.0</ele><time>2026-05-02T07:55:21Z</time></trkpt><trkpt lat="42.26046219481981" lon="13.933526928080262"><ele>282.0</ele><time>2026-05-02T07:55:22Z</time></trkpt><trkpt lat="42.26036536071458" lon="13.9335107958652"><ele>282.4</ele><time>2026-05-02T07:55:23Z</time></trkpt><trkpt lat="42.26027148181809" lon="13.933514437143842"><ele>282.79999999999995</ele><time>2026-05-02T07:55:24Z</time></trkpt><trkpt lat="42.26018539946647" lon="13.933525654994892"><ele>283.2</ele><time>2026-05-02T07:55:25Z</time></trkpt><trkpt lat="42.26007397801757" lon="13.933519213910605"><ele>283.59999999999997</ele><time>2026-05-02T07:55:26Z</time></trkpt><trkpt lat="42.25997535800966" lon="13.933531706454987"><ele>284.0</ele><time>2026-05-02T07:55:27Z</time></trkpt><trkpt lat="42.25987819448997" lon="13.933539102548432"><ele>283.0</ele><time>2026-05-02T07:55:28Z</time></trkpt><trkpt lat="42.25978077519555" lon="13.93353822042751"><ele>282.0</ele><time>2026-05-02T07:55:29Z</time></trkpt><trkpt lat="42.2596749611025" lon="13.9335357277539"><ele>281.0</ele><time>2026-05-02T07:55:30Z</time></trkpt><trkpt lat="42.259582432002475" lon="13.93352812070105"><ele>280.0</ele><time>2026-05-02T07:55:31Z</time></trkpt><trkpt lat="42.25950736256263" lon="13.933489932108"><ele>279.0</ele><time>2026-05-02T07:55:32Z</time></trkpt><trkpt lat="42.25943655027323" lon="13.933450728347436"><ele>279.0</ele><time>2026-05-02T07:55:33Z</time></trkpt><trkpt lat="42.25935711343211" lon="13.933396704504398"><ele>279.0</ele><time>2026-05-02T07:55:34Z</time></trkpt><trkpt lat="42.25926954644227" lon="13.933335454323947"><ele>279.0</ele><time>2026-05-02T07:55:35Z</time></trkpt><trkpt lat="42.25917079481206" lon="13.93326789258529"><ele>279.0</ele><time>2026-05-02T07:55:36Z</time></trkpt><trkpt lat="42.25906364097433" lon="13.933198520742527"><ele>279.0</ele><time>2026-05-02T07:55:37Z</time></trkpt><trkpt lat="42.25895792231866" lon="13.933154473010054"><ele>282.0</ele><time>2026-05-02T07:55:38Z</time></trkpt><trkpt lat="42.25886574370349" lon="13.933086970541755"><ele>285.0</ele><time>2026-05-02T07:55:39Z</time></trkpt><trkpt lat="42.25876739402155" lon="13.933051763473344"><ele>288.0</ele><time>2026-05-02T07:55:40Z</time></trkpt><trkpt lat="42.25867294550146" lon="13.933037606403007"><ele>291.0</ele><time>2026-05-02T07:55:41Z</time></trkpt><trkpt lat="42.25857008500848" lon="13.933038884216533"><ele>294.0</ele><time>2026-05-02T07:55:42Z</time></trkpt><trkpt lat="42.2584712204491" lon="13.933050002663206"><ele>294.0</ele><time>2026-05-02T07:55:43Z</time></trkpt><trkpt lat="42.25837834924442" lon="13.93306986398702"><ele>294.0</ele><time>2026-05-02T07:55:44Z</time></trkpt><trkpt lat="42.25830428016038" lon="13.93307727594744"><ele>294.0</ele><time>2026-05-02T07:55:45Z</time></trkpt><trkpt lat="42.2582352154324" lon="13.933084192844817"><ele>294.0</ele><time>2026-05-02T07:55:46Z</time></trkpt><trkpt lat="42.258158998085364" lon="13.933093067885006"><ele>294.0</ele><time>2026-05-02T07:55:47Z</time></trkpt><trkpt lat="42.25807993749922" lon="13.933101368300933"><ele>294.0</ele><time>2026-05-02T07:55:48Z</time></trkpt><trkpt lat="42.25797875383008" lon="13.933105760685516"><ele>295.0</ele><time>2026-05-02T07:55:49Z</time></trkpt><trkpt lat="42.25787175495105" lon="13.933093658402141"><ele>296.0</ele><time>2026-05-02T07:55:50Z</time></trkpt><trkpt lat="42.257762738645106" lon="13.933070667896732"><ele>297.0</ele><time>2026-05-02T07:55:51Z</time></trkpt><trkpt lat="42.25766311965358" lon="13.933088681809549"><ele>298.0</ele><time>2026-05-02T07:55:52Z</time></trkpt><trkpt lat="42.25757313039858" lon="13.933087085054567"><ele>299.0</ele><time>2026-05-02T07:55:53Z</time></trkpt><trkpt lat="42.2574802525183" lon="13.933113270801062"><ele>299.0</ele><time>2026-05-02T07:55:54Z</time></trkpt><trkpt lat="42.25739050772171" lon="13.933130847948464"><ele>299.0</ele><time>2026-05-02T07:55:55Z</time></trkpt><trkpt lat="42.257306279499204" lon="13.933147344619655"><ele>299.0</ele><time>2026-05-02T07:55:56Z</time></trkpt><trkpt lat="42.25720658932942" lon="13.933169977865624"><ele>299.0</ele><time>2026-05-02T07:55:57Z</time></trkpt><trkpt lat="42.2571084686071" lon="13.933220957400174"><ele>299.0</ele><time>2026-05-02T07:55:58Z</time></trkpt><trkpt lat="42.25700822272986" lon="13.933257781486272"><ele>300.0</ele><time>2026-05-02T07:55:59Z</time></trkpt><trkpt lat="42.256904429224974" lon="13.933278499156001"><ele>301.0</ele><time>2026-05-02T07:56:00Z</time></trkpt><trkpt lat="42.25680104539058" lon="13.933308338933426"><ele>302.0</ele><time>2026-05-02T07:56:01Z</time></trkpt><trkpt lat="42.25670123431449" lon="13.93332203785026"><ele>303.0</ele><time>2026-05-02T07:56:02Z</time></trkpt><trkpt lat="42.25660193551004" lon="13.933314422874501"><ele>304.0</ele><time>2026-05-02T07:56:03Z</time></trkpt><trkpt lat="42.25650814116473" lon="13.933287465463668"><ele>303.8</ele><time>2026-05-02T07:56:04Z</time></trkpt><trkpt lat="42.25640941826369" lon="13.933257831008966"><ele>303.59999999999997</ele><time>2026-05-02T07:56:05Z</time></trkpt><trkpt lat="42.2563148348782" lon="13.933221727753498"><ele>303.4</ele><time>2026-05-02T07:56:06Z</time></trkpt><trkpt lat="42.25622623538817" lon="13.933183434914215"><ele>303.2</ele><time>2026-05-02T07:56:07Z</time></trkpt><trkpt lat="42.256137751297715" lon="13.933146192333794"><ele>303.0</ele><time>2026-05-02T07:56:08Z</time></trkpt><trkpt lat="42.256069248178676" lon="13.933119109689828"><ele>303.0</ele><time>2026-05-02T07:56:09Z</time></trkpt><trkpt lat="42.25595761063754" lon="13.933075552056351"><ele>303.0</ele><time>2026-05-02T07:56:11Z</time></trkpt><trkpt lat="42.25588863866718" lon="13.933053039077553"><ele>303.0</ele><time>2026-05-02T07:56:12Z</time></trkpt><trkpt lat="42.25582115535986" lon="13.933031896527488"><ele>303.0</ele><time>2026-05-02T07:56:13Z</time></trkpt><trkpt lat="42.255716335925506" lon="13.932986241075437"><ele>303.0</ele><time>2026-05-02T07:56:15Z</time></trkpt><trkpt lat="42.255674445324246" lon="13.932914038639733"><ele>303.0</ele><time>2026-05-02T07:56:16Z</time></trkpt><trkpt lat="42.25565648034275" lon="13.932791002781622"><ele>303.0</ele><time>2026-05-02T07:56:17Z</time></trkpt><trkpt lat="42.25565318331221" lon="13.932663395482576"><ele>303.0</ele><time>2026-05-02T07:56:18Z</time></trkpt><trkpt lat="42.2556480779075" lon="13.932529258438134"><ele>303.0</ele><time>2026-05-02T07:56:19Z</time></trkpt><trkpt lat="42.255631134620174" lon="13.932403400345406"><ele>303.0</ele><time>2026-05-02T07:56:20Z</time></trkpt><trkpt lat="42.255621887737824" lon="13.932292223284911"><ele>303.0</ele><time>2026-05-02T07:56:21Z</time></trkpt><trkpt lat="42.25558599452416" lon="13.932190481972025"><ele>300.5</ele><time>2026-05-02T07:56:22Z</time></trkpt><trkpt lat="42.25553996491492" lon="13.932096250386031"><ele>298.0</ele><time>2026-05-02T07:56:23Z</time></trkpt><trkpt lat="42.25548697415332" lon="13.932006459070427"><ele>295.5</ele><time>2026-05-02T07:56:24Z</time></trkpt><trkpt lat="42.25542563683723" lon="13.931916485581151"><ele>293.0</ele><time>2026-05-02T07:56:25Z</time></trkpt><trkpt lat="42.25536481490956" lon="13.93183997025745"><ele>290.5</ele><time>2026-05-02T07:56:26Z</time></trkpt><trkpt lat="42.255298529151816" lon="13.931772228509205"><ele>288.0</ele><time>2026-05-02T07:56:27Z</time></trkpt><trkpt lat="42.25521741431632" lon="13.931726474271269"><ele>288.5</ele><time>2026-05-02T07:56:28Z</time></trkpt><trkpt lat="42.255134641434296" lon="13.931692986338016"><ele>289.0</ele><time>2026-05-02T07:56:29Z</time></trkpt><trkpt lat="42.255045589313646" lon="13.931683069812435"><ele>289.5</ele><time>2026-05-02T07:56:30Z</time></trkpt><trkpt lat="42.25496224197321" lon="13.931664541880147"><ele>290.0</ele><time>2026-05-02T07:56:31Z</time></trkpt><trkpt lat="42.25488485057444" lon="13.931634610757374"><ele>290.5</ele><time>2026-05-02T07:56:32Z</time></trkpt><trkpt lat="42.25480818392007" lon="13.93159352965446"><ele>291.0</ele><time>2026-05-02T07:56:33Z</time></trkpt><trkpt lat="42.25476132885565" lon="13.9314668339538"><ele>291.0</ele><time>2026-05-02T07:56:34Z</time></trkpt><trkpt lat="42.25469920426251" lon="13.931404273423121"><ele>291.0</ele><time>2026-05-02T07:56:35Z</time></trkpt><trkpt lat="42.254617230778585" lon="13.931401984691169"><ele>291.0</ele><time>2026-05-02T07:56:36Z</time></trkpt><trkpt lat="42.25453075139509" lon="13.931438797390824"><ele>291.0</ele><time>2026-05-02T07:56:37Z</time></trkpt><trkpt lat="42.25443203691795" lon="13.931472837641582"><ele>291.0</ele><time>2026-05-02T07:56:38Z</time></trkpt><trkpt lat="42.254333794985705" lon="13.931508335043858"><ele>291.0</ele><time>2026-05-02T07:56:39Z</time></trkpt><trkpt lat="42.25423273057387" lon="13.931538467961607"><ele>291.0</ele><time>2026-05-02T07:56:40Z</time></trkpt><trkpt lat="42.25413269777034" lon="13.931564957270027"><ele>291.0</ele><time>2026-05-02T07:56:41Z</time></trkpt><trkpt lat="42.25404782116525" lon="13.931583390568429"><ele>291.0</ele><time>2026-05-02T07:56:42Z</time></trkpt><trkpt lat="42.253970215581774" lon="13.931597108030473"><ele>291.0</ele><time>2026-05-02T07:56:43Z</time></trkpt><trkpt lat="42.25388566655965" lon="13.931600682115006"><ele>290.5</ele><time>2026-05-02T07:56:44Z</time></trkpt><trkpt lat="42.25379404039174" lon="13.9315948482267"><ele>290.0</ele><time>2026-05-02T07:56:45Z</time></trkpt><trkpt lat="42.25371756151811" lon="13.931580104749175"><ele>289.5</ele><time>2026-05-02T07:56:46Z</time></trkpt><trkpt lat="42.25364144235849" lon="13.931552968478174"><ele>289.0</ele><time>2026-05-02T07:56:47Z</time></trkpt><trkpt lat="42.25357687140136" lon="13.931517124954716"><ele>288.5</ele><time>2026-05-02T07:56:48Z</time></trkpt><trkpt lat="42.25350398372003" lon="13.931458345203652"><ele>288.0</ele><time>2026-05-02T07:56:49Z</time></trkpt><trkpt lat="42.25342309823665" lon="13.931398161956864"><ele>288.0</ele><time>2026-05-02T07:56:50Z</time></trkpt><trkpt lat="42.25332324688535" lon="13.931335163024563"><ele>288.0</ele><time>2026-05-02T07:56:51Z</time></trkpt><trkpt lat="42.25322668416047" lon="13.931311016870257"><ele>288.0</ele><time>2026-05-02T07:56:52Z</time></trkpt><trkpt lat="42.25313925700708" lon="13.931246887875234"><ele>288.0</ele><time>2026-05-02T07:56:53Z</time></trkpt><trkpt lat="42.25304532237669" lon="13.931206070580757"><ele>288.0</ele><time>2026-05-02T07:56:54Z</time></trkpt><trkpt lat="42.252940648137205" lon="13.931169953731896"><ele>287.0</ele><time>2026-05-02T07:56:55Z</time></trkpt><trkpt lat="42.25284727550761" lon="13.93114417607697"><ele>286.0</ele><time>2026-05-02T07:56:56Z</time></trkpt><trkpt lat="42.252760952556024" lon="13.93112205134745"><ele>285.0</ele><time>2026-05-02T07:56:57Z</time></trkpt><trkpt lat="42.252678239773786" lon="13.931104124602744"><ele>284.0</ele><time>2026-05-02T07:56:58Z</time></trkpt><trkpt lat="42.252599764805424" lon="13.931094144426826"><ele>283.0</ele><time>2026-05-02T07:56:59Z</time></trkpt><trkpt lat="42.252525668759255" lon="13.93107815234867"><ele>282.0</ele><time>2026-05-02T07:57:00Z</time></trkpt><trkpt lat="42.252459553021275" lon="13.931057371059353"><ele>282.0</ele><time>2026-05-02T07:57:01Z</time></trkpt><trkpt lat="42.25240320897458" lon="13.931013414721729"><ele>282.0</ele><time>2026-05-02T07:57:02Z</time></trkpt><trkpt lat="42.25235283948403" lon="13.930953225304641"><ele>282.0</ele><time>2026-05-02T07:57:03Z</time></trkpt><trkpt lat="42.25232200742365" lon="13.930861462360554"><ele>282.0</ele><time>2026-05-02T07:57:04Z</time></trkpt><trkpt lat="42.25230832044864" lon="13.930750997482999"><ele>282.0</ele><time>2026-05-02T07:57:05Z</time></trkpt><trkpt lat="42.25228241493112" lon="13.930635218831748"><ele>282.0</ele><time>2026-05-02T07:57:06Z</time></trkpt><trkpt lat="42.252266314520256" lon="13.930512625608566"><ele>280.8333333333333</ele><time>2026-05-02T07:57:07Z</time></trkpt><trkpt lat="42.25223636800174" lon="13.930407375622583"><ele>279.6666666666667</ele><time>2026-05-02T07:57:08Z</time></trkpt><trkpt lat="42.25221433710199" lon="13.930309187068666"><ele>278.5</ele><time>2026-05-02T07:57:09Z</time></trkpt><trkpt lat="42.25216726599835" lon="13.930228261783238"><ele>277.33333333333337</ele><time>2026-05-02T07:57:10Z</time></trkpt><trkpt lat="42.252114842257186" lon="13.930146616309784"><ele>276.1666666666667</ele><time>2026-05-02T07:57:11Z</time></trkpt><trkpt lat="42.252051678552554" lon="13.930065213602308"><ele>275.0</ele><time>2026-05-02T07:57:12Z</time></trkpt><trkpt lat="42.25199034315106" lon="13.929991318004484"><ele>275.0</ele><time>2026-05-02T07:57:13Z</time></trkpt><trkpt lat="42.251926327611244" lon="13.929932670813928"><ele>275.0</ele><time>2026-05-02T07:57:14Z</time></trkpt><trkpt lat="42.251833401823234" lon="13.929907693885758"><ele>275.0</ele><time>2026-05-02T07:57:15Z</time></trkpt><trkpt lat="42.25174449136978" lon="13.929886002767264"><ele>275.0</ele><time>2026-05-02T07:57:16Z</time></trkpt><trkpt lat="42.25165763454024" lon="13.929866514474352"><ele>275.0</ele><time>2026-05-02T07:57:17Z</time></trkpt><trkpt lat="42.25157088239697" lon="13.929843901715003"><ele>275.0</ele><time>2026-05-02T07:57:18Z</time></trkpt><trkpt lat="42.25149646272709" lon="13.929820899192618"><ele>271.83333333333337</ele><time>2026-05-02T07:57:19Z</time></trkpt><trkpt lat="42.25142813466661" lon="13.929791240979586"><ele>268.6666666666667</ele><time>2026-05-02T07:57:20Z</time></trkpt><trkpt lat="42.25136212524192" lon="13.929758978596986"><ele>265.5</ele><time>2026-05-02T07:57:21Z</time></trkpt><trkpt lat="42.251325160348436" lon="13.929674615422488"><ele>262.3333333333333</ele><time>2026-05-02T07:57:22Z</time></trkpt><trkpt lat="42.2512132173962" lon="13.929625547986255"><ele>259.16666666666663</ele><time>2026-05-02T07:57:24Z</time></trkpt><trkpt lat="42.25114432114882" lon="13.929648184443044"><ele>256.0</ele><time>2026-05-02T07:57:25Z</time></trkpt><trkpt lat="42.25107615559522" lon="13.929729697025076"><ele>255.99999999999997</ele><time>2026-05-02T07:57:26Z</time></trkpt><trkpt lat="42.25103684786893" lon="13.929805889428152"><ele>256.0</ele><time>2026-05-02T07:57:27Z</time></trkpt><trkpt lat="42.250946726878205" lon="13.929857168721911"><ele>256.0</ele><time>2026-05-02T07:57:29Z</time></trkpt><trkpt lat="42.25088360485859" lon="13.929761094800176"><ele>256.0</ele><time>2026-05-02T07:57:31Z</time></trkpt><trkpt lat="42.25091788060322" lon="13.929623617810428"><ele>255.99999999999997</ele><time>2026-05-02T07:57:33Z</time></trkpt><trkpt lat="42.25097464465455" lon="13.929546871997307"><ele>256.0</ele><time>2026-05-02T07:57:34Z</time></trkpt><trkpt lat="42.251018839243166" lon="13.929457563707013"><ele>255.99999999999997</ele><time>2026-05-02T07:57:35Z</time></trkpt><trkpt lat="42.25105330987305" lon="13.929377187986443"><ele>256.0</ele><time>2026-05-02T07:57:36Z</time></trkpt><trkpt lat="42.2510962010015" lon="13.929235663312221"><ele>256.0</ele><time>2026-05-02T07:57:38Z</time></trkpt><trkpt lat="42.251135913861475" lon="13.929111918665106"><ele>256.0</ele><time>2026-05-02T07:57:40Z</time></trkpt><trkpt lat="42.251169338074725" lon="13.929007439221941"><ele>255.99999999999997</ele><time>2026-05-02T07:57:42Z</time></trkpt><trkpt lat="42.251173532791995" lon="13.928897267178632"><ele>256.0</ele><time>2026-05-02T07:57:45Z</time></trkpt><trkpt lat="42.2511368917025" lon="13.928823626660575"><ele>256.0</ele><time>2026-05-02T07:57:48Z</time></trkpt><trkpt lat="42.2510071553152" lon="13.929101978029431"><ele>256.0</ele><time>2026-05-02T07:57:50Z</time></trkpt><trkpt lat="42.25096112388682" lon="13.929227879824127"><ele>256.0</ele><time>2026-05-02T07:57:51Z</time></trkpt><trkpt lat="42.25086501803352" lon="13.929308787307686"><ele>256.0</ele><time>2026-05-02T07:57:52Z</time></trkpt><trkpt lat="42.250756820480426" lon="13.929396159526197"><ele>256.0</ele><time>2026-05-02T07:57:53Z</time></trkpt><trkpt lat="42.25065292104334" lon="13.929507905266872"><ele>256.0</ele><time>2026-05-02T07:57:54Z</time></trkpt><trkpt lat="42.25056901148001" lon="13.929656377753794"><ele>256.0</ele><time>2026-05-02T07:57:55Z</time></trkpt><trkpt lat="42.250529433518686" lon="13.929840626132052"><ele>254.25</ele><time>2026-05-02T07:57:56Z</time></trkpt><trkpt lat="42.25051509804081" lon="13.93000529642014"><ele>252.5</ele><time>2026-05-02T07:57:57Z</time></trkpt><trkpt lat="42.25053718353172" lon="13.930166858242663"><ele>250.75</ele><time>2026-05-02T07:57:58Z</time></trkpt><trkpt lat="42.25058648793352" lon="13.93032873339109"><ele>249.0</ele><time>2026-05-02T07:57:59Z</time></trkpt><trkpt lat="42.2506664433849" lon="13.930476114040276"><ele>249.0</ele><time>2026-05-02T07:58:00Z</time></trkpt><trkpt lat="42.250746166559004" lon="13.930620540089029"><ele>249.0</ele><time>2026-05-02T07:58:01Z</time></trkpt><trkpt lat="42.25078910904586" lon="13.930788995312541"><ele>249.0</ele><time>2026-05-02T07:58:02Z</time></trkpt><trkpt lat="42.25079008360179" lon="13.93097863789927"><ele>249.0</ele><time>2026-05-02T07:58:03Z</time></trkpt><trkpt lat="42.25076757062972" lon="13.931163509137052"><ele>249.25</ele><time>2026-05-02T07:58:04Z</time></trkpt><trkpt lat="42.25073555833409" lon="13.931348250140568"><ele>249.5</ele><time>2026-05-02T07:58:05Z</time></trkpt><trkpt lat="42.250671952218624" lon="13.931516672466824"><ele>249.75</ele><time>2026-05-02T07:58:06Z</time></trkpt><trkpt lat="42.25062513289354" lon="13.9316914783029"><ele>250.0</ele><time>2026-05-02T07:58:07Z</time></trkpt><trkpt lat="42.25055550003466" lon="13.931848861433178"><ele>243.75</ele><time>2026-05-02T07:58:08Z</time></trkpt><trkpt lat="42.25048700934981" lon="13.93200705685683"><ele>237.5</ele><time>2026-05-02T07:58:09Z</time></trkpt><trkpt lat="42.250427320619394" lon="13.932169227836948"><ele>231.25</ele><time>2026-05-02T07:58:10Z</time></trkpt><trkpt lat="42.250381186568" lon="13.932328179665493"><ele>225.0</ele><time>2026-05-02T07:58:11Z</time></trkpt><trkpt lat="42.25034392919237" lon="13.932478718021526"><ele>225.0</ele><time>2026-05-02T07:58:12Z</time></trkpt><trkpt lat="42.250319613354975" lon="13.932606492974335"><ele>225.0</ele><time>2026-05-02T07:58:13Z</time></trkpt><trkpt lat="42.25031036989582" lon="13.932691122575978"><ele>225.0</ele><time>2026-05-02T07:58:14Z</time></trkpt><trkpt lat="42.25024807918805" lon="13.932788324521214"><ele>225.0</ele><time>2026-05-02T07:58:16Z</time></trkpt><trkpt lat="42.250162059923575" lon="13.932694798607692"><ele>225.0</ele><time>2026-05-02T07:58:18Z</time></trkpt><trkpt lat="42.25016778855458" lon="13.932588191704014"><ele>225.0</ele><time>2026-05-02T07:58:19Z</time></trkpt><trkpt lat="42.250194312153624" lon="13.932467338404752"><ele>225.0</ele><time>2026-05-02T07:58:20Z</time></trkpt><trkpt lat="42.250213790020425" lon="13.93233369688335"><ele>225.0</ele><time>2026-05-02T07:58:21Z</time></trkpt><trkpt lat="42.25022920604172" lon="13.932184454603412"><ele>225.0</ele><time>2026-05-02T07:58:22Z</time></trkpt><trkpt lat="42.25024891816838" lon="13.932038598553117"><ele>225.0</ele><time>2026-05-02T07:58:23Z</time></trkpt><trkpt lat="42.25026017110641" lon="13.931896647193314"><ele>225.0</ele><time>2026-05-02T07:58:24Z</time></trkpt><trkpt lat="42.2502570652121" lon="13.93178979696037"><ele>224.66666666666666</ele><time>2026-05-02T07:58:25Z</time></trkpt><trkpt lat="42.250238771772" lon="13.931637709966996"><ele>224.33333333333331</ele><time>2026-05-02T07:58:27Z</time></trkpt><trkpt lat="42.25021450695758" lon="13.931540309102502"><ele>224.0</ele><time>2026-05-02T07:58:29Z</time></trkpt><trkpt lat="42.25018808431742" lon="13.931450291103408"><ele>223.66666666666666</ele><time>2026-05-02T07:58:31Z</time></trkpt><trkpt lat="42.2501665770041" lon="13.931369564766994"><ele>223.33333333333331</ele><time>2026-05-02T07:58:33Z</time></trkpt><trkpt lat="42.250133251937555" lon="13.931291423788563"><ele>223.0</ele><time>2026-05-02T07:58:35Z</time></trkpt><trkpt lat="42.250062423193405" lon="13.931124132706433"><ele>223.0</ele><time>2026-05-02T07:58:37Z</time></trkpt><trkpt lat="42.25002463548672" lon="13.931031855063654"><ele>223.0</ele><time>2026-05-02T07:58:38Z</time></trkpt><trkpt lat="42.24998246905236" lon="13.93095096475122"><ele>223.0</ele><time>2026-05-02T07:58:40Z</time></trkpt><trkpt lat="42.250060816624476" lon="13.931207478974148"><ele>223.0</ele><time>2026-05-02T07:58:46Z</time></trkpt><trkpt lat="42.25012828720866" lon="13.931348040177223"><ele>223.0</ele><time>2026-05-02T07:58:47Z</time></trkpt><trkpt lat="42.25018081808564" lon="13.931511518811645"><ele>223.0</ele><time>2026-05-02T07:58:48Z</time></trkpt><trkpt lat="42.2502153995054" lon="13.93168344308105"><ele>223.0</ele><time>2026-05-02T07:58:49Z</time></trkpt><trkpt lat="42.25023345283419" lon="13.931859480327073"><ele>223.0</ele><time>2026-05-02T07:58:50Z</time></trkpt><trkpt lat="42.25022479582823" lon="13.932030334766957"><ele>223.5</ele><time>2026-05-02T07:58:51Z</time></trkpt><trkpt lat="42.2501988828403" lon="13.932197830242366"><ele>224.0</ele><time>2026-05-02T07:58:52Z</time></trkpt><trkpt lat="42.25017812595478" lon="13.932365574925363"><ele>224.5</ele><time>2026-05-02T07:58:53Z</time></trkpt><trkpt lat="42.25016399113376" lon="13.932515023460509"><ele>225.0</ele><time>2026-05-02T07:58:54Z</time></trkpt><trkpt lat="42.25015491825179" lon="13.932632334187481"><ele>224.0</ele><time>2026-05-02T07:58:55Z</time></trkpt><trkpt lat="42.25015509840426" lon="13.9327207391895"><ele>223.0</ele><time>2026-05-02T07:58:56Z</time></trkpt><trkpt lat="42.25020578695486" lon="13.932814906764639"><ele>222.0</ele><time>2026-05-02T07:58:58Z</time></trkpt><trkpt lat="42.25028118780709" lon="13.932885868558946"><ele>221.0</ele><time>2026-05-02T07:59:00Z</time></trkpt><trkpt lat="42.250329024204255" lon="13.932942686973991"><ele>220.0</ele><time>2026-05-02T07:59:01Z</time></trkpt><trkpt lat="42.25039552058064" lon="13.932997354407458"><ele>219.0</ele><time>2026-05-02T07:59:02Z</time></trkpt><trkpt lat="42.25046777918065" lon="13.933065388639896"><ele>219.0</ele><time>2026-05-02T07:59:03Z</time></trkpt><trkpt lat="42.250550588585625" lon="13.933133485103616"><ele>218.99999999999997</ele><time>2026-05-02T07:59:04Z</time></trkpt><trkpt lat="42.2506342981491" lon="13.933202703624703"><ele>218.99999999999997</ele><time>2026-05-02T07:59:05Z</time></trkpt><trkpt lat="42.25073222788685" lon="13.933284247229347"><ele>219.0</ele><time>2026-05-02T07:59:06Z</time></trkpt><trkpt lat="42.25081812196981" lon="13.933347796050464"><ele>219.0</ele><time>2026-05-02T07:59:07Z</time></trkpt><trkpt lat="42.25090955724779" lon="13.933398329925987"><ele>217.75</ele><time>2026-05-02T07:59:08Z</time></trkpt><trkpt lat="42.251022811596854" lon="13.933441945360995"><ele>216.5</ele><time>2026-05-02T07:59:09Z</time></trkpt><trkpt lat="42.251146830681186" lon="13.933490811613547"><ele>215.25</ele><time>2026-05-02T07:59:10Z</time></trkpt><trkpt lat="42.251278905236376" lon="13.933548915784527"><ele>214.0</ele><time>2026-05-02T07:59:11Z</time></trkpt><trkpt lat="42.251400963767075" lon="13.93362267442416"><ele>216.79999999999998</ele><time>2026-05-02T07:59:12Z</time></trkpt><trkpt lat="42.251508530386715" lon="13.933710541803293"><ele>219.59999999999997</ele><time>2026-05-02T07:59:13Z</time></trkpt><trkpt lat="42.25160291583368" lon="13.933770218632029"><ele>222.4</ele><time>2026-05-02T07:59:14Z</time></trkpt><trkpt lat="42.25169313731584" lon="13.933821180147163"><ele>225.2</ele><time>2026-05-02T07:59:15Z</time></trkpt><trkpt lat="42.251793557178715" lon="13.933869316793404"><ele>228.0</ele><time>2026-05-02T07:59:16Z</time></trkpt><trkpt lat="42.25190268698156" lon="13.93393017315154"><ele>228.0</ele><time>2026-05-02T07:59:17Z</time></trkpt><trkpt lat="42.25202046143034" lon="13.934000472785128"><ele>228.0</ele><time>2026-05-02T07:59:18Z</time></trkpt><trkpt lat="42.25214280777434" lon="13.93406496420445"><ele>228.0</ele><time>2026-05-02T07:59:19Z</time></trkpt><trkpt lat="42.252247671801186" lon="13.934117635774623"><ele>228.0</ele><time>2026-05-02T07:59:20Z</time></trkpt><trkpt lat="42.25233907073309" lon="13.93416499469738"><ele>230.28571428571428</ele><time>2026-05-02T07:59:21Z</time></trkpt><trkpt lat="42.25241235014248" lon="13.934217134772146"><ele>232.57142857142856</ele><time>2026-05-02T07:59:22Z</time></trkpt><trkpt lat="42.252464041512994" lon="13.93427854305592"><ele>234.85714285714283</ele><time>2026-05-02T07:59:23Z</time></trkpt><trkpt lat="42.25248522130814" lon="13.934376120316518"><ele>237.1428571428571</ele><time>2026-05-02T07:59:24Z</time></trkpt><trkpt lat="42.252490694193796" lon="13.934466594532655"><ele>239.42857142857142</ele><time>2026-05-02T07:59:25Z</time></trkpt><trkpt lat="42.252454281042" lon="13.934557444763815"><ele>241.71428571428567</ele><time>2026-05-02T07:59:26Z</time></trkpt><trkpt lat="42.25244167706954" lon="13.934661227513853"><ele>243.99999999999997</ele><time>2026-05-02T07:59:27Z</time></trkpt><trkpt lat="42.25243736741381" lon="13.934750112391152"><ele>239.5</ele><time>2026-05-02T07:59:35Z</time></trkpt><trkpt lat="42.25223749512054" lon="13.934746638794028"><ele>235.0</ele><time>2026-05-02T07:59:41Z</time></trkpt><trkpt lat="42.25215021835508" lon="13.934761306821859"><ele>230.5</ele><time>2026-05-02T07:59:44Z</time></trkpt><trkpt lat="42.252064686023125" lon="13.934780072788712"><ele>226.0</ele><time>2026-05-02T07:59:47Z</time></trkpt><trkpt lat="42.2519823758604" lon="13.934795716229726"><ele>225.99999999999997</ele><time>2026-05-02T07:59:50Z</time></trkpt><trkpt lat="42.25189879072236" lon="13.934800242810178"><ele>226.0</ele><time>2026-05-02T07:59:53Z</time></trkpt><trkpt lat="42.251813254142895" lon="13.934806547730323"><ele>226.0</ele><time>2026-05-02T07:59:56Z</time></trkpt><trkpt lat="42.25173049598067" lon="13.934808385541704"><ele>226.0</ele><time>2026-05-02T07:59:59Z</time></trkpt><trkpt lat="42.2516304126103" lon="13.934805892870664"><ele>225.99999999999997</ele><time>2026-05-02T08:00:02Z</time></trkpt><trkpt lat="42.251542633214086" lon="13.934811877369722"><ele>226.0</ele><time>2026-05-02T08:00:04Z</time></trkpt><trkpt lat="42.25145496942951" lon="13.93482461553392"><ele>222.83333333333331</ele><time>2026-05-02T08:00:06Z</time></trkpt><trkpt lat="42.25137166871823" lon="13.934830569042374"><ele>219.66666666666666</ele><time>2026-05-02T08:00:08Z</time></trkpt><trkpt lat="42.251299613605255" lon="13.934827765229112"><ele>216.5</ele><time>2026-05-02T08:00:10Z</time></trkpt><trkpt lat="42.25121771829475" lon="13.934841078968542"><ele>213.33333333333331</ele><time>2026-05-02T08:00:12Z</time></trkpt><trkpt lat="42.25113209404991" lon="13.93487463056598"><ele>210.16666666666666</ele><time>2026-05-02T08:00:14Z</time></trkpt><trkpt lat="42.25104296129362" lon="13.934913698402013"><ele>207.0</ele><time>2026-05-02T08:00:16Z</time></trkpt><trkpt lat="42.25094602340235" lon="13.934946632148915"><ele>207.0</ele><time>2026-05-02T08:00:18Z</time></trkpt><trkpt lat="42.25084235626747" lon="13.934943322067175"><ele>207.0</ele><time>2026-05-02T08:00:20Z</time></trkpt><trkpt lat="42.25074166097019" lon="13.934940489184397"><ele>207.0</ele><time>2026-05-02T08:00:22Z</time></trkpt><trkpt lat="42.250643577816014" lon="13.934932906986187"><ele>207.0</ele><time>2026-05-02T08:00:24Z</time></trkpt><trkpt lat="42.25054775196126" lon="13.934916048520547"><ele>207.0</ele><time>2026-05-02T08:00:26Z</time></trkpt><trkpt lat="42.25044228022622" lon="13.934900547603398"><ele>204.2</ele><time>2026-05-02T08:00:28Z</time></trkpt><trkpt lat="42.250334622941054" lon="13.934907698669916"><ele>201.39999999999998</ele><time>2026-05-02T08:00:30Z</time></trkpt><trkpt lat="42.2502435740622" lon="13.934944999305797"><ele>198.60000000000002</ele><time>2026-05-02T08:00:32Z</time></trkpt><trkpt lat="42.25018458182125" lon="13.934974720434022"><ele>195.8</ele><time>2026-05-02T08:00:33Z</time></trkpt><trkpt lat="42.250081675368556" lon="13.93499622485863"><ele>193.0</ele><time>2026-05-02T08:00:35Z</time></trkpt><trkpt lat="42.250001096273685" lon="13.934974438706705"><ele>192.99999999999997</ele><time>2026-05-02T08:00:37Z</time></trkpt><trkpt lat="42.249913956104436" lon="13.9349518295497"><ele>193.0</ele><time>2026-05-02T08:00:39Z</time></trkpt><trkpt lat="42.24983533573027" lon="13.934914586061524"><ele>193.0</ele><time>2026-05-02T08:00:41Z</time></trkpt><trkpt lat="42.24975063587035" lon="13.934879491348603"><ele>193.0</ele><time>2026-05-02T08:00:43Z</time></trkpt><trkpt lat="42.24968017268393" lon="13.934871504661938"><ele>192.99999999999997</ele><time>2026-05-02T08:00:45Z</time></trkpt><trkpt lat="42.24958458649036" lon="13.93490148380417"><ele>193.0</ele><time>2026-05-02T08:00:47Z</time></trkpt><trkpt lat="42.249507590135046" lon="13.934942079793663"><ele>190.83333333333331</ele><time>2026-05-02T08:00:49Z</time></trkpt><trkpt lat="42.24944243667781" lon="13.934985100518585"><ele>188.66666666666666</ele><time>2026-05-02T08:00:51Z</time></trkpt><trkpt lat="42.249369664669246" lon="13.935015432317098"><ele>186.5</ele><time>2026-05-02T08:00:53Z</time></trkpt><trkpt lat="42.24928116352858" lon="13.935027067895517"><ele>184.33333333333331</ele><time>2026-05-02T08:00:55Z</time></trkpt><trkpt lat="42.24919007938305" lon="13.935032746816136"><ele>182.16666666666666</ele><time>2026-05-02T08:00:57Z</time></trkpt><trkpt lat="42.24910325476623" lon="13.935044522998682"><ele>180.0</ele><time>2026-05-02T08:00:59Z</time></trkpt><trkpt lat="42.249033937794806" lon="13.935010324835629"><ele>180.0</ele><time>2026-05-02T08:01:02Z</time></trkpt><trkpt lat="42.248982939224696" lon="13.934958860691685"><ele>180.0</ele><time>2026-05-02T08:01:04Z</time></trkpt><trkpt lat="42.24892035029726" lon="13.934930585522057"><ele>180.0</ele><time>2026-05-02T08:01:06Z</time></trkpt><trkpt lat="42.24884408718848" lon="13.93497132060748"><ele>180.0</ele><time>2026-05-02T08:01:08Z</time></trkpt><trkpt lat="42.248744637944164" lon="13.935017680958063"><ele>180.0</ele><time>2026-05-02T08:01:10Z</time></trkpt><trkpt lat="42.24865254245687" lon="13.935077425811055"><ele>180.0</ele><time>2026-05-02T08:01:12Z</time></trkpt><trkpt lat="42.248593642147085" lon="13.93517885709759"><ele>176.0</ele><time>2026-05-02T08:01:14Z</time></trkpt><trkpt lat="42.248536275939095" lon="13.935281756538322"><ele>172.0</ele><time>2026-05-02T08:01:16Z</time></trkpt><trkpt lat="42.2484759478209" lon="13.935369839232507"><ele>168.0</ele><time>2026-05-02T08:01:18Z</time></trkpt><trkpt lat="42.24838846785093" lon="13.935438747556917"><ele>164.0</ele><time>2026-05-02T08:01:20Z</time></trkpt><trkpt lat="42.24828252500229" lon="13.935472088461106"><ele>160.0</ele><time>2026-05-02T08:01:22Z</time></trkpt><trkpt lat="42.248216704683784" lon="13.935511978570883"><ele>160.0</ele><time>2026-05-02T08:01:24Z</time></trkpt><trkpt lat="42.248164484932644" lon="13.93558495907511"><ele>160.0</ele><time>2026-05-02T08:01:26Z</time></trkpt><trkpt lat="42.2481549049295" lon="13.935687708426766"><ele>160.0</ele><time>2026-05-02T08:01:28Z</time></trkpt><trkpt lat="42.24817798184945" lon="13.935818127367465"><ele>160.0</ele><time>2026-05-02T08:01:30Z</time></trkpt><trkpt lat="42.248199665775864" lon="13.935976289479056"><ele>160.0</ele><time>2026-05-02T08:01:32Z</time></trkpt><trkpt lat="42.24821157617608" lon="13.936066969394568"><ele>160.0</ele><time>2026-05-02T08:01:33Z</time></trkpt><trkpt lat="42.248218212891295" lon="13.93616372660081"><ele>159.4</ele><time>2026-05-02T08:01:34Z</time></trkpt><trkpt lat="42.248219289490194" lon="13.936256275596984"><ele>158.8</ele><time>2026-05-02T08:01:35Z</time></trkpt><trkpt lat="42.248211623083264" lon="13.936399422686682"><ele>158.2</ele><time>2026-05-02T08:01:37Z</time></trkpt><trkpt lat="42.24816729935902" lon="13.936542683177858"><ele>157.6</ele><time>2026-05-02T08:01:39Z</time></trkpt><trkpt lat="42.24814312814047" lon="13.936627564721084"><ele>157.0</ele><time>2026-05-02T08:01:40Z</time></trkpt><trkpt lat="42.24808624421227" lon="13.936776921228265"><ele>153.79999999999998</ele><time>2026-05-02T08:01:42Z</time></trkpt><trkpt lat="42.24800678726613" lon="13.936895883626967"><ele>150.6</ele><time>2026-05-02T08:01:44Z</time></trkpt><trkpt lat="42.24792285931719" lon="13.936993533274029"><ele>147.39999999999998</ele><time>2026-05-02T08:01:46Z</time></trkpt><trkpt lat="42.247847724487926" lon="13.937055235050712"><ele>144.2</ele><time>2026-05-02T08:01:48Z</time></trkpt><trkpt lat="42.24773393206438" lon="13.937131561287336"><ele>141.0</ele><time>2026-05-02T08:01:50Z</time></trkpt><trkpt lat="42.24766179894101" lon="13.937179808617714"><ele>141.0</ele><time>2026-05-02T08:01:51Z</time></trkpt><trkpt lat="42.247596493388954" lon="13.937224191710033"><ele>141.0</ele><time>2026-05-02T08:01:52Z</time></trkpt><trkpt lat="42.24751408538204" lon="13.937292435682082"><ele>141.0</ele><time>2026-05-02T08:01:54Z</time></trkpt><trkpt lat="42.24742623045214" lon="13.937319510617725"><ele>141.0</ele><time>2026-05-02T08:01:56Z</time></trkpt><trkpt lat="42.247297083484916" lon="13.937299521828262"><ele>141.0</ele><time>2026-05-02T08:01:58Z</time></trkpt><trkpt lat="42.247230806900646" lon="13.93727349657063"><ele>141.4</ele><time>2026-05-02T08:01:59Z</time></trkpt><trkpt lat="42.24714711587989" lon="13.937177116603788"><ele>141.8</ele><time>2026-05-02T08:02:01Z</time></trkpt><trkpt lat="42.24712349398438" lon="13.937089720630816"><ele>142.20000000000002</ele><time>2026-05-02T08:02:02.999Z</time></trkpt><trkpt lat="42.24707853943829" lon="13.936954021547818"><ele>142.6</ele><time>2026-05-02T08:02:05.999Z</time></trkpt><trkpt lat="42.24702893244631" lon="13.936835329907595"><ele>143.0</ele><time>2026-05-02T08:02:07.999Z</time></trkpt><trkpt lat="42.24700562308078" lon="13.936751681364074"><ele>142.99999999999997</ele><time>2026-05-02T08:02:09.999Z</time></trkpt><trkpt lat="42.24698533234775" lon="13.936669590533844"><ele>143.0</ele><time>2026-05-02T08:02:13.999Z</time></trkpt><trkpt lat="42.24702391639188" lon="13.936741020250132"><ele>143.0</ele><time>2026-05-02T08:02:24.999Z</time></trkpt><trkpt lat="42.24704118578003" lon="13.936840273363572"><ele>143.0</ele><time>2026-05-02T08:02:25.999Z</time></trkpt><trkpt lat="42.24707068410093" lon="13.936938239340096"><ele>143.0</ele><time>2026-05-02T08:02:26.999Z</time></trkpt><trkpt lat="42.24710840141136" lon="13.937018609303207"><ele>142.99999999999997</ele><time>2026-05-02T08:02:27.999Z</time></trkpt><trkpt lat="42.24715430036842" lon="13.937104194500629"><ele>143.0</ele><time>2026-05-02T08:02:29.999Z</time></trkpt><trkpt lat="42.24708674428878" lon="13.937099312294528"><ele>143.0</ele><time>2026-05-02T08:02:34.999Z</time></trkpt><trkpt lat="42.2470093351147" lon="13.937067589933545"><ele>143.0</ele><time>2026-05-02T08:02:37.999Z</time></trkpt><trkpt lat="42.24692606556916" lon="13.937007666805597"><ele>143.0</ele><time>2026-05-02T08:02:41.999Z</time></trkpt><trkpt lat="42.24683701562271" lon="13.936928867423203"><ele>143.0</ele><time>2026-05-02T08:02:43.999Z</time></trkpt><trkpt lat="42.246804700669465" lon="13.936854196118611"><ele>143.0</ele><time>2026-05-02T08:02:45.999Z</time></trkpt><trkpt lat="42.24682122298381" lon="13.936771941646457"><ele>143.0</ele><time>2026-05-02T08:02:48.999Z</time></trkpt><trkpt lat="42.246775994697366" lon="13.936701995422228"><ele>142.83333333333331</ele><time>2026-05-02T08:02:54.999Z</time></trkpt><trkpt lat="42.24675366876822" lon="13.936617981665398"><ele>142.66666666666666</ele><time>2026-05-02T08:02:57.999Z</time></trkpt><trkpt lat="42.2467159548434" lon="13.936521627490002"><ele>142.5</ele><time>2026-05-02T08:03:00.999Z</time></trkpt><trkpt lat="42.24665277258925" lon="13.936389562277553"><ele>142.33333333333334</ele><time>2026-05-02T08:03:02.999Z</time></trkpt><trkpt lat="42.24661203961395" lon="13.936311470501376"><ele>142.16666666666669</ele><time>2026-05-02T08:03:03.999Z</time></trkpt><trkpt lat="42.246564461894906" lon="13.936247294578733"><ele>142.0</ele><time>2026-05-02T08:03:04.999Z</time></trkpt><trkpt lat="42.24647587811527" lon="13.93624599108152"><ele>143.66666666666669</ele><time>2026-05-02T08:03:06.999Z</time></trkpt><trkpt lat="42.24639496551856" lon="13.936387843650236"><ele>145.33333333333334</ele><time>2026-05-02T08:03:08.999Z</time></trkpt><trkpt lat="42.246361087162065" lon="13.936487472910553"><ele>147.0</ele><time>2026-05-02T08:03:09.999Z</time></trkpt><trkpt lat="42.24632265713553" lon="13.936565151862379"><ele>148.66666666666666</ele><time>2026-05-02T08:03:10.999Z</time></trkpt><trkpt lat="42.24626799664628" lon="13.936616612107088"><ele>150.33333333333331</ele><time>2026-05-02T08:03:12.999Z</time></trkpt><trkpt lat="42.24621474024655" lon="13.936675389541453"><ele>152.0</ele><time>2026-05-02T08:03:15.999Z</time></trkpt><trkpt lat="42.24613151409589" lon="13.93668519855128"><ele>152.0</ele><time>2026-05-02T08:03:18.999Z</time></trkpt><trkpt lat="42.24609896696791" lon="13.936583450665161"><ele>152.0</ele><time>2026-05-02T08:03:21.999Z</time></trkpt><trkpt lat="42.24608566690813" lon="13.936480938565307"><ele>152.0</ele><time>2026-05-02T08:03:23.999Z</time></trkpt><trkpt lat="42.24602422660656" lon="13.936371333275435"><ele>152.0</ele><time>2026-05-02T08:03:25.999Z</time></trkpt><trkpt lat="42.2459855840947" lon="13.936301948344418"><ele>152.0</ele><time>2026-05-02T08:03:27.999Z</time></trkpt><trkpt lat="42.24596054104971" lon="13.936382223166952"><ele>152.0</ele><time>2026-05-02T08:03:30.999Z</time></trkpt><trkpt lat="42.246014304677225" lon="13.93646867303802"><ele>152.0</ele><time>2026-05-02T08:03:32.999Z</time></trkpt><trkpt lat="42.24608976672552" lon="13.936590101554987"><ele>152.0</ele><time>2026-05-02T08:03:34.999Z</time></trkpt><trkpt lat="42.24614932468119" lon="13.93673379611415"><ele>152.0</ele><time>2026-05-02T08:03:36.999Z</time></trkpt><trkpt lat="42.24619277564179" lon="13.936863576310673"><ele>152.0</ele><time>2026-05-02T08:03:39Z</time></trkpt><trkpt lat="42.246224252390995" lon="13.936997204797185"><ele>152.0</ele><time>2026-05-02T08:03:42Z</time></trkpt><trkpt lat="42.24625619662154" lon="13.93715222803271"><ele>152.4</ele><time>2026-05-02T08:03:44Z</time></trkpt><trkpt lat="42.246220392414436" lon="13.937309078075"><ele>152.79999999999998</ele><time>2026-05-02T08:03:46Z</time></trkpt><trkpt lat="42.24614132150803" lon="13.937423595171907"><ele>153.2</ele><time>2026-05-02T08:03:48Z</time></trkpt><trkpt lat="42.24608325826814" lon="13.937501954242236"><ele>153.6</ele><time>2026-05-02T08:03:49Z</time></trkpt><trkpt lat="42.246018539245185" lon="13.937583993807788"><ele>154.0</ele><time>2026-05-02T08:03:50Z</time></trkpt><trkpt lat="42.2459566342424" lon="13.937662055188014"><ele>154.0</ele><time>2026-05-02T08:03:51Z</time></trkpt><trkpt lat="42.24590644501267" lon="13.937727501456784"><ele>154.0</ele><time>2026-05-02T08:03:52Z</time></trkpt><trkpt lat="42.24585748355642" lon="13.937787655127805"><ele>154.0</ele><time>2026-05-02T08:03:54Z</time></trkpt><trkpt lat="42.24580320255273" lon="13.93766077546975"><ele>154.0</ele><time>2026-05-02T08:03:58Z</time></trkpt><trkpt lat="42.24576321758321" lon="13.937545366821876"><ele>154.0</ele><time>2026-05-02T08:03:59Z</time></trkpt><trkpt lat="42.2457298542475" lon="13.937436122121852"><ele>154.0</ele><time>2026-05-02T08:04:00Z</time></trkpt><trkpt lat="42.245688135917895" lon="13.937309972969059"><ele>154.0</ele><time>2026-05-02T08:04:01Z</time></trkpt><trkpt lat="42.24564398955331" lon="13.93717869334875"><ele>154.0</ele><time>2026-05-02T08:04:02Z</time></trkpt><trkpt lat="42.245592304233526" lon="13.937034410784683"><ele>154.0</ele><time>2026-05-02T08:04:03Z</time></trkpt><trkpt lat="42.24554354956307" lon="13.93689422818236"><ele>154.0</ele><time>2026-05-02T08:04:04Z</time></trkpt><trkpt lat="42.245494445454" lon="13.93674643152165"><ele>154.75</ele><time>2026-05-02T08:04:05Z</time></trkpt><trkpt lat="42.245444077008635" lon="13.936595652630063"><ele>155.5</ele><time>2026-05-02T08:04:06Z</time></trkpt><trkpt lat="42.245390114853215" lon="13.936444228743978"><ele>156.25</ele><time>2026-05-02T08:04:07Z</time></trkpt><trkpt lat="42.24533728456757" lon="13.936289585369982"><ele>157.0</ele><time>2026-05-02T08:04:08Z</time></trkpt><trkpt lat="42.24528591232904" lon="13.936135938599163"><ele>157.0</ele><time>2026-05-02T08:04:09Z</time></trkpt><trkpt lat="42.24523515850973" lon="13.935984142633814"><ele>157.0</ele><time>2026-05-02T08:04:10Z</time></trkpt><trkpt lat="42.245186536562436" lon="13.935832768222836"><ele>157.0</ele><time>2026-05-02T08:04:11Z</time></trkpt><trkpt lat="42.245135868404724" lon="13.935686630370679"><ele>157.0</ele><time>2026-05-02T08:04:12Z</time></trkpt><trkpt lat="42.24508854257576" lon="13.935552333694678"><ele>157.42857142857142</ele><time>2026-05-02T08:04:13Z</time></trkpt><trkpt lat="42.24504841648729" lon="13.93543812651398"><ele>157.85714285714286</ele><time>2026-05-02T08:04:14Z</time></trkpt><trkpt lat="42.24501834928074" lon="13.935346036639391"><ele>158.28571428571428</ele><time>2026-05-02T08:04:15Z</time></trkpt><trkpt lat="42.24499282093009" lon="13.935258398213108"><ele>158.71428571428572</ele><time>2026-05-02T08:04:16Z</time></trkpt><trkpt lat="42.24496103700517" lon="13.935180381338297"><ele>159.14285714285714</ele><time>2026-05-02T08:04:17Z</time></trkpt><trkpt lat="42.244906830546874" lon="13.935123543098282"><ele>159.57142857142856</ele><time>2026-05-02T08:04:18Z</time></trkpt><trkpt lat="42.2448387187039" lon="13.935103123395125"><ele>160.0</ele><time>2026-05-02T08:04:19Z</time></trkpt><trkpt lat="42.24476956629443" lon="13.935118736734065"><ele>161.2</ele><time>2026-05-02T08:04:20Z</time></trkpt><trkpt lat="42.24470778726299" lon="13.9351635732943"><ele>162.4</ele><time>2026-05-02T08:04:21Z</time></trkpt><trkpt lat="42.244663818948055" lon="13.935252740224438"><ele>163.60000000000002</ele><time>2026-05-02T08:04:22Z</time></trkpt><trkpt lat="42.2446304486099" lon="13.93537564585793"><ele>164.8</ele><time>2026-05-02T08:04:23Z</time></trkpt><trkpt lat="42.244593947596435" lon="13.935523559706743"><ele>166.0</ele><time>2026-05-02T08:04:24Z</time></trkpt><trkpt lat="42.24455546878428" lon="13.935664016017123"><ele>166.0</ele><time>2026-05-02T08:04:25Z</time></trkpt><trkpt lat="42.244525412542444" lon="13.935788945586133"><ele>166.0</ele><time>2026-05-02T08:04:26Z</time></trkpt><trkpt lat="42.24447400455956" lon="13.935961660626015"><ele>166.0</ele><time>2026-05-02T08:04:27Z</time></trkpt><trkpt lat="42.24443816443462" lon="13.936078256463459"><ele>166.0</ele><time>2026-05-02T08:04:28Z</time></trkpt><trkpt lat="42.24439969061324" lon="13.936179073470072"><ele>166.0</ele><time>2026-05-02T08:04:29Z</time></trkpt><trkpt lat="42.24435473290091" lon="13.936278855777497"><ele>165.20000000000002</ele><time>2026-05-02T08:04:30Z</time></trkpt><trkpt lat="42.24430752364498" lon="13.936390963426614"><ele>164.4</ele><time>2026-05-02T08:04:31Z</time></trkpt><trkpt lat="42.24425594421493" lon="13.936509126799521"><ele>163.6</ele><time>2026-05-02T08:04:32Z</time></trkpt><trkpt lat="42.24420661413572" lon="13.93662472075838"><ele>162.8</ele><time>2026-05-02T08:04:33Z</time></trkpt><trkpt lat="42.2441623171004" lon="13.936730214636075"><ele>162.0</ele><time>2026-05-02T08:04:34Z</time></trkpt><trkpt lat="42.24411603494935" lon="13.936823162619355"><ele>161.66666666666666</ele><time>2026-05-02T08:04:35Z</time></trkpt><trkpt lat="42.244073457300765" lon="13.936901178103566"><ele>161.33333333333334</ele><time>2026-05-02T08:04:36Z</time></trkpt><trkpt lat="42.24402059880023" lon="13.936953397383542"><ele>161.0</ele><time>2026-05-02T08:04:37Z</time></trkpt><trkpt lat="42.24391185987057" lon="13.936895298077228"><ele>160.66666666666669</ele><time>2026-05-02T08:04:39Z</time></trkpt><trkpt lat="42.24387323569077" lon="13.936805687822226"><ele>160.33333333333334</ele><time>2026-05-02T08:04:40Z</time></trkpt><trkpt lat="42.2438451088269" lon="13.936694664770052"><ele>160.0</ele><time>2026-05-02T08:04:41Z</time></trkpt><trkpt lat="42.2438103054987" lon="13.93655807608769"><ele>161.25</ele><time>2026-05-02T08:04:42Z</time></trkpt><trkpt lat="42.2437678209773" lon="13.9363982228509"><ele>162.5</ele><time>2026-05-02T08:04:43Z</time></trkpt><trkpt lat="42.24372888749941" lon="13.93623915468034"><ele>163.75</ele><time>2026-05-02T08:04:44Z</time></trkpt><trkpt lat="42.24368217481705" lon="13.93607692682242"><ele>165.0</ele><time>2026-05-02T08:04:45Z</time></trkpt><trkpt lat="42.24363603311259" lon="13.935905068418185"><ele>165.5</ele><time>2026-05-02T08:04:46Z</time></trkpt><trkpt lat="42.2435961517836" lon="13.935722325530692"><ele>166.0</ele><time>2026-05-02T08:04:47Z</time></trkpt><trkpt lat="42.24355156249039" lon="13.93554025744911"><ele>166.5</ele><time>2026-05-02T08:04:48Z</time></trkpt><trkpt lat="42.24350646123493" lon="13.935366170761215"><ele>167.0</ele><time>2026-05-02T08:04:49Z</time></trkpt><trkpt lat="42.24346214048692" lon="13.935190546473876"><ele>167.5</ele><time>2026-05-02T08:04:50Z</time></trkpt><trkpt lat="42.24341702568193" lon="13.935014776818994"><ele>168.0</ele><time>2026-05-02T08:04:51Z</time></trkpt><trkpt lat="42.24337477387558" lon="13.934839147261565"><ele>168.5</ele><time>2026-05-02T08:04:52Z</time></trkpt><trkpt lat="42.243331519821105" lon="13.934665837265396"><ele>169.0</ele><time>2026-05-02T08:04:53Z</time></trkpt><trkpt lat="42.2432880598533" lon="13.934493773871125"><ele>169.0</ele><time>2026-05-02T08:04:54Z</time></trkpt><trkpt lat="42.24324335044045" lon="13.934323454460952"><ele>169.0</ele><time>2026-05-02T08:04:55Z</time></trkpt><trkpt lat="42.24320040911621" lon="13.934154049566615"><ele>169.0</ele><time>2026-05-02T08:04:56Z</time></trkpt><trkpt lat="42.24316062090069" lon="13.933986134570004"><ele>169.0</ele><time>2026-05-02T08:04:57Z</time></trkpt><trkpt lat="42.24311763293433" lon="13.933821301066802"><ele>170.5</ele><time>2026-05-02T08:04:58Z</time></trkpt><trkpt lat="42.24307470130941" lon="13.933659037491996"><ele>172.0</ele><time>2026-05-02T08:04:59Z</time></trkpt><trkpt lat="42.24303264689311" lon="13.933498015194196"><ele>173.5</ele><time>2026-05-02T08:05:00Z</time></trkpt><trkpt lat="42.24299172813063" lon="13.933338549910903"><ele>175.0</ele><time>2026-05-02T08:05:01Z</time></trkpt><trkpt lat="42.24295157289844" lon="13.933180672839649"><ele>175.5</ele><time>2026-05-02T08:05:02Z</time></trkpt><trkpt lat="42.24291095527682" lon="13.933024390935529"><ele>176.0</ele><time>2026-05-02T08:05:03Z</time></trkpt><trkpt lat="42.24286861112513" lon="13.932868037823017"><ele>176.5</ele><time>2026-05-02T08:05:04Z</time></trkpt><trkpt lat="42.24282706669753" lon="13.93270892688232"><ele>177.0</ele><time>2026-05-02T08:05:05Z</time></trkpt><trkpt lat="42.24278551750805" lon="13.932547739781048"><ele>177.5</ele><time>2026-05-02T08:05:06Z</time></trkpt><trkpt lat="42.24274203078532" lon="13.932383956802935"><ele>178.0</ele><time>2026-05-02T08:05:07Z</time></trkpt><trkpt lat="42.242698083825786" lon="13.93221861170922"><ele>178.5</ele><time>2026-05-02T08:05:08Z</time></trkpt><trkpt lat="42.24265814216356" lon="13.932050370885301"><ele>179.0</ele><time>2026-05-02T08:05:09Z</time></trkpt><trkpt lat="42.242618851946425" lon="13.931880063028247"><ele>179.5</ele><time>2026-05-02T08:05:10Z</time></trkpt><trkpt lat="42.2425771669497" lon="13.931708937342195"><ele>180.0</ele><time>2026-05-02T08:05:11Z</time></trkpt><trkpt lat="42.242533813170425" lon="13.931537289213637"><ele>180.5</ele><time>2026-05-02T08:05:12Z</time></trkpt><trkpt lat="42.24248913967316" lon="13.93136572815957"><ele>181.0</ele><time>2026-05-02T08:05:13Z</time></trkpt><trkpt lat="42.24244513987459" lon="13.93119428621489"><ele>181.0</ele><time>2026-05-02T08:05:14Z</time></trkpt><trkpt lat="42.242404951765735" lon="13.931021448296844"><ele>181.0</ele><time>2026-05-02T08:05:15Z</time></trkpt><trkpt lat="42.24236318689022" lon="13.930850934619444"><ele>181.0</ele><time>2026-05-02T08:05:16Z</time></trkpt><trkpt lat="42.24232119544889" lon="13.930681470128357"><ele>181.0</ele><time>2026-05-02T08:05:17Z</time></trkpt><trkpt lat="42.2422815848538" lon="13.930516731571617"><ele>181.25</ele><time>2026-05-02T08:05:18Z</time></trkpt><trkpt lat="42.24224153137504" lon="13.930359579801733"><ele>181.5</ele><time>2026-05-02T08:05:19Z</time></trkpt><trkpt lat="42.24220107867462" lon="13.930214208072204"><ele>181.75</ele><time>2026-05-02T08:05:20Z</time></trkpt><trkpt lat="42.24216548569789" lon="13.930071527146403"><ele>182.0</ele><time>2026-05-02T08:05:21Z</time></trkpt><trkpt lat="42.242133167336604" lon="13.929936808738525"><ele>182.0</ele><time>2026-05-02T08:05:22Z</time></trkpt><trkpt lat="42.242105039239576" lon="13.929825891797424"><ele>182.0</ele><time>2026-05-02T08:05:23Z</time></trkpt><trkpt lat="42.2420786892387" lon="13.929727212326094"><ele>182.0</ele><time>2026-05-02T08:05:24Z</time></trkpt><trkpt lat="42.242050346496534" lon="13.92963505057358"><ele>182.0</ele><time>2026-05-02T08:05:25Z</time></trkpt><trkpt lat="42.242042478318545" lon="13.929543707453826"><ele>182.0</ele><time>2026-05-02T08:05:26Z</time></trkpt><trkpt lat="42.24200650245183" lon="13.929399634818228"><ele>182.0</ele><time>2026-05-02T08:05:28Z</time></trkpt><trkpt lat="42.24196598469886" lon="13.929237373326247"><ele>182.0</ele><time>2026-05-02T08:05:30Z</time></trkpt><trkpt lat="42.24193768240677" lon="13.929124031050936"><ele>182.0</ele><time>2026-05-02T08:05:31Z</time></trkpt><trkpt lat="42.2418982485415" lon="13.928966110028002"><ele>182.0</ele><time>2026-05-02T08:05:32Z</time></trkpt><trkpt lat="42.241854964469944" lon="13.928792770347274"><ele>182.0</ele><time>2026-05-02T08:05:33Z</time></trkpt><trkpt lat="42.24181379387288" lon="13.928627894376056"><ele>182.0</ele><time>2026-05-02T08:05:34Z</time></trkpt><trkpt lat="42.24177346802664" lon="13.928466932589536"><ele>182.0</ele><time>2026-05-02T08:05:35Z</time></trkpt><trkpt lat="42.2417211602471" lon="13.928311530752667"><ele>182.0</ele><time>2026-05-02T08:05:36Z</time></trkpt><trkpt lat="42.24169150281496" lon="13.928142062421045"><ele>182.0</ele><time>2026-05-02T08:05:37Z</time></trkpt><trkpt lat="42.24165128744246" lon="13.92797261029948"><ele>183.0</ele><time>2026-05-02T08:05:38Z</time></trkpt><trkpt lat="42.241607393905994" lon="13.92780799514008"><ele>184.0</ele><time>2026-05-02T08:05:39Z</time></trkpt><trkpt lat="42.241567054290755" lon="13.927645099138562"><ele>185.0</ele><time>2026-05-02T08:05:40Z</time></trkpt><trkpt lat="42.241526790498334" lon="13.927485035201784"><ele>186.0</ele><time>2026-05-02T08:05:41Z</time></trkpt><trkpt lat="42.24148663545206" lon="13.927327985507246"><ele>186.0</ele><time>2026-05-02T08:05:42Z</time></trkpt><trkpt lat="42.241448627507985" lon="13.927176508677524"><ele>186.0</ele><time>2026-05-02T08:05:43Z</time></trkpt><trkpt lat="42.241413369121524" lon="13.927040179066058"><ele>186.0</ele><time>2026-05-02T08:05:44Z</time></trkpt><trkpt lat="42.241385636114714" lon="13.92692122205284"><ele>186.0</ele><time>2026-05-02T08:05:45Z</time></trkpt><trkpt lat="42.241363912962626" lon="13.926822487144085"><ele>186.0</ele><time>2026-05-02T08:05:46Z</time></trkpt><trkpt lat="42.24133349051829" lon="13.926683895529129"><ele>186.20000000000002</ele><time>2026-05-02T08:05:48Z</time></trkpt><trkpt lat="42.24130995606444" lon="13.926596488789514"><ele>186.4</ele><time>2026-05-02T08:05:51Z</time></trkpt><trkpt lat="42.241291209846345" lon="13.926504418555194"><ele>186.6</ele><time>2026-05-02T08:06:29Z</time></trkpt><trkpt lat="42.24130249630756" lon="13.926364122353835"><ele>186.8</ele><time>2026-05-02T08:06:31Z</time></trkpt><trkpt lat="42.24137717601258" lon="13.92622981232141"><ele>187.0</ele><time>2026-05-02T08:06:33Z</time></trkpt><trkpt lat="42.24154477450576" lon="13.926361197098567"><ele>187.0</ele><time>2026-05-02T08:06:34Z</time></trkpt><trkpt lat="42.241664882368454" lon="13.926376409681213"><ele>187.0</ele><time>2026-05-02T08:06:35Z</time></trkpt><trkpt lat="42.2417696931968" lon="13.926392828161942"><ele>187.0</ele><time>2026-05-02T08:06:36Z</time></trkpt><trkpt lat="42.24186689623469" lon="13.926412687309499"><ele>187.0</ele><time>2026-05-02T08:06:37Z</time></trkpt><trkpt lat="42.24196162198454" lon="13.92643693393712"><ele>187.0</ele><time>2026-05-02T08:06:38Z</time></trkpt><trkpt lat="42.24205490182369" lon="13.926474152652192"><ele>187.0</ele><time>2026-05-02T08:06:39Z</time></trkpt><trkpt lat="42.24214516398232" lon="13.926523534722689"><ele>187.0</ele><time>2026-05-02T08:06:40Z</time></trkpt><trkpt lat="42.24222725040552" lon="13.926584363385267"><ele>187.0</ele><time>2026-05-02T08:06:41Z</time></trkpt><trkpt lat="42.24230384721835" lon="13.926660131660935"><ele>187.0</ele><time>2026-05-02T08:06:42Z</time></trkpt><trkpt lat="42.242375856458395" lon="13.92674287573275"><ele>187.0</ele><time>2026-05-02T08:06:43Z</time></trkpt><trkpt lat="42.24244556528355" lon="13.926822199152097"><ele>186.6</ele><time>2026-05-02T08:06:44Z</time></trkpt><trkpt lat="42.242511474234206" lon="13.926898933727628"><ele>186.2</ele><time>2026-05-02T08:06:45Z</time></trkpt><trkpt lat="42.24257504274296" lon="13.926982588524542"><ele>185.8</ele><time>2026-05-02T08:06:46Z</time></trkpt><trkpt lat="42.242640100620186" lon="13.927071295625272"><ele>185.4</ele><time>2026-05-02T08:06:47Z</time></trkpt><trkpt lat="42.24270884451049" lon="13.927165122540973"><ele>185.0</ele><time>2026-05-02T08:06:48Z</time></trkpt><trkpt lat="42.24278067052455" lon="13.927260498119047"><ele>185.0</ele><time>2026-05-02T08:06:49Z</time></trkpt><trkpt lat="42.242856358772784" lon="13.927361117008733"><ele>185.0</ele><time>2026-05-02T08:06:50Z</time></trkpt><trkpt lat="42.24293517164589" lon="13.927465687227228"><ele>185.0</ele><time>2026-05-02T08:06:51Z</time></trkpt><trkpt lat="42.24301587353424" lon="13.92757369680471"><ele>185.0</ele><time>2026-05-02T08:06:52Z</time></trkpt><trkpt lat="42.2430905665658" lon="13.927675594282924"><ele>185.0</ele><time>2026-05-02T08:06:53Z</time></trkpt><trkpt lat="42.24316036099956" lon="13.927771806814002"><ele>184.33333333333331</ele><time>2026-05-02T08:06:54Z</time></trkpt><trkpt lat="42.24322967252089" lon="13.927861793594834"><ele>183.66666666666666</ele><time>2026-05-02T08:06:55Z</time></trkpt><trkpt lat="42.243297050638986" lon="13.927942570839226"><ele>183.0</ele><time>2026-05-02T08:06:56Z</time></trkpt><trkpt lat="42.243362091580444" lon="13.928018365323755"><ele>182.33333333333334</ele><time>2026-05-02T08:06:57Z</time></trkpt><trkpt lat="42.243420287269565" lon="13.92809408055555"><ele>181.66666666666669</ele><time>2026-05-02T08:06:58Z</time></trkpt><trkpt lat="42.24344872913969" lon="13.928179380324321"><ele>181.0</ele><time>2026-05-02T08:06:59Z</time></trkpt><trkpt lat="42.24349622210774" lon="13.928238882068927"><ele>181.0</ele><time>2026-05-02T08:07:00Z</time></trkpt><trkpt lat="42.24354685421684" lon="13.928296635951897"><ele>181.0</ele><time>2026-05-02T08:07:01Z</time></trkpt><trkpt lat="42.243610876842034" lon="13.928353612917086"><ele>181.0</ele><time>2026-05-02T08:07:02Z</time></trkpt><trkpt lat="42.2436881581518" lon="13.928396855124452"><ele>181.0</ele><time>2026-05-02T08:07:03Z</time></trkpt><trkpt lat="42.24377668391963" lon="13.928392082650296"><ele>181.0</ele><time>2026-05-02T08:07:04Z</time></trkpt><trkpt lat="42.24386524138775" lon="13.928393352031106"><ele>181.0</ele><time>2026-05-02T08:07:05Z</time></trkpt><trkpt lat="42.24395141708176" lon="13.92837695083878"><ele>180.57142857142856</ele><time>2026-05-02T08:07:06Z</time></trkpt><trkpt lat="42.24402973997946" lon="13.928351869086859"><ele>180.14285714285714</ele><time>2026-05-02T08:07:07Z</time></trkpt><trkpt lat="42.24410159913912" lon="13.92832474198662"><ele>179.71428571428572</ele><time>2026-05-02T08:07:08Z</time></trkpt><trkpt lat="42.24416968866522" lon="13.928293064619151"><ele>179.28571428571428</ele><time>2026-05-02T08:07:09Z</time></trkpt><trkpt lat="42.24423375801897" lon="13.928259855528834"><ele>178.85714285714286</ele><time>2026-05-02T08:07:10Z</time></trkpt><trkpt lat="42.244286558602376" lon="13.928199737612672"><ele>178.42857142857142</ele><time>2026-05-02T08:07:11Z</time></trkpt><trkpt lat="42.244329264267165" lon="13.928136076195333"><ele>178.0</ele><time>2026-05-02T08:07:12Z</time></trkpt><trkpt lat="42.24439815462489" lon="13.928024652068588"><ele>178.0</ele><time>2026-05-02T08:07:14Z</time></trkpt><trkpt lat="42.24443445668308" lon="13.927944831527716"><ele>178.0</ele><time>2026-05-02T08:07:16Z</time></trkpt><trkpt lat="42.24444252367397" lon="13.927832330284879"><ele>178.0</ele><time>2026-05-02T08:07:18Z</time></trkpt><trkpt lat="42.24447525341842" lon="13.927683287965774"><ele>178.0</ele><time>2026-05-02T08:07:20Z</time></trkpt><trkpt lat="42.24448906854588" lon="13.927567587787408"><ele>178.0</ele><time>2026-05-02T08:07:22Z</time></trkpt><trkpt lat="42.24450047110008" lon="13.927471965313739"><ele>178.0</ele><time>2026-05-02T08:07:26Z</time></trkpt><trkpt lat="42.24452012257196" lon="13.927310859360643"><ele>179.4</ele><time>2026-05-02T08:07:28Z</time></trkpt><trkpt lat="42.244527108774044" lon="13.927191142675714"><ele>180.8</ele><time>2026-05-02T08:07:29Z</time></trkpt><trkpt lat="42.24454890512556" lon="13.927088748070101"><ele>182.2</ele><time>2026-05-02T08:07:30Z</time></trkpt><trkpt lat="42.24459652139635" lon="13.927021346086573"><ele>183.6</ele><time>2026-05-02T08:07:31Z</time></trkpt><trkpt lat="42.24460035997624" lon="13.926846435157243"><ele>185.0</ele><time>2026-05-02T08:07:33Z</time></trkpt><trkpt lat="42.24464538729371" lon="13.926728145708122"><ele>186.33333333333331</ele><time>2026-05-02T08:07:35Z</time></trkpt><trkpt lat="42.244689711383" lon="13.926662048893974"><ele>187.66666666666666</ele><time>2026-05-02T08:07:36Z</time></trkpt><trkpt lat="42.24472539957605" lon="13.926520734324262"><ele>189.0</ele><time>2026-05-02T08:07:38Z</time></trkpt><trkpt lat="42.24477322147983" lon="13.926423636074746"><ele>190.33333333333331</ele><time>2026-05-02T08:07:40Z</time></trkpt><trkpt lat="42.24478795443796" lon="13.926324588658396"><ele>191.66666666666666</ele><time>2026-05-02T08:07:42Z</time></trkpt><trkpt lat="42.24482114177565" lon="13.926227174580594"><ele>193.0</ele><time>2026-05-02T08:07:46Z</time></trkpt><trkpt lat="42.24480937070823" lon="13.926320056306448"><ele>193.00000000000003</ele><time>2026-05-02T08:08:58Z</time></trkpt><trkpt lat="42.24476558620505" lon="13.926399547165627"><ele>193.0</ele><time>2026-05-02T08:09:04Z</time></trkpt><trkpt lat="42.244739420755316" lon="13.926496531733012"><ele>193.0</ele><time>2026-05-02T08:09:10Z</time></trkpt><trkpt lat="42.24469736379981" lon="13.926569163565922"><ele>193.0</ele><time>2026-05-02T08:09:15Z</time></trkpt><trkpt lat="42.24465640381776" lon="13.926636432574858"><ele>193.0</ele><time>2026-05-02T08:09:21Z</time></trkpt><trkpt lat="42.2446238452129" lon="13.926727259590196"><ele>193.00000000000003</ele><time>2026-05-02T08:09:25.999Z</time></trkpt><trkpt lat="42.24459309846293" lon="13.926816950824744"><ele>193.0</ele><time>2026-05-02T08:09:30.999Z</time></trkpt><trkpt lat="42.2445848406507" lon="13.926903768434796"><ele>191.85714285714286</ele><time>2026-05-02T08:09:39.999Z</time></trkpt><trkpt lat="42.24461293331824" lon="13.926992225613859"><ele>190.71428571428572</ele><time>2026-05-02T08:09:47.999Z</time></trkpt><trkpt lat="42.244589763189786" lon="13.927072752452684"><ele>189.57142857142856</ele><time>2026-05-02T08:09:52Z</time></trkpt><trkpt lat="42.244551296798036" lon="13.927157364941788"><ele>188.42857142857144</ele><time>2026-05-02T08:09:57Z</time></trkpt><trkpt lat="42.24452918410376" lon="13.927237362076418"><ele>187.28571428571428</ele><time>2026-05-02T08:10:01Z</time></trkpt><trkpt lat="42.24453061573316" lon="13.927339648507484"><ele>186.14285714285714</ele><time>2026-05-02T08:10:07Z</time></trkpt><trkpt lat="42.244515563935636" lon="13.92742951063614"><ele>185.0</ele><time>2026-05-02T08:10:12Z</time></trkpt><trkpt lat="42.24451547701951" lon="13.92751906519678"><ele>183.99999999999997</ele><time>2026-05-02T08:10:17Z</time></trkpt><trkpt lat="42.24449879752932" lon="13.927614878011505"><ele>183.0</ele><time>2026-05-02T08:10:22Z</time></trkpt><trkpt lat="42.244478240953356" lon="13.927713781482185"><ele>182.0</ele><time>2026-05-02T08:10:28Z</time></trkpt><trkpt lat="42.24445767025816" lon="13.927802847983159"><ele>181.0</ele><time>2026-05-02T08:10:33Z</time></trkpt><trkpt lat="42.24444337594434" lon="13.927893053063773"><ele>180.0</ele><time>2026-05-02T08:10:38Z</time></trkpt><trkpt lat="42.24441172734878" lon="13.927972184024496"><ele>178.99999999999997</ele><time>2026-05-02T08:10:43Z</time></trkpt><trkpt lat="42.244385447739695" lon="13.928054548997917"><ele>178.0</ele><time>2026-05-02T08:10:48Z</time></trkpt><trkpt lat="42.24438922078111" lon="13.928159188194511"><ele>177.99999999999997</ele><time>2026-05-02T08:10:53Z</time></trkpt><trkpt lat="42.24441288698237" lon="13.928242613845347"><ele>178.0</ele><time>2026-05-02T08:10:58Z</time></trkpt><trkpt lat="42.24442867385961" lon="13.928338284156709"><ele>178.0</ele><time>2026-05-02T08:11:04Z</time></trkpt><trkpt lat="42.24446062939932" lon="13.928413306754411"><ele>178.0</ele><time>2026-05-02T08:11:08Z</time></trkpt><trkpt lat="42.244495558111836" lon="13.928502698742271"><ele>178.0</ele><time>2026-05-02T08:11:14Z</time></trkpt><trkpt lat="42.24456528172843" lon="13.928497956836349"><ele>177.99999999999997</ele><time>2026-05-02T08:11:27.999Z</time></trkpt><trkpt lat="42.24464096639876" lon="13.928475246481618"><ele>178.0</ele><time>2026-05-02T08:11:35.999Z</time></trkpt><trkpt lat="42.244714508305094" lon="13.928454931580632"><ele>177.66666666666669</ele><time>2026-05-02T08:11:44.999Z</time></trkpt><trkpt lat="42.2447696286679" lon="13.928402940950308"><ele>177.33333333333334</ele><time>2026-05-02T08:11:55.069Z</time></trkpt><trkpt lat="42.24464517718616" lon="13.92850201789899"><ele>177.0</ele><time>2026-05-02T08:15:03.999Z</time></trkpt><trkpt lat="42.24461698425096" lon="13.928586794701708"><ele>176.66666666666666</ele><time>2026-05-02T08:15:09.001Z</time></trkpt><trkpt lat="42.24458158387571" lon="13.928662717375653"><ele>176.33333333333331</ele><time>2026-05-02T08:15:16.001Z</time></trkpt><trkpt lat="42.24455782841025" lon="13.928754878371949"><ele>176.0</ele><time>2026-05-02T08:15:23.001Z</time></trkpt><trkpt lat="42.24470542554578" lon="13.928785410901002"><ele>176.0</ele><time>2026-05-02T08:19:51Z</time></trkpt><trkpt lat="42.244668702853936" lon="13.928716200164457"><ele>176.0</ele><time>2026-05-02T08:20:09Z</time></trkpt><trkpt lat="42.244612455379745" lon="13.928669018309767"><ele>176.0</ele><time>2026-05-02T08:20:12Z</time></trkpt><trkpt lat="42.24453815521844" lon="13.9286298949752"><ele>176.0</ele><time>2026-05-02T08:20:17Z</time></trkpt><trkpt lat="42.24447262571413" lon="13.928571600448524"><ele>176.0</ele><time>2026-05-02T08:20:22Z</time></trkpt><trkpt lat="42.24443019827201" lon="13.928505594931998"><ele>176.0</ele><time>2026-05-02T08:20:27Z</time></trkpt><trkpt lat="42.244407349190006" lon="13.92840904731556"><ele>176.0</ele><time>2026-05-02T08:20:33Z</time></trkpt><trkpt lat="42.24440259327684" lon="13.9283201613514"><ele>176.28571428571428</ele><time>2026-05-02T08:20:38Z</time></trkpt><trkpt lat="42.24439707789958" lon="13.928225875061743"><ele>176.57142857142856</ele><time>2026-05-02T08:20:43Z</time></trkpt><trkpt lat="42.244404908651056" lon="13.928121019468577"><ele>176.85714285714283</ele><time>2026-05-02T08:20:48.999Z</time></trkpt><trkpt lat="42.244408024157316" lon="13.928027129569422"><ele>177.14285714285714</ele><time>2026-05-02T08:20:54.999Z</time></trkpt><trkpt lat="42.24442480021727" lon="13.927927783530391"><ele>177.42857142857142</ele><time>2026-05-02T08:20:59.999Z</time></trkpt><trkpt lat="42.24443141872895" lon="13.927829034703937"><ele>177.7142857142857</ele><time>2026-05-02T08:21:05.999Z</time></trkpt><trkpt lat="42.24444399143584" lon="13.927743143095844"><ele>178.0</ele><time>2026-05-02T08:21:10.999Z</time></trkpt><trkpt lat="42.24443596892054" lon="13.92765178422479"><ele>177.99999999999997</ele><time>2026-05-02T08:21:15.999Z</time></trkpt><trkpt lat="42.24445809585737" lon="13.927563731816859"><ele>178.0</ele><time>2026-05-02T08:21:20.999Z</time></trkpt><trkpt lat="42.24448069178585" lon="13.927475135187008"><ele>178.0</ele><time>2026-05-02T08:21:28Z</time></trkpt><trkpt lat="42.2444902054588" lon="13.927369314670102"><ele>178.0</ele><time>2026-05-02T08:21:34Z</time></trkpt><trkpt lat="42.244512235629635" lon="13.927281138701654"><ele>178.0</ele><time>2026-05-02T08:21:40Z</time></trkpt><trkpt lat="42.24452999557737" lon="13.927188672651607"><ele>177.99999999999997</ele><time>2026-05-02T08:21:45Z</time></trkpt><trkpt lat="42.24454241051173" lon="13.927093903514876"><ele>178.0</ele><time>2026-05-02T08:21:51Z</time></trkpt><trkpt lat="42.24454133197646" lon="13.927004962154575"><ele>178.99999999999997</ele><time>2026-05-02T08:21:55Z</time></trkpt><trkpt lat="42.24456083941612" lon="13.926915159345667"><ele>180.0</ele><time>2026-05-02T08:22:01Z</time></trkpt><trkpt lat="42.244601876249604" lon="13.926820355582372"><ele>181.0</ele><time>2026-05-02T08:22:08Z</time></trkpt><trkpt lat="42.24462192596644" lon="13.926738908435258"><ele>182.0</ele><time>2026-05-02T08:22:13Z</time></trkpt><trkpt lat="42.24466705475033" lon="13.926667526986437"><ele>183.0</ele><time>2026-05-02T08:22:19Z</time></trkpt><trkpt lat="42.24469830510301" lon="13.926583068096322"><ele>183.99999999999997</ele><time>2026-05-02T08:22:24Z</time></trkpt><trkpt lat="42.24472705366013" lon="13.926498207886173"><ele>185.0</ele><time>2026-05-02T08:22:29Z</time></trkpt><trkpt lat="42.244769783673" lon="13.92642651626767"><ele>186.33333333333331</ele><time>2026-05-02T08:22:35Z</time></trkpt><trkpt lat="42.24479594854546" lon="13.926342378803927"><ele>187.66666666666666</ele><time>2026-05-02T08:22:41Z</time></trkpt><trkpt lat="42.24483173858415" lon="13.926263181668055"><ele>189.0</ele><time>2026-05-02T08:22:45.999Z</time></trkpt><trkpt lat="42.24485819507903" lon="13.92617730594441"><ele>190.33333333333331</ele><time>2026-05-02T08:22:51.999Z</time></trkpt><trkpt lat="42.244788055864106" lon="13.926214153297119"><ele>191.66666666666666</ele><time>2026-05-02T08:24:43.999Z</time></trkpt><trkpt lat="42.244785845448526" lon="13.926332875675618"><ele>193.0</ele><time>2026-05-02T08:24:46.999Z</time></trkpt><trkpt lat="42.2447434808419" lon="13.926427576556465"><ele>192.99999999999997</ele><time>2026-05-02T08:24:49.999Z</time></trkpt><trkpt lat="42.24472719610094" lon="13.926511420591789"><ele>193.0</ele><time>2026-05-02T08:24:53.999Z</time></trkpt><trkpt lat="42.244690255188075" lon="13.926617285179256"><ele>193.0</ele><time>2026-05-02T08:24:57.999Z</time></trkpt><trkpt lat="42.24466747087605" lon="13.926709445404864"><ele>193.0</ele><time>2026-05-02T08:24:59.999Z</time></trkpt><trkpt lat="42.24463335626742" lon="13.926805837244626"><ele>192.99999999999997</ele><time>2026-05-02T08:25:01.999Z</time></trkpt><trkpt lat="42.24458630814025" lon="13.926895370398254"><ele>193.0</ele><time>2026-05-02T08:25:03.999Z</time></trkpt><trkpt lat="42.244565534242085" lon="13.926983423298408"><ele>191.4</ele><time>2026-05-02T08:25:05.999Z</time></trkpt><trkpt lat="42.24462332371979" lon="13.927024459172808"><ele>189.8</ele><time>2026-05-02T08:25:07.999Z</time></trkpt><trkpt lat="42.244763758240545" lon="13.926960641430895"><ele>188.2</ele><time>2026-05-02T08:25:09.999Z</time></trkpt><trkpt lat="42.24487291478549" lon="13.926930472330607"><ele>186.6</ele><time>2026-05-02T08:25:10.999Z</time></trkpt><trkpt lat="42.244988223156746" lon="13.926906905908838"><ele>185.0</ele><time>2026-05-02T08:25:11.999Z</time></trkpt><trkpt lat="42.24510546968323" lon="13.92688013743614"><ele>180.5</ele><time>2026-05-02T08:25:12.999Z</time></trkpt><trkpt lat="42.245243815098384" lon="13.926860080806506"><ele>176.0</ele><time>2026-05-02T08:25:13.999Z</time></trkpt><trkpt lat="42.24534463812868" lon="13.926858342683717"><ele>171.5</ele><time>2026-05-02T08:25:14.999Z</time></trkpt><trkpt lat="42.245458444840686" lon="13.926856637729564"><ele>167.0</ele><time>2026-05-02T08:25:15.999Z</time></trkpt><trkpt lat="42.24557176735486" lon="13.926853104453507"><ele>165.8</ele><time>2026-05-02T08:25:16.999Z</time></trkpt><trkpt lat="42.24567605643537" lon="13.926846503119396"><ele>164.6</ele><time>2026-05-02T08:25:17.999Z</time></trkpt><trkpt lat="42.24576968366672" lon="13.926840828718742"><ele>163.4</ele><time>2026-05-02T08:25:18.999Z</time></trkpt><trkpt lat="42.24583429888443" lon="13.926834162674686"><ele>162.20000000000002</ele><time>2026-05-02T08:25:19.999Z</time></trkpt><trkpt lat="42.24593489323842" lon="13.926829341606139"><ele>161.0</ele><time>2026-05-02T08:25:21.999Z</time></trkpt><trkpt lat="42.24603443430707" lon="13.926824633424644"><ele>161.0</ele><time>2026-05-02T08:25:23.999Z</time></trkpt><trkpt lat="42.24610952908946" lon="13.926878085538776"><ele>161.0</ele><time>2026-05-02T08:25:25.999Z</time></trkpt><trkpt lat="42.24618976902276" lon="13.926747312570484"><ele>161.0</ele><time>2026-05-02T08:25:27.999Z</time></trkpt><trkpt lat="42.246213954515746" lon="13.926648458814533"><ele>161.0</ele><time>2026-05-02T08:25:29.999Z</time></trkpt><trkpt lat="42.24614952309729" lon="13.92655739753196"><ele>161.0</ele><time>2026-05-02T08:25:31.999Z</time></trkpt><trkpt lat="42.2460903230382" lon="13.92648377125155"><ele>160.83333333333331</ele><time>2026-05-02T08:25:33.999Z</time></trkpt><trkpt lat="42.245941408197524" lon="13.926568555787213"><ele>160.66666666666666</ele><time>2026-05-02T08:25:34.999Z</time></trkpt><trkpt lat="42.245869187117435" lon="13.926567424854989"><ele>160.5</ele><time>2026-05-02T08:25:35.999Z</time></trkpt><trkpt lat="42.2458041397346" lon="13.926560691299853"><ele>160.33333333333334</ele><time>2026-05-02T08:25:36.999Z</time></trkpt><trkpt lat="42.24573509654038" lon="13.926526187090797"><ele>160.16666666666669</ele><time>2026-05-02T08:25:38.999Z</time></trkpt><trkpt lat="42.24568048437748" lon="13.926479513921048"><ele>160.0</ele><time>2026-05-02T08:25:40.999Z</time></trkpt><trkpt lat="42.24564466328615" lon="13.926338355904875"><ele>160.0</ele><time>2026-05-02T08:25:42.999Z</time></trkpt><trkpt lat="42.24563693485767" lon="13.926169030780889"><ele>160.0</ele><time>2026-05-02T08:25:44.999Z</time></trkpt><trkpt lat="42.24563319928209" lon="13.926048309185116"><ele>160.0</ele><time>2026-05-02T08:25:45.999Z</time></trkpt><trkpt lat="42.245625140998406" lon="13.92590506050961"><ele>160.0</ele><time>2026-05-02T08:25:46.999Z</time></trkpt><trkpt lat="42.24561374254567" lon="13.925766275601978"><ele>160.0</ele><time>2026-05-02T08:25:47.999Z</time></trkpt><trkpt lat="42.24560501293147" lon="13.925627915152722"><ele>160.8</ele><time>2026-05-02T08:25:48.999Z</time></trkpt><trkpt lat="42.245597858575906" lon="13.92550102281223"><ele>161.6</ele><time>2026-05-02T08:25:49.999Z</time></trkpt><trkpt lat="42.24559399526918" lon="13.925384202199599"><ele>162.39999999999998</ele><time>2026-05-02T08:25:50.999Z</time></trkpt><trkpt lat="42.24559836065854" lon="13.925263473540143"><ele>163.2</ele><time>2026-05-02T08:25:51.999Z</time></trkpt><trkpt lat="42.245611889476066" lon="13.925132632465205"><ele>164.0</ele><time>2026-05-02T08:25:52.999Z</time></trkpt><trkpt lat="42.24563560891102" lon="13.925003705271566"><ele>164.0</ele><time>2026-05-02T08:25:53.999Z</time></trkpt><trkpt lat="42.24566577339585" lon="13.924874699779693"><ele>164.0</ele><time>2026-05-02T08:25:54.999Z</time></trkpt><trkpt lat="42.24569434431572" lon="13.924744795840176"><ele>164.0</ele><time>2026-05-02T08:25:55.999Z</time></trkpt><trkpt lat="42.24572499526908" lon="13.924619501817633"><ele>164.0</ele><time>2026-05-02T08:25:56.999Z</time></trkpt><trkpt lat="42.24575746682156" lon="13.924500794155298"><ele>164.0</ele><time>2026-05-02T08:25:57.999Z</time></trkpt><trkpt lat="42.24579241329347" lon="13.924397706569007"><ele>164.0</ele><time>2026-05-02T08:25:58.999Z</time></trkpt><trkpt lat="42.24583666196296" lon="13.924319564433736"><ele>164.0</ele><time>2026-05-02T08:25:59.999Z</time></trkpt><trkpt lat="42.24590536414509" lon="13.92426762596781"><ele>164.0</ele><time>2026-05-02T08:26:00.999Z</time></trkpt><trkpt lat="42.2459639966398" lon="13.924200748274698"><ele>164.0</ele><time>2026-05-02T08:26:01.999Z</time></trkpt><trkpt lat="42.24602365692913" lon="13.924123084097166"><ele>164.0</ele><time>2026-05-02T08:26:02.999Z</time></trkpt><trkpt lat="42.24607213688737" lon="13.924023048109161"><ele>164.0</ele><time>2026-05-02T08:26:03.999Z</time></trkpt><trkpt lat="42.24611206125383" lon="13.92392266212014"><ele>164.0</ele><time>2026-05-02T08:26:04.999Z</time></trkpt><trkpt lat="42.24614559929648" lon="13.923825234500823"><ele>164.0</ele><time>2026-05-02T08:26:05.999Z</time></trkpt><trkpt lat="42.24616566323545" lon="13.923719804302694"><ele>164.0</ele><time>2026-05-02T08:26:06.999Z</time></trkpt><trkpt lat="42.2461733834496" lon="13.923611474282984"><ele>164.0</ele><time>2026-05-02T08:26:07.999Z</time></trkpt><trkpt lat="42.24617347137426" lon="13.923503552222513"><ele>164.0</ele><time>2026-05-02T08:26:08.999Z</time></trkpt><trkpt lat="42.24616992205538" lon="13.923377490031138"><ele>164.0</ele><time>2026-05-02T08:26:09.999Z</time></trkpt><trkpt lat="42.246169254521014" lon="13.923240998614242"><ele>164.39999999999998</ele><time>2026-05-02T08:26:10.999Z</time></trkpt><trkpt lat="42.24616831780033" lon="13.923089899787584"><ele>164.8</ele><time>2026-05-02T08:26:11.999Z</time></trkpt><trkpt lat="42.24616509786868" lon="13.92293872412461"><ele>165.2</ele><time>2026-05-02T08:26:12.999Z</time></trkpt><trkpt lat="42.246139715164134" lon="13.922803589392405"><ele>165.60000000000002</ele><time>2026-05-02T08:26:13.999Z</time></trkpt><trkpt lat="42.24614113000117" lon="13.922673374144273"><ele>166.0</ele><time>2026-05-02T08:26:14.999Z</time></trkpt><trkpt lat="42.24612717855917" lon="13.92255258858663"><ele>166.20000000000002</ele><time>2026-05-02T08:26:15.999Z</time></trkpt><trkpt lat="42.246120221928926" lon="13.922415058267397"><ele>166.4</ele><time>2026-05-02T08:26:16.999Z</time></trkpt><trkpt lat="42.246120340656695" lon="13.922280786559384"><ele>166.6</ele><time>2026-05-02T08:26:17.999Z</time></trkpt><trkpt lat="42.24612246872998" lon="13.922160219347298"><ele>166.8</ele><time>2026-05-02T08:26:18.999Z</time></trkpt><trkpt lat="42.24611935566636" lon="13.922053030471481"><ele>167.0</ele><time>2026-05-02T08:26:19.999Z</time></trkpt><trkpt lat="42.24610645830098" lon="13.921943922669218"><ele>167.0</ele><time>2026-05-02T08:26:20.999Z</time></trkpt><trkpt lat="42.246084298603144" lon="13.92183893536386"><ele>167.0</ele><time>2026-05-02T08:26:21.999Z</time></trkpt><trkpt lat="42.24605771762651" lon="13.921742624896597"><ele>167.0</ele><time>2026-05-02T08:26:22.999Z</time></trkpt><trkpt lat="42.24602116191477" lon="13.921642419292112"><ele>167.0</ele><time>2026-05-02T08:26:23.999Z</time></trkpt><trkpt lat="42.24599955905758" lon="13.921519929275187"><ele>167.0</ele><time>2026-05-02T08:26:24.999Z</time></trkpt><trkpt lat="42.245954677412286" lon="13.921396810883804"><ele>167.0</ele><time>2026-05-02T08:26:25.999Z</time></trkpt><trkpt lat="42.24594074774343" lon="13.921259159549214"><ele>167.33333333333331</ele><time>2026-05-02T08:26:26.999Z</time></trkpt><trkpt lat="42.24590477466613" lon="13.921147147791837"><ele>167.66666666666666</ele><time>2026-05-02T08:26:27.999Z</time></trkpt><trkpt lat="42.24588469855248" lon="13.921038204508683"><ele>168.0</ele><time>2026-05-02T08:26:28.999Z</time></trkpt><trkpt lat="42.24585271723563" lon="13.920952299211102"><ele>168.33333333333334</ele><time>2026-05-02T08:26:29.999Z</time></trkpt><trkpt lat="42.24581593612937" lon="13.920860837421996"><ele>168.66666666666669</ele><time>2026-05-02T08:26:30.999Z</time></trkpt><trkpt lat="42.245777770277975" lon="13.920768869790738"><ele>169.0</ele><time>2026-05-02T08:26:31.999Z</time></trkpt><trkpt lat="42.24573893008868" lon="13.92068525821105"><ele>169.16666666666669</ele><time>2026-05-02T08:26:32.999Z</time></trkpt><trkpt lat="42.24569366610342" lon="13.920599981062855"><ele>169.33333333333334</ele><time>2026-05-02T08:26:33.999Z</time></trkpt><trkpt lat="42.245631608055334" lon="13.920514634200968"><ele>169.5</ele><time>2026-05-02T08:26:34.999Z</time></trkpt><trkpt lat="42.24557784320284" lon="13.920422708748776"><ele>169.66666666666666</ele><time>2026-05-02T08:26:35.999Z</time></trkpt><trkpt lat="42.24554481087277" lon="13.920306270116559"><ele>169.83333333333331</ele><time>2026-05-02T08:26:36.999Z</time></trkpt><trkpt lat="42.24550885779752" lon="13.920228186287165"><ele>170.0</ele><time>2026-05-02T08:26:37.999Z</time></trkpt><trkpt lat="42.245514034945224" lon="13.920121079942097"><ele>171.16666666666666</ele><time>2026-05-02T08:26:38.999Z</time></trkpt><trkpt lat="42.245493141109044" lon="13.920012989160155"><ele>172.33333333333331</ele><time>2026-05-02T08:26:39.999Z</time></trkpt><trkpt lat="42.245490349897544" lon="13.919919857157568"><ele>173.5</ele><time>2026-05-02T08:26:40.999Z</time></trkpt><trkpt lat="42.245468902343816" lon="13.919837091033438"><ele>174.66666666666666</ele><time>2026-05-02T08:26:41.999Z</time></trkpt><trkpt lat="42.24544552818629" lon="13.919739966998517"><ele>175.83333333333334</ele><time>2026-05-02T08:26:42.999Z</time></trkpt><trkpt lat="42.24538837317274" lon="13.919664160090523"><ele>177.0</ele><time>2026-05-02T08:26:43.999Z</time></trkpt><trkpt lat="42.24533110123086" lon="13.919585314680296"><ele>177.0</ele><time>2026-05-02T08:26:44.999Z</time></trkpt><trkpt lat="42.24529349510783" lon="13.919477828290422"><ele>177.0</ele><time>2026-05-02T08:26:45.999Z</time></trkpt><trkpt lat="42.24529079835651" lon="13.919350115430385"><ele>177.0</ele><time>2026-05-02T08:26:46.999Z</time></trkpt><trkpt lat="42.245250714095626" lon="13.91925024860738"><ele>177.0</ele><time>2026-05-02T08:26:47.999Z</time></trkpt><trkpt lat="42.24524556957938" lon="13.91915752590595"><ele>177.0</ele><time>2026-05-02T08:26:48.999Z</time></trkpt><trkpt lat="42.24525170728982" lon="13.919057980579359"><ele>177.0</ele><time>2026-05-02T08:26:49.999Z</time></trkpt><trkpt lat="42.2452684086223" lon="13.91894806052381"><ele>176.66666666666666</ele><time>2026-05-02T08:26:50.999Z</time></trkpt><trkpt lat="42.245287965261994" lon="13.918816268891257"><ele>176.33333333333334</ele><time>2026-05-02T08:26:51.999Z</time></trkpt><trkpt lat="42.245300866043195" lon="13.91871259565945"><ele>176.0</ele><time>2026-05-02T08:26:52.999Z</time></trkpt><trkpt lat="42.245319984456685" lon="13.918596768635348"><ele>175.66666666666669</ele><time>2026-05-02T08:26:53.999Z</time></trkpt><trkpt lat="42.24534314060994" lon="13.918501220402277"><ele>175.33333333333334</ele><time>2026-05-02T08:26:54.999Z</time></trkpt><trkpt lat="42.24536776861537" lon="13.91839092735083"><ele>175.0</ele><time>2026-05-02T08:26:55.999Z</time></trkpt><trkpt lat="42.24539425349512" lon="13.918279270501392"><ele>174.85714285714286</ele><time>2026-05-02T08:26:56.999Z</time></trkpt><trkpt lat="42.24541579039063" lon="13.918168320026224"><ele>174.71428571428572</ele><time>2026-05-02T08:26:57.999Z</time></trkpt><trkpt lat="42.24543459125253" lon="13.918066286541013"><ele>174.57142857142856</ele><time>2026-05-02T08:26:58.999Z</time></trkpt><trkpt lat="42.24544766995082" lon="13.917972687634885"><ele>174.42857142857144</ele><time>2026-05-02T08:26:59.999Z</time></trkpt><trkpt lat="42.245453276376686" lon="13.917877759260378"><ele>174.28571428571428</ele><time>2026-05-02T08:27:00.999Z</time></trkpt><trkpt lat="42.24545004477357" lon="13.917780804585226"><ele>174.14285714285714</ele><time>2026-05-02T08:27:01.999Z</time></trkpt><trkpt lat="42.24544116983163" lon="13.917692967375066"><ele>174.0</ele><time>2026-05-02T08:27:02.999Z</time></trkpt><trkpt lat="42.24539354505175" lon="13.917538129020215"><ele>174.0</ele><time>2026-05-02T08:27:04.999Z</time></trkpt><trkpt lat="42.24535726861989" lon="13.917455458098734"><ele>174.0</ele><time>2026-05-02T08:27:05.999Z</time></trkpt><trkpt lat="42.245321857728584" lon="13.917358695396938"><ele>174.0</ele><time>2026-05-02T08:27:06.999Z</time></trkpt><trkpt lat="42.24525168822082" lon="13.917284833038188"><ele>174.0</ele><time>2026-05-02T08:27:07.999Z</time></trkpt><trkpt lat="42.245188290398225" lon="13.917203359770028"><ele>174.0</ele><time>2026-05-02T08:27:08.999Z</time></trkpt><trkpt lat="42.245126447451064" lon="13.917124390902986"><ele>174.0</ele><time>2026-05-02T08:27:09.999Z</time></trkpt><trkpt lat="42.245064462582796" lon="13.917040819000023"><ele>174.0</ele><time>2026-05-02T08:27:10.999Z</time></trkpt><trkpt lat="42.24502541876556" lon="13.916941096747497"><ele>174.0</ele><time>2026-05-02T08:27:11.999Z</time></trkpt><trkpt lat="42.244980456363" lon="13.91685470545433"><ele>174.0</ele><time>2026-05-02T08:27:12.999Z</time></trkpt><trkpt lat="42.24493734632673" lon="13.916761824201698"><ele>174.0</ele><time>2026-05-02T08:27:13.999Z</time></trkpt><trkpt lat="42.24490005418557" lon="13.916668453634466"><ele>174.0</ele><time>2026-05-02T08:27:14.999Z</time></trkpt><trkpt lat="42.244849457990256" lon="13.916578700115588"><ele>174.0</ele><time>2026-05-02T08:27:15.999Z</time></trkpt><trkpt lat="42.2448155621431" lon="13.916489714668966"><ele>174.83333333333334</ele><time>2026-05-02T08:27:16.999Z</time></trkpt><trkpt lat="42.24478813145502" lon="13.916407014088595"><ele>175.66666666666666</ele><time>2026-05-02T08:27:17.999Z</time></trkpt><trkpt lat="42.24473814734708" lon="13.916352071730332"><ele>176.5</ele><time>2026-05-02T08:27:18.999Z</time></trkpt><trkpt lat="42.24467653158575" lon="13.916331649939863"><ele>177.33333333333331</ele><time>2026-05-02T08:27:19.999Z</time></trkpt><trkpt lat="42.2446096410425" lon="13.916325188077533"><ele>178.16666666666666</ele><time>2026-05-02T08:27:20.999Z</time></trkpt><trkpt lat="42.24448370046565" lon="13.916300065670589"><ele>179.0</ele><time>2026-05-02T08:27:22.999Z</time></trkpt><trkpt lat="42.24438344048098" lon="13.916238910720265"><ele>179.0</ele><time>2026-05-02T08:27:24.999Z</time></trkpt><trkpt lat="42.24431135500461" lon="13.916121351616217"><ele>179.0</ele><time>2026-05-02T08:27:26.999Z</time></trkpt><trkpt lat="42.244246202509856" lon="13.915964301991282"><ele>179.0</ele><time>2026-05-02T08:27:28.999Z</time></trkpt><trkpt lat="42.24422882607002" lon="13.91585111993396"><ele>179.0</ele><time>2026-05-02T08:27:29.999Z</time></trkpt><trkpt lat="42.24422196722586" lon="13.915713047421562"><ele>179.0</ele><time>2026-05-02T08:27:30.999Z</time></trkpt><trkpt lat="42.24417504140317" lon="13.915585538430523"><ele>179.16666666666666</ele><time>2026-05-02T08:27:31.999Z</time></trkpt><trkpt lat="42.24412795053727" lon="13.91548185992194"><ele>179.33333333333331</ele><time>2026-05-02T08:27:32.999Z</time></trkpt><trkpt lat="42.244087006880896" lon="13.915390793405846"><ele>179.5</ele><time>2026-05-02T08:27:33.999Z</time></trkpt><trkpt lat="42.244048548895535" lon="13.915307196405598"><ele>179.66666666666666</ele><time>2026-05-02T08:27:34.999Z</time></trkpt><trkpt lat="42.24400928334797" lon="13.915233026389853"><ele>179.83333333333334</ele><time>2026-05-02T08:27:35.999Z</time></trkpt><trkpt lat="42.24395408792957" lon="13.91516909756696"><ele>180.0</ele><time>2026-05-02T08:27:36.999Z</time></trkpt><trkpt lat="42.24386499654501" lon="13.91512772707632"><ele>180.5</ele><time>2026-05-02T08:27:37.999Z</time></trkpt><trkpt lat="42.2437827375538" lon="13.91508390277255"><ele>181.0</ele><time>2026-05-02T08:27:38.999Z</time></trkpt><trkpt lat="42.24370815306633" lon="13.91503856918514"><ele>181.5</ele><time>2026-05-02T08:27:39.999Z</time></trkpt><trkpt lat="42.24363357899247" lon="13.91499734246623"><ele>182.0</ele><time>2026-05-02T08:27:40.999Z</time></trkpt><trkpt lat="42.243580165616166" lon="13.914917684558468"><ele>182.5</ele><time>2026-05-02T08:27:41.999Z</time></trkpt><trkpt lat="42.24354866297201" lon="13.91481026188164"><ele>183.0</ele><time>2026-05-02T08:27:42.999Z</time></trkpt><trkpt lat="42.24349351711221" lon="13.914721821025871"><ele>183.60000000000002</ele><time>2026-05-02T08:27:43.999Z</time></trkpt><trkpt lat="42.243411495615206" lon="13.914662987760588"><ele>184.20000000000002</ele><time>2026-05-02T08:27:44.999Z</time></trkpt><trkpt lat="42.24334901259914" lon="13.914563508285108"><ele>184.8</ele><time>2026-05-02T08:27:45.999Z</time></trkpt><trkpt lat="42.2432918182061" lon="13.914491171778714"><ele>185.4</ele><time>2026-05-02T08:27:47.999Z</time></trkpt><trkpt lat="42.243278031487804" lon="13.914344355241706"><ele>186.0</ele><time>2026-05-02T08:27:50.999Z</time></trkpt><trkpt lat="42.24326717654536" lon="13.914234970900662"><ele>187.0</ele><time>2026-05-02T08:27:51.999Z</time></trkpt><trkpt lat="42.243232783908745" lon="13.914109895728028"><ele>188.0</ele><time>2026-05-02T08:27:52.999Z</time></trkpt><trkpt lat="42.243222742359066" lon="13.913976891856096"><ele>189.0</ele><time>2026-05-02T08:27:53.999Z</time></trkpt><trkpt lat="42.243204732026065" lon="13.913831759082916"><ele>190.0</ele><time>2026-05-02T08:27:54.999Z</time></trkpt><trkpt lat="42.243194083811204" lon="13.91367251696957"><ele>191.0</ele><time>2026-05-02T08:27:55.999Z</time></trkpt><trkpt lat="42.24318132275909" lon="13.913539769983169"><ele>191.0</ele><time>2026-05-02T08:27:56.999Z</time></trkpt><trkpt lat="42.24315940782282" lon="13.913430505299129"><ele>191.0</ele><time>2026-05-02T08:27:57.999Z</time></trkpt><trkpt lat="42.24313483398498" lon="13.913337657005957"><ele>191.0</ele><time>2026-05-02T08:27:58.999Z</time></trkpt><trkpt lat="42.24308912073332" lon="13.913165084696885"><ele>191.0</ele><time>2026-05-02T08:28:00.999Z</time></trkpt><trkpt lat="42.24303702620178" lon="13.913055022821741"><ele>191.0</ele><time>2026-05-02T08:28:01.999Z</time></trkpt><trkpt lat="42.242973111594345" lon="13.91295705259636"><ele>191.0</ele><time>2026-05-02T08:28:02.999Z</time></trkpt><trkpt lat="42.24290174557451" lon="13.9128615760515"><ele>191.0</ele><time>2026-05-02T08:28:03.999Z</time></trkpt><trkpt lat="42.242850435258596" lon="13.912760233745272"><ele>191.0</ele><time>2026-05-02T08:28:04.999Z</time></trkpt><trkpt lat="42.24280836976208" lon="13.912672223458125"><ele>191.0</ele><time>2026-05-02T08:28:05.999Z</time></trkpt><trkpt lat="42.242774280191064" lon="13.912565968977532"><ele>191.0</ele><time>2026-05-02T08:28:06.999Z</time></trkpt><trkpt lat="42.24274800684354" lon="13.91246016763006"><ele>191.0</ele><time>2026-05-02T08:28:07.999Z</time></trkpt><trkpt lat="42.242709098268776" lon="13.912334555886472"><ele>191.20000000000002</ele><time>2026-05-02T08:28:08.999Z</time></trkpt><trkpt lat="42.24267435176618" lon="13.912246291472771"><ele>191.4</ele><time>2026-05-02T08:28:09.999Z</time></trkpt><trkpt lat="42.242627266228766" lon="13.912135177425254"><ele>191.6</ele><time>2026-05-02T08:28:11.999Z</time></trkpt><trkpt lat="42.24258835570026" lon="13.912059601213661"><ele>191.8</ele><time>2026-05-02T08:28:14.999Z</time></trkpt><trkpt lat="42.24240423458039" lon="13.912184399657225"><ele>192.0</ele><time>2026-05-02T08:28:17.999Z</time></trkpt><trkpt lat="42.24233714902938" lon="13.912264516265356"><ele>194.0</ele><time>2026-05-02T08:28:18.999Z</time></trkpt><trkpt lat="42.24226320238244" lon="13.912354459613503"><ele>196.0</ele><time>2026-05-02T08:28:19.999Z</time></trkpt><trkpt lat="42.24218829097916" lon="13.912442020456702"><ele>198.0</ele><time>2026-05-02T08:28:20.999Z</time></trkpt><trkpt lat="42.24212691896657" lon="13.912536060511316"><ele>200.0</ele><time>2026-05-02T08:28:21.999Z</time></trkpt><trkpt lat="42.24209314829148" lon="13.912640513775317"><ele>202.0</ele><time>2026-05-02T08:28:22.999Z</time></trkpt><trkpt lat="42.242069530589646" lon="13.912757830924384"><ele>202.39999999999998</ele><time>2026-05-02T08:28:23.999Z</time></trkpt><trkpt lat="42.24204579266687" lon="13.912885770988327"><ele>202.79999999999998</ele><time>2026-05-02T08:28:24.999Z</time></trkpt><trkpt lat="42.24202320536613" lon="13.913013579797031"><ele>203.2</ele><time>2026-05-02T08:28:25.999Z</time></trkpt><trkpt lat="42.24200026733324" lon="13.913143049719308"><ele>203.6</ele><time>2026-05-02T08:28:26.999Z</time></trkpt><trkpt lat="42.24197525659748" lon="13.913283973528358"><ele>204.0</ele><time>2026-05-02T08:28:27.999Z</time></trkpt><trkpt lat="42.24194933847488" lon="13.913430010072915"><ele>204.0</ele><time>2026-05-02T08:28:28.999Z</time></trkpt><trkpt lat="42.241925618420154" lon="13.913575438727912"><ele>204.0</ele><time>2026-05-02T08:28:29.999Z</time></trkpt><trkpt lat="42.241915980885906" lon="13.913721237563534"><ele>204.0</ele><time>2026-05-02T08:28:30.999Z</time></trkpt><trkpt lat="42.241898821960596" lon="13.913860253974764"><ele>204.0</ele><time>2026-05-02T08:28:31.999Z</time></trkpt><trkpt lat="42.24189246371486" lon="13.913996534567527"><ele>204.0</ele><time>2026-05-02T08:28:32.999Z</time></trkpt><trkpt lat="42.24189009633571" lon="13.914126700359418"><ele>203.6</ele><time>2026-05-02T08:28:33.999Z</time></trkpt><trkpt lat="42.241896299676135" lon="13.914243496412901"><ele>203.2</ele><time>2026-05-02T08:28:34.999Z</time></trkpt><trkpt lat="42.24190147372179" lon="13.914345012880865"><ele>202.79999999999998</ele><time>2026-05-02T08:28:35.999Z</time></trkpt><trkpt lat="42.241890145568334" lon="13.914433582971704"><ele>202.39999999999998</ele><time>2026-05-02T08:28:36.999Z</time></trkpt><trkpt lat="42.241848361307795" lon="13.914582300183463"><ele>202.0</ele><time>2026-05-02T08:28:38.999Z</time></trkpt><trkpt lat="42.2417763666834" lon="13.914714210563641"><ele>202.0</ele><time>2026-05-02T08:28:40.999Z</time></trkpt><trkpt lat="42.24170760164894" lon="13.914812655635302"><ele>202.0</ele><time>2026-05-02T08:28:42.999Z</time></trkpt><trkpt lat="42.24164519753687" lon="13.914870737395225"><ele>202.0</ele><time>2026-05-02T08:28:44.999Z</time></trkpt><trkpt lat="42.24156474883832" lon="13.914845652718888"><ele>202.0</ele><time>2026-05-02T08:28:46.999Z</time></trkpt><trkpt lat="42.24148007844743" lon="13.914702670221763"><ele>202.0</ele><time>2026-05-02T08:28:48.999Z</time></trkpt><trkpt lat="42.24144946667671" lon="13.914599274933106"><ele>203.99999999999997</ele><time>2026-05-02T08:28:49.999Z</time></trkpt><trkpt lat="42.24138477272669" lon="13.914526061230443"><ele>206.0</ele><time>2026-05-02T08:28:50.999Z</time></trkpt><trkpt lat="42.24133135651339" lon="13.914452689080008"><ele>208.0</ele><time>2026-05-02T08:28:51.999Z</time></trkpt><trkpt lat="42.2412831375992" lon="13.914395348971668"><ele>210.0</ele><time>2026-05-02T08:28:52.999Z</time></trkpt><trkpt lat="42.24122960895613" lon="13.914339096066744"><ele>211.99999999999997</ele><time>2026-05-02T08:28:53.999Z</time></trkpt><trkpt lat="42.24120579894538" lon="13.91424969318058"><ele>214.0</ele><time>2026-05-02T08:28:54.999Z</time></trkpt><trkpt lat="42.241166000446924" lon="13.914144194307388"><ele>214.79999999999998</ele><time>2026-05-02T08:28:55.999Z</time></trkpt><trkpt lat="42.24110758960367" lon="13.914023838962937"><ele>215.59999999999997</ele><time>2026-05-02T08:28:56.999Z</time></trkpt><trkpt lat="42.24107587900166" lon="13.913870734886318"><ele>216.4</ele><time>2026-05-02T08:28:57.999Z</time></trkpt><trkpt lat="42.241043699211886" lon="13.913724156892423"><ele>217.2</ele><time>2026-05-02T08:28:58.999Z</time></trkpt><trkpt lat="42.24100887580209" lon="13.91358679182614"><ele>218.0</ele><time>2026-05-02T08:28:59.999Z</time></trkpt><trkpt lat="42.24097181763516" lon="13.913460117847558"><ele>219.8</ele><time>2026-05-02T08:29:00.999Z</time></trkpt><trkpt lat="42.24093041955817" lon="13.913347453275083"><ele>221.60000000000002</ele><time>2026-05-02T08:29:01.999Z</time></trkpt><trkpt lat="42.2408925683436" lon="13.913224482477013"><ele>223.39999999999998</ele><time>2026-05-02T08:29:02.999Z</time></trkpt><trkpt lat="42.24082932919741" lon="13.913109069106932"><ele>225.2</ele><time>2026-05-02T08:29:03.999Z</time></trkpt><trkpt lat="42.24075299152836" lon="13.91298375348956"><ele>227.0</ele><time>2026-05-02T08:29:04.999Z</time></trkpt><trkpt lat="42.240675511444614" lon="13.912862935359579"><ele>226.8</ele><time>2026-05-02T08:29:05.999Z</time></trkpt><trkpt lat="42.24058727604054" lon="13.912769248388653"><ele>226.6</ele><time>2026-05-02T08:29:06.999Z</time></trkpt><trkpt lat="42.24052763084253" lon="13.912656778926063"><ele>226.40000000000003</ele><time>2026-05-02T08:29:07.999Z</time></trkpt><trkpt lat="42.2404572904682" lon="13.912566831157243"><ele>226.20000000000002</ele><time>2026-05-02T08:29:08.999Z</time></trkpt><trkpt lat="42.240384992592425" lon="13.912475189550024"><ele>226.0</ele><time>2026-05-02T08:29:09.999Z</time></trkpt><trkpt lat="42.240304722071386" lon="13.912391476899167"><ele>229.0</ele><time>2026-05-02T08:29:10.999Z</time></trkpt><trkpt lat="42.24021630749759" lon="13.912316335150585"><ele>232.0</ele><time>2026-05-02T08:29:11.999Z</time></trkpt><trkpt lat="42.240131490980374" lon="13.912194880303728"><ele>235.0</ele><time>2026-05-02T08:29:12.999Z</time></trkpt><trkpt lat="42.24004648391727" lon="13.912070095966744"><ele>238.0</ele><time>2026-05-02T08:29:13.999Z</time></trkpt><trkpt lat="42.23997753990686" lon="13.911972872216875"><ele>237.99999999999997</ele><time>2026-05-02T08:29:14.999Z</time></trkpt><trkpt lat="42.23993524601884" lon="13.911884623280894"><ele>238.0</ele><time>2026-05-02T08:29:15.999Z</time></trkpt><trkpt lat="42.23986295181628" lon="13.91181599690552"><ele>238.0</ele><time>2026-05-02T08:29:17.999Z</time></trkpt><trkpt lat="42.23979360996252" lon="13.91173585657732"><ele>238.0</ele><time>2026-05-02T08:29:20.999Z</time></trkpt><trkpt lat="42.23970395542132" lon="13.911689233979095"><ele>237.99999999999997</ele><time>2026-05-02T08:29:22.999Z</time></trkpt><trkpt lat="42.239640648751056" lon="13.911608987857823"><ele>238.0</ele><time>2026-05-02T08:29:23.999Z</time></trkpt><trkpt lat="42.2395879898449" lon="13.911556172070016"><ele>243.5</ele><time>2026-05-02T08:29:24.999Z</time></trkpt><trkpt lat="42.23961471365532" lon="13.911043876997853"><ele>249.0</ele><time>2026-05-02T08:29:26.999Z</time></trkpt><trkpt lat="42.239566446860515" lon="13.91093130893388"><ele>249.16666666666666</ele><time>2026-05-02T08:29:27.999Z</time></trkpt><trkpt lat="42.23952459917651" lon="13.910832968738813"><ele>249.33333333333331</ele><time>2026-05-02T08:29:28.999Z</time></trkpt><trkpt lat="42.23946767732792" lon="13.910699674183904"><ele>249.5</ele><time>2026-05-02T08:29:30.999Z</time></trkpt><trkpt lat="42.239415209368644" lon="13.910640747244521"><ele>249.66666666666666</ele><time>2026-05-02T08:29:31.999Z</time></trkpt><trkpt lat="42.23934614406414" lon="13.910588128235991"><ele>249.83333333333331</ele><time>2026-05-02T08:29:32.999Z</time></trkpt><trkpt lat="42.23928492921042" lon="13.91053851646735"><ele>250.0</ele><time>2026-05-02T08:29:33.999Z</time></trkpt><trkpt lat="42.23923993164885" lon="13.910476874519594"><ele>249.99999999999997</ele><time>2026-05-02T08:29:34.999Z</time></trkpt><trkpt lat="42.23919689809774" lon="13.91039428852879"><ele>250.0</ele><time>2026-05-02T08:29:35.999Z</time></trkpt><trkpt lat="42.23914401326452" lon="13.910295912476725"><ele>250.0</ele><time>2026-05-02T08:29:36.999Z</time></trkpt><trkpt lat="42.2390783614842" lon="13.910200799466677"><ele>250.0</ele><time>2026-05-02T08:29:37.999Z</time></trkpt><trkpt lat="42.239022601176615" lon="13.910102218231616"><ele>249.99999999999997</ele><time>2026-05-02T08:29:38.999Z</time></trkpt><trkpt lat="42.238965474176155" lon="13.910024454882254"><ele>250.0</ele><time>2026-05-02T08:29:39.999Z</time></trkpt><trkpt lat="42.23890620258712" lon="13.909952455753944"><ele>252.49999999999997</ele><time>2026-05-02T08:29:40.999Z</time></trkpt><trkpt lat="42.23885039051346" lon="13.909878124774522"><ele>255.0</ele><time>2026-05-02T08:29:41.999Z</time></trkpt><trkpt lat="42.23879617916488" lon="13.909818703776182"><ele>257.5</ele><time>2026-05-02T08:29:42.999Z</time></trkpt><trkpt lat="42.23873693298658" lon="13.909770580676081"><ele>260.0</ele><time>2026-05-02T08:29:43.999Z</time></trkpt><trkpt lat="42.23866596188397" lon="13.90973325044809"><ele>262.5</ele><time>2026-05-02T08:29:44.999Z</time></trkpt><trkpt lat="42.23858755094344" lon="13.909690038647547"><ele>265.0</ele><time>2026-05-02T08:29:45.999Z</time></trkpt><trkpt lat="42.23851535496224" lon="13.90963509271844"><ele>265.0</ele><time>2026-05-02T08:29:46.999Z</time></trkpt><trkpt lat="42.2384547166383" lon="13.90957861347633"><ele>265.0</ele><time>2026-05-02T08:29:47.999Z</time></trkpt><trkpt lat="42.238396798268724" lon="13.909514617723884"><ele>265.0</ele><time>2026-05-02T08:29:48.998Z</time></trkpt><trkpt lat="42.23833398189385" lon="13.909440913881152"><ele>265.0</ele><time>2026-05-02T08:29:49.998Z</time></trkpt><trkpt lat="42.238265386352325" lon="13.909345083642746"><ele>265.0</ele><time>2026-05-02T08:29:50.998Z</time></trkpt><trkpt lat="42.238202153789196" lon="13.909255098824138"><ele>265.0</ele><time>2026-05-02T08:29:51.998Z</time></trkpt><trkpt lat="42.238140042722684" lon="13.90919924886794"><ele>266.57142857142856</ele><time>2026-05-02T08:29:52.998Z</time></trkpt><trkpt lat="42.23807175894417" lon="13.909151644841286"><ele>268.1428571428571</ele><time>2026-05-02T08:29:53.998Z</time></trkpt><trkpt lat="42.23800682859722" lon="13.909129461558773"><ele>269.7142857142857</ele><time>2026-05-02T08:29:54.999Z</time></trkpt><trkpt lat="42.23793839937611" lon="13.909128488449706"><ele>271.2857142857143</ele><time>2026-05-02T08:29:55.999Z</time></trkpt><trkpt lat="42.23787417915968" lon="13.909134422438193"><ele>272.8571428571429</ele><time>2026-05-02T08:29:56.999Z</time></trkpt><trkpt lat="42.23780646713169" lon="13.909147336968465"><ele>274.42857142857144</ele><time>2026-05-02T08:29:57.999Z</time></trkpt><trkpt lat="42.237744639269955" lon="13.909170433613525"><ele>276.0</ele><time>2026-05-02T08:29:58.999Z</time></trkpt><trkpt lat="42.23767700064451" lon="13.90914691111595"><ele>276.0</ele><time>2026-05-02T08:30:01.999Z</time></trkpt><trkpt lat="42.237635842577134" lon="13.909059243891344"><ele>276.0</ele><time>2026-05-02T08:30:03.999Z</time></trkpt><trkpt lat="42.237613114462846" lon="13.908953355408064"><ele>276.0</ele><time>2026-05-02T08:30:04.999Z</time></trkpt><trkpt lat="42.23757361418189" lon="13.908826146465536"><ele>276.0</ele><time>2026-05-02T08:30:05.999Z</time></trkpt><trkpt lat="42.23751633275502" lon="13.908690170301266"><ele>276.0</ele><time>2026-05-02T08:30:06.999Z</time></trkpt><trkpt lat="42.237461624541965" lon="13.908548744420326"><ele>276.0</ele><time>2026-05-02T08:30:07.999Z</time></trkpt><trkpt lat="42.23742115662663" lon="13.908413674068756"><ele>276.0</ele><time>2026-05-02T08:30:08.999Z</time></trkpt><trkpt lat="42.23737942291962" lon="13.90830471600736"><ele>276.0</ele><time>2026-05-02T08:30:09.999Z</time></trkpt><trkpt lat="42.23732985148026" lon="13.908203118395422"><ele>276.0</ele><time>2026-05-02T08:30:10.999Z</time></trkpt><trkpt lat="42.237272897799535" lon="13.908072723228887"><ele>276.0</ele><time>2026-05-02T08:30:11.999Z</time></trkpt><trkpt lat="42.237216283739954" lon="13.90794904133363"><ele>276.6</ele><time>2026-05-02T08:30:12.999Z</time></trkpt><trkpt lat="42.237150654365806" lon="13.907816798673878"><ele>277.20000000000005</ele><time>2026-05-02T08:30:13.999Z</time></trkpt><trkpt lat="42.237089376100016" lon="13.907676905614043"><ele>277.79999999999995</ele><time>2026-05-02T08:30:14.999Z</time></trkpt><trkpt lat="42.23703153367811" lon="13.907554667776564"><ele>278.4</ele><time>2026-05-02T08:30:15.999Z</time></trkpt><trkpt lat="42.23698463098862" lon="13.907465588668636"><ele>279.0</ele><time>2026-05-02T08:30:16.999Z</time></trkpt><trkpt lat="42.236934706610484" lon="13.907393698992033"><ele>279.0</ele><time>2026-05-02T08:30:17.999Z</time></trkpt><trkpt lat="42.2368462915151" lon="13.907258949517697"><ele>279.0</ele><time>2026-05-02T08:30:19.999Z</time></trkpt><trkpt lat="42.23681722875841" lon="13.907161088233769"><ele>279.0</ele><time>2026-05-02T08:30:20.999Z</time></trkpt><trkpt lat="42.2367904566357" lon="13.907051099527724"><ele>279.0</ele><time>2026-05-02T08:30:21.999Z</time></trkpt><trkpt lat="42.23676589775684" lon="13.90697231735154"><ele>279.0</ele><time>2026-05-02T08:30:22.999Z</time></trkpt><trkpt lat="42.236701017087285" lon="13.906843756037956"><ele>278.4</ele><time>2026-05-02T08:30:24.999Z</time></trkpt><trkpt lat="42.23662351796718" lon="13.906704267499725"><ele>277.79999999999995</ele><time>2026-05-02T08:30:26.999Z</time></trkpt><trkpt lat="42.23656501962704" lon="13.906631204112182"><ele>277.20000000000005</ele><time>2026-05-02T08:30:27.999Z</time></trkpt><trkpt lat="42.23650574034996" lon="13.90655267567585"><ele>276.6</ele><time>2026-05-02T08:30:28.999Z</time></trkpt><trkpt lat="42.23644545150487" lon="13.906471796867086"><ele>276.0</ele><time>2026-05-02T08:30:29.999Z</time></trkpt><trkpt lat="42.23638882588282" lon="13.906393235776104"><ele>276.0</ele><time>2026-05-02T08:30:30.999Z</time></trkpt><trkpt lat="42.2363428296897" lon="13.906330602112021"><ele>276.0</ele><time>2026-05-02T08:30:31.999Z</time></trkpt><trkpt lat="42.23628785013257" lon="13.906254796621498"><ele>276.0</ele><time>2026-05-02T08:30:33.999Z</time></trkpt><trkpt lat="42.23626153758208" lon="13.906168969105925"><ele>276.0</ele><time>2026-05-02T08:30:34.999Z</time></trkpt><trkpt lat="42.23624868253401" lon="13.906030328923618"><ele>276.0</ele><time>2026-05-02T08:30:35.999Z</time></trkpt><trkpt lat="42.23620682790866" lon="13.905862692439037"><ele>276.0</ele><time>2026-05-02T08:30:36.999Z</time></trkpt><trkpt lat="42.23615010667124" lon="13.905704310224984"><ele>279.0</ele><time>2026-05-02T08:30:37.999Z</time></trkpt><trkpt lat="42.236110246951334" lon="13.90554251667323"><ele>282.0</ele><time>2026-05-02T08:30:38.999Z</time></trkpt><trkpt lat="42.23605421023753" lon="13.905383915757916"><ele>285.0</ele><time>2026-05-02T08:30:39.999Z</time></trkpt><trkpt lat="42.235990980504305" lon="13.905227762573304"><ele>288.0</ele><time>2026-05-02T08:30:40.999Z</time></trkpt><trkpt lat="42.23592382371477" lon="13.905075709755991"><ele>289.5</ele><time>2026-05-02T08:30:41.999Z</time></trkpt><trkpt lat="42.23585897076378" lon="13.904921470571669"><ele>291.0</ele><time>2026-05-02T08:30:42.999Z</time></trkpt><trkpt lat="42.235791842888325" lon="13.904768351784847"><ele>292.5</ele><time>2026-05-02T08:30:43.999Z</time></trkpt><trkpt lat="42.23572591433791" lon="13.90461567829395"><ele>294.0</ele><time>2026-05-02T08:30:44.999Z</time></trkpt><trkpt lat="42.235660111080044" lon="13.904464021383482"><ele>293.75</ele><time>2026-05-02T08:30:45.999Z</time></trkpt><trkpt lat="42.23559129649716" lon="13.904316093468754"><ele>293.5</ele><time>2026-05-02T08:30:46.999Z</time></trkpt><trkpt lat="42.23551996388612" lon="13.904172773839942"><ele>293.25</ele><time>2026-05-02T08:30:47.999Z</time></trkpt><trkpt lat="42.23545488206015" lon="13.904032511026573"><ele>293.0</ele><time>2026-05-02T08:30:48.999Z</time></trkpt><trkpt lat="42.23539993912879" lon="13.903885874652763"><ele>293.0</ele><time>2026-05-02T08:30:49.999Z</time></trkpt><trkpt lat="42.23536571014141" lon="13.903721366292435"><ele>293.0</ele><time>2026-05-02T08:30:50.999Z</time></trkpt><trkpt lat="42.235341458980756" lon="13.903527981853676"><ele>293.0</ele><time>2026-05-02T08:30:51.999Z</time></trkpt><trkpt lat="42.235313799539576" lon="13.90332404730987"><ele>293.0</ele><time>2026-05-02T08:30:52.999Z</time></trkpt><trkpt lat="42.23528616978274" lon="13.903133922321102"><ele>293.4</ele><time>2026-05-02T08:30:53.999Z</time></trkpt><trkpt lat="42.23526255293868" lon="13.902972774464876"><ele>293.8</ele><time>2026-05-02T08:30:54.999Z</time></trkpt><trkpt lat="42.23524807617061" lon="13.902855242015471"><ele>294.2</ele><time>2026-05-02T08:30:55.999Z</time></trkpt><trkpt lat="42.23528278247042" lon="13.902728515598257"><ele>294.6</ele><time>2026-05-02T08:30:57.999Z</time></trkpt><trkpt lat="42.23538441567825" lon="13.902762439368225"><ele>295.0</ele><time>2026-05-02T08:30:59.999Z</time></trkpt><trkpt lat="42.23539268600618" lon="13.902881191809866"><ele>295.0</ele><time>2026-05-02T08:31:00.999Z</time></trkpt><trkpt lat="42.235430688616155" lon="13.903008569196178"><ele>295.0</ele><time>2026-05-02T08:31:01.999Z</time></trkpt><trkpt lat="42.23545421871574" lon="13.903171120151269"><ele>295.0</ele><time>2026-05-02T08:31:02.999Z</time></trkpt><trkpt lat="42.235493322600064" lon="13.903332967926529"><ele>295.0</ele><time>2026-05-02T08:31:03.999Z</time></trkpt><trkpt lat="42.23553752986697" lon="13.903482905225578"><ele>294.66666666666663</ele><time>2026-05-02T08:31:04.999Z</time></trkpt><trkpt lat="42.235587657201705" lon="13.903628454819254"><ele>294.3333333333333</ele><time>2026-05-02T08:31:05.999Z</time></trkpt><trkpt lat="42.23563670154102" lon="13.903748698071174"><ele>294.0</ele><time>2026-05-02T08:31:06.999Z</time></trkpt><trkpt lat="42.23568644329259" lon="13.903841252614942"><ele>293.6666666666667</ele><time>2026-05-02T08:31:07.999Z</time></trkpt><trkpt lat="42.23574685088153" lon="13.903893772260856"><ele>293.33333333333337</ele><time>2026-05-02T08:31:08.999Z</time></trkpt><trkpt lat="42.235811867699994" lon="13.903902265732073"><ele>293.0</ele><time>2026-05-02T08:31:09.999Z</time></trkpt><trkpt lat="42.235870737470655" lon="13.90386165209145"><ele>294.5</ele><time>2026-05-02T08:31:10.999Z</time></trkpt><trkpt lat="42.23590887240811" lon="13.903777797668143"><ele>296.0</ele><time>2026-05-02T08:31:11.999Z</time></trkpt><trkpt lat="42.235912070091324" lon="13.90367161614352"><ele>297.5</ele><time>2026-05-02T08:31:12.999Z</time></trkpt><trkpt lat="42.23590031596495" lon="13.903563441200841"><ele>299.0</ele><time>2026-05-02T08:31:13.999Z</time></trkpt><trkpt lat="42.23589287954001" lon="13.903454108721522"><ele>300.5</ele><time>2026-05-02T08:31:14.999Z</time></trkpt><trkpt lat="42.23588724369909" lon="13.9033375719597"><ele>302.0</ele><time>2026-05-02T08:31:15.999Z</time></trkpt><trkpt lat="42.235879543450054" lon="13.903213523465798"><ele>303.2</ele><time>2026-05-02T08:31:16.999Z</time></trkpt><trkpt lat="42.235870996993306" lon="13.903083881127332"><ele>304.4</ele><time>2026-05-02T08:31:17.999Z</time></trkpt><trkpt lat="42.235861074284536" lon="13.902952424378807"><ele>305.6</ele><time>2026-05-02T08:31:18.999Z</time></trkpt><trkpt lat="42.235851952341015" lon="13.902818327188701"><ele>306.8</ele><time>2026-05-02T08:31:19.999Z</time></trkpt><trkpt lat="42.23584582438069" lon="13.902688027967098"><ele>308.0</ele><time>2026-05-02T08:31:20.999Z</time></trkpt><trkpt lat="42.235838293704" lon="13.902559343739998"><ele>309.6</ele><time>2026-05-02T08:31:21.999Z</time></trkpt><trkpt lat="42.23582874504392" lon="13.902432000766332"><ele>311.20000000000005</ele><time>2026-05-02T08:31:22.999Z</time></trkpt><trkpt lat="42.23582039857581" lon="13.902307842469705"><ele>312.8</ele><time>2026-05-02T08:31:23.999Z</time></trkpt><trkpt lat="42.235814131606595" lon="13.902184431909248"><ele>314.40000000000003</ele><time>2026-05-02T08:31:24.999Z</time></trkpt><trkpt lat="42.235807555229144" lon="13.90206744563221"><ele>316.0</ele><time>2026-05-02T08:31:25.999Z</time></trkpt><trkpt lat="42.235798052445105" lon="13.901944703719492"><ele>316.0</ele><time>2026-05-02T08:31:26.999Z</time></trkpt><trkpt lat="42.235784097146485" lon="13.90182151501558"><ele>316.0</ele><time>2026-05-02T08:31:27.999Z</time></trkpt><trkpt lat="42.23576767419104" lon="13.901700212116939"><ele>316.0</ele><time>2026-05-02T08:31:28.999Z</time></trkpt><trkpt lat="42.23575099798594" lon="13.901573379796108"><ele>316.0</ele><time>2026-05-02T08:31:29.999Z</time></trkpt><trkpt lat="42.2357564069158" lon="13.901439052921386"><ele>316.0</ele><time>2026-05-02T08:31:30.999Z</time></trkpt><trkpt lat="42.23574765125485" lon="13.901312422770024"><ele>317.20000000000005</ele><time>2026-05-02T08:31:31.999Z</time></trkpt><trkpt lat="42.23573885333519" lon="13.901185180788234"><ele>318.40000000000003</ele><time>2026-05-02T08:31:32.999Z</time></trkpt><trkpt lat="42.23571680531835" lon="13.90106606130349"><ele>319.6</ele><time>2026-05-02T08:31:33.999Z</time></trkpt><trkpt lat="42.23571294069859" lon="13.900936850860752"><ele>320.8</ele><time>2026-05-02T08:31:34.999Z</time></trkpt><trkpt lat="42.23570440397233" lon="13.900811944706062"><ele>322.0</ele><time>2026-05-02T08:31:35.999Z</time></trkpt><trkpt lat="42.235699300153236" lon="13.90068647717294"><ele>323.40000000000003</ele><time>2026-05-02T08:31:36.999Z</time></trkpt><trkpt lat="42.23569444774301" lon="13.90056070196188"><ele>324.8</ele><time>2026-05-02T08:31:37.999Z</time></trkpt><trkpt lat="42.23568570424315" lon="13.90043627696462"><ele>326.2</ele><time>2026-05-02T08:31:38.999Z</time></trkpt><trkpt lat="42.235679355690614" lon="13.900311403711267"><ele>327.6</ele><time>2026-05-02T08:31:39.999Z</time></trkpt><trkpt lat="42.235674916695075" lon="13.900186721789485"><ele>329.0</ele><time>2026-05-02T08:31:40.999Z</time></trkpt><trkpt lat="42.23567025679045" lon="13.9000645871263"><ele>329.5</ele><time>2026-05-02T08:31:41.999Z</time></trkpt><trkpt lat="42.235669609347944" lon="13.899942185864843"><ele>330.0</ele><time>2026-05-02T08:31:42.999Z</time></trkpt><trkpt lat="42.23568416529048" lon="13.899825752570727"><ele>330.5</ele><time>2026-05-02T08:31:43.999Z</time></trkpt><trkpt lat="42.235698334434076" lon="13.89970430559594"><ele>331.0</ele><time>2026-05-02T08:31:44.999Z</time></trkpt><trkpt lat="42.235732723031674" lon="13.899591911752355"><ele>331.5</ele><time>2026-05-02T08:31:45.999Z</time></trkpt><trkpt lat="42.235748685342806" lon="13.899474112694785"><ele>332.0</ele><time>2026-05-02T08:31:46.999Z</time></trkpt><trkpt lat="42.23574330009618" lon="13.899354455406256"><ele>333.33333333333337</ele><time>2026-05-02T08:31:47.999Z</time></trkpt><trkpt lat="42.23574609954044" lon="13.89924406032601"><ele>334.6666666666667</ele><time>2026-05-02T08:31:48.999Z</time></trkpt><trkpt lat="42.2357407873267" lon="13.899146811160234"><ele>336.0</ele><time>2026-05-02T08:31:49.999Z</time></trkpt><trkpt lat="42.23574689644131" lon="13.89903849503409"><ele>337.3333333333333</ele><time>2026-05-02T08:31:56.999Z</time></trkpt><trkpt lat="42.23573415927079" lon="13.89892022800396"><ele>338.66666666666663</ele><time>2026-05-02T08:31:58.999Z</time></trkpt><trkpt lat="42.235745010101446" lon="13.898784115028155"><ele>340.0</ele><time>2026-05-02T08:32:00.999Z</time></trkpt><trkpt lat="42.235742408383835" lon="13.898617520905383"><ele>340.0</ele><time>2026-05-02T08:32:02.999Z</time></trkpt><trkpt lat="42.235747410415485" lon="13.898490238922125"><ele>340.0</ele><time>2026-05-02T08:32:04.999Z</time></trkpt><trkpt lat="42.23573556571488" lon="13.898323101492347"><ele>340.0</ele><time>2026-05-02T08:32:06.999Z</time></trkpt><trkpt lat="42.235720048343644" lon="13.898214580250075"><ele>340.0</ele><time>2026-05-02T08:32:07.999Z</time></trkpt><trkpt lat="42.23569417425234" lon="13.898109462372329"><ele>340.0</ele><time>2026-05-02T08:32:08.999Z</time></trkpt><trkpt lat="42.23567066503487" lon="13.897999817542754"><ele>341.6</ele><time>2026-05-02T08:32:09.999Z</time></trkpt><trkpt lat="42.23565484131033" lon="13.89788744662051"><ele>343.2</ele><time>2026-05-02T08:32:10.999Z</time></trkpt><trkpt lat="42.23565366258066" lon="13.897759544934324"><ele>344.79999999999995</ele><time>2026-05-02T08:32:11.999Z</time></trkpt><trkpt lat="42.23566326660443" lon="13.897621074696586"><ele>346.4</ele><time>2026-05-02T08:32:12.999Z</time></trkpt><trkpt lat="42.23568682572744" lon="13.897485188097521"><ele>348.0</ele><time>2026-05-02T08:32:13.999Z</time></trkpt><trkpt lat="42.23570944433608" lon="13.897352808076029"><ele>349.0</ele><time>2026-05-02T08:32:14.999Z</time></trkpt><trkpt lat="42.235731242674674" lon="13.897222130341458"><ele>350.0</ele><time>2026-05-02T08:32:15.999Z</time></trkpt><trkpt lat="42.23575150665649" lon="13.897093554554328"><ele>351.0</ele><time>2026-05-02T08:32:16.999Z</time></trkpt><trkpt lat="42.235776614035466" lon="13.896969046408628"><ele>352.0</ele><time>2026-05-02T08:32:17.999Z</time></trkpt><trkpt lat="42.23580820671984" lon="13.896846716277194"><ele>353.0</ele><time>2026-05-02T08:32:18.999Z</time></trkpt><trkpt lat="42.23583986027962" lon="13.896722577292227"><ele>353.0</ele><time>2026-05-02T08:32:19.999Z</time></trkpt><trkpt lat="42.235870259981425" lon="13.896599750308656"><ele>353.0</ele><time>2026-05-02T08:32:20.999Z</time></trkpt><trkpt lat="42.2359122001221" lon="13.896462469049688"><ele>353.0</ele><time>2026-05-02T08:32:21.999Z</time></trkpt><trkpt lat="42.23593335841106" lon="13.896304934553907"><ele>353.0</ele><time>2026-05-02T08:32:22.999Z</time></trkpt><trkpt lat="42.235937174662446" lon="13.896138868225819"><ele>353.0</ele><time>2026-05-02T08:32:23.999Z</time></trkpt><trkpt lat="42.23595350065079" lon="13.895972369663408"><ele>352.2</ele><time>2026-05-02T08:32:24.999Z</time></trkpt><trkpt lat="42.23597003552672" lon="13.895809603084459"><ele>351.4</ele><time>2026-05-02T08:32:25.999Z</time></trkpt><trkpt lat="42.23599331354541" lon="13.895656485649369"><ele>350.59999999999997</ele><time>2026-05-02T08:32:26.999Z</time></trkpt><trkpt lat="42.236018388485164" lon="13.895519643624723"><ele>349.79999999999995</ele><time>2026-05-02T08:32:27.999Z</time></trkpt><trkpt lat="42.23603772608739" lon="13.895385696369026"><ele>349.0</ele><time>2026-05-02T08:32:28.999Z</time></trkpt><trkpt lat="42.23605818892298" lon="13.895247232298459"><ele>349.0</ele><time>2026-05-02T08:32:29.999Z</time></trkpt><trkpt lat="42.23607336869201" lon="13.895098587645343"><ele>349.0</ele><time>2026-05-02T08:32:30.999Z</time></trkpt><trkpt lat="42.23609017594019" lon="13.894952008220567"><ele>349.0</ele><time>2026-05-02T08:32:31.999Z</time></trkpt><trkpt lat="42.236100620480926" lon="13.894809176543367"><ele>349.0</ele><time>2026-05-02T08:32:32.999Z</time></trkpt><trkpt lat="42.23610419447229" lon="13.894672408233951"><ele>349.0</ele><time>2026-05-02T08:32:33.999Z</time></trkpt><trkpt lat="42.23611519769801" lon="13.894544004563276"><ele>348.6</ele><time>2026-05-02T08:32:34.999Z</time></trkpt><trkpt lat="42.23613695024204" lon="13.894429240134917"><ele>348.2</ele><time>2026-05-02T08:32:35.999Z</time></trkpt><trkpt lat="42.23617275010507" lon="13.894318101170727"><ele>347.8</ele><time>2026-05-02T08:32:36.999Z</time></trkpt><trkpt lat="42.23617878354356" lon="13.894194998098788"><ele>347.40000000000003</ele><time>2026-05-02T08:32:37.999Z</time></trkpt><trkpt lat="42.23625563627666" lon="13.894087907640703"><ele>347.0</ele><time>2026-05-02T08:32:38.999Z</time></trkpt><trkpt lat="42.23626916551585" lon="13.893960645974191"><ele>346.8</ele><time>2026-05-02T08:32:39.999Z</time></trkpt><trkpt lat="42.23626744911888" lon="13.893830545877389"><ele>346.6</ele><time>2026-05-02T08:32:40.999Z</time></trkpt><trkpt lat="42.236260841913484" lon="13.893701358852557"><ele>346.40000000000003</ele><time>2026-05-02T08:32:41.999Z</time></trkpt><trkpt lat="42.23625845207832" lon="13.89357105277117"><ele>346.20000000000005</ele><time>2026-05-02T08:32:42.999Z</time></trkpt><trkpt lat="42.236255038890285" lon="13.893438402224668"><ele>346.0</ele><time>2026-05-02T08:32:43.999Z</time></trkpt><trkpt lat="42.2362518368451" lon="13.893301518970878"><ele>346.0</ele><time>2026-05-02T08:32:44.999Z</time></trkpt><trkpt lat="42.23625154371918" lon="13.89316267788785"><ele>346.0</ele><time>2026-05-02T08:32:45.999Z</time></trkpt><trkpt lat="42.23625152541445" lon="13.893022143965208"><ele>346.0</ele><time>2026-05-02T08:32:46.999Z</time></trkpt><trkpt lat="42.23624805588257" lon="13.89288167736665"><ele>346.0</ele><time>2026-05-02T08:32:47.999Z</time></trkpt><trkpt lat="42.236242718254076" lon="13.892739116457598"><ele>346.0</ele><time>2026-05-02T08:32:48.999Z</time></trkpt><trkpt lat="42.23623824792597" lon="13.892592486246995"><ele>347.20000000000005</ele><time>2026-05-02T08:32:49.999Z</time></trkpt><trkpt lat="42.236232328377575" lon="13.89244520515197"><ele>348.40000000000003</ele><time>2026-05-02T08:32:50.999Z</time></trkpt><trkpt lat="42.2362167612262" lon="13.892296868470732"><ele>349.6</ele><time>2026-05-02T08:32:51.999Z</time></trkpt><trkpt lat="42.236189202846354" lon="13.892150874017375"><ele>350.8</ele><time>2026-05-02T08:32:52.999Z</time></trkpt><trkpt lat="42.23615770746059" lon="13.892004561503462"><ele>352.0</ele><time>2026-05-02T08:32:53.999Z</time></trkpt><trkpt lat="42.23612281789412" lon="13.891857441245328"><ele>354.0</ele><time>2026-05-02T08:32:54.999Z</time></trkpt><trkpt lat="42.23607752948827" lon="13.891715329737332"><ele>356.0</ele><time>2026-05-02T08:32:55.999Z</time></trkpt><trkpt lat="42.23602429680122" lon="13.891577162034295"><ele>358.0</ele><time>2026-05-02T08:32:56.999Z</time></trkpt><trkpt lat="42.23596479919553" lon="13.891443448153291"><ele>360.0</ele><time>2026-05-02T08:32:57.999Z</time></trkpt><trkpt lat="42.235900198823465" lon="13.891315131477091"><ele>360.0</ele><time>2026-05-02T08:32:58.999Z</time></trkpt><trkpt lat="42.235839486026066" lon="13.891185723321291"><ele>360.0</ele><time>2026-05-02T08:32:59.999Z</time></trkpt><trkpt lat="42.23579094127629" lon="13.891048654673"><ele>360.0</ele><time>2026-05-02T08:33:00.999Z</time></trkpt><trkpt lat="42.235760573509054" lon="13.890902519650119"><ele>360.0</ele><time>2026-05-02T08:33:01.999Z</time></trkpt><trkpt lat="42.2357372633897" lon="13.890747176312608"><ele>362.5</ele><time>2026-05-02T08:33:02.999Z</time></trkpt><trkpt lat="42.23571748858538" lon="13.89058450405051"><ele>365.0</ele><time>2026-05-02T08:33:03.999Z</time></trkpt><trkpt lat="42.23569592718696" lon="13.890420665198347"><ele>367.5</ele><time>2026-05-02T08:33:04.999Z</time></trkpt><trkpt lat="42.23567432002654" lon="13.89026058169539"><ele>370.0</ele><time>2026-05-02T08:33:05.999Z</time></trkpt><trkpt lat="42.23564910034018" lon="13.890102145267422"><ele>369.0</ele><time>2026-05-02T08:33:06.999Z</time></trkpt><trkpt lat="42.23561176827811" lon="13.889949193758467"><ele>368.0</ele><time>2026-05-02T08:33:07.999Z</time></trkpt><trkpt lat="42.23556625934134" lon="13.889801146553836"><ele>367.0</ele><time>2026-05-02T08:33:08.999Z</time></trkpt><trkpt lat="42.23550694645648" lon="13.88965827700793"><ele>366.0</ele><time>2026-05-02T08:33:09.999Z</time></trkpt><trkpt lat="42.23543996345289" lon="13.889509111275087"><ele>366.0</ele><time>2026-05-02T08:33:10.999Z</time></trkpt><trkpt lat="42.23536768698874" lon="13.889351143778741"><ele>366.0</ele><time>2026-05-02T08:33:11.999Z</time></trkpt><trkpt lat="42.23529011068899" lon="13.889181592725079"><ele>366.0</ele><time>2026-05-02T08:33:12.999Z</time></trkpt><trkpt lat="42.235205008466785" lon="13.888999323356847"><ele>366.0</ele><time>2026-05-02T08:33:13.999Z</time></trkpt><trkpt lat="42.235105286878486" lon="13.888816169547592"><ele>369.3333333333333</ele><time>2026-05-02T08:33:14.999Z</time></trkpt><trkpt lat="42.234989665665914" lon="13.888645242354796"><ele>372.66666666666663</ele><time>2026-05-02T08:33:15.999Z</time></trkpt><trkpt lat="42.23487688954667" lon="13.888463616102248"><ele>376.0</ele><time>2026-05-02T08:33:16.999Z</time></trkpt><trkpt lat="42.23476485763" lon="13.888278348329393"><ele>378.0</ele><time>2026-05-02T08:33:17.999Z</time></trkpt><trkpt lat="42.23465368614282" lon="13.888094286069808"><ele>380.0</ele><time>2026-05-02T08:33:18.999Z</time></trkpt><trkpt lat="42.234537700846346" lon="13.88790595486274"><ele>382.0</ele><time>2026-05-02T08:33:19.999Z</time></trkpt><trkpt lat="42.23442350561326" lon="13.887715608460232"><ele>388.3333333333333</ele><time>2026-05-02T08:33:20.999Z</time></trkpt><trkpt lat="42.234314827440166" lon="13.887531317052204"><ele>394.66666666666663</ele><time>2026-05-02T08:33:21.999Z</time></trkpt><trkpt lat="42.234207324885375" lon="13.887352803536713"><ele>401.0</ele><time>2026-05-02T08:33:22.999Z</time></trkpt><trkpt lat="42.234102579654596" lon="13.887180477646016"><ele>401.0</ele><time>2026-05-02T08:33:23.999Z</time></trkpt><trkpt lat="42.23400868561407" lon="13.887025985543731"><ele>401.0</ele><time>2026-05-02T08:33:24.999Z</time></trkpt><trkpt lat="42.23392283181168" lon="13.88689625940126"><ele>401.0</ele><time>2026-05-02T08:33:25.999Z</time></trkpt><trkpt lat="42.23383316038155" lon="13.886792963156086"><ele>401.0</ele><time>2026-05-02T08:33:26.999Z</time></trkpt><trkpt lat="42.23373441455057" lon="13.886706909699342"><ele>401.16666666666663</ele><time>2026-05-02T08:33:27.999Z</time></trkpt><trkpt lat="42.233637760962885" lon="13.88663859132136"><ele>401.3333333333333</ele><time>2026-05-02T08:33:28.999Z</time></trkpt><trkpt lat="42.23355611290792" lon="13.886578556828296"><ele>401.5</ele><time>2026-05-02T08:33:29.999Z</time></trkpt><trkpt lat="42.23349561911856" lon="13.886503642086588"><ele>401.66666666666663</ele><time>2026-05-02T08:33:30.999Z</time></trkpt><trkpt lat="42.23347555923725" lon="13.886406545622604"><ele>401.8333333333333</ele><time>2026-05-02T08:33:31.999Z</time></trkpt><trkpt lat="42.23349685186545" lon="13.886311797219712"><ele>402.0</ele><time>2026-05-02T08:33:32.999Z</time></trkpt><trkpt lat="42.23355515839634" lon="13.886243525558335"><ele>402.0</ele><time>2026-05-02T08:33:33.999Z</time></trkpt><trkpt lat="42.23363596695801" lon="13.886233863199953"><ele>402.0</ele><time>2026-05-02T08:33:34.999Z</time></trkpt><trkpt lat="42.23372552652052" lon="13.886273243975209"><ele>402.0</ele><time>2026-05-02T08:33:35.999Z</time></trkpt><trkpt lat="42.23382742572825" lon="13.886342855388667"><ele>402.0</ele><time>2026-05-02T08:33:36.999Z</time></trkpt><trkpt lat="42.23394376601414" lon="13.886428677389448"><ele>402.0</ele><time>2026-05-02T08:33:37.999Z</time></trkpt><trkpt lat="42.23406835719318" lon="13.886533657111633"><ele>401.75</ele><time>2026-05-02T08:33:38.999Z</time></trkpt><trkpt lat="42.234182219607234" lon="13.8866676241096"><ele>401.5</ele><time>2026-05-02T08:33:39.999Z</time></trkpt><trkpt lat="42.23428494418275" lon="13.886806019374692"><ele>401.25</ele><time>2026-05-02T08:33:40.999Z</time></trkpt><trkpt lat="42.23437160559898" lon="13.88692660881555"><ele>401.0</ele><time>2026-05-02T08:33:41.999Z</time></trkpt><trkpt lat="42.23444569115373" lon="13.887012668595878"><ele>401.0</ele><time>2026-05-02T08:33:42.999Z</time></trkpt><trkpt lat="42.23451533565288" lon="13.887050496404486"><ele>401.0</ele><time>2026-05-02T08:33:43.999Z</time></trkpt><trkpt lat="42.23458505977892" lon="13.887041750786835"><ele>401.0</ele><time>2026-05-02T08:33:44.999Z</time></trkpt><trkpt lat="42.23465022458708" lon="13.88700323779497"><ele>401.0</ele><time>2026-05-02T08:33:45.999Z</time></trkpt><trkpt lat="42.2346939345862" lon="13.886932609632094"><ele>401.0</ele><time>2026-05-02T08:33:46.999Z</time></trkpt><trkpt lat="42.2347060331321" lon="13.886831259666943"><ele>401.0</ele><time>2026-05-02T08:33:47.999Z</time></trkpt><trkpt lat="42.23467598218498" lon="13.886720534880576"><ele>401.0</ele><time>2026-05-02T08:33:48.999Z</time></trkpt><trkpt lat="42.23461799301828" lon="13.88662993106095"><ele>404.20000000000005</ele><time>2026-05-02T08:33:49.999Z</time></trkpt><trkpt lat="42.234538264708505" lon="13.886543606658536"><ele>407.40000000000003</ele><time>2026-05-02T08:33:50.999Z</time></trkpt><trkpt lat="42.2344575188177" lon="13.886452095476638"><ele>410.6</ele><time>2026-05-02T08:33:51.999Z</time></trkpt><trkpt lat="42.23437791438881" lon="13.886348471492257"><ele>413.8</ele><time>2026-05-02T08:33:52.999Z</time></trkpt><trkpt lat="42.23430634360586" lon="13.886227128430619"><ele>417.0</ele><time>2026-05-02T08:33:53.999Z</time></trkpt><trkpt lat="42.23423423141739" lon="13.886082222598022"><ele>420.25</ele><time>2026-05-02T08:33:54.999Z</time></trkpt><trkpt lat="42.234159836506365" lon="13.885924146899256"><ele>423.5</ele><time>2026-05-02T08:33:55.999Z</time></trkpt><trkpt lat="42.23408878294899" lon="13.885755580447503"><ele>426.75</ele><time>2026-05-02T08:33:56.999Z</time></trkpt><trkpt lat="42.23402960076361" lon="13.885575658709271"><ele>430.0</ele><time>2026-05-02T08:33:57.999Z</time></trkpt><trkpt lat="42.23399590245834" lon="13.885401570247485"><ele>430.0</ele><time>2026-05-02T08:33:58.999Z</time></trkpt><trkpt lat="42.233975975338815" lon="13.88522003086437"><ele>430.0</ele><time>2026-05-02T08:33:59.999Z</time></trkpt><trkpt lat="42.233950983910695" lon="13.885034298042168"><ele>430.0</ele><time>2026-05-02T08:34:00.999Z</time></trkpt><trkpt lat="42.23392032111403" lon="13.884844331073541"><ele>430.0</ele><time>2026-05-02T08:34:01.999Z</time></trkpt><trkpt lat="42.233889340601664" lon="13.884649500347372"><ele>429.33333333333337</ele><time>2026-05-02T08:34:02.999Z</time></trkpt><trkpt lat="42.23385732287042" lon="13.884449779986193"><ele>428.66666666666663</ele><time>2026-05-02T08:34:03.999Z</time></trkpt><trkpt lat="42.233823833699084" lon="13.884247157885714"><ele>428.0</ele><time>2026-05-02T08:34:04.999Z</time></trkpt><trkpt lat="42.23378728067898" lon="13.884042249169347"><ele>433.66666666666663</ele><time>2026-05-02T08:34:05.999Z</time></trkpt><trkpt lat="42.23374406858932" lon="13.883839088287482"><ele>439.33333333333337</ele><time>2026-05-02T08:34:06.999Z</time></trkpt><trkpt lat="42.233696904669415" lon="13.883638926745105"><ele>445.0</ele><time>2026-05-02T08:34:07.999Z</time></trkpt><trkpt lat="42.23365082636669" lon="13.883441816027888"><ele>449.0</ele><time>2026-05-02T08:34:08.999Z</time></trkpt><trkpt lat="42.23360950750782" lon="13.88324937197275"><ele>453.0</ele><time>2026-05-02T08:34:09.999Z</time></trkpt><trkpt lat="42.23357615225161" lon="13.883068714805471"><ele>457.0</ele><time>2026-05-02T08:34:10.999Z</time></trkpt><trkpt lat="42.23355450236528" lon="13.882892364485777"><ele>461.0</ele><time>2026-05-02T08:34:11.999Z</time></trkpt><trkpt lat="42.233552297021035" lon="13.882715736174776"><ele>464.5</ele><time>2026-05-02T08:34:12.999Z</time></trkpt><trkpt lat="42.233563499642834" lon="13.882537099319663"><ele>468.0</ele><time>2026-05-02T08:34:13.999Z</time></trkpt><trkpt lat="42.23357975887036" lon="13.882362974377761"><ele>471.5</ele><time>2026-05-02T08:34:14.999Z</time></trkpt><trkpt lat="42.23360002063074" lon="13.882191253680984"><ele>475.0</ele><time>2026-05-02T08:34:15.999Z</time></trkpt><trkpt lat="42.23362077793068" lon="13.882017646994559"><ele>475.0</ele><time>2026-05-02T08:34:16.999Z</time></trkpt><trkpt lat="42.233640142834254" lon="13.881841468965282"><ele>475.0</ele><time>2026-05-02T08:34:17.999Z</time></trkpt><trkpt lat="42.233658297828796" lon="13.881664738027784"><ele>475.0</ele><time>2026-05-02T08:34:18.999Z</time></trkpt><trkpt lat="42.23368184762597" lon="13.881488827847546"><ele>475.0</ele><time>2026-05-02T08:34:19.999Z</time></trkpt><trkpt lat="42.23371566533317" lon="13.881314990522807"><ele>475.75</ele><time>2026-05-02T08:34:20.999Z</time></trkpt><trkpt lat="42.23375610851647" lon="13.881152745905155"><ele>476.5</ele><time>2026-05-02T08:34:21.999Z</time></trkpt><trkpt lat="42.233785102699976" lon="13.88099340930176"><ele>477.25</ele><time>2026-05-02T08:34:22.999Z</time></trkpt><trkpt lat="42.233810350251595" lon="13.880831759733448"><ele>478.0</ele><time>2026-05-02T08:34:23.999Z</time></trkpt><trkpt lat="42.23383299493095" lon="13.880666996753767"><ele>478.0</ele><time>2026-05-02T08:34:24.999Z</time></trkpt><trkpt lat="42.23384536998204" lon="13.880497060245263"><ele>478.0</ele><time>2026-05-02T08:34:25.999Z</time></trkpt><trkpt lat="42.233837715448814" lon="13.880327370421947"><ele>478.0</ele><time>2026-05-02T08:34:26.999Z</time></trkpt><trkpt lat="42.23381386701305" lon="13.880162291408007"><ele>478.0</ele><time>2026-05-02T08:34:27.999Z</time></trkpt><trkpt lat="42.233779910327875" lon="13.880004423857"><ele>477.5</ele><time>2026-05-02T08:34:28.999Z</time></trkpt><trkpt lat="42.233745439751154" lon="13.879848018609678"><ele>477.0</ele><time>2026-05-02T08:34:29.999Z</time></trkpt><trkpt lat="42.23371297432425" lon="13.879685716431569"><ele>476.5</ele><time>2026-05-02T08:34:30.999Z</time></trkpt><trkpt lat="42.23369121014175" lon="13.879512410750168"><ele>476.0</ele><time>2026-05-02T08:34:31.999Z</time></trkpt><trkpt lat="42.23370104837275" lon="13.8793309446631"><ele>475.75</ele><time>2026-05-02T08:34:32.999Z</time></trkpt><trkpt lat="42.23374143823582" lon="13.8791500695658"><ele>475.5</ele><time>2026-05-02T08:34:33.999Z</time></trkpt><trkpt lat="42.233789867901926" lon="13.878966851426476"><ele>475.25</ele><time>2026-05-02T08:34:34.999Z</time></trkpt><trkpt lat="42.23383783324927" lon="13.87877851914053"><ele>475.0</ele><time>2026-05-02T08:34:35.999Z</time></trkpt><trkpt lat="42.23388110598676" lon="13.878589495336877"><ele>474.75</ele><time>2026-05-02T08:34:36.999Z</time></trkpt><trkpt lat="42.233922246949064" lon="13.87840140859888"><ele>474.5</ele><time>2026-05-02T08:34:37.999Z</time></trkpt><trkpt lat="42.233959390676524" lon="13.878210987109833"><ele>474.25</ele><time>2026-05-02T08:34:38.999Z</time></trkpt><trkpt lat="42.23399407603048" lon="13.878021689075341"><ele>474.0</ele><time>2026-05-02T08:34:39.999Z</time></trkpt><trkpt lat="42.23402608141442" lon="13.877835467059692"><ele>471.5</ele><time>2026-05-02T08:34:40.999Z</time></trkpt><trkpt lat="42.23407352720215" lon="13.877654941665062"><ele>469.0</ele><time>2026-05-02T08:34:41.999Z</time></trkpt><trkpt lat="42.23409878201148" lon="13.877465558935523"><ele>466.5</ele><time>2026-05-02T08:34:42.999Z</time></trkpt><trkpt lat="42.234102542872" lon="13.877276796072632"><ele>464.0</ele><time>2026-05-02T08:34:43.999Z</time></trkpt><trkpt lat="42.2341238363812" lon="13.877094246310397"><ele>464.0</ele><time>2026-05-02T08:34:44.999Z</time></trkpt><trkpt lat="42.234136476950134" lon="13.876919633364919"><ele>464.0</ele><time>2026-05-02T08:34:45.999Z</time></trkpt><trkpt lat="42.23414452020301" lon="13.876749484774804"><ele>464.0</ele><time>2026-05-02T08:34:46.999Z</time></trkpt><trkpt lat="42.23416165148372" lon="13.876589172391702"><ele>464.0</ele><time>2026-05-02T08:34:47.999Z</time></trkpt><trkpt lat="42.23419838552013" lon="13.876435860616782"><ele>464.5</ele><time>2026-05-02T08:34:48.999Z</time></trkpt><trkpt lat="42.23425106480078" lon="13.876285744718745"><ele>465.0</ele><time>2026-05-02T08:34:49.999Z</time></trkpt><trkpt lat="42.23431871484137" lon="13.876143968650133"><ele>465.5</ele><time>2026-05-02T08:34:50.999Z</time></trkpt><trkpt lat="42.234392781371284" lon="13.87600033675766"><ele>466.0</ele><time>2026-05-02T08:34:51.999Z</time></trkpt><trkpt lat="42.23447548117259" lon="13.875858595860088"><ele>464.0</ele><time>2026-05-02T08:34:52.999Z</time></trkpt><trkpt lat="42.23456644840751" lon="13.87571736738967"><ele>462.0</ele><time>2026-05-02T08:34:53.999Z</time></trkpt><trkpt lat="42.234662055957266" lon="13.875574639084403"><ele>460.0</ele><time>2026-05-02T08:34:54.999Z</time></trkpt><trkpt lat="42.23475890287283" lon="13.875437033645635"><ele>458.0</ele><time>2026-05-02T08:34:55.999Z</time></trkpt><trkpt lat="42.23486189408463" lon="13.875309149280751"><ele>458.0</ele><time>2026-05-02T08:34:56.999Z</time></trkpt><trkpt lat="42.23496953219398" lon="13.875193026456289"><ele>458.0</ele><time>2026-05-02T08:34:57.999Z</time></trkpt><trkpt lat="42.23508165353461" lon="13.87508797287161"><ele>458.0</ele><time>2026-05-02T08:34:58.999Z</time></trkpt><trkpt lat="42.23519265035502" lon="13.874988698889785"><ele>458.0</ele><time>2026-05-02T08:34:59.999Z</time></trkpt><trkpt lat="42.235303307754926" lon="13.874901300315232"><ele>456.0</ele><time>2026-05-02T08:35:00.999Z</time></trkpt><trkpt lat="42.235410176219766" lon="13.874813750190096"><ele>454.0</ele><time>2026-05-02T08:35:01.999Z</time></trkpt><trkpt lat="42.23550851778376" lon="13.874716536610835"><ele>452.0</ele><time>2026-05-02T08:35:02.999Z</time></trkpt><trkpt lat="42.23559356479714" lon="13.87461542696964"><ele>450.0</ele><time>2026-05-02T08:35:03.999Z</time></trkpt><trkpt lat="42.23565544437848" lon="13.874524000930522"><ele>450.0</ele><time>2026-05-02T08:35:04.999Z</time></trkpt><trkpt lat="42.235698671327036" lon="13.874432804738813"><ele>450.0</ele><time>2026-05-02T08:35:05.999Z</time></trkpt><trkpt lat="42.23571911369532" lon="13.87433534236492"><ele>450.0</ele><time>2026-05-02T08:35:06.999Z</time></trkpt><trkpt lat="42.235706318415914" lon="13.874226905121521"><ele>450.0</ele><time>2026-05-02T08:35:07.999Z</time></trkpt><trkpt lat="42.235650532201895" lon="13.874130834998523"><ele>450.0</ele><time>2026-05-02T08:35:08.999Z</time></trkpt><trkpt lat="42.23557924346712" lon="13.874047371528823"><ele>450.0</ele><time>2026-05-02T08:35:09.999Z</time></trkpt><trkpt lat="42.23550233293042" lon="13.87396366996626"><ele>454.5</ele><time>2026-05-02T08:35:10.999Z</time></trkpt><trkpt lat="42.23543247608666" lon="13.873875602777419"><ele>459.0</ele><time>2026-05-02T08:35:11.999Z</time></trkpt><trkpt lat="42.23537667136658" lon="13.873789052784987"><ele>463.5</ele><time>2026-05-02T08:35:12.999Z</time></trkpt><trkpt lat="42.23534928289413" lon="13.873692975979159"><ele>468.0</ele><time>2026-05-02T08:35:13.999Z</time></trkpt><trkpt lat="42.235354046060316" lon="13.873592573700972"><ele>472.5</ele><time>2026-05-02T08:35:14.999Z</time></trkpt><trkpt lat="42.23539580794815" lon="13.873490235841734"><ele>477.0</ele><time>2026-05-02T08:35:15.999Z</time></trkpt><trkpt lat="42.2354574235575" lon="13.873392987072126"><ele>477.0</ele><time>2026-05-02T08:35:16.999Z</time></trkpt><trkpt lat="42.23552446510395" lon="13.87328844488956"><ele>477.00000000000006</ele><time>2026-05-02T08:35:17.999Z</time></trkpt><trkpt lat="42.235604729368994" lon="13.873214879508128"><ele>477.00000000000006</ele><time>2026-05-02T08:35:18.999Z</time></trkpt><trkpt lat="42.23570355841318" lon="13.873191739872434"><ele>477.0</ele><time>2026-05-02T08:35:19.999Z</time></trkpt><trkpt lat="42.23581215126664" lon="13.873195801092056"><ele>477.0</ele><time>2026-05-02T08:35:20.999Z</time></trkpt><trkpt lat="42.235924365275146" lon="13.873215466228064"><ele>473.0</ele><time>2026-05-02T08:35:21.999Z</time></trkpt><trkpt lat="42.23604131120206" lon="13.873248379046382"><ele>469.0</ele><time>2026-05-02T08:35:22.999Z</time></trkpt><trkpt lat="42.23616122044612" lon="13.87329281168942"><ele>465.0</ele><time>2026-05-02T08:35:23.999Z</time></trkpt><trkpt lat="42.236285707390216" lon="13.873339122887858"><ele>461.0</ele><time>2026-05-02T08:35:24.999Z</time></trkpt><trkpt lat="42.23641399175335" lon="13.873374795678393"><ele>461.25</ele><time>2026-05-02T08:35:25.999Z</time></trkpt><trkpt lat="42.236546849078856" lon="13.87339440001372"><ele>461.5</ele><time>2026-05-02T08:35:26.999Z</time></trkpt><trkpt lat="42.23668405866996" lon="13.873400619850456"><ele>461.75</ele><time>2026-05-02T08:35:27.999Z</time></trkpt><trkpt lat="42.23682240644113" lon="13.873390703576685"><ele>462.0</ele><time>2026-05-02T08:35:28.999Z</time></trkpt><trkpt lat="42.2369517430146" lon="13.873361844764968"><ele>462.0</ele><time>2026-05-02T08:35:29.999Z</time></trkpt><trkpt lat="42.23707337838615" lon="13.873313410849274"><ele>462.0</ele><time>2026-05-02T08:35:30.999Z</time></trkpt><trkpt lat="42.23719064085369" lon="13.873248150798542"><ele>462.0</ele><time>2026-05-02T08:35:31.999Z</time></trkpt><trkpt lat="42.23730527994453" lon="13.87317195447172"><ele>462.0</ele><time>2026-05-02T08:35:32.999Z</time></trkpt><trkpt lat="42.237418503870764" lon="13.87308926423502"><ele>460.75</ele><time>2026-05-02T08:35:33.999Z</time></trkpt><trkpt lat="42.23753098222412" lon="13.873002807726296"><ele>459.5</ele><time>2026-05-02T08:35:34.999Z</time></trkpt><trkpt lat="42.23763460297807" lon="13.872912761848315"><ele>458.25</ele><time>2026-05-02T08:35:35.999Z</time></trkpt><trkpt lat="42.237721327803555" lon="13.87280120456342"><ele>457.0</ele><time>2026-05-02T08:35:36.999Z</time></trkpt><trkpt lat="42.23778776728634" lon="13.87266772025752"><ele>461.0</ele><time>2026-05-02T08:35:37.999Z</time></trkpt><trkpt lat="42.23783958968137" lon="13.872516772643321"><ele>465.0</ele><time>2026-05-02T08:35:38.999Z</time></trkpt><trkpt lat="42.23788259791448" lon="13.87235713152142"><ele>469.0</ele><time>2026-05-02T08:35:39.999Z</time></trkpt><trkpt lat="42.23792942174213" lon="13.872193267290942"><ele>473.0</ele><time>2026-05-02T08:35:40.999Z</time></trkpt><trkpt lat="42.237983015369316" lon="13.8720336003558"><ele>473.0</ele><time>2026-05-02T08:35:41.999Z</time></trkpt><trkpt lat="42.238042615329064" lon="13.871877788125317"><ele>473.0</ele><time>2026-05-02T08:35:42.999Z</time></trkpt><trkpt lat="42.23810340202707" lon="13.871726743067942"><ele>473.0</ele><time>2026-05-02T08:35:43.999Z</time></trkpt><trkpt lat="42.238170102415395" lon="13.871577744279097"><ele>473.0</ele><time>2026-05-02T08:35:44.999Z</time></trkpt><trkpt lat="42.238242194956946" lon="13.87143377057981"><ele>473.2</ele><time>2026-05-02T08:35:45.999Z</time></trkpt><trkpt lat="42.23832269981087" lon="13.871304209119197"><ele>473.4</ele><time>2026-05-02T08:35:46.999Z</time></trkpt><trkpt lat="42.23840400209733" lon="13.871187705553194"><ele>473.59999999999997</ele><time>2026-05-02T08:35:47.999Z</time></trkpt><trkpt lat="42.238475948126954" lon="13.871082979694709"><ele>473.79999999999995</ele><time>2026-05-02T08:35:48.999Z</time></trkpt><trkpt lat="42.23853958733837" lon="13.870984618837214"><ele>474.0</ele><time>2026-05-02T08:35:49.999Z</time></trkpt><trkpt lat="42.23859893428298" lon="13.87089566547779"><ele>477.2</ele><time>2026-05-02T08:35:50.999Z</time></trkpt><trkpt lat="42.23865489042138" lon="13.870818135386454"><ele>480.4</ele><time>2026-05-02T08:35:51.999Z</time></trkpt><trkpt lat="42.23870307777056" lon="13.87074871052699"><ele>483.6</ele><time>2026-05-02T08:35:52.999Z</time></trkpt><trkpt lat="42.23875664014969" lon="13.870651580319148"><ele>486.8</ele><time>2026-05-02T08:35:54.999Z</time></trkpt><trkpt lat="42.23857343028075" lon="13.87058872301658"><ele>490.0</ele><time>2026-05-02T08:35:58.999Z</time></trkpt><trkpt lat="42.23849032675078" lon="13.87060197948246"><ele>490.0</ele><time>2026-05-02T08:35:59.999Z</time></trkpt><trkpt lat="42.2383836120985" lon="13.870619002335587"><ele>490.0</ele><time>2026-05-02T08:36:00.999Z</time></trkpt><trkpt lat="42.23826023637442" lon="13.870638682912874"><ele>490.0</ele><time>2026-05-02T08:36:01.999Z</time></trkpt><trkpt lat="42.238138316590934" lon="13.870661236704036"><ele>490.0</ele><time>2026-05-02T08:36:02.999Z</time></trkpt><trkpt lat="42.23802278468649" lon="13.870691665467973"><ele>489.2</ele><time>2026-05-02T08:36:03.999Z</time></trkpt><trkpt lat="42.23791260514515" lon="13.870744559780489"><ele>488.4</ele><time>2026-05-02T08:36:04.999Z</time></trkpt><trkpt lat="42.23783281056953" lon="13.870850470162008"><ele>487.6</ele><time>2026-05-02T08:36:05.999Z</time></trkpt><trkpt lat="42.237747172748364" lon="13.870894184151796"><ele>486.8</ele><time>2026-05-02T08:36:06.999Z</time></trkpt><trkpt lat="42.23768523065556" lon="13.870936706693662"><ele>486.0</ele><time>2026-05-02T08:36:07.999Z</time></trkpt><trkpt lat="42.23758097685671" lon="13.870981696268018"><ele>488.8</ele><time>2026-05-02T08:36:09.999Z</time></trkpt><trkpt lat="42.23751237482435" lon="13.870932792399444"><ele>491.6</ele><time>2026-05-02T08:36:11.999Z</time></trkpt><trkpt lat="42.237545008129835" lon="13.870768063149956"><ele>494.4</ele><time>2026-05-02T08:36:13.999Z</time></trkpt><trkpt lat="42.23760572161376" lon="13.870682184716067"><ele>497.2</ele><time>2026-05-02T08:36:14.999Z</time></trkpt><trkpt lat="42.23767484108862" lon="13.870586331298645"><ele>500.0</ele><time>2026-05-02T08:36:15.999Z</time></trkpt><trkpt lat="42.23774588643654" lon="13.870472935622487"><ele>500.0</ele><time>2026-05-02T08:36:16.999Z</time></trkpt><trkpt lat="42.237820112765526" lon="13.870368854806841"><ele>500.0</ele><time>2026-05-02T08:36:17.999Z</time></trkpt><trkpt lat="42.23788997494857" lon="13.870270040671512"><ele>500.0</ele><time>2026-05-02T08:36:18.999Z</time></trkpt><trkpt lat="42.237957615028755" lon="13.870170406969766"><ele>500.0</ele><time>2026-05-02T08:36:19.999Z</time></trkpt><trkpt lat="42.238011098685796" lon="13.870077578804256"><ele>500.0</ele><time>2026-05-02T08:36:21Z</time></trkpt><trkpt lat="42.23804022629007" lon="13.869995038044337"><ele>503.0</ele><time>2026-05-02T08:36:22Z</time></trkpt><trkpt lat="42.237998627616285" lon="13.869835365811696"><ele>506.0</ele><time>2026-05-02T08:36:24Z</time></trkpt><trkpt lat="42.237947002447804" lon="13.869777945020893"><ele>509.0</ele><time>2026-05-02T08:36:25Z</time></trkpt><trkpt lat="42.2378655082045" lon="13.869740141761282"><ele>512.0</ele><time>2026-05-02T08:36:26Z</time></trkpt><trkpt lat="42.237775872694385" lon="13.869678929012156"><ele>515.0</ele><time>2026-05-02T08:36:27Z</time></trkpt><trkpt lat="42.23766752432062" lon="13.869637576938072"><ele>515.0</ele><time>2026-05-02T08:36:28Z</time></trkpt><trkpt lat="42.23756136288636" lon="13.869599238742783"><ele>515.0</ele><time>2026-05-02T08:36:29Z</time></trkpt><trkpt lat="42.23747183996204" lon="13.869544571865909"><ele>515.0</ele><time>2026-05-02T08:36:30Z</time></trkpt><trkpt lat="42.2373880152693" lon="13.869470675733101"><ele>515.0</ele><time>2026-05-02T08:36:31Z</time></trkpt><trkpt lat="42.23730366915616" lon="13.869397206254899"><ele>515.0</ele><time>2026-05-02T08:36:32Z</time></trkpt><trkpt lat="42.23718427605786" lon="13.869342072404264"><ele>514.75</ele><time>2026-05-02T08:36:33Z</time></trkpt><trkpt lat="42.237062002712015" lon="13.869286398108617"><ele>514.5</ele><time>2026-05-02T08:36:34Z</time></trkpt><trkpt lat="42.23695453386261" lon="13.869225415349737"><ele>514.25</ele><time>2026-05-02T08:36:35Z</time></trkpt><trkpt lat="42.236849831500216" lon="13.869160626609206"><ele>514.0</ele><time>2026-05-02T08:36:36Z</time></trkpt><trkpt lat="42.23675015090816" lon="13.869095551495796"><ele>517.5</ele><time>2026-05-02T08:36:37Z</time></trkpt><trkpt lat="42.23665232650126" lon="13.869023325316912"><ele>521.0</ele><time>2026-05-02T08:36:38Z</time></trkpt><trkpt lat="42.23654967830987" lon="13.868940902708967"><ele>524.5</ele><time>2026-05-02T08:36:39Z</time></trkpt><trkpt lat="42.236445593797576" lon="13.868861724578652"><ele>528.0</ele><time>2026-05-02T08:36:40Z</time></trkpt><trkpt lat="42.23635094556638" lon="13.868791983780433"><ele>528.0</ele><time>2026-05-02T08:36:41Z</time></trkpt><trkpt lat="42.2362806311021" lon="13.868736104810461"><ele>528.0</ele><time>2026-05-02T08:36:42Z</time></trkpt><trkpt lat="42.23619774705585" lon="13.86864125745996"><ele>528.0</ele><time>2026-05-02T08:36:44Z</time></trkpt><trkpt lat="42.23625026733182" lon="13.868483077105559"><ele>528.0</ele><time>2026-05-02T08:36:46Z</time></trkpt><trkpt lat="42.23633269898785" lon="13.868441009177104"><ele>528.0</ele><time>2026-05-02T08:36:47Z</time></trkpt><trkpt lat="42.23643061363442" lon="13.868404281168877"><ele>533.5</ele><time>2026-05-02T08:36:48Z</time></trkpt><trkpt lat="42.23653508333191" lon="13.868355517236509"><ele>539.0</ele><time>2026-05-02T08:36:49Z</time></trkpt><trkpt lat="42.23664531990114" lon="13.86829642259458"><ele>544.5</ele><time>2026-05-02T08:36:50Z</time></trkpt><trkpt lat="42.23676137864354" lon="13.868228358356559"><ele>550.0</ele><time>2026-05-02T08:36:51Z</time></trkpt><trkpt lat="42.236874019893406" lon="13.868167294074638"><ele>550.0</ele><time>2026-05-02T08:36:52Z</time></trkpt><trkpt lat="42.236961132712196" lon="13.868129907018929"><ele>550.0</ele><time>2026-05-02T08:36:53Z</time></trkpt><trkpt lat="42.237023027346766" lon="13.868102238110804"><ele>550.0</ele><time>2026-05-02T08:36:54Z</time></trkpt><trkpt lat="42.23708689109998" lon="13.868018844665679"><ele>550.0</ele><time>2026-05-02T08:36:56Z</time></trkpt><trkpt lat="42.23704335901549" lon="13.867862975167432"><ele>550.0</ele><time>2026-05-02T08:36:58Z</time></trkpt><trkpt lat="42.23694654569043" lon="13.86780548865721"><ele>550.0</ele><time>2026-05-02T08:36:59Z</time></trkpt><trkpt lat="42.23685549175648" lon="13.867764124719592"><ele>550.0</ele><time>2026-05-02T08:37:00Z</time></trkpt><trkpt lat="42.23676373999674" lon="13.867707393499494"><ele>550.0</ele><time>2026-05-02T08:37:01Z</time></trkpt><trkpt lat="42.236665312766014" lon="13.867665874539412"><ele>550.0</ele><time>2026-05-02T08:37:02Z</time></trkpt><trkpt lat="42.236579866909224" lon="13.867591012170358"><ele>550.0</ele><time>2026-05-02T08:37:03Z</time></trkpt><trkpt lat="42.236499616364846" lon="13.867496204882896"><ele>551.4</ele><time>2026-05-02T08:37:04Z</time></trkpt><trkpt lat="42.23643503876779" lon="13.867385454913292"><ele>552.8</ele><time>2026-05-02T08:37:05Z</time></trkpt><trkpt lat="42.236384340810524" lon="13.867266266894001"><ele>554.2</ele><time>2026-05-02T08:37:06Z</time></trkpt><trkpt lat="42.236341133459696" lon="13.867151227445426"><ele>555.6</ele><time>2026-05-02T08:37:07Z</time></trkpt><trkpt lat="42.2362956021649" lon="13.867035590602583"><ele>557.0</ele><time>2026-05-02T08:37:08Z</time></trkpt><trkpt lat="42.236243883837155" lon="13.866930128816843"><ele>557.0</ele><time>2026-05-02T08:37:09Z</time></trkpt><trkpt lat="42.23617859756379" lon="13.866846842445486"><ele>557.0</ele><time>2026-05-02T08:37:10Z</time></trkpt><trkpt lat="42.23611171450679" lon="13.866766526945161"><ele>557.0</ele><time>2026-05-02T08:37:11Z</time></trkpt><trkpt lat="42.236013738671836" lon="13.866723007095228"><ele>557.0</ele><time>2026-05-02T08:37:12Z</time></trkpt><trkpt lat="42.23590325858813" lon="13.866728510710365"><ele>557.0</ele><time>2026-05-02T08:37:13Z</time></trkpt><trkpt lat="42.23580027388352" lon="13.866761361829749"><ele>557.0</ele><time>2026-05-02T08:37:14Z</time></trkpt><trkpt lat="42.2357049755561" lon="13.866794399012056"><ele>557.0</ele><time>2026-05-02T08:37:15Z</time></trkpt><trkpt lat="42.235616508972335" lon="13.866821200092303"><ele>557.0</ele><time>2026-05-02T08:37:16Z</time></trkpt><trkpt lat="42.23554575772848" lon="13.866839279383266"><ele>557.0</ele><time>2026-05-02T08:37:17Z</time></trkpt><trkpt lat="42.23544788385284" lon="13.866839914758396"><ele>557.0</ele><time>2026-05-02T08:37:19Z</time></trkpt><trkpt lat="42.23540959765736" lon="13.86671842503819"><ele>560.8000000000001</ele><time>2026-05-02T08:37:23Z</time></trkpt><trkpt lat="42.23552181767248" lon="13.866644351704831"><ele>564.6</ele><time>2026-05-02T08:37:25Z</time></trkpt><trkpt lat="42.23558999447964" lon="13.86661990508091"><ele>568.4000000000001</ele><time>2026-05-02T08:37:26Z</time></trkpt><trkpt lat="42.23564611106165" lon="13.866528795009707"><ele>572.2</ele><time>2026-05-02T08:37:28Z</time></trkpt><trkpt lat="42.23559956121395" lon="13.866447513026294"><ele>576.0</ele><time>2026-05-02T08:37:30Z</time></trkpt><trkpt lat="42.23550288721274" lon="13.866403789019687"><ele>576.0</ele><time>2026-05-02T08:37:32Z</time></trkpt><trkpt lat="42.23542210938933" lon="13.866403266330975"><ele>576.0</ele><time>2026-05-02T08:37:33Z</time></trkpt><trkpt lat="42.23534644628457" lon="13.866395508969424"><ele>576.0</ele><time>2026-05-02T08:37:34Z</time></trkpt><trkpt lat="42.23529163516876" lon="13.866325633035105"><ele>576.0</ele><time>2026-05-02T08:37:35Z</time></trkpt><trkpt lat="42.23523825832077" lon="13.866227879708614"><ele>576.0</ele><time>2026-05-02T08:37:36Z</time></trkpt><trkpt lat="42.23516960522206" lon="13.866111073042307"><ele>576.0</ele><time>2026-05-02T08:37:37Z</time></trkpt><trkpt lat="42.235121652358636" lon="13.865981648201991"><ele>575.0</ele><time>2026-05-02T08:37:38Z</time></trkpt><trkpt lat="42.23505896113902" lon="13.865868450773092"><ele>574.0</ele><time>2026-05-02T08:37:39Z</time></trkpt><trkpt lat="42.23498954296904" lon="13.865770851375263"><ele>573.0</ele><time>2026-05-02T08:37:40Z</time></trkpt><trkpt lat="42.23493231460582" lon="13.86565548014569"><ele>572.0</ele><time>2026-05-02T08:37:41Z</time></trkpt><trkpt lat="42.23488618168477" lon="13.865535058644037"><ele>571.0</ele><time>2026-05-02T08:37:42Z</time></trkpt><trkpt lat="42.23479927853282" lon="13.865446373219129"><ele>571.0</ele><time>2026-05-02T08:37:43Z</time></trkpt><trkpt lat="42.234722522876844" lon="13.865370169343304"><ele>571.0</ele><time>2026-05-02T08:37:44Z</time></trkpt><trkpt lat="42.23464616534046" lon="13.865277787638787"><ele>571.0</ele><time>2026-05-02T08:37:45Z</time></trkpt><trkpt lat="42.234566481500934" lon="13.865204485299655"><ele>571.0</ele><time>2026-05-02T08:37:46Z</time></trkpt><trkpt lat="42.23448688607163" lon="13.865139950956383"><ele>571.0</ele><time>2026-05-02T08:37:47Z</time></trkpt><trkpt lat="42.23442956599835" lon="13.865044195012219"><ele>575.5</ele><time>2026-05-02T08:37:48Z</time></trkpt><trkpt lat="42.23439847943435" lon="13.864911993317625"><ele>580.0</ele><time>2026-05-02T08:37:49Z</time></trkpt><trkpt lat="42.23434054598113" lon="13.864761260212708"><ele>584.5</ele><time>2026-05-02T08:37:50Z</time></trkpt><trkpt lat="42.2342723094187" lon="13.864619641703005"><ele>589.0</ele><time>2026-05-02T08:37:51Z</time></trkpt><trkpt lat="42.234196625768064" lon="13.864506558530685"><ele>589.0</ele><time>2026-05-02T08:37:52Z</time></trkpt><trkpt lat="42.23412449508346" lon="13.864407248567662"><ele>589.0</ele><time>2026-05-02T08:37:53Z</time></trkpt><trkpt lat="42.23408184553703" lon="13.864282314861756"><ele>589.0</ele><time>2026-05-02T08:37:54Z</time></trkpt><trkpt lat="42.234043327731015" lon="13.86413796811749"><ele>589.0</ele><time>2026-05-02T08:37:55Z</time></trkpt><trkpt lat="42.233996693463915" lon="13.864000090710086"><ele>589.0</ele><time>2026-05-02T08:37:56Z</time></trkpt><trkpt lat="42.233946892745074" lon="13.86386169076704"><ele>588.8</ele><time>2026-05-02T08:37:57Z</time></trkpt><trkpt lat="42.2338963617776" lon="13.86372661479735"><ele>588.5999999999999</ele><time>2026-05-02T08:37:58Z</time></trkpt><trkpt lat="42.23385132258294" lon="13.863596607285158"><ele>588.4</ele><time>2026-05-02T08:37:59Z</time></trkpt><trkpt lat="42.233801936500384" lon="13.863478791043862"><ele>588.1999999999999</ele><time>2026-05-02T08:38:00Z</time></trkpt><trkpt lat="42.2337419455107" lon="13.863360969326664"><ele>588.0</ele><time>2026-05-02T08:38:01Z</time></trkpt><trkpt lat="42.23364668573411" lon="13.863268943805563"><ele>591.5</ele><time>2026-05-02T08:38:02Z</time></trkpt><trkpt lat="42.233576641248256" lon="13.863142112445829"><ele>595.0</ele><time>2026-05-02T08:38:03Z</time></trkpt><trkpt lat="42.233493576986014" lon="13.863004490302181"><ele>598.5</ele><time>2026-05-02T08:38:04Z</time></trkpt><trkpt lat="42.233388491325314" lon="13.862876679084355"><ele>602.0</ele><time>2026-05-02T08:38:05Z</time></trkpt><trkpt lat="42.23329071092998" lon="13.86274127817908"><ele>602.0</ele><time>2026-05-02T08:38:06Z</time></trkpt><trkpt lat="42.23319464816067" lon="13.862632172221513"><ele>602.0</ele><time>2026-05-02T08:38:07Z</time></trkpt><trkpt lat="42.233107305527334" lon="13.862534864351263"><ele>602.0</ele><time>2026-05-02T08:38:08Z</time></trkpt><trkpt lat="42.23303343927905" lon="13.862450516021928"><ele>602.0</ele><time>2026-05-02T08:38:09Z</time></trkpt><trkpt lat="42.23296684514128" lon="13.862385045385569"><ele>602.0</ele><time>2026-05-02T08:38:10Z</time></trkpt><trkpt lat="42.23292660580057" lon="13.862291631592049"><ele>602.0</ele><time>2026-05-02T08:38:11Z</time></trkpt><trkpt lat="42.23289332340034" lon="13.862180183057209"><ele>602.0</ele><time>2026-05-02T08:38:12Z</time></trkpt><trkpt lat="42.232852644097925" lon="13.862063030853994"><ele>602.0</ele><time>2026-05-02T08:38:13Z</time></trkpt><trkpt lat="42.232807960515245" lon="13.861933758747037"><ele>602.0</ele><time>2026-05-02T08:38:14Z</time></trkpt><trkpt lat="42.232765783770816" lon="13.861793060568427"><ele>602.0</ele><time>2026-05-02T08:38:15Z</time></trkpt><trkpt lat="42.23272382879677" lon="13.861647275623033"><ele>605.0</ele><time>2026-05-02T08:38:16Z</time></trkpt><trkpt lat="42.23267799063323" lon="13.86150359198415"><ele>608.0</ele><time>2026-05-02T08:38:17Z</time></trkpt><trkpt lat="42.2326233993143" lon="13.861370089205332"><ele>611.0</ele><time>2026-05-02T08:38:18Z</time></trkpt><trkpt lat="42.23256845221468" lon="13.861252775341852"><ele>614.0</ele><time>2026-05-02T08:38:19Z</time></trkpt><trkpt lat="42.23252311998521" lon="13.861147472367325"><ele>617.0</ele><time>2026-05-02T08:38:20Z</time></trkpt><trkpt lat="42.23249440403713" lon="13.861036766689658"><ele>618.6</ele><time>2026-05-02T08:38:21Z</time></trkpt><trkpt lat="42.23245581784" lon="13.86092516693612"><ele>620.2</ele><time>2026-05-02T08:38:22Z</time></trkpt><trkpt lat="42.23241807641973" lon="13.860812405824923"><ele>621.8</ele><time>2026-05-02T08:38:23Z</time></trkpt><trkpt lat="42.23240265581078" lon="13.860678396703062"><ele>623.4</ele><time>2026-05-02T08:38:24Z</time></trkpt><trkpt lat="42.23239368880758" lon="13.860537407279148"><ele>625.0</ele><time>2026-05-02T08:38:25Z</time></trkpt><trkpt lat="42.23238987484968" lon="13.860398031107687"><ele>625.0</ele><time>2026-05-02T08:38:26Z</time></trkpt><trkpt lat="42.23239360562966" lon="13.860265961235557"><ele>625.0</ele><time>2026-05-02T08:38:27Z</time></trkpt><trkpt lat="42.2324041345438" lon="13.860150593146189"><ele>625.0</ele><time>2026-05-02T08:38:28Z</time></trkpt><trkpt lat="42.232409471621715" lon="13.860051727522626"><ele>625.0</ele><time>2026-05-02T08:38:29Z</time></trkpt><trkpt lat="42.2323561655329" lon="13.859885083988077"><ele>625.0</ele><time>2026-05-02T08:38:31Z</time></trkpt><trkpt lat="42.23228494757849" lon="13.859833586057656"><ele>626.8</ele><time>2026-05-02T08:38:32Z</time></trkpt><trkpt lat="42.23219040190063" lon="13.859814769231912"><ele>628.6</ele><time>2026-05-02T08:38:33Z</time></trkpt><trkpt lat="42.23208887604646" lon="13.859824602648052"><ele>630.4</ele><time>2026-05-02T08:38:34Z</time></trkpt><trkpt lat="42.23199637008463" lon="13.859833172425237"><ele>632.2</ele><time>2026-05-02T08:38:35Z</time></trkpt><trkpt lat="42.231905880787835" lon="13.859798920581223"><ele>634.0</ele><time>2026-05-02T08:38:36Z</time></trkpt><trkpt lat="42.231814993604175" lon="13.859740137227579"><ele>634.0</ele><time>2026-05-02T08:38:37Z</time></trkpt><trkpt lat="42.231711976671434" lon="13.859720534089568"><ele>634.0</ele><time>2026-05-02T08:38:38Z</time></trkpt><trkpt lat="42.23160163375408" lon="13.85974147129839"><ele>634.0</ele><time>2026-05-02T08:38:39Z</time></trkpt><trkpt lat="42.2314960972705" lon="13.859781305583194"><ele>634.0</ele><time>2026-05-02T08:38:40Z</time></trkpt><trkpt lat="42.231399794935605" lon="13.859832956760043"><ele>634.0</ele><time>2026-05-02T08:38:41Z</time></trkpt><trkpt lat="42.2313152582879" lon="13.85988579215643"><ele>636.0</ele><time>2026-05-02T08:38:42Z</time></trkpt><trkpt lat="42.231247750457435" lon="13.859924379433714"><ele>638.0</ele><time>2026-05-02T08:38:43Z</time></trkpt><trkpt lat="42.23118372095203" lon="13.859949529191733"><ele>640.0</ele><time>2026-05-02T08:38:44Z</time></trkpt><trkpt lat="42.2310641532782" lon="13.859949412123672"><ele>642.0</ele><time>2026-05-02T08:38:46Z</time></trkpt><trkpt lat="42.23097673585725" lon="13.859844105716462"><ele>644.0</ele><time>2026-05-02T08:38:48Z</time></trkpt><trkpt lat="42.23092100541159" lon="13.859711177056406"><ele>644.0</ele><time>2026-05-02T08:38:50Z</time></trkpt><trkpt lat="42.23085668808481" lon="13.85960056242323"><ele>644.0</ele><time>2026-05-02T08:38:52Z</time></trkpt><trkpt lat="42.23076105490836" lon="13.859543050001802"><ele>644.0</ele><time>2026-05-02T08:38:54Z</time></trkpt><trkpt lat="42.23066024931985" lon="13.859491837149788"><ele>644.0</ele><time>2026-05-02T08:38:56Z</time></trkpt><trkpt lat="42.23059835014987" lon="13.859461434091237"><ele>644.0</ele><time>2026-05-02T08:38:57Z</time></trkpt><trkpt lat="42.23050304883653" lon="13.859409577353246"><ele>644.6</ele><time>2026-05-02T08:38:59Z</time></trkpt><trkpt lat="42.23041641761554" lon="13.85931741593582"><ele>645.2</ele><time>2026-05-02T08:39:02Z</time></trkpt><trkpt lat="42.230342126418904" lon="13.859235808371977"><ele>645.8000000000001</ele><time>2026-05-02T08:39:03Z</time></trkpt><trkpt lat="42.230259908154906" lon="13.859164479636878"><ele>646.4000000000001</ele><time>2026-05-02T08:39:04Z</time></trkpt><trkpt lat="42.2301865986957" lon="13.859111563260074"><ele>647.0</ele><time>2026-05-02T08:39:05Z</time></trkpt><trkpt lat="42.230128591240565" lon="13.859070165136673"><ele>650.0</ele><time>2026-05-02T08:39:06Z</time></trkpt><trkpt lat="42.23005768043475" lon="13.85902379515022"><ele>653.0</ele><time>2026-05-02T08:39:08Z</time></trkpt><trkpt lat="42.22998682745993" lon="13.858993323392754"><ele>656.0</ele><time>2026-05-02T08:39:23Z</time></trkpt><trkpt lat="42.229951418079004" lon="13.859106454100333"><ele>659.0</ele><time>2026-05-02T08:39:24Z</time></trkpt><trkpt lat="42.22990131096105" lon="13.859171165279921"><ele>662.0</ele><time>2026-05-02T08:39:27Z</time></trkpt><trkpt lat="42.229842329558316" lon="13.858928380579744"><ele>662.0</ele><time>2026-05-02T08:39:29Z</time></trkpt><trkpt lat="42.229822292357866" lon="13.859092528492182"><ele>662.0</ele><time>2026-05-02T08:39:31Z</time></trkpt><trkpt lat="42.22978349298319" lon="13.858901937205221"><ele>662.0</ele><time>2026-05-02T08:39:32Z</time></trkpt><trkpt lat="42.229686221580764" lon="13.858919679947762"><ele>662.0</ele><time>2026-05-02T08:39:34Z</time></trkpt><trkpt lat="42.22959944097533" lon="13.858903520048488"><ele>663.8333333333333</ele><time>2026-05-02T08:39:35Z</time></trkpt><trkpt lat="42.22951153418049" lon="13.858866959353028"><ele>665.6666666666666</ele><time>2026-05-02T08:39:36Z</time></trkpt><trkpt lat="42.2294379417868" lon="13.858832452631187"><ele>667.5</ele><time>2026-05-02T08:39:37Z</time></trkpt><trkpt lat="42.229376236955325" lon="13.85879978228226"><ele>669.3333333333334</ele><time>2026-05-02T08:39:38Z</time></trkpt><trkpt lat="42.229313662878496" lon="13.858740642621976"><ele>671.1666666666667</ele><time>2026-05-02T08:39:40Z</time></trkpt><trkpt lat="42.229257763743576" lon="13.858633192435084"><ele>673.0</ele><time>2026-05-02T08:39:42Z</time></trkpt><trkpt lat="42.229202013910474" lon="13.858534193213796"><ele>676.0</ele><time>2026-05-02T08:39:44Z</time></trkpt><trkpt lat="42.229143982363034" lon="13.858369908058574"><ele>679.0</ele><time>2026-05-02T08:39:46Z</time></trkpt><trkpt lat="42.22907881744568" lon="13.858254436751018"><ele>682.0</ele><time>2026-05-02T08:39:48Z</time></trkpt><trkpt lat="42.22899026526799" lon="13.858130853035963"><ele>685.0</ele><time>2026-05-02T08:39:50Z</time></trkpt><trkpt lat="42.22894204871906" lon="13.858053481113764"><ele>688.0</ele><time>2026-05-02T08:39:51Z</time></trkpt><trkpt lat="42.228893694092946" lon="13.857977957743595"><ele>689.0</ele><time>2026-05-02T08:39:52Z</time></trkpt><trkpt lat="42.22883935603037" lon="13.857912273675469"><ele>690.0</ele><time>2026-05-02T08:39:53Z</time></trkpt><trkpt lat="42.228774356744296" lon="13.857856855759461"><ele>691.0</ele><time>2026-05-02T08:39:54Z</time></trkpt><trkpt lat="42.228697066395746" lon="13.857796985711975"><ele>692.0</ele><time>2026-05-02T08:39:55Z</time></trkpt><trkpt lat="42.22861954286757" lon="13.857746183097467"><ele>693.0</ele><time>2026-05-02T08:39:56Z</time></trkpt><trkpt lat="42.22854975746632" lon="13.857696200423348"><ele>694.0</ele><time>2026-05-02T08:39:57Z</time></trkpt><trkpt lat="42.22849144006048" lon="13.857658504607114"><ele>694.0</ele><time>2026-05-02T08:39:58Z</time></trkpt><trkpt lat="42.22839830076871" lon="13.857674256234903"><ele>694.0</ele><time>2026-05-02T08:40:00Z</time></trkpt><trkpt lat="42.22830852712717" lon="13.857766789700294"><ele>694.0</ele><time>2026-05-02T08:40:02Z</time></trkpt><trkpt lat="42.22821556623824" lon="13.857761665609504"><ele>694.0</ele><time>2026-05-02T08:40:04Z</time></trkpt><trkpt lat="42.228157030328816" lon="13.857725707083217"><ele>694.0</ele><time>2026-05-02T08:40:05Z</time></trkpt><trkpt lat="42.22809928323699" lon="13.857670714654148"><ele>694.0</ele><time>2026-05-02T08:40:06Z</time></trkpt><trkpt lat="42.228037030708755" lon="13.857612247040656"><ele>700.6</ele><time>2026-05-02T08:40:07Z</time></trkpt><trkpt lat="42.227966729898746" lon="13.857559425878389"><ele>707.2</ele><time>2026-05-02T08:40:08Z</time></trkpt><trkpt lat="42.2279101083143" lon="13.857515266150921"><ele>713.8000000000001</ele><time>2026-05-02T08:40:09Z</time></trkpt><trkpt lat="42.22782641815338" lon="13.857413048537335"><ele>720.4000000000001</ele><time>2026-05-02T08:40:11Z</time></trkpt><trkpt lat="42.22775976749281" lon="13.857304653986915"><ele>727.0</ele><time>2026-05-02T08:40:13Z</time></trkpt><trkpt lat="42.22767887665973" lon="13.857174218297603"><ele>727.0</ele><time>2026-05-02T08:40:15Z</time></trkpt><trkpt lat="42.227635811459486" lon="13.857087078200804"><ele>727.0</ele><time>2026-05-02T08:40:16Z</time></trkpt><trkpt lat="42.22760376769696" lon="13.856991522556335"><ele>727.0</ele><time>2026-05-02T08:40:17Z</time></trkpt><trkpt lat="42.22758316430497" lon="13.856891572482661"><ele>727.0</ele><time>2026-05-02T08:40:18Z</time></trkpt><trkpt lat="42.227557063159786" lon="13.856804732102955"><ele>727.0</ele><time>2026-05-02T08:40:19Z</time></trkpt><trkpt lat="42.22746220061633" lon="13.856716015277508"><ele>727.0</ele><time>2026-05-02T08:40:21Z</time></trkpt><trkpt lat="42.227382640018064" lon="13.856708362425778"><ele>731.3333333333334</ele><time>2026-05-02T08:40:22Z</time></trkpt><trkpt lat="42.22729693802326" lon="13.856712451284242"><ele>735.6666666666667</ele><time>2026-05-02T08:40:23Z</time></trkpt><trkpt lat="42.22721167448215" lon="13.856719032966703"><ele>740.0</ele><time>2026-05-02T08:40:24Z</time></trkpt><trkpt lat="42.22713928247651" lon="13.856725608019005"><ele>744.3333333333334</ele><time>2026-05-02T08:40:25Z</time></trkpt><trkpt lat="42.22702090885797" lon="13.856702125099396"><ele>748.6666666666666</ele><time>2026-05-02T08:40:27Z</time></trkpt><trkpt lat="42.22695142342579" lon="13.856659188373815"><ele>753.0</ele><time>2026-05-02T08:40:28Z</time></trkpt><trkpt lat="42.22688731599534" lon="13.856614008441284"><ele>753.0</ele><time>2026-05-02T08:40:29Z</time></trkpt><trkpt lat="42.22682686738002" lon="13.856564684977432"><ele>753.0</ele><time>2026-05-02T08:40:30Z</time></trkpt><trkpt lat="42.22676734500767" lon="13.856500124228626"><ele>753.0</ele><time>2026-05-02T08:40:31Z</time></trkpt><trkpt lat="42.22670915307371" lon="13.856435879167574"><ele>753.0</ele><time>2026-05-02T08:40:32Z</time></trkpt><trkpt lat="42.22665385538737" lon="13.856375807087693"><ele>753.0</ele><time>2026-05-02T08:40:33Z</time></trkpt><trkpt lat="42.22660481732051" lon="13.856305944695292"><ele>753.0</ele><time>2026-05-02T08:40:34Z</time></trkpt><trkpt lat="42.226573236512436" lon="13.8562209019361"><ele>753.0</ele><time>2026-05-02T08:40:35Z</time></trkpt><trkpt lat="42.22653987477756" lon="13.856117620434292"><ele>753.0</ele><time>2026-05-02T08:40:36Z</time></trkpt><trkpt lat="42.22648904167294" lon="13.856006582836455"><ele>753.0</ele><time>2026-05-02T08:40:37Z</time></trkpt><trkpt lat="42.22642384798571" lon="13.85590830260722"><ele>753.0</ele><time>2026-05-02T08:40:38Z</time></trkpt><trkpt lat="42.22635586498927" lon="13.855829804915587"><ele>753.0</ele><time>2026-05-02T08:40:39Z</time></trkpt><trkpt lat="42.226294111341474" lon="13.855750861233876"><ele>753.0</ele><time>2026-05-02T08:40:40Z</time></trkpt><trkpt lat="42.22624248060874" lon="13.855668164939257"><ele>753.0</ele><time>2026-05-02T08:40:41Z</time></trkpt><trkpt lat="42.22618907058799" lon="13.855578048279485"><ele>755.6666666666666</ele><time>2026-05-02T08:40:42Z</time></trkpt><trkpt lat="42.22612831499243" lon="13.855501916592893"><ele>758.3333333333333</ele><time>2026-05-02T08:40:43Z</time></trkpt><trkpt lat="42.22606912749722" lon="13.85544342009835"><ele>761.0</ele><time>2026-05-02T08:40:44Z</time></trkpt><trkpt lat="42.22599123937589" lon="13.855388903644226"><ele>763.6666666666666</ele><time>2026-05-02T08:40:45Z</time></trkpt><trkpt lat="42.22591476050061" lon="13.855341351361867"><ele>766.3333333333333</ele><time>2026-05-02T08:40:46Z</time></trkpt><trkpt lat="42.22583844967765" lon="13.85529629765255"><ele>769.0</ele><time>2026-05-02T08:40:47Z</time></trkpt><trkpt lat="42.22576564420595" lon="13.855277725768136"><ele>768.9999999999999</ele><time>2026-05-02T08:40:48Z</time></trkpt><trkpt lat="42.225679713299776" lon="13.855268188346704"><ele>769.0</ele><time>2026-05-02T08:40:49Z</time></trkpt><trkpt lat="42.22559982993865" lon="13.855255830607144"><ele>769.0</ele><time>2026-05-02T08:40:50Z</time></trkpt><trkpt lat="42.22553783521698" lon="13.855239021485973"><ele>769.0</ele><time>2026-05-02T08:40:51Z</time></trkpt><trkpt lat="42.225440479007624" lon="13.85523015380796"><ele>768.9999999999999</ele><time>2026-05-02T08:40:53Z</time></trkpt><trkpt lat="42.225364452115514" lon="13.855260133518929"><ele>769.0</ele><time>2026-05-02T08:41:01Z</time></trkpt><trkpt lat="42.22544372446209" lon="13.855238796263732"><ele>771.3333333333333</ele><time>2026-05-02T08:41:14Z</time></trkpt><trkpt lat="42.22544379947385" lon="13.855150249980822"><ele>773.6666666666666</ele><time>2026-05-02T08:41:24Z</time></trkpt><trkpt lat="42.225411760719695" lon="13.855056080647818"><ele>776.0</ele><time>2026-05-02T08:41:26Z</time></trkpt><trkpt lat="42.22537080742102" lon="13.854948618486176"><ele>778.3333333333333</ele><time>2026-05-02T08:41:28Z</time></trkpt><trkpt lat="42.22532827608693" lon="13.854854267784107"><ele>780.6666666666666</ele><time>2026-05-02T08:41:30Z</time></trkpt><trkpt lat="42.225289918737275" lon="13.854745979142002"><ele>783.0</ele><time>2026-05-02T08:41:32Z</time></trkpt><trkpt lat="42.22526914175623" lon="13.854657415973831"><ele>783.0</ele><time>2026-05-02T08:41:34Z</time></trkpt><trkpt lat="42.22523509300449" lon="13.854565696663721"><ele>783.0</ele><time>2026-05-02T08:41:36Z</time></trkpt><trkpt lat="42.22519875881974" lon="13.854487444463386"><ele>783.0</ele><time>2026-05-02T08:41:39Z</time></trkpt><trkpt lat="42.22516507959095" lon="13.85438204784187"><ele>783.0</ele><time>2026-05-02T08:42:40Z</time></trkpt><trkpt lat="42.225133087970995" lon="13.854269538478396"><ele>783.0</ele><time>2026-05-02T08:42:42Z</time></trkpt><trkpt lat="42.22509818745663" lon="13.854147258522445"><ele>783.0</ele><time>2026-05-02T08:42:43Z</time></trkpt><trkpt lat="42.22505952588796" lon="13.854044752999872"><ele>784.0</ele><time>2026-05-02T08:42:45Z</time></trkpt><trkpt lat="42.22503299318689" lon="13.853939658091692"><ele>785.0</ele><time>2026-05-02T08:42:48Z</time></trkpt><trkpt lat="42.22501767708128" lon="13.853857048459357"><ele>786.0</ele><time>2026-05-02T08:42:50Z</time></trkpt><trkpt lat="42.22501507129194" lon="13.853763624326572"><ele>787.0</ele><time>2026-05-02T08:42:52Z</time></trkpt><trkpt lat="42.224987748094875" lon="13.853634866695211"><ele>788.0</ele><time>2026-05-02T08:42:54Z</time></trkpt><trkpt lat="42.22499263243292" lon="13.853506854062527"><ele>789.0</ele><time>2026-05-02T08:44:04Z</time></trkpt><trkpt lat="42.225004408536854" lon="13.853419219522612"><ele>789.1428571428571</ele><time>2026-05-02T08:44:05Z</time></trkpt><trkpt lat="42.225017447794016" lon="13.853335269836455"><ele>789.2857142857142</ele><time>2026-05-02T08:44:06Z</time></trkpt><trkpt lat="42.22503517879654" lon="13.85324774790071"><ele>789.4285714285713</ele><time>2026-05-02T08:44:07Z</time></trkpt><trkpt lat="42.225063749383985" lon="13.853161837396758"><ele>789.5714285714286</ele><time>2026-05-02T08:44:08Z</time></trkpt><trkpt lat="42.22509434281966" lon="13.853075905506213"><ele>789.7142857142858</ele><time>2026-05-02T08:44:09Z</time></trkpt><trkpt lat="42.22512861309147" lon="13.852991742483297"><ele>789.8571428571428</ele><time>2026-05-02T08:44:10Z</time></trkpt><trkpt lat="42.22516489204652" lon="13.852920321404447"><ele>790.0</ele><time>2026-05-02T08:44:11Z</time></trkpt><trkpt lat="42.225228713344684" lon="13.852798324364256"><ele>789.9999999999999</ele><time>2026-05-02T08:44:13Z</time></trkpt><trkpt lat="42.225263683024274" lon="13.85272609800304"><ele>790.0</ele><time>2026-05-02T08:44:14Z</time></trkpt><trkpt lat="42.225348119147576" lon="13.852617674373514"><ele>790.0</ele><time>2026-05-02T08:44:16Z</time></trkpt><trkpt lat="42.22541304489704" lon="13.852542890264074"><ele>790.0</ele><time>2026-05-02T08:44:18Z</time></trkpt><trkpt lat="42.22548509685441" lon="13.852429501720685"><ele>789.9999999999999</ele><time>2026-05-02T08:44:28Z</time></trkpt><trkpt lat="42.22551371008399" lon="13.852352935620198"><ele>790.0</ele><time>2026-05-02T08:44:29Z</time></trkpt><trkpt lat="42.22556201186236" lon="13.852205135769793"><ele>790.4</ele><time>2026-05-02T08:44:31Z</time></trkpt><trkpt lat="42.225592074299264" lon="13.85204650272441"><ele>790.8</ele><time>2026-05-02T08:44:33Z</time></trkpt><trkpt lat="42.22560702032472" lon="13.851879070876487"><ele>791.2</ele><time>2026-05-02T08:44:35Z</time></trkpt><trkpt lat="42.22561830859795" lon="13.85171334144642"><ele>791.6</ele><time>2026-05-02T08:44:37Z</time></trkpt><trkpt lat="42.225629826177375" lon="13.851627257014764"><ele>792.0</ele><time>2026-05-02T08:44:38Z</time></trkpt><trkpt lat="42.22564362932121" lon="13.851462093597831"><ele>796.4000000000001</ele><time>2026-05-02T08:44:40Z</time></trkpt><trkpt lat="42.22565895762757" lon="13.851289413843599"><ele>800.8000000000001</ele><time>2026-05-02T08:44:42Z</time></trkpt><trkpt lat="42.22566102781247" lon="13.851119240890682"><ele>805.2</ele><time>2026-05-02T08:44:44Z</time></trkpt><trkpt lat="42.22566069880162" lon="13.851033658202372"><ele>809.6</ele><time>2026-05-02T08:44:45Z</time></trkpt><trkpt lat="42.22565830613396" lon="13.85094350155647"><ele>814.0</ele><time>2026-05-02T08:44:46Z</time></trkpt><trkpt lat="42.22565032645731" lon="13.850848169196942"><ele>815.1666666666666</ele><time>2026-05-02T08:44:47Z</time></trkpt><trkpt lat="42.22564025711527" lon="13.850762908138009"><ele>816.3333333333333</ele><time>2026-05-02T08:44:48Z</time></trkpt><trkpt lat="42.22562875909908" lon="13.850672039008746"><ele>817.5</ele><time>2026-05-02T08:44:49Z</time></trkpt><trkpt lat="42.2256153762906" lon="13.8505000348269"><ele>818.6666666666667</ele><time>2026-05-02T08:44:51Z</time></trkpt><trkpt lat="42.2256034009001" lon="13.850410119617143"><ele>819.8333333333334</ele><time>2026-05-02T08:44:52Z</time></trkpt><trkpt lat="42.225587872784665" lon="13.850313854949588"><ele>821.0</ele><time>2026-05-02T08:44:53Z</time></trkpt><trkpt lat="42.225576294280565" lon="13.85022034547976"><ele>824.4</ele><time>2026-05-02T08:44:54Z</time></trkpt><trkpt lat="42.22557149551562" lon="13.850123227483833"><ele>827.8</ele><time>2026-05-02T08:44:55Z</time></trkpt><trkpt lat="42.22556835831201" lon="13.850026676446413"><ele>831.1999999999999</ele><time>2026-05-02T08:44:56Z</time></trkpt><trkpt lat="42.22554714235223" lon="13.849870430253853"><ele>834.5999999999999</ele><time>2026-05-02T08:44:58Z</time></trkpt><trkpt lat="42.22550746985601" lon="13.849705411687234"><ele>838.0</ele><time>2026-05-02T08:45:00Z</time></trkpt><trkpt lat="42.225489426618424" lon="13.849618944293711"><ele>838.0</ele><time>2026-05-02T08:45:01Z</time></trkpt><trkpt lat="42.225478769377645" lon="13.84953308094876"><ele>838.0</ele><time>2026-05-02T08:45:02Z</time></trkpt><trkpt lat="42.22552402232795" lon="13.849398799297747"><ele>838.0</ele><time>2026-05-02T08:45:04Z</time></trkpt><trkpt lat="42.22564067302502" lon="13.849330153297739"><ele>838.0</ele><time>2026-05-02T08:45:06Z</time></trkpt><trkpt lat="42.225723105739746" lon="13.849320009313026"><ele>838.0</ele><time>2026-05-02T08:45:07Z</time></trkpt><trkpt lat="42.225811508303856" lon="13.849305596028893"><ele>844.1666666666666</ele><time>2026-05-02T08:45:08Z</time></trkpt><trkpt lat="42.22589709885389" lon="13.849274283920213"><ele>850.3333333333333</ele><time>2026-05-02T08:45:09Z</time></trkpt><trkpt lat="42.22596519837793" lon="13.849231827805104"><ele>856.5</ele><time>2026-05-02T08:45:10Z</time></trkpt><trkpt lat="42.22603122732579" lon="13.849196789859047"><ele>862.6666666666667</ele><time>2026-05-02T08:45:11Z</time></trkpt><trkpt lat="42.22609823121734" lon="13.849162195325286"><ele>868.8333333333334</ele><time>2026-05-02T08:45:12Z</time></trkpt><trkpt lat="42.22617594122591" lon="13.849141440130296"><ele>875.0</ele><time>2026-05-02T08:45:13Z</time></trkpt><trkpt lat="42.22625331322755" lon="13.84912321511223"><ele>875.0</ele><time>2026-05-02T08:45:14Z</time></trkpt><trkpt lat="42.226332631440705" lon="13.849112751554166"><ele>875.0</ele><time>2026-05-02T08:45:15Z</time></trkpt><trkpt lat="42.22641740201094" lon="13.849099413455416"><ele>875.0</ele><time>2026-05-02T08:45:16Z</time></trkpt><trkpt lat="42.22652110486319" lon="13.849074821625702"><ele>875.0</ele><time>2026-05-02T08:45:17Z</time></trkpt><trkpt lat="42.22662255446389" lon="13.84904168304004"><ele>875.0</ele><time>2026-05-02T08:45:18Z</time></trkpt><trkpt lat="42.2267194237328" lon="13.84902155580514"><ele>874.1666666666667</ele><time>2026-05-02T08:45:19Z</time></trkpt><trkpt lat="42.226801646534696" lon="13.849011015164363"><ele>873.3333333333334</ele><time>2026-05-02T08:45:20Z</time></trkpt><trkpt lat="42.226878925254965" lon="13.849006007733633"><ele>872.5</ele><time>2026-05-02T08:45:21Z</time></trkpt><trkpt lat="42.226959678827384" lon="13.848987840319818"><ele>871.6666666666667</ele><time>2026-05-02T08:45:22Z</time></trkpt><trkpt lat="42.227036129503745" lon="13.848956628758453"><ele>870.8333333333334</ele><time>2026-05-02T08:45:23Z</time></trkpt><trkpt lat="42.22713043330382" lon="13.848933125810177"><ele>870.0</ele><time>2026-05-02T08:45:24Z</time></trkpt><trkpt lat="42.227208888223394" lon="13.84890961927752"><ele>870.0</ele><time>2026-05-02T08:45:25Z</time></trkpt><trkpt lat="42.227285279808385" lon="13.848896618185728"><ele>870.0</ele><time>2026-05-02T08:45:26Z</time></trkpt><trkpt lat="42.227358135477914" lon="13.848873363758992"><ele>870.0</ele><time>2026-05-02T08:45:27Z</time></trkpt><trkpt lat="42.227436823594545" lon="13.848847359835998"><ele>870.0</ele><time>2026-05-02T08:45:28Z</time></trkpt><trkpt lat="42.22750211343331" lon="13.848819393935823"><ele>870.0</ele><time>2026-05-02T08:45:29Z</time></trkpt><trkpt lat="42.22757475457771" lon="13.848821379743692"><ele>870.0</ele><time>2026-05-02T08:45:30Z</time></trkpt><trkpt lat="42.22765521539979" lon="13.848832236186384"><ele>870.1666666666666</ele><time>2026-05-02T08:45:31Z</time></trkpt><trkpt lat="42.22773778464423" lon="13.848855156988822"><ele>870.3333333333333</ele><time>2026-05-02T08:45:32Z</time></trkpt><trkpt lat="42.227822618978735" lon="13.84888924637721"><ele>870.5</ele><time>2026-05-02T08:45:33Z</time></trkpt><trkpt lat="42.22791342333349" lon="13.848917274982163"><ele>870.6666666666666</ele><time>2026-05-02T08:45:34Z</time></trkpt><trkpt lat="42.227999425430674" lon="13.848953723712258"><ele>870.8333333333333</ele><time>2026-05-02T08:45:35Z</time></trkpt><trkpt lat="42.2280773017012" lon="13.84897204071287"><ele>871.0</ele><time>2026-05-02T08:45:36Z</time></trkpt><trkpt lat="42.22816604327566" lon="13.848985663444575"><ele>870.9999999999999</ele><time>2026-05-02T08:45:37Z</time></trkpt><trkpt lat="42.22825922588914" lon="13.848976908588988"><ele>871.0</ele><time>2026-05-02T08:45:38Z</time></trkpt><trkpt lat="42.22835296644311" lon="13.848950439917875"><ele>871.0</ele><time>2026-05-02T08:45:39Z</time></trkpt><trkpt lat="42.22841757195963" lon="13.84899981066356"><ele>871.0</ele><time>2026-05-02T08:45:40Z</time></trkpt><trkpt lat="42.22848583516638" lon="13.849001416098226"><ele>870.9999999999999</ele><time>2026-05-02T08:45:41Z</time></trkpt><trkpt lat="42.2285509438808" lon="13.848967880878954"><ele>871.0</ele><time>2026-05-02T08:45:42Z</time></trkpt><trkpt lat="42.2286228760731" lon="13.848923705228561"><ele>870.9999999999999</ele><time>2026-05-02T08:45:43Z</time></trkpt><trkpt lat="42.2286984189937" lon="13.84888588970964"><ele>871.0</ele><time>2026-05-02T08:45:44Z</time></trkpt><trkpt lat="42.228788091548566" lon="13.848879455957391"><ele>871.0</ele><time>2026-05-02T08:45:45Z</time></trkpt><trkpt lat="42.228874364459486" lon="13.848902743001558"><ele>871.0</ele><time>2026-05-02T08:45:46Z</time></trkpt><trkpt lat="42.22894301197551" lon="13.848963285314522"><ele>870.9999999999999</ele><time>2026-05-02T08:45:47Z</time></trkpt><trkpt lat="42.22901853947938" lon="13.849022579720101"><ele>871.0</ele><time>2026-05-02T08:45:48Z</time></trkpt><trkpt lat="42.229107769554524" lon="13.849080195301175"><ele>872.8333333333333</ele><time>2026-05-02T08:45:49Z</time></trkpt><trkpt lat="42.22919435442236" lon="13.84913165533234"><ele>874.6666666666666</ele><time>2026-05-02T08:45:50Z</time></trkpt><trkpt lat="42.22927584291205" lon="13.849178919787047"><ele>876.5</ele><time>2026-05-02T08:45:51Z</time></trkpt><trkpt lat="42.2293472961628" lon="13.849249457547055"><ele>878.3333333333333</ele><time>2026-05-02T08:45:52Z</time></trkpt><trkpt lat="42.22940983191806" lon="13.849311343096526"><ele>880.1666666666666</ele><time>2026-05-02T08:45:53Z</time></trkpt><trkpt lat="42.22947358254113" lon="13.849340395701002"><ele>882.0</ele><time>2026-05-02T08:45:54Z</time></trkpt><trkpt lat="42.22954212400548" lon="13.84934561508864"><ele>882.0</ele><time>2026-05-02T08:45:55Z</time></trkpt><trkpt lat="42.22964233311035" lon="13.849296550201547"><ele>882.0</ele><time>2026-05-02T08:45:57Z</time></trkpt><trkpt lat="42.229706512654325" lon="13.849255084979715"><ele>882.0</ele><time>2026-05-02T08:45:58Z</time></trkpt><trkpt lat="42.22978150478695" lon="13.8492181018029"><ele>882.0</ele><time>2026-05-02T08:45:59Z</time></trkpt><trkpt lat="42.2298665733889" lon="13.849172371662661"><ele>882.0</ele><time>2026-05-02T08:46:00Z</time></trkpt><trkpt lat="42.22994420443783" lon="13.84911599655998"><ele>882.0</ele><time>2026-05-02T08:46:01Z</time></trkpt><trkpt lat="42.2300121309993" lon="13.849063380888415"><ele>882.8</ele><time>2026-05-02T08:46:02Z</time></trkpt><trkpt lat="42.23007817991643" lon="13.849030600884076"><ele>883.6</ele><time>2026-05-02T08:46:03Z</time></trkpt><trkpt lat="42.2302072910401" lon="13.848994045983638"><ele>884.3999999999999</ele><time>2026-05-02T08:46:05Z</time></trkpt><trkpt lat="42.23029911481392" lon="13.848960216050571"><ele>885.1999999999999</ele><time>2026-05-02T08:46:06Z</time></trkpt><trkpt lat="42.23038870360571" lon="13.848904694114013"><ele>886.0</ele><time>2026-05-02T08:46:07Z</time></trkpt><trkpt lat="42.23047401350964" lon="13.848865355543325"><ele>886.0</ele><time>2026-05-02T08:46:08Z</time></trkpt><trkpt lat="42.230560361378366" lon="13.848809577884326"><ele>885.9999999999999</ele><time>2026-05-02T08:46:09Z</time></trkpt><trkpt lat="42.230664970032436" lon="13.848760780985934"><ele>885.9999999999999</ele><time>2026-05-02T08:46:10Z</time></trkpt><trkpt lat="42.23076618391052" lon="13.84872555061442"><ele>886.0</ele><time>2026-05-02T08:46:11Z</time></trkpt><trkpt lat="42.23087301507187" lon="13.848681004722584"><ele>886.0</ele><time>2026-05-02T08:46:12Z</time></trkpt><trkpt lat="42.23098944593633" lon="13.848643844425728"><ele>886.0</ele><time>2026-05-02T08:46:13Z</time></trkpt><trkpt lat="42.23109791527729" lon="13.848578719350416"><ele>885.9999999999999</ele><time>2026-05-02T08:46:14Z</time></trkpt><trkpt lat="42.23119925641904" lon="13.848533409346318"><ele>885.9999999999999</ele><time>2026-05-02T08:46:15Z</time></trkpt><trkpt lat="42.231295921737164" lon="13.848490684506023"><ele>886.0</ele><time>2026-05-02T08:46:16Z</time></trkpt><trkpt lat="42.231402580474956" lon="13.848455041523163"><ele>886.0</ele><time>2026-05-02T08:46:17Z</time></trkpt><trkpt lat="42.231504721364296" lon="13.84839204084661"><ele>890.0</ele><time>2026-05-02T08:46:18Z</time></trkpt><trkpt lat="42.23161015062628" lon="13.848364232589823"><ele>893.9999999999999</ele><time>2026-05-02T08:46:19Z</time></trkpt><trkpt lat="42.23170783522368" lon="13.848377189368488"><ele>897.9999999999999</ele><time>2026-05-02T08:46:20Z</time></trkpt><trkpt lat="42.231801861802104" lon="13.848374253026435"><ele>902.0</ele><time>2026-05-02T08:46:21Z</time></trkpt><trkpt lat="42.23187771387482" lon="13.848376295068425"><ele>906.0</ele><time>2026-05-02T08:46:22Z</time></trkpt><trkpt lat="42.23196246360807" lon="13.848361274261547"><ele>905.9999999999999</ele><time>2026-05-02T08:46:23Z</time></trkpt><trkpt lat="42.23202935207331" lon="13.848339742266834"><ele>906.0</ele><time>2026-05-02T08:46:24Z</time></trkpt><trkpt lat="42.23208741158329" lon="13.848295465293022"><ele>905.9999999999999</ele><time>2026-05-02T08:46:25Z</time></trkpt><trkpt lat="42.23213295346253" lon="13.848214092371983"><ele>905.9999999999999</ele><time>2026-05-02T08:46:26Z</time></trkpt><trkpt lat="42.232177175693565" lon="13.848133934353799"><ele>906.0</ele><time>2026-05-02T08:46:27Z</time></trkpt><trkpt lat="42.2322295494262" lon="13.848075598540282"><ele>905.9999999999999</ele><time>2026-05-02T08:46:28Z</time></trkpt><trkpt lat="42.23228810249293" lon="13.84803717506808"><ele>905.9999999999999</ele><time>2026-05-02T08:46:29Z</time></trkpt><trkpt lat="42.23235028114544" lon="13.848017681296138"><ele>905.8333333333334</ele><time>2026-05-02T08:46:30Z</time></trkpt><trkpt lat="42.232414361713914" lon="13.848024318802894"><ele>905.6666666666667</ele><time>2026-05-02T08:46:31Z</time></trkpt><trkpt lat="42.23247909960205" lon="13.848035818191786"><ele>905.5</ele><time>2026-05-02T08:46:32Z</time></trkpt><trkpt lat="42.232574077599104" lon="13.848041072099097"><ele>905.3333333333334</ele><time>2026-05-02T08:46:34Z</time></trkpt><trkpt lat="42.23256288988922" lon="13.84795261112848"><ele>905.1666666666667</ele><time>2026-05-02T08:46:41Z</time></trkpt><trkpt lat="42.23249316110183" lon="13.847902291587909"><ele>905.0</ele><time>2026-05-02T08:46:42Z</time></trkpt><trkpt lat="42.23242172550082" lon="13.847838384118425"><ele>905.0</ele><time>2026-05-02T08:46:43Z</time></trkpt><trkpt lat="42.23233700102617" lon="13.847766785225641"><ele>905.0</ele><time>2026-05-02T08:46:44Z</time></trkpt><trkpt lat="42.23225517041188" lon="13.847703421391437"><ele>905.0</ele><time>2026-05-02T08:46:45Z</time></trkpt><trkpt lat="42.23216949673849" lon="13.84764039503165"><ele>905.0</ele><time>2026-05-02T08:46:46Z</time></trkpt><trkpt lat="42.23207306918074" lon="13.847587046321427"><ele>905.0</ele><time>2026-05-02T08:46:47Z</time></trkpt><trkpt lat="42.231996335002826" lon="13.847514877490875"><ele>909.3333333333334</ele><time>2026-05-02T08:46:48Z</time></trkpt><trkpt lat="42.23191716092957" lon="13.847432640766606"><ele>913.6666666666667</ele><time>2026-05-02T08:46:49Z</time></trkpt><trkpt lat="42.23184268637903" lon="13.847364475367023"><ele>918.0</ele><time>2026-05-02T08:46:50Z</time></trkpt><trkpt lat="42.23177475266775" lon="13.84732296677157"><ele>922.3333333333333</ele><time>2026-05-02T08:46:51Z</time></trkpt><trkpt lat="42.23169414507056" lon="13.847296393892934"><ele>926.6666666666666</ele><time>2026-05-02T08:46:52Z</time></trkpt><trkpt lat="42.231604946882534" lon="13.847302563719733"><ele>931.0</ele><time>2026-05-02T08:46:53Z</time></trkpt><trkpt lat="42.23152773397877" lon="13.847233491940926"><ele>930.9999999999999</ele><time>2026-05-02T08:46:54Z</time></trkpt><trkpt lat="42.231449308922734" lon="13.847214844378692"><ele>931.0</ele><time>2026-05-02T08:46:55Z</time></trkpt><trkpt lat="42.23138213484868" lon="13.847193326817782"><ele>931.0</ele><time>2026-05-02T08:46:56Z</time></trkpt><trkpt lat="42.231312482023284" lon="13.847158352037189"><ele>931.0</ele><time>2026-05-02T08:46:57Z</time></trkpt><trkpt lat="42.231238419464695" lon="13.847097882742887"><ele>930.9999999999999</ele><time>2026-05-02T08:46:58Z</time></trkpt><trkpt lat="42.23115652042268" lon="13.847012184680503"><ele>931.0</ele><time>2026-05-02T08:46:59Z</time></trkpt><trkpt lat="42.23107306596038" lon="13.846956179352926"><ele>931.0</ele><time>2026-05-02T08:47:00Z</time></trkpt><trkpt lat="42.231003784281214" lon="13.846918722381107"><ele>930.9999999999999</ele><time>2026-05-02T08:47:01Z</time></trkpt><trkpt lat="42.23091032891212" lon="13.846894351987816"><ele>930.9999999999999</ele><time>2026-05-02T08:47:02Z</time></trkpt><trkpt lat="42.23082092538739" lon="13.84690405135086"><ele>931.0</ele><time>2026-05-02T08:47:03Z</time></trkpt><trkpt lat="42.2307303917825" lon="13.846931332390195"><ele>931.0</ele><time>2026-05-02T08:47:04Z</time></trkpt><trkpt lat="42.23061947008481" lon="13.846974851989124"><ele>931.5999999999999</ele><time>2026-05-02T08:47:05Z</time></trkpt><trkpt lat="42.230506302415804" lon="13.847018706647214"><ele>932.1999999999999</ele><time>2026-05-02T08:47:06Z</time></trkpt><trkpt lat="42.23039248470664" lon="13.847057139220096"><ele>932.8000000000001</ele><time>2026-05-02T08:47:07Z</time></trkpt><trkpt lat="42.2302901871365" lon="13.847091681811104"><ele>933.4000000000001</ele><time>2026-05-02T08:47:08Z</time></trkpt><trkpt lat="42.23018653096752" lon="13.84712783384993"><ele>934.0</ele><time>2026-05-02T08:47:09Z</time></trkpt><trkpt lat="42.23008078965653" lon="13.847166472282666"><ele>934.0</ele><time>2026-05-02T08:47:10Z</time></trkpt><trkpt lat="42.2299720558266" lon="13.847213241891788"><ele>934.0</ele><time>2026-05-02T08:47:11Z</time></trkpt><trkpt lat="42.22986369551741" lon="13.84726713120467"><ele>934.0</ele><time>2026-05-02T08:47:12Z</time></trkpt><trkpt lat="42.22975478417561" lon="13.847319358753852"><ele>934.0</ele><time>2026-05-02T08:47:13Z</time></trkpt><trkpt lat="42.229648852077396" lon="13.847370080735349"><ele>935.2</ele><time>2026-05-02T08:47:14Z</time></trkpt><trkpt lat="42.22954319258388" lon="13.847420672189799"><ele>936.4000000000001</ele><time>2026-05-02T08:47:15Z</time></trkpt><trkpt lat="42.229442387004234" lon="13.847465995104049"><ele>937.6</ele><time>2026-05-02T08:47:16Z</time></trkpt><trkpt lat="42.229337817085025" lon="13.847506726917995"><ele>938.8</ele><time>2026-05-02T08:47:17Z</time></trkpt><trkpt lat="42.22923024396445" lon="13.847543360088954"><ele>940.0</ele><time>2026-05-02T08:47:18Z</time></trkpt><trkpt lat="42.229122305975125" lon="13.847573657486697"><ele>940.0</ele><time>2026-05-02T08:47:19Z</time></trkpt><trkpt lat="42.22901691467641" lon="13.847594710416207"><ele>940.0</ele><time>2026-05-02T08:47:20Z</time></trkpt><trkpt lat="42.22890635460497" lon="13.847608933732134"><ele>940.0</ele><time>2026-05-02T08:47:21Z</time></trkpt><trkpt lat="42.22879320669048" lon="13.847629733297852"><ele>940.0</ele><time>2026-05-02T08:47:22Z</time></trkpt><trkpt lat="42.22868575825534" lon="13.847665310095037"><ele>940.0</ele><time>2026-05-02T08:47:23Z</time></trkpt><trkpt lat="42.22858310560442" lon="13.847695335732293"><ele>933.2</ele><time>2026-05-02T08:47:24Z</time></trkpt><trkpt lat="42.22847837835383" lon="13.847720592700563"><ele>926.4</ele><time>2026-05-02T08:47:25Z</time></trkpt><trkpt lat="42.22837508555113" lon="13.847738411125999"><ele>919.5999999999999</ele><time>2026-05-02T08:47:26Z</time></trkpt><trkpt lat="42.228269853781654" lon="13.847749508422098"><ele>912.8</ele><time>2026-05-02T08:47:27Z</time></trkpt><trkpt lat="42.2281639445112" lon="13.847758207217012"><ele>906.0</ele><time>2026-05-02T08:47:28Z</time></trkpt><trkpt lat="42.22806711673925" lon="13.847761968869168"><ele>904.8</ele><time>2026-05-02T08:47:29Z</time></trkpt><trkpt lat="42.227980141512326" lon="13.847763788754069"><ele>903.5999999999999</ele><time>2026-05-02T08:47:30Z</time></trkpt><trkpt lat="42.2278824817509" lon="13.847764554017116"><ele>902.4</ele><time>2026-05-02T08:47:31Z</time></trkpt><trkpt lat="42.2277802131566" lon="13.847763346361523"><ele>901.2</ele><time>2026-05-02T08:47:32Z</time></trkpt><trkpt lat="42.22767479756694" lon="13.847761398035518"><ele>900.0</ele><time>2026-05-02T08:47:33Z</time></trkpt><trkpt lat="42.22756682576045" lon="13.847758246718925"><ele>900.0</ele><time>2026-05-02T08:47:34Z</time></trkpt><trkpt lat="42.22745392935181" lon="13.847754951672455"><ele>900.0</ele><time>2026-05-02T08:47:35Z</time></trkpt><trkpt lat="42.22734017358939" lon="13.847751584345902"><ele>900.0</ele><time>2026-05-02T08:47:36Z</time></trkpt><trkpt lat="42.22722283765005" lon="13.847748091430155"><ele>900.0</ele><time>2026-05-02T08:47:37Z</time></trkpt><trkpt lat="42.227107637058474" lon="13.847745441122925"><ele>900.75</ele><time>2026-05-02T08:47:38Z</time></trkpt><trkpt lat="42.226990299681326" lon="13.847744155363388"><ele>901.5</ele><time>2026-05-02T08:47:39Z</time></trkpt><trkpt lat="42.22687195690425" lon="13.847743279043351"><ele>902.25</ele><time>2026-05-02T08:47:40Z</time></trkpt><trkpt lat="42.22675251766111" lon="13.847743617125795"><ele>903.0</ele><time>2026-05-02T08:47:41Z</time></trkpt><trkpt lat="42.226630496554804" lon="13.847743962516544"><ele>903.0</ele><time>2026-05-02T08:47:42Z</time></trkpt><trkpt lat="42.226513883184495" lon="13.847744292599417"><ele>903.0</ele><time>2026-05-02T08:47:43Z</time></trkpt><trkpt lat="42.22639589629208" lon="13.847744907094155"><ele>903.0</ele><time>2026-05-02T08:47:44Z</time></trkpt><trkpt lat="42.2262863500064" lon="13.847747839079073"><ele>903.0</ele><time>2026-05-02T08:47:45Z</time></trkpt><trkpt lat="42.226178556242424" lon="13.847750724157727"><ele>903.4</ele><time>2026-05-02T08:47:46Z</time></trkpt><trkpt lat="42.22607328236711" lon="13.847753252901873"><ele>903.8</ele><time>2026-05-02T08:47:47Z</time></trkpt><trkpt lat="42.225972632951674" lon="13.847753109734624"><ele>904.2</ele><time>2026-05-02T08:47:48Z</time></trkpt><trkpt lat="42.225874203274394" lon="13.847751678608704"><ele>904.6</ele><time>2026-05-02T08:47:49Z</time></trkpt><trkpt lat="42.22577339175012" lon="13.847747915555445"><ele>905.0</ele><time>2026-05-02T08:47:50Z</time></trkpt><trkpt lat="42.22567999080786" lon="13.847733442710659"><ele>902.4</ele><time>2026-05-02T08:47:51Z</time></trkpt><trkpt lat="42.22559285219325" lon="13.847709728771061"><ele>899.8</ele><time>2026-05-02T08:47:52Z</time></trkpt><trkpt lat="42.22550940086004" lon="13.847672681337214"><ele>897.2</ele><time>2026-05-02T08:47:53Z</time></trkpt><trkpt lat="42.22542232320022" lon="13.847619268116764"><ele>894.6</ele><time>2026-05-02T08:47:54Z</time></trkpt><trkpt lat="42.225332909577176" lon="13.847552297525137"><ele>892.0</ele><time>2026-05-02T08:47:55Z</time></trkpt><trkpt lat="42.225230203050856" lon="13.847495268208398"><ele>894.25</ele><time>2026-05-02T08:47:56Z</time></trkpt><trkpt lat="42.22512089749763" lon="13.847453557617253"><ele>896.5</ele><time>2026-05-02T08:47:57Z</time></trkpt><trkpt lat="42.224998089183934" lon="13.847407747237476"><ele>898.75</ele><time>2026-05-02T08:47:58Z</time></trkpt><trkpt lat="42.224887916318494" lon="13.847363780825146"><ele>901.0</ele><time>2026-05-02T08:47:59Z</time></trkpt><trkpt lat="42.22479604646254" lon="13.847322622186889"><ele>900.9999999999999</ele><time>2026-05-02T08:48:00Z</time></trkpt><trkpt lat="42.22473645403777" lon="13.847280450938237"><ele>901.0</ele><time>2026-05-02T08:48:01Z</time></trkpt><trkpt lat="42.224654147240926" lon="13.847183322094855"><ele>901.0</ele><time>2026-05-02T08:48:03Z</time></trkpt><trkpt lat="42.224643383218286" lon="13.847093611441798"><ele>901.0</ele><time>2026-05-02T08:48:04Z</time></trkpt><trkpt lat="42.224639521321464" lon="13.846991398418766"><ele>900.9999999999999</ele><time>2026-05-02T08:48:05Z</time></trkpt><trkpt lat="42.22463325978121" lon="13.846887940399062"><ele>901.0</ele><time>2026-05-02T08:48:06Z</time></trkpt><trkpt lat="42.22465803320574" lon="13.84680047930377"><ele>905.75</ele><time>2026-05-02T08:48:07Z</time></trkpt><trkpt lat="42.22472043776" lon="13.846651946494385"><ele>910.5</ele><time>2026-05-02T08:48:09Z</time></trkpt><trkpt lat="42.22478800521246" lon="13.84655813191694"><ele>915.25</ele><time>2026-05-02T08:48:10Z</time></trkpt><trkpt lat="42.22486372524516" lon="13.846440279510063"><ele>920.0</ele><time>2026-05-02T08:48:11Z</time></trkpt><trkpt lat="42.22494606175984" lon="13.846318280946845"><ele>924.25</ele><time>2026-05-02T08:48:12Z</time></trkpt><trkpt lat="42.22503376256221" lon="13.846203288109054"><ele>928.5</ele><time>2026-05-02T08:48:13Z</time></trkpt><trkpt lat="42.22512372967401" lon="13.846104841739844"><ele>932.75</ele><time>2026-05-02T08:48:14Z</time></trkpt><trkpt lat="42.22521798091051" lon="13.846023702378934"><ele>937.0</ele><time>2026-05-02T08:48:15Z</time></trkpt><trkpt lat="42.22531741559939" lon="13.845953299892722"><ele>939.2</ele><time>2026-05-02T08:48:16Z</time></trkpt><trkpt lat="42.22541620030678" lon="13.845895632434312"><ele>941.4000000000001</ele><time>2026-05-02T08:48:17Z</time></trkpt><trkpt lat="42.22552112554186" lon="13.845825713832237"><ele>943.5999999999999</ele><time>2026-05-02T08:48:18Z</time></trkpt><trkpt lat="42.22562617610733" lon="13.845752583103758"><ele>945.8</ele><time>2026-05-02T08:48:19Z</time></trkpt><trkpt lat="42.22572092179271" lon="13.845689105981567"><ele>948.0</ele><time>2026-05-02T08:48:20Z</time></trkpt><trkpt lat="42.22581532205525" lon="13.845632991994046"><ele>948.5</ele><time>2026-05-02T08:48:21Z</time></trkpt><trkpt lat="42.225913160944884" lon="13.845552760862569"><ele>949.0</ele><time>2026-05-02T08:48:22Z</time></trkpt><trkpt lat="42.22601933108154" lon="13.84546699412513"><ele>949.5</ele><time>2026-05-02T08:48:23Z</time></trkpt><trkpt lat="42.22611736212439" lon="13.845379738131994"><ele>950.0</ele><time>2026-05-02T08:48:24Z</time></trkpt><trkpt lat="42.226206211989016" lon="13.845297735558205"><ele>950.0</ele><time>2026-05-02T08:48:25Z</time></trkpt><trkpt lat="42.22628560645385" lon="13.845211079687502"><ele>950.0</ele><time>2026-05-02T08:48:26Z</time></trkpt><trkpt lat="42.226372363038145" lon="13.845123369373363"><ele>950.0</ele><time>2026-05-02T08:48:27Z</time></trkpt><trkpt lat="42.226464074445" lon="13.84502351050861"><ele>950.0</ele><time>2026-05-02T08:48:28Z</time></trkpt><trkpt lat="42.22655790324691" lon="13.844929865733738"><ele>950.0</ele><time>2026-05-02T08:48:29Z</time></trkpt><trkpt lat="42.22664461392364" lon="13.844844442614022"><ele>953.5</ele><time>2026-05-02T08:48:30Z</time></trkpt><trkpt lat="42.22673881083149" lon="13.844767629876026"><ele>957.0</ele><time>2026-05-02T08:48:31Z</time></trkpt><trkpt lat="42.226854600387384" lon="13.844678027246829"><ele>960.5</ele><time>2026-05-02T08:48:32Z</time></trkpt><trkpt lat="42.22697416429005" lon="13.844581293383907"><ele>964.0</ele><time>2026-05-02T08:48:33Z</time></trkpt><trkpt lat="42.2270871964506" lon="13.844487207696998"><ele>964.0</ele><time>2026-05-02T08:48:34Z</time></trkpt><trkpt lat="42.227201831716776" lon="13.844392359891788"><ele>964.0</ele><time>2026-05-02T08:48:35Z</time></trkpt><trkpt lat="42.22732319054789" lon="13.84429794213142"><ele>964.0</ele><time>2026-05-02T08:48:36Z</time></trkpt><trkpt lat="42.22744047037201" lon="13.844214249888946"><ele>964.0</ele><time>2026-05-02T08:48:37Z</time></trkpt><trkpt lat="42.227525837151866" lon="13.844153923938576"><ele>967.0</ele><time>2026-05-02T08:48:38Z</time></trkpt><trkpt lat="42.227589882960025" lon="13.844107763155439"><ele>970.0000000000001</ele><time>2026-05-02T08:48:39Z</time></trkpt><trkpt lat="42.22767556039491" lon="13.84399614303272"><ele>973.0000000000001</ele><time>2026-05-02T08:48:41Z</time></trkpt><trkpt lat="42.22766326589512" lon="13.843850677369774"><ele>976.0</ele><time>2026-05-02T08:48:43Z</time></trkpt><trkpt lat="42.227583948250675" lon="13.843746243218073"><ele>979.0</ele><time>2026-05-02T08:48:45Z</time></trkpt><trkpt lat="42.22751504342489" lon="13.843728314523437"><ele>978.9999999999999</ele><time>2026-05-02T08:48:46Z</time></trkpt><trkpt lat="42.227438007324714" lon="13.843752467373909"><ele>979.0</ele><time>2026-05-02T08:48:47Z</time></trkpt><trkpt lat="42.22736178247922" lon="13.843771418956608"><ele>979.0</ele><time>2026-05-02T08:48:48Z</time></trkpt><trkpt lat="42.227286939151924" lon="13.843787410682264"><ele>979.0</ele><time>2026-05-02T08:48:49Z</time></trkpt><trkpt lat="42.2272029128818" lon="13.843795425903213"><ele>978.9999999999999</ele><time>2026-05-02T08:48:50Z</time></trkpt><trkpt lat="42.2271188022932" lon="13.843793690731006"><ele>979.0</ele><time>2026-05-02T08:48:51Z</time></trkpt><trkpt lat="42.22702881486173" lon="13.843787553922779"><ele>980.2</ele><time>2026-05-02T08:48:52Z</time></trkpt><trkpt lat="42.22693712231015" lon="13.84378110758275"><ele>981.4000000000001</ele><time>2026-05-02T08:48:53Z</time></trkpt><trkpt lat="42.226838105706655" lon="13.843777094808216"><ele>982.6</ele><time>2026-05-02T08:48:54Z</time></trkpt><trkpt lat="42.226764024514615" lon="13.84377709481067"><ele>983.8</ele><time>2026-05-02T08:48:55Z</time></trkpt><trkpt lat="42.22665406984578" lon="13.843799465120801"><ele>985.0</ele><time>2026-05-02T08:48:57Z</time></trkpt><trkpt lat="42.226542479279495" lon="13.843730453683332"><ele>985.0</ele><time>2026-05-02T08:48:59Z</time></trkpt><trkpt lat="42.22650530615717" lon="13.843641630060526"><ele>985.0000000000001</ele><time>2026-05-02T08:49:01Z</time></trkpt><trkpt lat="42.22653419008698" lon="13.843720162476208"><ele>985.0</ele><time>2026-05-02T08:49:08Z</time></trkpt><trkpt lat="42.2266017540727" lon="13.843766029241234"><ele>985.0</ele><time>2026-05-02T08:49:15Z</time></trkpt><trkpt lat="42.22662107035101" lon="13.84384727195826"><ele>985.0000000000001</ele><time>2026-05-02T08:49:18Z</time></trkpt><trkpt lat="42.22655820439309" lon="13.843899695991235"><ele>985.0</ele><time>2026-05-02T08:49:29Z</time></trkpt><trkpt lat="42.226492343628465" lon="13.843925841153313"><ele>985.0</ele><time>2026-05-02T08:49:30Z</time></trkpt><trkpt lat="42.22640887085158" lon="13.843960413374806"><ele>986.0</ele><time>2026-05-02T08:49:31Z</time></trkpt><trkpt lat="42.226312370965516" lon="13.844001138674246"><ele>987.0</ele><time>2026-05-02T08:49:32Z</time></trkpt><trkpt lat="42.2262119186773" lon="13.844048180836342"><ele>988.0</ele><time>2026-05-02T08:49:33Z</time></trkpt><trkpt lat="42.226109962526515" lon="13.84409581640165"><ele>989.0</ele><time>2026-05-02T08:49:34Z</time></trkpt><trkpt lat="42.22600133461835" lon="13.84414841677472"><ele>990.0</ele><time>2026-05-02T08:49:35Z</time></trkpt><trkpt lat="42.225888751219884" lon="13.844196630475304"><ele>990.0</ele><time>2026-05-02T08:49:36Z</time></trkpt><trkpt lat="42.22576971069226" lon="13.844201449671255"><ele>990.0</ele><time>2026-05-02T08:49:37Z</time></trkpt><trkpt lat="42.225675992012235" lon="13.844265664499382"><ele>990.0</ele><time>2026-05-02T08:49:38Z</time></trkpt><trkpt lat="42.225586200584026" lon="13.844306971993317"><ele>990.0</ele><time>2026-05-02T08:49:39Z</time></trkpt><trkpt lat="42.225502261060335" lon="13.84435947050608"><ele>990.0</ele><time>2026-05-02T08:49:40Z</time></trkpt><trkpt lat="42.22541472108132" lon="13.844393951478713"><ele>986.4</ele><time>2026-05-02T08:49:41Z</time></trkpt><trkpt lat="42.22533282495445" lon="13.844442899857967"><ele>982.8</ele><time>2026-05-02T08:49:42Z</time></trkpt><trkpt lat="42.2252576722481" lon="13.844485020931092"><ele>979.2</ele><time>2026-05-02T08:49:43Z</time></trkpt><trkpt lat="42.22517894256427" lon="13.844524172191079"><ele>975.6</ele><time>2026-05-02T08:49:44Z</time></trkpt><trkpt lat="42.22508510704201" lon="13.844555333931194"><ele>972.0</ele><time>2026-05-02T08:49:45Z</time></trkpt><trkpt lat="42.22497828687485" lon="13.84458668083764"><ele>972.0</ele><time>2026-05-02T08:49:46Z</time></trkpt><trkpt lat="42.224869607309344" lon="13.844588104797033"><ele>972.0</ele><time>2026-05-02T08:49:47Z</time></trkpt><trkpt lat="42.224777281682876" lon="13.84455735363696"><ele>972.0</ele><time>2026-05-02T08:49:48Z</time></trkpt><trkpt lat="42.22470166875322" lon="13.844541467453315"><ele>972.0</ele><time>2026-05-02T08:49:49Z</time></trkpt><trkpt lat="42.22460892321435" lon="13.844474715207205"><ele>972.0</ele><time>2026-05-02T08:49:51Z</time></trkpt><trkpt lat="42.22459273939322" lon="13.84431722308948"><ele>968.8</ele><time>2026-05-02T08:49:53Z</time></trkpt><trkpt lat="42.22461692687823" lon="13.84422214962318"><ele>965.6</ele><time>2026-05-02T08:49:54Z</time></trkpt><trkpt lat="42.22465782567272" lon="13.844113377820289"><ele>962.3999999999999</ele><time>2026-05-02T08:49:55Z</time></trkpt><trkpt lat="42.22471644817919" lon="13.843980897690544"><ele>959.1999999999999</ele><time>2026-05-02T08:49:56Z</time></trkpt><trkpt lat="42.22476107992271" lon="13.843846697523178"><ele>956.0</ele><time>2026-05-02T08:49:57Z</time></trkpt><trkpt lat="42.22480770768151" lon="13.843707731664804"><ele>959.0</ele><time>2026-05-02T08:49:58Z</time></trkpt><trkpt lat="42.224859139005034" lon="13.843573157729832"><ele>961.9999999999999</ele><time>2026-05-02T08:49:59Z</time></trkpt><trkpt lat="42.22491216558798" lon="13.84344684925412"><ele>964.9999999999999</ele><time>2026-05-02T08:50:00Z</time></trkpt><trkpt lat="42.224972832107255" lon="13.843332678355889"><ele>968.0</ele><time>2026-05-02T08:50:01Z</time></trkpt><trkpt lat="42.225039764568265" lon="13.843233490487274"><ele>971.0</ele><time>2026-05-02T08:50:02Z</time></trkpt><trkpt lat="42.225115062204516" lon="13.84314387353506"><ele>971.0</ele><time>2026-05-02T08:50:03Z</time></trkpt><trkpt lat="42.22519629733885" lon="13.843044504995163"><ele>970.9999999999999</ele><time>2026-05-02T08:50:04Z</time></trkpt><trkpt lat="42.22527254898791" lon="13.842939289983995"><ele>970.9999999999999</ele><time>2026-05-02T08:50:05Z</time></trkpt><trkpt lat="42.2253527266582" lon="13.842828949447487"><ele>971.0</ele><time>2026-05-02T08:50:06Z</time></trkpt><trkpt lat="42.22543154362653" lon="13.842714368111846"><ele>971.0</ele><time>2026-05-02T08:50:07Z</time></trkpt><trkpt lat="42.22551060986019" lon="13.842599993262567"><ele>970.4</ele><time>2026-05-02T08:50:08Z</time></trkpt><trkpt lat="42.2255922019047" lon="13.842488043353768"><ele>969.8</ele><time>2026-05-02T08:50:09Z</time></trkpt><trkpt lat="42.22567783432015" lon="13.842387284714857"><ele>969.1999999999999</ele><time>2026-05-02T08:50:10Z</time></trkpt><trkpt lat="42.225755816159186" lon="13.842305983712116"><ele>968.5999999999999</ele><time>2026-05-02T08:50:11Z</time></trkpt><trkpt lat="42.22583235515608" lon="13.842233943739558"><ele>968.0</ele><time>2026-05-02T08:50:12Z</time></trkpt><trkpt lat="42.22591777046263" lon="13.842184558315319"><ele>968.0000000000001</ele><time>2026-05-02T08:50:13Z</time></trkpt><trkpt lat="42.22600481694145" lon="13.842139675752748"><ele>968.0</ele><time>2026-05-02T08:50:14Z</time></trkpt><trkpt lat="42.22608885727469" lon="13.842099517778268"><ele>968.0</ele><time>2026-05-02T08:50:15Z</time></trkpt><trkpt lat="42.226165859082016" lon="13.842081647858683"><ele>968.0</ele><time>2026-05-02T08:50:16Z</time></trkpt><trkpt lat="42.2262465218546" lon="13.842076487403723"><ele>968.0000000000001</ele><time>2026-05-02T08:50:17Z</time></trkpt><trkpt lat="42.22634197223957" lon="13.842088818775336"><ele>968.0</ele><time>2026-05-02T08:50:18Z</time></trkpt><trkpt lat="42.22644410089159" lon="13.842093055832285"><ele>969.0</ele><time>2026-05-02T08:50:19Z</time></trkpt><trkpt lat="42.22655721454672" lon="13.84208451518874"><ele>970.0</ele><time>2026-05-02T08:50:20Z</time></trkpt><trkpt lat="42.22667770269878" lon="13.842068922139319"><ele>971.0</ele><time>2026-05-02T08:50:21Z</time></trkpt><trkpt lat="42.22680888647694" lon="13.842057068534675"><ele>972.0</ele><time>2026-05-02T08:50:22Z</time></trkpt><trkpt lat="42.226938200720184" lon="13.84205113169041"><ele>972.0</ele><time>2026-05-02T08:50:23Z</time></trkpt><trkpt lat="42.227070499573536" lon="13.842041183899562"><ele>972.0</ele><time>2026-05-02T08:50:24Z</time></trkpt><trkpt lat="42.22720284630276" lon="13.842031350942442"><ele>972.0</ele><time>2026-05-02T08:50:25Z</time></trkpt><trkpt lat="42.22733564317293" lon="13.842021449759828"><ele>972.0</ele><time>2026-05-02T08:50:26Z</time></trkpt><trkpt lat="42.227467577748456" lon="13.84200570717858"><ele>970.0</ele><time>2026-05-02T08:50:27Z</time></trkpt><trkpt lat="42.227594966962435" lon="13.84199043204298"><ele>968.0</ele><time>2026-05-02T08:50:28Z</time></trkpt><trkpt lat="42.227715808252206" lon="13.841976104419143"><ele>966.0</ele><time>2026-05-02T08:50:29Z</time></trkpt><trkpt lat="42.22783399850655" lon="13.84195629515964"><ele>964.0</ele><time>2026-05-02T08:50:30Z</time></trkpt><trkpt lat="42.227947096033745" lon="13.841919383994917"><ele>964.0</ele><time>2026-05-02T08:50:31Z</time></trkpt><trkpt lat="42.22806196919003" lon="13.841899395523908"><ele>964.0</ele><time>2026-05-02T08:50:32Z</time></trkpt><trkpt lat="42.22817406809452" lon="13.841860256793739"><ele>964.0</ele><time>2026-05-02T08:50:33Z</time></trkpt><trkpt lat="42.2282783930614" lon="13.841795986934837"><ele>964.0</ele><time>2026-05-02T08:50:34Z</time></trkpt><trkpt lat="42.22837823252567" lon="13.841750202873246"><ele>957.6</ele><time>2026-05-02T08:50:35Z</time></trkpt><trkpt lat="42.22846536461024" lon="13.841701459709332"><ele>951.2</ele><time>2026-05-02T08:50:36Z</time></trkpt><trkpt lat="42.22854008178042" lon="13.841638351043258"><ele>944.8000000000001</ele><time>2026-05-02T08:50:37Z</time></trkpt><trkpt lat="42.22860354404643" lon="13.841547299231712"><ele>938.4000000000001</ele><time>2026-05-02T08:50:38Z</time></trkpt><trkpt lat="42.22866324412201" lon="13.841437511913817"><ele>932.0</ele><time>2026-05-02T08:50:39Z</time></trkpt><trkpt lat="42.22871739828253" lon="13.841311103132146"><ele>932.0</ele><time>2026-05-02T08:50:40Z</time></trkpt><trkpt lat="42.22877411103271" lon="13.841175867143862"><ele>932.0</ele><time>2026-05-02T08:50:40.999Z</time></trkpt><trkpt lat="42.22883037584566" lon="13.84103507561397"><ele>932.0</ele><time>2026-05-02T08:50:41.999Z</time></trkpt><trkpt lat="42.228886553778466" lon="13.840884745770861"><ele>932.0</ele><time>2026-05-02T08:50:42.999Z</time></trkpt><trkpt lat="42.22893861789944" lon="13.840729485465312"><ele>933.25</ele><time>2026-05-02T08:50:43.999Z</time></trkpt><trkpt lat="42.228987952468856" lon="13.840573180576467"><ele>934.5</ele><time>2026-05-02T08:50:44.999Z</time></trkpt><trkpt lat="42.229052683161974" lon="13.840431665032863"><ele>935.75</ele><time>2026-05-02T08:50:45.999Z</time></trkpt><trkpt lat="42.229102540030674" lon="13.840287087105924"><ele>937.0</ele><time>2026-05-02T08:50:47Z</time></trkpt><trkpt lat="42.22914215170708" lon="13.84014080252338"><ele>931.25</ele><time>2026-05-02T08:50:48Z</time></trkpt><trkpt lat="42.22920446096569" lon="13.839998590930136"><ele>925.5</ele><time>2026-05-02T08:50:49Z</time></trkpt><trkpt lat="42.22926468985411" lon="13.839844943270036"><ele>919.75</ele><time>2026-05-02T08:50:50Z</time></trkpt><trkpt lat="42.22932461100568" lon="13.839703610290194"><ele>914.0</ele><time>2026-05-02T08:50:51Z</time></trkpt><trkpt lat="42.229389556082864" lon="13.839570978482422"><ele>914.0</ele><time>2026-05-02T08:50:52Z</time></trkpt><trkpt lat="42.22945901173919" lon="13.839448425016023"><ele>914.0</ele><time>2026-05-02T08:50:53Z</time></trkpt><trkpt lat="42.22953328953084" lon="13.839336033828927"><ele>914.0</ele><time>2026-05-02T08:50:54Z</time></trkpt><trkpt lat="42.22961338463134" lon="13.839219621772946"><ele>914.0</ele><time>2026-05-02T08:50:55Z</time></trkpt><trkpt lat="42.22969104732007" lon="13.839095671037269"><ele>918.0</ele><time>2026-05-02T08:50:56Z</time></trkpt><trkpt lat="42.22977022780129" lon="13.838966543488656"><ele>922.0</ele><time>2026-05-02T08:50:57Z</time></trkpt><trkpt lat="42.22984716067113" lon="13.838834300794204"><ele>926.0</ele><time>2026-05-02T08:50:58Z</time></trkpt><trkpt lat="42.22992516901757" lon="13.838705719437922"><ele>930.0</ele><time>2026-05-02T08:50:59Z</time></trkpt><trkpt lat="42.22999825561511" lon="13.838575594320595"><ele>923.2</ele><time>2026-05-02T08:51:00Z</time></trkpt><trkpt lat="42.23006145521561" lon="13.838438448594056"><ele>916.4</ele><time>2026-05-02T08:51:01Z</time></trkpt><trkpt lat="42.230121636620055" lon="13.838307149857263"><ele>909.5999999999999</ele><time>2026-05-02T08:51:02Z</time></trkpt><trkpt lat="42.23017918875754" lon="13.838182393235659"><ele>902.8</ele><time>2026-05-02T08:51:03Z</time></trkpt><trkpt lat="42.23023390796871" lon="13.838072208451555"><ele>896.0</ele><time>2026-05-02T08:51:04Z</time></trkpt><trkpt lat="42.23028959909294" lon="13.8379741569432"><ele>896.0</ele><time>2026-05-02T08:51:05Z</time></trkpt><trkpt lat="42.230354417255136" lon="13.837894932369416"><ele>895.9999999999999</ele><time>2026-05-02T08:51:06Z</time></trkpt><trkpt lat="42.23042968474255" lon="13.837822751529718"><ele>895.9999999999999</ele><time>2026-05-02T08:51:07Z</time></trkpt><trkpt lat="42.23051058944511" lon="13.837745773063828"><ele>896.0</ele><time>2026-05-02T08:51:08Z</time></trkpt><trkpt lat="42.230589089483864" lon="13.837675305234468"><ele>896.0</ele><time>2026-05-02T08:51:09Z</time></trkpt><trkpt lat="42.23066820100873" lon="13.837607481013162"><ele>894.8</ele><time>2026-05-02T08:51:10Z</time></trkpt><trkpt lat="42.2307497647866" lon="13.837551157090992"><ele>893.5999999999999</ele><time>2026-05-02T08:51:11Z</time></trkpt><trkpt lat="42.23083274954031" lon="13.83748972198892"><ele>892.4</ele><time>2026-05-02T08:51:12Z</time></trkpt><trkpt lat="42.230918326086815" lon="13.837429595897476"><ele>891.2</ele><time>2026-05-02T08:51:13Z</time></trkpt><trkpt lat="42.23100415206578" lon="13.837380805469396"><ele>890.0</ele><time>2026-05-02T08:51:14Z</time></trkpt><trkpt lat="42.23109968584919" lon="13.837342306513065"><ele>890.0</ele><time>2026-05-02T08:51:15Z</time></trkpt><trkpt lat="42.231209591011854" lon="13.837306402697815"><ele>890.0</ele><time>2026-05-02T08:51:16Z</time></trkpt><trkpt lat="42.23132679810475" lon="13.837270168760048"><ele>890.0</ele><time>2026-05-02T08:51:17Z</time></trkpt><trkpt lat="42.231450719092265" lon="13.83723638430172"><ele>890.0</ele><time>2026-05-02T08:51:18Z</time></trkpt><trkpt lat="42.23157982101054" lon="13.837206684181465"><ele>892.5</ele><time>2026-05-02T08:51:19Z</time></trkpt><trkpt lat="42.23170766679955" lon="13.837173239558474"><ele>895.0</ele><time>2026-05-02T08:51:20Z</time></trkpt><trkpt lat="42.231833932619566" lon="13.837139751469406"><ele>897.5</ele><time>2026-05-02T08:51:21Z</time></trkpt><trkpt lat="42.23194603214196" lon="13.837108988778189"><ele>900.0</ele><time>2026-05-02T08:51:22Z</time></trkpt><trkpt lat="42.2320511184353" lon="13.83709210082536"><ele>900.0</ele><time>2026-05-02T08:51:23Z</time></trkpt><trkpt lat="42.23215220311911" lon="13.837089582144904"><ele>900.0</ele><time>2026-05-02T08:51:24Z</time></trkpt><trkpt lat="42.2322479486206" lon="13.837100027354573"><ele>900.0</ele><time>2026-05-02T08:51:25Z</time></trkpt><trkpt lat="42.23232845682367" lon="13.837117761051324"><ele>900.0</ele><time>2026-05-02T08:51:26Z</time></trkpt><trkpt lat="42.23239926095239" lon="13.837130527895708"><ele>900.0</ele><time>2026-05-02T08:51:27Z</time></trkpt><trkpt lat="42.23250243926673" lon="13.837137771375339"><ele>900.0</ele><time>2026-05-02T08:51:29Z</time></trkpt><trkpt lat="42.23254579662954" lon="13.837063263246241"><ele>900.0</ele><time>2026-05-02T08:51:31Z</time></trkpt><trkpt lat="42.23250936583711" lon="13.836974621257063"><ele>900.0</ele><time>2026-05-02T08:51:32Z</time></trkpt><trkpt lat="42.23240729380421" lon="13.836962969319272"><ele>900.0</ele><time>2026-05-02T08:51:33Z</time></trkpt><trkpt lat="42.23232170589815" lon="13.836914143276672"><ele>900.0</ele><time>2026-05-02T08:51:34Z</time></trkpt><trkpt lat="42.23221119847638" lon="13.836873439065023"><ele>900.0</ele><time>2026-05-02T08:51:35Z</time></trkpt><trkpt lat="42.23209075917954" lon="13.83683257241656"><ele>900.0</ele><time>2026-05-02T08:51:36Z</time></trkpt><trkpt lat="42.23197257709078" lon="13.836797651857566"><ele>900.0</ele><time>2026-05-02T08:51:37Z</time></trkpt><trkpt lat="42.23184699253488" lon="13.836766815541782"><ele>900.0</ele><time>2026-05-02T08:51:38Z</time></trkpt><trkpt lat="42.231719103834145" lon="13.836736978849576"><ele>890.5</ele><time>2026-05-02T08:51:39Z</time></trkpt><trkpt lat="42.23158713169464" lon="13.83670602997174"><ele>881.0</ele><time>2026-05-02T08:51:40Z</time></trkpt><trkpt lat="42.23145683564257" lon="13.836673104626644"><ele>871.5</ele><time>2026-05-02T08:51:41Z</time></trkpt><trkpt lat="42.231330110367914" lon="13.836639889033322"><ele>862.0</ele><time>2026-05-02T08:51:42Z</time></trkpt><trkpt lat="42.23120693675696" lon="13.836614489275624"><ele>859.75</ele><time>2026-05-02T08:51:43Z</time></trkpt><trkpt lat="42.23108358644824" lon="13.83659892834775"><ele>857.5</ele><time>2026-05-02T08:51:44Z</time></trkpt><trkpt lat="42.230962401534796" lon="13.836597742770168"><ele>855.25</ele><time>2026-05-02T08:51:45Z</time></trkpt><trkpt lat="42.230844389415395" lon="13.83661450569099"><ele>853.0</ele><time>2026-05-02T08:51:46Z</time></trkpt><trkpt lat="42.23072811823994" lon="13.836657717238348"><ele>855.5</ele><time>2026-05-02T08:51:47Z</time></trkpt><trkpt lat="42.23061946008689" lon="13.836716950821314"><ele>858.0</ele><time>2026-05-02T08:51:48Z</time></trkpt><trkpt lat="42.23051369826782" lon="13.836776223327062"><ele>860.5</ele><time>2026-05-02T08:51:49Z</time></trkpt><trkpt lat="42.23040533876139" lon="13.83683787458047"><ele>863.0</ele><time>2026-05-02T08:51:50Z</time></trkpt><trkpt lat="42.230288246777064" lon="13.836898619097608"><ele>863.0</ele><time>2026-05-02T08:51:51Z</time></trkpt><trkpt lat="42.23016917151546" lon="13.836960392488493"><ele>863.0</ele><time>2026-05-02T08:51:52Z</time></trkpt><trkpt lat="42.230046890590586" lon="13.837024417329067"><ele>863.0</ele><time>2026-05-02T08:51:53Z</time></trkpt><trkpt lat="42.22992346101908" lon="13.837090821383386"><ele>863.0</ele><time>2026-05-02T08:51:54Z</time></trkpt><trkpt lat="42.22979919988409" lon="13.837157672817852"><ele>856.75</ele><time>2026-05-02T08:51:55Z</time></trkpt><trkpt lat="42.22967653866408" lon="13.837223123035335"><ele>850.5</ele><time>2026-05-02T08:51:56Z</time></trkpt><trkpt lat="42.22955104670186" lon="13.837286579306612"><ele>844.25</ele><time>2026-05-02T08:51:57Z</time></trkpt><trkpt lat="42.229425201040755" lon="13.837347534996626"><ele>838.0</ele><time>2026-05-02T08:51:58Z</time></trkpt><trkpt lat="42.22929994718082" lon="13.837409245553484"><ele>838.0</ele><time>2026-05-02T08:51:59Z</time></trkpt><trkpt lat="42.22918251665177" lon="13.837491605108001"><ele>838.0</ele><time>2026-05-02T08:52:00Z</time></trkpt><trkpt lat="42.229058606801686" lon="13.837554248031022"><ele>838.0</ele><time>2026-05-02T08:52:01Z</time></trkpt><trkpt lat="42.22893768124778" lon="13.837619987457495"><ele>838.0</ele><time>2026-05-02T08:52:02Z</time></trkpt><trkpt lat="42.228824663468615" lon="13.837678889124843"><ele>841.2</ele><time>2026-05-02T08:52:03Z</time></trkpt><trkpt lat="42.228730536994874" lon="13.837738819048155"><ele>844.4</ele><time>2026-05-02T08:52:04Z</time></trkpt><trkpt lat="42.22865883278518" lon="13.83778001212396"><ele>847.6000000000001</ele><time>2026-05-02T08:52:05Z</time></trkpt><trkpt lat="42.22855415112447" lon="13.83783485664016"><ele>850.8000000000001</ele><time>2026-05-02T08:52:07Z</time></trkpt><trkpt lat="42.228501063859554" lon="13.837784123721327"><ele>854.0</ele><time>2026-05-02T08:52:09Z</time></trkpt><trkpt lat="42.228570557863485" lon="13.837682043801609"><ele>849.4000000000001</ele><time>2026-05-02T08:52:12Z</time></trkpt><trkpt lat="42.228632405281125" lon="13.837627614316826"><ele>844.8000000000001</ele><time>2026-05-02T08:52:13Z</time></trkpt><trkpt lat="42.22871015034567" lon="13.837572167906055"><ele>840.2</ele><time>2026-05-02T08:52:13.999Z</time></trkpt><trkpt lat="42.22878971789951" lon="13.837500726282567"><ele>835.5999999999999</ele><time>2026-05-02T08:52:14.999Z</time></trkpt><trkpt lat="42.2288703147258" lon="13.837420702990732"><ele>831.0</ele><time>2026-05-02T08:52:15.999Z</time></trkpt><trkpt lat="42.228963904478064" lon="13.83735898699645"><ele>832.4</ele><time>2026-05-02T08:52:16.999Z</time></trkpt><trkpt lat="42.229050406657684" lon="13.837275267973808"><ele>833.8</ele><time>2026-05-02T08:52:17.999Z</time></trkpt><trkpt lat="42.22913677873333" lon="13.837192892161292"><ele>835.1999999999999</ele><time>2026-05-02T08:52:18.999Z</time></trkpt><trkpt lat="42.22921932190781" lon="13.837093171512588"><ele>836.5999999999999</ele><time>2026-05-02T08:52:19.999Z</time></trkpt><trkpt lat="42.229313654763125" lon="13.837012540972374"><ele>838.0</ele><time>2026-05-02T08:52:20.999Z</time></trkpt><trkpt lat="42.229402837423585" lon="13.836932581385133"><ele>838.0</ele><time>2026-05-02T08:52:21.999Z</time></trkpt><trkpt lat="42.229488757588356" lon="13.836854059949395"><ele>838.0</ele><time>2026-05-02T08:52:22.999Z</time></trkpt><trkpt lat="42.22956712471585" lon="13.83676934824769"><ele>838.0</ele><time>2026-05-02T08:52:23.999Z</time></trkpt><trkpt lat="42.229650525763425" lon="13.836672079138104"><ele>838.0</ele><time>2026-05-02T08:52:24.999Z</time></trkpt><trkpt lat="42.229731987209504" lon="13.83656260225838"><ele>838.0</ele><time>2026-05-02T08:52:25.999Z</time></trkpt><trkpt lat="42.22982778411566" lon="13.836473044111285"><ele>836.0</ele><time>2026-05-02T08:52:26.999Z</time></trkpt><trkpt lat="42.229916018600605" lon="13.836367209513172"><ele>834.0</ele><time>2026-05-02T08:52:27.999Z</time></trkpt><trkpt lat="42.23000324608101" lon="13.836266193753534"><ele>832.0</ele><time>2026-05-02T08:52:28.999Z</time></trkpt><trkpt lat="42.23009181027463" lon="13.836166702852248"><ele>830.0</ele><time>2026-05-02T08:52:29.999Z</time></trkpt><trkpt lat="42.23018766429148" lon="13.836064703830333"><ele>822.5</ele><time>2026-05-02T08:52:30.999Z</time></trkpt><trkpt lat="42.23028375189216" lon="13.835964215500603"><ele>815.0</ele><time>2026-05-02T08:52:31.999Z</time></trkpt><trkpt lat="42.23037668579534" lon="13.835867867941394"><ele>807.5</ele><time>2026-05-02T08:52:32.999Z</time></trkpt><trkpt lat="42.23046659641851" lon="13.835776575024443"><ele>800.0</ele><time>2026-05-02T08:52:33.999Z</time></trkpt><trkpt lat="42.230546896376275" lon="13.835677942929212"><ele>800.0</ele><time>2026-05-02T08:52:34.999Z</time></trkpt><trkpt lat="42.23063580858603" lon="13.835599984981423"><ele>800.0</ele><time>2026-05-02T08:52:35.999Z</time></trkpt><trkpt lat="42.23072815434849" lon="13.835527983811279"><ele>800.0</ele><time>2026-05-02T08:52:36.999Z</time></trkpt><trkpt lat="42.23082265980612" lon="13.835460198151928"><ele>800.0</ele><time>2026-05-02T08:52:37.999Z</time></trkpt><trkpt lat="42.23092179496539" lon="13.835402132216176"><ele>800.0</ele><time>2026-05-02T08:52:38.999Z</time></trkpt><trkpt lat="42.23102328605927" lon="13.835347804007936"><ele>805.25</ele><time>2026-05-02T08:52:39.999Z</time></trkpt><trkpt lat="42.2311292489055" lon="13.835308334559947"><ele>810.5</ele><time>2026-05-02T08:52:40.999Z</time></trkpt><trkpt lat="42.23124025658356" lon="13.83527804054572"><ele>815.75</ele><time>2026-05-02T08:52:41.999Z</time></trkpt><trkpt lat="42.231355463823284" lon="13.83525174328359"><ele>821.0</ele><time>2026-05-02T08:52:42.999Z</time></trkpt><trkpt lat="42.23147068562373" lon="13.835224507043206"><ele>823.0</ele><time>2026-05-02T08:52:43.999Z</time></trkpt><trkpt lat="42.23158132271438" lon="13.835199467017185"><ele>825.0</ele><time>2026-05-02T08:52:44.999Z</time></trkpt><trkpt lat="42.23168351566796" lon="13.83517702019209"><ele>827.0</ele><time>2026-05-02T08:52:45.999Z</time></trkpt><trkpt lat="42.23176992335495" lon="13.835159558711378"><ele>829.0</ele><time>2026-05-02T08:52:46.999Z</time></trkpt><trkpt lat="42.231839458314965" lon="13.83514586640445"><ele>831.0</ele><time>2026-05-02T08:52:47.999Z</time></trkpt><trkpt lat="42.231939109609584" lon="13.835118818105201"><ele>826.3333333333334</ele><time>2026-05-02T08:52:49.999Z</time></trkpt><trkpt lat="42.231985759455405" lon="13.835049816776854"><ele>821.6666666666667</ele><time>2026-05-02T08:52:51.999Z</time></trkpt><trkpt lat="42.23197211086179" lon="13.834964601727423"><ele>817.0</ele><time>2026-05-02T08:53:20Z</time></trkpt><trkpt lat="42.2318730618486" lon="13.834947492480339"><ele>812.3333333333334</ele><time>2026-05-02T08:53:22Z</time></trkpt><trkpt lat="42.23179772498371" lon="13.834954229996082"><ele>807.6666666666667</ele><time>2026-05-02T08:53:23Z</time></trkpt><trkpt lat="42.23170789811443" lon="13.834954137795345"><ele>803.0</ele><time>2026-05-02T08:53:24Z</time></trkpt><trkpt lat="42.231608775530304" lon="13.83495132580541"><ele>803.0000000000001</ele><time>2026-05-02T08:53:25Z</time></trkpt><trkpt lat="42.231522156574904" lon="13.834944698991062"><ele>803.0</ele><time>2026-05-02T08:53:26Z</time></trkpt><trkpt lat="42.23144046803251" lon="13.83493121413494"><ele>803.0</ele><time>2026-05-02T08:53:27Z</time></trkpt><trkpt lat="42.231366979908316" lon="13.834911612939612"><ele>803.0</ele><time>2026-05-02T08:53:28Z</time></trkpt><trkpt lat="42.231287879876994" lon="13.834888790952375"><ele>803.0000000000001</ele><time>2026-05-02T08:53:29Z</time></trkpt><trkpt lat="42.23119705320249" lon="13.834865033892926"><ele>803.0</ele><time>2026-05-02T08:53:30Z</time></trkpt><trkpt lat="42.23110358174515" lon="13.8348486494577"><ele>800.8</ele><time>2026-05-02T08:53:31Z</time></trkpt><trkpt lat="42.23100471325434" lon="13.834850255345323"><ele>798.5999999999999</ele><time>2026-05-02T08:53:32Z</time></trkpt><trkpt lat="42.230900587263235" lon="13.834867855494883"><ele>796.4000000000001</ele><time>2026-05-02T08:53:33Z</time></trkpt><trkpt lat="42.230793956996784" lon="13.834887957918887"><ele>794.2</ele><time>2026-05-02T08:53:34Z</time></trkpt><trkpt lat="42.230680908666066" lon="13.834910763271466"><ele>792.0</ele><time>2026-05-02T08:53:35Z</time></trkpt><trkpt lat="42.23056880607008" lon="13.834938414844892"><ele>789.4000000000001</ele><time>2026-05-02T08:53:36Z</time></trkpt><trkpt lat="42.23045659900118" lon="13.834970173469406"><ele>786.8000000000001</ele><time>2026-05-02T08:53:37Z</time></trkpt><trkpt lat="42.23034750470254" lon="13.835005965929492"><ele>784.2</ele><time>2026-05-02T08:53:38Z</time></trkpt><trkpt lat="42.23024064871424" lon="13.835042393841983"><ele>781.6</ele><time>2026-05-02T08:53:39Z</time></trkpt><trkpt lat="42.23013602247644" lon="13.83507941343137"><ele>779.0</ele><time>2026-05-02T08:53:40Z</time></trkpt><trkpt lat="42.23003098886761" lon="13.835117999647785"><ele>779.2</ele><time>2026-05-02T08:53:41Z</time></trkpt><trkpt lat="42.22992412016873" lon="13.835157260022168"><ele>779.4000000000001</ele><time>2026-05-02T08:53:42Z</time></trkpt><trkpt lat="42.22981774094115" lon="13.835196340579488"><ele>779.6</ele><time>2026-05-02T08:53:43Z</time></trkpt><trkpt lat="42.22971037292864" lon="13.835236068744235"><ele>779.8</ele><time>2026-05-02T08:53:44Z</time></trkpt><trkpt lat="42.229603154680866" lon="13.835281340123395"><ele>780.0</ele><time>2026-05-02T08:53:45Z</time></trkpt><trkpt lat="42.22949607315782" lon="13.83533153683035"><ele>780.0</ele><time>2026-05-02T08:53:46Z</time></trkpt><trkpt lat="42.229387752749474" lon="13.835386614696901"><ele>780.0</ele><time>2026-05-02T08:53:47Z</time></trkpt><trkpt lat="42.22928240608005" lon="13.835443365426237"><ele>780.0</ele><time>2026-05-02T08:53:48Z</time></trkpt><trkpt lat="42.22918198699907" lon="13.835503687481586"><ele>780.0</ele><time>2026-05-02T08:53:49Z</time></trkpt><trkpt lat="42.22908695310869" lon="13.835575764808619"><ele>780.0</ele><time>2026-05-02T08:53:50Z</time></trkpt><trkpt lat="42.228994562513854" lon="13.835651035099202"><ele>777.8</ele><time>2026-05-02T08:53:51Z</time></trkpt><trkpt lat="42.22890246771165" lon="13.835718795303572"><ele>775.6</ele><time>2026-05-02T08:53:52Z</time></trkpt><trkpt lat="42.228806336506224" lon="13.83577748504744"><ele>773.4000000000001</ele><time>2026-05-02T08:53:53Z</time></trkpt><trkpt lat="42.22872502462183" lon="13.835823858781962"><ele>771.2</ele><time>2026-05-02T08:53:54Z</time></trkpt><trkpt lat="42.228645045999905" lon="13.835866578134116"><ele>769.0</ele><time>2026-05-02T08:53:55Z</time></trkpt><trkpt lat="42.22855418772377" lon="13.83591532588364"><ele>769.0</ele><time>2026-05-02T08:53:56Z</time></trkpt><trkpt lat="42.22846319745162" lon="13.835969529224423"><ele>769.0</ele><time>2026-05-02T08:53:57Z</time></trkpt><trkpt lat="42.22838682976945" lon="13.836022416258205"><ele>769.0</ele><time>2026-05-02T08:53:58Z</time></trkpt><trkpt lat="42.22832303455938" lon="13.836048725422168"><ele>769.0</ele><time>2026-05-02T08:53:59Z</time></trkpt><trkpt lat="42.22820466306541" lon="13.8360032030911"><ele>769.0</ele><time>2026-05-02T08:54:01Z</time></trkpt><trkpt lat="42.22812472852838" lon="13.835942464620606"><ele>770.0</ele><time>2026-05-02T08:54:01.999Z</time></trkpt><trkpt lat="42.22803172885694" lon="13.835878728579699"><ele>771.0</ele><time>2026-05-02T08:54:02.999Z</time></trkpt><trkpt lat="42.22792769758137" lon="13.835809828974337"><ele>772.0</ele><time>2026-05-02T08:54:03.999Z</time></trkpt><trkpt lat="42.22782230149566" lon="13.835739746470615"><ele>773.0</ele><time>2026-05-02T08:54:04.999Z</time></trkpt><trkpt lat="42.227709063071885" lon="13.83566527169924"><ele>773.0</ele><time>2026-05-02T08:54:05.999Z</time></trkpt><trkpt lat="42.227596828001225" lon="13.835591456815536"><ele>773.0</ele><time>2026-05-02T08:54:06.999Z</time></trkpt><trkpt lat="42.22748990837153" lon="13.835522364762083"><ele>773.0</ele><time>2026-05-02T08:54:07.999Z</time></trkpt><trkpt lat="42.227383778535014" lon="13.83546219693167"><ele>773.0</ele><time>2026-05-02T08:54:08.999Z</time></trkpt><trkpt lat="42.22728026533383" lon="13.835411872934575"><ele>772.1666666666667</ele><time>2026-05-02T08:54:09.999Z</time></trkpt><trkpt lat="42.2271892244894" lon="13.83537302956828"><ele>771.3333333333334</ele><time>2026-05-02T08:54:10.999Z</time></trkpt><trkpt lat="42.227100801538995" lon="13.835340116308327"><ele>770.5</ele><time>2026-05-02T08:54:11.999Z</time></trkpt><trkpt lat="42.22703216959618" lon="13.83532111150354"><ele>769.6666666666667</ele><time>2026-05-02T08:54:12.999Z</time></trkpt><trkpt lat="42.226959660404496" lon="13.835306931397739"><ele>768.8333333333334</ele><time>2026-05-02T08:54:13.999Z</time></trkpt><trkpt lat="42.22689587491153" lon="13.835308597109893"><ele>768.0</ele><time>2026-05-02T08:54:14.999Z</time></trkpt><trkpt lat="42.22682710775155" lon="13.835334229096162"><ele>768.0</ele><time>2026-05-02T08:54:15.999Z</time></trkpt><trkpt lat="42.226754392759105" lon="13.835351508082917"><ele>768.0</ele><time>2026-05-02T08:54:16.999Z</time></trkpt><trkpt lat="42.226667140279694" lon="13.835369871021037"><ele>768.0</ele><time>2026-05-02T08:54:17.999Z</time></trkpt><trkpt lat="42.22656588414259" lon="13.835393117788099"><ele>768.0</ele><time>2026-05-02T08:54:18.999Z</time></trkpt><trkpt lat="42.226464771010704" lon="13.835420655776478"><ele>768.0</ele><time>2026-05-02T08:54:19.999Z</time></trkpt><trkpt lat="42.22638309608853" lon="13.835447469435897"><ele>764.4</ele><time>2026-05-02T08:54:20.999Z</time></trkpt><trkpt lat="42.22631556454061" lon="13.835471762661552"><ele>760.8</ele><time>2026-05-02T08:54:21.999Z</time></trkpt><trkpt lat="42.226185020972835" lon="13.835522694583554"><ele>757.2</ele><time>2026-05-02T08:54:23.999Z</time></trkpt><trkpt lat="42.22610044749429" lon="13.835556486872726"><ele>753.6</ele><time>2026-05-02T08:54:24.999Z</time></trkpt><trkpt lat="42.22600880854287" lon="13.83559605699331"><ele>750.0</ele><time>2026-05-02T08:54:25.999Z</time></trkpt><trkpt lat="42.22592173073983" lon="13.835635197016163"><ele>750.0</ele><time>2026-05-02T08:54:26.999Z</time></trkpt><trkpt lat="42.22584393528333" lon="13.835673263444349"><ele>750.0</ele><time>2026-05-02T08:54:27.999Z</time></trkpt><trkpt lat="42.225761501821005" lon="13.835717176277821"><ele>750.0</ele><time>2026-05-02T08:54:28.999Z</time></trkpt><trkpt lat="42.22567734402257" lon="13.835764811028591"><ele>750.0</ele><time>2026-05-02T08:54:29.999Z</time></trkpt><trkpt lat="42.225605043540654" lon="13.83580843839011"><ele>750.0</ele><time>2026-05-02T08:54:30.999Z</time></trkpt><trkpt lat="42.22554719477291" lon="13.835846311479315"><ele>750.0</ele><time>2026-05-02T08:54:31.999Z</time></trkpt><trkpt lat="42.225464704309516" lon="13.835927328718258"><ele>748.4</ele><time>2026-05-02T08:54:33.999Z</time></trkpt><trkpt lat="42.22540119603433" lon="13.835949054004955"><ele>746.8</ele><time>2026-05-02T08:54:34.999Z</time></trkpt><trkpt lat="42.22532838995971" lon="13.836010967057256"><ele>745.2</ele><time>2026-05-02T08:54:35.999Z</time></trkpt><trkpt lat="42.22525114584391" lon="13.836091429216227"><ele>743.6</ele><time>2026-05-02T08:54:36.999Z</time></trkpt><trkpt lat="42.22517305049094" lon="13.83619563272694"><ele>742.0</ele><time>2026-05-02T08:54:37.999Z</time></trkpt><trkpt lat="42.22507927813237" lon="13.836280407101285"><ele>742.0</ele><time>2026-05-02T08:54:38.999Z</time></trkpt><trkpt lat="42.224985027603786" lon="13.836357215174926"><ele>742.0</ele><time>2026-05-02T08:54:39.999Z</time></trkpt><trkpt lat="42.224892562063616" lon="13.836428824912913"><ele>742.0</ele><time>2026-05-02T08:54:40.999Z</time></trkpt><trkpt lat="42.22480335172731" lon="13.836505667385119"><ele>742.0</ele><time>2026-05-02T08:54:41.999Z</time></trkpt><trkpt lat="42.2247047080116" lon="13.836565530989507"><ele>742.0</ele><time>2026-05-02T08:54:42.999Z</time></trkpt><trkpt lat="42.22462362299964" lon="13.836655132181782"><ele>738.4000000000001</ele><time>2026-05-02T08:54:43.999Z</time></trkpt><trkpt lat="42.22457010982258" lon="13.836779171341217"><ele>734.8000000000001</ele><time>2026-05-02T08:54:44.999Z</time></trkpt><trkpt lat="42.22451131804207" lon="13.836899243353606"><ele>731.2</ele><time>2026-05-02T08:54:45.999Z</time></trkpt><trkpt lat="42.22445166027042" lon="13.837019455286411"><ele>727.6</ele><time>2026-05-02T08:54:46.999Z</time></trkpt><trkpt lat="42.224375800707236" lon="13.837125170364567"><ele>724.0</ele><time>2026-05-02T08:54:47.999Z</time></trkpt><trkpt lat="42.224309358657095" lon="13.83722866322452"><ele>724.0</ele><time>2026-05-02T08:54:48.999Z</time></trkpt><trkpt lat="42.22424945234936" lon="13.837340588987548"><ele>724.0</ele><time>2026-05-02T08:54:49.999Z</time></trkpt><trkpt lat="42.22416591606005" lon="13.8374457702602"><ele>724.0</ele><time>2026-05-02T08:54:50.999Z</time></trkpt><trkpt lat="42.224115455340375" lon="13.837583795910128"><ele>724.0</ele><time>2026-05-02T08:54:51.999Z</time></trkpt><trkpt lat="42.22405513219852" lon="13.837718179352137"><ele>724.0</ele><time>2026-05-02T08:54:52.999Z</time></trkpt><trkpt lat="42.2239981477066" lon="13.837850953734685"><ele>720.6</ele><time>2026-05-02T08:54:53.999Z</time></trkpt><trkpt lat="42.22394148354779" lon="13.837960951364542"><ele>717.2</ele><time>2026-05-02T08:54:54.999Z</time></trkpt><trkpt lat="42.22388310647123" lon="13.83805982758026"><ele>713.8000000000001</ele><time>2026-05-02T08:54:55.999Z</time></trkpt><trkpt lat="42.22381933121564" lon="13.838149644698264"><ele>710.4000000000001</ele><time>2026-05-02T08:54:56.999Z</time></trkpt><trkpt lat="42.22373797467165" lon="13.838207178868439"><ele>707.0</ele><time>2026-05-02T08:54:58Z</time></trkpt><trkpt lat="42.22365980309569" lon="13.838281884116135"><ele>707.0</ele><time>2026-05-02T08:54:59Z</time></trkpt><trkpt lat="42.22358083371671" lon="13.838372519264881"><ele>707.0</ele><time>2026-05-02T08:55:00Z</time></trkpt><trkpt lat="42.22348359750767" lon="13.83844282663146"><ele>707.0</ele><time>2026-05-02T08:55:01Z</time></trkpt><trkpt lat="42.22338143521656" lon="13.838506529814614"><ele>707.0</ele><time>2026-05-02T08:55:02Z</time></trkpt><trkpt lat="42.22326969853204" lon="13.838534824750043"><ele>707.0</ele><time>2026-05-02T08:55:03Z</time></trkpt><trkpt lat="42.22315674319189" lon="13.838584299197116"><ele>707.75</ele><time>2026-05-02T08:55:04Z</time></trkpt><trkpt lat="42.22303672562196" lon="13.838631239394044"><ele>708.5</ele><time>2026-05-02T08:55:05Z</time></trkpt><trkpt lat="42.22291074980569" lon="13.838681105830087"><ele>709.25</ele><time>2026-05-02T08:55:06Z</time></trkpt><trkpt lat="42.222787056709265" lon="13.838731019590135"><ele>710.0</ele><time>2026-05-02T08:55:07Z</time></trkpt><trkpt lat="42.22267805734422" lon="13.838798070833446"><ele>710.0</ele><time>2026-05-02T08:55:08Z</time></trkpt><trkpt lat="42.22257283064066" lon="13.83881840871183"><ele>710.0</ele><time>2026-05-02T08:55:09Z</time></trkpt><trkpt lat="42.22247879413131" lon="13.838863824350366"><ele>710.0</ele><time>2026-05-02T08:55:10Z</time></trkpt><trkpt lat="42.22239208490752" lon="13.838915724407618"><ele>710.0</ele><time>2026-05-02T08:55:11Z</time></trkpt><trkpt lat="42.22230887923302" lon="13.83897726056813"><ele>710.0</ele><time>2026-05-02T08:55:12Z</time></trkpt><trkpt lat="42.222227192344874" lon="13.839052969469174"><ele>705.8333333333333</ele><time>2026-05-02T08:55:13Z</time></trkpt><trkpt lat="42.222175063665574" lon="13.839144815124495"><ele>701.6666666666666</ele><time>2026-05-02T08:55:14Z</time></trkpt><trkpt lat="42.222125278367685" lon="13.839207405451742"><ele>697.5</ele><time>2026-05-02T08:55:15Z</time></trkpt><trkpt lat="42.22203423250773" lon="13.839275964384637"><ele>693.3333333333334</ele><time>2026-05-02T08:55:17Z</time></trkpt><trkpt lat="42.221967851577645" lon="13.83927975826618"><ele>689.1666666666667</ele><time>2026-05-02T08:55:19Z</time></trkpt><trkpt lat="42.221965040893764" lon="13.839152236938022"><ele>685.0</ele><time>2026-05-02T08:55:21Z</time></trkpt><trkpt lat="42.22197372770018" lon="13.839050699293118"><ele>685.0</ele><time>2026-05-02T08:55:22Z</time></trkpt><trkpt lat="42.222020943706994" lon="13.838942146413629"><ele>685.0</ele><time>2026-05-02T08:55:23Z</time></trkpt><trkpt lat="42.22207023131922" lon="13.838812637354266"><ele>685.0</ele><time>2026-05-02T08:55:24Z</time></trkpt><trkpt lat="42.22212464532158" lon="13.838678138332948"><ele>685.0</ele><time>2026-05-02T08:55:25Z</time></trkpt><trkpt lat="42.222180325967535" lon="13.838552258352548"><ele>685.0</ele><time>2026-05-02T08:55:26Z</time></trkpt><trkpt lat="42.22223837263823" lon="13.838435977161751"><ele>686.8</ele><time>2026-05-02T08:55:27Z</time></trkpt><trkpt lat="42.222299724045016" lon="13.838329849400342"><ele>688.6</ele><time>2026-05-02T08:55:28Z</time></trkpt><trkpt lat="42.22236919285366" lon="13.838237099370469"><ele>690.4000000000001</ele><time>2026-05-02T08:55:29Z</time></trkpt><trkpt lat="42.22244327316442" lon="13.83814483721204"><ele>692.2</ele><time>2026-05-02T08:55:30Z</time></trkpt><trkpt lat="42.222517126579895" lon="13.838045065151814"><ele>694.0</ele><time>2026-05-02T08:55:31Z</time></trkpt><trkpt lat="42.22260636883033" lon="13.837958421150761"><ele>694.0</ele><time>2026-05-02T08:55:32Z</time></trkpt><trkpt lat="42.222674374441894" lon="13.83783641959259"><ele>694.0</ele><time>2026-05-02T08:55:33Z</time></trkpt><trkpt lat="42.22274977664033" lon="13.837733810418687"><ele>694.0</ele><time>2026-05-02T08:55:34Z</time></trkpt><trkpt lat="42.22281787772515" lon="13.837632210457452"><ele>694.0</ele><time>2026-05-02T08:55:35Z</time></trkpt><trkpt lat="42.222874468486864" lon="13.83753609005205"><ele>694.0</ele><time>2026-05-02T08:55:36Z</time></trkpt><trkpt lat="42.222920644646" lon="13.837432789721937"><ele>689.2</ele><time>2026-05-02T08:55:37Z</time></trkpt><trkpt lat="42.22297267618421" lon="13.837324723884889"><ele>684.4000000000001</ele><time>2026-05-02T08:55:38Z</time></trkpt><trkpt lat="42.2230074734273" lon="13.837188025219366"><ele>679.6</ele><time>2026-05-02T08:55:39Z</time></trkpt><trkpt lat="42.2230341350216" lon="13.837040255420087"><ele>674.8</ele><time>2026-05-02T08:55:40Z</time></trkpt><trkpt lat="42.223039415665646" lon="13.836887029648317"><ele>670.0</ele><time>2026-05-02T08:55:41Z</time></trkpt><trkpt lat="42.2230583300916" lon="13.836737856862431"><ele>667.6</ele><time>2026-05-02T08:55:42Z</time></trkpt><trkpt lat="42.22308420184537" lon="13.836591092542882"><ele>665.2</ele><time>2026-05-02T08:55:43Z</time></trkpt><trkpt lat="42.223091362973136" lon="13.836449596150695"><ele>662.8</ele><time>2026-05-02T08:55:44Z</time></trkpt><trkpt lat="42.223095130857786" lon="13.836321601039339"><ele>660.4</ele><time>2026-05-02T08:55:45Z</time></trkpt><trkpt lat="42.22309424084275" lon="13.836207055810071"><ele>658.0</ele><time>2026-05-02T08:55:46Z</time></trkpt><trkpt lat="42.22307804787017" lon="13.83611558606834"><ele>658.0</ele><time>2026-05-02T08:55:47Z</time></trkpt><trkpt lat="42.22306887445232" lon="13.83598307597584"><ele>658.0</ele><time>2026-05-02T08:55:49Z</time></trkpt><trkpt lat="42.222932034354734" lon="13.835981823757706"><ele>658.0</ele><time>2026-05-02T08:55:51Z</time></trkpt><trkpt lat="42.2228745689088" lon="13.83609225441292"><ele>658.0</ele><time>2026-05-02T08:55:52Z</time></trkpt><trkpt lat="42.22282274471115" lon="13.836195116397148"><ele>658.0</ele><time>2026-05-02T08:55:53Z</time></trkpt><trkpt lat="42.222772930147904" lon="13.836307649115662"><ele>658.0</ele><time>2026-05-02T08:55:54Z</time></trkpt><trkpt lat="42.22272044124615" lon="13.83641853255692"><ele>658.0</ele><time>2026-05-02T08:55:54.999Z</time></trkpt><trkpt lat="42.22266573356409" lon="13.836524198744474"><ele>658.0</ele><time>2026-05-02T08:55:55.999Z</time></trkpt><trkpt lat="42.222610593600685" lon="13.836611565096952"><ele>658.0</ele><time>2026-05-02T08:55:56.999Z</time></trkpt><trkpt lat="42.22255333016143" lon="13.836686470629411"><ele>658.0</ele><time>2026-05-02T08:55:57.999Z</time></trkpt><trkpt lat="42.22249145155677" lon="13.836747545298339"><ele>658.0</ele><time>2026-05-02T08:55:58.999Z</time></trkpt><trkpt lat="42.22242215976859" lon="13.836824540014717"><ele>657.8</ele><time>2026-05-02T08:55:59.999Z</time></trkpt><trkpt lat="42.22232402506122" lon="13.836851373775184"><ele>657.5999999999999</ele><time>2026-05-02T08:56:00.999Z</time></trkpt><trkpt lat="42.22222266459982" lon="13.836906440668484"><ele>657.4000000000001</ele><time>2026-05-02T08:56:01.999Z</time></trkpt><trkpt lat="42.22212512049792" lon="13.836965294515583"><ele>657.2</ele><time>2026-05-02T08:56:02.999Z</time></trkpt><trkpt lat="42.22202172269193" lon="13.837029085012924"><ele>657.0</ele><time>2026-05-02T08:56:03.999Z</time></trkpt><trkpt lat="42.221912623641096" lon="13.837097178913073"><ele>657.0</ele><time>2026-05-02T08:56:04.999Z</time></trkpt><trkpt lat="42.22180102186499" lon="13.837167309043537"><ele>657.0</ele><time>2026-05-02T08:56:05.999Z</time></trkpt><trkpt lat="42.22169458198057" lon="13.837235043517332"><ele>657.0</ele><time>2026-05-02T08:56:06.999Z</time></trkpt><trkpt lat="42.22159591218659" lon="13.83729639834793"><ele>657.0</ele><time>2026-05-02T08:56:07.999Z</time></trkpt><trkpt lat="42.22150207521576" lon="13.83734892159304"><ele>652.3333333333334</ele><time>2026-05-02T08:56:08.999Z</time></trkpt><trkpt lat="42.221420153237894" lon="13.837394763086946"><ele>647.6666666666666</ele><time>2026-05-02T08:56:09.999Z</time></trkpt><trkpt lat="42.22135092359645" lon="13.837432198315538"><ele>643.0</ele><time>2026-05-02T08:56:10.999Z</time></trkpt><trkpt lat="42.221287440945694" lon="13.837463624498406"><ele>638.3333333333333</ele><time>2026-05-02T08:56:11.999Z</time></trkpt><trkpt lat="42.22120323036953" lon="13.837487670622691"><ele>633.6666666666666</ele><time>2026-05-02T08:56:13.999Z</time></trkpt><trkpt lat="42.22118831491937" lon="13.837399445132501"><ele>629.0</ele><time>2026-05-02T08:56:15.999Z</time></trkpt><trkpt lat="42.22124814822987" lon="13.837338619193343"><ele>629.0</ele><time>2026-05-02T08:56:16.999Z</time></trkpt><trkpt lat="42.22132490897994" lon="13.83725260374864"><ele>629.0</ele><time>2026-05-02T08:56:17.999Z</time></trkpt><trkpt lat="42.22141360073523" lon="13.83716496117635"><ele>629.0</ele><time>2026-05-02T08:56:18.999Z</time></trkpt><trkpt lat="42.22149480924472" lon="13.83706493427106"><ele>629.0</ele><time>2026-05-02T08:56:19.999Z</time></trkpt><trkpt lat="42.22157948335727" lon="13.836956051048116"><ele>629.0</ele><time>2026-05-02T08:56:20.999Z</time></trkpt><trkpt lat="42.22166194766034" lon="13.836847332204073"><ele>631.4</ele><time>2026-05-02T08:56:21.999Z</time></trkpt><trkpt lat="42.22174041407515" lon="13.836740944228895"><ele>633.8</ele><time>2026-05-02T08:56:22.999Z</time></trkpt><trkpt lat="42.22181321576936" lon="13.836631338250601"><ele>636.1999999999999</ele><time>2026-05-02T08:56:23.999Z</time></trkpt><trkpt lat="42.22187750299882" lon="13.836515487511784"><ele>638.5999999999999</ele><time>2026-05-02T08:56:24.999Z</time></trkpt><trkpt lat="42.221937286991995" lon="13.836399010499688"><ele>641.0</ele><time>2026-05-02T08:56:25.999Z</time></trkpt><trkpt lat="42.22199054064107" lon="13.836283381306616"><ele>641.0</ele><time>2026-05-02T08:56:26.999Z</time></trkpt><trkpt lat="42.22203698808922" lon="13.836191885109642"><ele>641.0</ele><time>2026-05-02T08:56:27.999Z</time></trkpt><trkpt lat="42.22207720065977" lon="13.836120916881107"><ele>641.0</ele><time>2026-05-02T08:56:28.999Z</time></trkpt><trkpt lat="42.222113976881715" lon="13.836014695517385"><ele>641.0</ele><time>2026-05-02T08:56:30.999Z</time></trkpt><trkpt lat="42.22205793358035" lon="13.835880037248407"><ele>641.0</ele><time>2026-05-02T08:56:32.999Z</time></trkpt><trkpt lat="42.221960316202896" lon="13.835918679032172"><ele>641.0</ele><time>2026-05-02T08:56:33.999Z</time></trkpt><trkpt lat="42.22188647697907" lon="13.836028555311415"><ele>641.0</ele><time>2026-05-02T08:56:34.999Z</time></trkpt><trkpt lat="42.221806911649296" lon="13.836124639532079"><ele>641.0</ele><time>2026-05-02T08:56:35.999Z</time></trkpt><trkpt lat="42.22171967027263" lon="13.836223457158695"><ele>641.0</ele><time>2026-05-02T08:56:36.999Z</time></trkpt><trkpt lat="42.22162988280031" lon="13.83631961859108"><ele>641.0</ele><time>2026-05-02T08:56:37.999Z</time></trkpt><trkpt lat="42.22153484430053" lon="13.836415275682722"><ele>633.75</ele><time>2026-05-02T08:56:38.999Z</time></trkpt><trkpt lat="42.22143500498732" lon="13.836506548453253"><ele>626.5</ele><time>2026-05-02T08:56:39.999Z</time></trkpt><trkpt lat="42.221331214500694" lon="13.83659387006568"><ele>619.25</ele><time>2026-05-02T08:56:40.999Z</time></trkpt><trkpt lat="42.22122884694684" lon="13.836676673026538"><ele>612.0</ele><time>2026-05-02T08:56:41.999Z</time></trkpt><trkpt lat="42.221125099036" lon="13.836754979947392"><ele>615.4</ele><time>2026-05-02T08:56:42.999Z</time></trkpt><trkpt lat="42.22102915631726" lon="13.836829444485275"><ele>618.8000000000001</ele><time>2026-05-02T08:56:43.999Z</time></trkpt><trkpt lat="42.22094900733336" lon="13.836922108192123"><ele>622.2</ele><time>2026-05-02T08:56:44.999Z</time></trkpt><trkpt lat="42.220862625764426" lon="13.836985483271038"><ele>625.6</ele><time>2026-05-02T08:56:45.999Z</time></trkpt><trkpt lat="42.22078633652929" lon="13.837083767254095"><ele>629.0</ele><time>2026-05-02T08:56:46.999Z</time></trkpt><trkpt lat="42.220714239197704" lon="13.837195397790698"><ele>620.4</ele><time>2026-05-02T08:56:47.999Z</time></trkpt><trkpt lat="42.220646676980415" lon="13.837313642644945"><ele>611.8</ele><time>2026-05-02T08:56:48.999Z</time></trkpt><trkpt lat="42.22059821007029" lon="13.837441917090676"><ele>603.2</ele><time>2026-05-02T08:56:49.999Z</time></trkpt><trkpt lat="42.220541108706804" lon="13.83756015254924"><ele>594.6</ele><time>2026-05-02T08:56:50.999Z</time></trkpt><trkpt lat="42.22049150604599" lon="13.8376870195091"><ele>586.0</ele><time>2026-05-02T08:56:51.999Z</time></trkpt><trkpt lat="42.22042615801729" lon="13.837812910973463"><ele>586.0</ele><time>2026-05-02T08:56:52.999Z</time></trkpt><trkpt lat="42.220380524525986" lon="13.837962197714482"><ele>586.0</ele><time>2026-05-02T08:56:53.999Z</time></trkpt><trkpt lat="42.22033738095134" lon="13.838112370769533"><ele>586.0</ele><time>2026-05-02T08:56:54.999Z</time></trkpt><trkpt lat="42.220299611624874" lon="13.838258811162584"><ele>586.0</ele><time>2026-05-02T08:56:55.999Z</time></trkpt><trkpt lat="42.22027205343175" lon="13.838388919779026"><ele>588.1666666666667</ele><time>2026-05-02T08:56:56.999Z</time></trkpt><trkpt lat="42.22027271886045" lon="13.838514935245975"><ele>590.3333333333334</ele><time>2026-05-02T08:56:57.999Z</time></trkpt><trkpt lat="42.22027684986675" lon="13.838636463202647"><ele>592.5</ele><time>2026-05-02T08:56:58.999Z</time></trkpt><trkpt lat="42.22029847012288" lon="13.838753166902743"><ele>594.6666666666666</ele><time>2026-05-02T08:56:59.999Z</time></trkpt><trkpt lat="42.220297131705" lon="13.838850935587184"><ele>596.8333333333333</ele><time>2026-05-02T08:57:00.999Z</time></trkpt><trkpt lat="42.22026904492837" lon="13.83893673063607"><ele>599.0</ele><time>2026-05-02T08:57:01.999Z</time></trkpt><trkpt lat="42.22020477062915" lon="13.839013496781643"><ele>599.0</ele><time>2026-05-02T08:57:02.999Z</time></trkpt><trkpt lat="42.22014295740609" lon="13.839112696675647"><ele>599.0</ele><time>2026-05-02T08:57:04Z</time></trkpt><trkpt lat="42.22007900840691" lon="13.83922755351921"><ele>599.0</ele><time>2026-05-02T08:57:05Z</time></trkpt><trkpt lat="42.220006853642374" lon="13.839352038072242"><ele>599.0</ele><time>2026-05-02T08:57:06Z</time></trkpt><trkpt lat="42.21993327905318" lon="13.839472272778996"><ele>599.0</ele><time>2026-05-02T08:57:07Z</time></trkpt><trkpt lat="42.21985271446701" lon="13.839592366538511"><ele>592.5</ele><time>2026-05-02T08:57:08Z</time></trkpt><trkpt lat="42.21976555113978" lon="13.839713613779233"><ele>586.0</ele><time>2026-05-02T08:57:09Z</time></trkpt><trkpt lat="42.21967779665639" lon="13.83983155926317"><ele>579.5</ele><time>2026-05-02T08:57:10Z</time></trkpt><trkpt lat="42.219591982067634" lon="13.839944590734596"><ele>573.0</ele><time>2026-05-02T08:57:11Z</time></trkpt><trkpt lat="42.21950524896385" lon="13.840056257074538"><ele>578.8</ele><time>2026-05-02T08:57:12Z</time></trkpt><trkpt lat="42.21942146695524" lon="13.840167037786456"><ele>584.5999999999999</ele><time>2026-05-02T08:57:13Z</time></trkpt><trkpt lat="42.219354985485595" lon="13.84029467775203"><ele>590.4000000000001</ele><time>2026-05-02T08:57:14Z</time></trkpt><trkpt lat="42.21928752139591" lon="13.84040111292997"><ele>596.2</ele><time>2026-05-02T08:57:15Z</time></trkpt><trkpt lat="42.219234747042684" lon="13.840492934347477"><ele>602.0</ele><time>2026-05-02T08:57:16Z</time></trkpt><trkpt lat="42.219174589706945" lon="13.840551864329203"><ele>602.0</ele><time>2026-05-02T08:57:17Z</time></trkpt><trkpt lat="42.219096791438986" lon="13.840644948832828"><ele>602.0</ele><time>2026-05-02T08:57:19Z</time></trkpt><trkpt lat="42.21903384867133" lon="13.840646605443776"><ele>602.0</ele><time>2026-05-02T08:57:21Z</time></trkpt><trkpt lat="42.219046746242924" lon="13.84048755384564"><ele>602.0</ele><time>2026-05-02T08:57:23Z</time></trkpt><trkpt lat="42.21909402996977" lon="13.840420319611576"><ele>602.0</ele><time>2026-05-02T08:57:24Z</time></trkpt><trkpt lat="42.21913902384663" lon="13.8403544498467"><ele>602.0</ele><time>2026-05-02T08:57:25Z</time></trkpt><trkpt lat="42.219206580107404" lon="13.840214795194088"><ele>596.2</ele><time>2026-05-02T08:57:27Z</time></trkpt><trkpt lat="42.2192632715763" lon="13.840069838082226"><ele>590.4000000000001</ele><time>2026-05-02T08:57:29Z</time></trkpt><trkpt lat="42.21931988404711" lon="13.839926647716114"><ele>584.5999999999999</ele><time>2026-05-02T08:57:31Z</time></trkpt><trkpt lat="42.2193763443974" lon="13.839793550746075"><ele>578.8</ele><time>2026-05-02T08:57:33Z</time></trkpt><trkpt lat="42.219416451081706" lon="13.839684200297219"><ele>573.0</ele><time>2026-05-02T08:57:42Z</time></trkpt><trkpt lat="42.219462557085976" lon="13.839598851657875"><ele>573.0</ele><time>2026-05-02T08:57:43Z</time></trkpt><trkpt lat="42.21950968678671" lon="13.839477386726259"><ele>573.0</ele><time>2026-05-02T08:57:44Z</time></trkpt><trkpt lat="42.21956286981949" lon="13.839344141334541"><ele>573.0</ele><time>2026-05-02T08:57:45Z</time></trkpt><trkpt lat="42.21961730932916" lon="13.839216292374834"><ele>573.0</ele><time>2026-05-02T08:57:46Z</time></trkpt><trkpt lat="42.219670257537736" lon="13.839095100883053"><ele>573.0</ele><time>2026-05-02T08:57:47Z</time></trkpt><trkpt lat="42.2197154383058" lon="13.838981982375277"><ele>569.6666666666666</ele><time>2026-05-02T08:57:48Z</time></trkpt><trkpt lat="42.219734949403524" lon="13.838874083719455"><ele>566.3333333333334</ele><time>2026-05-02T08:57:49Z</time></trkpt><trkpt lat="42.21977562896548" lon="13.838789619164634"><ele>563.0</ele><time>2026-05-02T08:57:50Z</time></trkpt><trkpt lat="42.219784615392285" lon="13.838688199630456"><ele>559.6666666666667</ele><time>2026-05-02T08:57:51Z</time></trkpt><trkpt lat="42.21977666759775" lon="13.838579218150954"><ele>556.3333333333334</ele><time>2026-05-02T08:57:51.999Z</time></trkpt><trkpt lat="42.21975341648739" lon="13.83845822469499"><ele>553.0</ele><time>2026-05-02T08:57:52.999Z</time></trkpt><trkpt lat="42.2197274931295" lon="13.8383329914089"><ele>549.1999999999999</ele><time>2026-05-02T08:57:53.999Z</time></trkpt><trkpt lat="42.219703449485216" lon="13.838200746134515"><ele>545.4</ele><time>2026-05-02T08:57:54.999Z</time></trkpt><trkpt lat="42.21967918779493" lon="13.83806906053082"><ele>541.5999999999999</ele><time>2026-05-02T08:57:55.999Z</time></trkpt><trkpt lat="42.21967567671628" lon="13.837930760475668"><ele>537.8</ele><time>2026-05-02T08:57:56.999Z</time></trkpt><trkpt lat="42.219671124209086" lon="13.837789073470189"><ele>534.0</ele><time>2026-05-02T08:57:57.999Z</time></trkpt><trkpt lat="42.219682089841584" lon="13.837646617445023"><ele>532.2</ele><time>2026-05-02T08:57:58.999Z</time></trkpt><trkpt lat="42.21968657671646" lon="13.837509153507353"><ele>530.4</ele><time>2026-05-02T08:57:59.999Z</time></trkpt><trkpt lat="42.21969301070922" lon="13.837374393976843"><ele>528.6</ele><time>2026-05-02T08:58:00.999Z</time></trkpt><trkpt lat="42.2196871803172" lon="13.837240932473753"><ele>526.8</ele><time>2026-05-02T08:58:01.999Z</time></trkpt><trkpt lat="42.21970780264231" lon="13.83710526400544"><ele>525.0</ele><time>2026-05-02T08:58:02.999Z</time></trkpt><trkpt lat="42.219733219776984" lon="13.836969112374067"><ele>525.0</ele><time>2026-05-02T08:58:03.999Z</time></trkpt><trkpt lat="42.21975836130075" lon="13.83683114178319"><ele>525.0</ele><time>2026-05-02T08:58:04.999Z</time></trkpt><trkpt lat="42.21978880832032" lon="13.836692752725602"><ele>525.0</ele><time>2026-05-02T08:58:05.999Z</time></trkpt><trkpt lat="42.21982892549728" lon="13.836562480509077"><ele>525.0</ele><time>2026-05-02T08:58:06.999Z</time></trkpt><trkpt lat="42.21987310809794" lon="13.836438990757733"><ele>525.0</ele><time>2026-05-02T08:58:07.999Z</time></trkpt><trkpt lat="42.21991551184961" lon="13.836321655081722"><ele>526.8333333333334</ele><time>2026-05-02T08:58:08.999Z</time></trkpt><trkpt lat="42.21995651484658" lon="13.836211155766744"><ele>528.6666666666666</ele><time>2026-05-02T08:58:09.999Z</time></trkpt><trkpt lat="42.2200040069579" lon="13.836110423023612"><ele>530.5</ele><time>2026-05-02T08:58:10.999Z</time></trkpt><trkpt lat="42.22005693676651" lon="13.836036037359747"><ele>532.3333333333333</ele><time>2026-05-02T08:58:11.999Z</time></trkpt><trkpt lat="42.22011024262708" lon="13.835967729832433"><ele>534.1666666666666</ele><time>2026-05-02T08:58:12.999Z</time></trkpt><trkpt lat="42.22016800740162" lon="13.83586351282837"><ele>536.0</ele><time>2026-05-02T08:58:14.999Z</time></trkpt><trkpt lat="42.22013798024902" lon="13.835781234286957"><ele>536.0</ele><time>2026-05-02T08:58:16.999Z</time></trkpt><trkpt lat="42.22007457753777" lon="13.835766961807938"><ele>536.0</ele><time>2026-05-02T08:58:17.999Z</time></trkpt><trkpt lat="42.21998893169915" lon="13.835822821376821"><ele>536.0</ele><time>2026-05-02T08:58:18.999Z</time></trkpt><trkpt lat="42.21991781119906" lon="13.835906506875087"><ele>536.0</ele><time>2026-05-02T08:58:19.999Z</time></trkpt><trkpt lat="42.21984689308942" lon="13.83599963796591"><ele>536.0</ele><time>2026-05-02T08:58:20.999Z</time></trkpt><trkpt lat="42.21977248810386" lon="13.836108151752121"><ele>529.75</ele><time>2026-05-02T08:58:21.999Z</time></trkpt><trkpt lat="42.21969756026802" lon="13.836228110100242"><ele>523.5</ele><time>2026-05-02T08:58:22.999Z</time></trkpt><trkpt lat="42.219622881530654" lon="13.836353462663649"><ele>517.25</ele><time>2026-05-02T08:58:23.999Z</time></trkpt><trkpt lat="42.21955204574309" lon="13.836484709809818"><ele>511.0</ele><time>2026-05-02T08:58:24.999Z</time></trkpt><trkpt lat="42.21948571315282" lon="13.836615387735534"><ele>511.0</ele><time>2026-05-02T08:58:25.999Z</time></trkpt><trkpt lat="42.219420789651906" lon="13.836747877825804"><ele>511.0</ele><time>2026-05-02T08:58:26.999Z</time></trkpt><trkpt lat="42.2193578585678" lon="13.836881647104544"><ele>511.0</ele><time>2026-05-02T08:58:27.999Z</time></trkpt><trkpt lat="42.219295582443955" lon="13.837014554641542"><ele>511.0</ele><time>2026-05-02T08:58:28.999Z</time></trkpt><trkpt lat="42.21923248592607" lon="13.837145884350411"><ele>514.5</ele><time>2026-05-02T08:58:29.999Z</time></trkpt><trkpt lat="42.21917060521667" lon="13.837281215651009"><ele>518.0</ele><time>2026-05-02T08:58:30.999Z</time></trkpt><trkpt lat="42.219124675167365" lon="13.837425714474241"><ele>521.5</ele><time>2026-05-02T08:58:31.999Z</time></trkpt><trkpt lat="42.219102051560924" lon="13.837572332684857"><ele>525.0</ele><time>2026-05-02T08:58:32.999Z</time></trkpt><trkpt lat="42.21906855249941" lon="13.83771014065184"><ele>526.8</ele><time>2026-05-02T08:58:33.999Z</time></trkpt><trkpt lat="42.21902381432197" lon="13.837843056833274"><ele>528.6</ele><time>2026-05-02T08:58:34.999Z</time></trkpt><trkpt lat="42.2190025391832" lon="13.837984862158761"><ele>530.4</ele><time>2026-05-02T08:58:35.999Z</time></trkpt><trkpt lat="42.218991745469275" lon="13.83812095462018"><ele>532.2</ele><time>2026-05-02T08:58:36.999Z</time></trkpt><trkpt lat="42.21899656110566" lon="13.838246132836"><ele>534.0</ele><time>2026-05-02T08:58:37.999Z</time></trkpt><trkpt lat="42.21895419599812" lon="13.838347286557061"><ele>528.2</ele><time>2026-05-02T08:58:38.999Z</time></trkpt><trkpt lat="42.21891787508526" lon="13.838438996783209"><ele>522.4</ele><time>2026-05-02T08:58:39.999Z</time></trkpt><trkpt lat="42.218863405621356" lon="13.838504104568944"><ele>516.6</ele><time>2026-05-02T08:58:40.999Z</time></trkpt><trkpt lat="42.218791500420586" lon="13.838587311575422"><ele>510.8</ele><time>2026-05-02T08:58:41.999Z</time></trkpt><trkpt lat="42.21870807364776" lon="13.838669350047985"><ele>505.0</ele><time>2026-05-02T08:58:42.999Z</time></trkpt><trkpt lat="42.21861647233661" lon="13.838756479594158"><ele>505.0</ele><time>2026-05-02T08:58:43.999Z</time></trkpt><trkpt lat="42.218520498993044" lon="13.838854325062046"><ele>505.0</ele><time>2026-05-02T08:58:44.999Z</time></trkpt><trkpt lat="42.2184256089502" lon="13.838968177493873"><ele>505.0</ele><time>2026-05-02T08:58:45.999Z</time></trkpt><trkpt lat="42.218331825076035" lon="13.839091284733877"><ele>505.0</ele><time>2026-05-02T08:58:46.999Z</time></trkpt><trkpt lat="42.21823913144147" lon="13.839215714328999"><ele>501.5</ele><time>2026-05-02T08:58:47.999Z</time></trkpt><trkpt lat="42.2181491848945" lon="13.839333611065314"><ele>498.0</ele><time>2026-05-02T08:58:48.999Z</time></trkpt><trkpt lat="42.21806062141827" lon="13.839449151621634"><ele>494.5</ele><time>2026-05-02T08:58:49.999Z</time></trkpt><trkpt lat="42.21797213773184" lon="13.839563707677602"><ele>491.0</ele><time>2026-05-02T08:58:50.999Z</time></trkpt><trkpt lat="42.21788312260141" lon="13.839675527016556"><ele>491.0</ele><time>2026-05-02T08:58:51.999Z</time></trkpt><trkpt lat="42.21779286186667" lon="13.839780092875925"><ele>491.0</ele><time>2026-05-02T08:58:52.999Z</time></trkpt><trkpt lat="42.21769799706685" lon="13.83987823765992"><ele>491.0</ele><time>2026-05-02T08:58:53.999Z</time></trkpt><trkpt lat="42.21759605242066" lon="13.83997789212603"><ele>491.0</ele><time>2026-05-02T08:58:54.999Z</time></trkpt><trkpt lat="42.21749081007151" lon="13.840079465978587"><ele>488.25</ele><time>2026-05-02T08:58:55.999Z</time></trkpt><trkpt lat="42.21738101906102" lon="13.840180932686126"><ele>485.5</ele><time>2026-05-02T08:58:56.999Z</time></trkpt><trkpt lat="42.21727279534067" lon="13.84028095091606"><ele>482.75</ele><time>2026-05-02T08:58:57.999Z</time></trkpt><trkpt lat="42.21717262080151" lon="13.84037353024574"><ele>480.0</ele><time>2026-05-02T08:58:58.999Z</time></trkpt><trkpt lat="42.217084727664364" lon="13.84045274803251"><ele>480.0</ele><time>2026-05-02T08:58:59.999Z</time></trkpt><trkpt lat="42.21700004923166" lon="13.840521930074203"><ele>480.0</ele><time>2026-05-02T08:59:00.999Z</time></trkpt><trkpt lat="42.216914174177774" lon="13.84058475389405"><ele>480.0</ele><time>2026-05-02T08:59:01.999Z</time></trkpt><trkpt lat="42.216829683075495" lon="13.840639605880549"><ele>480.0</ele><time>2026-05-02T08:59:02.999Z</time></trkpt><trkpt lat="42.216747976644925" lon="13.84069087975507"><ele>480.0</ele><time>2026-05-02T08:59:03.999Z</time></trkpt><trkpt lat="42.21667504349708" lon="13.840735548823444"><ele>480.0</ele><time>2026-05-02T08:59:04.999Z</time></trkpt><trkpt lat="42.216602807517305" lon="13.840779582160526"><ele>480.0</ele><time>2026-05-02T08:59:05.999Z</time></trkpt><trkpt lat="42.216533344126816" lon="13.840820957311374"><ele>480.0</ele><time>2026-05-02T08:59:06.999Z</time></trkpt><trkpt lat="42.216457806029766" lon="13.840865184277284"><ele>480.0</ele><time>2026-05-02T08:59:07.999Z</time></trkpt><trkpt lat="42.21638577559866" lon="13.840907357530998"><ele>480.0</ele><time>2026-05-02T08:59:09Z</time></trkpt><trkpt lat="42.216302227061156" lon="13.840956297211918"><ele>480.0</ele><time>2026-05-02T08:59:10Z</time></trkpt><trkpt lat="42.216208920024926" lon="13.841012661923545"><ele>478.0</ele><time>2026-05-02T08:59:11Z</time></trkpt><trkpt lat="42.216120848455546" lon="13.841065864045664"><ele>476.0</ele><time>2026-05-02T08:59:12Z</time></trkpt><trkpt lat="42.216037766140154" lon="13.841114896788048"><ele>474.0</ele><time>2026-05-02T08:59:13Z</time></trkpt><trkpt lat="42.21595488706144" lon="13.841158827999616"><ele>472.0</ele><time>2026-05-02T08:59:14Z</time></trkpt><trkpt lat="42.21586845175819" lon="13.841201467999497"><ele>470.0</ele><time>2026-05-02T08:59:15Z</time></trkpt><trkpt lat="42.215776100136594" lon="13.841234033737374"><ele>470.0</ele><time>2026-05-02T08:59:16Z</time></trkpt><trkpt lat="42.21569060432746" lon="13.841248928644916"><ele>470.0</ele><time>2026-05-02T08:59:17Z</time></trkpt><trkpt lat="42.21561472036698" lon="13.841257598758345"><ele>470.0</ele><time>2026-05-02T08:59:18Z</time></trkpt><trkpt lat="42.21549406855796" lon="13.841245428821802"><ele>470.0</ele><time>2026-05-02T08:59:20Z</time></trkpt><trkpt lat="42.21539424093005" lon="13.841158481500234"><ele>470.0</ele><time>2026-05-02T08:59:22Z</time></trkpt><trkpt lat="42.21536266005281" lon="13.841068062988645"><ele>464.2</ele><time>2026-05-02T08:59:23Z</time></trkpt><trkpt lat="42.2153211158905" lon="13.840962436042842"><ele>458.4</ele><time>2026-05-02T08:59:24Z</time></trkpt><trkpt lat="42.21527405231427" lon="13.840832687231895"><ele>452.6</ele><time>2026-05-02T08:59:25Z</time></trkpt><trkpt lat="42.21522680622989" lon="13.84070838433434"><ele>446.8</ele><time>2026-05-02T08:59:26Z</time></trkpt><trkpt lat="42.21518725585366" lon="13.840592043567092"><ele>441.0</ele><time>2026-05-02T08:59:27Z</time></trkpt><trkpt lat="42.215160486016856" lon="13.840488861921163"><ele>441.0</ele><time>2026-05-02T08:59:28Z</time></trkpt><trkpt lat="42.21515842182285" lon="13.840329736351814"><ele>441.0</ele><time>2026-05-02T08:59:30Z</time></trkpt><trkpt lat="42.215193460707034" lon="13.8402508687696"><ele>441.0</ele><time>2026-05-02T08:59:31Z</time></trkpt><trkpt lat="42.21527031814514" lon="13.84017092481787"><ele>441.0</ele><time>2026-05-02T08:59:32Z</time></trkpt><trkpt lat="42.21536157287259" lon="13.840090538644032"><ele>441.0</ele><time>2026-05-02T08:59:33Z</time></trkpt><trkpt lat="42.21546362577018" lon="13.840015712193729"><ele>440.6</ele><time>2026-05-02T08:59:34Z</time></trkpt><trkpt lat="42.21555866043343" lon="13.839933614566746"><ele>440.20000000000005</ele><time>2026-05-02T08:59:35Z</time></trkpt><trkpt lat="42.215649856600166" lon="13.839845918868502"><ele>439.79999999999995</ele><time>2026-05-02T08:59:36Z</time></trkpt><trkpt lat="42.21573672799005" lon="13.83977355372322"><ele>439.4</ele><time>2026-05-02T08:59:37Z</time></trkpt><trkpt lat="42.215796638664465" lon="13.839704567363283"><ele>439.0</ele><time>2026-05-02T08:59:38Z</time></trkpt><trkpt lat="42.21584454279812" lon="13.839621786008971"><ele>438.0</ele><time>2026-05-02T08:59:38.999Z</time></trkpt><trkpt lat="42.21588756379167" lon="13.839533969834292"><ele>437.0</ele><time>2026-05-02T08:59:39.999Z</time></trkpt><trkpt lat="42.21593055461435" lon="13.839425779267524"><ele>436.0</ele><time>2026-05-02T08:59:40.999Z</time></trkpt><trkpt lat="42.2159806404145" lon="13.83930330982715"><ele>435.0</ele><time>2026-05-02T08:59:41.999Z</time></trkpt><trkpt lat="42.21603302131605" lon="13.839179033266031"><ele>434.0</ele><time>2026-05-02T08:59:42.999Z</time></trkpt><trkpt lat="42.21608623539756" lon="13.839046622546034"><ele>434.0</ele><time>2026-05-02T08:59:43.999Z</time></trkpt><trkpt lat="42.21613869029571" lon="13.838908212769379"><ele>434.0</ele><time>2026-05-02T08:59:44.999Z</time></trkpt><trkpt lat="42.21618957664053" lon="13.838768646183873"><ele>434.0</ele><time>2026-05-02T08:59:45.999Z</time></trkpt><trkpt lat="42.21623710556655" lon="13.838629079704281"><ele>434.0</ele><time>2026-05-02T08:59:46.999Z</time></trkpt><trkpt lat="42.21627924777344" lon="13.838487490758354"><ele>431.25</ele><time>2026-05-02T08:59:47.999Z</time></trkpt><trkpt lat="42.21632266338367" lon="13.838337757608398"><ele>428.5</ele><time>2026-05-02T08:59:48.999Z</time></trkpt><trkpt lat="42.21636341627997" lon="13.838178495845439"><ele>425.75</ele><time>2026-05-02T08:59:49.999Z</time></trkpt><trkpt lat="42.21640242573197" lon="13.838016963185897"><ele>423.0</ele><time>2026-05-02T08:59:50.999Z</time></trkpt><trkpt lat="42.21643697762214" lon="13.837851969916276"><ele>423.0</ele><time>2026-05-02T08:59:51.999Z</time></trkpt><trkpt lat="42.21647568272804" lon="13.837694083450389"><ele>423.0</ele><time>2026-05-02T08:59:52.999Z</time></trkpt><trkpt lat="42.21651396590341" lon="13.837537470095713"><ele>423.0</ele><time>2026-05-02T08:59:53.999Z</time></trkpt><trkpt lat="42.21654957199454" lon="13.837384043507157"><ele>423.0</ele><time>2026-05-02T08:59:54.999Z</time></trkpt><trkpt lat="42.216587287663614" lon="13.837229766810841"><ele>423.0</ele><time>2026-05-02T08:59:55.999Z</time></trkpt><trkpt lat="42.21662943471606" lon="13.837081276445744"><ele>423.0</ele><time>2026-05-02T08:59:56.999Z</time></trkpt><trkpt lat="42.216660427883205" lon="13.836928677849675"><ele>423.0</ele><time>2026-05-02T08:59:57.999Z</time></trkpt><trkpt lat="42.21669926131155" lon="13.836783332983105"><ele>423.0</ele><time>2026-05-02T08:59:58.999Z</time></trkpt><trkpt lat="42.21673407237168" lon="13.836637381452826"><ele>420.0</ele><time>2026-05-02T08:59:59.999Z</time></trkpt><trkpt lat="42.21678143626015" lon="13.836490965290041"><ele>417.0</ele><time>2026-05-02T09:00:00.999Z</time></trkpt><trkpt lat="42.21684185259344" lon="13.836342578321057"><ele>414.0</ele><time>2026-05-02T09:00:01.999Z</time></trkpt><trkpt lat="42.216905659896476" lon="13.836193918392519"><ele>411.0</ele><time>2026-05-02T09:00:02.999Z</time></trkpt><trkpt lat="42.21697517462577" lon="13.836043189202723"><ele>408.25</ele><time>2026-05-02T09:00:03.999Z</time></trkpt><trkpt lat="42.21704701019245" lon="13.835897293276629"><ele>405.5</ele><time>2026-05-02T09:00:04.999Z</time></trkpt><trkpt lat="42.21712413620797" lon="13.835754565528342"><ele>402.75</ele><time>2026-05-02T09:00:05.999Z</time></trkpt><trkpt lat="42.217200564894945" lon="13.835619670929999"><ele>400.0</ele><time>2026-05-02T09:00:06.999Z</time></trkpt><trkpt lat="42.217276331044495" lon="13.835492454156944"><ele>399.8</ele><time>2026-05-02T09:00:07.999Z</time></trkpt><trkpt lat="42.21734848610388" lon="13.835367350520276"><ele>399.6</ele><time>2026-05-02T09:00:08.999Z</time></trkpt><trkpt lat="42.21741375430833" lon="13.83525497500093"><ele>399.4</ele><time>2026-05-02T09:00:09.999Z</time></trkpt><trkpt lat="42.217475152514545" lon="13.835150008539289"><ele>399.2</ele><time>2026-05-02T09:00:10.999Z</time></trkpt><trkpt lat="42.21752556842439" lon="13.835053151527168"><ele>399.0</ele><time>2026-05-02T09:00:11.999Z</time></trkpt><trkpt lat="42.21756655143366" lon="13.8349520376954"><ele>399.0</ele><time>2026-05-02T09:00:12.999Z</time></trkpt><trkpt lat="42.21757748304386" lon="13.834843090338902"><ele>399.0</ele><time>2026-05-02T09:00:13.999Z</time></trkpt><trkpt lat="42.217572176054304" lon="13.83471600506847"><ele>399.0</ele><time>2026-05-02T09:00:14.999Z</time></trkpt><trkpt lat="42.21755444277974" lon="13.834572877042934"><ele>399.0</ele><time>2026-05-02T09:00:15.999Z</time></trkpt><trkpt lat="42.2175331087069" lon="13.834418090660389"><ele>399.0</ele><time>2026-05-02T09:00:16.999Z</time></trkpt><trkpt lat="42.21753110119054" lon="13.834246790148976"><ele>397.0</ele><time>2026-05-02T09:00:17.999Z</time></trkpt><trkpt lat="42.21751256932322" lon="13.834077125410357"><ele>395.0</ele><time>2026-05-02T09:00:18.999Z</time></trkpt><trkpt lat="42.21749320933852" lon="13.833904846586984"><ele>393.0</ele><time>2026-05-02T09:00:19.999Z</time></trkpt><trkpt lat="42.21745785354569" lon="13.83373930355091"><ele>391.0</ele><time>2026-05-02T09:00:20.999Z</time></trkpt><trkpt lat="42.21744242984451" lon="13.833568169236557"><ele>389.4</ele><time>2026-05-02T09:00:21.999Z</time></trkpt><trkpt lat="42.217424169479216" lon="13.83340523946539"><ele>387.8</ele><time>2026-05-02T09:00:22.999Z</time></trkpt><trkpt lat="42.21740999960784" lon="13.833257925522275"><ele>386.2</ele><time>2026-05-02T09:00:23.999Z</time></trkpt><trkpt lat="42.21741975325255" lon="13.833124176405912"><ele>384.59999999999997</ele><time>2026-05-02T09:00:24.999Z</time></trkpt><trkpt lat="42.21740333588084" lon="13.833001062865065"><ele>383.0</ele><time>2026-05-02T09:00:25.999Z</time></trkpt><trkpt lat="42.217407744131265" lon="13.832886238745564"><ele>383.0</ele><time>2026-05-02T09:00:26.999Z</time></trkpt><trkpt lat="42.21741880356796" lon="13.83277406983056"><ele>383.0</ele><time>2026-05-02T09:00:27.999Z</time></trkpt><trkpt lat="42.217428822978" lon="13.832668199556233"><ele>383.0</ele><time>2026-05-02T09:00:28.999Z</time></trkpt><trkpt lat="42.21743603831047" lon="13.832556339503281"><ele>383.0</ele><time>2026-05-02T09:00:29.999Z</time></trkpt><trkpt lat="42.21744246594495" lon="13.832422845570143"><ele>383.0</ele><time>2026-05-02T09:00:30.999Z</time></trkpt><trkpt lat="42.21745088071086" lon="13.832274194296268"><ele>381.25</ele><time>2026-05-02T09:00:31.999Z</time></trkpt><trkpt lat="42.217479877365214" lon="13.832115543746786"><ele>379.5</ele><time>2026-05-02T09:00:32.999Z</time></trkpt><trkpt lat="42.21748108857945" lon="13.831947855215537"><ele>377.75</ele><time>2026-05-02T09:00:33.999Z</time></trkpt><trkpt lat="42.21749987572564" lon="13.831782097198827"><ele>376.0</ele><time>2026-05-02T09:00:34.999Z</time></trkpt><trkpt lat="42.217513456252924" lon="13.831614729751097"><ele>375.0</ele><time>2026-05-02T09:00:35.999Z</time></trkpt><trkpt lat="42.21753282435826" lon="13.83144857410342"><ele>374.0</ele><time>2026-05-02T09:00:36.999Z</time></trkpt><trkpt lat="42.2175629915216" lon="13.831289175338616"><ele>373.0</ele><time>2026-05-02T09:00:37.999Z</time></trkpt><trkpt lat="42.21757923415903" lon="13.831137802993586"><ele>372.0</ele><time>2026-05-02T09:00:38.999Z</time></trkpt><trkpt lat="42.21762341437707" lon="13.830998028907992"><ele>371.40000000000003</ele><time>2026-05-02T09:00:39.999Z</time></trkpt><trkpt lat="42.21767336244652" lon="13.830859518310183"><ele>370.8</ele><time>2026-05-02T09:00:40.999Z</time></trkpt><trkpt lat="42.21771851209798" lon="13.830716974112221"><ele>370.2</ele><time>2026-05-02T09:00:41.999Z</time></trkpt><trkpt lat="42.217759788018476" lon="13.83058296935008"><ele>369.6</ele><time>2026-05-02T09:00:42.999Z</time></trkpt><trkpt lat="42.217793274154296" lon="13.83046351374937"><ele>369.0</ele><time>2026-05-02T09:00:43.999Z</time></trkpt><trkpt lat="42.21782679762063" lon="13.830371318908076"><ele>369.0</ele><time>2026-05-02T09:00:44.999Z</time></trkpt><trkpt lat="42.21785983299835" lon="13.830280815503544"><ele>369.0</ele><time>2026-05-02T09:00:45.999Z</time></trkpt><trkpt lat="42.21790152847748" lon="13.83018936302032"><ele>369.0</ele><time>2026-05-02T09:00:46.999Z</time></trkpt><trkpt lat="42.21794855557002" lon="13.830094360155364"><ele>369.0</ele><time>2026-05-02T09:00:47.999Z</time></trkpt><trkpt lat="42.21798892705012" lon="13.829964616265496"><ele>369.0</ele><time>2026-05-02T09:00:48.999Z</time></trkpt><trkpt lat="42.218014193475234" lon="13.829810313453304"><ele>367.75</ele><time>2026-05-02T09:00:49.999Z</time></trkpt><trkpt lat="42.218025930041705" lon="13.82963435822433"><ele>366.5</ele><time>2026-05-02T09:00:50.999Z</time></trkpt><trkpt lat="42.21802501032271" lon="13.829442273707507"><ele>365.25</ele><time>2026-05-02T09:00:51.999Z</time></trkpt><trkpt lat="42.21800857140344" lon="13.829219233314943"><ele>364.0</ele><time>2026-05-02T09:00:52.999Z</time></trkpt><trkpt lat="42.21797986610153" lon="13.828990654229152"><ele>363.0</ele><time>2026-05-02T09:00:53.999Z</time></trkpt><trkpt lat="42.21796243015232" lon="13.82877323742562"><ele>362.0</ele><time>2026-05-02T09:00:54.999Z</time></trkpt><trkpt lat="42.21794400702993" lon="13.828564987875948"><ele>361.0</ele><time>2026-05-02T09:00:55.999Z</time></trkpt><trkpt lat="42.21794070633523" lon="13.828356464262127"><ele>359.75</ele><time>2026-05-02T09:00:56.999Z</time></trkpt><trkpt lat="42.21792517532372" lon="13.828163632119715"><ele>358.5</ele><time>2026-05-02T09:00:57.999Z</time></trkpt><trkpt lat="42.21789550598199" lon="13.827982256028083"><ele>357.25</ele><time>2026-05-02T09:00:58.999Z</time></trkpt><trkpt lat="42.21788770572504" lon="13.827808325497458"><ele>356.0</ele><time>2026-05-02T09:00:59.999Z</time></trkpt><trkpt lat="42.217876823297445" lon="13.827642058076938"><ele>354.6</ele><time>2026-05-02T09:01:00.999Z</time></trkpt><trkpt lat="42.21786895716364" lon="13.827484358226856"><ele>353.20000000000005</ele><time>2026-05-02T09:01:01.999Z</time></trkpt><trkpt lat="42.21786369147515" lon="13.827335574841173"><ele>351.79999999999995</ele><time>2026-05-02T09:01:02.999Z</time></trkpt><trkpt lat="42.21786582851724" lon="13.827205465967317"><ele>350.4</ele><time>2026-05-02T09:01:03.999Z</time></trkpt><trkpt lat="42.21786961423127" lon="13.827094253716943"><ele>349.0</ele><time>2026-05-02T09:01:04.999Z</time></trkpt><trkpt lat="42.21786733701089" lon="13.8269845475796"><ele>349.0</ele><time>2026-05-02T09:01:05.999Z</time></trkpt><trkpt lat="42.21784735942292" lon="13.826886327437176"><ele>349.0</ele><time>2026-05-02T09:01:06.999Z</time></trkpt><trkpt lat="42.21782570906796" lon="13.8267784456612"><ele>349.0</ele><time>2026-05-02T09:01:07.999Z</time></trkpt><trkpt lat="42.21772737692977" lon="13.826716826775986"><ele>349.0</ele><time>2026-05-02T09:01:08.999Z</time></trkpt><trkpt lat="42.21764003689418" lon="13.826632707360949"><ele>349.0</ele><time>2026-05-02T09:01:09.999Z</time></trkpt><trkpt lat="42.217544060641636" lon="13.826570468543487"><ele>347.8333333333333</ele><time>2026-05-02T09:01:10.999Z</time></trkpt><trkpt lat="42.217469793091745" lon="13.82652015088383"><ele>346.66666666666663</ele><time>2026-05-02T09:01:11.999Z</time></trkpt><trkpt lat="42.21740990783854" lon="13.826475274573482"><ele>345.5</ele><time>2026-05-02T09:01:12.999Z</time></trkpt><trkpt lat="42.21733325825416" lon="13.82642167164385"><ele>344.3333333333333</ele><time>2026-05-02T09:01:15Z</time></trkpt><trkpt lat="42.217357760935776" lon="13.826291051268845"><ele>343.1666666666667</ele><time>2026-05-02T09:01:17Z</time></trkpt><trkpt lat="42.217408326214425" lon="13.826194961256055"><ele>342.0</ele><time>2026-05-02T09:01:18Z</time></trkpt><trkpt lat="42.217480285797656" lon="13.826095663264864"><ele>342.0</ele><time>2026-05-02T09:01:19Z</time></trkpt><trkpt lat="42.21755706413706" lon="13.8259913989865"><ele>342.0</ele><time>2026-05-02T09:01:20Z</time></trkpt><trkpt lat="42.217627560164026" lon="13.825880486391833"><ele>342.0</ele><time>2026-05-02T09:01:21Z</time></trkpt><trkpt lat="42.21769351873763" lon="13.825781149015624"><ele>342.0</ele><time>2026-05-02T09:01:22Z</time></trkpt><trkpt lat="42.21774056034744" lon="13.825699061729901"><ele>342.0</ele><time>2026-05-02T09:01:23Z</time></trkpt><trkpt lat="42.21776877634606" lon="13.825583444962595"><ele>339.8</ele><time>2026-05-02T09:01:25Z</time></trkpt><trkpt lat="42.21775588481968" lon="13.8254166345441"><ele>337.6</ele><time>2026-05-02T09:01:27Z</time></trkpt><trkpt lat="42.2177394794024" lon="13.825295092896873"><ele>335.40000000000003</ele><time>2026-05-02T09:01:28Z</time></trkpt><trkpt lat="42.21766463029544" lon="13.825181241018383"><ele>333.20000000000005</ele><time>2026-05-02T09:01:29Z</time></trkpt><trkpt lat="42.217550311357186" lon="13.825162896800553"><ele>331.0</ele><time>2026-05-02T09:01:30Z</time></trkpt><trkpt lat="42.21745127668792" lon="13.82512320051738"><ele>329.8333333333333</ele><time>2026-05-02T09:01:30.999Z</time></trkpt><trkpt lat="42.21734570464962" lon="13.825104767199381"><ele>328.66666666666663</ele><time>2026-05-02T09:01:31.999Z</time></trkpt><trkpt lat="42.217254922544996" lon="13.825087852328918"><ele>327.5</ele><time>2026-05-02T09:01:32.999Z</time></trkpt><trkpt lat="42.21718171010594" lon="13.8250688759086"><ele>326.3333333333333</ele><time>2026-05-02T09:01:33.999Z</time></trkpt><trkpt lat="42.217117208478385" lon="13.825049217654824"><ele>325.1666666666667</ele><time>2026-05-02T09:01:34.999Z</time></trkpt><trkpt lat="42.217061465108664" lon="13.82496836802007"><ele>324.0</ele><time>2026-05-02T09:01:35.999Z</time></trkpt><trkpt lat="42.21700145670687" lon="13.824863899394114"><ele>323.5</ele><time>2026-05-02T09:01:36.999Z</time></trkpt><trkpt lat="42.21695554113527" lon="13.824729509264904"><ele>323.0</ele><time>2026-05-02T09:01:37.999Z</time></trkpt><trkpt lat="42.21689274344409" lon="13.824582066722323"><ele>322.5</ele><time>2026-05-02T09:01:38.999Z</time></trkpt><trkpt lat="42.21682344164056" lon="13.824419238556624"><ele>322.0</ele><time>2026-05-02T09:01:39.999Z</time></trkpt><trkpt lat="42.216744796924736" lon="13.824263422977612"><ele>321.25</ele><time>2026-05-02T09:01:40.999Z</time></trkpt><trkpt lat="42.216675084375424" lon="13.824109651050227"><ele>320.5</ele><time>2026-05-02T09:01:41.999Z</time></trkpt><trkpt lat="42.21661231697979" lon="13.823958229432531"><ele>319.75</ele><time>2026-05-02T09:01:42.999Z</time></trkpt><trkpt lat="42.216549115371215" lon="13.823809075856927"><ele>319.0</ele><time>2026-05-02T09:01:43.999Z</time></trkpt><trkpt lat="42.21648407600465" lon="13.823665491742952"><ele>317.75</ele><time>2026-05-02T09:01:44.999Z</time></trkpt><trkpt lat="42.2164362721594" lon="13.823508895445265"><ele>316.5</ele><time>2026-05-02T09:01:45.999Z</time></trkpt><trkpt lat="42.21637520786294" lon="13.823364617671388"><ele>315.25</ele><time>2026-05-02T09:01:46.999Z</time></trkpt><trkpt lat="42.21630047417882" lon="13.823231455368225"><ele>314.0</ele><time>2026-05-02T09:01:47.999Z</time></trkpt><trkpt lat="42.21624865768873" lon="13.823091198647322"><ele>313.83333333333337</ele><time>2026-05-02T09:01:48.999Z</time></trkpt><trkpt lat="42.21619883574925" lon="13.82296358051079"><ele>313.6666666666667</ele><time>2026-05-02T09:01:49.999Z</time></trkpt><trkpt lat="42.21615524199363" lon="13.822852863006103"><ele>313.5</ele><time>2026-05-02T09:01:50.999Z</time></trkpt><trkpt lat="42.21611261241678" lon="13.822759407426936"><ele>313.3333333333333</ele><time>2026-05-02T09:01:51.999Z</time></trkpt><trkpt lat="42.21607110584662" lon="13.822672491793652"><ele>313.16666666666663</ele><time>2026-05-02T09:01:52.999Z</time></trkpt><trkpt lat="42.21602672439718" lon="13.822571073219784"><ele>313.0</ele><time>2026-05-02T09:01:53.999Z</time></trkpt><trkpt lat="42.215981881250585" lon="13.822476024938739"><ele>313.4</ele><time>2026-05-02T09:01:54.999Z</time></trkpt><trkpt lat="42.215914483022964" lon="13.822396835405998"><ele>313.8</ele><time>2026-05-02T09:01:55.999Z</time></trkpt><trkpt lat="42.215830973263465" lon="13.822333188368878"><ele>314.2</ele><time>2026-05-02T09:01:56.999Z</time></trkpt><trkpt lat="42.215730328788155" lon="13.822312758140363"><ele>314.6</ele><time>2026-05-02T09:01:57.999Z</time></trkpt><trkpt lat="42.215623484987546" lon="13.822301087551146"><ele>315.0</ele><time>2026-05-02T09:01:58.999Z</time></trkpt><trkpt lat="42.215517340196556" lon="13.822310737135732"><ele>315.5</ele><time>2026-05-02T09:01:59.999Z</time></trkpt><trkpt lat="42.215408006551925" lon="13.822353390624896"><ele>316.0</ele><time>2026-05-02T09:02:00.999Z</time></trkpt><trkpt lat="42.21529921391796" lon="13.822418772569529"><ele>316.5</ele><time>2026-05-02T09:02:01.999Z</time></trkpt><trkpt lat="42.21519634540299" lon="13.822485465500572"><ele>317.0</ele><time>2026-05-02T09:02:02.999Z</time></trkpt><trkpt lat="42.21508340180855" lon="13.82252733109939"><ele>317.0</ele><time>2026-05-02T09:02:03.999Z</time></trkpt><trkpt lat="42.21497734944838" lon="13.822588353549573"><ele>317.0</ele><time>2026-05-02T09:02:04.999Z</time></trkpt><trkpt lat="42.21487655898559" lon="13.822646348346124"><ele>317.0</ele><time>2026-05-02T09:02:05.999Z</time></trkpt><trkpt lat="42.21477985081248" lon="13.822701994194649"><ele>317.0</ele><time>2026-05-02T09:02:06.999Z</time></trkpt><trkpt lat="42.21468284514257" lon="13.822755052841307"><ele>317.0</ele><time>2026-05-02T09:02:07.999Z</time></trkpt><trkpt lat="42.21459267239097" lon="13.822806447732878"><ele>317.0</ele><time>2026-05-02T09:02:08.999Z</time></trkpt><trkpt lat="42.21449894170493" lon="13.822803617145686"><ele>317.0</ele><time>2026-05-02T09:02:09.999Z</time></trkpt><trkpt lat="42.214413794038634" lon="13.822770881782986"><ele>317.0</ele><time>2026-05-02T09:02:10.999Z</time></trkpt><trkpt lat="42.21433508293581" lon="13.822710274290412"><ele>317.0</ele><time>2026-05-02T09:02:11.999Z</time></trkpt><trkpt lat="42.21427110797667" lon="13.822645660513988"><ele>317.0</ele><time>2026-05-02T09:02:12.999Z</time></trkpt><trkpt lat="42.21420899708144" lon="13.82257749895071"><ele>317.0</ele><time>2026-05-02T09:02:13.999Z</time></trkpt><trkpt lat="42.21416438469458" lon="13.822499144322363"><ele>317.0</ele><time>2026-05-02T09:02:14.999Z</time></trkpt><trkpt lat="42.214122294234386" lon="13.822426927861683"><ele>317.0</ele><time>2026-05-02T09:02:15.999Z</time></trkpt><trkpt lat="42.21408384202141" lon="13.82235252683193"><ele>317.0</ele><time>2026-05-02T09:02:16.999Z</time></trkpt><trkpt lat="42.21405178653697" lon="13.82227122449135"><ele>317.0</ele><time>2026-05-02T09:02:17.999Z</time></trkpt><trkpt lat="42.21405360094641" lon="13.82218521028199"><ele>317.0</ele><time>2026-05-02T09:02:18.999Z</time></trkpt><trkpt lat="42.2140403079628" lon="13.82209487070058"><ele>317.0</ele><time>2026-05-02T09:02:20.999Z</time></trkpt><trkpt lat="42.214149444129944" lon="13.821972445889033"><ele>317.0</ele><time>2026-05-02T09:02:23.999Z</time></trkpt><trkpt lat="42.21421188308797" lon="13.821913231143613"><ele>317.0</ele><time>2026-05-02T09:02:24.999Z</time></trkpt><trkpt lat="42.21427602969445" lon="13.82183722562961"><ele>317.0</ele><time>2026-05-02T09:02:25.999Z</time></trkpt><trkpt lat="42.21434425815076" lon="13.821748939340766"><ele>317.0</ele><time>2026-05-02T09:02:26.999Z</time></trkpt><trkpt lat="42.21440486602101" lon="13.821667037852619"><ele>317.0</ele><time>2026-05-02T09:02:27.999Z</time></trkpt><trkpt lat="42.214466792612214" lon="13.821582132463716"><ele>317.0</ele><time>2026-05-02T09:02:28.999Z</time></trkpt><trkpt lat="42.214528731940085" lon="13.821494466388678"><ele>317.0</ele><time>2026-05-02T09:02:29.999Z</time></trkpt><trkpt lat="42.21458936995843" lon="13.821406355561363"><ele>317.0</ele><time>2026-05-02T09:02:30.999Z</time></trkpt><trkpt lat="42.214651018418074" lon="13.821314224523842"><ele>317.0</ele><time>2026-05-02T09:02:31.999Z</time></trkpt><trkpt lat="42.21471246553063" lon="13.821220897032195"><ele>317.0</ele><time>2026-05-02T09:02:32.999Z</time></trkpt><trkpt lat="42.2147747319213" lon="13.821130347570316"><ele>317.0</ele><time>2026-05-02T09:02:33.999Z</time></trkpt><trkpt lat="42.21483752225603" lon="13.821037802975473"><ele>317.4</ele><time>2026-05-02T09:02:34.999Z</time></trkpt><trkpt lat="42.21489913092104" lon="13.82094202188597"><ele>317.79999999999995</ele><time>2026-05-02T09:02:35.999Z</time></trkpt><trkpt lat="42.21496015699693" lon="13.82084578871074"><ele>318.2</ele><time>2026-05-02T09:02:36.999Z</time></trkpt><trkpt lat="42.21502258467785" lon="13.820751783788788"><ele>318.59999999999997</ele><time>2026-05-02T09:02:37.999Z</time></trkpt><trkpt lat="42.215083087843574" lon="13.820659882104927"><ele>319.0</ele><time>2026-05-02T09:02:38.999Z</time></trkpt><trkpt lat="42.21514351511506" lon="13.820581267185931"><ele>319.0</ele><time>2026-05-02T09:02:39.999Z</time></trkpt><trkpt lat="42.215200110960204" lon="13.820508542927163"><ele>319.0</ele><time>2026-05-02T09:02:40.999Z</time></trkpt><trkpt lat="42.21525832091958" lon="13.820426270740692"><ele>319.0</ele><time>2026-05-02T09:02:41.999Z</time></trkpt><trkpt lat="42.215322762186986" lon="13.82032876150296"><ele>319.0</ele><time>2026-05-02T09:02:42.999Z</time></trkpt><trkpt lat="42.2153894415352" lon="13.820223681021012"><ele>319.0</ele><time>2026-05-02T09:02:43.999Z</time></trkpt><trkpt lat="42.21546235845638" lon="13.820111783601405"><ele>319.0</ele><time>2026-05-02T09:02:44.999Z</time></trkpt><trkpt lat="42.21553856027218" lon="13.819998468233827"><ele>319.0</ele><time>2026-05-02T09:02:45.999Z</time></trkpt><trkpt lat="42.21561473346566" lon="13.819880939257233"><ele>319.0</ele><time>2026-05-02T09:02:46.999Z</time></trkpt><trkpt lat="42.21569427788035" lon="13.819762821367732"><ele>319.0</ele><time>2026-05-02T09:02:47.999Z</time></trkpt><trkpt lat="42.215774918655406" lon="13.81964234203669"><ele>319.0</ele><time>2026-05-02T09:02:48.999Z</time></trkpt><trkpt lat="42.215855033135924" lon="13.819517921948222"><ele>319.0</ele><time>2026-05-02T09:02:49.999Z</time></trkpt><trkpt lat="42.215934407704836" lon="13.819400075755603"><ele>319.0</ele><time>2026-05-02T09:02:50.999Z</time></trkpt><trkpt lat="42.21600959261106" lon="13.819285998703426"><ele>319.0</ele><time>2026-05-02T09:02:51.999Z</time></trkpt><trkpt lat="42.21608056151585" lon="13.819177812025352"><ele>319.16666666666663</ele><time>2026-05-02T09:02:52.999Z</time></trkpt><trkpt lat="42.216145633409866" lon="13.819074639351355"><ele>319.3333333333333</ele><time>2026-05-02T09:02:53.999Z</time></trkpt><trkpt lat="42.21620080967254" lon="13.81898284202172"><ele>319.5</ele><time>2026-05-02T09:02:54.999Z</time></trkpt><trkpt lat="42.21624841523919" lon="13.818869062577535"><ele>319.6666666666667</ele><time>2026-05-02T09:02:56.999Z</time></trkpt><trkpt lat="42.21625573031344" lon="13.818749055897754"><ele>319.83333333333337</ele><time>2026-05-02T09:02:59.999Z</time></trkpt><trkpt lat="42.216229560011854" lon="13.818670638830792"><ele>320.0</ele><time>2026-05-02T09:03:00.999Z</time></trkpt><trkpt lat="42.216207093427016" lon="13.818577504139698"><ele>319.6</ele><time>2026-05-02T09:03:01.999Z</time></trkpt><trkpt lat="42.216202044917964" lon="13.818483911777527"><ele>319.2</ele><time>2026-05-02T09:03:02.999Z</time></trkpt><trkpt lat="42.21623104138112" lon="13.818324062497114"><ele>318.8</ele><time>2026-05-02T09:03:04.999Z</time></trkpt><trkpt lat="42.21625003843596" lon="13.818229267954742"><ele>318.4</ele><time>2026-05-02T09:03:05.999Z</time></trkpt><trkpt lat="42.2163873313139" lon="13.81816110304416"><ele>318.0</ele><time>2026-05-02T09:03:06.999Z</time></trkpt><trkpt lat="42.21648688272556" lon="13.81806590224729"><ele>318.0</ele><time>2026-05-02T09:03:07.999Z</time></trkpt><trkpt lat="42.216599859200976" lon="13.817953597065674"><ele>318.0</ele><time>2026-05-02T09:03:08.999Z</time></trkpt><trkpt lat="42.21673060918034" lon="13.817836242220293"><ele>318.0</ele><time>2026-05-02T09:03:09.999Z</time></trkpt><trkpt lat="42.2168676720187" lon="13.817734372337434"><ele>318.3333333333333</ele><time>2026-05-02T09:03:10.999Z</time></trkpt><trkpt lat="42.21701315108272" lon="13.81764378082078"><ele>318.66666666666663</ele><time>2026-05-02T09:03:11.999Z</time></trkpt><trkpt lat="42.21716782381297" lon="13.817566817907947"><ele>319.0</ele><time>2026-05-02T09:03:12.999Z</time></trkpt><trkpt lat="42.21732988591551" lon="13.817497974632381"><ele>319.0</ele><time>2026-05-02T09:03:13.999Z</time></trkpt><trkpt lat="42.21749509491445" lon="13.817443244845407"><ele>319.0</ele><time>2026-05-02T09:03:14.999Z</time></trkpt><trkpt lat="42.21766410752105" lon="13.817404587811591"><ele>319.0</ele><time>2026-05-02T09:03:15.999Z</time></trkpt><trkpt lat="42.21783382034382" lon="13.817371430397374"><ele>319.0</ele><time>2026-05-02T09:03:16.999Z</time></trkpt><trkpt lat="42.218004040979174" lon="13.81733548463128"><ele>319.0</ele><time>2026-05-02T09:03:17.999Z</time></trkpt><trkpt lat="42.21817187891411" lon="13.817300418597755"><ele>319.0</ele><time>2026-05-02T09:03:18.999Z</time></trkpt><trkpt lat="42.218339200426115" lon="13.817266811141204"><ele>318.66666666666663</ele><time>2026-05-02T09:03:19.999Z</time></trkpt><trkpt lat="42.21850116432859" lon="13.817235076648636"><ele>318.3333333333333</ele><time>2026-05-02T09:03:20.999Z</time></trkpt><trkpt lat="42.2186607975622" lon="13.817202249701054"><ele>318.0</ele><time>2026-05-02T09:03:21.999Z</time></trkpt><trkpt lat="42.21881896945178" lon="13.817173410255807"><ele>318.0</ele><time>2026-05-02T09:03:22.999Z</time></trkpt><trkpt lat="42.21897766424199" lon="13.81714587095496"><ele>318.0</ele><time>2026-05-02T09:03:23.999Z</time></trkpt><trkpt lat="42.21913647600193" lon="13.817118944475796"><ele>318.0</ele><time>2026-05-02T09:03:24.999Z</time></trkpt><trkpt lat="42.219294795760426" lon="13.817094829743898"><ele>318.3333333333333</ele><time>2026-05-02T09:03:25.999Z</time></trkpt><trkpt lat="42.21945309893416" lon="13.817073971964081"><ele>318.66666666666663</ele><time>2026-05-02T09:03:26.999Z</time></trkpt><trkpt lat="42.219611421337" lon="13.81706181373308"><ele>319.0</ele><time>2026-05-02T09:03:27.999Z</time></trkpt><trkpt lat="42.21977276326946" lon="13.817063002305394"><ele>318.66666666666663</ele><time>2026-05-02T09:03:28.999Z</time></trkpt><trkpt lat="42.21993586541746" lon="13.817079295902534"><ele>318.3333333333333</ele><time>2026-05-02T09:03:29.999Z</time></trkpt><trkpt lat="42.22010046040598" lon="13.81710903419407"><ele>318.0</ele><time>2026-05-02T09:03:30.999Z</time></trkpt><trkpt lat="42.22026670087181" lon="13.817148934160121"><ele>318.0</ele><time>2026-05-02T09:03:31.999Z</time></trkpt><trkpt lat="42.220435809780106" lon="13.817195983821753"><ele>318.0</ele><time>2026-05-02T09:03:32.999Z</time></trkpt><trkpt lat="42.2206071264463" lon="13.817245138867106"><ele>318.0</ele><time>2026-05-02T09:03:33.999Z</time></trkpt><trkpt lat="42.22078130986313" lon="13.817294830100325"><ele>317.6666666666667</ele><time>2026-05-02T09:03:34.999Z</time></trkpt><trkpt lat="42.22095457973112" lon="13.817343888856392"><ele>317.33333333333337</ele><time>2026-05-02T09:03:35.999Z</time></trkpt><trkpt lat="42.221126831392795" lon="13.817391239429105"><ele>317.0</ele><time>2026-05-02T09:03:36.999Z</time></trkpt><trkpt lat="42.22129528538459" lon="13.817432561853352"><ele>317.0</ele><time>2026-05-02T09:03:37.999Z</time></trkpt><trkpt lat="42.221462687005655" lon="13.817466863949015"><ele>317.0</ele><time>2026-05-02T09:03:38.999Z</time></trkpt><trkpt lat="42.22163156099063" lon="13.817487871881355"><ele>317.0</ele><time>2026-05-02T09:03:39.999Z</time></trkpt><trkpt lat="42.22180094740732" lon="13.817492805002802"><ele>317.0</ele><time>2026-05-02T09:03:40.999Z</time></trkpt><trkpt lat="42.22197054622535" lon="13.817487731535339"><ele>317.0</ele><time>2026-05-02T09:03:41.999Z</time></trkpt><trkpt lat="42.22213945179937" lon="13.817470101781739"><ele>317.0</ele><time>2026-05-02T09:03:42.999Z</time></trkpt><trkpt lat="42.222306978986325" lon="13.817438782221362"><ele>318.0</ele><time>2026-05-02T09:03:43.999Z</time></trkpt><trkpt lat="42.22247043985747" lon="13.817387046002677"><ele>319.0</ele><time>2026-05-02T09:03:44.999Z</time></trkpt><trkpt lat="42.222632988569494" lon="13.817327081208399"><ele>320.0</ele><time>2026-05-02T09:03:45.999Z</time></trkpt><trkpt lat="42.22279175510884" lon="13.817249992444768"><ele>320.0</ele><time>2026-05-02T09:03:46.999Z</time></trkpt><trkpt lat="42.222947091025716" lon="13.817158136925908"><ele>320.0</ele><time>2026-05-02T09:03:47.999Z</time></trkpt><trkpt lat="42.2230989573874" lon="13.817061626960774"><ele>320.0</ele><time>2026-05-02T09:03:48.999Z</time></trkpt><trkpt lat="42.22324811677337" lon="13.816955123052924"><ele>320.33333333333337</ele><time>2026-05-02T09:03:49.999Z</time></trkpt><trkpt lat="42.22339580894095" lon="13.816836987791207"><ele>320.6666666666667</ele><time>2026-05-02T09:03:50.999Z</time></trkpt><trkpt lat="42.223542484225945" lon="13.816716678611206"><ele>321.0</ele><time>2026-05-02T09:03:51.999Z</time></trkpt><trkpt lat="42.22368713361275" lon="13.816598297924614"><ele>321.0</ele><time>2026-05-02T09:03:52.999Z</time></trkpt><trkpt lat="42.22382994998745" lon="13.816480493250271"><ele>321.0</ele><time>2026-05-02T09:03:53.999Z</time></trkpt><trkpt lat="42.22397370715794" lon="13.816361782498426"><ele>321.0</ele><time>2026-05-02T09:03:54.999Z</time></trkpt><trkpt lat="42.224116740600785" lon="13.816246264449296"><ele>320.6666666666667</ele><time>2026-05-02T09:03:55.999Z</time></trkpt><trkpt lat="42.224258270109026" lon="13.816130854171035"><ele>320.33333333333337</ele><time>2026-05-02T09:03:56.999Z</time></trkpt><trkpt lat="42.224397819882775" lon="13.816016880768236"><ele>320.0</ele><time>2026-05-02T09:03:57.999Z</time></trkpt><trkpt lat="42.22453880711469" lon="13.815902070724874"><ele>320.0</ele><time>2026-05-02T09:03:58.999Z</time></trkpt><trkpt lat="42.22467765632236" lon="13.815796713712649"><ele>320.0</ele><time>2026-05-02T09:03:59.999Z</time></trkpt><trkpt lat="42.224819393259395" lon="13.815703833593119"><ele>320.0</ele><time>2026-05-02T09:04:00.999Z</time></trkpt><trkpt lat="42.224966198934624" lon="13.815616073094091"><ele>319.0</ele><time>2026-05-02T09:04:01.999Z</time></trkpt><trkpt lat="42.22511731019362" lon="13.815545153767115"><ele>318.0</ele><time>2026-05-02T09:04:02.999Z</time></trkpt><trkpt lat="42.22527266617405" lon="13.81548150296178"><ele>317.0</ele><time>2026-05-02T09:04:03.999Z</time></trkpt><trkpt lat="42.225433893689114" lon="13.815431159799056"><ele>317.0</ele><time>2026-05-02T09:04:04.999Z</time></trkpt><trkpt lat="42.225593756355266" lon="13.815389314526056"><ele>317.0</ele><time>2026-05-02T09:04:05.999Z</time></trkpt><trkpt lat="42.225755678058626" lon="13.815343945562223"><ele>317.0</ele><time>2026-05-02T09:04:06.999Z</time></trkpt><trkpt lat="42.22591845356912" lon="13.815295942566962"><ele>317.0</ele><time>2026-05-02T09:04:07.999Z</time></trkpt><trkpt lat="42.22608388898754" lon="13.81525097573101"><ele>317.0</ele><time>2026-05-02T09:04:08.999Z</time></trkpt><trkpt lat="42.2262495960185" lon="13.815204911610989"><ele>317.0</ele><time>2026-05-02T09:04:09.999Z</time></trkpt><trkpt lat="42.22641303395" lon="13.815158427523183"><ele>319.0</ele><time>2026-05-02T09:04:10.999Z</time></trkpt><trkpt lat="42.22657619998676" lon="13.815116068206345"><ele>321.0</ele><time>2026-05-02T09:04:11.999Z</time></trkpt><trkpt lat="42.226738399928884" lon="13.815075567455"><ele>323.0</ele><time>2026-05-02T09:04:12.999Z</time></trkpt><trkpt lat="42.22689737905467" lon="13.81503848162888"><ele>323.0</ele><time>2026-05-02T09:04:13.999Z</time></trkpt><trkpt lat="42.22705544519064" lon="13.814998565848805"><ele>323.0</ele><time>2026-05-02T09:04:14.999Z</time></trkpt><trkpt lat="42.22720978338384" lon="13.81496191629418"><ele>323.0</ele><time>2026-05-02T09:04:15.999Z</time></trkpt><trkpt lat="42.22735536603743" lon="13.814932023903488"><ele>322.0</ele><time>2026-05-02T09:04:16.999Z</time></trkpt><trkpt lat="42.227492333948675" lon="13.814913004065822"><ele>321.0</ele><time>2026-05-02T09:04:17.999Z</time></trkpt><trkpt lat="42.22762236819124" lon="13.814897082680925"><ele>320.0</ele><time>2026-05-02T09:04:18.999Z</time></trkpt><trkpt lat="42.2277448358111" lon="13.81488292469899"><ele>319.0</ele><time>2026-05-02T09:04:19.999Z</time></trkpt><trkpt lat="42.22785337108112" lon="13.814873305417672"><ele>319.0</ele><time>2026-05-02T09:04:20.999Z</time></trkpt><trkpt lat="42.2279430286212" lon="13.814864469055118"><ele>319.0</ele><time>2026-05-02T09:04:21.999Z</time></trkpt><trkpt lat="42.22802323213526" lon="13.814857229244668"><ele>319.0</ele><time>2026-05-02T09:04:22.999Z</time></trkpt><trkpt lat="42.22809695299127" lon="13.8148513124421"><ele>319.0</ele><time>2026-05-02T09:04:23.999Z</time></trkpt><trkpt lat="42.22816653606299" lon="13.814843186769915"><ele>319.0</ele><time>2026-05-02T09:04:24.999Z</time></trkpt><trkpt lat="42.22823275533923" lon="13.814833348001612"><ele>319.0</ele><time>2026-05-02T09:04:25.999Z</time></trkpt><trkpt lat="42.2282968889619" lon="13.814822931753305"><ele>319.0</ele><time>2026-05-02T09:04:26.999Z</time></trkpt><trkpt lat="42.22841444110033" lon="13.814812099791258"><ele>319.0</ele><time>2026-05-02T09:04:28.999Z</time></trkpt><trkpt lat="42.228517123712265" lon="13.81481561700688"><ele>319.0</ele><time>2026-05-02T09:04:30.999Z</time></trkpt><trkpt lat="42.22860628747653" lon="13.814819748339138"><ele>319.0</ele><time>2026-05-02T09:04:32.999Z</time></trkpt><trkpt lat="42.22868790172994" lon="13.814842534685418"><ele>319.0</ele><time>2026-05-02T09:04:34.999Z</time></trkpt><trkpt lat="42.228772691589576" lon="13.814873619300691"><ele>319.0</ele><time>2026-05-02T09:04:36.999Z</time></trkpt><trkpt lat="42.22885576951223" lon="13.81491366143279"><ele>319.0</ele><time>2026-05-02T09:04:38.999Z</time></trkpt><trkpt lat="42.228958789242284" lon="13.814970466510625"><ele>319.0</ele><time>2026-05-02T09:04:40.999Z</time></trkpt><trkpt lat="42.229032679538406" lon="13.815003139602897"><ele>319.0</ele><time>2026-05-02T09:04:41.999Z</time></trkpt><trkpt lat="42.229114646286476" lon="13.815039383991717"><ele>319.0</ele><time>2026-05-02T09:04:42.999Z</time></trkpt><trkpt lat="42.22920187601432" lon="13.81507866083212"><ele>319.0</ele><time>2026-05-02T09:04:43.999Z</time></trkpt><trkpt lat="42.22929255492817" lon="13.815102190056221"><ele>318.8333333333333</ele><time>2026-05-02T09:04:44.999Z</time></trkpt><trkpt lat="42.229360870375714" lon="13.815166575979461"><ele>318.66666666666663</ele><time>2026-05-02T09:04:45.999Z</time></trkpt><trkpt lat="42.22942047093392" lon="13.815207206144734"><ele>318.5</ele><time>2026-05-02T09:04:46.999Z</time></trkpt><trkpt lat="42.229516566422944" lon="13.815201879545286"><ele>318.3333333333333</ele><time>2026-05-02T09:04:48.999Z</time></trkpt><trkpt lat="42.229545564549966" lon="13.81531813720185"><ele>318.1666666666667</ele><time>2026-05-02T09:04:49.999Z</time></trkpt><trkpt lat="42.229618093348485" lon="13.815425304342954"><ele>318.0</ele><time>2026-05-02T09:04:51.999Z</time></trkpt><trkpt lat="42.229692679902335" lon="13.815550858384741"><ele>318.0</ele><time>2026-05-02T09:04:53.999Z</time></trkpt><trkpt lat="42.22976816653993" lon="13.815680406178917"><ele>318.0</ele><time>2026-05-02T09:04:55.999Z</time></trkpt><trkpt lat="42.22984402399266" lon="13.81580549520399"><ele>318.0</ele><time>2026-05-02T09:04:57.999Z</time></trkpt><trkpt lat="42.22990561818083" lon="13.815920204100092"><ele>318.0</ele><time>2026-05-02T09:04:59.999Z</time></trkpt><trkpt lat="42.2299451590099" lon="13.816006611798917"><ele>318.0</ele><time>2026-05-02T09:05:01.999Z</time></trkpt><trkpt lat="42.22994212518178" lon="13.816106254375827"><ele>317.7142857142857</ele><time>2026-05-02T09:05:03.999Z</time></trkpt><trkpt lat="42.22992902503169" lon="13.816189787288513"><ele>317.42857142857144</ele><time>2026-05-02T09:05:04.999Z</time></trkpt><trkpt lat="42.22991288111496" lon="13.816284098074942"><ele>317.14285714285717</ele><time>2026-05-02T09:05:05.999Z</time></trkpt><trkpt lat="42.229896868820774" lon="13.81638600364087"><ele>316.8571428571429</ele><time>2026-05-02T09:05:06.999Z</time></trkpt><trkpt lat="42.229885844101325" lon="13.816488795243515"><ele>316.57142857142856</ele><time>2026-05-02T09:05:07.999Z</time></trkpt><trkpt lat="42.22987328200188" lon="13.816588734128313"><ele>316.28571428571433</ele><time>2026-05-02T09:05:08.999Z</time></trkpt><trkpt lat="42.229884082751674" lon="13.81667508872462"><ele>316.0</ele><time>2026-05-02T09:05:09.999Z</time></trkpt><trkpt lat="42.229914016539595" lon="13.816799485250923"><ele>315.66666666666663</ele><time>2026-05-02T09:05:11.999Z</time></trkpt><trkpt lat="42.229928232350574" lon="13.816886562801935"><ele>315.3333333333333</ele><time>2026-05-02T09:05:12.999Z</time></trkpt><trkpt lat="42.22994267280444" lon="13.816972503535254"><ele>315.0</ele><time>2026-05-02T09:05:13.999Z</time></trkpt><trkpt lat="42.22995894084021" lon="13.817076005600493"><ele>314.6666666666667</ele><time>2026-05-02T09:05:14.999Z</time></trkpt><trkpt lat="42.229959113514276" lon="13.817204587402097"><ele>314.33333333333337</ele><time>2026-05-02T09:05:15.999Z</time></trkpt><trkpt lat="42.22997200734009" lon="13.817355018115853"><ele>314.0</ele><time>2026-05-02T09:05:16.999Z</time></trkpt><trkpt lat="42.22998333079616" lon="13.817497901357559"><ele>314.25</ele><time>2026-05-02T09:05:17.999Z</time></trkpt><trkpt lat="42.22999555134338" lon="13.8176521044148"><ele>314.5</ele><time>2026-05-02T09:05:18.999Z</time></trkpt><trkpt lat="42.23002705340106" lon="13.81781112774165"><ele>314.75</ele><time>2026-05-02T09:05:19.999Z</time></trkpt><trkpt lat="42.230041911889074" lon="13.817975433648416"><ele>315.0</ele><time>2026-05-02T09:05:20.999Z</time></trkpt><trkpt lat="42.2300576781571" lon="13.818142988959291"><ele>315.0</ele><time>2026-05-02T09:05:21.999Z</time></trkpt><trkpt lat="42.23007092671942" lon="13.818312901816524"><ele>315.0</ele><time>2026-05-02T09:05:22.999Z</time></trkpt><trkpt lat="42.230082439634266" lon="13.818484507656732"><ele>315.0</ele><time>2026-05-02T09:05:23.999Z</time></trkpt><trkpt lat="42.23008886803208" lon="13.81865475077622"><ele>315.0</ele><time>2026-05-02T09:05:24.999Z</time></trkpt><trkpt lat="42.23007184582093" lon="13.818819576005271"><ele>315.0</ele><time>2026-05-02T09:05:25.999Z</time></trkpt><trkpt lat="42.23008928122746" lon="13.818978984530698"><ele>315.0</ele><time>2026-05-02T09:05:26.999Z</time></trkpt><trkpt lat="42.230093871948235" lon="13.819132180039468"><ele>315.0</ele><time>2026-05-02T09:05:27.999Z</time></trkpt><trkpt lat="42.2301019061022" lon="13.819274451977645"><ele>315.0</ele><time>2026-05-02T09:05:28.999Z</time></trkpt><trkpt lat="42.230109022253096" lon="13.819398232786776"><ele>315.0</ele><time>2026-05-02T09:05:29.999Z</time></trkpt><trkpt lat="42.230115762726385" lon="13.819496635371358"><ele>315.5</ele><time>2026-05-02T09:05:30.999Z</time></trkpt><trkpt lat="42.23013042193399" lon="13.819620153426326"><ele>316.0</ele><time>2026-05-02T09:05:32.999Z</time></trkpt><trkpt lat="42.230189798826274" lon="13.819666910608236"><ele>316.5</ele><time>2026-05-02T09:05:34.999Z</time></trkpt><trkpt lat="42.23030914748409" lon="13.81967121299926"><ele>317.0</ele><time>2026-05-02T09:05:36.999Z</time></trkpt><trkpt lat="42.2303873405493" lon="13.819659271156237"><ele>317.5</ele><time>2026-05-02T09:05:37.999Z</time></trkpt><trkpt lat="42.230468475345006" lon="13.819644107092929"><ele>318.0</ele><time>2026-05-02T09:05:38.999Z</time></trkpt><trkpt lat="42.23056028080937" lon="13.819625922497584"><ele>319.75</ele><time>2026-05-02T09:05:39.999Z</time></trkpt><trkpt lat="42.230667327524905" lon="13.819617716584798"><ele>321.5</ele><time>2026-05-02T09:05:40.999Z</time></trkpt><trkpt lat="42.230774869436594" lon="13.819612123184351"><ele>323.25</ele><time>2026-05-02T09:05:41.999Z</time></trkpt><trkpt lat="42.23088965891196" lon="13.819598889603492"><ele>325.0</ele><time>2026-05-02T09:05:42.999Z</time></trkpt><trkpt lat="42.23100657146193" lon="13.819561619728503"><ele>325.0</ele><time>2026-05-02T09:05:43.999Z</time></trkpt><trkpt lat="42.23111903163584" lon="13.819503721606742"><ele>325.0</ele><time>2026-05-02T09:05:44.999Z</time></trkpt><trkpt lat="42.23121458465556" lon="13.819440404430944"><ele>325.0</ele><time>2026-05-02T09:05:45.999Z</time></trkpt><trkpt lat="42.23130372272347" lon="13.819384203170888"><ele>325.0</ele><time>2026-05-02T09:05:46.999Z</time></trkpt><trkpt lat="42.231394486510005" lon="13.819327635503939"><ele>325.0</ele><time>2026-05-02T09:05:47.999Z</time></trkpt><trkpt lat="42.231487849437684" lon="13.819274909799361"><ele>324.0</ele><time>2026-05-02T09:05:48.999Z</time></trkpt><trkpt lat="42.23158856219769" lon="13.819216053529495"><ele>323.0</ele><time>2026-05-02T09:05:49.999Z</time></trkpt><trkpt lat="42.231688932863364" lon="13.81917038682048"><ele>322.0</ele><time>2026-05-02T09:05:50.999Z</time></trkpt><trkpt lat="42.23179506664126" lon="13.819134273797404"><ele>321.0</ele><time>2026-05-02T09:05:51.999Z</time></trkpt><trkpt lat="42.23190576842472" lon="13.819113108631806"><ele>320.0</ele><time>2026-05-02T09:05:52.999Z</time></trkpt><trkpt lat="42.232021020735885" lon="13.819097068477443"><ele>320.0</ele><time>2026-05-02T09:05:53.999Z</time></trkpt><trkpt lat="42.23213858260226" lon="13.819070798085734"><ele>320.0</ele><time>2026-05-02T09:05:54.999Z</time></trkpt><trkpt lat="42.23225442805354" lon="13.819056152919531"><ele>320.0</ele><time>2026-05-02T09:05:55.999Z</time></trkpt><trkpt lat="42.23238230478906" lon="13.819062222437724"><ele>320.0</ele><time>2026-05-02T09:05:56.999Z</time></trkpt><trkpt lat="42.232519277168" lon="13.819059121974695"><ele>320.25</ele><time>2026-05-02T09:05:57.999Z</time></trkpt><trkpt lat="42.23266192515859" lon="13.819051443428208"><ele>320.5</ele><time>2026-05-02T09:05:58.999Z</time></trkpt><trkpt lat="42.23280027782301" lon="13.81903742517478"><ele>320.75</ele><time>2026-05-02T09:05:59.999Z</time></trkpt><trkpt lat="42.232937999162175" lon="13.819001692221581"><ele>321.0</ele><time>2026-05-02T09:06:00.999Z</time></trkpt><trkpt lat="42.23307725278582" lon="13.818941329708672"><ele>323.5</ele><time>2026-05-02T09:06:01.999Z</time></trkpt><trkpt lat="42.23321582666488" lon="13.81887324551652"><ele>326.0</ele><time>2026-05-02T09:06:02.999Z</time></trkpt><trkpt lat="42.2333567233566" lon="13.818806887419875"><ele>328.5</ele><time>2026-05-02T09:06:03.999Z</time></trkpt><trkpt lat="42.233499764854805" lon="13.818735142637177"><ele>331.0</ele><time>2026-05-02T09:06:04.999Z</time></trkpt><trkpt lat="42.23364107530744" lon="13.818659615569818"><ele>331.0</ele><time>2026-05-02T09:06:05.999Z</time></trkpt><trkpt lat="42.23378069499408" lon="13.818574749127336"><ele>331.0</ele><time>2026-05-02T09:06:06.999Z</time></trkpt><trkpt lat="42.233922014507506" lon="13.8184891970903"><ele>331.0</ele><time>2026-05-02T09:06:07.999Z</time></trkpt><trkpt lat="42.23406316702312" lon="13.81840401572172"><ele>329.75</ele><time>2026-05-02T09:06:08.999Z</time></trkpt><trkpt lat="42.234197631249366" lon="13.818313087924045"><ele>328.5</ele><time>2026-05-02T09:06:09.999Z</time></trkpt><trkpt lat="42.234324645473414" lon="13.818207987340122"><ele>327.25</ele><time>2026-05-02T09:06:10.999Z</time></trkpt><trkpt lat="42.23444364911852" lon="13.81809002647182"><ele>326.0</ele><time>2026-05-02T09:06:11.999Z</time></trkpt><trkpt lat="42.23455924222246" lon="13.81796863868402"><ele>326.0</ele><time>2026-05-02T09:06:12.999Z</time></trkpt><trkpt lat="42.23466503729335" lon="13.81783769349881"><ele>326.0</ele><time>2026-05-02T09:06:13.999Z</time></trkpt><trkpt lat="42.23476302038885" lon="13.817695639309445"><ele>326.0</ele><time>2026-05-02T09:06:14.999Z</time></trkpt><trkpt lat="42.23485760612387" lon="13.817548966631646"><ele>326.0</ele><time>2026-05-02T09:06:15.999Z</time></trkpt><trkpt lat="42.23494812242721" lon="13.817402355586184"><ele>324.75</ele><time>2026-05-02T09:06:16.999Z</time></trkpt><trkpt lat="42.23503017869908" lon="13.817254184089975"><ele>323.5</ele><time>2026-05-02T09:06:17.999Z</time></trkpt><trkpt lat="42.23510238888722" lon="13.817106835431897"><ele>322.25</ele><time>2026-05-02T09:06:18.999Z</time></trkpt><trkpt lat="42.23516902527952" lon="13.816961013387806"><ele>321.0</ele><time>2026-05-02T09:06:19.999Z</time></trkpt><trkpt lat="42.23522785708681" lon="13.816825306451205"><ele>320.40000000000003</ele><time>2026-05-02T09:06:20.999Z</time></trkpt><trkpt lat="42.23528302179502" lon="13.81670268941533"><ele>319.8</ele><time>2026-05-02T09:06:21.999Z</time></trkpt><trkpt lat="42.23533617483612" lon="13.816588126951299"><ele>319.20000000000005</ele><time>2026-05-02T09:06:22.999Z</time></trkpt><trkpt lat="42.23539527471583" lon="13.816484403093844"><ele>318.6</ele><time>2026-05-02T09:06:23.999Z</time></trkpt><trkpt lat="42.23546258858006" lon="13.816407687305587"><ele>318.0</ele><time>2026-05-02T09:06:24.999Z</time></trkpt><trkpt lat="42.23553959933128" lon="13.816342081176797"><ele>318.0</ele><time>2026-05-02T09:06:25.999Z</time></trkpt><trkpt lat="42.235628838585804" lon="13.816289864525595"><ele>318.0</ele><time>2026-05-02T09:06:26.999Z</time></trkpt><trkpt lat="42.2357276684658" lon="13.81625276758938"><ele>318.0</ele><time>2026-05-02T09:06:27.999Z</time></trkpt><trkpt lat="42.23583037253858" lon="13.816232608624157"><ele>318.0</ele><time>2026-05-02T09:06:28.999Z</time></trkpt><trkpt lat="42.23593398451891" lon="13.816235504540092"><ele>318.0</ele><time>2026-05-02T09:06:29.999Z</time></trkpt><trkpt lat="42.236034327695634" lon="13.81627405503294"><ele>318.5</ele><time>2026-05-02T09:06:30.999Z</time></trkpt><trkpt lat="42.23613545133388" lon="13.816349476276534"><ele>319.0</ele><time>2026-05-02T09:06:31.999Z</time></trkpt><trkpt lat="42.23624371552699" lon="13.816446585047554"><ele>319.5</ele><time>2026-05-02T09:06:32.999Z</time></trkpt><trkpt lat="42.23636044937449" lon="13.81654460362572"><ele>320.0</ele><time>2026-05-02T09:06:33.999Z</time></trkpt><trkpt lat="42.23648428857077" lon="13.81663211398245"><ele>320.0</ele><time>2026-05-02T09:06:34.999Z</time></trkpt><trkpt lat="42.23660559893593" lon="13.81669625851838"><ele>320.0</ele><time>2026-05-02T09:06:35.999Z</time></trkpt><trkpt lat="42.23672777666565" lon="13.816737913006808"><ele>320.0</ele><time>2026-05-02T09:06:36.999Z</time></trkpt><trkpt lat="42.23685007116434" lon="13.816758038339492"><ele>320.0</ele><time>2026-05-02T09:06:37.999Z</time></trkpt><trkpt lat="42.23697149623792" lon="13.81676216224836"><ele>320.0</ele><time>2026-05-02T09:06:38.999Z</time></trkpt><trkpt lat="42.23709058260693" lon="13.816749857554724"><ele>320.0</ele><time>2026-05-02T09:06:39.999Z</time></trkpt><trkpt lat="42.23720946886793" lon="13.816717432245662"><ele>320.0</ele><time>2026-05-02T09:06:40.999Z</time></trkpt><trkpt lat="42.23733288585079" lon="13.816669941491647"><ele>320.0</ele><time>2026-05-02T09:06:41.999Z</time></trkpt><trkpt lat="42.23745584450571" lon="13.816608135056443"><ele>319.75</ele><time>2026-05-02T09:06:42.999Z</time></trkpt><trkpt lat="42.23758268822359" lon="13.816542574503712"><ele>319.5</ele><time>2026-05-02T09:06:43.999Z</time></trkpt><trkpt lat="42.23770861228866" lon="13.816482923073561"><ele>319.25</ele><time>2026-05-02T09:06:44.999Z</time></trkpt><trkpt lat="42.237832284169386" lon="13.816426709669983"><ele>319.0</ele><time>2026-05-02T09:06:45.999Z</time></trkpt><trkpt lat="42.23795329186899" lon="13.816369223967513"><ele>319.0</ele><time>2026-05-02T09:06:46.999Z</time></trkpt><trkpt lat="42.23807440027939" lon="13.816315551255332"><ele>319.0</ele><time>2026-05-02T09:06:47.999Z</time></trkpt><trkpt lat="42.23819183081905" lon="13.816258706842493"><ele>319.0</ele><time>2026-05-02T09:06:48.999Z</time></trkpt><trkpt lat="42.23830607458761" lon="13.816201058941097"><ele>319.0</ele><time>2026-05-02T09:06:49.999Z</time></trkpt><trkpt lat="42.23841344555311" lon="13.816147494285472"><ele>319.0</ele><time>2026-05-02T09:06:50.999Z</time></trkpt><trkpt lat="42.238510548995514" lon="13.816109072092065"><ele>319.0</ele><time>2026-05-02T09:06:51.999Z</time></trkpt><trkpt lat="42.238599886643755" lon="13.816094185783232"><ele>319.0</ele><time>2026-05-02T09:06:52.999Z</time></trkpt><trkpt lat="42.23869155447723" lon="13.816098599420574"><ele>319.0</ele><time>2026-05-02T09:06:53.999Z</time></trkpt><trkpt lat="42.23877995932066" lon="13.816114561856867"><ele>319.0</ele><time>2026-05-02T09:06:54.999Z</time></trkpt><trkpt lat="42.238866703245655" lon="13.816131968467904"><ele>319.0</ele><time>2026-05-02T09:06:55.999Z</time></trkpt><trkpt lat="42.238950645975414" lon="13.816143958927828"><ele>319.0</ele><time>2026-05-02T09:06:56.999Z</time></trkpt><trkpt lat="42.2390318599789" lon="13.816158001091045"><ele>319.0</ele><time>2026-05-02T09:06:57.999Z</time></trkpt><trkpt lat="42.239109034951454" lon="13.816170205677178"><ele>319.0</ele><time>2026-05-02T09:06:58.999Z</time></trkpt><trkpt lat="42.239219446394074" lon="13.81619168888158"><ele>319.0</ele><time>2026-05-02T09:07:00.999Z</time></trkpt><trkpt lat="42.23928760197408" lon="13.816209041424584"><ele>319.0</ele><time>2026-05-02T09:07:02.999Z</time></trkpt><trkpt lat="42.239345375813926" lon="13.8162482861132"><ele>319.66666666666663</ele><time>2026-05-02T09:07:05.999Z</time></trkpt><trkpt lat="42.23937977551977" lon="13.816346085765023"><ele>320.3333333333333</ele><time>2026-05-02T09:07:07.999Z</time></trkpt><trkpt lat="42.23945327263351" lon="13.8164543908884"><ele>321.0</ele><time>2026-05-02T09:07:09.999Z</time></trkpt><trkpt lat="42.239517215633924" lon="13.816509649011067"><ele>321.6666666666667</ele><time>2026-05-02T09:07:11.999Z</time></trkpt><trkpt lat="42.239623961907014" lon="13.816498743833634"><ele>322.33333333333337</ele><time>2026-05-02T09:07:13.999Z</time></trkpt><trkpt lat="42.2396980292916" lon="13.81648607457998"><ele>323.0</ele><time>2026-05-02T09:07:14.999Z</time></trkpt><trkpt lat="42.23978173188084" lon="13.816469947417024"><ele>323.6666666666667</ele><time>2026-05-02T09:07:15.999Z</time></trkpt><trkpt lat="42.239863828450304" lon="13.816437496094352"><ele>324.33333333333337</ele><time>2026-05-02T09:07:16.999Z</time></trkpt><trkpt lat="42.23993864305088" lon="13.81639987375514"><ele>325.0</ele><time>2026-05-02T09:07:17.999Z</time></trkpt><trkpt lat="42.24001353241864" lon="13.816366304290105"><ele>325.6666666666667</ele><time>2026-05-02T09:07:18.999Z</time></trkpt><trkpt lat="42.24010138915813" lon="13.816352223520461"><ele>326.3333333333333</ele><time>2026-05-02T09:07:19.999Z</time></trkpt><trkpt lat="42.2401928541338" lon="13.816347829063972"><ele>327.0</ele><time>2026-05-02T09:07:20.999Z</time></trkpt><trkpt lat="42.24028935560309" lon="13.816344291267052"><ele>327.0</ele><time>2026-05-02T09:07:21.999Z</time></trkpt><trkpt lat="42.240385659190274" lon="13.81634078337667"><ele>327.0</ele><time>2026-05-02T09:07:22.999Z</time></trkpt><trkpt lat="42.24048629044725" lon="13.816333850611652"><ele>327.0</ele><time>2026-05-02T09:07:23.999Z</time></trkpt><trkpt lat="42.240582957475546" lon="13.816327711100612"><ele>327.0</ele><time>2026-05-02T09:07:24.999Z</time></trkpt><trkpt lat="42.24067595164558" lon="13.816323302998523"><ele>327.0</ele><time>2026-05-02T09:07:25.999Z</time></trkpt><trkpt lat="42.24076615265433" lon="13.81632025297316"><ele>327.3333333333333</ele><time>2026-05-02T09:07:26.999Z</time></trkpt><trkpt lat="42.24085901755232" lon="13.8163118950028"><ele>327.6666666666667</ele><time>2026-05-02T09:07:27.999Z</time></trkpt><trkpt lat="42.240947721891686" lon="13.8163032576497"><ele>328.0</ele><time>2026-05-02T09:07:28.999Z</time></trkpt><trkpt lat="42.241034551280045" lon="13.816293769111255"><ele>328.33333333333337</ele><time>2026-05-02T09:07:29.999Z</time></trkpt><trkpt lat="42.24111097043034" lon="13.816284128423282"><ele>328.6666666666667</ele><time>2026-05-02T09:07:30.999Z</time></trkpt><trkpt lat="42.24121090391751" lon="13.816268936285775"><ele>329.0</ele><time>2026-05-02T09:07:32.999Z</time></trkpt><trkpt lat="42.241282382999245" lon="13.816232447336294"><ele>329.0</ele><time>2026-05-02T09:07:34.999Z</time></trkpt><trkpt lat="42.241346637502595" lon="13.816181064691513"><ele>329.0</ele><time>2026-05-02T09:07:36.999Z</time></trkpt><trkpt lat="42.241419155582584" lon="13.816134840056542"><ele>329.0</ele><time>2026-05-02T09:07:38.999Z</time></trkpt><trkpt lat="42.24150485349208" lon="13.816050431907447"><ele>329.0</ele><time>2026-05-02T09:07:40.999Z</time></trkpt><trkpt lat="42.241559156364914" lon="13.815986766808253"><ele>329.0</ele><time>2026-05-02T09:07:41.999Z</time></trkpt><trkpt lat="42.24161498840412" lon="13.815917856586601"><ele>329.0</ele><time>2026-05-02T09:07:42.999Z</time></trkpt><trkpt lat="42.24165378780104" lon="13.8158359052175"><ele>327.6666666666667</ele><time>2026-05-02T09:07:43.999Z</time></trkpt><trkpt lat="42.24166709472952" lon="13.815747606176005"><ele>326.33333333333337</ele><time>2026-05-02T09:07:44.999Z</time></trkpt><trkpt lat="42.24166181469404" lon="13.81564289818327"><ele>325.0</ele><time>2026-05-02T09:07:45.999Z</time></trkpt><trkpt lat="42.241660561094314" lon="13.81554742498553"><ele>323.6666666666667</ele><time>2026-05-02T09:07:46.999Z</time></trkpt><trkpt lat="42.24167818211964" lon="13.815443709108655"><ele>322.3333333333333</ele><time>2026-05-02T09:07:47.999Z</time></trkpt><trkpt lat="42.24170805640413" lon="13.815345991932956"><ele>321.0</ele><time>2026-05-02T09:07:48.999Z</time></trkpt><trkpt lat="42.24174147007307" lon="13.815240827622539"><ele>321.0</ele><time>2026-05-02T09:07:49.999Z</time></trkpt><trkpt lat="42.24179087778177" lon="13.815158246651759"><ele>321.0</ele><time>2026-05-02T09:07:50.999Z</time></trkpt><trkpt lat="42.24183126720064" lon="13.815088442777258"><ele>321.0</ele><time>2026-05-02T09:07:51.999Z</time></trkpt><trkpt lat="42.24189552012746" lon="13.814985077596903"><ele>321.0</ele><time>2026-05-02T09:07:53.999Z</time></trkpt><trkpt lat="42.241938044461776" lon="13.814869885033664"><ele>321.0</ele><time>2026-05-02T09:07:54.999Z</time></trkpt><trkpt lat="42.241942492974594" lon="13.814753835841184"><ele>321.0</ele><time>2026-05-02T09:07:56.999Z</time></trkpt><trkpt lat="42.241980244791705" lon="13.814619188402137"><ele>320.6666666666667</ele><time>2026-05-02T09:07:58.999Z</time></trkpt><trkpt lat="42.24204682864285" lon="13.814563590371419"><ele>320.3333333333333</ele><time>2026-05-02T09:08:00.999Z</time></trkpt><trkpt lat="42.2421681952309" lon="13.814508800830891"><ele>320.0</ele><time>2026-05-02T09:08:02.999Z</time></trkpt><trkpt lat="42.242235456804195" lon="13.814505625120086"><ele>319.66666666666663</ele><time>2026-05-02T09:08:03.999Z</time></trkpt><trkpt lat="42.24229630780475" lon="13.814483277280793"><ele>319.3333333333333</ele><time>2026-05-02T09:08:04.999Z</time></trkpt><trkpt lat="42.24236687544342" lon="13.814427494789115"><ele>319.0</ele><time>2026-05-02T09:08:05.999Z</time></trkpt><trkpt lat="42.24244513629138" lon="13.814351507174132"><ele>319.2</ele><time>2026-05-02T09:08:06.999Z</time></trkpt><trkpt lat="42.24252006511741" lon="13.814249447366569"><ele>319.4</ele><time>2026-05-02T09:08:07.999Z</time></trkpt><trkpt lat="42.24261273283508" lon="13.814165007655731"><ele>319.6</ele><time>2026-05-02T09:08:08.999Z</time></trkpt><trkpt lat="42.24268637622253" lon="13.814085827108164"><ele>319.8</ele><time>2026-05-02T09:08:09.999Z</time></trkpt><trkpt lat="42.24275880433423" lon="13.814010835062229"><ele>320.0</ele><time>2026-05-02T09:08:10.999Z</time></trkpt><trkpt lat="42.24283154084787" lon="13.813937723152545"><ele>320.0</ele><time>2026-05-02T09:08:11.999Z</time></trkpt><trkpt lat="42.242907837632494" lon="13.813859531562425"><ele>320.0</ele><time>2026-05-02T09:08:12.999Z</time></trkpt><trkpt lat="42.242980437761666" lon="13.813770657874807"><ele>320.0</ele><time>2026-05-02T09:08:13.999Z</time></trkpt><trkpt lat="42.2430538871914" lon="13.813687466675955"><ele>320.0</ele><time>2026-05-02T09:08:14.999Z</time></trkpt><trkpt lat="42.243120749991064" lon="13.813597572970462"><ele>320.0</ele><time>2026-05-02T09:08:15.999Z</time></trkpt><trkpt lat="42.243191411331175" lon="13.813499179452515"><ele>320.83333333333337</ele><time>2026-05-02T09:08:16.999Z</time></trkpt><trkpt lat="42.24325250970237" lon="13.8134121720062"><ele>321.6666666666667</ele><time>2026-05-02T09:08:17.999Z</time></trkpt><trkpt lat="42.243315090566334" lon="13.813355275488826"><ele>322.5</ele><time>2026-05-02T09:08:18.999Z</time></trkpt><trkpt lat="42.24336315534328" lon="13.813294501375806"><ele>323.3333333333333</ele><time>2026-05-02T09:08:19.999Z</time></trkpt><trkpt lat="42.243420466371376" lon="13.813229676906847"><ele>324.16666666666663</ele><time>2026-05-02T09:08:20.999Z</time></trkpt><trkpt lat="42.243490459768154" lon="13.813155375314066"><ele>325.0</ele><time>2026-05-02T09:08:21.999Z</time></trkpt><trkpt lat="42.243551524504575" lon="13.813059526140782"><ele>325.0</ele><time>2026-05-02T09:08:22.999Z</time></trkpt><trkpt lat="42.243620134289635" lon="13.813007649486273"><ele>325.0</ele><time>2026-05-02T09:08:23.999Z</time></trkpt><trkpt lat="42.243680721888076" lon="13.812961434923409"><ele>325.0</ele><time>2026-05-02T09:08:24.999Z</time></trkpt><trkpt lat="42.24375975549882" lon="13.812947508557668"><ele>325.0</ele><time>2026-05-02T09:08:25.999Z</time></trkpt><trkpt lat="42.243845544309" lon="13.812897175643883"><ele>325.0</ele><time>2026-05-02T09:08:26.999Z</time></trkpt><trkpt lat="42.24394176413205" lon="13.812872637223752"><ele>325.0</ele><time>2026-05-02T09:08:27.999Z</time></trkpt><trkpt lat="42.24402918722211" lon="13.812844415644157"><ele>326.0</ele><time>2026-05-02T09:08:28.999Z</time></trkpt><trkpt lat="42.24410556450414" lon="13.812820565265696"><ele>327.0</ele><time>2026-05-02T09:08:29.999Z</time></trkpt><trkpt lat="42.24417836638542" lon="13.81279232878309"><ele>328.0</ele><time>2026-05-02T09:08:30.999Z</time></trkpt><trkpt lat="42.24425179329884" lon="13.812764148535118"><ele>329.0</ele><time>2026-05-02T09:08:31.999Z</time></trkpt><trkpt lat="42.244325827564666" lon="13.812735765260935"><ele>330.0</ele><time>2026-05-02T09:08:32.999Z</time></trkpt><trkpt lat="42.244411622992395" lon="13.812702076683369"><ele>331.0</ele><time>2026-05-02T09:08:33.999Z</time></trkpt><trkpt lat="42.244494437004704" lon="13.812669558767771"><ele>330.5</ele><time>2026-05-02T09:08:34.999Z</time></trkpt><trkpt lat="42.24457296693738" lon="13.812622799016632"><ele>330.0</ele><time>2026-05-02T09:08:35.999Z</time></trkpt><trkpt lat="42.24464707602832" lon="13.812605640376724"><ele>329.5</ele><time>2026-05-02T09:08:36.999Z</time></trkpt><trkpt lat="42.24471619220315" lon="13.812569800870873"><ele>329.0</ele><time>2026-05-02T09:08:37.999Z</time></trkpt><trkpt lat="42.244787153476935" lon="13.812520555763037"><ele>328.5</ele><time>2026-05-02T09:08:38.999Z</time></trkpt><trkpt lat="42.24485276922347" lon="13.812467206624047"><ele>328.0</ele><time>2026-05-02T09:08:39.999Z</time></trkpt><trkpt lat="42.244909117874194" lon="13.8123922441164"><ele>328.0</ele><time>2026-05-02T09:08:40.999Z</time></trkpt><trkpt lat="42.24495662851584" lon="13.812308543325342"><ele>328.0</ele><time>2026-05-02T09:08:41.999Z</time></trkpt><trkpt lat="42.24499977858469" lon="13.812220203472785"><ele>328.0</ele><time>2026-05-02T09:08:42.999Z</time></trkpt><trkpt lat="42.245027695418706" lon="13.81211544638155"><ele>328.0</ele><time>2026-05-02T09:08:43.999Z</time></trkpt><trkpt lat="42.24504722164505" lon="13.811999089017908"><ele>328.0</ele><time>2026-05-02T09:08:44.999Z</time></trkpt><trkpt lat="42.245060800304245" lon="13.811871197198014"><ele>328.0</ele><time>2026-05-02T09:08:45.999Z</time></trkpt><trkpt lat="42.24507597330633" lon="13.811757998649611"><ele>327.3333333333333</ele><time>2026-05-02T09:08:46.999Z</time></trkpt><trkpt lat="42.24510369371117" lon="13.811652185955394"><ele>326.66666666666663</ele><time>2026-05-02T09:08:47.999Z</time></trkpt><trkpt lat="42.245142359692906" lon="13.81156714086861"><ele>326.0</ele><time>2026-05-02T09:08:48.999Z</time></trkpt><trkpt lat="42.24519179494045" lon="13.811489033980394"><ele>325.3333333333333</ele><time>2026-05-02T09:08:49.999Z</time></trkpt><trkpt lat="42.24524726921787" lon="13.811421200659721"><ele>324.6666666666667</ele><time>2026-05-02T09:08:50.999Z</time></trkpt><trkpt lat="42.24531300686531" lon="13.811349866812677"><ele>324.0</ele><time>2026-05-02T09:08:51.999Z</time></trkpt><trkpt lat="42.24537946512195" lon="13.811265052169812"><ele>324.0</ele><time>2026-05-02T09:08:52.999Z</time></trkpt><trkpt lat="42.245460596008286" lon="13.811194216113813"><ele>324.0</ele><time>2026-05-02T09:08:53.999Z</time></trkpt><trkpt lat="42.245547281547395" lon="13.811117722007538"><ele>324.0</ele><time>2026-05-02T09:08:54.999Z</time></trkpt><trkpt lat="42.24563137858639" lon="13.811023585297649"><ele>324.0</ele><time>2026-05-02T09:08:55.999Z</time></trkpt><trkpt lat="42.245723815586466" lon="13.810936351414018"><ele>324.0</ele><time>2026-05-02T09:08:56.999Z</time></trkpt><trkpt lat="42.24579872015607" lon="13.810847595008163"><ele>324.1666666666667</ele><time>2026-05-02T09:08:57.999Z</time></trkpt><trkpt lat="42.24586663275341" lon="13.810765785931492"><ele>324.3333333333333</ele><time>2026-05-02T09:08:58.999Z</time></trkpt><trkpt lat="42.24593010043485" lon="13.810689331621836"><ele>324.5</ele><time>2026-05-02T09:08:59.999Z</time></trkpt><trkpt lat="42.245997333032484" lon="13.810609177665944"><ele>324.66666666666663</ele><time>2026-05-02T09:09:00.999Z</time></trkpt><trkpt lat="42.2460608640544" lon="13.810533822506864"><ele>324.8333333333333</ele><time>2026-05-02T09:09:01.999Z</time></trkpt><trkpt lat="42.24611566175068" lon="13.810437827820019"><ele>325.0</ele><time>2026-05-02T09:09:02.999Z</time></trkpt><trkpt lat="42.246176551250585" lon="13.810366865788353"><ele>325.0</ele><time>2026-05-02T09:09:03.999Z</time></trkpt><trkpt lat="42.246225826139124" lon="13.810285977898534"><ele>325.0</ele><time>2026-05-02T09:09:04.999Z</time></trkpt><trkpt lat="42.24627905116669" lon="13.810208378232419"><ele>325.0</ele><time>2026-05-02T09:09:05.999Z</time></trkpt><trkpt lat="42.24633289235234" lon="13.810134942823014"><ele>325.0</ele><time>2026-05-02T09:09:06.999Z</time></trkpt><trkpt lat="42.24640516912859" lon="13.80999254862671"><ele>325.0</ele><time>2026-05-02T09:09:08.999Z</time></trkpt><trkpt lat="42.24643940953586" lon="13.809886517080368"><ele>325.0</ele><time>2026-05-02T09:09:09.999Z</time></trkpt><trkpt lat="42.24647040250546" lon="13.809765724514472"><ele>325.0</ele><time>2026-05-02T09:09:10.999Z</time></trkpt><trkpt lat="42.24651091529874" lon="13.809640434989278"><ele>325.0</ele><time>2026-05-02T09:09:11.999Z</time></trkpt><trkpt lat="42.246542233444835" lon="13.809504992472"><ele>325.0</ele><time>2026-05-02T09:09:12.999Z</time></trkpt><trkpt lat="42.246576616632815" lon="13.809379490089322"><ele>325.0</ele><time>2026-05-02T09:09:13.999Z</time></trkpt><trkpt lat="42.24661015419361" lon="13.809252707104894"><ele>325.0</ele><time>2026-05-02T09:09:14.999Z</time></trkpt><trkpt lat="42.24665032250857" lon="13.809118009327792"><ele>324.8</ele><time>2026-05-02T09:09:15.999Z</time></trkpt><trkpt lat="42.24668808553743" lon="13.808992833723012"><ele>324.6</ele><time>2026-05-02T09:09:16.999Z</time></trkpt><trkpt lat="42.24672156125447" lon="13.808868095395953"><ele>324.4</ele><time>2026-05-02T09:09:17.999Z</time></trkpt><trkpt lat="42.246748962505485" lon="13.808747445921371"><ele>324.2</ele><time>2026-05-02T09:09:18.999Z</time></trkpt><trkpt lat="42.24677421429257" lon="13.80862725387456"><ele>324.0</ele><time>2026-05-02T09:09:19.999Z</time></trkpt><trkpt lat="42.2467967098738" lon="13.80851040328281"><ele>324.1666666666667</ele><time>2026-05-02T09:09:20.999Z</time></trkpt><trkpt lat="42.246828938441645" lon="13.808407025498548"><ele>324.3333333333333</ele><time>2026-05-02T09:09:21.999Z</time></trkpt><trkpt lat="42.24684804395067" lon="13.808300760375666"><ele>324.5</ele><time>2026-05-02T09:09:22.999Z</time></trkpt><trkpt lat="42.246851853186655" lon="13.808196657482059"><ele>324.66666666666663</ele><time>2026-05-02T09:09:23.999Z</time></trkpt><trkpt lat="42.24689024274545" lon="13.808118989582505"><ele>324.8333333333333</ele><time>2026-05-02T09:09:24.999Z</time></trkpt><trkpt lat="42.24693827193426" lon="13.808033269156756"><ele>325.0</ele><time>2026-05-02T09:09:25.999Z</time></trkpt><trkpt lat="42.24699219080072" lon="13.8079514161767"><ele>325.0</ele><time>2026-05-02T09:09:26.999Z</time></trkpt><trkpt lat="42.24706212544084" lon="13.807861116775376"><ele>325.0</ele><time>2026-05-02T09:09:27.999Z</time></trkpt><trkpt lat="42.24713158908629" lon="13.807779940858145"><ele>325.0</ele><time>2026-05-02T09:09:28.999Z</time></trkpt><trkpt lat="42.247203949556905" lon="13.807704322498232"><ele>325.0</ele><time>2026-05-02T09:09:29.999Z</time></trkpt><trkpt lat="42.24727050248443" lon="13.807644152246002"><ele>325.0</ele><time>2026-05-02T09:09:30.999Z</time></trkpt><trkpt lat="42.24734192323222" lon="13.807563102973335"><ele>325.5</ele><time>2026-05-02T09:09:31.999Z</time></trkpt><trkpt lat="42.24742278526911" lon="13.80750398240297"><ele>326.0</ele><time>2026-05-02T09:09:32.999Z</time></trkpt><trkpt lat="42.247501168695266" lon="13.807454761747039"><ele>326.5</ele><time>2026-05-02T09:09:33.999Z</time></trkpt><trkpt lat="42.24757195431512" lon="13.807385465253581"><ele>327.0</ele><time>2026-05-02T09:09:34.999Z</time></trkpt><trkpt lat="42.247632098433336" lon="13.807302654344536"><ele>327.5</ele><time>2026-05-02T09:09:35.999Z</time></trkpt><trkpt lat="42.24768772884733" lon="13.80724581961405"><ele>328.0</ele><time>2026-05-02T09:09:36.999Z</time></trkpt><trkpt lat="42.24771487675897" lon="13.80710969886304"><ele>328.0</ele><time>2026-05-02T09:09:38.999Z</time></trkpt><trkpt lat="42.24772616908153" lon="13.807016492631565"><ele>328.0</ele><time>2026-05-02T09:09:39.999Z</time></trkpt><trkpt lat="42.247740112315874" lon="13.806899761525404"><ele>328.0</ele><time>2026-05-02T09:09:40.999Z</time></trkpt><trkpt lat="42.24775194946998" lon="13.80679237027901"><ele>328.0</ele><time>2026-05-02T09:09:41.999Z</time></trkpt><trkpt lat="42.24776547817108" lon="13.806700528465692"><ele>328.0</ele><time>2026-05-02T09:09:42.999Z</time></trkpt><trkpt lat="42.24779870899557" lon="13.806542594109635"><ele>328.0</ele><time>2026-05-02T09:09:44.999Z</time></trkpt><trkpt lat="42.24784503128002" lon="13.806472130415475"><ele>328.0</ele><time>2026-05-02T09:09:45.999Z</time></trkpt><trkpt lat="42.24788562350955" lon="13.8063881585525"><ele>328.0</ele><time>2026-05-02T09:09:46.999Z</time></trkpt><trkpt lat="42.24792450234234" lon="13.806274855526615"><ele>328.0</ele><time>2026-05-02T09:09:47.999Z</time></trkpt><trkpt lat="42.247983662945046" lon="13.806165739498725"><ele>328.0</ele><time>2026-05-02T09:09:48.999Z</time></trkpt><trkpt lat="42.248038769871414" lon="13.8060570376804"><ele>328.0</ele><time>2026-05-02T09:09:49.999Z</time></trkpt><trkpt lat="42.2480970006516" lon="13.805937266017429"><ele>329.16666666666663</ele><time>2026-05-02T09:09:50.999Z</time></trkpt><trkpt lat="42.24815132769193" lon="13.80583228005006"><ele>330.3333333333333</ele><time>2026-05-02T09:09:51.999Z</time></trkpt><trkpt lat="42.248209098864535" lon="13.80573207479214"><ele>331.5</ele><time>2026-05-02T09:09:52.999Z</time></trkpt><trkpt lat="42.24827020943534" lon="13.805639509839436"><ele>332.6666666666667</ele><time>2026-05-02T09:09:53.999Z</time></trkpt><trkpt lat="42.24831645901253" lon="13.805552965362256"><ele>333.83333333333337</ele><time>2026-05-02T09:09:54.999Z</time></trkpt><trkpt lat="42.248363812923415" lon="13.805477819727798"><ele>335.0</ele><time>2026-05-02T09:09:55.999Z</time></trkpt><trkpt lat="42.248410970906846" lon="13.805407347176995"><ele>335.0</ele><time>2026-05-02T09:09:56.999Z</time></trkpt><trkpt lat="42.248475741069726" lon="13.805373204352575"><ele>335.0</ele><time>2026-05-02T09:09:57.999Z</time></trkpt><trkpt lat="42.248544094969816" lon="13.805324641655826"><ele>335.0</ele><time>2026-05-02T09:09:58.999Z</time></trkpt><trkpt lat="42.24861489368397" lon="13.80526455418296"><ele>335.0</ele><time>2026-05-02T09:09:59.999Z</time></trkpt><trkpt lat="42.248701318750705" lon="13.805225251873543"><ele>335.0</ele><time>2026-05-02T09:10:00.999Z</time></trkpt><trkpt lat="42.24878481304966" lon="13.805201527075743"><ele>335.0</ele><time>2026-05-02T09:10:01.999Z</time></trkpt><trkpt lat="42.248874944031584" lon="13.805187240467804"><ele>335.0</ele><time>2026-05-02T09:10:02.999Z</time></trkpt><trkpt lat="42.24895486875852" lon="13.805174144869769"><ele>335.0</ele><time>2026-05-02T09:10:03.999Z</time></trkpt><trkpt lat="42.24902528498472" lon="13.805166750264005"><ele>335.0</ele><time>2026-05-02T09:10:04.999Z</time></trkpt><trkpt lat="42.249092052636776" lon="13.805133932616226"><ele>335.0</ele><time>2026-05-02T09:10:05.999Z</time></trkpt><trkpt lat="42.249156755490596" lon="13.805068274743377"><ele>335.0</ele><time>2026-05-02T09:10:06.999Z</time></trkpt><trkpt lat="42.24922079386372" lon="13.804986172094"><ele>335.0</ele><time>2026-05-02T09:10:07.999Z</time></trkpt><trkpt lat="42.249282376882164" lon="13.804901318323914"><ele>335.4</ele><time>2026-05-02T09:10:08.999Z</time></trkpt><trkpt lat="42.24934489255749" lon="13.804847918104505"><ele>335.8</ele><time>2026-05-02T09:10:09.999Z</time></trkpt><trkpt lat="42.249401531208775" lon="13.80477679362238"><ele>336.20000000000005</ele><time>2026-05-02T09:10:11.999Z</time></trkpt><trkpt lat="42.24950571914866" lon="13.804840993775402"><ele>336.6</ele><time>2026-05-02T09:10:13.999Z</time></trkpt><trkpt lat="42.24958366769176" lon="13.804915874012211"><ele>337.0</ele><time>2026-05-02T09:10:14.999Z</time></trkpt><trkpt lat="42.24966983550529" lon="13.804989616240253"><ele>337.0</ele><time>2026-05-02T09:10:15.999Z</time></trkpt><trkpt lat="42.249759227542704" lon="13.805038170435541"><ele>337.0</ele><time>2026-05-02T09:10:16.999Z</time></trkpt><trkpt lat="42.24985380063741" lon="13.805053991616186"><ele>337.0</ele><time>2026-05-02T09:10:17.999Z</time></trkpt><trkpt lat="42.249951888342615" lon="13.805047166535203"><ele>337.0</ele><time>2026-05-02T09:10:18.999Z</time></trkpt><trkpt lat="42.250049329532814" lon="13.805037114902854"><ele>337.0</ele><time>2026-05-02T09:10:19.999Z</time></trkpt><trkpt lat="42.25016500779084" lon="13.805026568443923"><ele>337.5</ele><time>2026-05-02T09:10:20.999Z</time></trkpt><trkpt lat="42.2502913862474" lon="13.805014570562777"><ele>338.0</ele><time>2026-05-02T09:10:21.999Z</time></trkpt><trkpt lat="42.250406427555966" lon="13.805005327545517"><ele>338.5</ele><time>2026-05-02T09:10:22.999Z</time></trkpt><trkpt lat="42.25052399477928" lon="13.804994591136674"><ele>339.0</ele><time>2026-05-02T09:10:23.999Z</time></trkpt><trkpt lat="42.250639047364494" lon="13.804986811686918"><ele>341.0</ele><time>2026-05-02T09:10:24.999Z</time></trkpt><trkpt lat="42.250744909497726" lon="13.804980811673778"><ele>343.0</ele><time>2026-05-02T09:10:25.999Z</time></trkpt><trkpt lat="42.25083925973392" lon="13.804974070877996"><ele>345.0</ele><time>2026-05-02T09:10:26.999Z</time></trkpt><trkpt lat="42.2509302309753" lon="13.80498425313184"><ele>347.0</ele><time>2026-05-02T09:10:27.999Z</time></trkpt><trkpt lat="42.25100835400945" lon="13.805022212338425"><ele>349.0</ele><time>2026-05-02T09:10:28.999Z</time></trkpt><trkpt lat="42.251073703115004" lon="13.805082534895199"><ele>349.2</ele><time>2026-05-02T09:10:29.999Z</time></trkpt><trkpt lat="42.25112700759237" lon="13.805164330859752"><ele>349.4</ele><time>2026-05-02T09:10:30.999Z</time></trkpt><trkpt lat="42.25116893826564" lon="13.805276170503538"><ele>349.6</ele><time>2026-05-02T09:10:31.999Z</time></trkpt><trkpt lat="42.251170136383415" lon="13.805408092598972"><ele>349.8</ele><time>2026-05-02T09:10:32.999Z</time></trkpt><trkpt lat="42.251185811186595" lon="13.8055706206462"><ele>350.0</ele><time>2026-05-02T09:10:33.999Z</time></trkpt><trkpt lat="42.25120304324389" lon="13.805743180350381"><ele>350.0</ele><time>2026-05-02T09:10:34.999Z</time></trkpt><trkpt lat="42.25124748401183" lon="13.805918344867976"><ele>350.0</ele><time>2026-05-02T09:10:35.999Z</time></trkpt><trkpt lat="42.251286064062775" lon="13.806090924378966"><ele>350.0</ele><time>2026-05-02T09:10:36.999Z</time></trkpt><trkpt lat="42.25134849353947" lon="13.806252446315401"><ele>350.0</ele><time>2026-05-02T09:10:37.999Z</time></trkpt><trkpt lat="42.25143095121184" lon="13.806422893630932"><ele>352.33333333333337</ele><time>2026-05-02T09:10:38.999Z</time></trkpt><trkpt lat="42.25151872308468" lon="13.80660939381596"><ele>354.6666666666667</ele><time>2026-05-02T09:10:39.999Z</time></trkpt><trkpt lat="42.25160732158933" lon="13.806812424075668"><ele>357.0</ele><time>2026-05-02T09:10:40.999Z</time></trkpt><trkpt lat="42.25169224253058" lon="13.807014101114286"><ele>357.0</ele><time>2026-05-02T09:10:41.999Z</time></trkpt><trkpt lat="42.25177813781354" lon="13.807209146513268"><ele>357.0</ele><time>2026-05-02T09:10:42.999Z</time></trkpt><trkpt lat="42.25186483827206" lon="13.807394586769373"><ele>357.0</ele><time>2026-05-02T09:10:43.999Z</time></trkpt><trkpt lat="42.251942265938645" lon="13.80756464816628"><ele>357.0</ele><time>2026-05-02T09:10:44.999Z</time></trkpt><trkpt lat="42.25201453789145" lon="13.807724999623385"><ele>357.0</ele><time>2026-05-02T09:10:45.999Z</time></trkpt><trkpt lat="42.252092004569406" lon="13.807889901705215"><ele>357.0</ele><time>2026-05-02T09:10:46.999Z</time></trkpt><trkpt lat="42.25217376964515" lon="13.808054042721167"><ele>357.0</ele><time>2026-05-02T09:10:47.999Z</time></trkpt><trkpt lat="42.252262708607816" lon="13.808212048857087"><ele>359.25</ele><time>2026-05-02T09:10:48.999Z</time></trkpt><trkpt lat="42.25235042686806" lon="13.808361638571292"><ele>361.5</ele><time>2026-05-02T09:10:49.999Z</time></trkpt><trkpt lat="42.25242875395594" lon="13.808489635264737"><ele>363.75</ele><time>2026-05-02T09:10:50.999Z</time></trkpt><trkpt lat="42.252501263163566" lon="13.808610106262101"><ele>366.0</ele><time>2026-05-02T09:10:51.999Z</time></trkpt><trkpt lat="42.252571417589564" lon="13.808732115032136"><ele>366.0</ele><time>2026-05-02T09:10:52.999Z</time></trkpt><trkpt lat="42.25263293730073" lon="13.80884242473831"><ele>366.0</ele><time>2026-05-02T09:10:53.999Z</time></trkpt><trkpt lat="42.25268065414565" lon="13.808936345482483"><ele>366.0</ele><time>2026-05-02T09:10:54.999Z</time></trkpt><trkpt lat="42.25272779856267" lon="13.809104932420487"><ele>366.0</ele><time>2026-05-02T09:10:56.999Z</time></trkpt><trkpt lat="42.25276428112606" lon="13.80919285921481"><ele>366.0</ele><time>2026-05-02T09:10:57.999Z</time></trkpt><trkpt lat="42.252817396375484" lon="13.80926647200361"><ele>366.4</ele><time>2026-05-02T09:10:58.999Z</time></trkpt><trkpt lat="42.25287326793812" lon="13.809348214917994"><ele>366.8</ele><time>2026-05-02T09:10:59.999Z</time></trkpt><trkpt lat="42.25293374639736" lon="13.80944257089905"><ele>367.2</ele><time>2026-05-02T09:11:00.999Z</time></trkpt><trkpt lat="42.253015204552085" lon="13.809534291104852"><ele>367.59999999999997</ele><time>2026-05-02T09:11:01.999Z</time></trkpt><trkpt lat="42.25310860156182" lon="13.809626070677629"><ele>368.0</ele><time>2026-05-02T09:11:02.999Z</time></trkpt><trkpt lat="42.25320113857408" lon="13.809732373877926"><ele>369.75</ele><time>2026-05-02T09:11:03.999Z</time></trkpt><trkpt lat="42.253288576039864" lon="13.809845788863766"><ele>371.5</ele><time>2026-05-02T09:11:04.999Z</time></trkpt><trkpt lat="42.25337278966216" lon="13.809955507340701"><ele>373.25</ele><time>2026-05-02T09:11:05.999Z</time></trkpt><trkpt lat="42.253473967569654" lon="13.810053638025508"><ele>375.0</ele><time>2026-05-02T09:11:06.999Z</time></trkpt><trkpt lat="42.25358840999486" lon="13.810151898304698"><ele>374.75</ele><time>2026-05-02T09:11:07.999Z</time></trkpt><trkpt lat="42.25369221653887" lon="13.810243740065546"><ele>374.5</ele><time>2026-05-02T09:11:08.999Z</time></trkpt><trkpt lat="42.25378492739482" lon="13.8103463411391"><ele>374.25</ele><time>2026-05-02T09:11:09.999Z</time></trkpt><trkpt lat="42.25387135618144" lon="13.810467028711827"><ele>374.0</ele><time>2026-05-02T09:11:10.999Z</time></trkpt><trkpt lat="42.25396164909272" lon="13.810594479693444"><ele>375.5</ele><time>2026-05-02T09:11:11.999Z</time></trkpt><trkpt lat="42.25404345263804" lon="13.81073089541441"><ele>377.0</ele><time>2026-05-02T09:11:12.999Z</time></trkpt><trkpt lat="42.254138630305235" lon="13.81084154689967"><ele>378.5</ele><time>2026-05-02T09:11:13.999Z</time></trkpt><trkpt lat="42.25424510783896" lon="13.810910405801849"><ele>380.0</ele><time>2026-05-02T09:11:14.999Z</time></trkpt><trkpt lat="42.25432685490681" lon="13.811002758816542"><ele>380.2</ele><time>2026-05-02T09:11:15.999Z</time></trkpt><trkpt lat="42.25440537326507" lon="13.811103181685514"><ele>380.4</ele><time>2026-05-02T09:11:16.999Z</time></trkpt><trkpt lat="42.25447326402837" lon="13.811215992526789"><ele>380.6</ele><time>2026-05-02T09:11:17.999Z</time></trkpt><trkpt lat="42.25453198637601" lon="13.811330571862804"><ele>380.8</ele><time>2026-05-02T09:11:18.999Z</time></trkpt><trkpt lat="42.25457491725656" lon="13.811430380717644"><ele>381.0</ele><time>2026-05-02T09:11:19.999Z</time></trkpt><trkpt lat="42.25458870278581" lon="13.811552511837073"><ele>381.0</ele><time>2026-05-02T09:11:21Z</time></trkpt><trkpt lat="42.25461947633268" lon="13.81166806851152"><ele>381.0</ele><time>2026-05-02T09:11:22Z</time></trkpt><trkpt lat="42.25465496020844" lon="13.811753887291292"><ele>381.0</ele><time>2026-05-02T09:11:23Z</time></trkpt><trkpt lat="42.254672711962314" lon="13.811851902759718"><ele>381.0</ele><time>2026-05-02T09:11:25Z</time></trkpt><trkpt lat="42.254788032796334" lon="13.811744159544467"><ele>381.0</ele><time>2026-05-02T09:11:29Z</time></trkpt><trkpt lat="42.25484102764637" lon="13.81165629098698"><ele>382.6</ele><time>2026-05-02T09:11:30Z</time></trkpt><trkpt lat="42.25490716479906" lon="13.811564010437536"><ele>384.20000000000005</ele><time>2026-05-02T09:11:31Z</time></trkpt><trkpt lat="42.254976700912835" lon="13.811459103304879"><ele>385.79999999999995</ele><time>2026-05-02T09:11:32Z</time></trkpt><trkpt lat="42.25503888286696" lon="13.811335677965301"><ele>387.4</ele><time>2026-05-02T09:11:33Z</time></trkpt><trkpt lat="42.25508926657475" lon="13.811205015232563"><ele>389.0</ele><time>2026-05-02T09:11:34Z</time></trkpt><trkpt lat="42.25514911324414" lon="13.811084690265934"><ele>388.66666666666663</ele><time>2026-05-02T09:11:35Z</time></trkpt><trkpt lat="42.25520653104175" lon="13.810970173177182"><ele>388.3333333333333</ele><time>2026-05-02T09:11:36Z</time></trkpt><trkpt lat="42.25526088161007" lon="13.81086948315423"><ele>388.0</ele><time>2026-05-02T09:11:37Z</time></trkpt><trkpt lat="42.25528954877305" lon="13.810768724483355"><ele>387.66666666666663</ele><time>2026-05-02T09:11:38Z</time></trkpt><trkpt lat="42.25531539321545" lon="13.810677327200331"><ele>387.3333333333333</ele><time>2026-05-02T09:11:39Z</time></trkpt><trkpt lat="42.25534555779231" lon="13.810592795309653"><ele>387.0</ele><time>2026-05-02T09:11:40Z</time></trkpt><trkpt lat="42.255383944501844" lon="13.810511565285495"><ele>387.0</ele><time>2026-05-02T09:11:41Z</time></trkpt><trkpt lat="42.25543467735778" lon="13.8104227413366"><ele>387.0</ele><time>2026-05-02T09:11:42Z</time></trkpt><trkpt lat="42.255500579497124" lon="13.810335201029108"><ele>387.0</ele><time>2026-05-02T09:11:43Z</time></trkpt><trkpt lat="42.25555448772148" lon="13.810241123604554"><ele>387.0</ele><time>2026-05-02T09:11:44Z</time></trkpt><trkpt lat="42.25562899177887" lon="13.810164504250835"><ele>387.0</ele><time>2026-05-02T09:11:45Z</time></trkpt><trkpt lat="42.2556827775524" lon="13.810077174541627"><ele>387.0</ele><time>2026-05-02T09:11:46Z</time></trkpt><trkpt lat="42.255735104034876" lon="13.809984368307362"><ele>387.1666666666667</ele><time>2026-05-02T09:11:47Z</time></trkpt><trkpt lat="42.255782022792225" lon="13.809892502265113"><ele>387.33333333333337</ele><time>2026-05-02T09:11:48Z</time></trkpt><trkpt lat="42.25583619191871" lon="13.809799834151413"><ele>387.5</ele><time>2026-05-02T09:11:49Z</time></trkpt><trkpt lat="42.25588981448574" lon="13.809703420905318"><ele>387.6666666666667</ele><time>2026-05-02T09:11:50Z</time></trkpt><trkpt lat="42.255943968913186" lon="13.80960594491832"><ele>387.83333333333337</ele><time>2026-05-02T09:11:51Z</time></trkpt><trkpt lat="42.255995302470915" lon="13.809512117827166"><ele>388.0</ele><time>2026-05-02T09:11:52Z</time></trkpt><trkpt lat="42.256050917695894" lon="13.80942488352159"><ele>388.00000000000006</ele><time>2026-05-02T09:11:53Z</time></trkpt><trkpt lat="42.25610285390768" lon="13.809331967353751"><ele>388.0</ele><time>2026-05-02T09:11:54Z</time></trkpt><trkpt lat="42.25614838419249" lon="13.809244950212667"><ele>388.0</ele><time>2026-05-02T09:11:55Z</time></trkpt><trkpt lat="42.25619604433591" lon="13.809159670769775"><ele>388.0</ele><time>2026-05-02T09:11:56Z</time></trkpt><trkpt lat="42.25624545728078" lon="13.809075729443933"><ele>388.00000000000006</ele><time>2026-05-02T09:11:57Z</time></trkpt><trkpt lat="42.25631187091545" lon="13.809003769472122"><ele>388.0</ele><time>2026-05-02T09:11:58Z</time></trkpt><trkpt lat="42.25638026045144" lon="13.808937936092121"><ele>387.83333333333337</ele><time>2026-05-02T09:11:59Z</time></trkpt><trkpt lat="42.25644267431197" lon="13.808863667906689"><ele>387.6666666666667</ele><time>2026-05-02T09:12:00Z</time></trkpt><trkpt lat="42.256509341684435" lon="13.808796102099913"><ele>387.5</ele><time>2026-05-02T09:12:01Z</time></trkpt><trkpt lat="42.256565891607416" lon="13.808730642320464"><ele>387.33333333333337</ele><time>2026-05-02T09:12:02Z</time></trkpt><trkpt lat="42.256620190814964" lon="13.808671107401958"><ele>387.1666666666667</ele><time>2026-05-02T09:12:03Z</time></trkpt><trkpt lat="42.25667199877426" lon="13.80861404489768"><ele>387.0</ele><time>2026-05-02T09:12:04Z</time></trkpt><trkpt lat="42.25678915642059" lon="13.808557520867078"><ele>386.1666666666667</ele><time>2026-05-02T09:12:06Z</time></trkpt><trkpt lat="42.256884015613174" lon="13.808468181832186"><ele>385.3333333333333</ele><time>2026-05-02T09:12:08Z</time></trkpt><trkpt lat="42.25694037675614" lon="13.808419167421333"><ele>384.5</ele><time>2026-05-02T09:12:09Z</time></trkpt><trkpt lat="42.257000122058436" lon="13.808366515607696"><ele>383.66666666666663</ele><time>2026-05-02T09:12:10Z</time></trkpt><trkpt lat="42.25706614930879" lon="13.808307472929847"><ele>382.8333333333333</ele><time>2026-05-02T09:12:11Z</time></trkpt><trkpt lat="42.257130699332976" lon="13.808247272173174"><ele>382.0</ele><time>2026-05-02T09:12:12Z</time></trkpt><trkpt lat="42.25720345434309" lon="13.808179419152257"><ele>382.0</ele><time>2026-05-02T09:12:13Z</time></trkpt><trkpt lat="42.257273157196785" lon="13.808109708974442"><ele>382.0</ele><time>2026-05-02T09:12:14Z</time></trkpt><trkpt lat="42.25734892996005" lon="13.808035722824545"><ele>382.0</ele><time>2026-05-02T09:12:15Z</time></trkpt><trkpt lat="42.25742579160037" lon="13.807972891950365"><ele>382.0</ele><time>2026-05-02T09:12:16Z</time></trkpt><trkpt lat="42.25750403311052" lon="13.807920131349666"><ele>382.0</ele><time>2026-05-02T09:12:17Z</time></trkpt><trkpt lat="42.257585723182224" lon="13.807864536929403"><ele>382.0</ele><time>2026-05-02T09:12:18Z</time></trkpt><trkpt lat="42.257671704065515" lon="13.807805391878487"><ele>382.40000000000003</ele><time>2026-05-02T09:12:19Z</time></trkpt><trkpt lat="42.25775459133327" lon="13.807744107161826"><ele>382.8</ele><time>2026-05-02T09:12:20Z</time></trkpt><trkpt lat="42.257840896648496" lon="13.80767144621699"><ele>383.2</ele><time>2026-05-02T09:12:21Z</time></trkpt><trkpt lat="42.25792100212675" lon="13.807586330596626"><ele>383.6</ele><time>2026-05-02T09:12:22Z</time></trkpt><trkpt lat="42.25799812657761" lon="13.80751323903401"><ele>384.0</ele><time>2026-05-02T09:12:23Z</time></trkpt><trkpt lat="42.25806356586791" lon="13.807453860012265"><ele>382.79999999999995</ele><time>2026-05-02T09:12:24Z</time></trkpt><trkpt lat="42.258138766325686" lon="13.807390021211681"><ele>381.59999999999997</ele><time>2026-05-02T09:12:25Z</time></trkpt><trkpt lat="42.258224745160184" lon="13.807332571683965"><ele>380.4</ele><time>2026-05-02T09:12:26Z</time></trkpt><trkpt lat="42.2583210587912" lon="13.807282363519247"><ele>379.2</ele><time>2026-05-02T09:12:27Z</time></trkpt><trkpt lat="42.25842007931442" lon="13.807237752088026"><ele>378.0</ele><time>2026-05-02T09:12:28Z</time></trkpt><trkpt lat="42.25850798928583" lon="13.807211796799235"><ele>378.0</ele><time>2026-05-02T09:12:29Z</time></trkpt><trkpt lat="42.258593944881724" lon="13.807196046807672"><ele>378.0</ele><time>2026-05-02T09:12:30Z</time></trkpt><trkpt lat="42.25866817450774" lon="13.807182037182383"><ele>378.0</ele><time>2026-05-02T09:12:31Z</time></trkpt><trkpt lat="42.25875729416264" lon="13.807154694778147"><ele>378.0</ele><time>2026-05-02T09:12:32Z</time></trkpt><trkpt lat="42.258836225849265" lon="13.807120010881794"><ele>378.0</ele><time>2026-05-02T09:12:33Z</time></trkpt><trkpt lat="42.25893249045536" lon="13.8070778980561"><ele>378.0</ele><time>2026-05-02T09:12:34Z</time></trkpt><trkpt lat="42.25902786033559" lon="13.807036176619484"><ele>377.79999999999995</ele><time>2026-05-02T09:12:35Z</time></trkpt><trkpt lat="42.259106304870066" lon="13.806998576689343"><ele>377.6</ele><time>2026-05-02T09:12:36Z</time></trkpt><trkpt lat="42.25919286777855" lon="13.806946716021038"><ele>377.4</ele><time>2026-05-02T09:12:37Z</time></trkpt><trkpt lat="42.25927145870394" lon="13.806884504922564"><ele>377.20000000000005</ele><time>2026-05-02T09:12:38Z</time></trkpt><trkpt lat="42.259350225774845" lon="13.80682419735985"><ele>377.0</ele><time>2026-05-02T09:12:39Z</time></trkpt><trkpt lat="42.25943535228149" lon="13.806763824508435"><ele>377.0</ele><time>2026-05-02T09:12:40Z</time></trkpt><trkpt lat="42.25953193876262" lon="13.806707971302993"><ele>377.0</ele><time>2026-05-02T09:12:41Z</time></trkpt><trkpt lat="42.25962191938335" lon="13.806668729101087"><ele>377.0</ele><time>2026-05-02T09:12:42Z</time></trkpt><trkpt lat="42.25970755714577" lon="13.806629579499122"><ele>377.0</ele><time>2026-05-02T09:12:43Z</time></trkpt><trkpt lat="42.25979946081218" lon="13.806584413162692"><ele>377.0</ele><time>2026-05-02T09:12:44Z</time></trkpt><trkpt lat="42.259890047688906" lon="13.806537625486854"><ele>377.0</ele><time>2026-05-02T09:12:45Z</time></trkpt><trkpt lat="42.2599865724619" lon="13.806483494647406"><ele>377.0</ele><time>2026-05-02T09:12:46Z</time></trkpt><trkpt lat="42.260070700002544" lon="13.806429781229701"><ele>377.0</ele><time>2026-05-02T09:12:47Z</time></trkpt><trkpt lat="42.26013909814997" lon="13.806377071634827"><ele>377.0</ele><time>2026-05-02T09:12:48Z</time></trkpt><trkpt lat="42.26020246378432" lon="13.806303396600446"><ele>377.0</ele><time>2026-05-02T09:12:49Z</time></trkpt><trkpt lat="42.26028842204687" lon="13.806223732046742"><ele>377.0</ele><time>2026-05-02T09:12:50Z</time></trkpt><trkpt lat="42.2603834816967" lon="13.806160469396492"><ele>377.0</ele><time>2026-05-02T09:12:51Z</time></trkpt><trkpt lat="42.26047074993284" lon="13.806106359145605"><ele>377.0</ele><time>2026-05-02T09:12:52Z</time></trkpt><trkpt lat="42.26055906734614" lon="13.806051117482584"><ele>377.0</ele><time>2026-05-02T09:12:53Z</time></trkpt><trkpt lat="42.260649418312795" lon="13.805991479177782"><ele>377.0</ele><time>2026-05-02T09:12:54Z</time></trkpt><trkpt lat="42.26073037030073" lon="13.805938044983607"><ele>376.5</ele><time>2026-05-02T09:12:55Z</time></trkpt><trkpt lat="42.26081677390397" lon="13.805882621497913"><ele>376.0</ele><time>2026-05-02T09:12:56Z</time></trkpt><trkpt lat="42.26089026376015" lon="13.805838881787446"><ele>375.5</ele><time>2026-05-02T09:12:57Z</time></trkpt><trkpt lat="42.26096400787439" lon="13.805800271473423"><ele>375.0</ele><time>2026-05-02T09:12:59Z</time></trkpt><trkpt lat="42.261041703464215" lon="13.805743525711957"><ele>374.5</ele><time>2026-05-02T09:13:02Z</time></trkpt><trkpt lat="42.26112690689934" lon="13.80572964261996"><ele>374.0</ele><time>2026-05-02T09:13:04Z</time></trkpt><trkpt lat="42.26126025214374" lon="13.80565252777314"><ele>374.0</ele><time>2026-05-02T09:13:06Z</time></trkpt><trkpt lat="42.261345841197816" lon="13.805627817648475"><ele>374.0</ele><time>2026-05-02T09:13:07Z</time></trkpt><trkpt lat="42.26143429008089" lon="13.80558628586457"><ele>374.0</ele><time>2026-05-02T09:13:08Z</time></trkpt><trkpt lat="42.261520318314886" lon="13.805547228143137"><ele>374.0</ele><time>2026-05-02T09:13:09Z</time></trkpt><trkpt lat="42.26160216555562" lon="13.805492816147462"><ele>374.0</ele><time>2026-05-02T09:13:10Z</time></trkpt><trkpt lat="42.26168949495702" lon="13.805459594984619"><ele>373.5</ele><time>2026-05-02T09:13:11Z</time></trkpt><trkpt lat="42.261776637314966" lon="13.805428463849557"><ele>373.0</ele><time>2026-05-02T09:13:12Z</time></trkpt><trkpt lat="42.261864906022986" lon="13.805393886102808"><ele>372.5</ele><time>2026-05-02T09:13:13Z</time></trkpt><trkpt lat="42.2619490570119" lon="13.805358464363861"><ele>372.0</ele><time>2026-05-02T09:13:14Z</time></trkpt><trkpt lat="42.26203251414752" lon="13.80535002013529"><ele>371.5</ele><time>2026-05-02T09:13:15Z</time></trkpt><trkpt lat="42.262104284429704" lon="13.805326854808724"><ele>371.0</ele><time>2026-05-02T09:13:16Z</time></trkpt><trkpt lat="42.262207031781514" lon="13.805304721244926"><ele>371.0</ele><time>2026-05-02T09:13:18Z</time></trkpt><trkpt lat="42.26226956269744" lon="13.80528858489049"><ele>371.0</ele><time>2026-05-02T09:13:20Z</time></trkpt><trkpt lat="42.262367575466456" lon="13.805287592564"><ele>371.0</ele><time>2026-05-02T09:13:23Z</time></trkpt><trkpt lat="42.26243373705832" lon="13.805280533810016"><ele>371.0</ele><time>2026-05-02T09:13:24Z</time></trkpt><trkpt lat="42.262507495409984" lon="13.80533030969095"><ele>371.0</ele><time>2026-05-02T09:13:25Z</time></trkpt><trkpt lat="42.26257674985546" lon="13.805337361547085"><ele>371.0</ele><time>2026-05-02T09:13:26Z</time></trkpt><trkpt lat="42.26265090155366" lon="13.805327616261588"><ele>370.8</ele><time>2026-05-02T09:13:27Z</time></trkpt><trkpt lat="42.262738276479176" lon="13.805307223818359"><ele>370.6</ele><time>2026-05-02T09:13:28Z</time></trkpt><trkpt lat="42.26283388832363" lon="13.805283116784574"><ele>370.4</ele><time>2026-05-02T09:13:29Z</time></trkpt><trkpt lat="42.26292381211967" lon="13.805263282767651"><ele>370.2</ele><time>2026-05-02T09:13:30Z</time></trkpt><trkpt lat="42.26301864982558" lon="13.80524305014558"><ele>370.0</ele><time>2026-05-02T09:13:31Z</time></trkpt><trkpt lat="42.263113263291345" lon="13.80522294613136"><ele>369.2</ele><time>2026-05-02T09:13:32Z</time></trkpt><trkpt lat="42.2632095890037" lon="13.805202609287756"><ele>368.4</ele><time>2026-05-02T09:13:33Z</time></trkpt><trkpt lat="42.263308159753045" lon="13.805181798529379"><ele>367.6</ele><time>2026-05-02T09:13:34Z</time></trkpt><trkpt lat="42.26340895104859" lon="13.805156819261583"><ele>366.8</ele><time>2026-05-02T09:13:35Z</time></trkpt><trkpt lat="42.263512533369" lon="13.805131253533037"><ele>366.0</ele><time>2026-05-02T09:13:36Z</time></trkpt><trkpt lat="42.26361346809435" lon="13.805106341238048"><ele>365.8333333333333</ele><time>2026-05-02T09:13:37Z</time></trkpt><trkpt lat="42.263703002145384" lon="13.805063106143725"><ele>365.6666666666667</ele><time>2026-05-02T09:13:38Z</time></trkpt><trkpt lat="42.263790123694235" lon="13.805068403496564"><ele>365.5</ele><time>2026-05-02T09:13:39Z</time></trkpt><trkpt lat="42.263869353043034" lon="13.805057720966136"><ele>365.33333333333337</ele><time>2026-05-02T09:13:40Z</time></trkpt><trkpt lat="42.26395051779098" lon="13.805052204505024"><ele>365.1666666666667</ele><time>2026-05-02T09:13:41Z</time></trkpt><trkpt lat="42.26403500286532" lon="13.805051293407608"><ele>365.0</ele><time>2026-05-02T09:13:42Z</time></trkpt><trkpt lat="42.264125075429014" lon="13.805052021607416"><ele>364.4</ele><time>2026-05-02T09:13:43Z</time></trkpt><trkpt lat="42.26421950907853" lon="13.805051290081188"><ele>363.8</ele><time>2026-05-02T09:13:44Z</time></trkpt><trkpt lat="42.264320043244844" lon="13.80504571604784"><ele>363.20000000000005</ele><time>2026-05-02T09:13:45Z</time></trkpt><trkpt lat="42.264422067553426" lon="13.805032122502688"><ele>362.6</ele><time>2026-05-02T09:13:46Z</time></trkpt><trkpt lat="42.26452804989798" lon="13.80499636435514"><ele>362.0</ele><time>2026-05-02T09:13:47Z</time></trkpt><trkpt lat="42.26463724020386" lon="13.804975424557997"><ele>362.0</ele><time>2026-05-02T09:13:48Z</time></trkpt><trkpt lat="42.26474866089986" lon="13.804945600876366"><ele>362.0</ele><time>2026-05-02T09:13:49Z</time></trkpt><trkpt lat="42.26486183996302" lon="13.80491570795099"><ele>362.0</ele><time>2026-05-02T09:13:50Z</time></trkpt><trkpt lat="42.26497315924963" lon="13.804888230818054"><ele>362.0</ele><time>2026-05-02T09:13:51Z</time></trkpt><trkpt lat="42.26507201449019" lon="13.804853516837461"><ele>362.0</ele><time>2026-05-02T09:13:52Z</time></trkpt><trkpt lat="42.26517145665898" lon="13.804816556599757"><ele>361.20000000000005</ele><time>2026-05-02T09:13:53Z</time></trkpt><trkpt lat="42.265272650913076" lon="13.804781140814004"><ele>360.4</ele><time>2026-05-02T09:13:54Z</time></trkpt><trkpt lat="42.26537605750919" lon="13.804746320605583"><ele>359.6</ele><time>2026-05-02T09:13:55Z</time></trkpt><trkpt lat="42.26548268354701" lon="13.80471027970687"><ele>358.79999999999995</ele><time>2026-05-02T09:13:56Z</time></trkpt><trkpt lat="42.265587411105486" lon="13.804673481509504"><ele>358.0</ele><time>2026-05-02T09:13:57Z</time></trkpt><trkpt lat="42.26569502177191" lon="13.804630079367469"><ele>357.59999999999997</ele><time>2026-05-02T09:13:58Z</time></trkpt><trkpt lat="42.265801848501965" lon="13.804589373425701"><ele>357.2</ele><time>2026-05-02T09:13:59Z</time></trkpt><trkpt lat="42.265898922119064" lon="13.804551541080414"><ele>356.8</ele><time>2026-05-02T09:14:00Z</time></trkpt><trkpt lat="42.265989330881006" lon="13.804520852633987"><ele>356.4</ele><time>2026-05-02T09:14:01Z</time></trkpt><trkpt lat="42.26606921498988" lon="13.80449411601736"><ele>356.0</ele><time>2026-05-02T09:14:02Z</time></trkpt><trkpt lat="42.266144010134184" lon="13.804467553951042"><ele>356.0</ele><time>2026-05-02T09:14:03Z</time></trkpt><trkpt lat="42.26621776844197" lon="13.80443762541964"><ele>356.0</ele><time>2026-05-02T09:14:04Z</time></trkpt><trkpt lat="42.26629984111583" lon="13.8043919615643"><ele>356.0</ele><time>2026-05-02T09:14:05Z</time></trkpt><trkpt lat="42.266380815288564" lon="13.804335028997105"><ele>356.0</ele><time>2026-05-02T09:14:06Z</time></trkpt><trkpt lat="42.2664710992871" lon="13.804294296358032"><ele>356.0</ele><time>2026-05-02T09:14:07Z</time></trkpt><trkpt lat="42.26655478862573" lon="13.804226022382698"><ele>355.8</ele><time>2026-05-02T09:14:08Z</time></trkpt><trkpt lat="42.26663517354865" lon="13.804154244454365"><ele>355.6</ele><time>2026-05-02T09:14:09Z</time></trkpt><trkpt lat="42.26670037223379" lon="13.804064984297856"><ele>355.4</ele><time>2026-05-02T09:14:10Z</time></trkpt><trkpt lat="42.2667814868106" lon="13.804009322176825"><ele>355.2</ele><time>2026-05-02T09:14:11Z</time></trkpt><trkpt lat="42.266854595471806" lon="13.80392948396824"><ele>355.0</ele><time>2026-05-02T09:14:12Z</time></trkpt><trkpt lat="42.266921568046534" lon="13.803843841600061"><ele>355.0</ele><time>2026-05-02T09:14:13Z</time></trkpt><trkpt lat="42.2669805308447" lon="13.803755838679791"><ele>355.0</ele><time>2026-05-02T09:14:14Z</time></trkpt><trkpt lat="42.26703065557823" lon="13.803675140484417"><ele>355.0</ele><time>2026-05-02T09:14:15Z</time></trkpt><trkpt lat="42.26707748294175" lon="13.803595750864915"><ele>355.0</ele><time>2026-05-02T09:14:16Z</time></trkpt><trkpt lat="42.2671228028482" lon="13.803513702554934"><ele>355.0</ele><time>2026-05-02T09:14:17Z</time></trkpt><trkpt lat="42.26715704346602" lon="13.803441466040727"><ele>355.0</ele><time>2026-05-02T09:14:18Z</time></trkpt><trkpt lat="42.26719279532107" lon="13.803366038985041"><ele>355.0</ele><time>2026-05-02T09:14:19Z</time></trkpt><trkpt lat="42.2672342818919" lon="13.803277776436076"><ele>355.3333333333333</ele><time>2026-05-02T09:14:20Z</time></trkpt><trkpt lat="42.26727011119842" lon="13.803198327224539"><ele>355.66666666666663</ele><time>2026-05-02T09:14:21Z</time></trkpt><trkpt lat="42.267308330464864" lon="13.803112026265023"><ele>356.0</ele><time>2026-05-02T09:14:22Z</time></trkpt><trkpt lat="42.26735062914808" lon="13.803027210037392"><ele>356.3333333333333</ele><time>2026-05-02T09:14:23Z</time></trkpt><trkpt lat="42.267386036063144" lon="13.80295621230175"><ele>356.6666666666667</ele><time>2026-05-02T09:14:24Z</time></trkpt><trkpt lat="42.267434562364635" lon="13.802856539354826"><ele>357.0</ele><time>2026-05-02T09:14:26Z</time></trkpt><trkpt lat="42.267485460361435" lon="13.80274374048826"><ele>356.5</ele><time>2026-05-02T09:14:54Z</time></trkpt><trkpt lat="42.26750722642452" lon="13.802653224159096"><ele>356.0</ele><time>2026-05-02T09:14:56Z</time></trkpt><trkpt lat="42.267469114142486" lon="13.80258132162577"><ele>355.5</ele><time>2026-05-02T09:14:57Z</time></trkpt><trkpt lat="42.267545469942085" lon="13.802445916113713"><ele>355.0</ele><time>2026-05-02T09:14:59Z</time></trkpt><trkpt lat="42.26760416376643" lon="13.80236322485492"><ele>354.5</ele><time>2026-05-02T09:15:00Z</time></trkpt><trkpt lat="42.267664213949764" lon="13.802278204606473"><ele>354.0</ele><time>2026-05-02T09:15:01Z</time></trkpt><trkpt lat="42.26772772106643" lon="13.802194237719666"><ele>354.0</ele><time>2026-05-02T09:15:02Z</time></trkpt><trkpt lat="42.267802908015575" lon="13.802126891493815"><ele>354.0</ele><time>2026-05-02T09:15:03Z</time></trkpt><trkpt lat="42.267860736459546" lon="13.80203832653664"><ele>354.0</ele><time>2026-05-02T09:15:04Z</time></trkpt><trkpt lat="42.267925315726835" lon="13.801974235877042"><ele>354.0</ele><time>2026-05-02T09:15:05Z</time></trkpt><trkpt lat="42.26798989551388" lon="13.801892575844818"><ele>354.0</ele><time>2026-05-02T09:15:06Z</time></trkpt><trkpt lat="42.26805498237971" lon="13.801813317195245"><ele>354.0</ele><time>2026-05-02T09:15:07Z</time></trkpt><trkpt lat="42.26813003735527" lon="13.80173711637709"><ele>353.79999999999995</ele><time>2026-05-02T09:15:08Z</time></trkpt><trkpt lat="42.26820461256269" lon="13.801653650890936"><ele>353.59999999999997</ele><time>2026-05-02T09:15:09Z</time></trkpt><trkpt lat="42.268278014295866" lon="13.801572184137193"><ele>353.4</ele><time>2026-05-02T09:15:10Z</time></trkpt><trkpt lat="42.268359734265914" lon="13.801487749787539"><ele>353.2</ele><time>2026-05-02T09:15:11Z</time></trkpt><trkpt lat="42.26843721208741" lon="13.801392754587395"><ele>353.0</ele><time>2026-05-02T09:15:12Z</time></trkpt><trkpt lat="42.26851787837484" lon="13.801298412269842"><ele>353.0</ele><time>2026-05-02T09:15:13Z</time></trkpt><trkpt lat="42.2686013434737" lon="13.801207307449905"><ele>353.0</ele><time>2026-05-02T09:15:14Z</time></trkpt><trkpt lat="42.2686835259451" lon="13.801121658315681"><ele>353.0</ele><time>2026-05-02T09:15:15Z</time></trkpt><trkpt lat="42.26877219804497" lon="13.801061129892055"><ele>353.0</ele><time>2026-05-02T09:15:16Z</time></trkpt><trkpt lat="42.26884253367276" lon="13.800970352474833"><ele>353.0</ele><time>2026-05-02T09:15:17Z</time></trkpt><trkpt lat="42.26892677587884" lon="13.800913406511864"><ele>352.83333333333337</ele><time>2026-05-02T09:15:18Z</time></trkpt><trkpt lat="42.26900421516734" lon="13.800842371147137"><ele>352.6666666666667</ele><time>2026-05-02T09:15:19Z</time></trkpt><trkpt lat="42.26908343749855" lon="13.800779241794759"><ele>352.5</ele><time>2026-05-02T09:15:20Z</time></trkpt><trkpt lat="42.269165972994664" lon="13.800718573077722"><ele>352.3333333333333</ele><time>2026-05-02T09:15:21Z</time></trkpt><trkpt lat="42.26924329476293" lon="13.800675927512296"><ele>352.16666666666663</ele><time>2026-05-02T09:15:22Z</time></trkpt><trkpt lat="42.26931405438916" lon="13.800643285189658"><ele>352.0</ele><time>2026-05-02T09:15:23Z</time></trkpt><trkpt lat="42.26938433778747" lon="13.800595705221198"><ele>352.0</ele><time>2026-05-02T09:15:24Z</time></trkpt><trkpt lat="42.269484071836175" lon="13.800591648480117"><ele>352.0</ele><time>2026-05-02T09:15:25Z</time></trkpt><trkpt lat="42.269558326173424" lon="13.800548499304405"><ele>352.0</ele><time>2026-05-02T09:15:26Z</time></trkpt><trkpt lat="42.269633047427895" lon="13.800492648337636"><ele>352.0</ele><time>2026-05-02T09:15:27Z</time></trkpt><trkpt lat="42.269705479698075" lon="13.800421354583046"><ele>352.0</ele><time>2026-05-02T09:15:28Z</time></trkpt><trkpt lat="42.26977623395508" lon="13.800337505814513"><ele>352.0</ele><time>2026-05-02T09:15:29Z</time></trkpt><trkpt lat="42.269849604590064" lon="13.800252868357568"><ele>352.0</ele><time>2026-05-02T09:15:30Z</time></trkpt><trkpt lat="42.26993246495468" lon="13.800174214945931"><ele>352.0</ele><time>2026-05-02T09:15:31Z</time></trkpt><trkpt lat="42.26999912409174" lon="13.800069579983518"><ele>352.0</ele><time>2026-05-02T09:15:32Z</time></trkpt><trkpt lat="42.27007626286738" lon="13.799982100243678"><ele>352.0</ele><time>2026-05-02T09:15:33Z</time></trkpt><trkpt lat="42.270147601894756" lon="13.79990186774423"><ele>351.66666666666663</ele><time>2026-05-02T09:15:34Z</time></trkpt><trkpt lat="42.27021094150806" lon="13.799867362607456"><ele>351.3333333333333</ele><time>2026-05-02T09:15:35Z</time></trkpt><trkpt lat="42.27028573243242" lon="13.799780597597245"><ele>351.0</ele><time>2026-05-02T09:15:36Z</time></trkpt><trkpt lat="42.27036270032062" lon="13.79972006061275"><ele>350.6666666666667</ele><time>2026-05-02T09:15:37Z</time></trkpt><trkpt lat="42.27044316963199" lon="13.79964998274352"><ele>350.33333333333337</ele><time>2026-05-02T09:15:38Z</time></trkpt><trkpt lat="42.270531687767914" lon="13.799605350613774"><ele>350.0</ele><time>2026-05-02T09:15:39Z</time></trkpt><trkpt lat="42.27061547617876" lon="13.79955156817575"><ele>350.0</ele><time>2026-05-02T09:15:40Z</time></trkpt><trkpt lat="42.27070152523438" lon="13.799506606118186"><ele>350.0</ele><time>2026-05-02T09:15:41Z</time></trkpt><trkpt lat="42.27079739400064" lon="13.799451984711137"><ele>350.0</ele><time>2026-05-02T09:15:42Z</time></trkpt><trkpt lat="42.27089862772546" lon="13.799420698396858"><ele>350.0</ele><time>2026-05-02T09:15:43Z</time></trkpt><trkpt lat="42.27100302471544" lon="13.799386722352821"><ele>350.0</ele><time>2026-05-02T09:15:44Z</time></trkpt><trkpt lat="42.27110466204882" lon="13.799336210240165"><ele>349.6</ele><time>2026-05-02T09:15:45Z</time></trkpt><trkpt lat="42.271200120565126" lon="13.799288110407181"><ele>349.2</ele><time>2026-05-02T09:15:46Z</time></trkpt><trkpt lat="42.271295517375414" lon="13.799242817161954"><ele>348.79999999999995</ele><time>2026-05-02T09:15:47Z</time></trkpt><trkpt lat="42.27137267567239" lon="13.79920307663752"><ele>348.4</ele><time>2026-05-02T09:15:48Z</time></trkpt><trkpt lat="42.271461045449996" lon="13.799167238576667"><ele>348.0</ele><time>2026-05-02T09:15:49Z</time></trkpt><trkpt lat="42.27154701682284" lon="13.799127184780632"><ele>348.0</ele><time>2026-05-02T09:15:50Z</time></trkpt><trkpt lat="42.27164519910465" lon="13.79907630591302"><ele>348.0</ele><time>2026-05-02T09:15:51Z</time></trkpt><trkpt lat="42.27175694869652" lon="13.799047929152882"><ele>348.0</ele><time>2026-05-02T09:15:52Z</time></trkpt><trkpt lat="42.27186269541996" lon="13.79898009551316"><ele>348.0</ele><time>2026-05-02T09:15:53Z</time></trkpt><trkpt lat="42.27196956152286" lon="13.798923882174973"><ele>348.0</ele><time>2026-05-02T09:15:54Z</time></trkpt><trkpt lat="42.27205983798075" lon="13.798844388707625"><ele>348.0</ele><time>2026-05-02T09:15:55Z</time></trkpt><trkpt lat="42.272155287721496" lon="13.798792246668057"><ele>348.0</ele><time>2026-05-02T09:15:56Z</time></trkpt><trkpt lat="42.27224587990474" lon="13.79873973149254"><ele>348.0</ele><time>2026-05-02T09:15:57.001Z</time></trkpt><trkpt lat="42.27232730568041" lon="13.798684928355284"><ele>348.0</ele><time>2026-05-02T09:15:58.001Z</time></trkpt><trkpt lat="42.27240211892238" lon="13.79861881909716"><ele>347.79999999999995</ele><time>2026-05-02T09:15:59.001Z</time></trkpt><trkpt lat="42.27248729294144" lon="13.798571682160437"><ele>347.6</ele><time>2026-05-02T09:16:00.001Z</time></trkpt><trkpt lat="42.27257407910829" lon="13.798503847565232"><ele>347.4</ele><time>2026-05-02T09:16:01.001Z</time></trkpt><trkpt lat="42.27266661640948" lon="13.798431517453887"><ele>347.20000000000005</ele><time>2026-05-02T09:16:02Z</time></trkpt><trkpt lat="42.272757362767436" lon="13.798335627375568"><ele>347.0</ele><time>2026-05-02T09:16:03Z</time></trkpt><trkpt lat="42.27285192434683" lon="13.798253472387135"><ele>347.0</ele><time>2026-05-02T09:16:04.001Z</time></trkpt><trkpt lat="42.27294426290055" lon="13.798197725871134"><ele>347.0</ele><time>2026-05-02T09:16:05Z</time></trkpt><trkpt lat="42.27301266916187" lon="13.79811904960139"><ele>347.0</ele><time>2026-05-02T09:16:06Z</time></trkpt><trkpt lat="42.273100111944046" lon="13.79808793876874"><ele>347.0</ele><time>2026-05-02T09:16:07.001Z</time></trkpt><trkpt lat="42.27318713838864" lon="13.798019880100716"><ele>347.0</ele><time>2026-05-02T09:16:08Z</time></trkpt><trkpt lat="42.2732837018516" lon="13.797977101573366"><ele>346.6</ele><time>2026-05-02T09:16:09Z</time></trkpt><trkpt lat="42.2733755558773" lon="13.79792029048524"><ele>346.20000000000005</ele><time>2026-05-02T09:16:10Z</time></trkpt><trkpt lat="42.27346604488347" lon="13.797854498709958"><ele>345.8</ele><time>2026-05-02T09:16:11Z</time></trkpt><trkpt lat="42.273565572243214" lon="13.797788768879213"><ele>345.4</ele><time>2026-05-02T09:16:12Z</time></trkpt><trkpt lat="42.273674070110786" lon="13.797714371610786"><ele>345.0</ele><time>2026-05-02T09:16:13Z</time></trkpt><trkpt lat="42.27378341977449" lon="13.797641844848442"><ele>345.0</ele><time>2026-05-02T09:16:14Z</time></trkpt><trkpt lat="42.273874117306086" lon="13.79756958251247"><ele>345.0</ele><time>2026-05-02T09:16:15Z</time></trkpt><trkpt lat="42.27396605436272" lon="13.797527168922027"><ele>345.0</ele><time>2026-05-02T09:16:16Z</time></trkpt><trkpt lat="42.2740456309859" lon="13.797471826507396"><ele>345.0</ele><time>2026-05-02T09:16:17Z</time></trkpt><trkpt lat="42.27412274995284" lon="13.797394189412035"><ele>345.0</ele><time>2026-05-02T09:16:18Z</time></trkpt><trkpt lat="42.27419849622356" lon="13.797327127333332"><ele>345.3333333333333</ele><time>2026-05-02T09:16:19Z</time></trkpt><trkpt lat="42.274270672777945" lon="13.797250380107586"><ele>345.6666666666667</ele><time>2026-05-02T09:16:20Z</time></trkpt><trkpt lat="42.274350665533305" lon="13.797190528561371"><ele>346.0</ele><time>2026-05-02T09:16:21Z</time></trkpt><trkpt lat="42.274417826964246" lon="13.79711858125383"><ele>346.33333333333337</ele><time>2026-05-02T09:16:22Z</time></trkpt><trkpt lat="42.27448624015537" lon="13.797061971773244"><ele>346.6666666666667</ele><time>2026-05-02T09:16:23Z</time></trkpt><trkpt lat="42.274566138164225" lon="13.797003992266355"><ele>347.0</ele><time>2026-05-02T09:16:24Z</time></trkpt><trkpt lat="42.27464679640935" lon="13.796923242287845"><ele>347.0</ele><time>2026-05-02T09:16:25Z</time></trkpt><trkpt lat="42.27474863704047" lon="13.796872394712143"><ele>347.0</ele><time>2026-05-02T09:16:26Z</time></trkpt><trkpt lat="42.274838401000274" lon="13.796780207215855"><ele>347.0</ele><time>2026-05-02T09:16:27Z</time></trkpt><trkpt lat="42.2749249213521" lon="13.79671549203496"><ele>347.0</ele><time>2026-05-02T09:16:28Z</time></trkpt><trkpt lat="42.27500309613177" lon="13.796669536981057"><ele>347.0</ele><time>2026-05-02T09:16:29Z</time></trkpt><trkpt lat="42.27507384631993" lon="13.79662228015264"><ele>347.0</ele><time>2026-05-02T09:16:30Z</time></trkpt><trkpt lat="42.27513342362548" lon="13.796551597433682"><ele>347.0</ele><time>2026-05-02T09:16:31Z</time></trkpt><trkpt lat="42.27518990900991" lon="13.79646213376002"><ele>347.0</ele><time>2026-05-02T09:16:32Z</time></trkpt><trkpt lat="42.27525354799717" lon="13.79638074952464"><ele>347.0</ele><time>2026-05-02T09:16:33Z</time></trkpt><trkpt lat="42.2753233975656" lon="13.796316621983847"><ele>347.0</ele><time>2026-05-02T09:16:34Z</time></trkpt><trkpt lat="42.275408141485904" lon="13.796270705986386"><ele>347.0</ele><time>2026-05-02T09:16:35Z</time></trkpt><trkpt lat="42.27550155986426" lon="13.796251839200048"><ele>347.0</ele><time>2026-05-02T09:16:36Z</time></trkpt><trkpt lat="42.27558858655531" lon="13.796228577639365"><ele>347.0</ele><time>2026-05-02T09:16:37Z</time></trkpt><trkpt lat="42.27566466254122" lon="13.796192814708531"><ele>347.0</ele><time>2026-05-02T09:16:38Z</time></trkpt><trkpt lat="42.2757446650191" lon="13.796144484208808"><ele>347.0</ele><time>2026-05-02T09:16:39Z</time></trkpt><trkpt lat="42.275820167357956" lon="13.796075335319484"><ele>347.0</ele><time>2026-05-02T09:16:40Z</time></trkpt><trkpt lat="42.275903962459516" lon="13.795999087165386"><ele>347.0</ele><time>2026-05-02T09:16:41Z</time></trkpt><trkpt lat="42.27598702277072" lon="13.79592044562531"><ele>347.0</ele><time>2026-05-02T09:16:42Z</time></trkpt><trkpt lat="42.27605829460869" lon="13.795840687596424"><ele>347.0</ele><time>2026-05-02T09:16:43Z</time></trkpt><trkpt lat="42.27613946131143" lon="13.795747757468597"><ele>347.0</ele><time>2026-05-02T09:16:44Z</time></trkpt><trkpt lat="42.276224293512506" lon="13.795653028301723"><ele>347.0</ele><time>2026-05-02T09:16:45Z</time></trkpt><trkpt lat="42.27630931154659" lon="13.795551632151422"><ele>347.0</ele><time>2026-05-02T09:16:46Z</time></trkpt><trkpt lat="42.27638285991336" lon="13.795468396123898"><ele>348.5</ele><time>2026-05-02T09:16:47Z</time></trkpt><trkpt lat="42.27645929985215" lon="13.795428724760347"><ele>350.0</ele><time>2026-05-02T09:16:48Z</time></trkpt><trkpt lat="42.27652576170726" lon="13.795379128301589"><ele>351.5</ele><time>2026-05-02T09:16:49Z</time></trkpt><trkpt lat="42.27658934430728" lon="13.795325202957258"><ele>353.0</ele><time>2026-05-02T09:16:50Z</time></trkpt><trkpt lat="42.27665653847218" lon="13.795290263258384"><ele>354.5</ele><time>2026-05-02T09:16:51Z</time></trkpt><trkpt lat="42.27673186639509" lon="13.795252396462924"><ele>356.0</ele><time>2026-05-02T09:16:52Z</time></trkpt><trkpt lat="42.276815237806964" lon="13.795218833156932"><ele>356.0</ele><time>2026-05-02T09:16:53Z</time></trkpt><trkpt lat="42.276910751794695" lon="13.795212756423386"><ele>356.0</ele><time>2026-05-02T09:16:54Z</time></trkpt><trkpt lat="42.27699611679286" lon="13.795167191710062"><ele>356.0</ele><time>2026-05-02T09:16:55Z</time></trkpt><trkpt lat="42.27707821452169" lon="13.795148251030348"><ele>356.0</ele><time>2026-05-02T09:16:56Z</time></trkpt><trkpt lat="42.27716528630186" lon="13.795135221402141"><ele>356.0</ele><time>2026-05-02T09:16:57Z</time></trkpt><trkpt lat="42.27726570368716" lon="13.795128050771067"><ele>354.83333333333337</ele><time>2026-05-02T09:16:58Z</time></trkpt><trkpt lat="42.27737415608934" lon="13.795117136064492"><ele>353.6666666666667</ele><time>2026-05-02T09:16:59Z</time></trkpt><trkpt lat="42.277451984729055" lon="13.795105915008904"><ele>352.5</ele><time>2026-05-02T09:17:00Z</time></trkpt><trkpt lat="42.27752180582779" lon="13.795090098431315"><ele>351.3333333333333</ele><time>2026-05-02T09:17:01Z</time></trkpt><trkpt lat="42.27758837783566" lon="13.795080737867995"><ele>350.16666666666663</ele><time>2026-05-02T09:17:02Z</time></trkpt><trkpt lat="42.27766368739814" lon="13.795080132982717"><ele>349.0</ele><time>2026-05-02T09:17:03Z</time></trkpt><trkpt lat="42.27774426997198" lon="13.795086673279785"><ele>349.0</ele><time>2026-05-02T09:17:04Z</time></trkpt><trkpt lat="42.27782488115561" lon="13.795098183025877"><ele>349.0</ele><time>2026-05-02T09:17:05Z</time></trkpt><trkpt lat="42.277903788234035" lon="13.795132436040852"><ele>349.0</ele><time>2026-05-02T09:17:06Z</time></trkpt><trkpt lat="42.27798375956734" lon="13.7951397205413"><ele>349.0</ele><time>2026-05-02T09:17:07Z</time></trkpt><trkpt lat="42.27805749193556" lon="13.79517425513536"><ele>349.0</ele><time>2026-05-02T09:17:08Z</time></trkpt><trkpt lat="42.278123404462626" lon="13.795193704614855"><ele>349.0</ele><time>2026-05-02T09:17:09Z</time></trkpt><trkpt lat="42.27822532612864" lon="13.7952168992894"><ele>350.2</ele><time>2026-05-02T09:17:11Z</time></trkpt><trkpt lat="42.278301830289465" lon="13.795236664020406"><ele>351.4</ele><time>2026-05-02T09:17:13Z</time></trkpt><trkpt lat="42.27839518358921" lon="13.79525668848496"><ele>352.6</ele><time>2026-05-02T09:17:16Z</time></trkpt><trkpt lat="42.27846664682662" lon="13.795276134025857"><ele>353.8</ele><time>2026-05-02T09:17:18Z</time></trkpt><trkpt lat="42.27856656216932" lon="13.79528785708656"><ele>355.0</ele><time>2026-05-02T09:17:20Z</time></trkpt><trkpt lat="42.27869636200704" lon="13.795306669350161"><ele>355.0</ele><time>2026-05-02T09:17:22Z</time></trkpt><trkpt lat="42.27876346540202" lon="13.795308011896923"><ele>355.0</ele><time>2026-05-02T09:17:23Z</time></trkpt><trkpt lat="42.278830705301466" lon="13.795291293254666"><ele>355.0</ele><time>2026-05-02T09:17:24Z</time></trkpt><trkpt lat="42.27889459437386" lon="13.795267571499224"><ele>355.0</ele><time>2026-05-02T09:17:25Z</time></trkpt><trkpt lat="42.27895899861476" lon="13.795238657149506"><ele>355.0</ele><time>2026-05-02T09:17:26Z</time></trkpt><trkpt lat="42.2790300504228" lon="13.795216871444968"><ele>355.0</ele><time>2026-05-02T09:17:27Z</time></trkpt><trkpt lat="42.27910603093365" lon="13.795202192985737"><ele>355.0</ele><time>2026-05-02T09:17:28Z</time></trkpt><trkpt lat="42.27918023807356" lon="13.795189618829038"><ele>352.8333333333333</ele><time>2026-05-02T09:17:29Z</time></trkpt><trkpt lat="42.279255460407626" lon="13.795166033692409"><ele>350.66666666666663</ele><time>2026-05-02T09:17:30Z</time></trkpt><trkpt lat="42.27933213867699" lon="13.795140391018531"><ele>348.5</ele><time>2026-05-02T09:17:31Z</time></trkpt><trkpt lat="42.27941181178533" lon="13.795096117746276"><ele>346.3333333333333</ele><time>2026-05-02T09:17:32Z</time></trkpt><trkpt lat="42.27949180185817" lon="13.795043311936084"><ele>344.1666666666667</ele><time>2026-05-02T09:17:33Z</time></trkpt><trkpt lat="42.27956763500481" lon="13.79498185758416"><ele>342.0</ele><time>2026-05-02T09:17:34Z</time></trkpt><trkpt lat="42.27963752051499" lon="13.79492142033864"><ele>342.0</ele><time>2026-05-02T09:17:35Z</time></trkpt><trkpt lat="42.27970464517958" lon="13.794860168841671"><ele>342.0</ele><time>2026-05-02T09:17:36Z</time></trkpt><trkpt lat="42.27978603793312" lon="13.794782803856519"><ele>342.0</ele><time>2026-05-02T09:17:37Z</time></trkpt><trkpt lat="42.279890393913675" lon="13.794691398579921"><ele>342.0</ele><time>2026-05-02T09:17:38Z</time></trkpt><trkpt lat="42.280011310478" lon="13.794587045555094"><ele>342.0</ele><time>2026-05-02T09:17:39Z</time></trkpt><trkpt lat="42.28014349897331" lon="13.794465703222818"><ele>342.0</ele><time>2026-05-02T09:17:40Z</time></trkpt><trkpt lat="42.28026213510266" lon="13.794356454212986"><ele>342.0</ele><time>2026-05-02T09:17:41Z</time></trkpt><trkpt lat="42.28038536370381" lon="13.794250332490208"><ele>342.0</ele><time>2026-05-02T09:17:42Z</time></trkpt><trkpt lat="42.280510936454" lon="13.794144368954493"><ele>342.0</ele><time>2026-05-02T09:17:43Z</time></trkpt><trkpt lat="42.28063737040822" lon="13.7940317155723"><ele>342.0</ele><time>2026-05-02T09:17:44Z</time></trkpt><trkpt lat="42.28077872142881" lon="13.793950200670752"><ele>342.0</ele><time>2026-05-02T09:17:45Z</time></trkpt><trkpt lat="42.28090982961828" lon="13.793841265629771"><ele>342.0</ele><time>2026-05-02T09:17:46Z</time></trkpt><trkpt lat="42.281054696592506" lon="13.793774638199379"><ele>342.0</ele><time>2026-05-02T09:17:47Z</time></trkpt><trkpt lat="42.28119715092488" lon="13.793704007389053"><ele>342.0</ele><time>2026-05-02T09:17:48Z</time></trkpt><trkpt lat="42.281337974020296" lon="13.793628217785106"><ele>342.0</ele><time>2026-05-02T09:17:49Z</time></trkpt><trkpt lat="42.281468600013106" lon="13.793552742888485"><ele>342.0</ele><time>2026-05-02T09:17:50Z</time></trkpt><trkpt lat="42.28158522831783" lon="13.793480654204862"><ele>342.0</ele><time>2026-05-02T09:17:51Z</time></trkpt><trkpt lat="42.281693473476345" lon="13.793405937060415"><ele>342.0</ele><time>2026-05-02T09:17:52Z</time></trkpt><trkpt lat="42.28179300616467" lon="13.793329988771752"><ele>342.0</ele><time>2026-05-02T09:17:53Z</time></trkpt><trkpt lat="42.28189334904049" lon="13.793259214420692"><ele>342.0</ele><time>2026-05-02T09:17:54Z</time></trkpt><trkpt lat="42.28198801424895" lon="13.793173911537368"><ele>342.0</ele><time>2026-05-02T09:17:55Z</time></trkpt><trkpt lat="42.28208476774131" lon="13.79309915645572"><ele>342.0</ele><time>2026-05-02T09:17:56Z</time></trkpt><trkpt lat="42.28217648048518" lon="13.793024999498371"><ele>342.0</ele><time>2026-05-02T09:17:57Z</time></trkpt><trkpt lat="42.282273417026886" lon="13.792954205166197"><ele>342.0</ele><time>2026-05-02T09:17:58Z</time></trkpt><trkpt lat="42.28235771684802" lon="13.792845093779114"><ele>342.0</ele><time>2026-05-02T09:17:59Z</time></trkpt><trkpt lat="42.28244439514531" lon="13.792730912167666"><ele>342.20000000000005</ele><time>2026-05-02T09:18:00Z</time></trkpt><trkpt lat="42.28252172393719" lon="13.792606220332557"><ele>342.4</ele><time>2026-05-02T09:18:01Z</time></trkpt><trkpt lat="42.282592632601414" lon="13.792499448683568"><ele>342.6</ele><time>2026-05-02T09:18:02Z</time></trkpt><trkpt lat="42.28263076568324" lon="13.792381357269889"><ele>342.79999999999995</ele><time>2026-05-02T09:18:03Z</time></trkpt><trkpt lat="42.28264345419849" lon="13.792261274592619"><ele>343.0</ele><time>2026-05-02T09:18:04Z</time></trkpt><trkpt lat="42.28263854866864" lon="13.792136950656163"><ele>343.0</ele><time>2026-05-02T09:18:05Z</time></trkpt><trkpt lat="42.28259464568979" lon="13.79200586095071"><ele>343.0</ele><time>2026-05-02T09:18:06Z</time></trkpt><trkpt lat="42.28255436146975" lon="13.79186594063393"><ele>343.0</ele><time>2026-05-02T09:18:07Z</time></trkpt><trkpt lat="42.28251242234053" lon="13.791740288951686"><ele>343.0</ele><time>2026-05-02T09:18:08Z</time></trkpt><trkpt lat="42.282469940785944" lon="13.79161852145403"><ele>343.0</ele><time>2026-05-02T09:18:09Z</time></trkpt><trkpt lat="42.28242546404699" lon="13.791491535996721"><ele>342.25</ele><time>2026-05-02T09:18:10Z</time></trkpt><trkpt lat="42.28238000478625" lon="13.791361745337314"><ele>341.5</ele><time>2026-05-02T09:18:11Z</time></trkpt><trkpt lat="42.2823178731803" lon="13.791233486052416"><ele>340.75</ele><time>2026-05-02T09:18:12Z</time></trkpt><trkpt lat="42.28227095826785" lon="13.791091949130157"><ele>340.0</ele><time>2026-05-02T09:18:13Z</time></trkpt><trkpt lat="42.28222177798443" lon="13.790935394039689"><ele>341.0</ele><time>2026-05-02T09:18:14Z</time></trkpt><trkpt lat="42.282169845239885" lon="13.790824075350173"><ele>342.0</ele><time>2026-05-02T09:18:15Z</time></trkpt><trkpt lat="42.28211197797004" lon="13.790722465671713"><ele>343.0</ele><time>2026-05-02T09:18:17Z</time></trkpt><trkpt lat="42.282158848992225" lon="13.79080510988847"><ele>344.0</ele><time>2026-05-02T09:18:38Z</time></trkpt><trkpt lat="42.28218917103183" lon="13.79093190258676"><ele>345.0</ele><time>2026-05-02T09:18:39Z</time></trkpt><trkpt lat="42.28224201033627" lon="13.79104671485516"><ele>344.1666666666667</ele><time>2026-05-02T09:18:40Z</time></trkpt><trkpt lat="42.28229032949843" lon="13.791168375165935"><ele>343.3333333333333</ele><time>2026-05-02T09:18:41Z</time></trkpt><trkpt lat="42.28233639169603" lon="13.791283399618044"><ele>342.5</ele><time>2026-05-02T09:18:42Z</time></trkpt><trkpt lat="42.28235464167577" lon="13.791394476307255"><ele>341.66666666666663</ele><time>2026-05-02T09:18:43Z</time></trkpt><trkpt lat="42.28240050225318" lon="13.791481836833315"><ele>340.8333333333333</ele><time>2026-05-02T09:18:44Z</time></trkpt><trkpt lat="42.28242906590552" lon="13.791584109422638"><ele>340.0</ele><time>2026-05-02T09:18:45Z</time></trkpt><trkpt lat="42.28246679901387" lon="13.791688357473765"><ele>340.0</ele><time>2026-05-02T09:18:46Z</time></trkpt><trkpt lat="42.28249801755754" lon="13.791799666456264"><ele>340.0</ele><time>2026-05-02T09:18:47Z</time></trkpt><trkpt lat="42.28252548834398" lon="13.791917918542328"><ele>340.0</ele><time>2026-05-02T09:18:48Z</time></trkpt><trkpt lat="42.28255355985952" lon="13.792031953346532"><ele>340.0</ele><time>2026-05-02T09:18:49Z</time></trkpt><trkpt lat="42.282579390756645" lon="13.79211749800143"><ele>340.0</ele><time>2026-05-02T09:18:50Z</time></trkpt><trkpt lat="42.28260723531883" lon="13.792215418081947"><ele>340.0</ele><time>2026-05-02T09:18:53Z</time></trkpt><trkpt lat="42.28271650237013" lon="13.792175851340142"><ele>340.0</ele><time>2026-05-02T09:18:54Z</time></trkpt><trkpt lat="42.28277736110063" lon="13.792110537902637"><ele>340.0</ele><time>2026-05-02T09:18:55Z</time></trkpt><trkpt lat="42.282858794253265" lon="13.792011213609932"><ele>340.0</ele><time>2026-05-02T09:18:56Z</time></trkpt><trkpt lat="42.28296599564806" lon="13.791907446840256"><ele>340.0</ele><time>2026-05-02T09:18:57Z</time></trkpt><trkpt lat="42.283068838077476" lon="13.791812975211391"><ele>340.0</ele><time>2026-05-02T09:18:58Z</time></trkpt><trkpt lat="42.28318380197226" lon="13.791737706335196"><ele>341.75</ele><time>2026-05-02T09:18:59Z</time></trkpt><trkpt lat="42.28330096870768" lon="13.791641534494017"><ele>343.5</ele><time>2026-05-02T09:19:00Z</time></trkpt><trkpt lat="42.28341740016994" lon="13.791546573469024"><ele>345.25</ele><time>2026-05-02T09:19:01Z</time></trkpt><trkpt lat="42.283528591153754" lon="13.791455886559326"><ele>347.0</ele><time>2026-05-02T09:19:02Z</time></trkpt><trkpt lat="42.28361014876549" lon="13.791367115112669"><ele>347.0</ele><time>2026-05-02T09:19:03Z</time></trkpt><trkpt lat="42.283676573132226" lon="13.79132612826927"><ele>347.0</ele><time>2026-05-02T09:19:04Z</time></trkpt><trkpt lat="42.283740551383055" lon="13.791264574694965"><ele>347.0</ele><time>2026-05-02T09:19:06Z</time></trkpt><trkpt lat="42.28366231963769" lon="13.791128917186414"><ele>347.0</ele><time>2026-05-02T09:19:09Z</time></trkpt><trkpt lat="42.28360119364549" lon="13.791040230840068"><ele>347.0</ele><time>2026-05-02T09:19:10Z</time></trkpt><trkpt lat="42.28351206980438" lon="13.790954554397727"><ele>347.20000000000005</ele><time>2026-05-02T09:19:11Z</time></trkpt><trkpt lat="42.283418134774124" lon="13.79085960863413"><ele>347.4</ele><time>2026-05-02T09:19:12Z</time></trkpt><trkpt lat="42.28332936824284" lon="13.790761016277942"><ele>347.6</ele><time>2026-05-02T09:19:13Z</time></trkpt><trkpt lat="42.28325014877451" lon="13.7906545043005"><ele>347.79999999999995</ele><time>2026-05-02T09:19:14Z</time></trkpt><trkpt lat="42.2831845371625" lon="13.790555140472055"><ele>348.0</ele><time>2026-05-02T09:19:15Z</time></trkpt><trkpt lat="42.28313307838949" lon="13.7904808978894"><ele>347.0</ele><time>2026-05-02T09:19:16Z</time></trkpt><trkpt lat="42.28309073530505" lon="13.790414233041986"><ele>346.0</ele><time>2026-05-02T09:19:17Z</time></trkpt><trkpt lat="42.28303522430999" lon="13.790305821290822"><ele>345.0</ele><time>2026-05-02T09:19:19Z</time></trkpt><trkpt lat="42.283063238230184" lon="13.79021226081137"><ele>344.0</ele><time>2026-05-02T09:19:20Z</time></trkpt><trkpt lat="42.28307536184174" lon="13.790102400873534"><ele>343.0</ele><time>2026-05-02T09:19:21Z</time></trkpt><trkpt lat="42.283083180915064" lon="13.78999616129645"><ele>342.0</ele><time>2026-05-02T09:19:22Z</time></trkpt><trkpt lat="42.283071391414964" lon="13.789858102971083"><ele>342.0</ele><time>2026-05-02T09:19:24Z</time></trkpt><trkpt lat="42.283064789997155" lon="13.789745927672918"><ele>342.0</ele><time>2026-05-02T09:19:27Z</time></trkpt><trkpt lat="42.28302696875246" lon="13.78963895148189"><ele>342.0</ele><time>2026-05-02T09:19:29Z</time></trkpt><trkpt lat="42.283202876017526" lon="13.78943499706088"><ele>342.0</ele><time>2026-05-02T09:19:31Z</time></trkpt><trkpt lat="42.283216009168555" lon="13.789310226615187"><ele>342.6</ele><time>2026-05-02T09:19:33Z</time></trkpt><trkpt lat="42.28323974936879" lon="13.789162770873709"><ele>343.20000000000005</ele><time>2026-05-02T09:19:35Z</time></trkpt><trkpt lat="42.283266614742345" lon="13.789025708683189"><ele>343.8</ele><time>2026-05-02T09:19:37Z</time></trkpt><trkpt lat="42.283316868913396" lon="13.788862242924381"><ele>344.4</ele><time>2026-05-02T09:19:39Z</time></trkpt><trkpt lat="42.28333757618348" lon="13.788758505852162"><ele>345.0</ele><time>2026-05-02T09:19:40Z</time></trkpt><trkpt lat="42.28335790067031" lon="13.788655406968559"><ele>345.0</ele><time>2026-05-02T09:19:41Z</time></trkpt><trkpt lat="42.28337426633678" lon="13.788560719043167"><ele>345.0</ele><time>2026-05-02T09:19:42Z</time></trkpt><trkpt lat="42.2833837668307" lon="13.788467949629322"><ele>345.0</ele><time>2026-05-02T09:19:43Z</time></trkpt><trkpt lat="42.2833907017844" lon="13.788370613080248"><ele>345.0</ele><time>2026-05-02T09:19:44Z</time></trkpt><trkpt lat="42.283394072909964" lon="13.78826639458162"><ele>345.0</ele><time>2026-05-02T09:19:45Z</time></trkpt><trkpt lat="42.28338918721195" lon="13.788163267827521"><ele>345.0</ele><time>2026-05-02T09:19:46Z</time></trkpt><trkpt lat="42.28337718170991" lon="13.788057438442031"><ele>345.0</ele><time>2026-05-02T09:19:47Z</time></trkpt><trkpt lat="42.28333295562784" lon="13.787937522481922"><ele>344.2</ele><time>2026-05-02T09:19:49Z</time></trkpt><trkpt lat="42.28326537594726" lon="13.787683442367415"><ele>343.4</ele><time>2026-05-02T09:19:50Z</time></trkpt><trkpt lat="42.28320994574211" lon="13.787577516465918"><ele>342.6</ele><time>2026-05-02T09:19:51Z</time></trkpt><trkpt lat="42.283161348471666" lon="13.787499755613359"><ele>341.8</ele><time>2026-05-02T09:19:52Z</time></trkpt><trkpt lat="42.28311063913281" lon="13.78742959411099"><ele>341.0</ele><time>2026-05-02T09:19:53Z</time></trkpt><trkpt lat="42.28306317540115" lon="13.787358490762267"><ele>341.0</ele><time>2026-05-02T09:19:54Z</time></trkpt><trkpt lat="42.28302094361321" lon="13.78729028118629"><ele>341.0</ele><time>2026-05-02T09:19:55Z</time></trkpt><trkpt lat="42.28296367602629" lon="13.787191589145838"><ele>341.0</ele><time>2026-05-02T09:19:57Z</time></trkpt><trkpt lat="42.28291338626584" lon="13.787072162265384"><ele>341.0</ele><time>2026-05-02T09:20:05Z</time></trkpt><trkpt lat="42.28286491828722" lon="13.786961833515768"><ele>341.0</ele><time>2026-05-02T09:20:06Z</time></trkpt><trkpt lat="42.28279581771708" lon="13.786850639440686"><ele>341.0</ele><time>2026-05-02T09:20:07Z</time></trkpt><trkpt lat="42.28273505205265" lon="13.786722029966944"><ele>341.0</ele><time>2026-05-02T09:20:08Z</time></trkpt><trkpt lat="42.2826803090622" lon="13.786590799308776"><ele>341.0</ele><time>2026-05-02T09:20:09Z</time></trkpt><trkpt lat="42.28262255551782" lon="13.78644376732653"><ele>341.0</ele><time>2026-05-02T09:20:10Z</time></trkpt><trkpt lat="42.28257169345334" lon="13.786286660473676"><ele>341.0</ele><time>2026-05-02T09:20:11Z</time></trkpt><trkpt lat="42.28252387663243" lon="13.786146146296401"><ele>341.0</ele><time>2026-05-02T09:20:12Z</time></trkpt><trkpt lat="42.282479570187256" lon="13.786010609107791"><ele>341.0</ele><time>2026-05-02T09:20:13Z</time></trkpt><trkpt lat="42.28243840165982" lon="13.785877651780703"><ele>341.0</ele><time>2026-05-02T09:20:14Z</time></trkpt><trkpt lat="42.28239007698403" lon="13.785748293733596"><ele>341.0</ele><time>2026-05-02T09:20:15Z</time></trkpt><trkpt lat="42.28234362547323" lon="13.785607134001216"><ele>340.8</ele><time>2026-05-02T09:20:16Z</time></trkpt><trkpt lat="42.282305668465995" lon="13.785465104876874"><ele>340.6</ele><time>2026-05-02T09:20:17Z</time></trkpt><trkpt lat="42.28226817229555" lon="13.785328313420672"><ele>340.4</ele><time>2026-05-02T09:20:18Z</time></trkpt><trkpt lat="42.28222638798415" lon="13.785188400177796"><ele>340.2</ele><time>2026-05-02T09:20:19Z</time></trkpt><trkpt lat="42.28218949650117" lon="13.785043949940864"><ele>340.0</ele><time>2026-05-02T09:20:20Z</time></trkpt><trkpt lat="42.282144450005006" lon="13.784894141495961"><ele>340.0</ele><time>2026-05-02T09:20:21Z</time></trkpt><trkpt lat="42.28209965635218" lon="13.784752532296217"><ele>340.0</ele><time>2026-05-02T09:20:22Z</time></trkpt><trkpt lat="42.28206458890891" lon="13.78459823502184"><ele>340.0</ele><time>2026-05-02T09:20:23Z</time></trkpt><trkpt lat="42.282025830001295" lon="13.784444629785158"><ele>340.0</ele><time>2026-05-02T09:20:24Z</time></trkpt><trkpt lat="42.281992739046025" lon="13.784300223536402"><ele>340.0</ele><time>2026-05-02T09:20:25Z</time></trkpt><trkpt lat="42.28196163777481" lon="13.78416381818773"><ele>340.0</ele><time>2026-05-02T09:20:26Z</time></trkpt><trkpt lat="42.28193341095305" lon="13.784055440531555"><ele>340.0</ele><time>2026-05-02T09:20:27Z</time></trkpt><trkpt lat="42.281899694279" lon="13.78394352104675"><ele>340.0</ele><time>2026-05-02T09:20:29Z</time></trkpt><trkpt lat="42.28186627958711" lon="13.783784907950713"><ele>340.0</ele><time>2026-05-02T09:21:15Z</time></trkpt><trkpt lat="42.28183517248914" lon="13.783653953009761"><ele>339.75</ele><time>2026-05-02T09:21:16Z</time></trkpt><trkpt lat="42.281802430438866" lon="13.783509726715263"><ele>339.5</ele><time>2026-05-02T09:21:17Z</time></trkpt><trkpt lat="42.2817623896124" lon="13.783369510940378"><ele>339.25</ele><time>2026-05-02T09:21:18Z</time></trkpt><trkpt lat="42.2817193208665" lon="13.78322794322623"><ele>339.0</ele><time>2026-05-02T09:21:19Z</time></trkpt><trkpt lat="42.28167117082842" lon="13.783074715456042"><ele>339.0</ele><time>2026-05-02T09:21:20Z</time></trkpt><trkpt lat="42.28162401408236" lon="13.782919524583722"><ele>339.0</ele><time>2026-05-02T09:21:21Z</time></trkpt><trkpt lat="42.28157179833778" lon="13.782760226928787"><ele>339.0</ele><time>2026-05-02T09:21:22Z</time></trkpt><trkpt lat="42.28151205397709" lon="13.782604658056535"><ele>339.0</ele><time>2026-05-02T09:21:23Z</time></trkpt><trkpt lat="42.28144974241479" lon="13.782448832824716"><ele>339.75</ele><time>2026-05-02T09:21:24Z</time></trkpt><trkpt lat="42.28138927756111" lon="13.782283636365053"><ele>340.5</ele><time>2026-05-02T09:21:25Z</time></trkpt><trkpt lat="42.28133121795106" lon="13.782110087096907"><ele>341.25</ele><time>2026-05-02T09:21:26Z</time></trkpt><trkpt lat="42.281275140409385" lon="13.781934629782459"><ele>342.0</ele><time>2026-05-02T09:21:27Z</time></trkpt><trkpt lat="42.28121875784976" lon="13.781764572103741"><ele>342.0</ele><time>2026-05-02T09:21:28Z</time></trkpt><trkpt lat="42.28117030939108" lon="13.781609399601198"><ele>342.0</ele><time>2026-05-02T09:21:29Z</time></trkpt><trkpt lat="42.281125439211934" lon="13.781470711506131"><ele>342.0</ele><time>2026-05-02T09:21:30Z</time></trkpt><trkpt lat="42.281079511752374" lon="13.781339390844659"><ele>342.0</ele><time>2026-05-02T09:21:31Z</time></trkpt><trkpt lat="42.28103232285697" lon="13.78120542837811"><ele>342.0</ele><time>2026-05-02T09:21:32Z</time></trkpt><trkpt lat="42.280992212987314" lon="13.781061518525911"><ele>342.0</ele><time>2026-05-02T09:21:33Z</time></trkpt><trkpt lat="42.28095696446548" lon="13.780916636648604"><ele>342.0</ele><time>2026-05-02T09:21:34Z</time></trkpt><trkpt lat="42.28092227326656" lon="13.780769230312206"><ele>342.0</ele><time>2026-05-02T09:21:35Z</time></trkpt><trkpt lat="42.28088465561383" lon="13.780622412256351"><ele>341.8</ele><time>2026-05-02T09:21:36Z</time></trkpt><trkpt lat="42.280848230478554" lon="13.78047823175015"><ele>341.6</ele><time>2026-05-02T09:21:37Z</time></trkpt><trkpt lat="42.28081559464963" lon="13.780336630774249"><ele>341.40000000000003</ele><time>2026-05-02T09:21:38Z</time></trkpt><trkpt lat="42.28078730180609" lon="13.78019790832081"><ele>341.20000000000005</ele><time>2026-05-02T09:21:39Z</time></trkpt><trkpt lat="42.280757411369734" lon="13.780065677339161"><ele>341.0</ele><time>2026-05-02T09:21:40Z</time></trkpt><trkpt lat="42.28071521996768" lon="13.779953102797881"><ele>341.6</ele><time>2026-05-02T09:21:41Z</time></trkpt><trkpt lat="42.28068119872794" lon="13.779824566342054"><ele>342.20000000000005</ele><time>2026-05-02T09:21:42Z</time></trkpt><trkpt lat="42.28064127306705" lon="13.779715034641779"><ele>342.79999999999995</ele><time>2026-05-02T09:21:43Z</time></trkpt><trkpt lat="42.280586601388215" lon="13.779600157207616"><ele>343.4</ele><time>2026-05-02T09:21:44Z</time></trkpt><trkpt lat="42.2805329901224" lon="13.779467937355648"><ele>344.0</ele><time>2026-05-02T09:21:45Z</time></trkpt><trkpt lat="42.28048191705757" lon="13.779334108536856"><ele>344.4</ele><time>2026-05-02T09:21:46Z</time></trkpt><trkpt lat="42.28043534212611" lon="13.779203918632705"><ele>344.79999999999995</ele><time>2026-05-02T09:21:47Z</time></trkpt><trkpt lat="42.280403645580904" lon="13.779081276489848"><ele>345.20000000000005</ele><time>2026-05-02T09:21:48Z</time></trkpt><trkpt lat="42.280382597769496" lon="13.778963106542408"><ele>345.6</ele><time>2026-05-02T09:21:49Z</time></trkpt><trkpt lat="42.2803658461113" lon="13.778848559455398"><ele>346.0</ele><time>2026-05-02T09:21:50Z</time></trkpt><trkpt lat="42.28034776333791" lon="13.778726342889948"><ele>346.0</ele><time>2026-05-02T09:21:51Z</time></trkpt><trkpt lat="42.28033063307124" lon="13.778598537655393"><ele>346.0</ele><time>2026-05-02T09:21:52Z</time></trkpt><trkpt lat="42.280316551284045" lon="13.77847133099604"><ele>346.0</ele><time>2026-05-02T09:21:53Z</time></trkpt><trkpt lat="42.280304309066004" lon="13.77833445235715"><ele>346.0</ele><time>2026-05-02T09:21:54Z</time></trkpt><trkpt lat="42.2802876063599" lon="13.778178881325857"><ele>346.0</ele><time>2026-05-02T09:21:55Z</time></trkpt><trkpt lat="42.280265963143364" lon="13.778004843057776"><ele>346.0</ele><time>2026-05-02T09:21:56Z</time></trkpt><trkpt lat="42.280246273595104" lon="13.777840269708982"><ele>346.0</ele><time>2026-05-02T09:21:57Z</time></trkpt><trkpt lat="42.280226219888604" lon="13.777693612122594"><ele>346.0</ele><time>2026-05-02T09:21:58Z</time></trkpt><trkpt lat="42.28020399590792" lon="13.777553072283853"><ele>346.0</ele><time>2026-05-02T09:21:59Z</time></trkpt><trkpt lat="42.280182353142614" lon="13.777412256084878"><ele>346.0</ele><time>2026-05-02T09:22:00Z</time></trkpt><trkpt lat="42.28016661202164" lon="13.777277896761584"><ele>346.0</ele><time>2026-05-02T09:22:01Z</time></trkpt><trkpt lat="42.280148464805016" lon="13.77715267765478"><ele>346.0</ele><time>2026-05-02T09:22:02Z</time></trkpt><trkpt lat="42.28012174604446" lon="13.777023254947705"><ele>346.0</ele><time>2026-05-02T09:22:03Z</time></trkpt><trkpt lat="42.28009148605073" lon="13.776881863966745"><ele>346.0</ele><time>2026-05-02T09:22:04Z</time></trkpt><trkpt lat="42.2800631849528" lon="13.776740660007077"><ele>346.0</ele><time>2026-05-02T09:22:05Z</time></trkpt><trkpt lat="42.28003477567314" lon="13.77659638677005"><ele>346.0</ele><time>2026-05-02T09:22:06Z</time></trkpt><trkpt lat="42.280011247993656" lon="13.77646113499741"><ele>346.0</ele><time>2026-05-02T09:22:07Z</time></trkpt><trkpt lat="42.2799938037247" lon="13.776329195334263"><ele>346.0</ele><time>2026-05-02T09:22:08Z</time></trkpt><trkpt lat="42.27997715255497" lon="13.776202821170799"><ele>346.0</ele><time>2026-05-02T09:22:09Z</time></trkpt><trkpt lat="42.27996309796653" lon="13.776077962695386"><ele>346.0</ele><time>2026-05-02T09:22:10Z</time></trkpt><trkpt lat="42.279949365432905" lon="13.775953927196815"><ele>346.16666666666663</ele><time>2026-05-02T09:22:11Z</time></trkpt><trkpt lat="42.27994158545423" lon="13.775832410364254"><ele>346.3333333333333</ele><time>2026-05-02T09:22:12Z</time></trkpt><trkpt lat="42.27994199090811" lon="13.775712499486264"><ele>346.5</ele><time>2026-05-02T09:22:13Z</time></trkpt><trkpt lat="42.279946653038124" lon="13.775606591372915"><ele>346.6666666666667</ele><time>2026-05-02T09:22:14Z</time></trkpt><trkpt lat="42.27994889834344" lon="13.77551988672287"><ele>346.83333333333337</ele><time>2026-05-02T09:22:15Z</time></trkpt><trkpt lat="42.27997792585441" lon="13.775424916436991"><ele>347.0</ele><time>2026-05-02T09:22:17Z</time></trkpt><trkpt lat="42.28007254299503" lon="13.775346082392646"><ele>347.0</ele><time>2026-05-02T09:22:19Z</time></trkpt><trkpt lat="42.28015789417532" lon="13.775292364383578"><ele>347.0</ele><time>2026-05-02T09:22:20Z</time></trkpt><trkpt lat="42.28026190199837" lon="13.775222614826607"><ele>347.0</ele><time>2026-05-02T09:22:21Z</time></trkpt><trkpt lat="42.28036851269526" lon="13.775146428490725"><ele>347.0</ele><time>2026-05-02T09:22:22Z</time></trkpt><trkpt lat="42.28047085091737" lon="13.775074907993261"><ele>347.0</ele><time>2026-05-02T09:22:23Z</time></trkpt><trkpt lat="42.280579760676495" lon="13.77500222722394"><ele>347.0</ele><time>2026-05-02T09:22:24Z</time></trkpt><trkpt lat="42.28069453698552" lon="13.774927960746945"><ele>347.0</ele><time>2026-05-02T09:22:25Z</time></trkpt><trkpt lat="42.280805587564046" lon="13.774853632965723"><ele>347.0</ele><time>2026-05-02T09:22:26Z</time></trkpt><trkpt lat="42.280909620619205" lon="13.774781630015486"><ele>347.0</ele><time>2026-05-02T09:22:27Z</time></trkpt><trkpt lat="42.28101104934165" lon="13.774714049726349"><ele>347.0</ele><time>2026-05-02T09:22:28Z</time></trkpt><trkpt lat="42.28111079181072" lon="13.774648012096758"><ele>347.0</ele><time>2026-05-02T09:22:29Z</time></trkpt><trkpt lat="42.281207284942425" lon="13.774583380190238"><ele>347.0</ele><time>2026-05-02T09:22:30Z</time></trkpt><trkpt lat="42.28129404216519" lon="13.774531094103033"><ele>347.0</ele><time>2026-05-02T09:22:31Z</time></trkpt><trkpt lat="42.28136806643814" lon="13.774488897676363"><ele>347.0</ele><time>2026-05-02T09:22:32Z</time></trkpt><trkpt lat="42.28142754819166" lon="13.774459890444895"><ele>347.40000000000003</ele><time>2026-05-02T09:22:33Z</time></trkpt><trkpt lat="42.28151094036867" lon="13.774419078115386"><ele>347.8</ele><time>2026-05-02T09:22:35Z</time></trkpt><trkpt lat="42.28154315261371" lon="13.774344023505826"><ele>348.2</ele><time>2026-05-02T09:22:59Z</time></trkpt><trkpt lat="42.28150496172804" lon="13.77422428681796"><ele>348.6</ele><time>2026-05-02T09:23:01Z</time></trkpt><trkpt lat="42.28143028201525" lon="13.774139762259566"><ele>349.0</ele><time>2026-05-02T09:23:02Z</time></trkpt><trkpt lat="42.281340721179554" lon="13.774037027017023"><ele>349.5</ele><time>2026-05-02T09:23:03Z</time></trkpt><trkpt lat="42.28124431703244" lon="13.77392201900206"><ele>350.0</ele><time>2026-05-02T09:23:04Z</time></trkpt><trkpt lat="42.28114647687009" lon="13.773802916119564"><ele>350.5</ele><time>2026-05-02T09:23:05Z</time></trkpt><trkpt lat="42.28104695941271" lon="13.773674912600626"><ele>351.0</ele><time>2026-05-02T09:23:06Z</time></trkpt><trkpt lat="42.28095127040193" lon="13.773545110337338"><ele>352.75</ele><time>2026-05-02T09:23:07Z</time></trkpt><trkpt lat="42.2808609326329" lon="13.773396126935719"><ele>354.5</ele><time>2026-05-02T09:23:08Z</time></trkpt><trkpt lat="42.280790271747705" lon="13.773225198795336"><ele>356.25</ele><time>2026-05-02T09:23:09Z</time></trkpt><trkpt lat="42.28069303007418" lon="13.773077102399007"><ele>358.0</ele><time>2026-05-02T09:23:10Z</time></trkpt><trkpt lat="42.280611968896494" lon="13.77291285462959"><ele>357.25</ele><time>2026-05-02T09:23:11Z</time></trkpt><trkpt lat="42.28052874869315" lon="13.772751713768514"><ele>356.5</ele><time>2026-05-02T09:23:12Z</time></trkpt><trkpt lat="42.28044877722279" lon="13.772598442814559"><ele>355.75</ele><time>2026-05-02T09:23:13Z</time></trkpt><trkpt lat="42.28037615820881" lon="13.77245914512161"><ele>355.0</ele><time>2026-05-02T09:23:14Z</time></trkpt><trkpt lat="42.28030629066687" lon="13.77232802036059"><ele>355.0</ele><time>2026-05-02T09:23:15Z</time></trkpt><trkpt lat="42.28022728321804" lon="13.772225226985453"><ele>355.0</ele><time>2026-05-02T09:23:16Z</time></trkpt><trkpt lat="42.28012460134481" lon="13.772142422356897"><ele>355.0</ele><time>2026-05-02T09:23:17Z</time></trkpt><trkpt lat="42.28001889706626" lon="13.772052807121641"><ele>355.0</ele><time>2026-05-02T09:23:18Z</time></trkpt><trkpt lat="42.27991588715355" lon="13.771973001328254"><ele>355.0</ele><time>2026-05-02T09:23:19Z</time></trkpt><trkpt lat="42.27982320149329" lon="13.771888828941291"><ele>355.0</ele><time>2026-05-02T09:23:20Z</time></trkpt><trkpt lat="42.2797422465985" lon="13.77178832748554"><ele>355.0</ele><time>2026-05-02T09:23:21Z</time></trkpt><trkpt lat="42.279673381449236" lon="13.771674817524008"><ele>355.0</ele><time>2026-05-02T09:23:22Z</time></trkpt><trkpt lat="42.279622836222316" lon="13.771547207990606"><ele>355.0</ele><time>2026-05-02T09:23:23Z</time></trkpt><trkpt lat="42.279574724408256" lon="13.7714148893741"><ele>355.4</ele><time>2026-05-02T09:23:24Z</time></trkpt><trkpt lat="42.279527607143926" lon="13.771281816589688"><ele>355.8</ele><time>2026-05-02T09:23:25Z</time></trkpt><trkpt lat="42.27948136847276" lon="13.771151225207262"><ele>356.20000000000005</ele><time>2026-05-02T09:23:26Z</time></trkpt><trkpt lat="42.27942082456351" lon="13.771025907051992"><ele>356.6</ele><time>2026-05-02T09:23:27Z</time></trkpt><trkpt lat="42.2793748017164" lon="13.770890566326093"><ele>357.0</ele><time>2026-05-02T09:23:28Z</time></trkpt><trkpt lat="42.27932871088412" lon="13.770756135080708"><ele>357.40000000000003</ele><time>2026-05-02T09:23:29Z</time></trkpt><trkpt lat="42.279282157574634" lon="13.770622081770899"><ele>357.8</ele><time>2026-05-02T09:23:30Z</time></trkpt><trkpt lat="42.27923612323051" lon="13.77048899744882"><ele>358.2</ele><time>2026-05-02T09:23:31Z</time></trkpt><trkpt lat="42.27918625443259" lon="13.770357267390416"><ele>358.6</ele><time>2026-05-02T09:23:32Z</time></trkpt><trkpt lat="42.279140128656536" lon="13.770234134707144"><ele>359.0</ele><time>2026-05-02T09:23:33Z</time></trkpt><trkpt lat="42.27909869450656" lon="13.770115001219223"><ele>359.2</ele><time>2026-05-02T09:23:34Z</time></trkpt><trkpt lat="42.27905889900003" lon="13.769992962904853"><ele>359.4</ele><time>2026-05-02T09:23:35Z</time></trkpt><trkpt lat="42.27901734623903" lon="13.769878493336353"><ele>359.6</ele><time>2026-05-02T09:23:36Z</time></trkpt><trkpt lat="42.27898947798551" lon="13.769755406916596"><ele>359.8</ele><time>2026-05-02T09:23:37Z</time></trkpt><trkpt lat="42.27895056055004" lon="13.76964253310909"><ele>360.0</ele><time>2026-05-02T09:23:38Z</time></trkpt><trkpt lat="42.27890262440055" lon="13.769539183362134"><ele>360.0</ele><time>2026-05-02T09:23:39Z</time></trkpt><trkpt lat="42.27887945224301" lon="13.769450716551088"><ele>360.0</ele><time>2026-05-02T09:23:40Z</time></trkpt><trkpt lat="42.278863148673246" lon="13.76935229150186"><ele>360.0</ele><time>2026-05-02T09:23:42Z</time></trkpt><trkpt lat="42.27897875751667" lon="13.76923455156664"><ele>360.0</ele><time>2026-05-02T09:24:00Z</time></trkpt><trkpt lat="42.27907077198522" lon="13.769163696159449"><ele>360.0</ele><time>2026-05-02T09:24:01Z</time></trkpt><trkpt lat="42.27917448521531" lon="13.769085488719533"><ele>360.75</ele><time>2026-05-02T09:24:02Z</time></trkpt><trkpt lat="42.27927230363818" lon="13.768991448128416"><ele>361.5</ele><time>2026-05-02T09:24:03Z</time></trkpt><trkpt lat="42.279381601067314" lon="13.768910530938403"><ele>362.25</ele><time>2026-05-02T09:24:04Z</time></trkpt><trkpt lat="42.2794996755192" lon="13.768822527841053"><ele>363.0</ele><time>2026-05-02T09:24:05Z</time></trkpt><trkpt lat="42.27962363700216" lon="13.768732069116256"><ele>363.0</ele><time>2026-05-02T09:24:06Z</time></trkpt><trkpt lat="42.27974616956829" lon="13.768641155495775"><ele>363.0</ele><time>2026-05-02T09:24:07Z</time></trkpt><trkpt lat="42.27985708340749" lon="13.768550771911018"><ele>363.0</ele><time>2026-05-02T09:24:08Z</time></trkpt><trkpt lat="42.279962859335754" lon="13.768454567398669"><ele>363.0</ele><time>2026-05-02T09:24:09Z</time></trkpt><trkpt lat="42.28007349985268" lon="13.76836266022946"><ele>364.0</ele><time>2026-05-02T09:24:10Z</time></trkpt><trkpt lat="42.2801708172186" lon="13.768238700921133"><ele>365.0</ele><time>2026-05-02T09:24:11Z</time></trkpt><trkpt lat="42.28025446907053" lon="13.768091603997819"><ele>366.0</ele><time>2026-05-02T09:24:12Z</time></trkpt><trkpt lat="42.280355395618216" lon="13.767958749618517"><ele>367.0</ele><time>2026-05-02T09:24:13Z</time></trkpt><trkpt lat="42.28046019419189" lon="13.76782694097816"><ele>367.0</ele><time>2026-05-02T09:24:14Z</time></trkpt><trkpt lat="42.28057210112145" lon="13.767695155489193"><ele>367.0</ele><time>2026-05-02T09:24:15Z</time></trkpt><trkpt lat="42.28069099100908" lon="13.767564974728577"><ele>367.0</ele><time>2026-05-02T09:24:16Z</time></trkpt><trkpt lat="42.28081642936067" lon="13.767443155953998"><ele>368.3333333333333</ele><time>2026-05-02T09:24:17Z</time></trkpt><trkpt lat="42.2809463376865" lon="13.767328450110211"><ele>369.6666666666667</ele><time>2026-05-02T09:24:18Z</time></trkpt><trkpt lat="42.281072332254126" lon="13.76721925428028"><ele>371.0</ele><time>2026-05-02T09:24:19Z</time></trkpt><trkpt lat="42.28120209437743" lon="13.767106940876335"><ele>371.0</ele><time>2026-05-02T09:24:19.999Z</time></trkpt><trkpt lat="42.28133165841503" lon="13.766990551302493"><ele>371.0</ele><time>2026-05-02T09:24:20.999Z</time></trkpt><trkpt lat="42.281461591352" lon="13.766872213314"><ele>371.0</ele><time>2026-05-02T09:24:21.999Z</time></trkpt><trkpt lat="42.28158171784842" lon="13.766756056245756"><ele>372.25</ele><time>2026-05-02T09:24:22.999Z</time></trkpt><trkpt lat="42.281686144158506" lon="13.76664519017811"><ele>373.5</ele><time>2026-05-02T09:24:23.999Z</time></trkpt><trkpt lat="42.28177986481967" lon="13.766523826585779"><ele>374.75</ele><time>2026-05-02T09:24:24.999Z</time></trkpt><trkpt lat="42.281874022737995" lon="13.766384046577986"><ele>376.0</ele><time>2026-05-02T09:24:25.999Z</time></trkpt><trkpt lat="42.28198361467233" lon="13.76625281722615"><ele>376.0</ele><time>2026-05-02T09:24:26.999Z</time></trkpt><trkpt lat="42.28208721502972" lon="13.766097571610796"><ele>376.0</ele><time>2026-05-02T09:24:27.999Z</time></trkpt><trkpt lat="42.282185079596935" lon="13.765919431992202"><ele>376.0</ele><time>2026-05-02T09:24:28.999Z</time></trkpt><trkpt lat="42.28230015908705" lon="13.765748798137011"><ele>377.3333333333333</ele><time>2026-05-02T09:24:29.999Z</time></trkpt><trkpt lat="42.28241517404073" lon="13.765578630091237"><ele>378.6666666666667</ele><time>2026-05-02T09:24:31Z</time></trkpt><trkpt lat="42.28252516459791" lon="13.76541199351133"><ele>380.0</ele><time>2026-05-02T09:24:32Z</time></trkpt><trkpt lat="42.282630046992416" lon="13.765243394267529"><ele>381.33333333333337</ele><time>2026-05-02T09:24:33Z</time></trkpt><trkpt lat="42.28274488773744" lon="13.76509643218965"><ele>382.6666666666667</ele><time>2026-05-02T09:24:34Z</time></trkpt><trkpt lat="42.282848736940814" lon="13.764941103697613"><ele>384.0</ele><time>2026-05-02T09:24:35Z</time></trkpt><trkpt lat="42.28295178478489" lon="13.764786974004355"><ele>384.0</ele><time>2026-05-02T09:24:36Z</time></trkpt><trkpt lat="42.28303727507534" lon="13.764625482517776"><ele>384.0</ele><time>2026-05-02T09:24:37Z</time></trkpt><trkpt lat="42.2831309594012" lon="13.76449010887654"><ele>384.0</ele><time>2026-05-02T09:24:38Z</time></trkpt><trkpt lat="42.283216637839345" lon="13.764363865443368"><ele>384.0</ele><time>2026-05-02T09:24:39Z</time></trkpt><trkpt lat="42.28329618355091" lon="13.764244465946366"><ele>384.6</ele><time>2026-05-02T09:24:40Z</time></trkpt><trkpt lat="42.28336693985494" lon="13.764133840767279"><ele>385.2</ele><time>2026-05-02T09:24:41Z</time></trkpt><trkpt lat="42.28342536943626" lon="13.764044817498212"><ele>385.8</ele><time>2026-05-02T09:24:42Z</time></trkpt><trkpt lat="42.28347510479782" lon="13.763967991166723"><ele>386.40000000000003</ele><time>2026-05-02T09:24:43Z</time></trkpt><trkpt lat="42.2835572051211" lon="13.763871673456235"><ele>387.0</ele><time>2026-05-02T09:24:45Z</time></trkpt><trkpt lat="42.283556789554396" lon="13.763577564104986"><ele>387.0</ele><time>2026-05-02T09:24:49Z</time></trkpt><trkpt lat="42.28338141700185" lon="13.763734069797064"><ele>387.0</ele><time>2026-05-02T09:24:50Z</time></trkpt><trkpt lat="42.28328453587091" lon="13.763711605674214"><ele>387.0</ele><time>2026-05-02T09:24:51Z</time></trkpt><trkpt lat="42.28317355466521" lon="13.763700059285425"><ele>387.0</ele><time>2026-05-02T09:24:52Z</time></trkpt><trkpt lat="42.28305403598122" lon="13.763699616452424"><ele>387.6666666666667</ele><time>2026-05-02T09:24:53Z</time></trkpt><trkpt lat="42.282935226160276" lon="13.763701354559965"><ele>388.33333333333337</ele><time>2026-05-02T09:24:54Z</time></trkpt><trkpt lat="42.282848421552025" lon="13.763719513258241"><ele>389.0</ele><time>2026-05-02T09:24:55Z</time></trkpt><trkpt lat="42.282776032112984" lon="13.76375011776886"><ele>389.6666666666667</ele><time>2026-05-02T09:24:57Z</time></trkpt><trkpt lat="42.28271145529792" lon="13.763798074899531"><ele>390.33333333333337</ele><time>2026-05-02T09:25:00Z</time></trkpt><trkpt lat="42.28264343926188" lon="13.763836475674475"><ele>391.0</ele><time>2026-05-02T09:25:02Z</time></trkpt><trkpt lat="42.282579572392834" lon="13.763827788184626"><ele>391.0</ele><time>2026-05-02T09:25:04Z</time></trkpt><trkpt lat="42.28247674648272" lon="13.763637083567497"><ele>391.0</ele><time>2026-05-02T09:25:05Z</time></trkpt><trkpt lat="42.2823853320741" lon="13.763599928439541"><ele>391.0</ele><time>2026-05-02T09:25:07Z</time></trkpt><trkpt lat="42.28229329612587" lon="13.763561598833684"><ele>391.0</ele><time>2026-05-02T09:25:09Z</time></trkpt><trkpt lat="42.282191636703935" lon="13.763545182660506"><ele>393.8</ele><time>2026-05-02T09:25:11Z</time></trkpt><trkpt lat="42.28210216640479" lon="13.763554059526571"><ele>396.6</ele><time>2026-05-02T09:25:13Z</time></trkpt><trkpt lat="42.28201976057946" lon="13.763581392792355"><ele>399.4</ele><time>2026-05-02T09:25:15Z</time></trkpt><trkpt lat="42.281919482451386" lon="13.763594362388716"><ele>402.2</ele><time>2026-05-02T09:25:17Z</time></trkpt><trkpt lat="42.28180509066157" lon="13.763583822539971"><ele>405.0</ele><time>2026-05-02T09:25:19Z</time></trkpt><trkpt lat="42.281706193288684" lon="13.763567453750115"><ele>405.0</ele><time>2026-05-02T09:25:21Z</time></trkpt><trkpt lat="42.28163860673924" lon="13.763568323342007"><ele>405.0</ele><time>2026-05-02T09:25:22Z</time></trkpt><trkpt lat="42.281571165519935" lon="13.763579545478104"><ele>405.0</ele><time>2026-05-02T09:25:23Z</time></trkpt><trkpt lat="42.2814623266135" lon="13.763616396615612"><ele>405.0</ele><time>2026-05-02T09:25:25Z</time></trkpt><trkpt lat="42.281358448389405" lon="13.76364077548301"><ele>405.0</ele><time>2026-05-02T09:25:27Z</time></trkpt><trkpt lat="42.2812607593897" lon="13.763666671970975"><ele>409.75</ele><time>2026-05-02T09:25:29Z</time></trkpt><trkpt lat="42.28115884846557" lon="13.763672912150328"><ele>414.5</ele><time>2026-05-02T09:25:31Z</time></trkpt><trkpt lat="42.28103067754319" lon="13.763639945408729"><ele>419.25</ele><time>2026-05-02T09:25:33Z</time></trkpt><trkpt lat="42.2809269093127" lon="13.763588422031798"><ele>424.0</ele><time>2026-05-02T09:25:35Z</time></trkpt><trkpt lat="42.28082287287394" lon="13.76355206185795"><ele>424.0</ele><time>2026-05-02T09:25:37Z</time></trkpt><trkpt lat="42.28075852192502" lon="13.76353882692629"><ele>424.0</ele><time>2026-05-02T09:25:38Z</time></trkpt><trkpt lat="42.280648033195455" lon="13.763506473564213"><ele>424.0</ele><time>2026-05-02T09:25:40Z</time></trkpt><trkpt lat="42.2805440026938" lon="13.763449639933183"><ele>424.0</ele><time>2026-05-02T09:25:42Z</time></trkpt><trkpt lat="42.280468771621" lon="13.763409185739476"><ele>424.0</ele><time>2026-05-02T09:25:44Z</time></trkpt><trkpt lat="42.280368751269606" lon="13.763419789854588"><ele>428.0</ele><time>2026-05-02T09:25:46Z</time></trkpt><trkpt lat="42.2802638511948" lon="13.763394459423301"><ele>432.0</ele><time>2026-05-02T09:25:48Z</time></trkpt><trkpt lat="42.28020376913605" lon="13.763362590807857"><ele>436.0</ele><time>2026-05-02T09:25:49Z</time></trkpt><trkpt lat="42.28011454213485" lon="13.763259400968595"><ele>440.0</ele><time>2026-05-02T09:25:51Z</time></trkpt><trkpt lat="42.28002325317087" lon="13.763149346678748"><ele>444.0</ele><time>2026-05-02T09:25:53Z</time></trkpt><trkpt lat="42.27992810681645" lon="13.763048551101825"><ele>444.0</ele><time>2026-05-02T09:25:55Z</time></trkpt><trkpt lat="42.279840366312925" lon="13.76293936776718"><ele>444.0</ele><time>2026-05-02T09:25:57Z</time></trkpt><trkpt lat="42.27975166570827" lon="13.762846521927397"><ele>444.0</ele><time>2026-05-02T09:25:59Z</time></trkpt><trkpt lat="42.27966517008921" lon="13.762746996764436"><ele>444.0</ele><time>2026-05-02T09:26:01Z</time></trkpt><trkpt lat="42.27961441090886" lon="13.762689924358984"><ele>444.0</ele><time>2026-05-02T09:26:02Z</time></trkpt><trkpt lat="42.279502550836064" lon="13.762615173452609"><ele>446.2857142857143</ele><time>2026-05-02T09:26:04Z</time></trkpt><trkpt lat="42.279440545971354" lon="13.762581647641028"><ele>448.57142857142856</ele><time>2026-05-02T09:26:05Z</time></trkpt><trkpt lat="42.27937310936176" lon="13.762555637568088"><ele>450.85714285714283</ele><time>2026-05-02T09:26:06Z</time></trkpt><trkpt lat="42.27930602537549" lon="13.762533706850594"><ele>453.1428571428571</ele><time>2026-05-02T09:26:07Z</time></trkpt><trkpt lat="42.27924029319399" lon="13.762515606170753"><ele>455.42857142857144</ele><time>2026-05-02T09:26:08Z</time></trkpt><trkpt lat="42.27917663726291" lon="13.762494060294296"><ele>457.71428571428567</ele><time>2026-05-02T09:26:09Z</time></trkpt><trkpt lat="42.279113402828784" lon="13.762463974201113"><ele>459.99999999999994</ele><time>2026-05-02T09:26:10Z</time></trkpt><trkpt lat="42.27905348469722" lon="13.762431490749265"><ele>460.0</ele><time>2026-05-02T09:26:11Z</time></trkpt><trkpt lat="42.27898697236199" lon="13.762396875073762"><ele>460.0</ele><time>2026-05-02T09:26:12Z</time></trkpt><trkpt lat="42.278924075087865" lon="13.762368593915188"><ele>460.0</ele><time>2026-05-02T09:26:13Z</time></trkpt><trkpt lat="42.27880571099223" lon="13.762314466204415"><ele>460.0</ele><time>2026-05-02T09:26:15Z</time></trkpt><trkpt lat="42.278681625267765" lon="13.762256604504534"><ele>460.0</ele><time>2026-05-02T09:26:17Z</time></trkpt><trkpt lat="42.27861547170682" lon="13.762231370772366"><ele>461.50000000000006</ele><time>2026-05-02T09:26:18Z</time></trkpt><trkpt lat="42.27854933742093" lon="13.762210280292566"><ele>463.0</ele><time>2026-05-02T09:26:19Z</time></trkpt><trkpt lat="42.278486781638364" lon="13.762191278865053"><ele>464.5</ele><time>2026-05-02T09:26:20Z</time></trkpt><trkpt lat="42.27837560878147" lon="13.76210706552606"><ele>466.0</ele><time>2026-05-02T09:26:22Z</time></trkpt><trkpt lat="42.27832000852447" lon="13.762036196704578"><ele>467.50000000000006</ele><time>2026-05-02T09:26:23Z</time></trkpt><trkpt lat="42.27826630340204" lon="13.761958987182366"><ele>469.0</ele><time>2026-05-02T09:26:24Z</time></trkpt><trkpt lat="42.27822032627785" lon="13.761897579291766"><ele>469.0</ele><time>2026-05-02T09:26:25Z</time></trkpt><trkpt lat="42.27810587909224" lon="13.761806416397514"><ele>469.0</ele><time>2026-05-02T09:26:27Z</time></trkpt><trkpt lat="42.27802672141261" lon="13.761772669063728"><ele>469.0</ele><time>2026-05-02T09:26:28Z</time></trkpt><trkpt lat="42.27793236272128" lon="13.761744991923104"><ele>469.0</ele><time>2026-05-02T09:26:29Z</time></trkpt><trkpt lat="42.277842636614686" lon="13.761727568606483"><ele>469.0</ele><time>2026-05-02T09:26:30Z</time></trkpt><trkpt lat="42.27775314301511" lon="13.76171036075714"><ele>470.33333333333337</ele><time>2026-05-02T09:26:31Z</time></trkpt><trkpt lat="42.27766745422447" lon="13.7617029116298"><ele>471.6666666666667</ele><time>2026-05-02T09:26:32Z</time></trkpt><trkpt lat="42.27759071689292" lon="13.761714761647323"><ele>473.0</ele><time>2026-05-02T09:26:33Z</time></trkpt><trkpt lat="42.27751992530446" lon="13.76174358010437"><ele>474.33333333333337</ele><time>2026-05-02T09:26:34Z</time></trkpt><trkpt lat="42.27744219263143" lon="13.76177671744558"><ele>475.6666666666667</ele><time>2026-05-02T09:26:35Z</time></trkpt><trkpt lat="42.27736393652571" lon="13.761799529273478"><ele>477.0</ele><time>2026-05-02T09:26:36Z</time></trkpt><trkpt lat="42.27727577702019" lon="13.761806918025433"><ele>478.2857142857143</ele><time>2026-05-02T09:26:37Z</time></trkpt><trkpt lat="42.277202933697644" lon="13.761789330125389"><ele>479.57142857142856</ele><time>2026-05-02T09:26:38Z</time></trkpt><trkpt lat="42.27712719402302" lon="13.76176654508685"><ele>480.85714285714283</ele><time>2026-05-02T09:26:39Z</time></trkpt><trkpt lat="42.277058443008244" lon="13.761754345831765"><ele>482.1428571428571</ele><time>2026-05-02T09:26:40Z</time></trkpt><trkpt lat="42.27699142698757" lon="13.761747126848702"><ele>483.42857142857144</ele><time>2026-05-02T09:26:41Z</time></trkpt><trkpt lat="42.27691712902083" lon="13.761748864618877"><ele>484.71428571428567</ele><time>2026-05-02T09:26:42Z</time></trkpt><trkpt lat="42.276838987108256" lon="13.761760052531642"><ele>486.0</ele><time>2026-05-02T09:26:43Z</time></trkpt><trkpt lat="42.27676020912584" lon="13.761771417849403"><ele>486.0</ele><time>2026-05-02T09:26:44Z</time></trkpt><trkpt lat="42.2766733844768" lon="13.761772666751206"><ele>486.0</ele><time>2026-05-02T09:26:45Z</time></trkpt><trkpt lat="42.27659824027101" lon="13.761756680277665"><ele>486.0</ele><time>2026-05-02T09:26:46Z</time></trkpt><trkpt lat="42.27651525927593" lon="13.761724441036026"><ele>486.0</ele><time>2026-05-02T09:26:47Z</time></trkpt><trkpt lat="42.27645021588891" lon="13.761678954767875"><ele>486.0</ele><time>2026-05-02T09:26:48Z</time></trkpt><trkpt lat="42.276375157125294" lon="13.761623787530032"><ele>486.0</ele><time>2026-05-02T09:26:49Z</time></trkpt><trkpt lat="42.27628492453473" lon="13.761577961782978"><ele>488.1666666666667</ele><time>2026-05-02T09:26:50Z</time></trkpt><trkpt lat="42.276204171440455" lon="13.761550904109546"><ele>490.33333333333337</ele><time>2026-05-02T09:26:51Z</time></trkpt><trkpt lat="42.27612164330825" lon="13.761515051099915"><ele>492.5</ele><time>2026-05-02T09:26:52Z</time></trkpt><trkpt lat="42.27603752772295" lon="13.761465256971649"><ele>494.6666666666667</ele><time>2026-05-02T09:26:53Z</time></trkpt><trkpt lat="42.27595466534774" lon="13.76140308926744"><ele>496.83333333333337</ele><time>2026-05-02T09:26:54Z</time></trkpt><trkpt lat="42.27588381349661" lon="13.761341577775843"><ele>499.0</ele><time>2026-05-02T09:26:55Z</time></trkpt><trkpt lat="42.275817450066434" lon="13.76127739684415"><ele>499.00000000000006</ele><time>2026-05-02T09:26:56Z</time></trkpt><trkpt lat="42.275753876626524" lon="13.761216415314806"><ele>499.0</ele><time>2026-05-02T09:26:57Z</time></trkpt><trkpt lat="42.275684488500175" lon="13.76115755022794"><ele>499.0</ele><time>2026-05-02T09:26:58Z</time></trkpt><trkpt lat="42.275604543960675" lon="13.761104229185264"><ele>499.0</ele><time>2026-05-02T09:26:59Z</time></trkpt><trkpt lat="42.275524244000316" lon="13.76105594150824"><ele>499.00000000000006</ele><time>2026-05-02T09:27:00Z</time></trkpt><trkpt lat="42.27544670341228" lon="13.761004032934705"><ele>499.0</ele><time>2026-05-02T09:27:01Z</time></trkpt><trkpt lat="42.275367437255014" lon="13.76095024001456"><ele>499.79999999999995</ele><time>2026-05-02T09:27:02Z</time></trkpt><trkpt lat="42.27527444143481" lon="13.76088751384213"><ele>500.59999999999997</ele><time>2026-05-02T09:27:03Z</time></trkpt><trkpt lat="42.27517811389756" lon="13.760827850054687"><ele>501.4</ele><time>2026-05-02T09:27:04Z</time></trkpt><trkpt lat="42.27508216104391" lon="13.760770838963133"><ele>502.2</ele><time>2026-05-02T09:27:05Z</time></trkpt><trkpt lat="42.27498852661518" lon="13.76071384548714"><ele>503.0</ele><time>2026-05-02T09:27:06Z</time></trkpt><trkpt lat="42.2749105795706" lon="13.760663634366288"><ele>503.0</ele><time>2026-05-02T09:27:07Z</time></trkpt><trkpt lat="42.274832473877524" lon="13.760618689495415"><ele>502.99999999999994</ele><time>2026-05-02T09:27:08Z</time></trkpt><trkpt lat="42.27476181404974" lon="13.76057788821243"><ele>502.99999999999994</ele><time>2026-05-02T09:27:09Z</time></trkpt><trkpt lat="42.274681871581194" lon="13.760522086038115"><ele>503.0</ele><time>2026-05-02T09:27:11Z</time></trkpt><trkpt lat="42.27467676233964" lon="13.760425603086457"><ele>503.0</ele><time>2026-05-02T09:27:16Z</time></trkpt><trkpt lat="42.274772872443265" lon="13.760311211123371"><ele>503.0</ele><time>2026-05-02T09:27:18Z</time></trkpt><trkpt lat="42.27483864524334" lon="13.760252720926703"><ele>502.99999999999994</ele><time>2026-05-02T09:27:19Z</time></trkpt><trkpt lat="42.27491268629339" lon="13.760178722763126"><ele>502.99999999999994</ele><time>2026-05-02T09:27:20Z</time></trkpt><trkpt lat="42.27498552615364" lon="13.760081367211239"><ele>503.0</ele><time>2026-05-02T09:27:21Z</time></trkpt><trkpt lat="42.27506677275361" lon="13.759959580594115"><ele>503.0</ele><time>2026-05-02T09:27:22Z</time></trkpt><trkpt lat="42.275144027298836" lon="13.759841807712949"><ele>503.0</ele><time>2026-05-02T09:27:23Z</time></trkpt><trkpt lat="42.275218496820266" lon="13.759729246017779"><ele>502.99999999999994</ele><time>2026-05-02T09:27:24Z</time></trkpt><trkpt lat="42.27528352423357" lon="13.759623127504009"><ele>502.99999999999994</ele><time>2026-05-02T09:27:25Z</time></trkpt><trkpt lat="42.27534641471468" lon="13.759519896528301"><ele>503.0</ele><time>2026-05-02T09:27:26Z</time></trkpt><trkpt lat="42.27540519833817" lon="13.759419305317612"><ele>503.0</ele><time>2026-05-02T09:27:27Z</time></trkpt><trkpt lat="42.275472687329625" lon="13.759307033425127"><ele>503.59999999999997</ele><time>2026-05-02T09:27:28Z</time></trkpt><trkpt lat="42.275547523110205" lon="13.759196566927889"><ele>504.19999999999993</ele><time>2026-05-02T09:27:29Z</time></trkpt><trkpt lat="42.27562713500563" lon="13.75908265990308"><ele>504.8</ele><time>2026-05-02T09:27:30Z</time></trkpt><trkpt lat="42.275707984714614" lon="13.758971393569455"><ele>505.4</ele><time>2026-05-02T09:27:31Z</time></trkpt><trkpt lat="42.275780109607624" lon="13.758877614304712"><ele>506.0</ele><time>2026-05-02T09:27:32Z</time></trkpt><trkpt lat="42.27583678024453" lon="13.758807478007908"><ele>506.0</ele><time>2026-05-02T09:27:33Z</time></trkpt><trkpt lat="42.27591397310334" lon="13.758717254704035"><ele>506.0</ele><time>2026-05-02T09:27:35Z</time></trkpt><trkpt lat="42.27584247421634" lon="13.758781013166002"><ele>506.0</ele><time>2026-05-02T09:27:49Z</time></trkpt><trkpt lat="42.27576641867293" lon="13.758865232773003"><ele>506.0</ele><time>2026-05-02T09:27:51Z</time></trkpt><trkpt lat="42.27556921936875" lon="13.758689517439889"><ele>506.0</ele><time>2026-05-02T09:27:52Z</time></trkpt><trkpt lat="42.275453252813314" lon="13.758714358471707"><ele>506.0</ele><time>2026-05-02T09:27:54Z</time></trkpt><trkpt lat="42.27533778663457" lon="13.758754015607249"><ele>506.0</ele><time>2026-05-02T09:27:56Z</time></trkpt><trkpt lat="42.2752425930636" lon="13.758775656090451"><ele>506.0</ele><time>2026-05-02T09:27:58Z</time></trkpt><trkpt lat="42.27513235553639" lon="13.758802794149704"><ele>506.0</ele><time>2026-05-02T09:28:00Z</time></trkpt><trkpt lat="42.2750692417584" lon="13.75881170391316"><ele>506.00000000000006</ele><time>2026-05-02T09:28:01Z</time></trkpt><trkpt lat="42.27500180151507" lon="13.758826221185446"><ele>506.0</ele><time>2026-05-02T09:28:02Z</time></trkpt><trkpt lat="42.27493407172265" lon="13.758843140071155"><ele>506.00000000000006</ele><time>2026-05-02T09:28:03Z</time></trkpt><trkpt lat="42.27486010109717" lon="13.758853119164387"><ele>506.00000000000006</ele><time>2026-05-02T09:28:04Z</time></trkpt><trkpt lat="42.274789960358284" lon="13.758862159295953"><ele>506.0</ele><time>2026-05-02T09:28:05Z</time></trkpt><trkpt lat="42.27472183374654" lon="13.758869341957347"><ele>506.00000000000006</ele><time>2026-05-02T09:28:06Z</time></trkpt><trkpt lat="42.274653651939175" lon="13.758887056620747"><ele>506.00000000000006</ele><time>2026-05-02T09:28:07Z</time></trkpt><trkpt lat="42.27459007812418" lon="13.758906873321699"><ele>507.49999999999994</ele><time>2026-05-02T09:28:08Z</time></trkpt><trkpt lat="42.27447425502569" lon="13.758950866763769"><ele>509.0</ele><time>2026-05-02T09:28:10Z</time></trkpt><trkpt lat="42.27435786494447" lon="13.758966833936887"><ele>510.5</ele><time>2026-05-02T09:28:12Z</time></trkpt><trkpt lat="42.27428376575429" lon="13.75897883547435"><ele>512.0</ele><time>2026-05-02T09:28:14Z</time></trkpt><trkpt lat="42.274221067401875" lon="13.75899109698176"><ele>513.5</ele><time>2026-05-02T09:28:15Z</time></trkpt><trkpt lat="42.27415637923822" lon="13.759020200869935"><ele>515.0</ele><time>2026-05-02T09:28:16Z</time></trkpt><trkpt lat="42.27404625310457" lon="13.759092944250098"><ele>515.0</ele><time>2026-05-02T09:28:18Z</time></trkpt><trkpt lat="42.273974605647005" lon="13.759174290638608"><ele>515.0</ele><time>2026-05-02T09:28:20Z</time></trkpt><trkpt lat="42.2739517083819" lon="13.759289925842232"><ele>515.0</ele><time>2026-05-02T09:28:22Z</time></trkpt><trkpt lat="42.27393432387862" lon="13.759422974576438"><ele>515.0</ele><time>2026-05-02T09:28:24Z</time></trkpt><trkpt lat="42.273889161565165" lon="13.759529504299039"><ele>515.0</ele><time>2026-05-02T09:28:26Z</time></trkpt><trkpt lat="42.27382608510324" lon="13.759659597707415"><ele>516.5</ele><time>2026-05-02T09:28:28Z</time></trkpt><trkpt lat="42.273758752830325" lon="13.759744718188065"><ele>518.0</ele><time>2026-05-02T09:28:30Z</time></trkpt><trkpt lat="42.27367263461121" lon="13.759777884909376"><ele>519.5</ele><time>2026-05-02T09:28:32Z</time></trkpt><trkpt lat="42.273570248864274" lon="13.759763280314502"><ele>521.0</ele><time>2026-05-02T09:28:34Z</time></trkpt><trkpt lat="42.27350158937358" lon="13.759749707765641"><ele>522.5</ele><time>2026-05-02T09:28:35Z</time></trkpt><trkpt lat="42.27341486418967" lon="13.75972944182612"><ele>524.0</ele><time>2026-05-02T09:28:36Z</time></trkpt><trkpt lat="42.27330543798472" lon="13.759723672322933"><ele>524.0</ele><time>2026-05-02T09:28:37Z</time></trkpt><trkpt lat="42.27319780911654" lon="13.759747655962155"><ele>524.0</ele><time>2026-05-02T09:28:38Z</time></trkpt><trkpt lat="42.27309812891606" lon="13.75978461706548"><ele>524.0</ele><time>2026-05-02T09:28:39Z</time></trkpt><trkpt lat="42.27300697273335" lon="13.759811706949577"><ele>524.0</ele><time>2026-05-02T09:28:40Z</time></trkpt><trkpt lat="42.2729170776691" lon="13.759811157816992"><ele>524.0</ele><time>2026-05-02T09:28:41Z</time></trkpt><trkpt lat="42.27281840154858" lon="13.759784140182264"><ele>524.75</ele><time>2026-05-02T09:28:42Z</time></trkpt><trkpt lat="42.27271200014637" lon="13.759739255826757"><ele>525.5</ele><time>2026-05-02T09:28:43Z</time></trkpt><trkpt lat="42.27260081103188" lon="13.75968328444531"><ele>526.25</ele><time>2026-05-02T09:28:44Z</time></trkpt><trkpt lat="42.27247483347865" lon="13.759623615826419"><ele>527.0</ele><time>2026-05-02T09:28:45Z</time></trkpt><trkpt lat="42.272344494109255" lon="13.759564583140094"><ele>527.4</ele><time>2026-05-02T09:28:46Z</time></trkpt><trkpt lat="42.27222300313462" lon="13.759509986677822"><ele>527.8000000000001</ele><time>2026-05-02T09:28:47Z</time></trkpt><trkpt lat="42.27212144301894" lon="13.759457620060484"><ele>528.2</ele><time>2026-05-02T09:28:48Z</time></trkpt><trkpt lat="42.272035946192034" lon="13.7593965223876"><ele>528.6</ele><time>2026-05-02T09:28:49Z</time></trkpt><trkpt lat="42.271978278217375" lon="13.759322279607629"><ele>529.0</ele><time>2026-05-02T09:28:50Z</time></trkpt><trkpt lat="42.27194174292297" lon="13.759220955244514"><ele>529.8</ele><time>2026-05-02T09:28:51Z</time></trkpt><trkpt lat="42.27192264973077" lon="13.759102383555508"><ele>530.5999999999999</ele><time>2026-05-02T09:28:52Z</time></trkpt><trkpt lat="42.271883888002755" lon="13.758984300592058"><ele>531.4</ele><time>2026-05-02T09:28:53Z</time></trkpt><trkpt lat="42.27180628449928" lon="13.75890603926386"><ele>532.1999999999999</ele><time>2026-05-02T09:28:54Z</time></trkpt><trkpt lat="42.27171301209817" lon="13.758827284902857"><ele>533.0</ele><time>2026-05-02T09:28:55Z</time></trkpt><trkpt lat="42.27159540851936" lon="13.758771461304109"><ele>533.0</ele><time>2026-05-02T09:28:56Z</time></trkpt><trkpt lat="42.27147365165634" lon="13.758730386528853"><ele>533.0</ele><time>2026-05-02T09:28:57Z</time></trkpt><trkpt lat="42.27134709112266" lon="13.758703946022518"><ele>533.0</ele><time>2026-05-02T09:28:58Z</time></trkpt><trkpt lat="42.27121691657018" lon="13.758691713767782"><ele>533.0</ele><time>2026-05-02T09:28:59Z</time></trkpt><trkpt lat="42.27108712548513" lon="13.75868483306281"><ele>532.5</ele><time>2026-05-02T09:29:00Z</time></trkpt><trkpt lat="42.27096171748373" lon="13.75868167602398"><ele>532.0</ele><time>2026-05-02T09:29:01Z</time></trkpt><trkpt lat="42.27083868154329" lon="13.758681676023434"><ele>531.5</ele><time>2026-05-02T09:29:02Z</time></trkpt><trkpt lat="42.27072058619761" lon="13.758686013164265"><ele>531.0</ele><time>2026-05-02T09:29:03Z</time></trkpt><trkpt lat="42.270611057414605" lon="13.758693212163152"><ele>531.1666666666666</ele><time>2026-05-02T09:29:04Z</time></trkpt><trkpt lat="42.27051333676819" lon="13.758702464928561"><ele>531.3333333333334</ele><time>2026-05-02T09:29:05Z</time></trkpt><trkpt lat="42.270420475262235" lon="13.75871309088793"><ele>531.5</ele><time>2026-05-02T09:29:06Z</time></trkpt><trkpt lat="42.270335652617916" lon="13.758724167385532"><ele>531.6666666666667</ele><time>2026-05-02T09:29:07Z</time></trkpt><trkpt lat="42.270256798928614" lon="13.758735121561209"><ele>531.8333333333334</ele><time>2026-05-02T09:29:08Z</time></trkpt><trkpt lat="42.27017624020051" lon="13.758750361537574"><ele>532.0</ele><time>2026-05-02T09:29:09Z</time></trkpt><trkpt lat="42.27009262198914" lon="13.758769162092092"><ele>532.0</ele><time>2026-05-02T09:29:10Z</time></trkpt><trkpt lat="42.27000853254843" lon="13.758793589209859"><ele>532.0</ele><time>2026-05-02T09:29:11Z</time></trkpt><trkpt lat="42.26991997659112" lon="13.758822382848784"><ele>532.0</ele><time>2026-05-02T09:29:12Z</time></trkpt><trkpt lat="42.26982748847333" lon="13.758856054674848"><ele>532.0</ele><time>2026-05-02T09:29:13Z</time></trkpt><trkpt lat="42.269735639746706" lon="13.758892662436757"><ele>532.0</ele><time>2026-05-02T09:29:14Z</time></trkpt><trkpt lat="42.269642005322396" lon="13.758937715271875"><ele>532.2</ele><time>2026-05-02T09:29:15Z</time></trkpt><trkpt lat="42.26955181552946" lon="13.758993215425972"><ele>532.4000000000001</ele><time>2026-05-02T09:29:16Z</time></trkpt><trkpt lat="42.269464928838374" lon="13.759047454409131"><ele>532.5999999999999</ele><time>2026-05-02T09:29:17Z</time></trkpt><trkpt lat="42.26937747908418" lon="13.759092163725484"><ele>532.8</ele><time>2026-05-02T09:29:18Z</time></trkpt><trkpt lat="42.269291833583154" lon="13.759128820313093"><ele>533.0</ele><time>2026-05-02T09:29:19Z</time></trkpt><trkpt lat="42.26920678044381" lon="13.759164188460455"><ele>533.0</ele><time>2026-05-02T09:29:20Z</time></trkpt><trkpt lat="42.26912749722614" lon="13.759197178176516"><ele>533.0</ele><time>2026-05-02T09:29:21Z</time></trkpt><trkpt lat="42.26905090082942" lon="13.75922906364787"><ele>533.0</ele><time>2026-05-02T09:29:22Z</time></trkpt><trkpt lat="42.2689717759265" lon="13.759263268118076"><ele>533.0</ele><time>2026-05-02T09:29:23Z</time></trkpt><trkpt lat="42.268898370268026" lon="13.759295086570962"><ele>533.0</ele><time>2026-05-02T09:29:24Z</time></trkpt><trkpt lat="42.26880839154642" lon="13.759358953814894"><ele>533.0</ele><time>2026-05-02T09:29:26Z</time></trkpt><trkpt lat="42.26885323963404" lon="13.759532366770749"><ele>533.8333333333333</ele><time>2026-05-02T09:29:31Z</time></trkpt><trkpt lat="42.26888429380149" lon="13.75962817727846"><ele>534.6666666666666</ele><time>2026-05-02T09:29:33Z</time></trkpt><trkpt lat="42.26888053367431" lon="13.759713401726273"><ele>535.5</ele><time>2026-05-02T09:29:35Z</time></trkpt><trkpt lat="42.26887114570221" lon="13.759815380552782"><ele>536.3333333333334</ele><time>2026-05-02T09:29:37Z</time></trkpt><trkpt lat="42.26884719692461" lon="13.759900007698347"><ele>537.1666666666667</ele><time>2026-05-02T09:29:38Z</time></trkpt><trkpt lat="42.26881719805753" lon="13.76000086780354"><ele>538.0</ele><time>2026-05-02T09:29:39Z</time></trkpt><trkpt lat="42.2687854404" lon="13.760119449133398"><ele>537.8</ele><time>2026-05-02T09:29:40Z</time></trkpt><trkpt lat="42.26875259108857" lon="13.760246213739878"><ele>537.5999999999999</ele><time>2026-05-02T09:29:41Z</time></trkpt><trkpt lat="42.268718161234546" lon="13.760369811618673"><ele>537.4000000000001</ele><time>2026-05-02T09:29:42Z</time></trkpt><trkpt lat="42.26868183969573" lon="13.760494551224284"><ele>537.2</ele><time>2026-05-02T09:29:43Z</time></trkpt><trkpt lat="42.26865103762017" lon="13.760598793406055"><ele>537.0</ele><time>2026-05-02T09:29:44Z</time></trkpt><trkpt lat="42.26861734821388" lon="13.76071993078681"><ele>537.0</ele><time>2026-05-02T09:29:46Z</time></trkpt><trkpt lat="42.268583071336415" lon="13.760821868472574"><ele>537.0</ele><time>2026-05-02T09:29:48Z</time></trkpt><trkpt lat="42.26855565610433" lon="13.760925906851115"><ele>537.0</ele><time>2026-05-02T09:29:51Z</time></trkpt><trkpt lat="42.2687193983515" lon="13.761145496779655"><ele>537.0</ele><time>2026-05-02T09:29:56Z</time></trkpt><trkpt lat="42.26868801840107" lon="13.760559142564235"><ele>537.0</ele><time>2026-05-02T09:29:59Z</time></trkpt><trkpt lat="42.26871402861626" lon="13.760477127325505"><ele>537.0</ele><time>2026-05-02T09:30:00Z</time></trkpt><trkpt lat="42.26874387692939" lon="13.760374495310526"><ele>537.0</ele><time>2026-05-02T09:30:02Z</time></trkpt><trkpt lat="42.26877334603352" lon="13.760261249033695"><ele>537.0</ele><time>2026-05-02T09:30:05Z</time></trkpt><trkpt lat="42.26879479524742" lon="13.760161324555277"><ele>537.0</ele><time>2026-05-02T09:30:07Z</time></trkpt><trkpt lat="42.268825873555905" lon="13.760057917010338"><ele>537.0</ele><time>2026-05-02T09:30:09Z</time></trkpt><trkpt lat="42.268850076260385" lon="13.759947090243971"><ele>537.2</ele><time>2026-05-02T09:30:11Z</time></trkpt><trkpt lat="42.26888642385118" lon="13.759835902318878"><ele>537.4000000000001</ele><time>2026-05-02T09:30:13Z</time></trkpt><trkpt lat="42.2689447589209" lon="13.759726831079945"><ele>537.5999999999999</ele><time>2026-05-02T09:30:15Z</time></trkpt><trkpt lat="42.26896904189396" lon="13.759597846643908"><ele>537.8</ele><time>2026-05-02T09:30:17Z</time></trkpt><trkpt lat="42.26898135191729" lon="13.759484772000675"><ele>538.0</ele><time>2026-05-02T09:30:19Z</time></trkpt><trkpt lat="42.268762264440866" lon="13.759357684282337"><ele>538.0</ele><time>2026-05-02T09:30:23Z</time></trkpt><trkpt lat="42.26869889517545" lon="13.759358157287009"><ele>538.0</ele><time>2026-05-02T09:30:25Z</time></trkpt><trkpt lat="42.26865363501714" lon="13.759419202351188"><ele>538.0</ele><time>2026-05-02T09:30:26Z</time></trkpt><trkpt lat="42.26859110138275" lon="13.759376495409576"><ele>538.0</ele><time>2026-05-02T09:30:28Z</time></trkpt><trkpt lat="42.26853414212021" lon="13.75975513762567"><ele>538.0</ele><time>2026-05-02T09:30:30Z</time></trkpt><trkpt lat="42.26850438456598" lon="13.759831001281016"><ele>538.0</ele><time>2026-05-02T09:30:31Z</time></trkpt><trkpt lat="42.26844119882156" lon="13.759958317593332"><ele>538.0</ele><time>2026-05-02T09:30:33Z</time></trkpt><trkpt lat="42.26836923999889" lon="13.760087742015958"><ele>538.0</ele><time>2026-05-02T09:30:35Z</time></trkpt><trkpt lat="42.268324351113534" lon="13.76016159889563"><ele>538.0</ele><time>2026-05-02T09:30:36Z</time></trkpt><trkpt lat="42.2682784421201" lon="13.760228841200371"><ele>538.0</ele><time>2026-05-02T09:30:37Z</time></trkpt><trkpt lat="42.26822611634006" lon="13.760301776590893"><ele>537.8333333333334</ele><time>2026-05-02T09:30:38Z</time></trkpt><trkpt lat="42.26816189988958" lon="13.760385435691859"><ele>537.6666666666667</ele><time>2026-05-02T09:30:39Z</time></trkpt><trkpt lat="42.268096694382514" lon="13.76046967194947"><ele>537.5</ele><time>2026-05-02T09:30:40Z</time></trkpt><trkpt lat="42.268027207909995" lon="13.760552833156934"><ele>537.3333333333334</ele><time>2026-05-02T09:30:41Z</time></trkpt><trkpt lat="42.26795675313755" lon="13.760635920210852"><ele>537.1666666666666</ele><time>2026-05-02T09:30:42Z</time></trkpt><trkpt lat="42.26789507681992" lon="13.760708832307087"><ele>537.0</ele><time>2026-05-02T09:30:43Z</time></trkpt><trkpt lat="42.267840614832515" lon="13.760771567314046"><ele>537.6666666666666</ele><time>2026-05-02T09:30:44Z</time></trkpt><trkpt lat="42.26778882460532" lon="13.760840591082683"><ele>538.3333333333334</ele><time>2026-05-02T09:30:45Z</time></trkpt><trkpt lat="42.26773130103788" lon="13.760921141096404"><ele>539.0</ele><time>2026-05-02T09:30:46Z</time></trkpt><trkpt lat="42.26767244502095" lon="13.760999403194647"><ele>539.6666666666667</ele><time>2026-05-02T09:30:47Z</time></trkpt><trkpt lat="42.2676151998068" lon="13.76108177940532"><ele>540.3333333333334</ele><time>2026-05-02T09:30:48Z</time></trkpt><trkpt lat="42.26756850222005" lon="13.76116065729548"><ele>541.0</ele><time>2026-05-02T09:30:49Z</time></trkpt><trkpt lat="42.267523005361" lon="13.761249162250463"><ele>541.0</ele><time>2026-05-02T09:30:50Z</time></trkpt><trkpt lat="42.26747780736977" lon="13.761335963918249"><ele>541.0</ele><time>2026-05-02T09:30:51Z</time></trkpt><trkpt lat="42.267431621892364" lon="13.761423401509688"><ele>541.0</ele><time>2026-05-02T09:30:52Z</time></trkpt><trkpt lat="42.26737904563143" lon="13.761508111208837"><ele>541.0</ele><time>2026-05-02T09:30:53Z</time></trkpt><trkpt lat="42.267321794156636" lon="13.761576178736483"><ele>541.0</ele><time>2026-05-02T09:30:54Z</time></trkpt><trkpt lat="42.267253712071465" lon="13.761628830115546"><ele>541.0</ele><time>2026-05-02T09:30:55Z</time></trkpt><trkpt lat="42.26718485901313" lon="13.761665897196268"><ele>540.8</ele><time>2026-05-02T09:30:56Z</time></trkpt><trkpt lat="42.26712448735317" lon="13.761711122742831"><ele>540.6</ele><time>2026-05-02T09:30:57Z</time></trkpt><trkpt lat="42.26702434849012" lon="13.761789321624581"><ele>540.4</ele><time>2026-05-02T09:30:59Z</time></trkpt><trkpt lat="42.26694170489831" lon="13.761816325691266"><ele>540.2</ele><time>2026-05-02T09:31:01Z</time></trkpt><trkpt lat="42.266865452052926" lon="13.761812224384546"><ele>540.0</ele><time>2026-05-02T09:31:03Z</time></trkpt><trkpt lat="42.26677984842299" lon="13.761906172823828"><ele>541.6</ele><time>2026-05-02T09:31:05Z</time></trkpt><trkpt lat="42.26668466213338" lon="13.762000873656435"><ele>543.2</ele><time>2026-05-02T09:31:08Z</time></trkpt><trkpt lat="42.26662375533523" lon="13.762058174382235"><ele>544.8</ele><time>2026-05-02T09:31:09Z</time></trkpt><trkpt lat="42.26653649326604" lon="13.76211546606179"><ele>546.4</ele><time>2026-05-02T09:31:10Z</time></trkpt><trkpt lat="42.26644382085453" lon="13.76215719613583"><ele>548.0</ele><time>2026-05-02T09:31:11Z</time></trkpt><trkpt lat="42.26635930686069" lon="13.762144501931273"><ele>548.0</ele><time>2026-05-02T09:31:12Z</time></trkpt><trkpt lat="42.26626473622844" lon="13.762156757433482"><ele>548.0</ele><time>2026-05-02T09:31:14Z</time></trkpt><trkpt lat="42.26636496153188" lon="13.762147009633269"><ele>548.0</ele><time>2026-05-02T09:31:22Z</time></trkpt><trkpt lat="42.26643990290103" lon="13.762166378423146"><ele>548.0</ele><time>2026-05-02T09:31:23Z</time></trkpt><trkpt lat="42.26650487050618" lon="13.762140728995748"><ele>548.0</ele><time>2026-05-02T09:31:24Z</time></trkpt><trkpt lat="42.26660858748358" lon="13.762101199322876"><ele>548.0</ele><time>2026-05-02T09:31:26Z</time></trkpt><trkpt lat="42.2666788117542" lon="13.762048033196045"><ele>548.0</ele><time>2026-05-02T09:31:28Z</time></trkpt><trkpt lat="42.26675830607328" lon="13.762028289574598"><ele>548.0</ele><time>2026-05-02T09:31:31Z</time></trkpt><trkpt lat="42.26680353230875" lon="13.762111666763106"><ele>548.0</ele><time>2026-05-02T09:31:33Z</time></trkpt><trkpt lat="42.26677242748081" lon="13.762210004486644"><ele>548.0</ele><time>2026-05-02T09:31:36Z</time></trkpt><trkpt lat="42.26672168366949" lon="13.762315581580788"><ele>548.0</ele><time>2026-05-02T09:31:38Z</time></trkpt><trkpt lat="42.266656787206514" lon="13.762450291535556"><ele>548.0</ele><time>2026-05-02T09:31:40Z</time></trkpt><trkpt lat="42.26660174361839" lon="13.762539093626856"><ele>548.0</ele><time>2026-05-02T09:31:41Z</time></trkpt><trkpt lat="42.266521762055774" lon="13.762608985979893"><ele>548.0</ele><time>2026-05-02T09:31:42Z</time></trkpt><trkpt lat="42.26642268178237" lon="13.76266998222801"><ele>548.0</ele><time>2026-05-02T09:31:43Z</time></trkpt><trkpt lat="42.26633192925784" lon="13.762780790412254"><ele>548.0</ele><time>2026-05-02T09:31:44Z</time></trkpt><trkpt lat="42.266266842793534" lon="13.762892652542696"><ele>548.0</ele><time>2026-05-02T09:31:45Z</time></trkpt><trkpt lat="42.266187454347225" lon="13.762961800753484"><ele>549.4</ele><time>2026-05-02T09:31:46Z</time></trkpt><trkpt lat="42.26610321821647" lon="13.763010230670444"><ele>550.8</ele><time>2026-05-02T09:31:47Z</time></trkpt><trkpt lat="42.26600940584769" lon="13.763048247428658"><ele>552.2</ele><time>2026-05-02T09:31:48Z</time></trkpt><trkpt lat="42.26590181849786" lon="13.763078001051838"><ele>553.6</ele><time>2026-05-02T09:31:49Z</time></trkpt><trkpt lat="42.26579072535152" lon="13.76309857206833"><ele>555.0</ele><time>2026-05-02T09:31:50Z</time></trkpt><trkpt lat="42.26567875013843" lon="13.763128538060803"><ele>556.6</ele><time>2026-05-02T09:31:51Z</time></trkpt><trkpt lat="42.26557462330304" lon="13.763182388266875"><ele>558.2</ele><time>2026-05-02T09:31:52Z</time></trkpt><trkpt lat="42.26547352083673" lon="13.76325382695546"><ele>559.8</ele><time>2026-05-02T09:31:53Z</time></trkpt><trkpt lat="42.265376646995946" lon="13.763319005847155"><ele>561.4</ele><time>2026-05-02T09:31:54Z</time></trkpt><trkpt lat="42.26527532292264" lon="13.76335015006016"><ele>563.0</ele><time>2026-05-02T09:31:55Z</time></trkpt><trkpt lat="42.26516771622177" lon="13.763344147416488"><ele>563.0</ele><time>2026-05-02T09:31:56Z</time></trkpt><trkpt lat="42.26505236471543" lon="13.763333856109773"><ele>563.0</ele><time>2026-05-02T09:31:57Z</time></trkpt><trkpt lat="42.26493532975443" lon="13.76332196088186"><ele>563.0</ele><time>2026-05-02T09:31:58Z</time></trkpt><trkpt lat="42.26482395792023" lon="13.763310641231708"><ele>563.0</ele><time>2026-05-02T09:31:59Z</time></trkpt><trkpt lat="42.264713212249646" lon="13.763303469024851"><ele>563.25</ele><time>2026-05-02T09:32:00Z</time></trkpt><trkpt lat="42.26459711331851" lon="13.76331845105845"><ele>563.5</ele><time>2026-05-02T09:32:01Z</time></trkpt><trkpt lat="42.26447967524182" lon="13.763360502307025"><ele>563.75</ele><time>2026-05-02T09:32:02Z</time></trkpt><trkpt lat="42.264361033581096" lon="13.763412658975819"><ele>564.0</ele><time>2026-05-02T09:32:03Z</time></trkpt><trkpt lat="42.26423603852213" lon="13.763476282578202"><ele>567.25</ele><time>2026-05-02T09:32:04Z</time></trkpt><trkpt lat="42.26410948941518" lon="13.763546354108371"><ele>570.5</ele><time>2026-05-02T09:32:05Z</time></trkpt><trkpt lat="42.263982708925525" lon="13.76362376867953"><ele>573.75</ele><time>2026-05-02T09:32:06Z</time></trkpt><trkpt lat="42.26385308821677" lon="13.763713484711237"><ele>577.0</ele><time>2026-05-02T09:32:07Z</time></trkpt><trkpt lat="42.26372910653265" lon="13.763808103473545"><ele>577.0</ele><time>2026-05-02T09:32:08Z</time></trkpt><trkpt lat="42.26360436538356" lon="13.76391120624668"><ele>577.0</ele><time>2026-05-02T09:32:09Z</time></trkpt><trkpt lat="42.26347483654276" lon="13.764021586688317"><ele>577.0</ele><time>2026-05-02T09:32:10Z</time></trkpt><trkpt lat="42.26333759500645" lon="13.764128207932108"><ele>577.0</ele><time>2026-05-02T09:32:11Z</time></trkpt><trkpt lat="42.26318886869357" lon="13.764229406813133"><ele>577.0</ele><time>2026-05-02T09:32:12Z</time></trkpt><trkpt lat="42.26304256596561" lon="13.76433387481633"><ele>577.0</ele><time>2026-05-02T09:32:13Z</time></trkpt><trkpt lat="42.26290638117689" lon="13.764428750243058"><ele>580.75</ele><time>2026-05-02T09:32:14Z</time></trkpt><trkpt lat="42.262785249448015" lon="13.76449940471023"><ele>584.5</ele><time>2026-05-02T09:32:15Z</time></trkpt><trkpt lat="42.26267454562744" lon="13.764554542337939"><ele>588.25</ele><time>2026-05-02T09:32:16Z</time></trkpt><trkpt lat="42.262563482455185" lon="13.764585508073532"><ele>592.0</ele><time>2026-05-02T09:32:17Z</time></trkpt><trkpt lat="42.26243891416105" lon="13.764601283523849"><ele>592.0</ele><time>2026-05-02T09:32:18Z</time></trkpt><trkpt lat="42.262306953427824" lon="13.76465168548547"><ele>592.0</ele><time>2026-05-02T09:32:19Z</time></trkpt><trkpt lat="42.26217201694827" lon="13.764699919921043"><ele>592.0</ele><time>2026-05-02T09:32:20Z</time></trkpt><trkpt lat="42.262032545591616" lon="13.764756260206141"><ele>592.0</ele><time>2026-05-02T09:32:21Z</time></trkpt><trkpt lat="42.26189214218308" lon="13.764819560012562"><ele>592.3333333333334</ele><time>2026-05-02T09:32:22Z</time></trkpt><trkpt lat="42.26175215691826" lon="13.764880474531688"><ele>592.6666666666666</ele><time>2026-05-02T09:32:23Z</time></trkpt><trkpt lat="42.261601332568816" lon="13.764918756485038"><ele>593.0</ele><time>2026-05-02T09:32:24Z</time></trkpt><trkpt lat="42.26144352281049" lon="13.764955394359852"><ele>591.0</ele><time>2026-05-02T09:32:25Z</time></trkpt><trkpt lat="42.261276719170446" lon="13.76498150096244"><ele>589.0</ele><time>2026-05-02T09:32:26Z</time></trkpt><trkpt lat="42.26111069425736" lon="13.765028198969778"><ele>587.0</ele><time>2026-05-02T09:32:27Z</time></trkpt><trkpt lat="42.26095187824916" lon="13.765088878386905"><ele>587.0</ele><time>2026-05-02T09:32:28Z</time></trkpt><trkpt lat="42.26079507570454" lon="13.765132233153025"><ele>587.0</ele><time>2026-05-02T09:32:29Z</time></trkpt><trkpt lat="42.260645750791106" lon="13.765195655768613"><ele>587.0</ele><time>2026-05-02T09:32:30Z</time></trkpt><trkpt lat="42.26049438686376" lon="13.765257218181862"><ele>595.0</ele><time>2026-05-02T09:32:31Z</time></trkpt><trkpt lat="42.26033782872751" lon="13.76528901807341"><ele>603.0</ele><time>2026-05-02T09:32:32Z</time></trkpt><trkpt lat="42.26018888715859" lon="13.765342221030325"><ele>611.0</ele><time>2026-05-02T09:32:33Z</time></trkpt><trkpt lat="42.26004326444708" lon="13.765407054306168"><ele>611.0</ele><time>2026-05-02T09:32:34Z</time></trkpt><trkpt lat="42.25991043847089" lon="13.765474837874486"><ele>611.0</ele><time>2026-05-02T09:32:35Z</time></trkpt><trkpt lat="42.25979782974048" lon="13.765531864340549"><ele>611.0</ele><time>2026-05-02T09:32:36Z</time></trkpt><trkpt lat="42.25968869898158" lon="13.765578379760008"><ele>611.0</ele><time>2026-05-02T09:32:37Z</time></trkpt><trkpt lat="42.25958233109031" lon="13.765606285678015"><ele>610.6</ele><time>2026-05-02T09:32:38Z</time></trkpt><trkpt lat="42.25948566698509" lon="13.765613462039077"><ele>610.2</ele><time>2026-05-02T09:32:39Z</time></trkpt><trkpt lat="42.25939257403214" lon="13.765592948511815"><ele>609.8</ele><time>2026-05-02T09:32:40Z</time></trkpt><trkpt lat="42.25929021947488" lon="13.76555791739813"><ele>609.4</ele><time>2026-05-02T09:32:41Z</time></trkpt><trkpt lat="42.25917746440412" lon="13.765514379699498"><ele>609.0</ele><time>2026-05-02T09:32:42Z</time></trkpt><trkpt lat="42.259058449365625" lon="13.76547777570857"><ele>608.75</ele><time>2026-05-02T09:32:43Z</time></trkpt><trkpt lat="42.258937336191266" lon="13.765448770991638"><ele>608.5</ele><time>2026-05-02T09:32:44Z</time></trkpt><trkpt lat="42.25882002696107" lon="13.765447561835847"><ele>608.25</ele><time>2026-05-02T09:32:45Z</time></trkpt><trkpt lat="42.25870176844784" lon="13.765423071133473"><ele>608.0</ele><time>2026-05-02T09:32:46Z</time></trkpt><trkpt lat="42.25858190677397" lon="13.765402627797815"><ele>608.0</ele><time>2026-05-02T09:32:47Z</time></trkpt><trkpt lat="42.258472672417334" lon="13.765387956188926"><ele>608.0</ele><time>2026-05-02T09:32:48Z</time></trkpt><trkpt lat="42.25838861983482" lon="13.765377373105744"><ele>608.0</ele><time>2026-05-02T09:32:49Z</time></trkpt><trkpt lat="42.2583144225045" lon="13.765360807578153"><ele>608.0</ele><time>2026-05-02T09:32:50Z</time></trkpt><trkpt lat="42.25823656119949" lon="13.76533752178708"><ele>608.0</ele><time>2026-05-02T09:32:51Z</time></trkpt><trkpt lat="42.25815052822362" lon="13.765306372395832"><ele>608.0</ele><time>2026-05-02T09:32:52Z</time></trkpt><trkpt lat="42.25805421988627" lon="13.765254741158415"><ele>610.0</ele><time>2026-05-02T09:32:53Z</time></trkpt><trkpt lat="42.257958686457584" lon="13.765161768191033"><ele>612.0</ele><time>2026-05-02T09:32:54Z</time></trkpt><trkpt lat="42.25785537846855" lon="13.765085822880565"><ele>614.0</ele><time>2026-05-02T09:32:55Z</time></trkpt><trkpt lat="42.25775272427925" lon="13.765021706008278"><ele>616.0</ele><time>2026-05-02T09:32:56Z</time></trkpt><trkpt lat="42.2576531919939" lon="13.76496956245096"><ele>616.0</ele><time>2026-05-02T09:32:57Z</time></trkpt><trkpt lat="42.257557629565" lon="13.764922895850134"><ele>616.0</ele><time>2026-05-02T09:32:58Z</time></trkpt><trkpt lat="42.25746635487629" lon="13.764881050392825"><ele>616.0</ele><time>2026-05-02T09:32:59Z</time></trkpt><trkpt lat="42.25738191417031" lon="13.764843715361177"><ele>616.0</ele><time>2026-05-02T09:33:00Z</time></trkpt><trkpt lat="42.257316512654654" lon="13.76481778461112"><ele>616.0</ele><time>2026-05-02T09:33:01Z</time></trkpt><trkpt lat="42.257221072135685" lon="13.764779943863859"><ele>616.6666666666667</ele><time>2026-05-02T09:33:03Z</time></trkpt><trkpt lat="42.25711421359506" lon="13.764750419089454"><ele>617.3333333333334</ele><time>2026-05-02T09:33:05Z</time></trkpt><trkpt lat="42.2570474747674" lon="13.764711366276886"><ele>618.0</ele><time>2026-05-02T09:33:06Z</time></trkpt><trkpt lat="42.25698155199085" lon="13.764674941461214"><ele>618.6666666666666</ele><time>2026-05-02T09:33:07Z</time></trkpt><trkpt lat="42.25691124362418" lon="13.764653514389948"><ele>619.3333333333333</ele><time>2026-05-02T09:33:08Z</time></trkpt><trkpt lat="42.25684134123186" lon="13.764664252462552"><ele>620.0</ele><time>2026-05-02T09:33:09Z</time></trkpt><trkpt lat="42.2567703146065" lon="13.764708326718006"><ele>620.0</ele><time>2026-05-02T09:33:10Z</time></trkpt><trkpt lat="42.256701292456185" lon="13.764746553112554"><ele>620.0</ele><time>2026-05-02T09:33:11Z</time></trkpt><trkpt lat="42.25661889622663" lon="13.764776258339724"><ele>620.0</ele><time>2026-05-02T09:33:13Z</time></trkpt><trkpt lat="42.25651507816174" lon="13.764797558245082"><ele>620.0</ele><time>2026-05-02T09:33:15Z</time></trkpt><trkpt lat="42.25645180038171" lon="13.76479988614207"><ele>620.0</ele><time>2026-05-02T09:33:16Z</time></trkpt><trkpt lat="42.25638566635842" lon="13.764790211936782"><ele>620.0</ele><time>2026-05-02T09:33:17Z</time></trkpt><trkpt lat="42.25627350603454" lon="13.764790589778917"><ele>621.6</ele><time>2026-05-02T09:33:19Z</time></trkpt><trkpt lat="42.25618214397493" lon="13.764810711013379"><ele>623.2</ele><time>2026-05-02T09:33:21Z</time></trkpt><trkpt lat="42.2560428911677" lon="13.764785258678726"><ele>624.8</ele><time>2026-05-02T09:33:23Z</time></trkpt><trkpt lat="42.255959682953545" lon="13.764759954699596"><ele>626.4</ele><time>2026-05-02T09:33:24Z</time></trkpt><trkpt lat="42.25587019415506" lon="13.764745805722313"><ele>628.0</ele><time>2026-05-02T09:33:25Z</time></trkpt><trkpt lat="42.255772335432354" lon="13.764736040627778"><ele>628.0</ele><time>2026-05-02T09:33:26Z</time></trkpt><trkpt lat="42.255679624893894" lon="13.76472514039374"><ele>628.0</ele><time>2026-05-02T09:33:27Z</time></trkpt><trkpt lat="42.25560140611217" lon="13.764715249728717"><ele>628.0</ele><time>2026-05-02T09:33:28Z</time></trkpt><trkpt lat="42.2555207757437" lon="13.764704023774465"><ele>628.0</ele><time>2026-05-02T09:33:29Z</time></trkpt><trkpt lat="42.25545029825115" lon="13.764692383789617"><ele>628.0</ele><time>2026-05-02T09:33:30Z</time></trkpt><trkpt lat="42.255375698957494" lon="13.764672181646672"><ele>628.0</ele><time>2026-05-02T09:33:31Z</time></trkpt><trkpt lat="42.255300915054" lon="13.764644951588869"><ele>628.8333333333334</ele><time>2026-05-02T09:33:32Z</time></trkpt><trkpt lat="42.255229344280735" lon="13.76460202664594"><ele>629.6666666666667</ele><time>2026-05-02T09:33:33Z</time></trkpt><trkpt lat="42.255162175667756" lon="13.764559152653398"><ele>630.5</ele><time>2026-05-02T09:33:34Z</time></trkpt><trkpt lat="42.25508852903477" lon="13.764534012941416"><ele>631.3333333333334</ele><time>2026-05-02T09:33:35Z</time></trkpt><trkpt lat="42.25501328453099" lon="13.764529308643422"><ele>632.1666666666666</ele><time>2026-05-02T09:33:36Z</time></trkpt><trkpt lat="42.25493906824613" lon="13.764555271436466"><ele>633.0</ele><time>2026-05-02T09:33:37Z</time></trkpt><trkpt lat="42.254869015355375" lon="13.764582610312985"><ele>633.0</ele><time>2026-05-02T09:33:38Z</time></trkpt><trkpt lat="42.25479160880807" lon="13.764596165273412"><ele>633.0</ele><time>2026-05-02T09:33:39Z</time></trkpt><trkpt lat="42.25471617732458" lon="13.76459265949772"><ele>633.0</ele><time>2026-05-02T09:33:40Z</time></trkpt><trkpt lat="42.254644565840245" lon="13.764569963171368"><ele>633.0</ele><time>2026-05-02T09:33:41Z</time></trkpt><trkpt lat="42.254570567697215" lon="13.764541249526037"><ele>633.0</ele><time>2026-05-02T09:33:42Z</time></trkpt><trkpt lat="42.25449935246334" lon="13.764515644943165"><ele>633.0</ele><time>2026-05-02T09:33:43Z</time></trkpt><trkpt lat="42.25442209477737" lon="13.764504640057712"><ele>634.8333333333334</ele><time>2026-05-02T09:33:44Z</time></trkpt><trkpt lat="42.254342129799234" lon="13.764505687116404"><ele>636.6666666666666</ele><time>2026-05-02T09:33:45Z</time></trkpt><trkpt lat="42.254258952200544" lon="13.764498958512148"><ele>638.5</ele><time>2026-05-02T09:33:46Z</time></trkpt><trkpt lat="42.25417868759923" lon="13.764496659051053"><ele>640.3333333333333</ele><time>2026-05-02T09:33:47Z</time></trkpt><trkpt lat="42.254099407363" lon="13.764490066225433"><ele>642.1666666666666</ele><time>2026-05-02T09:33:48Z</time></trkpt><trkpt lat="42.25403120872141" lon="13.764476203173686"><ele>644.0</ele><time>2026-05-02T09:33:49Z</time></trkpt><trkpt lat="42.25391294452954" lon="13.764434498753026"><ele>644.0</ele><time>2026-05-02T09:33:51Z</time></trkpt><trkpt lat="42.25384934660819" lon="13.764398848475713"><ele>644.0</ele><time>2026-05-02T09:33:52Z</time></trkpt><trkpt lat="42.25378724975159" lon="13.764361959381933"><ele>644.0</ele><time>2026-05-02T09:33:53Z</time></trkpt><trkpt lat="42.25372419825585" lon="13.76432932039494"><ele>644.0</ele><time>2026-05-02T09:33:54Z</time></trkpt><trkpt lat="42.253658101924266" lon="13.764291132058384"><ele>644.0</ele><time>2026-05-02T09:33:55Z</time></trkpt><trkpt lat="42.25359739376959" lon="13.764240697387155"><ele>644.0</ele><time>2026-05-02T09:33:56Z</time></trkpt><trkpt lat="42.25354982305168" lon="13.764175437763036"><ele>644.0</ele><time>2026-05-02T09:33:57Z</time></trkpt><trkpt lat="42.253508533534" lon="13.76409803829337"><ele>645.1666666666666</ele><time>2026-05-02T09:33:58Z</time></trkpt><trkpt lat="42.253459161974845" lon="13.764006472064247"><ele>646.3333333333333</ele><time>2026-05-02T09:33:59Z</time></trkpt><trkpt lat="42.25341223414062" lon="13.7639144612848"><ele>647.5</ele><time>2026-05-02T09:34:00Z</time></trkpt><trkpt lat="42.253365116341115" lon="13.763823367052002"><ele>648.6666666666666</ele><time>2026-05-02T09:34:01Z</time></trkpt><trkpt lat="42.25331469310127" lon="13.76374812999414"><ele>649.8333333333334</ele><time>2026-05-02T09:34:02Z</time></trkpt><trkpt lat="42.2532505571419" lon="13.763681528378374"><ele>651.0</ele><time>2026-05-02T09:34:03Z</time></trkpt><trkpt lat="42.25318074726863" lon="13.763626293795507"><ele>652.1666666666666</ele><time>2026-05-02T09:34:04Z</time></trkpt><trkpt lat="42.25310931786393" lon="13.7635848812575"><ele>653.3333333333334</ele><time>2026-05-02T09:34:05Z</time></trkpt><trkpt lat="42.2530319277204" lon="13.76355339072494"><ele>654.5</ele><time>2026-05-02T09:34:06Z</time></trkpt><trkpt lat="42.25295627596798" lon="13.763529672664745"><ele>655.6666666666667</ele><time>2026-05-02T09:34:07Z</time></trkpt><trkpt lat="42.25288237754148" lon="13.763506202573371"><ele>656.8333333333334</ele><time>2026-05-02T09:34:08Z</time></trkpt><trkpt lat="42.252801315394116" lon="13.763469963944551"><ele>658.0</ele><time>2026-05-02T09:34:09Z</time></trkpt><trkpt lat="42.25271359996457" lon="13.763451957993949"><ele>658.0</ele><time>2026-05-02T09:34:10Z</time></trkpt><trkpt lat="42.25262984053468" lon="13.76344231751297"><ele>658.0</ele><time>2026-05-02T09:34:11Z</time></trkpt><trkpt lat="42.25255904910835" lon="13.763435944045746"><ele>658.0</ele><time>2026-05-02T09:34:12Z</time></trkpt><trkpt lat="42.25244855864894" lon="13.763441001879114"><ele>658.0</ele><time>2026-05-02T09:34:14Z</time></trkpt><trkpt lat="42.25236657628782" lon="13.763374236967822"><ele>658.0</ele><time>2026-05-02T09:34:16Z</time></trkpt><trkpt lat="42.25224778924655" lon="13.763337582708246"><ele>657.4</ele><time>2026-05-02T09:34:18Z</time></trkpt><trkpt lat="42.25213467755748" lon="13.763282605414345"><ele>656.8</ele><time>2026-05-02T09:34:20Z</time></trkpt><trkpt lat="42.25201757640441" lon="13.763215601690655"><ele>656.2</ele><time>2026-05-02T09:34:22Z</time></trkpt><trkpt lat="42.25195659086032" lon="13.76317740783356"><ele>655.6</ele><time>2026-05-02T09:34:23Z</time></trkpt><trkpt lat="42.25189594272915" lon="13.763132129434442"><ele>655.0</ele><time>2026-05-02T09:34:24Z</time></trkpt><trkpt lat="42.2518397006451" lon="13.763074952987578"><ele>655.0</ele><time>2026-05-02T09:34:25Z</time></trkpt><trkpt lat="42.25177676304781" lon="13.763035213690813"><ele>655.0</ele><time>2026-05-02T09:34:26Z</time></trkpt><trkpt lat="42.25173046947575" lon="13.762959873943778"><ele>655.0</ele><time>2026-05-02T09:34:27Z</time></trkpt><trkpt lat="42.25168747693538" lon="13.762885030179431"><ele>655.0</ele><time>2026-05-02T09:34:28Z</time></trkpt><trkpt lat="42.25164032059167" lon="13.762809787598478"><ele>655.0</ele><time>2026-05-02T09:34:29Z</time></trkpt><trkpt lat="42.251584294703214" lon="13.762743904757084"><ele>655.0</ele><time>2026-05-02T09:34:30Z</time></trkpt><trkpt lat="42.25152607320641" lon="13.762690710421843"><ele>655.0</ele><time>2026-05-02T09:34:31Z</time></trkpt><trkpt lat="42.251455819690804" lon="13.762636041065997"><ele>657.5714285714286</ele><time>2026-05-02T09:34:32Z</time></trkpt><trkpt lat="42.25138544311273" lon="13.762573972792982"><ele>660.1428571428571</ele><time>2026-05-02T09:34:33Z</time></trkpt><trkpt lat="42.25131979844646" lon="13.76250980035479"><ele>662.7142857142858</ele><time>2026-05-02T09:34:34Z</time></trkpt><trkpt lat="42.25126109880131" lon="13.76245551942769"><ele>665.2857142857142</ele><time>2026-05-02T09:34:35Z</time></trkpt><trkpt lat="42.251198330263215" lon="13.762399871641783"><ele>667.8571428571428</ele><time>2026-05-02T09:34:36Z</time></trkpt><trkpt lat="42.25114373055796" lon="13.762356192385683"><ele>670.4285714285714</ele><time>2026-05-02T09:34:37Z</time></trkpt><trkpt lat="42.25108231459958" lon="13.762312152506471"><ele>673.0</ele><time>2026-05-02T09:34:38Z</time></trkpt><trkpt lat="42.25101306281889" lon="13.762274877896987"><ele>673.0</ele><time>2026-05-02T09:34:39Z</time></trkpt><trkpt lat="42.250945132789504" lon="13.762249796592666"><ele>673.0</ele><time>2026-05-02T09:34:40Z</time></trkpt><trkpt lat="42.25088042598437" lon="13.762228651633295"><ele>673.0</ele><time>2026-05-02T09:34:41Z</time></trkpt><trkpt lat="42.25076236501637" lon="13.762206040204827"><ele>673.0</ele><time>2026-05-02T09:34:43Z</time></trkpt><trkpt lat="42.25069965281951" lon="13.76222703212082"><ele>673.0</ele><time>2026-05-02T09:34:44Z</time></trkpt><trkpt lat="42.25063836165955" lon="13.762339614493628"><ele>673.0</ele><time>2026-05-02T09:34:46Z</time></trkpt><trkpt lat="42.250605732287276" lon="13.762490570844783"><ele>672.2</ele><time>2026-05-02T09:34:48Z</time></trkpt><trkpt lat="42.250536813465956" lon="13.762576986109007"><ele>671.4</ele><time>2026-05-02T09:34:50.001Z</time></trkpt><trkpt lat="42.25042964286896" lon="13.762651360847656"><ele>670.6</ele><time>2026-05-02T09:34:52.001Z</time></trkpt><trkpt lat="42.25030619195618" lon="13.762694716601699"><ele>669.8000000000001</ele><time>2026-05-02T09:34:54.001Z</time></trkpt><trkpt lat="42.25023575420507" lon="13.762714548355426"><ele>669.0</ele><time>2026-05-02T09:34:55.001Z</time></trkpt><trkpt lat="42.25016280930938" lon="13.76272408823905"><ele>669.0</ele><time>2026-05-02T09:34:56.001Z</time></trkpt><trkpt lat="42.25009044678758" lon="13.762734411762992"><ele>669.0</ele><time>2026-05-02T09:34:57.001Z</time></trkpt><trkpt lat="42.25002439615387" lon="13.762752316007242"><ele>669.0</ele><time>2026-05-02T09:34:58.001Z</time></trkpt><trkpt lat="42.24995595723712" lon="13.762774096948977"><ele>669.0</ele><time>2026-05-02T09:34:59.001Z</time></trkpt><trkpt lat="42.24988952130115" lon="13.762796192451294"><ele>669.0</ele><time>2026-05-02T09:35:00.001Z</time></trkpt><trkpt lat="42.24982263415196" lon="13.762822444297958"><ele>669.0</ele><time>2026-05-02T09:35:01.001Z</time></trkpt><trkpt lat="42.24975731737235" lon="13.762853286292685"><ele>669.0</ele><time>2026-05-02T09:35:02.001Z</time></trkpt><trkpt lat="42.249660515631845" lon="13.762922189246858"><ele>671.5</ele><time>2026-05-02T09:35:04.001Z</time></trkpt><trkpt lat="42.249563936732876" lon="13.763022246151957"><ele>674.0</ele><time>2026-05-02T09:35:06.001Z</time></trkpt><trkpt lat="42.24950159645834" lon="13.763087332299031"><ele>676.5</ele><time>2026-05-02T09:35:07.001Z</time></trkpt><trkpt lat="42.24944120227665" lon="13.763156185041495"><ele>679.0</ele><time>2026-05-02T09:35:08.001Z</time></trkpt><trkpt lat="42.249389226873205" lon="13.763215262133746"><ele>681.5</ele><time>2026-05-02T09:35:09.001Z</time></trkpt><trkpt lat="42.249329678650156" lon="13.763269549993662"><ele>684.0</ele><time>2026-05-02T09:35:10.001Z</time></trkpt><trkpt lat="42.249269163130656" lon="13.763316203985749"><ele>684.0</ele><time>2026-05-02T09:35:11.001Z</time></trkpt><trkpt lat="42.24920899494479" lon="13.763353192936169"><ele>684.0</ele><time>2026-05-02T09:35:12Z</time></trkpt><trkpt lat="42.24914164222707" lon="13.763384781913139"><ele>684.0</ele><time>2026-05-02T09:35:13Z</time></trkpt><trkpt lat="42.24906175978715" lon="13.763428885750413"><ele>684.0</ele><time>2026-05-02T09:35:14Z</time></trkpt><trkpt lat="42.24898256843209" lon="13.763475788972142"><ele>684.0</ele><time>2026-05-02T09:35:15Z</time></trkpt><trkpt lat="42.248909601600324" lon="13.763523177825927"><ele>684.0</ele><time>2026-05-02T09:35:16Z</time></trkpt><trkpt lat="42.24883595445441" lon="13.763569648493956"><ele>684.8000000000001</ele><time>2026-05-02T09:35:17Z</time></trkpt><trkpt lat="42.24876003800771" lon="13.763628599958633"><ele>685.6</ele><time>2026-05-02T09:35:18Z</time></trkpt><trkpt lat="42.248693352859895" lon="13.763691198875012"><ele>686.4</ele><time>2026-05-02T09:35:19Z</time></trkpt><trkpt lat="42.248632605709204" lon="13.763753841263544"><ele>687.2</ele><time>2026-05-02T09:35:20Z</time></trkpt><trkpt lat="42.24853069363169" lon="13.763868312293047"><ele>688.0</ele><time>2026-05-02T09:35:22Z</time></trkpt><trkpt lat="42.248471920790536" lon="13.76394053449019"><ele>688.0</ele><time>2026-05-02T09:35:23Z</time></trkpt><trkpt lat="42.24840168955945" lon="13.764019803022858"><ele>688.0</ele><time>2026-05-02T09:35:24Z</time></trkpt><trkpt lat="42.24832671379058" lon="13.764108525062008"><ele>688.0</ele><time>2026-05-02T09:35:25Z</time></trkpt><trkpt lat="42.24825719677415" lon="13.764183063837493"><ele>688.0</ele><time>2026-05-02T09:35:26Z</time></trkpt><trkpt lat="42.24819795118921" lon="13.764250455887959"><ele>688.0</ele><time>2026-05-02T09:35:27Z</time></trkpt><trkpt lat="42.24811522089861" lon="13.764341496636872"><ele>689.3333333333334</ele><time>2026-05-02T09:35:29Z</time></trkpt><trkpt lat="42.248042872412924" lon="13.764420696159842"><ele>690.6666666666667</ele><time>2026-05-02T09:35:31Z</time></trkpt><trkpt lat="42.24796124527784" lon="13.764511624672016"><ele>692.0</ele><time>2026-05-02T09:35:33Z</time></trkpt><trkpt lat="42.24791272788431" lon="13.764567332773767"><ele>693.3333333333334</ele><time>2026-05-02T09:35:34Z</time></trkpt><trkpt lat="42.2478592357386" lon="13.764630281090211"><ele>694.6666666666666</ele><time>2026-05-02T09:35:35Z</time></trkpt><trkpt lat="42.24780381551263" lon="13.764707316889615"><ele>696.0</ele><time>2026-05-02T09:35:36Z</time></trkpt><trkpt lat="42.247755869322724" lon="13.764797762325852"><ele>696.0</ele><time>2026-05-02T09:35:37Z</time></trkpt><trkpt lat="42.24772173837049" lon="13.764879104342878"><ele>696.0</ele><time>2026-05-02T09:35:38Z</time></trkpt><trkpt lat="42.24767273143493" lon="13.765011255514258"><ele>696.0</ele><time>2026-05-02T09:35:40Z</time></trkpt><trkpt lat="42.24762036545425" lon="13.76507577309736"><ele>696.0</ele><time>2026-05-02T09:35:42Z</time></trkpt><trkpt lat="42.24753349767776" lon="13.765164020070038"><ele>696.0</ele><time>2026-05-02T09:35:44Z</time></trkpt><trkpt lat="42.24742178016533" lon="13.765251187383717"><ele>696.3333333333334</ele><time>2026-05-02T09:35:46Z</time></trkpt><trkpt lat="42.247362052393406" lon="13.765296767671162"><ele>696.6666666666666</ele><time>2026-05-02T09:35:47Z</time></trkpt><trkpt lat="42.24729781487104" lon="13.765343832656706"><ele>697.0</ele><time>2026-05-02T09:35:48Z</time></trkpt><trkpt lat="42.24723800654563" lon="13.76537895087541"><ele>697.3333333333333</ele><time>2026-05-02T09:35:49Z</time></trkpt><trkpt lat="42.24718194538383" lon="13.765425725827527"><ele>697.6666666666666</ele><time>2026-05-02T09:35:50Z</time></trkpt><trkpt lat="42.24708128938183" lon="13.765449231688002"><ele>698.0</ele><time>2026-05-02T09:35:52Z</time></trkpt><trkpt lat="42.24696854584304" lon="13.765511871058138"><ele>700.3333333333333</ele><time>2026-05-02T09:35:54Z</time></trkpt><trkpt lat="42.246863374963" lon="13.765582192632756"><ele>702.6666666666666</ele><time>2026-05-02T09:35:56Z</time></trkpt><trkpt lat="42.246802469910776" lon="13.765634060259758"><ele>705.0</ele><time>2026-05-02T09:35:57Z</time></trkpt><trkpt lat="42.246734007719496" lon="13.765676091208572"><ele>707.3333333333334</ele><time>2026-05-02T09:35:58Z</time></trkpt><trkpt lat="42.246667319300144" lon="13.765737861821274"><ele>709.6666666666667</ele><time>2026-05-02T09:35:59Z</time></trkpt><trkpt lat="42.24660971314556" lon="13.765799460394934"><ele>712.0</ele><time>2026-05-02T09:36:00Z</time></trkpt><trkpt lat="42.24655051663732" lon="13.765846429334013"><ele>711.9999999999999</ele><time>2026-05-02T09:36:01Z</time></trkpt><trkpt lat="42.24649084410362" lon="13.76588290753133"><ele>712.0</ele><time>2026-05-02T09:36:02Z</time></trkpt><trkpt lat="42.246435680870505" lon="13.7659376701247"><ele>712.0</ele><time>2026-05-02T09:36:03Z</time></trkpt><trkpt lat="42.24639621383467" lon="13.766015569728719"><ele>712.0</ele><time>2026-05-02T09:36:04Z</time></trkpt><trkpt lat="42.246345780180064" lon="13.766099063803383"><ele>712.0</ele><time>2026-05-02T09:36:05Z</time></trkpt><trkpt lat="42.2463004469017" lon="13.766165949817523"><ele>711.9999999999999</ele><time>2026-05-02T09:36:06Z</time></trkpt><trkpt lat="42.24624844095389" lon="13.766249224626891"><ele>712.0</ele><time>2026-05-02T09:36:08Z</time></trkpt><trkpt lat="42.246170838233375" lon="13.766341988058272"><ele>714.0</ele><time>2026-05-02T09:36:12Z</time></trkpt><trkpt lat="42.246085047337" lon="13.766458925868537"><ele>716.0</ele><time>2026-05-02T09:36:14Z</time></trkpt><trkpt lat="42.24598684907627" lon="13.766544444850275"><ele>718.0</ele><time>2026-05-02T09:36:16Z</time></trkpt><trkpt lat="42.24588290023564" lon="13.76655265929363"><ele>720.0</ele><time>2026-05-02T09:36:18Z</time></trkpt><trkpt lat="42.245759448074274" lon="13.76657069820351"><ele>720.0</ele><time>2026-05-02T09:36:20Z</time></trkpt><trkpt lat="42.24569850664074" lon="13.766606629904256"><ele>720.0</ele><time>2026-05-02T09:36:21Z</time></trkpt><trkpt lat="42.24562789537941" lon="13.766633926792075"><ele>720.0</ele><time>2026-05-02T09:36:22Z</time></trkpt><trkpt lat="42.24555492201308" lon="13.766660730229118"><ele>720.0</ele><time>2026-05-02T09:36:23Z</time></trkpt><trkpt lat="42.24548177798672" lon="13.766700676151578"><ele>720.0</ele><time>2026-05-02T09:36:24Z</time></trkpt><trkpt lat="42.24542075734823" lon="13.766747755518054"><ele>720.0</ele><time>2026-05-02T09:36:25Z</time></trkpt><trkpt lat="42.24535953140092" lon="13.76678721225631"><ele>720.0</ele><time>2026-05-02T09:36:26Z</time></trkpt><trkpt lat="42.24526103566028" lon="13.7668486721109"><ele>719.8333333333334</ele><time>2026-05-02T09:36:28Z</time></trkpt><trkpt lat="42.24519776976269" lon="13.766856448532018"><ele>719.6666666666666</ele><time>2026-05-02T09:36:29Z</time></trkpt><trkpt lat="42.24511632350099" lon="13.766872740312447"><ele>719.5</ele><time>2026-05-02T09:36:30Z</time></trkpt><trkpt lat="42.245029918116046" lon="13.766895691334206"><ele>719.3333333333333</ele><time>2026-05-02T09:36:31Z</time></trkpt><trkpt lat="42.24494234978535" lon="13.766919426024637"><ele>719.1666666666666</ele><time>2026-05-02T09:36:32Z</time></trkpt><trkpt lat="42.24487689419052" lon="13.766938742743536"><ele>719.0</ele><time>2026-05-02T09:36:33Z</time></trkpt><trkpt lat="42.24481468476035" lon="13.766961600776481"><ele>720.6666666666666</ele><time>2026-05-02T09:36:34Z</time></trkpt><trkpt lat="42.24475012004202" lon="13.766990624535625"><ele>722.3333333333333</ele><time>2026-05-02T09:36:35Z</time></trkpt><trkpt lat="42.24463256282478" lon="13.767014518201046"><ele>724.0</ele><time>2026-05-02T09:36:37Z</time></trkpt><trkpt lat="42.24456441180216" lon="13.767043651011065"><ele>725.6666666666666</ele><time>2026-05-02T09:36:38Z</time></trkpt><trkpt lat="42.24449305567823" lon="13.767061760348257"><ele>727.3333333333334</ele><time>2026-05-02T09:36:39Z</time></trkpt><trkpt lat="42.24437569649923" lon="13.767076248767248"><ele>729.0</ele><time>2026-05-02T09:36:41Z</time></trkpt><trkpt lat="42.24431190753607" lon="13.767084276561112"><ele>729.0</ele><time>2026-05-02T09:36:42Z</time></trkpt><trkpt lat="42.24424240934492" lon="13.767089620445235"><ele>729.0</ele><time>2026-05-02T09:36:43Z</time></trkpt><trkpt lat="42.24417572738542" lon="13.76709439662434"><ele>729.0</ele><time>2026-05-02T09:36:44Z</time></trkpt><trkpt lat="42.24410233832866" lon="13.767107509187557"><ele>729.0</ele><time>2026-05-02T09:36:45Z</time></trkpt><trkpt lat="42.244031017512214" lon="13.767126796912121"><ele>729.0</ele><time>2026-05-02T09:36:46Z</time></trkpt><trkpt lat="42.24396672210982" lon="13.767153619866384"><ele>729.0</ele><time>2026-05-02T09:36:47Z</time></trkpt><trkpt lat="42.24384682186499" lon="13.767185145858507"><ele>731.5</ele><time>2026-05-02T09:36:49Z</time></trkpt><trkpt lat="42.243784370102674" lon="13.76721534508216"><ele>734.0</ele><time>2026-05-02T09:36:50Z</time></trkpt><trkpt lat="42.24372112487576" lon="13.767241326616036"><ele>736.5</ele><time>2026-05-02T09:36:51Z</time></trkpt><trkpt lat="42.24365731807196" lon="13.767264008997968"><ele>739.0</ele><time>2026-05-02T09:36:52Z</time></trkpt><trkpt lat="42.243539371690964" lon="13.767276629587409"><ele>741.5</ele><time>2026-05-02T09:36:54Z</time></trkpt><trkpt lat="42.243468490190615" lon="13.76727162146829"><ele>744.0</ele><time>2026-05-02T09:36:55Z</time></trkpt><trkpt lat="42.243398083885005" lon="13.767273808832227"><ele>744.0</ele><time>2026-05-02T09:36:56.001Z</time></trkpt><trkpt lat="42.24332823894428" lon="13.767292911259068"><ele>744.0</ele><time>2026-05-02T09:36:57.001Z</time></trkpt><trkpt lat="42.243257581154985" lon="13.767327022042744"><ele>744.0</ele><time>2026-05-02T09:36:58.001Z</time></trkpt><trkpt lat="42.24313574291758" lon="13.767361675080501"><ele>744.0</ele><time>2026-05-02T09:37:00.001Z</time></trkpt><trkpt lat="42.24305711985779" lon="13.767362034690374"><ele>744.0</ele><time>2026-05-02T09:37:01.001Z</time></trkpt><trkpt lat="42.24299168505792" lon="13.767368392870004"><ele>744.0</ele><time>2026-05-02T09:37:02.001Z</time></trkpt><trkpt lat="42.24291466783903" lon="13.76737243615158"><ele>746.1666666666666</ele><time>2026-05-02T09:37:03.001Z</time></trkpt><trkpt lat="42.242841936070064" lon="13.76737086120662"><ele>748.3333333333334</ele><time>2026-05-02T09:37:04.001Z</time></trkpt><trkpt lat="42.24276320240462" lon="13.767376810761583"><ele>750.5</ele><time>2026-05-02T09:37:05.001Z</time></trkpt><trkpt lat="42.24267983952589" lon="13.767394463841084"><ele>752.6666666666667</ele><time>2026-05-02T09:37:06.001Z</time></trkpt><trkpt lat="42.24260114213436" lon="13.767414720639172"><ele>754.8333333333334</ele><time>2026-05-02T09:37:07.001Z</time></trkpt><trkpt lat="42.242518066783816" lon="13.767438949142075"><ele>757.0</ele><time>2026-05-02T09:37:08.001Z</time></trkpt><trkpt lat="42.24244362389504" lon="13.76745502698288"><ele>757.0</ele><time>2026-05-02T09:37:09.001Z</time></trkpt><trkpt lat="42.2423725165129" lon="13.767481803020344"><ele>757.0</ele><time>2026-05-02T09:37:10.001Z</time></trkpt><trkpt lat="42.242308697330614" lon="13.767520681889849"><ele>757.0</ele><time>2026-05-02T09:37:11.001Z</time></trkpt><trkpt lat="42.242237856572764" lon="13.767538407760107"><ele>757.0</ele><time>2026-05-02T09:37:12.001Z</time></trkpt><trkpt lat="42.24215469800529" lon="13.767556658503526"><ele>757.0</ele><time>2026-05-02T09:37:13.001Z</time></trkpt><trkpt lat="42.242077123680296" lon="13.767587684407"><ele>757.0</ele><time>2026-05-02T09:37:14.001Z</time></trkpt><trkpt lat="42.24200310579352" lon="13.767635511647457"><ele>757.0</ele><time>2026-05-02T09:37:15.001Z</time></trkpt><trkpt lat="42.24192708533091" lon="13.767687854167912"><ele>757.0</ele><time>2026-05-02T09:37:16.001Z</time></trkpt><trkpt lat="42.24185261190304" lon="13.76773854604679"><ele>757.0</ele><time>2026-05-02T09:37:17.001Z</time></trkpt><trkpt lat="42.24179422672233" lon="13.767782305211925"><ele>757.0</ele><time>2026-05-02T09:37:18.001Z</time></trkpt><trkpt lat="42.241694354331045" lon="13.767875203751649"><ele>757.0</ele><time>2026-05-02T09:37:20.001Z</time></trkpt><trkpt lat="42.24163239504477" lon="13.767939018607791"><ele>757.0</ele><time>2026-05-02T09:37:21.001Z</time></trkpt><trkpt lat="42.241572640568165" lon="13.768003725161332"><ele>757.0</ele><time>2026-05-02T09:37:22.001Z</time></trkpt><trkpt lat="42.241511497568325" lon="13.768075161940008"><ele>757.0</ele><time>2026-05-02T09:37:23.001Z</time></trkpt><trkpt lat="42.24146367328852" lon="13.768153142790302"><ele>757.0</ele><time>2026-05-02T09:37:24.001Z</time></trkpt><trkpt lat="42.24141237732832" lon="13.768238218606298"><ele>757.0</ele><time>2026-05-02T09:37:25.001Z</time></trkpt><trkpt lat="42.24136094780799" lon="13.768326267720797"><ele>757.0</ele><time>2026-05-02T09:37:26.001Z</time></trkpt><trkpt lat="42.24131619670678" lon="13.768413632372223"><ele>757.0</ele><time>2026-05-02T09:37:27.001Z</time></trkpt><trkpt lat="42.241274391886066" lon="13.768478609278448"><ele>760.0</ele><time>2026-05-02T09:37:28.001Z</time></trkpt><trkpt lat="42.24118729025455" lon="13.76861156265951"><ele>763.0</ele><time>2026-05-02T09:37:30.001Z</time></trkpt><trkpt lat="42.24113638974756" lon="13.768681754109588"><ele>766.0</ele><time>2026-05-02T09:37:31.001Z</time></trkpt><trkpt lat="42.24108626340647" lon="13.768754723553457"><ele>769.0</ele><time>2026-05-02T09:37:32.001Z</time></trkpt><trkpt lat="42.24103744754281" lon="13.768828807218268"><ele>771.9999999999999</ele><time>2026-05-02T09:37:33.001Z</time></trkpt><trkpt lat="42.24098406577298" lon="13.768910409225363"><ele>775.0</ele><time>2026-05-02T09:37:34.001Z</time></trkpt><trkpt lat="42.24093128403878" lon="13.76900500471209"><ele>774.9999999999999</ele><time>2026-05-02T09:37:35.001Z</time></trkpt><trkpt lat="42.240892673769714" lon="13.769103035477341"><ele>775.0</ele><time>2026-05-02T09:37:36.001Z</time></trkpt><trkpt lat="42.24085297972479" lon="13.76919433058525"><ele>775.0</ele><time>2026-05-02T09:37:37.001Z</time></trkpt><trkpt lat="42.24080364836485" lon="13.769315628542936"><ele>775.0</ele><time>2026-05-02T09:37:39.001Z</time></trkpt><trkpt lat="42.24073933245256" lon="13.769355072426377"><ele>774.9999999999999</ele><time>2026-05-02T09:37:41.001Z</time></trkpt><trkpt lat="42.240649143269984" lon="13.769376704826612"><ele>775.0</ele><time>2026-05-02T09:37:43.001Z</time></trkpt><trkpt lat="42.240540440499664" lon="13.769362692989848"><ele>777.3333333333333</ele><time>2026-05-02T09:37:45.001Z</time></trkpt><trkpt lat="42.24042166580982" lon="13.769290157467683"><ele>779.6666666666666</ele><time>2026-05-02T09:37:47.001Z</time></trkpt><trkpt lat="42.24035064410664" lon="13.769250747504742"><ele>782.0</ele><time>2026-05-02T09:37:48.001Z</time></trkpt><trkpt lat="42.24026679784717" lon="13.769224241624899"><ele>784.3333333333333</ele><time>2026-05-02T09:37:49.001Z</time></trkpt><trkpt lat="42.240185463190215" lon="13.769217018714418"><ele>786.6666666666666</ele><time>2026-05-02T09:37:50.001Z</time></trkpt><trkpt lat="42.240111614532026" lon="13.769219349053445"><ele>789.0</ele><time>2026-05-02T09:37:51.001Z</time></trkpt><trkpt lat="42.2400190051544" lon="13.769210710468103"><ele>789.0</ele><time>2026-05-02T09:37:52.001Z</time></trkpt><trkpt lat="42.239928415212226" lon="13.769204636358428"><ele>789.0</ele><time>2026-05-02T09:37:53.001Z</time></trkpt><trkpt lat="42.239841285514046" lon="13.769200463785694"><ele>789.0</ele><time>2026-05-02T09:37:54.001Z</time></trkpt><trkpt lat="42.239753064824306" lon="13.769192981174594"><ele>789.0</ele><time>2026-05-02T09:37:55.001Z</time></trkpt><trkpt lat="42.23966780210464" lon="13.769182432085723"><ele>789.0</ele><time>2026-05-02T09:37:56.001Z</time></trkpt><trkpt lat="42.23959319823059" lon="13.769151788057854"><ele>789.0</ele><time>2026-05-02T09:37:57.001Z</time></trkpt><trkpt lat="42.23952510831585" lon="13.769113783943698"><ele>791.6666666666666</ele><time>2026-05-02T09:37:58.001Z</time></trkpt><trkpt lat="42.2394482673252" lon="13.769090266434777"><ele>794.3333333333333</ele><time>2026-05-02T09:37:59.001Z</time></trkpt><trkpt lat="42.23937811496484" lon="13.769092095913972"><ele>797.0</ele><time>2026-05-02T09:38:00.001Z</time></trkpt><trkpt lat="42.23931596091351" lon="13.769120120474536"><ele>799.6666666666666</ele><time>2026-05-02T09:38:01.001Z</time></trkpt><trkpt lat="42.239266228844365" lon="13.769177330933545"><ele>802.3333333333333</ele><time>2026-05-02T09:38:02.001Z</time></trkpt><trkpt lat="42.239224335442714" lon="13.769243033865866"><ele>805.0</ele><time>2026-05-02T09:38:03.001Z</time></trkpt><trkpt lat="42.2391181100913" lon="13.769334823213132"><ele>804.8</ele><time>2026-05-02T09:38:05.001Z</time></trkpt><trkpt lat="42.23900391722325" lon="13.769389065859976"><ele>804.6</ele><time>2026-05-02T09:38:07.001Z</time></trkpt><trkpt lat="42.23888430706721" lon="13.769416902136275"><ele>804.4000000000001</ele><time>2026-05-02T09:38:09Z</time></trkpt><trkpt lat="42.23881358840627" lon="13.769425531910375"><ele>804.2</ele><time>2026-05-02T09:38:10Z</time></trkpt><trkpt lat="42.23875034497239" lon="13.769436785241174"><ele>804.0</ele><time>2026-05-02T09:38:11Z</time></trkpt><trkpt lat="42.23862929077512" lon="13.769440919232975"><ele>804.0</ele><time>2026-05-02T09:38:13Z</time></trkpt><trkpt lat="42.23849278126823" lon="13.769459814179665"><ele>804.0</ele><time>2026-05-02T09:38:15Z</time></trkpt><trkpt lat="42.23842671607568" lon="13.769475526751647"><ele>804.0</ele><time>2026-05-02T09:38:16Z</time></trkpt><trkpt lat="42.23835264680231" lon="13.769502781752058"><ele>804.0</ele><time>2026-05-02T09:38:17Z</time></trkpt><trkpt lat="42.238275262864754" lon="13.769545646202708"><ele>804.0</ele><time>2026-05-02T09:38:18Z</time></trkpt><trkpt lat="42.23819711148348" lon="13.769580096636867"><ele>804.0</ele><time>2026-05-02T09:38:19Z</time></trkpt><trkpt lat="42.23811378197706" lon="13.769610350945529"><ele>806.8333333333334</ele><time>2026-05-02T09:38:20Z</time></trkpt><trkpt lat="42.23803470503783" lon="13.769645838649415"><ele>809.6666666666667</ele><time>2026-05-02T09:38:21Z</time></trkpt><trkpt lat="42.237960860045554" lon="13.769692348903108"><ele>812.5</ele><time>2026-05-02T09:38:22Z</time></trkpt><trkpt lat="42.237897330127275" lon="13.76974202595476"><ele>815.3333333333334</ele><time>2026-05-02T09:38:23Z</time></trkpt><trkpt lat="42.23783384602928" lon="13.76978463958916"><ele>818.1666666666667</ele><time>2026-05-02T09:38:24Z</time></trkpt><trkpt lat="42.2377691299583" lon="13.76982801353151"><ele>821.0</ele><time>2026-05-02T09:38:25Z</time></trkpt><trkpt lat="42.23770806762338" lon="13.7698697936475"><ele>821.0000000000001</ele><time>2026-05-02T09:38:26Z</time></trkpt><trkpt lat="42.23763695540316" lon="13.769902962371821"><ele>821.0</ele><time>2026-05-02T09:38:27Z</time></trkpt><trkpt lat="42.23755875503094" lon="13.769922940168827"><ele>821.0</ele><time>2026-05-02T09:38:28Z</time></trkpt><trkpt lat="42.23748280224045" lon="13.769932598762555"><ele>821.0</ele><time>2026-05-02T09:38:29Z</time></trkpt><trkpt lat="42.23741510422108" lon="13.769941953462366"><ele>821.0</ele><time>2026-05-02T09:38:30Z</time></trkpt><trkpt lat="42.237345123409405" lon="13.769948719846463"><ele>821.0000000000001</ele><time>2026-05-02T09:38:31Z</time></trkpt><trkpt lat="42.2372773573699" lon="13.769968637234292"><ele>821.0</ele><time>2026-05-02T09:38:32Z</time></trkpt><trkpt lat="42.23720783272467" lon="13.76999083800788"><ele>822.1666666666667</ele><time>2026-05-02T09:38:33Z</time></trkpt><trkpt lat="42.23713874649016" lon="13.770000566033971"><ele>823.3333333333334</ele><time>2026-05-02T09:38:34Z</time></trkpt><trkpt lat="42.23707389367737" lon="13.770043052251186"><ele>824.5</ele><time>2026-05-02T09:38:35Z</time></trkpt><trkpt lat="42.23701060224058" lon="13.770105703164889"><ele>825.6666666666667</ele><time>2026-05-02T09:38:36Z</time></trkpt><trkpt lat="42.236953996762495" lon="13.77017826249005"><ele>826.8333333333334</ele><time>2026-05-02T09:38:37Z</time></trkpt><trkpt lat="42.23687447473156" lon="13.770308016039266"><ele>828.0</ele><time>2026-05-02T09:38:39Z</time></trkpt><trkpt lat="42.236827318310915" lon="13.77036904325649"><ele>828.0</ele><time>2026-05-02T09:38:40Z</time></trkpt><trkpt lat="42.2367649936437" lon="13.770416737268647"><ele>828.0</ele><time>2026-05-02T09:38:41Z</time></trkpt><trkpt lat="42.2366960734301" lon="13.770458046203819"><ele>828.0</ele><time>2026-05-02T09:38:42Z</time></trkpt><trkpt lat="42.23662240635087" lon="13.770490688470208"><ele>828.0</ele><time>2026-05-02T09:38:43Z</time></trkpt><trkpt lat="42.2365466161822" lon="13.770516998409928"><ele>828.0</ele><time>2026-05-02T09:38:44Z</time></trkpt><trkpt lat="42.23647383566168" lon="13.770544502551088"><ele>828.0</ele><time>2026-05-02T09:38:45Z</time></trkpt><trkpt lat="42.23638087564868" lon="13.770564945636105"><ele>829.1666666666666</ele><time>2026-05-02T09:38:46Z</time></trkpt><trkpt lat="42.236290934677214" lon="13.770577217271036"><ele>830.3333333333333</ele><time>2026-05-02T09:38:47Z</time></trkpt><trkpt lat="42.2361944538163" lon="13.77059597122262"><ele>831.5</ele><time>2026-05-02T09:38:48Z</time></trkpt><trkpt lat="42.23610797320438" lon="13.77061626559484"><ele>832.6666666666666</ele><time>2026-05-02T09:38:49Z</time></trkpt><trkpt lat="42.23603473939879" lon="13.770641237280337"><ele>833.8333333333333</ele><time>2026-05-02T09:38:50Z</time></trkpt><trkpt lat="42.23596137502105" lon="13.77066602005329"><ele>835.0</ele><time>2026-05-02T09:38:51Z</time></trkpt><trkpt lat="42.23589982084361" lon="13.770704152544274"><ele>835.0</ele><time>2026-05-02T09:38:52Z</time></trkpt><trkpt lat="42.23584197502896" lon="13.77083424061456"><ele>835.0</ele><time>2026-05-02T09:38:54Z</time></trkpt><trkpt lat="42.23583535683896" lon="13.771008561002107"><ele>835.0</ele><time>2026-05-02T09:38:56Z</time></trkpt><trkpt lat="42.23585160932735" lon="13.771097813164822"><ele>835.0</ele><time>2026-05-02T09:38:57Z</time></trkpt><trkpt lat="42.23586999998482" lon="13.7711929405042"><ele>835.0</ele><time>2026-05-02T09:38:58Z</time></trkpt><trkpt lat="42.23588973255872" lon="13.771292732061694"><ele>834.8333333333333</ele><time>2026-05-02T09:38:59Z</time></trkpt><trkpt lat="42.23589816903965" lon="13.771392274342599"><ele>834.6666666666666</ele><time>2026-05-02T09:39:00Z</time></trkpt><trkpt lat="42.23590320694187" lon="13.77148889407105"><ele>834.5</ele><time>2026-05-02T09:39:01Z</time></trkpt><trkpt lat="42.23590888139218" lon="13.771581086410189"><ele>834.3333333333333</ele><time>2026-05-02T09:39:02.001Z</time></trkpt><trkpt lat="42.23591278587995" lon="13.771666209371343"><ele>834.1666666666666</ele><time>2026-05-02T09:39:03.001Z</time></trkpt><trkpt lat="42.23589977827545" lon="13.771799780754735"><ele>834.0</ele><time>2026-05-02T09:39:05.001Z</time></trkpt><trkpt lat="42.235857554611265" lon="13.77194721119642"><ele>834.0</ele><time>2026-05-02T09:39:07.001Z</time></trkpt><trkpt lat="42.23580746311166" lon="13.772087203597726"><ele>834.0</ele><time>2026-05-02T09:39:09.001Z</time></trkpt><trkpt lat="42.23571957266973" lon="13.772216724163094"><ele>834.0</ele><time>2026-05-02T09:39:11.001Z</time></trkpt><trkpt lat="42.23566982380851" lon="13.772293239958634"><ele>834.0</ele><time>2026-05-02T09:39:12.001Z</time></trkpt><trkpt lat="42.23561623638074" lon="13.772361484467536"><ele>834.0</ele><time>2026-05-02T09:39:13.001Z</time></trkpt><trkpt lat="42.23557674636441" lon="13.77242853550057"><ele>835.0</ele><time>2026-05-02T09:39:14.001Z</time></trkpt><trkpt lat="42.23551757363374" lon="13.772577330369492"><ele>836.0</ele><time>2026-05-02T09:39:16.001Z</time></trkpt><trkpt lat="42.23548419278226" lon="13.772652787478494"><ele>837.0</ele><time>2026-05-02T09:39:17.001Z</time></trkpt><trkpt lat="42.235442747812506" lon="13.772722113367852"><ele>838.0</ele><time>2026-05-02T09:39:18.001Z</time></trkpt><trkpt lat="42.2353917476235" lon="13.772789756463473"><ele>839.0</ele><time>2026-05-02T09:39:19.001Z</time></trkpt><trkpt lat="42.235326592357026" lon="13.772856314744207"><ele>840.0</ele><time>2026-05-02T09:39:20.001Z</time></trkpt><trkpt lat="42.23525121614122" lon="13.772921982960625"><ele>840.0</ele><time>2026-05-02T09:39:21.001Z</time></trkpt><trkpt lat="42.23517819781549" lon="13.773000111644727"><ele>840.0</ele><time>2026-05-02T09:39:22.001Z</time></trkpt><trkpt lat="42.23511733015725" lon="13.773091609418481"><ele>840.0</ele><time>2026-05-02T09:39:23.001Z</time></trkpt><trkpt lat="42.23506791982304" lon="13.773184182718996"><ele>840.0</ele><time>2026-05-02T09:39:24.001Z</time></trkpt><trkpt lat="42.23503106150304" lon="13.773305805804467"><ele>840.0</ele><time>2026-05-02T09:39:26.001Z</time></trkpt><trkpt lat="42.23502098167159" lon="13.773454918026701"><ele>840.8</ele><time>2026-05-02T09:39:28.001Z</time></trkpt><trkpt lat="42.235048094778016" lon="13.773615502743423"><ele>841.6</ele><time>2026-05-02T09:39:30.001Z</time></trkpt><trkpt lat="42.235066785507534" lon="13.773716085805189"><ele>842.4000000000001</ele><time>2026-05-02T09:39:31.001Z</time></trkpt><trkpt lat="42.23508796739733" lon="13.773813090883495"><ele>843.2</ele><time>2026-05-02T09:39:32.001Z</time></trkpt><trkpt lat="42.23514720752737" lon="13.77395481237738"><ele>844.0</ele><time>2026-05-02T09:39:34.001Z</time></trkpt><trkpt lat="42.23524971496134" lon="13.774075173616241"><ele>844.0</ele><time>2026-05-02T09:39:36.001Z</time></trkpt><trkpt lat="42.23531065961596" lon="13.774134145869645"><ele>844.0</ele><time>2026-05-02T09:39:37.001Z</time></trkpt><trkpt lat="42.23536128469182" lon="13.774190406621564"><ele>844.0</ele><time>2026-05-02T09:39:38.001Z</time></trkpt><trkpt lat="42.23542987879803" lon="13.77429739885867"><ele>844.0</ele><time>2026-05-02T09:39:40.001Z</time></trkpt><trkpt lat="42.23547132938342" lon="13.774464768613981"><ele>844.0</ele><time>2026-05-02T09:39:42.001Z</time></trkpt><trkpt lat="42.235489008280645" lon="13.7745675577283"><ele>843.6666666666666</ele><time>2026-05-02T09:39:43.001Z</time></trkpt><trkpt lat="42.23550448848994" lon="13.774678987503181"><ele>843.3333333333333</ele><time>2026-05-02T09:39:44.001Z</time></trkpt><trkpt lat="42.235524540663185" lon="13.774784396751969"><ele>843.0</ele><time>2026-05-02T09:39:45.001Z</time></trkpt><trkpt lat="42.23554401256567" lon="13.774893692903206"><ele>842.6666666666667</ele><time>2026-05-02T09:39:46.001Z</time></trkpt><trkpt lat="42.23555210613577" lon="13.77501548502343"><ele>842.3333333333334</ele><time>2026-05-02T09:39:47.001Z</time></trkpt><trkpt lat="42.235543537537296" lon="13.77513570991736"><ele>842.0</ele><time>2026-05-02T09:39:48.001Z</time></trkpt><trkpt lat="42.23552648869742" lon="13.775251374602524"><ele>842.0</ele><time>2026-05-02T09:39:49.001Z</time></trkpt><trkpt lat="42.23551122860235" lon="13.77534847676355"><ele>842.0</ele><time>2026-05-02T09:39:50.001Z</time></trkpt><trkpt lat="42.23549400577436" lon="13.775482831550676"><ele>842.0</ele><time>2026-05-02T09:39:52.001Z</time></trkpt><trkpt lat="42.23546094310698" lon="13.775609578593402"><ele>842.0</ele><time>2026-05-02T09:39:54.001Z</time></trkpt><trkpt lat="42.235400920054296" lon="13.775754854153918"><ele>842.0</ele><time>2026-05-02T09:39:56.001Z</time></trkpt><trkpt lat="42.235322782287895" lon="13.775874235519314"><ele>842.0000000000001</ele><time>2026-05-02T09:39:58.001Z</time></trkpt><trkpt lat="42.23522700735011" lon="13.775979260305357"><ele>842.0</ele><time>2026-05-02T09:40:00.001Z</time></trkpt><trkpt lat="42.23516550560624" lon="13.776020340434025"><ele>842.0</ele><time>2026-05-02T09:40:01.001Z</time></trkpt><trkpt lat="42.235100708833215" lon="13.776064902155195"><ele>842.0</ele><time>2026-05-02T09:40:02.001Z</time></trkpt><trkpt lat="42.23502447617304" lon="13.776100135438714"><ele>842.0000000000001</ele><time>2026-05-02T09:40:03.001Z</time></trkpt><trkpt lat="42.2349367494171" lon="13.776129186991978"><ele>842.0</ele><time>2026-05-02T09:40:04.001Z</time></trkpt><trkpt lat="42.234848945908446" lon="13.776146036403418"><ele>843.6666666666667</ele><time>2026-05-02T09:40:05.001Z</time></trkpt><trkpt lat="42.234760433735055" lon="13.776170859771886"><ele>845.3333333333334</ele><time>2026-05-02T09:40:06.001Z</time></trkpt><trkpt lat="42.23467303348954" lon="13.776198086325943"><ele>847.0</ele><time>2026-05-02T09:40:07.001Z</time></trkpt><trkpt lat="42.234598341875916" lon="13.77621772938766"><ele>848.6666666666667</ele><time>2026-05-02T09:40:08.001Z</time></trkpt><trkpt lat="42.234531869172" lon="13.776229531536972"><ele>850.3333333333334</ele><time>2026-05-02T09:40:09.001Z</time></trkpt><trkpt lat="42.23442911522553" lon="13.776287746527322"><ele>852.0</ele><time>2026-05-02T09:40:11.001Z</time></trkpt><trkpt lat="42.2343747730854" lon="13.77641875626613"><ele>852.0</ele><time>2026-05-02T09:40:13.001Z</time></trkpt><trkpt lat="42.234391100845905" lon="13.776581284603349"><ele>852.0</ele><time>2026-05-02T09:40:15.001Z</time></trkpt><trkpt lat="42.23442827475705" lon="13.776654187284425"><ele>852.0</ele><time>2026-05-02T09:40:16.001Z</time></trkpt><trkpt lat="42.23448002831293" lon="13.776730440730738"><ele>852.0</ele><time>2026-05-02T09:40:17.001Z</time></trkpt><trkpt lat="42.234522980435" lon="13.776804379683982"><ele>852.0</ele><time>2026-05-02T09:40:18.001Z</time></trkpt><trkpt lat="42.23456208039293" lon="13.77687498086745"><ele>852.0</ele><time>2026-05-02T09:40:19.001Z</time></trkpt><trkpt lat="42.23460066449898" lon="13.776957253939015"><ele>852.8571428571428</ele><time>2026-05-02T09:40:20.001Z</time></trkpt><trkpt lat="42.23464085020651" lon="13.77705229906173"><ele>853.7142857142857</ele><time>2026-05-02T09:40:21.001Z</time></trkpt><trkpt lat="42.234685927167554" lon="13.777135683810737"><ele>854.5714285714286</ele><time>2026-05-02T09:40:22.001Z</time></trkpt><trkpt lat="42.234740478250394" lon="13.777208376419143"><ele>855.4285714285713</ele><time>2026-05-02T09:40:23.001Z</time></trkpt><trkpt lat="42.234795552480826" lon="13.77727001649857"><ele>856.2857142857143</ele><time>2026-05-02T09:40:24.001Z</time></trkpt><trkpt lat="42.234851811045274" lon="13.777332853745524"><ele>857.1428571428571</ele><time>2026-05-02T09:40:25.001Z</time></trkpt><trkpt lat="42.23490122201808" lon="13.777396576608782"><ele>858.0</ele><time>2026-05-02T09:40:26.001Z</time></trkpt><trkpt lat="42.23495326544954" lon="13.777465844013165"><ele>856.4</ele><time>2026-05-02T09:40:27.001Z</time></trkpt><trkpt lat="42.2350122041501" lon="13.777548936070492"><ele>854.8</ele><time>2026-05-02T09:40:28.001Z</time></trkpt><trkpt lat="42.23507662938031" lon="13.777634120251415"><ele>853.2</ele><time>2026-05-02T09:40:29Z</time></trkpt><trkpt lat="42.23514344017282" lon="13.777723876185716"><ele>851.6</ele><time>2026-05-02T09:40:30Z</time></trkpt><trkpt lat="42.235193993854445" lon="13.77779189171395"><ele>850.0</ele><time>2026-05-02T09:40:31Z</time></trkpt><trkpt lat="42.23527038303903" lon="13.777938870517419"><ele>850.0</ele><time>2026-05-02T09:40:33Z</time></trkpt><trkpt lat="42.235299995700366" lon="13.77802238941118"><ele>850.0</ele><time>2026-05-02T09:40:34Z</time></trkpt><trkpt lat="42.23532589500099" lon="13.778173365929865"><ele>850.0</ele><time>2026-05-02T09:40:36Z</time></trkpt><trkpt lat="42.23532689796357" lon="13.77825855969774"><ele>850.0</ele><time>2026-05-02T09:40:37Z</time></trkpt><trkpt lat="42.235324512404866" lon="13.7784180363217"><ele>850.0</ele><time>2026-05-02T09:40:39Z</time></trkpt><trkpt lat="42.23530880470023" lon="13.77857569581621"><ele>849.8</ele><time>2026-05-02T09:40:41Z</time></trkpt><trkpt lat="42.235270650709296" lon="13.778712514981892"><ele>849.6</ele><time>2026-05-02T09:40:43Z</time></trkpt><trkpt lat="42.23522009018013" lon="13.778834626466868"><ele>849.4000000000001</ele><time>2026-05-02T09:40:45Z</time></trkpt><trkpt lat="42.23515574304475" lon="13.778939183531842"><ele>849.2</ele><time>2026-05-02T09:40:47Z</time></trkpt><trkpt lat="42.235062780500826" lon="13.779063533585907"><ele>849.0</ele><time>2026-05-02T09:40:49Z</time></trkpt><trkpt lat="42.235005535696494" lon="13.779132046824328"><ele>849.0</ele><time>2026-05-02T09:40:50Z</time></trkpt><trkpt lat="42.234942546124294" lon="13.779204206710256"><ele>849.0</ele><time>2026-05-02T09:40:51Z</time></trkpt><trkpt lat="42.23488202160063" lon="13.77927566350444"><ele>849.0</ele><time>2026-05-02T09:40:52Z</time></trkpt><trkpt lat="42.234816004022875" lon="13.779345866934827"><ele>849.0</ele><time>2026-05-02T09:40:53Z</time></trkpt><trkpt lat="42.23473515247146" lon="13.77941482927849"><ele>849.0</ele><time>2026-05-02T09:40:54Z</time></trkpt><trkpt lat="42.23464962523114" lon="13.77949092924732"><ele>849.0</ele><time>2026-05-02T09:40:55Z</time></trkpt><trkpt lat="42.234571003243055" lon="13.779554255617166"><ele>848.8333333333334</ele><time>2026-05-02T09:40:56Z</time></trkpt><trkpt lat="42.23448817261298" lon="13.77962627212842"><ele>848.6666666666667</ele><time>2026-05-02T09:40:57Z</time></trkpt><trkpt lat="42.234409058417086" lon="13.779695820384257"><ele>848.5</ele><time>2026-05-02T09:40:58Z</time></trkpt><trkpt lat="42.234343538937" lon="13.779754959204142"><ele>848.3333333333334</ele><time>2026-05-02T09:40:59Z</time></trkpt><trkpt lat="42.23428806474089" lon="13.779801171762164"><ele>848.1666666666667</ele><time>2026-05-02T09:41:00Z</time></trkpt><trkpt lat="42.234194090967975" lon="13.779857096634991"><ele>848.0</ele><time>2026-05-02T09:41:02Z</time></trkpt><trkpt lat="42.2340914785222" lon="13.77990826133526"><ele>848.0</ele><time>2026-05-02T09:41:04Z</time></trkpt><trkpt lat="42.2340236723461" lon="13.779936411021117"><ele>848.0</ele><time>2026-05-02T09:41:05Z</time></trkpt><trkpt lat="42.23392230339605" lon="13.77999356923699"><ele>848.0</ele><time>2026-05-02T09:41:07.001Z</time></trkpt><trkpt lat="42.233876507796914" lon="13.780106941637323"><ele>848.0</ele><time>2026-05-02T09:41:09.001Z</time></trkpt><trkpt lat="42.233896686684325" lon="13.780244900312896"><ele>848.0</ele><time>2026-05-02T09:41:11.001Z</time></trkpt><trkpt lat="42.23396807740371" lon="13.780386179895673"><ele>847.0</ele><time>2026-05-02T09:41:13.001Z</time></trkpt><trkpt lat="42.23400250194871" lon="13.780527196086933"><ele>846.0</ele><time>2026-05-02T09:41:15.001Z</time></trkpt><trkpt lat="42.23401274919558" lon="13.780612985350716"><ele>845.0</ele><time>2026-05-02T09:41:16.001Z</time></trkpt><trkpt lat="42.23402070468734" lon="13.780702434238815"><ele>844.0</ele><time>2026-05-02T09:41:17.001Z</time></trkpt><trkpt lat="42.23400886419925" lon="13.780888592185933"><ele>843.0</ele><time>2026-05-02T09:41:19.001Z</time></trkpt><trkpt lat="42.23400554250192" lon="13.7810160849532"><ele>842.5999999999999</ele><time>2026-05-02T09:41:20.001Z</time></trkpt><trkpt lat="42.23400513741806" lon="13.78111593634779"><ele>842.1999999999999</ele><time>2026-05-02T09:41:21.001Z</time></trkpt><trkpt lat="42.234002898538236" lon="13.781280800822895"><ele>841.8</ele><time>2026-05-02T09:41:23.001Z</time></trkpt><trkpt lat="42.234013850928065" lon="13.781427636659473"><ele>841.4</ele><time>2026-05-02T09:41:25.001Z</time></trkpt><trkpt lat="42.23403090486079" lon="13.781532929602273"><ele>841.0</ele><time>2026-05-02T09:41:27.001Z</time></trkpt><trkpt lat="42.234038583014446" lon="13.781640203798343"><ele>840.9999999999999</ele><time>2026-05-02T09:41:30.001Z</time></trkpt><trkpt lat="42.23398312339389" lon="13.781692520110791"><ele>841.0</ele><time>2026-05-02T09:41:36.001Z</time></trkpt><trkpt lat="42.23393003416106" lon="13.781632513883864"><ele>841.0</ele><time>2026-05-02T09:41:38.001Z</time></trkpt><trkpt lat="42.233923177237116" lon="13.78153700622439"><ele>841.0</ele><time>2026-05-02T09:41:51.001Z</time></trkpt><trkpt lat="42.233866980111074" lon="13.781397475720482"><ele>840.9999999999999</ele><time>2026-05-02T09:41:53.001Z</time></trkpt><trkpt lat="42.23383564595173" lon="13.78131913946226"><ele>841.0</ele><time>2026-05-02T09:41:54.001Z</time></trkpt><trkpt lat="42.23376389691969" lon="13.781176653307819"><ele>841.4999999999999</ele><time>2026-05-02T09:41:56Z</time></trkpt><trkpt lat="42.23371272723112" lon="13.781091755074534"><ele>842.0</ele><time>2026-05-02T09:41:57Z</time></trkpt><trkpt lat="42.23365785950621" lon="13.781009419968303"><ele>842.5</ele><time>2026-05-02T09:41:58Z</time></trkpt><trkpt lat="42.23360401641246" lon="13.780921588989502"><ele>843.0</ele><time>2026-05-02T09:41:59Z</time></trkpt><trkpt lat="42.23353819805766" lon="13.780816624387699"><ele>843.4999999999999</ele><time>2026-05-02T09:42:00Z</time></trkpt><trkpt lat="42.23347660089344" lon="13.780726119383235"><ele>844.0</ele><time>2026-05-02T09:42:01Z</time></trkpt><trkpt lat="42.23341306677317" lon="13.780633567453277"><ele>845.8333333333333</ele><time>2026-05-02T09:42:02Z</time></trkpt><trkpt lat="42.233345330306484" lon="13.780556161355834"><ele>847.6666666666666</ele><time>2026-05-02T09:42:03Z</time></trkpt><trkpt lat="42.23328260113517" lon="13.780491009035014"><ele>849.5</ele><time>2026-05-02T09:42:04Z</time></trkpt><trkpt lat="42.23322230613589" lon="13.780428315932557"><ele>851.3333333333333</ele><time>2026-05-02T09:42:05Z</time></trkpt><trkpt lat="42.23316548714836" lon="13.780358574315969"><ele>853.1666666666666</ele><time>2026-05-02T09:42:06Z</time></trkpt><trkpt lat="42.23311442810508" lon="13.780280297065604"><ele>855.0</ele><time>2026-05-02T09:42:07Z</time></trkpt><trkpt lat="42.23306534532265" lon="13.780189526954464"><ele>857.8333333333334</ele><time>2026-05-02T09:42:08Z</time></trkpt><trkpt lat="42.23301083875184" lon="13.780089548073098"><ele>860.6666666666667</ele><time>2026-05-02T09:42:09Z</time></trkpt><trkpt lat="42.232964764091165" lon="13.780006816698947"><ele>863.5</ele><time>2026-05-02T09:42:10Z</time></trkpt><trkpt lat="42.232921466842335" lon="13.779934512923314"><ele>866.3333333333334</ele><time>2026-05-02T09:42:11Z</time></trkpt><trkpt lat="42.23287495589594" lon="13.779872234022616"><ele>869.1666666666667</ele><time>2026-05-02T09:42:12Z</time></trkpt><trkpt lat="42.23277542985303" lon="13.779759382232522"><ele>872.0</ele><time>2026-05-02T09:42:14Z</time></trkpt><trkpt lat="42.232718126628505" lon="13.77969825468185"><ele>872.0</ele><time>2026-05-02T09:42:15Z</time></trkpt><trkpt lat="42.232653424173996" lon="13.779634670995836"><ele>872.0</ele><time>2026-05-02T09:42:16Z</time></trkpt><trkpt lat="42.23259095607791" lon="13.779583728806623"><ele>872.0</ele><time>2026-05-02T09:42:17Z</time></trkpt><trkpt lat="42.232531612060335" lon="13.779544089211573"><ele>872.0</ele><time>2026-05-02T09:42:18Z</time></trkpt><trkpt lat="42.232470542276154" lon="13.779507875916245"><ele>872.0</ele><time>2026-05-02T09:42:19Z</time></trkpt><trkpt lat="42.23239756080291" lon="13.779474376231176"><ele>872.0</ele><time>2026-05-02T09:42:20Z</time></trkpt><trkpt lat="42.23232718182695" lon="13.779450037105923"><ele>872.0</ele><time>2026-05-02T09:42:21Z</time></trkpt><trkpt lat="42.23225661439512" lon="13.779425968571568"><ele>873.5000000000001</ele><time>2026-05-02T09:42:22Z</time></trkpt><trkpt lat="42.23218002875869" lon="13.779394961590862"><ele>875.0</ele><time>2026-05-02T09:42:23Z</time></trkpt><trkpt lat="42.23210139149044" lon="13.779367080863864"><ele>876.5</ele><time>2026-05-02T09:42:24Z</time></trkpt><trkpt lat="42.23201774633667" lon="13.779339805688906"><ele>878.0</ele><time>2026-05-02T09:42:25Z</time></trkpt><trkpt lat="42.23194118975274" lon="13.779314513678138"><ele>879.5000000000001</ele><time>2026-05-02T09:42:26Z</time></trkpt><trkpt lat="42.231856809793065" lon="13.779284284813114"><ele>881.0</ele><time>2026-05-02T09:42:27Z</time></trkpt><trkpt lat="42.231774539643034" lon="13.779246972009053"><ele>882.0000000000001</ele><time>2026-05-02T09:42:28Z</time></trkpt><trkpt lat="42.231694055226086" lon="13.779195184637823"><ele>883.0</ele><time>2026-05-02T09:42:29Z</time></trkpt><trkpt lat="42.23160881651161" lon="13.779128874251347"><ele>884.0</ele><time>2026-05-02T09:42:30Z</time></trkpt><trkpt lat="42.23153846212779" lon="13.779062089130655"><ele>885.0</ele><time>2026-05-02T09:42:31Z</time></trkpt><trkpt lat="42.2314654622809" lon="13.778993425658891"><ele>886.0000000000001</ele><time>2026-05-02T09:42:32Z</time></trkpt><trkpt lat="42.2314041698303" lon="13.778944419169523"><ele>887.0</ele><time>2026-05-02T09:42:33Z</time></trkpt><trkpt lat="42.23134564052521" lon="13.778900081883657"><ele>888.1666666666667</ele><time>2026-05-02T09:42:34Z</time></trkpt><trkpt lat="42.23126817925292" lon="13.778784381631048"><ele>889.3333333333334</ele><time>2026-05-02T09:42:36Z</time></trkpt><trkpt lat="42.231221268984356" lon="13.778702925679347"><ele>890.5</ele><time>2026-05-02T09:42:37Z</time></trkpt><trkpt lat="42.23116859328445" lon="13.778632182965904"><ele>891.6666666666667</ele><time>2026-05-02T09:42:38Z</time></trkpt><trkpt lat="42.23111333586642" lon="13.778575701259138"><ele>892.8333333333334</ele><time>2026-05-02T09:42:39Z</time></trkpt><trkpt lat="42.23105317456292" lon="13.778533998054002"><ele>894.0</ele><time>2026-05-02T09:42:40Z</time></trkpt><trkpt lat="42.23098277903492" lon="13.77852137234263"><ele>893.9999999999999</ele><time>2026-05-02T09:42:41Z</time></trkpt><trkpt lat="42.23091318987913" lon="13.778541774164509"><ele>894.0</ele><time>2026-05-02T09:42:42Z</time></trkpt><trkpt lat="42.23085224675183" lon="13.778581196315594"><ele>894.0</ele><time>2026-05-02T09:42:43Z</time></trkpt><trkpt lat="42.23078831441" lon="13.778588641152758"><ele>894.0</ele><time>2026-05-02T09:42:44Z</time></trkpt><trkpt lat="42.23072493210161" lon="13.77856031977177"><ele>894.0</ele><time>2026-05-02T09:42:45Z</time></trkpt><trkpt lat="42.23066206022047" lon="13.778513072375235"><ele>893.9999999999999</ele><time>2026-05-02T09:42:46Z</time></trkpt><trkpt lat="42.23059773377114" lon="13.778464650275925"><ele>894.0</ele><time>2026-05-02T09:42:47Z</time></trkpt><trkpt lat="42.23052709634727" lon="13.778421168906247"><ele>896.8571428571428</ele><time>2026-05-02T09:42:48Z</time></trkpt><trkpt lat="42.230454663003435" lon="13.778386950993024"><ele>899.7142857142858</ele><time>2026-05-02T09:42:49Z</time></trkpt><trkpt lat="42.23038067391575" lon="13.778348681474094"><ele>902.5714285714287</ele><time>2026-05-02T09:42:50Z</time></trkpt><trkpt lat="42.2303133706238" lon="13.778311798740129"><ele>905.4285714285714</ele><time>2026-05-02T09:42:51Z</time></trkpt><trkpt lat="42.23024747860781" lon="13.778286457506667"><ele>908.2857142857143</ele><time>2026-05-02T09:42:52Z</time></trkpt><trkpt lat="42.23017994535975" lon="13.778282705256336"><ele>911.1428571428572</ele><time>2026-05-02T09:42:53Z</time></trkpt><trkpt lat="42.23009768169265" lon="13.77830864887652"><ele>914.0000000000001</ele><time>2026-05-02T09:42:54Z</time></trkpt><trkpt lat="42.22999237536732" lon="13.778332887839781"><ele>914.0</ele><time>2026-05-02T09:42:56Z</time></trkpt><trkpt lat="42.2298867215236" lon="13.77825941940247"><ele>914.0000000000001</ele><time>2026-05-02T09:42:58Z</time></trkpt><trkpt lat="42.22982027511042" lon="13.778198807545055"><ele>914.0000000000001</ele><time>2026-05-02T09:42:59Z</time></trkpt><trkpt lat="42.22974425604681" lon="13.778138471440423"><ele>914.0</ele><time>2026-05-02T09:43:00Z</time></trkpt><trkpt lat="42.22966449585199" lon="13.778071823393203"><ele>914.0</ele><time>2026-05-02T09:43:01Z</time></trkpt><trkpt lat="42.22959232634152" lon="13.778011555387131"><ele>914.5000000000001</ele><time>2026-05-02T09:43:02Z</time></trkpt><trkpt lat="42.229523919956016" lon="13.77797054891238"><ele>915.0</ele><time>2026-05-02T09:43:03Z</time></trkpt><trkpt lat="42.22945175489182" lon="13.7779237302169"><ele>915.5</ele><time>2026-05-02T09:43:04Z</time></trkpt><trkpt lat="42.22934704282635" lon="13.777871981797318"><ele>916.0</ele><time>2026-05-02T09:43:06Z</time></trkpt><trkpt lat="42.22925594982303" lon="13.777893142152676"><ele>916.5000000000001</ele><time>2026-05-02T09:43:08Z</time></trkpt><trkpt lat="42.22918668829735" lon="13.777964457961348"><ele>917.0</ele><time>2026-05-02T09:43:10Z</time></trkpt><trkpt lat="42.22910051412881" lon="13.777983433560602"><ele>917.2</ele><time>2026-05-02T09:43:12Z</time></trkpt><trkpt lat="42.22896898665487" lon="13.777974836915275"><ele>917.4000000000001</ele><time>2026-05-02T09:43:14.001Z</time></trkpt><trkpt lat="42.22887502227726" lon="13.777935586585366"><ele>917.5999999999999</ele><time>2026-05-02T09:43:16.001Z</time></trkpt><trkpt lat="42.22878616872446" lon="13.777843615737392"><ele>917.8</ele><time>2026-05-02T09:43:18.001Z</time></trkpt><trkpt lat="42.228742701973644" lon="13.777777160894292"><ele>918.0</ele><time>2026-05-02T09:43:19.001Z</time></trkpt><trkpt lat="42.22870548186923" lon="13.777701272659927"><ele>918.1428571428571</ele><time>2026-05-02T09:43:20.001Z</time></trkpt><trkpt lat="42.22866677413204" lon="13.777624894884465"><ele>918.2857142857142</ele><time>2026-05-02T09:43:21.001Z</time></trkpt><trkpt lat="42.22862407648265" lon="13.777555514816124"><ele>918.4285714285713</ele><time>2026-05-02T09:43:22.001Z</time></trkpt><trkpt lat="42.22856968137268" lon="13.777512324583011"><ele>918.5714285714286</ele><time>2026-05-02T09:43:23.001Z</time></trkpt><trkpt lat="42.22850748747586" lon="13.77749463744452"><ele>918.7142857142856</ele><time>2026-05-02T09:43:24.001Z</time></trkpt><trkpt lat="42.22844182221363" lon="13.777487331521991"><ele>918.8571428571428</ele><time>2026-05-02T09:43:25.001Z</time></trkpt><trkpt lat="42.22837509149541" lon="13.77749091508602"><ele>919.0</ele><time>2026-05-02T09:43:26.001Z</time></trkpt><trkpt lat="42.22829856658175" lon="13.77749614520362"><ele>918.9999999999999</ele><time>2026-05-02T09:43:27.001Z</time></trkpt><trkpt lat="42.22821892551663" lon="13.777502580691324"><ele>919.0</ele><time>2026-05-02T09:43:28.001Z</time></trkpt><trkpt lat="42.22813463349993" lon="13.777515549607719"><ele>919.0</ele><time>2026-05-02T09:43:29.001Z</time></trkpt><trkpt lat="42.228053524971315" lon="13.777538969883963"><ele>919.0</ele><time>2026-05-02T09:43:30.001Z</time></trkpt><trkpt lat="42.22796439790089" lon="13.777575410323367"><ele>918.9999999999999</ele><time>2026-05-02T09:43:31.001Z</time></trkpt><trkpt lat="42.22788305819522" lon="13.777621574404185"><ele>919.0</ele><time>2026-05-02T09:43:32.001Z</time></trkpt><trkpt lat="42.227797117208134" lon="13.777678418383882"><ele>919.0</ele><time>2026-05-02T09:43:33.001Z</time></trkpt><trkpt lat="42.22770780165846" lon="13.777744982601211"><ele>919.0000000000001</ele><time>2026-05-02T09:43:34.001Z</time></trkpt><trkpt lat="42.22762961190031" lon="13.777817294931571"><ele>919.0000000000001</ele><time>2026-05-02T09:43:35.001Z</time></trkpt><trkpt lat="42.2275498331054" lon="13.77788382610937"><ele>919.0</ele><time>2026-05-02T09:43:36.001Z</time></trkpt><trkpt lat="42.227474136226625" lon="13.777946426514188"><ele>919.0</ele><time>2026-05-02T09:43:37.001Z</time></trkpt><trkpt lat="42.227405913071735" lon="13.778002878217581"><ele>919.0</ele><time>2026-05-02T09:43:38Z</time></trkpt><trkpt lat="42.22731196845267" lon="13.778047972542225"><ele>919.0000000000001</ele><time>2026-05-02T09:43:39Z</time></trkpt><trkpt lat="42.22724095310658" lon="13.778117778856497"><ele>919.0000000000001</ele><time>2026-05-02T09:43:40Z</time></trkpt><trkpt lat="42.22716608112686" lon="13.778191376214206"><ele>919.0</ele><time>2026-05-02T09:43:41Z</time></trkpt><trkpt lat="42.22709446748453" lon="13.778261770775092"><ele>919.0</ele><time>2026-05-02T09:43:42Z</time></trkpt><trkpt lat="42.227022643193635" lon="13.77832962239565"><ele>919.0</ele><time>2026-05-02T09:43:43Z</time></trkpt><trkpt lat="42.22694892229563" lon="13.77839258942932"><ele>919.0000000000001</ele><time>2026-05-02T09:43:44Z</time></trkpt><trkpt lat="42.22686946054274" lon="13.778457767303813"><ele>919.0000000000001</ele><time>2026-05-02T09:43:45Z</time></trkpt><trkpt lat="42.22678609169083" lon="13.778526192166362"><ele>919.0</ele><time>2026-05-02T09:43:46Z</time></trkpt><trkpt lat="42.22670770422267" lon="13.778593002771007"><ele>919.0</ele><time>2026-05-02T09:43:47Z</time></trkpt><trkpt lat="42.22663439317557" lon="13.778656384661579"><ele>919.4000000000001</ele><time>2026-05-02T09:43:48Z</time></trkpt><trkpt lat="42.22655840314682" lon="13.77872380203421"><ele>919.8000000000001</ele><time>2026-05-02T09:43:49Z</time></trkpt><trkpt lat="42.22647352172754" lon="13.77880155531765"><ele>920.1999999999999</ele><time>2026-05-02T09:43:50Z</time></trkpt><trkpt lat="42.226391475053674" lon="13.778879320073845"><ele>920.5999999999999</ele><time>2026-05-02T09:43:51Z</time></trkpt><trkpt lat="42.22630623276396" lon="13.778968038770497"><ele>921.0</ele><time>2026-05-02T09:43:52Z</time></trkpt><trkpt lat="42.22622433190877" lon="13.779061702213863"><ele>920.1999999999999</ele><time>2026-05-02T09:43:53Z</time></trkpt><trkpt lat="42.22614801724154" lon="13.779155708080559"><ele>919.3999999999999</ele><time>2026-05-02T09:43:54Z</time></trkpt><trkpt lat="42.22607269103293" lon="13.779253361767891"><ele>918.6</ele><time>2026-05-02T09:43:55Z</time></trkpt><trkpt lat="42.22601950010182" lon="13.779360728640683"><ele>917.8</ele><time>2026-05-02T09:43:56Z</time></trkpt><trkpt lat="42.22594782070743" lon="13.77943607131279"><ele>917.0</ele><time>2026-05-02T09:43:57Z</time></trkpt><trkpt lat="42.22589283648879" lon="13.779528459816655"><ele>917.0</ele><time>2026-05-02T09:43:58Z</time></trkpt><trkpt lat="42.225835657556246" lon="13.779621097926544"><ele>917.0</ele><time>2026-05-02T09:43:59Z</time></trkpt><trkpt lat="42.22577553025797" lon="13.77971254144179"><ele>917.0</ele><time>2026-05-02T09:44:00Z</time></trkpt><trkpt lat="42.22571321741134" lon="13.779804477779102"><ele>917.0</ele><time>2026-05-02T09:44:01Z</time></trkpt><trkpt lat="42.22564632995953" lon="13.779902225568568"><ele>917.0</ele><time>2026-05-02T09:44:02Z</time></trkpt><trkpt lat="42.22557857612146" lon="13.779999233488"><ele>915.0</ele><time>2026-05-02T09:44:03Z</time></trkpt><trkpt lat="42.22550921996886" lon="13.780096876561368"><ele>913.0</ele><time>2026-05-02T09:44:04Z</time></trkpt><trkpt lat="42.225444302155616" lon="13.780193042929184"><ele>911.0</ele><time>2026-05-02T09:44:05Z</time></trkpt><trkpt lat="42.2253860814096" lon="13.780288301104216"><ele>909.0</ele><time>2026-05-02T09:44:06Z</time></trkpt><trkpt lat="42.22533432651666" lon="13.78038274678343"><ele>907.0</ele><time>2026-05-02T09:44:07Z</time></trkpt><trkpt lat="42.225290272653574" lon="13.780466628519052"><ele>906.9999999999999</ele><time>2026-05-02T09:44:08Z</time></trkpt><trkpt lat="42.2252490298606" lon="13.780546092238236"><ele>907.0</ele><time>2026-05-02T09:44:09Z</time></trkpt><trkpt lat="42.22521126279224" lon="13.780624674780983"><ele>907.0</ele><time>2026-05-02T09:44:10Z</time></trkpt><trkpt lat="42.22517122158019" lon="13.780707569578672"><ele>907.0</ele><time>2026-05-02T09:44:11Z</time></trkpt><trkpt lat="42.225124992351546" lon="13.780796251997918"><ele>906.9999999999999</ele><time>2026-05-02T09:44:12Z</time></trkpt><trkpt lat="42.22506892858347" lon="13.78087820682584"><ele>907.0</ele><time>2026-05-02T09:44:13Z</time></trkpt><trkpt lat="42.22501190788426" lon="13.780950961788816"><ele>907.3333333333333</ele><time>2026-05-02T09:44:14Z</time></trkpt><trkpt lat="42.22495370477483" lon="13.781024363141587"><ele>907.6666666666666</ele><time>2026-05-02T09:44:15Z</time></trkpt><trkpt lat="42.224896880267536" lon="13.781095128308651"><ele>908.0</ele><time>2026-05-02T09:44:16Z</time></trkpt><trkpt lat="42.22484084367911" lon="13.781164912264604"><ele>908.3333333333333</ele><time>2026-05-02T09:44:17Z</time></trkpt><trkpt lat="42.224788456148865" lon="13.781231690653492"><ele>908.6666666666666</ele><time>2026-05-02T09:44:18Z</time></trkpt><trkpt lat="42.22474278588688" lon="13.781295074492078"><ele>909.0</ele><time>2026-05-02T09:44:19Z</time></trkpt><trkpt lat="42.224670541216796" lon="13.781441439993374"><ele>906.0</ele><time>2026-05-02T09:44:21Z</time></trkpt><trkpt lat="42.22464751363838" lon="13.781523101953509"><ele>903.0</ele><time>2026-05-02T09:44:22Z</time></trkpt><trkpt lat="42.2246261184918" lon="13.781614509556482"><ele>900.0</ele><time>2026-05-02T09:44:23Z</time></trkpt><trkpt lat="42.22460752031808" lon="13.781716352746493"><ele>897.0</ele><time>2026-05-02T09:44:24Z</time></trkpt><trkpt lat="42.22458977643209" lon="13.781816951283488"><ele>894.0</ele><time>2026-05-02T09:44:25Z</time></trkpt><trkpt lat="42.22456276039772" lon="13.781910002852813"><ele>891.0</ele><time>2026-05-02T09:44:26Z</time></trkpt><trkpt lat="42.224520058520156" lon="13.781988686184022"><ele>888.0</ele><time>2026-05-02T09:44:27Z</time></trkpt><trkpt lat="42.22447411557074" lon="13.782070599873324"><ele>887.6666666666666</ele><time>2026-05-02T09:44:28Z</time></trkpt><trkpt lat="42.22442668278498" lon="13.782165438944936"><ele>887.3333333333333</ele><time>2026-05-02T09:44:29Z</time></trkpt><trkpt lat="42.224401345479954" lon="13.782270636074724"><ele>887.0</ele><time>2026-05-02T09:44:30Z</time></trkpt><trkpt lat="42.224352104298724" lon="13.782355805659348"><ele>886.6666666666666</ele><time>2026-05-02T09:44:31Z</time></trkpt><trkpt lat="42.22432300832801" lon="13.782446854462286"><ele>886.3333333333333</ele><time>2026-05-02T09:44:32Z</time></trkpt><trkpt lat="42.2242977811186" lon="13.782541057301879"><ele>886.0</ele><time>2026-05-02T09:44:33Z</time></trkpt><trkpt lat="42.224280372210586" lon="13.782633834072985"><ele>884.8333333333333</ele><time>2026-05-02T09:44:34Z</time></trkpt><trkpt lat="42.22427085828035" lon="13.782727222518622"><ele>883.6666666666666</ele><time>2026-05-02T09:44:35Z</time></trkpt><trkpt lat="42.22426644221196" lon="13.782822636452348"><ele>882.5</ele><time>2026-05-02T09:44:36Z</time></trkpt><trkpt lat="42.224259233547066" lon="13.782938112970895"><ele>881.3333333333333</ele><time>2026-05-02T09:44:38Z</time></trkpt><trkpt lat="42.224171943250155" lon="13.782891932039334"><ele>880.1666666666666</ele><time>2026-05-02T09:44:42Z</time></trkpt><trkpt lat="42.22413233246315" lon="13.78280594985382"><ele>879.0</ele><time>2026-05-02T09:44:43Z</time></trkpt><trkpt lat="42.224070181813595" lon="13.782722833477392"><ele>880.4000000000001</ele><time>2026-05-02T09:44:44Z</time></trkpt><trkpt lat="42.22401687006552" lon="13.78261581602917"><ele>881.8000000000001</ele><time>2026-05-02T09:44:45Z</time></trkpt><trkpt lat="42.22397981454651" lon="13.782494694274337"><ele>883.1999999999999</ele><time>2026-05-02T09:44:46Z</time></trkpt><trkpt lat="42.22392209916207" lon="13.782386259696844"><ele>884.5999999999999</ele><time>2026-05-02T09:44:47Z</time></trkpt><trkpt lat="42.22389848528591" lon="13.782264471951938"><ele>886.0</ele><time>2026-05-02T09:44:48Z</time></trkpt><trkpt lat="42.22384843290293" lon="13.7821697706573"><ele>880.4</ele><time>2026-05-02T09:44:49Z</time></trkpt><trkpt lat="42.22381614517597" lon="13.78208175557747"><ele>874.8</ele><time>2026-05-02T09:44:50Z</time></trkpt><trkpt lat="42.22376305843772" lon="13.781951915503589"><ele>869.1999999999999</ele><time>2026-05-02T09:44:52Z</time></trkpt><trkpt lat="42.22372691957129" lon="13.781861350523151"><ele>863.5999999999999</ele><time>2026-05-02T09:44:54Z</time></trkpt><trkpt lat="42.223630616999934" lon="13.781868222086603"><ele>858.0</ele><time>2026-05-02T09:44:56Z</time></trkpt><trkpt lat="42.22362032210789" lon="13.782014186207176"><ele>858.0</ele><time>2026-05-02T09:44:57Z</time></trkpt><trkpt lat="42.22361435991883" lon="13.782110314289302"><ele>858.0</ele><time>2026-05-02T09:44:58Z</time></trkpt><trkpt lat="42.223599097416944" lon="13.782202565493938"><ele>858.0</ele><time>2026-05-02T09:44:59Z</time></trkpt><trkpt lat="42.223582408883104" lon="13.782302059720141"><ele>858.0</ele><time>2026-05-02T09:45:00Z</time></trkpt><trkpt lat="42.22357473083844" lon="13.782403421283316"><ele>858.0</ele><time>2026-05-02T09:45:01Z</time></trkpt><trkpt lat="42.22355811523829" lon="13.782560013592226"><ele>858.0</ele><time>2026-05-02T09:45:03Z</time></trkpt><trkpt lat="42.22350039239461" lon="13.782610930637217"><ele>858.0</ele><time>2026-05-02T09:45:06Z</time></trkpt><trkpt lat="42.22345629424493" lon="13.78250689927063"><ele>858.0</ele><time>2026-05-02T09:45:08Z</time></trkpt><trkpt lat="42.22341830771726" lon="13.782439059629255"><ele>858.0</ele><time>2026-05-02T09:45:09Z</time></trkpt><trkpt lat="42.22338262439252" lon="13.782357894688388"><ele>858.0</ele><time>2026-05-02T09:45:10Z</time></trkpt><trkpt lat="42.22336556281918" lon="13.782259967666267"><ele>858.0</ele><time>2026-05-02T09:45:11Z</time></trkpt><trkpt lat="42.223324120938734" lon="13.782180270262048"><ele>858.0</ele><time>2026-05-02T09:45:12Z</time></trkpt><trkpt lat="42.22328607960609" lon="13.782034887070855"><ele>858.0</ele><time>2026-05-02T09:45:14Z</time></trkpt><trkpt lat="42.22323470362661" lon="13.781958107988467"><ele>858.0</ele><time>2026-05-02T09:45:16Z</time></trkpt><trkpt lat="42.223130199244665" lon="13.782066053783783"><ele>858.0</ele><time>2026-05-02T09:45:18Z</time></trkpt><trkpt lat="42.22308542114702" lon="13.782144115293388"><ele>858.0</ele><time>2026-05-02T09:45:19Z</time></trkpt><trkpt lat="42.22303721638887" lon="13.782227747484223"><ele>858.0</ele><time>2026-05-02T09:45:20Z</time></trkpt><trkpt lat="42.2229883655011" lon="13.78230926889294"><ele>858.0</ele><time>2026-05-02T09:45:21Z</time></trkpt><trkpt lat="42.22294300934913" lon="13.782384958202897"><ele>857.0</ele><time>2026-05-02T09:45:22Z</time></trkpt><trkpt lat="42.22291080018396" lon="13.782458738601623"><ele>856.0</ele><time>2026-05-02T09:45:23Z</time></trkpt><trkpt lat="42.22279249690537" lon="13.782510731034325"><ele>855.0</ele><time>2026-05-02T09:45:25Z</time></trkpt><trkpt lat="42.22273809960252" lon="13.782456321545153"><ele>854.0</ele><time>2026-05-02T09:45:26Z</time></trkpt><trkpt lat="42.222677588103" lon="13.782416902331859"><ele>853.0</ele><time>2026-05-02T09:45:27Z</time></trkpt><trkpt lat="42.222584360987675" lon="13.782351014073607"><ele>852.0</ele><time>2026-05-02T09:45:29Z</time></trkpt><trkpt lat="42.222493537233944" lon="13.782246565309752"><ele>852.0</ele><time>2026-05-02T09:45:31Z</time></trkpt><trkpt lat="42.222436781673174" lon="13.782171886094256"><ele>852.0</ele><time>2026-05-02T09:45:32Z</time></trkpt><trkpt lat="42.2223674870044" lon="13.782107893886144"><ele>852.0</ele><time>2026-05-02T09:45:33Z</time></trkpt><trkpt lat="42.22229730947675" lon="13.782036851126062"><ele>852.0</ele><time>2026-05-02T09:45:34Z</time></trkpt><trkpt lat="42.22221885902207" lon="13.7819776918152"><ele>852.0</ele><time>2026-05-02T09:45:35Z</time></trkpt><trkpt lat="42.22215851438776" lon="13.781908733323913"><ele>852.0</ele><time>2026-05-02T09:45:36Z</time></trkpt><trkpt lat="42.2221043444863" lon="13.78184777366706"><ele>852.8333333333334</ele><time>2026-05-02T09:45:37Z</time></trkpt><trkpt lat="42.222065545397925" lon="13.7817719194415"><ele>853.6666666666667</ele><time>2026-05-02T09:45:38Z</time></trkpt><trkpt lat="42.222019708864075" lon="13.781710092514478"><ele>854.5</ele><time>2026-05-02T09:45:39Z</time></trkpt><trkpt lat="42.22195175188037" lon="13.781572861170469"><ele>855.3333333333334</ele><time>2026-05-02T09:45:41Z</time></trkpt><trkpt lat="42.22189696918136" lon="13.781419375742386"><ele>856.1666666666667</ele><time>2026-05-02T09:45:43Z</time></trkpt><trkpt lat="42.22186838346831" lon="13.781340788904377"><ele>857.0</ele><time>2026-05-02T09:45:44Z</time></trkpt><trkpt lat="42.22184256859373" lon="13.781258913801299"><ele>857.0</ele><time>2026-05-02T09:45:45Z</time></trkpt><trkpt lat="42.22181626535485" lon="13.78117405377006"><ele>857.0</ele><time>2026-05-02T09:45:46Z</time></trkpt><trkpt lat="42.221793148476884" lon="13.781085469778752"><ele>857.0</ele><time>2026-05-02T09:45:47Z</time></trkpt><trkpt lat="42.221773336668264" lon="13.780994608578535"><ele>857.0</ele><time>2026-05-02T09:45:48Z</time></trkpt><trkpt lat="42.22175563210177" lon="13.780901013762008"><ele>857.0</ele><time>2026-05-02T09:45:49Z</time></trkpt><trkpt lat="42.22173801750767" lon="13.780807548684026"><ele>857.0</ele><time>2026-05-02T09:45:50Z</time></trkpt><trkpt lat="42.22171942947045" lon="13.78071347764764"><ele>857.0</ele><time>2026-05-02T09:45:51Z</time></trkpt><trkpt lat="42.22169512105711" lon="13.780623283482818"><ele>856.3333333333334</ele><time>2026-05-02T09:45:52Z</time></trkpt><trkpt lat="42.221667318155745" lon="13.780532871159242"><ele>855.6666666666667</ele><time>2026-05-02T09:45:53Z</time></trkpt><trkpt lat="42.221640248931756" lon="13.780442659746376"><ele>855.0</ele><time>2026-05-02T09:45:54Z</time></trkpt><trkpt lat="42.22161322463697" lon="13.780358478568631"><ele>854.3333333333333</ele><time>2026-05-02T09:45:55Z</time></trkpt><trkpt lat="42.22158554377439" lon="13.780279160893153"><ele>853.6666666666666</ele><time>2026-05-02T09:45:56Z</time></trkpt><trkpt lat="42.22153343867634" lon="13.78015043917098"><ele>853.0</ele><time>2026-05-02T09:45:58Z</time></trkpt><trkpt lat="42.2214977564446" lon="13.780070116253434"><ele>850.0</ele><time>2026-05-02T09:46:00Z</time></trkpt><trkpt lat="42.2214621081531" lon="13.77996391813302"><ele>847.0</ele><time>2026-05-02T09:46:02Z</time></trkpt><trkpt lat="42.2214155408243" lon="13.779828788787368"><ele>844.0</ele><time>2026-05-02T09:46:04Z</time></trkpt><trkpt lat="42.2213933924058" lon="13.779731393376474"><ele>841.0</ele><time>2026-05-02T09:46:06Z</time></trkpt><trkpt lat="42.221264733086585" lon="13.779769296646608"><ele>838.0</ele><time>2026-05-02T09:46:09Z</time></trkpt><trkpt lat="42.221168006459955" lon="13.779813413739284"><ele>838.0</ele><time>2026-05-02T09:46:11Z</time></trkpt><trkpt lat="42.221073263773505" lon="13.779887290662886"><ele>838.0</ele><time>2026-05-02T09:46:13Z</time></trkpt><trkpt lat="42.22101472242687" lon="13.779934853446937"><ele>838.0</ele><time>2026-05-02T09:46:14Z</time></trkpt><trkpt lat="42.220946353923466" lon="13.779992073673125"><ele>838.0</ele><time>2026-05-02T09:46:15Z</time></trkpt><trkpt lat="42.220857936320165" lon="13.780063589394308"><ele>838.0</ele><time>2026-05-02T09:46:16Z</time></trkpt><trkpt lat="42.22077012036711" lon="13.780133596754284"><ele>837.8</ele><time>2026-05-02T09:46:17Z</time></trkpt><trkpt lat="42.220680238262844" lon="13.780202036624654"><ele>837.5999999999999</ele><time>2026-05-02T09:46:18Z</time></trkpt><trkpt lat="42.22058927199786" lon="13.780271556536421"><ele>837.4000000000001</ele><time>2026-05-02T09:46:19Z</time></trkpt><trkpt lat="42.220500260163796" lon="13.780335605105194"><ele>837.2</ele><time>2026-05-02T09:46:20Z</time></trkpt><trkpt lat="42.22041002977814" lon="13.780387945242527"><ele>837.0</ele><time>2026-05-02T09:46:21Z</time></trkpt><trkpt lat="42.2203155963485" lon="13.780430415575859"><ele>837.0</ele><time>2026-05-02T09:46:22Z</time></trkpt><trkpt lat="42.22021067773722" lon="13.780462697220724"><ele>837.0</ele><time>2026-05-02T09:46:23Z</time></trkpt><trkpt lat="42.22012415840706" lon="13.780483631386263"><ele>837.0</ele><time>2026-05-02T09:46:24Z</time></trkpt><trkpt lat="42.22002081876513" lon="13.780500744483039"><ele>837.0</ele><time>2026-05-02T09:46:26Z</time></trkpt><trkpt lat="42.21988791897456" lon="13.780454021737432"><ele>837.0</ele><time>2026-05-02T09:46:28Z</time></trkpt><trkpt lat="42.21979695446887" lon="13.780435025015445"><ele>835.5</ele><time>2026-05-02T09:46:29Z</time></trkpt><trkpt lat="42.21969774474047" lon="13.780402188757096"><ele>834.0</ele><time>2026-05-02T09:46:30Z</time></trkpt><trkpt lat="42.2196115902555" lon="13.780365336801626"><ele>832.5</ele><time>2026-05-02T09:46:31Z</time></trkpt><trkpt lat="42.219550590184895" lon="13.780272351863672"><ele>831.0</ele><time>2026-05-02T09:46:32Z</time></trkpt><trkpt lat="42.2194846393035" lon="13.780218678192291"><ele>829.5</ele><time>2026-05-02T09:46:33Z</time></trkpt><trkpt lat="42.21943089523086" lon="13.780156426331006"><ele>828.0</ele><time>2026-05-02T09:46:34Z</time></trkpt><trkpt lat="42.219368369959675" lon="13.78007780923208"><ele>824.3333333333334</ele><time>2026-05-02T09:46:35Z</time></trkpt><trkpt lat="42.219299222943874" lon="13.779988879865469"><ele>820.6666666666667</ele><time>2026-05-02T09:46:36Z</time></trkpt><trkpt lat="42.21924074919473" lon="13.779913677421618"><ele>817.0</ele><time>2026-05-02T09:46:37Z</time></trkpt><trkpt lat="42.21918510836066" lon="13.779842190075597"><ele>813.3333333333334</ele><time>2026-05-02T09:46:38Z</time></trkpt><trkpt lat="42.21913503595945" lon="13.779777874175814"><ele>809.6666666666667</ele><time>2026-05-02T09:46:39Z</time></trkpt><trkpt lat="42.219072786200464" lon="13.779710992427196"><ele>806.0</ele><time>2026-05-02T09:46:40Z</time></trkpt><trkpt lat="42.21899624969905" lon="13.779656373807857"><ele>803.1999999999999</ele><time>2026-05-02T09:46:41Z</time></trkpt><trkpt lat="42.21891197180837" lon="13.779612531849523"><ele>800.4</ele><time>2026-05-02T09:46:42Z</time></trkpt><trkpt lat="42.218815047423426" lon="13.779581397150325"><ele>797.6</ele><time>2026-05-02T09:46:43Z</time></trkpt><trkpt lat="42.218707905577546" lon="13.779580250499327"><ele>794.8</ele><time>2026-05-02T09:46:44Z</time></trkpt><trkpt lat="42.21860130139365" lon="13.779593013931203"><ele>792.0</ele><time>2026-05-02T09:46:45Z</time></trkpt><trkpt lat="42.21849432953783" lon="13.779627888588509"><ele>792.0</ele><time>2026-05-02T09:46:46Z</time></trkpt><trkpt lat="42.2183873825554" lon="13.779683076616243"><ele>792.0</ele><time>2026-05-02T09:46:47Z</time></trkpt><trkpt lat="42.21828802910409" lon="13.779731161061447"><ele>792.0</ele><time>2026-05-02T09:46:48Z</time></trkpt><trkpt lat="42.218178622752774" lon="13.779774571616974"><ele>792.0</ele><time>2026-05-02T09:46:49Z</time></trkpt><trkpt lat="42.21807470702584" lon="13.779812147613987"><ele>792.0</ele><time>2026-05-02T09:46:50Z</time></trkpt><trkpt lat="42.21797578094681" lon="13.779847635372308"><ele>791.0</ele><time>2026-05-02T09:46:51Z</time></trkpt><trkpt lat="42.217888567053265" lon="13.779878250085295"><ele>790.0</ele><time>2026-05-02T09:46:52Z</time></trkpt><trkpt lat="42.21781011165406" lon="13.779902377823843"><ele>789.0</ele><time>2026-05-02T09:46:53Z</time></trkpt><trkpt lat="42.217736593451576" lon="13.77990189685543"><ele>788.0</ele><time>2026-05-02T09:46:54Z</time></trkpt><trkpt lat="42.217666731072555" lon="13.779866877805215"><ele>787.0</ele><time>2026-05-02T09:46:55Z</time></trkpt><trkpt lat="42.217603310426796" lon="13.77979580606624"><ele>786.0</ele><time>2026-05-02T09:46:56Z</time></trkpt><trkpt lat="42.21754534263619" lon="13.779711183000837"><ele>786.0</ele><time>2026-05-02T09:46:57Z</time></trkpt><trkpt lat="42.21751203267088" lon="13.779607863989868"><ele>786.0</ele><time>2026-05-02T09:46:58Z</time></trkpt><trkpt lat="42.21749538304709" lon="13.779490924945604"><ele>786.0</ele><time>2026-05-02T09:46:59Z</time></trkpt><trkpt lat="42.21747621659122" lon="13.779371481838986"><ele>786.0</ele><time>2026-05-02T09:47:00Z</time></trkpt><trkpt lat="42.217444093906785" lon="13.779245819211136"><ele>786.0</ele><time>2026-05-02T09:47:01Z</time></trkpt><trkpt lat="42.217425506667" lon="13.779111722416857"><ele>783.5999999999999</ele><time>2026-05-02T09:47:02Z</time></trkpt><trkpt lat="42.217395179643965" lon="13.778976901542439"><ele>781.2</ele><time>2026-05-02T09:47:03Z</time></trkpt><trkpt lat="42.217379474381126" lon="13.778833688442136"><ele>778.8</ele><time>2026-05-02T09:47:04Z</time></trkpt><trkpt lat="42.217338748873736" lon="13.778697961425507"><ele>776.4000000000001</ele><time>2026-05-02T09:47:05Z</time></trkpt><trkpt lat="42.217287342782214" lon="13.778570907738587"><ele>774.0</ele><time>2026-05-02T09:47:06Z</time></trkpt><trkpt lat="42.21721865386343" lon="13.77845462444142"><ele>770.4000000000001</ele><time>2026-05-02T09:47:07Z</time></trkpt><trkpt lat="42.21716407339619" lon="13.778322714716914"><ele>766.8</ele><time>2026-05-02T09:47:08Z</time></trkpt><trkpt lat="42.21710844788538" lon="13.778187547266537"><ele>763.2</ele><time>2026-05-02T09:47:09Z</time></trkpt><trkpt lat="42.21705258709194" lon="13.778051270257516"><ele>759.5999999999999</ele><time>2026-05-02T09:47:10Z</time></trkpt><trkpt lat="42.217000176267256" lon="13.777928721245122"><ele>756.0</ele><time>2026-05-02T09:47:11Z</time></trkpt><trkpt lat="42.216950038994064" lon="13.777823046247285"><ele>756.0</ele><time>2026-05-02T09:47:12Z</time></trkpt><trkpt lat="42.21689843518502" lon="13.777731566756884"><ele>756.0</ele><time>2026-05-02T09:47:13Z</time></trkpt><trkpt lat="42.216833111313264" lon="13.777655825320617"><ele>756.0</ele><time>2026-05-02T09:47:14Z</time></trkpt><trkpt lat="42.21676533949924" lon="13.777570838780562"><ele>756.0</ele><time>2026-05-02T09:47:15Z</time></trkpt><trkpt lat="42.21667948958423" lon="13.777508900143664"><ele>756.0</ele><time>2026-05-02T09:47:16Z</time></trkpt><trkpt lat="42.216586323228974" lon="13.777459859832451"><ele>752.4</ele><time>2026-05-02T09:47:17Z</time></trkpt><trkpt lat="42.21648818701076" lon="13.777418435861986"><ele>748.8</ele><time>2026-05-02T09:47:18Z</time></trkpt><trkpt lat="42.21638775847083" lon="13.777370780059053"><ele>745.1999999999999</ele><time>2026-05-02T09:47:19Z</time></trkpt><trkpt lat="42.21629183262523" lon="13.777315060329231"><ele>741.5999999999999</ele><time>2026-05-02T09:47:20Z</time></trkpt><trkpt lat="42.21618740646772" lon="13.777245614919105"><ele>738.0</ele><time>2026-05-02T09:47:21Z</time></trkpt><trkpt lat="42.21607605550726" lon="13.777168944056685"><ele>735.75</ele><time>2026-05-02T09:47:22Z</time></trkpt><trkpt lat="42.21596223356161" lon="13.777089379169714"><ele>733.5</ele><time>2026-05-02T09:47:23Z</time></trkpt><trkpt lat="42.21584883722544" lon="13.777010811879027"><ele>731.25</ele><time>2026-05-02T09:47:24Z</time></trkpt><trkpt lat="42.2157287734496" lon="13.776930603703441"><ele>729.0</ele><time>2026-05-02T09:47:25Z</time></trkpt><trkpt lat="42.21560317089667" lon="13.776881198604967"><ele>725.0</ele><time>2026-05-02T09:47:26Z</time></trkpt><trkpt lat="42.21548657743129" lon="13.776823152344514"><ele>721.0</ele><time>2026-05-02T09:47:27Z</time></trkpt><trkpt lat="42.21537986462443" lon="13.776754645455055"><ele>717.0</ele><time>2026-05-02T09:47:28Z</time></trkpt><trkpt lat="42.21527432722404" lon="13.77673673926738"><ele>713.0</ele><time>2026-05-02T09:47:29Z</time></trkpt><trkpt lat="42.21517872116845" lon="13.77670902425863"><ele>709.0</ele><time>2026-05-02T09:47:30Z</time></trkpt><trkpt lat="42.21508918373035" lon="13.776687297727637"><ele>709.0000000000001</ele><time>2026-05-02T09:47:31Z</time></trkpt><trkpt lat="42.21500669025387" lon="13.776694517237205"><ele>709.0</ele><time>2026-05-02T09:47:32Z</time></trkpt><trkpt lat="42.214940917878266" lon="13.776735670928003"><ele>709.0</ele><time>2026-05-02T09:47:33Z</time></trkpt><trkpt lat="42.2148982690679" lon="13.776809632081683"><ele>709.0</ele><time>2026-05-02T09:47:34Z</time></trkpt><trkpt lat="42.21487917699198" lon="13.776902175882732"><ele>709.0</ele><time>2026-05-02T09:47:35Z</time></trkpt><trkpt lat="42.21483659690325" lon="13.776976262058554"><ele>709.0000000000001</ele><time>2026-05-02T09:47:36Z</time></trkpt><trkpt lat="42.214802339245885" lon="13.777058691058055"><ele>709.0</ele><time>2026-05-02T09:47:37Z</time></trkpt><trkpt lat="42.21475807420428" lon="13.777131737464787"><ele>709.0</ele><time>2026-05-02T09:47:39Z</time></trkpt><trkpt lat="42.21478183093716" lon="13.776955658856975"><ele>709.0</ele><time>2026-05-02T09:47:43Z</time></trkpt><trkpt lat="42.214804187104065" lon="13.776837275297448"><ele>709.0</ele><time>2026-05-02T09:47:44Z</time></trkpt><trkpt lat="42.214850107762324" lon="13.776721780823046"><ele>709.0</ele><time>2026-05-02T09:47:45Z</time></trkpt><trkpt lat="42.214888234096804" lon="13.776601508008856"><ele>709.0</ele><time>2026-05-02T09:47:46Z</time></trkpt><trkpt lat="42.214915861201646" lon="13.77650349516465"><ele>709.0000000000001</ele><time>2026-05-02T09:47:47Z</time></trkpt><trkpt lat="42.21492320463485" lon="13.776413792979081"><ele>709.0</ele><time>2026-05-02T09:47:48Z</time></trkpt><trkpt lat="42.21489055434358" lon="13.77634080718119"><ele>709.0</ele><time>2026-05-02T09:47:49Z</time></trkpt><trkpt lat="42.214827114102036" lon="13.776307793098931"><ele>709.0</ele><time>2026-05-02T09:47:50Z</time></trkpt><trkpt lat="42.214758005453035" lon="13.776336051258737"><ele>709.0</ele><time>2026-05-02T09:47:51Z</time></trkpt><trkpt lat="42.21470367205171" lon="13.776416531633371"><ele>709.0000000000001</ele><time>2026-05-02T09:47:52Z</time></trkpt><trkpt lat="42.21466936876813" lon="13.776532871142418"><ele>709.0</ele><time>2026-05-02T09:47:53Z</time></trkpt><trkpt lat="42.21462770616118" lon="13.776660283891362"><ele>707.0</ele><time>2026-05-02T09:47:54Z</time></trkpt><trkpt lat="42.21457039665372" lon="13.776790945345585"><ele>705.0</ele><time>2026-05-02T09:47:55Z</time></trkpt><trkpt lat="42.21450436378918" lon="13.776925403084533"><ele>703.0</ele><time>2026-05-02T09:47:56Z</time></trkpt><trkpt lat="42.214443372237874" lon="13.77706118742479"><ele>701.0</ele><time>2026-05-02T09:47:57Z</time></trkpt><trkpt lat="42.21439192389906" lon="13.777190236098862"><ele>701.0</ele><time>2026-05-02T09:47:58Z</time></trkpt><trkpt lat="42.21434568960063" lon="13.777304513016382"><ele>701.0</ele><time>2026-05-02T09:47:59Z</time></trkpt><trkpt lat="42.214301819803396" lon="13.777404730560658"><ele>701.0</ele><time>2026-05-02T09:48:00Z</time></trkpt><trkpt lat="42.21426407611046" lon="13.777486834958141"><ele>701.0</ele><time>2026-05-02T09:48:01Z</time></trkpt><trkpt lat="42.21415569725189" lon="13.777496697756938"><ele>701.0</ele><time>2026-05-02T09:48:03Z</time></trkpt><trkpt lat="42.21412469074345" lon="13.77741354026567"><ele>701.0</ele><time>2026-05-02T09:48:04Z</time></trkpt><trkpt lat="42.21413517829511" lon="13.77730052342201"><ele>701.0</ele><time>2026-05-02T09:48:05Z</time></trkpt><trkpt lat="42.21419684838809" lon="13.777195381879626"><ele>701.0</ele><time>2026-05-02T09:48:06Z</time></trkpt><trkpt lat="42.21422441433708" lon="13.777060865439669"><ele>701.0</ele><time>2026-05-02T09:48:07Z</time></trkpt><trkpt lat="42.214255504641024" lon="13.776909895142706"><ele>701.0</ele><time>2026-05-02T09:48:08Z</time></trkpt><trkpt lat="42.21428479963173" lon="13.776769411581341"><ele>701.0</ele><time>2026-05-02T09:48:09Z</time></trkpt><trkpt lat="42.214309851442586" lon="13.776668383230017"><ele>700.0</ele><time>2026-05-02T09:48:10Z</time></trkpt><trkpt lat="42.21434173242788" lon="13.776549730955432"><ele>699.0</ele><time>2026-05-02T09:48:12Z</time></trkpt><trkpt lat="42.21421138275528" lon="13.776519639951994"><ele>698.0</ele><time>2026-05-02T09:48:17Z</time></trkpt><trkpt lat="42.214178620788914" lon="13.776606595644472"><ele>697.0</ele><time>2026-05-02T09:48:18Z</time></trkpt><trkpt lat="42.21408863728167" lon="13.776679097456713"><ele>696.0</ele><time>2026-05-02T09:48:20Z</time></trkpt><trkpt lat="42.21400794274375" lon="13.776711384229515"><ele>695.0</ele><time>2026-05-02T09:48:22Z</time></trkpt><trkpt lat="42.21389864330403" lon="13.77670571071302"><ele>694.0</ele><time>2026-05-02T09:48:24Z</time></trkpt><trkpt lat="42.21382965552981" lon="13.776709224376383"><ele>693.0</ele><time>2026-05-02T09:48:25Z</time></trkpt><trkpt lat="42.21375673802129" lon="13.776710825908461"><ele>692.0</ele><time>2026-05-02T09:48:26Z</time></trkpt><trkpt lat="42.213682532139046" lon="13.7767075982946"><ele>691.0</ele><time>2026-05-02T09:48:27Z</time></trkpt><trkpt lat="42.21360597173433" lon="13.776698515275038"><ele>690.0</ele><time>2026-05-02T09:48:28Z</time></trkpt><trkpt lat="42.213535249378964" lon="13.776676542354254"><ele>690.0</ele><time>2026-05-02T09:48:29Z</time></trkpt><trkpt lat="42.21346886765318" lon="13.776639701779796"><ele>690.0</ele><time>2026-05-02T09:48:30Z</time></trkpt><trkpt lat="42.213389737649216" lon="13.7765884541482"><ele>690.0</ele><time>2026-05-02T09:48:31Z</time></trkpt><trkpt lat="42.213300722986546" lon="13.776549253079008"><ele>690.0</ele><time>2026-05-02T09:48:32Z</time></trkpt><trkpt lat="42.213222792228024" lon="13.776463298435772"><ele>690.0</ele><time>2026-05-02T09:48:33Z</time></trkpt><trkpt lat="42.21314153553291" lon="13.776399258654811"><ele>690.0</ele><time>2026-05-02T09:48:34Z</time></trkpt><trkpt lat="42.21305338036529" lon="13.77636505943313"><ele>690.0</ele><time>2026-05-02T09:48:35Z</time></trkpt><trkpt lat="42.2129777796117" lon="13.776331353877575"><ele>690.0</ele><time>2026-05-02T09:48:36Z</time></trkpt><trkpt lat="42.21287227099931" lon="13.776360497020987"><ele>690.0</ele><time>2026-05-02T09:48:38Z</time></trkpt><trkpt lat="42.21280308253184" lon="13.776406891839644"><ele>690.0</ele><time>2026-05-02T09:48:39Z</time></trkpt><trkpt lat="42.212719277350416" lon="13.776472109023452"><ele>690.0</ele><time>2026-05-02T09:48:40Z</time></trkpt><trkpt lat="42.21262544568375" lon="13.77656006046893"><ele>690.0</ele><time>2026-05-02T09:48:41Z</time></trkpt><trkpt lat="42.2125316563245" lon="13.77665087478174"><ele>690.0</ele><time>2026-05-02T09:48:42Z</time></trkpt><trkpt lat="42.21246637100766" lon="13.776758287024183"><ele>690.0</ele><time>2026-05-02T09:48:43Z</time></trkpt><trkpt lat="42.21238579636005" lon="13.776816852501634"><ele>690.0</ele><time>2026-05-02T09:48:44Z</time></trkpt><trkpt lat="42.21231834602166" lon="13.776878380876209"><ele>690.0</ele><time>2026-05-02T09:48:45Z</time></trkpt><trkpt lat="42.21225668072575" lon="13.77695327748096"><ele>688.6666666666666</ele><time>2026-05-02T09:48:46Z</time></trkpt><trkpt lat="42.21217961300384" lon="13.776995614568738"><ele>687.3333333333334</ele><time>2026-05-02T09:48:47Z</time></trkpt><trkpt lat="42.21210197927799" lon="13.777051288142564"><ele>686.0</ele><time>2026-05-02T09:48:48Z</time></trkpt><trkpt lat="42.21203041756392" lon="13.77710086507197"><ele>684.6666666666667</ele><time>2026-05-02T09:48:49Z</time></trkpt><trkpt lat="42.21196796349741" lon="13.777139491703984"><ele>683.3333333333334</ele><time>2026-05-02T09:48:50Z</time></trkpt><trkpt lat="42.21185492809047" lon="13.777188016447948"><ele>682.0</ele><time>2026-05-02T09:48:52Z</time></trkpt><trkpt lat="42.21179037359045" lon="13.777183797244609"><ele>682.0</ele><time>2026-05-02T09:48:53Z</time></trkpt><trkpt lat="42.211701657701724" lon="13.777165228638196"><ele>682.0</ele><time>2026-05-02T09:48:54Z</time></trkpt><trkpt lat="42.2116054633919" lon="13.777140221721375"><ele>682.0</ele><time>2026-05-02T09:48:55Z</time></trkpt><trkpt lat="42.211513952702006" lon="13.777096075349013"><ele>682.0</ele><time>2026-05-02T09:48:56Z</time></trkpt><trkpt lat="42.211428310524845" lon="13.77702814124301"><ele>682.0</ele><time>2026-05-02T09:48:57Z</time></trkpt><trkpt lat="42.211351797564475" lon="13.77694987775979"><ele>681.8</ele><time>2026-05-02T09:48:58Z</time></trkpt><trkpt lat="42.211273721630505" lon="13.776865995907885"><ele>681.6</ele><time>2026-05-02T09:48:59Z</time></trkpt><trkpt lat="42.211182377567795" lon="13.776795044827663"><ele>681.4</ele><time>2026-05-02T09:49:00Z</time></trkpt><trkpt lat="42.211101594580605" lon="13.776707616017854"><ele>681.1999999999999</ele><time>2026-05-02T09:49:01Z</time></trkpt><trkpt lat="42.211036151909965" lon="13.776606303127313"><ele>681.0</ele><time>2026-05-02T09:49:02Z</time></trkpt><trkpt lat="42.21096022746908" lon="13.776541503243287"><ele>681.0</ele><time>2026-05-02T09:49:03Z</time></trkpt><trkpt lat="42.21090498437217" lon="13.776456427875695"><ele>681.0</ele><time>2026-05-02T09:49:04Z</time></trkpt><trkpt lat="42.210850510727155" lon="13.776386291978497"><ele>681.0</ele><time>2026-05-02T09:49:05Z</time></trkpt><trkpt lat="42.210797835474104" lon="13.776311289272577"><ele>681.0</ele><time>2026-05-02T09:49:06Z</time></trkpt><trkpt lat="42.21074416396311" lon="13.77623486886321"><ele>681.0</ele><time>2026-05-02T09:49:07Z</time></trkpt><trkpt lat="42.21065642631924" lon="13.776227344328245"><ele>681.0</ele><time>2026-05-02T09:49:08Z</time></trkpt><trkpt lat="42.210601372449254" lon="13.776138861403451"><ele>680.5</ele><time>2026-05-02T09:49:09Z</time></trkpt><trkpt lat="42.21051040569522" lon="13.776092967833353"><ele>680.0</ele><time>2026-05-02T09:49:10Z</time></trkpt><trkpt lat="42.210402695606234" lon="13.776048304308812"><ele>679.5</ele><time>2026-05-02T09:49:11Z</time></trkpt><trkpt lat="42.210283228848034" lon="13.775998160056451"><ele>679.0</ele><time>2026-05-02T09:49:12Z</time></trkpt><trkpt lat="42.21016086780584" lon="13.775939490950645"><ele>679.0</ele><time>2026-05-02T09:49:13Z</time></trkpt><trkpt lat="42.2100483338069" lon="13.775882013129658"><ele>679.0</ele><time>2026-05-02T09:49:14Z</time></trkpt><trkpt lat="42.20994771877407" lon="13.775832992090649"><ele>679.0</ele><time>2026-05-02T09:49:15Z</time></trkpt><trkpt lat="42.20984594929745" lon="13.775782643626501"><ele>679.0</ele><time>2026-05-02T09:49:16Z</time></trkpt><trkpt lat="42.20973379790194" lon="13.775735034016904"><ele>679.0</ele><time>2026-05-02T09:49:17Z</time></trkpt><trkpt lat="42.20961601599777" lon="13.77568689027886"><ele>679.0</ele><time>2026-05-02T09:49:18Z</time></trkpt><trkpt lat="42.20949960637639" lon="13.775639227176978"><ele>679.0</ele><time>2026-05-02T09:49:19Z</time></trkpt><trkpt lat="42.20938796780044" lon="13.775595767406871"><ele>679.0</ele><time>2026-05-02T09:49:20Z</time></trkpt><trkpt lat="42.20928724022464" lon="13.77555841696668"><ele>679.0</ele><time>2026-05-02T09:49:21Z</time></trkpt><trkpt lat="42.20918766392371" lon="13.775529390428206"><ele>679.0</ele><time>2026-05-02T09:49:22Z</time></trkpt><trkpt lat="42.20909735212555" lon="13.77550554182935"><ele>679.0</ele><time>2026-05-02T09:49:23Z</time></trkpt><trkpt lat="42.2090102927882" lon="13.77548677353151"><ele>679.0</ele><time>2026-05-02T09:49:24Z</time></trkpt><trkpt lat="42.20892561406637" lon="13.775489541642367"><ele>679.0</ele><time>2026-05-02T09:49:25Z</time></trkpt><trkpt lat="42.20883809248566" lon="13.775504815525748"><ele>678.8333333333334</ele><time>2026-05-02T09:49:26Z</time></trkpt><trkpt lat="42.20875698353701" lon="13.77553392001"><ele>678.6666666666667</ele><time>2026-05-02T09:49:27Z</time></trkpt><trkpt lat="42.20867764811157" lon="13.775569994813871"><ele>678.5</ele><time>2026-05-02T09:49:28Z</time></trkpt><trkpt lat="42.208604492311004" lon="13.775600285361433"><ele>678.3333333333334</ele><time>2026-05-02T09:49:29Z</time></trkpt><trkpt lat="42.208536166919345" lon="13.775617620451671"><ele>678.1666666666666</ele><time>2026-05-02T09:49:30Z</time></trkpt><trkpt lat="42.20842108901993" lon="13.775616257647538"><ele>678.0</ele><time>2026-05-02T09:49:32Z</time></trkpt><trkpt lat="42.20830844844647" lon="13.775534391606197"><ele>678.0</ele><time>2026-05-02T09:49:34Z</time></trkpt><trkpt lat="42.20824410904134" lon="13.775473965029912"><ele>678.0</ele><time>2026-05-02T09:49:35Z</time></trkpt><trkpt lat="42.20816872208573" lon="13.775414425712583"><ele>678.0</ele><time>2026-05-02T09:49:36Z</time></trkpt><trkpt lat="42.2080841437134" lon="13.775353815428506"><ele>678.0</ele><time>2026-05-02T09:49:37Z</time></trkpt><trkpt lat="42.20800012261161" lon="13.775283688064073"><ele>678.0</ele><time>2026-05-02T09:49:38Z</time></trkpt><trkpt lat="42.20790186634077" lon="13.775195910447994"><ele>678.0</ele><time>2026-05-02T09:49:39Z</time></trkpt><trkpt lat="42.20780135647671" lon="13.775102744217344"><ele>678.0</ele><time>2026-05-02T09:49:40Z</time></trkpt><trkpt lat="42.20769641091181" lon="13.775003875754784"><ele>678.0</ele><time>2026-05-02T09:49:41Z</time></trkpt><trkpt lat="42.20759667983677" lon="13.7749147407428"><ele>678.0</ele><time>2026-05-02T09:49:42Z</time></trkpt><trkpt lat="42.207511366883985" lon="13.774836086795387"><ele>678.0</ele><time>2026-05-02T09:49:43Z</time></trkpt><trkpt lat="42.20744116107731" lon="13.77476790170178"><ele>678.0</ele><time>2026-05-02T09:49:44Z</time></trkpt><trkpt lat="42.20737505607397" lon="13.774704343127178"><ele>678.0</ele><time>2026-05-02T09:49:45Z</time></trkpt><trkpt lat="42.20728550080781" lon="13.774604693710666"><ele>678.0</ele><time>2026-05-02T09:49:47Z</time></trkpt><trkpt lat="42.20723434547461" lon="13.774532647047918"><ele>678.0</ele><time>2026-05-02T09:49:49Z</time></trkpt><trkpt lat="42.20710270987249" lon="13.774502963607155"><ele>678.5999999999999</ele><time>2026-05-02T09:49:53Z</time></trkpt><trkpt lat="42.2070174829223" lon="13.774551960363858"><ele>679.1999999999999</ele><time>2026-05-02T09:49:54Z</time></trkpt><trkpt lat="42.20692634968275" lon="13.774615492007777"><ele>679.8</ele><time>2026-05-02T09:49:55Z</time></trkpt><trkpt lat="42.20681870064092" lon="13.774677377142698"><ele>680.4</ele><time>2026-05-02T09:49:56Z</time></trkpt><trkpt lat="42.20669310589248" lon="13.774745744476217"><ele>681.0</ele><time>2026-05-02T09:49:57Z</time></trkpt><trkpt lat="42.206573600206866" lon="13.774812910148476"><ele>681.0</ele><time>2026-05-02T09:49:58Z</time></trkpt><trkpt lat="42.206449957409085" lon="13.774882877561813"><ele>681.0</ele><time>2026-05-02T09:49:59Z</time></trkpt><trkpt lat="42.206326402028594" lon="13.774953100707913"><ele>681.0</ele><time>2026-05-02T09:50:00Z</time></trkpt><trkpt lat="42.20619788001372" lon="13.775026998484988"><ele>681.0</ele><time>2026-05-02T09:50:01Z</time></trkpt><trkpt lat="42.206062382384204" lon="13.77510853308899"><ele>681.0</ele><time>2026-05-02T09:50:02Z</time></trkpt><trkpt lat="42.2059218624936" lon="13.775185993291123"><ele>681.0</ele><time>2026-05-02T09:50:03Z</time></trkpt><trkpt lat="42.2057850338612" lon="13.775261932513109"><ele>681.0</ele><time>2026-05-02T09:50:04Z</time></trkpt><trkpt lat="42.20564819097904" lon="13.775339700147184"><ele>681.0</ele><time>2026-05-02T09:50:05Z</time></trkpt><trkpt lat="42.205512473600855" lon="13.77541583313456"><ele>681.75</ele><time>2026-05-02T09:50:06Z</time></trkpt><trkpt lat="42.20537635652506" lon="13.775491473222356"><ele>682.5</ele><time>2026-05-02T09:50:07Z</time></trkpt><trkpt lat="42.20524035453102" lon="13.775566516495237"><ele>683.25</ele><time>2026-05-02T09:50:08Z</time></trkpt><trkpt lat="42.205106327423415" lon="13.775643479702483"><ele>684.0</ele><time>2026-05-02T09:50:09Z</time></trkpt><trkpt lat="42.20497293749631" lon="13.775720967473902"><ele>684.0</ele><time>2026-05-02T09:50:10Z</time></trkpt><trkpt lat="42.204839356646985" lon="13.775795986122287"><ele>684.0</ele><time>2026-05-02T09:50:11Z</time></trkpt><trkpt lat="42.204703087943095" lon="13.775871504085375"><ele>684.0</ele><time>2026-05-02T09:50:12Z</time></trkpt><trkpt lat="42.204557096570525" lon="13.775953767073721"><ele>684.3333333333334</ele><time>2026-05-02T09:50:13Z</time></trkpt><trkpt lat="42.20439620723869" lon="13.776049474244939"><ele>684.6666666666667</ele><time>2026-05-02T09:50:14Z</time></trkpt><trkpt lat="42.20422057253498" lon="13.776150797260378"><ele>685.0</ele><time>2026-05-02T09:50:15Z</time></trkpt><trkpt lat="42.2040351844666" lon="13.776255201605172"><ele>686.6666666666667</ele><time>2026-05-02T09:50:16Z</time></trkpt><trkpt lat="42.203847818315644" lon="13.776361574014777"><ele>688.3333333333334</ele><time>2026-05-02T09:50:17Z</time></trkpt><trkpt lat="42.20366736095123" lon="13.776461752741435"><ele>690.0</ele><time>2026-05-02T09:50:18Z</time></trkpt><trkpt lat="42.203495605015675" lon="13.776557649446735"><ele>690.0</ele><time>2026-05-02T09:50:19Z</time></trkpt><trkpt lat="42.203338495998594" lon="13.776646049492792"><ele>690.0</ele><time>2026-05-02T09:50:20Z</time></trkpt><trkpt lat="42.20318620735428" lon="13.776731133780261"><ele>690.0</ele><time>2026-05-02T09:50:21Z</time></trkpt><trkpt lat="42.203042135459775" lon="13.776811599736986"><ele>693.5</ele><time>2026-05-02T09:50:22Z</time></trkpt><trkpt lat="42.20290264140101" lon="13.776889381980991"><ele>697.0</ele><time>2026-05-02T09:50:23Z</time></trkpt><trkpt lat="42.20277055888763" lon="13.776962721121906"><ele>700.5</ele><time>2026-05-02T09:50:24Z</time></trkpt><trkpt lat="42.20264498395347" lon="13.777032313885453"><ele>704.0</ele><time>2026-05-02T09:50:25Z</time></trkpt><trkpt lat="42.20252750255915" lon="13.777096211256307"><ele>704.0</ele><time>2026-05-02T09:50:26Z</time></trkpt><trkpt lat="42.20242643955881" lon="13.777163080361825"><ele>704.0</ele><time>2026-05-02T09:50:27Z</time></trkpt><trkpt lat="42.202334941127916" lon="13.777247229219363"><ele>704.0</ele><time>2026-05-02T09:50:28Z</time></trkpt><trkpt lat="42.20227336138579" lon="13.777373674954866"><ele>704.0</ele><time>2026-05-02T09:50:29Z</time></trkpt><trkpt lat="42.2022374090961" lon="13.777530542729828"><ele>703.0</ele><time>2026-05-02T09:50:30Z</time></trkpt><trkpt lat="42.2022040658518" lon="13.777715516892163"><ele>702.0</ele><time>2026-05-02T09:50:31Z</time></trkpt><trkpt lat="42.20216486228551" lon="13.777921937277156"><ele>701.0</ele><time>2026-05-02T09:50:32Z</time></trkpt><trkpt lat="42.202113912811505" lon="13.778154920278682"><ele>701.0</ele><time>2026-05-02T09:50:33Z</time></trkpt><trkpt lat="42.20206065641848" lon="13.77840458981015"><ele>701.0</ele><time>2026-05-02T09:50:34Z</time></trkpt><trkpt lat="42.20200584451215" lon="13.778661397246891"><ele>701.0</ele><time>2026-05-02T09:50:35Z</time></trkpt><trkpt lat="42.201950696586785" lon="13.778917296952109"><ele>703.0</ele><time>2026-05-02T09:50:36Z</time></trkpt><trkpt lat="42.201900003484695" lon="13.77916418526253"><ele>705.0</ele><time>2026-05-02T09:50:37Z</time></trkpt><trkpt lat="42.2018509679874" lon="13.779407793451671"><ele>707.0</ele><time>2026-05-02T09:50:38Z</time></trkpt><trkpt lat="42.20180319272847" lon="13.779643217213454"><ele>710.0</ele><time>2026-05-02T09:50:39Z</time></trkpt><trkpt lat="42.201758468018966" lon="13.779874653876064"><ele>713.0</ele><time>2026-05-02T09:50:40Z</time></trkpt><trkpt lat="42.201717275724995" lon="13.780102250089934"><ele>716.0</ele><time>2026-05-02T09:50:41Z</time></trkpt><trkpt lat="42.201681809663796" lon="13.780327720090177"><ele>718.0</ele><time>2026-05-02T09:50:42Z</time></trkpt><trkpt lat="42.201656563285006" lon="13.780554426798908"><ele>720.0</ele><time>2026-05-02T09:50:43Z</time></trkpt><trkpt lat="42.20164439700184" lon="13.780784144748848"><ele>722.0</ele><time>2026-05-02T09:50:44Z</time></trkpt><trkpt lat="42.20164443939806" lon="13.781017695663271"><ele>723.3333333333333</ele><time>2026-05-02T09:50:45Z</time></trkpt><trkpt lat="42.20165860506019" lon="13.781250074293858"><ele>724.6666666666666</ele><time>2026-05-02T09:50:46Z</time></trkpt><trkpt lat="42.201681365278255" lon="13.781476395752577"><ele>726.0</ele><time>2026-05-02T09:50:47Z</time></trkpt><trkpt lat="42.2017046974371" lon="13.781693200968816"><ele>728.0</ele><time>2026-05-02T09:50:48Z</time></trkpt><trkpt lat="42.201713600027446" lon="13.78189781456547"><ele>730.0</ele><time>2026-05-02T09:50:49Z</time></trkpt><trkpt lat="42.20170038114247" lon="13.782087118857083"><ele>732.0</ele><time>2026-05-02T09:50:50Z</time></trkpt><trkpt lat="42.201655228112514" lon="13.782261919207851"><ele>734.0</ele><time>2026-05-02T09:50:51Z</time></trkpt><trkpt lat="42.20159210878988" lon="13.782440722210094"><ele>734.0</ele><time>2026-05-02T09:50:52Z</time></trkpt><trkpt lat="42.20152164770817" lon="13.782633397977024"><ele>734.0</ele><time>2026-05-02T09:50:53Z</time></trkpt><trkpt lat="42.20145155110857" lon="13.782838369679546"><ele>734.0</ele><time>2026-05-02T09:50:54Z</time></trkpt><trkpt lat="42.20138098680117" lon="13.783046318303036"><ele>733.3333333333333</ele><time>2026-05-02T09:50:55Z</time></trkpt><trkpt lat="42.20130772153176" lon="13.783251726826633"><ele>732.6666666666666</ele><time>2026-05-02T09:50:56Z</time></trkpt><trkpt lat="42.201224717928724" lon="13.783442568796703"><ele>732.0</ele><time>2026-05-02T09:50:57Z</time></trkpt><trkpt lat="42.201134905613884" lon="13.783634721647104"><ele>737.0</ele><time>2026-05-02T09:50:58Z</time></trkpt><trkpt lat="42.20104512927166" lon="13.783820691938828"><ele>742.0</ele><time>2026-05-02T09:50:59Z</time></trkpt><trkpt lat="42.200956808215814" lon="13.78400869333692"><ele>747.0</ele><time>2026-05-02T09:51:00Z</time></trkpt><trkpt lat="42.2008716776102" lon="13.784191966219707"><ele>749.25</ele><time>2026-05-02T09:51:01Z</time></trkpt><trkpt lat="42.20079435662196" lon="13.784354488844414"><ele>751.5</ele><time>2026-05-02T09:51:02Z</time></trkpt><trkpt lat="42.2007198825063" lon="13.784503007358882"><ele>753.75</ele><time>2026-05-02T09:51:03Z</time></trkpt><trkpt lat="42.20064179834578" lon="13.784644295002021"><ele>756.0</ele><time>2026-05-02T09:51:04Z</time></trkpt><trkpt lat="42.20055869061065" lon="13.784772161148025"><ele>756.0</ele><time>2026-05-02T09:51:05Z</time></trkpt><trkpt lat="42.200474262108045" lon="13.784887156321743"><ele>756.0</ele><time>2026-05-02T09:51:06Z</time></trkpt><trkpt lat="42.2003955162447" lon="13.784996751467327"><ele>756.0</ele><time>2026-05-02T09:51:07Z</time></trkpt><trkpt lat="42.200328439271786" lon="13.785091962822321"><ele>756.0</ele><time>2026-05-02T09:51:08Z</time></trkpt><trkpt lat="42.200277655176926" lon="13.78516596785194"><ele>756.0</ele><time>2026-05-02T09:51:09Z</time></trkpt><trkpt lat="42.20020729087253" lon="13.785197666512119"><ele>756.0</ele><time>2026-05-02T09:51:11Z</time></trkpt><trkpt lat="42.2001676531108" lon="13.785090273595097"><ele>756.0</ele><time>2026-05-02T09:51:13Z</time></trkpt><trkpt lat="42.20016641335233" lon="13.784981041725285"><ele>756.0</ele><time>2026-05-02T09:51:14Z</time></trkpt><trkpt lat="42.20015838691058" lon="13.784854394015463"><ele>756.0</ele><time>2026-05-02T09:51:15Z</time></trkpt><trkpt lat="42.20012558480388" lon="13.784709396000729"><ele>756.0</ele><time>2026-05-02T09:51:16Z</time></trkpt><trkpt lat="42.20008990918248" lon="13.784553197172418"><ele>756.0</ele><time>2026-05-02T09:51:17Z</time></trkpt><trkpt lat="42.20003835964003" lon="13.784409048759136"><ele>756.0</ele><time>2026-05-02T09:51:18Z</time></trkpt><trkpt lat="42.1999823894174" lon="13.784250113475546"><ele>756.0</ele><time>2026-05-02T09:51:19Z</time></trkpt><trkpt lat="42.199918264215" lon="13.784088714825467"><ele>756.0</ele><time>2026-05-02T09:51:20Z</time></trkpt><trkpt lat="42.199845453615495" lon="13.783922437063826"><ele>759.0</ele><time>2026-05-02T09:51:21Z</time></trkpt><trkpt lat="42.199786357697484" lon="13.783747398954958"><ele>762.0</ele><time>2026-05-02T09:51:22Z</time></trkpt><trkpt lat="42.199764397841584" lon="13.783574704269547"><ele>765.0</ele><time>2026-05-02T09:51:23Z</time></trkpt><trkpt lat="42.1997640687427" lon="13.78341391183685"><ele>768.0</ele><time>2026-05-02T09:51:24Z</time></trkpt><trkpt lat="42.199744069358246" lon="13.783269347361685"><ele>768.0</ele><time>2026-05-02T09:51:25Z</time></trkpt><trkpt lat="42.19968513741614" lon="13.783146471385235"><ele>768.0</ele><time>2026-05-02T09:51:26Z</time></trkpt><trkpt lat="42.199591571947806" lon="13.783049201496945"><ele>768.0</ele><time>2026-05-02T09:51:27Z</time></trkpt><trkpt lat="42.19947442052352" lon="13.782970282247756"><ele>768.0</ele><time>2026-05-02T09:51:28Z</time></trkpt><trkpt lat="42.1993490805507" lon="13.782902949764004"><ele>768.0</ele><time>2026-05-02T09:51:29Z</time></trkpt><trkpt lat="42.19921193876379" lon="13.78286913331605"><ele>768.0</ele><time>2026-05-02T09:51:30Z</time></trkpt><trkpt lat="42.19906295886125" lon="13.782874163077752"><ele>768.0</ele><time>2026-05-02T09:51:31Z</time></trkpt><trkpt lat="42.19890720002227" lon="13.782881638457598"><ele>768.0</ele><time>2026-05-02T09:51:32Z</time></trkpt><trkpt lat="42.19874988940526" lon="13.782853356536581"><ele>769.6666666666667</ele><time>2026-05-02T09:51:33Z</time></trkpt><trkpt lat="42.198588362894434" lon="13.782787038433554"><ele>771.3333333333334</ele><time>2026-05-02T09:51:34Z</time></trkpt><trkpt lat="42.19843725813363" lon="13.782726370995345"><ele>773.0</ele><time>2026-05-02T09:51:35Z</time></trkpt><trkpt lat="42.19827516620524" lon="13.782691913474924"><ele>774.3333333333334</ele><time>2026-05-02T09:51:36Z</time></trkpt><trkpt lat="42.19810633857752" lon="13.782687922171965"><ele>775.6666666666667</ele><time>2026-05-02T09:51:37Z</time></trkpt><trkpt lat="42.19793698317913" lon="13.782698115083063"><ele>777.0</ele><time>2026-05-02T09:51:38Z</time></trkpt><trkpt lat="42.19777254904961" lon="13.782717453345734"><ele>777.0</ele><time>2026-05-02T09:51:39Z</time></trkpt><trkpt lat="42.19761063241172" lon="13.782741899308576"><ele>777.0</ele><time>2026-05-02T09:51:40Z</time></trkpt><trkpt lat="42.19745941756602" lon="13.782748852275825"><ele>777.0</ele><time>2026-05-02T09:51:41Z</time></trkpt><trkpt lat="42.19731491196198" lon="13.78272667067459"><ele>776.25</ele><time>2026-05-02T09:51:42Z</time></trkpt><trkpt lat="42.1971779961034" lon="13.782679384612361"><ele>775.5</ele><time>2026-05-02T09:51:43Z</time></trkpt><trkpt lat="42.19705934006563" lon="13.782608144239212"><ele>774.75</ele><time>2026-05-02T09:51:44Z</time></trkpt><trkpt lat="42.19697956181718" lon="13.782481554811804"><ele>774.0</ele><time>2026-05-02T09:51:45Z</time></trkpt><trkpt lat="42.196909291886776" lon="13.78234721165509"><ele>774.0</ele><time>2026-05-02T09:51:46Z</time></trkpt><trkpt lat="42.1968259213392" lon="13.782224271714144"><ele>774.0</ele><time>2026-05-02T09:51:47Z</time></trkpt><trkpt lat="42.19674065678919" lon="13.782108367714905"><ele>774.0</ele><time>2026-05-02T09:51:48Z</time></trkpt><trkpt lat="42.19662143266791" lon="13.782043130406178"><ele>774.0</ele><time>2026-05-02T09:51:49Z</time></trkpt><trkpt lat="42.19648722135231" lon="13.781998684222511"><ele>778.0</ele><time>2026-05-02T09:51:50Z</time></trkpt><trkpt lat="42.19634101415757" lon="13.781972171230784"><ele>782.0</ele><time>2026-05-02T09:51:51Z</time></trkpt><trkpt lat="42.1961852077291" lon="13.781915789087348"><ele>786.0</ele><time>2026-05-02T09:51:52Z</time></trkpt><trkpt lat="42.19601638525587" lon="13.781901148524272"><ele>786.0</ele><time>2026-05-02T09:51:53Z</time></trkpt><trkpt lat="42.195842344308794" lon="13.781858594518143"><ele>786.0</ele><time>2026-05-02T09:51:54Z</time></trkpt><trkpt lat="42.19566443421397" lon="13.78182118799928"><ele>786.0</ele><time>2026-05-02T09:51:55Z</time></trkpt><trkpt lat="42.19548694773864" lon="13.781782671163509"><ele>784.3333333333333</ele><time>2026-05-02T09:51:56Z</time></trkpt><trkpt lat="42.19531904951351" lon="13.781745571964178"><ele>782.6666666666666</ele><time>2026-05-02T09:51:57Z</time></trkpt><trkpt lat="42.195164208943126" lon="13.781715378401982"><ele>781.0</ele><time>2026-05-02T09:51:58Z</time></trkpt><trkpt lat="42.19501350029105" lon="13.781705695584906"><ele>781.0</ele><time>2026-05-02T09:51:59Z</time></trkpt><trkpt lat="42.19486101877924" lon="13.781723924703728"><ele>781.0</ele><time>2026-05-02T09:52:00Z</time></trkpt><trkpt lat="42.194713469001904" lon="13.781739577858128"><ele>781.0</ele><time>2026-05-02T09:52:01Z</time></trkpt><trkpt lat="42.194573791328516" lon="13.781740758586245"><ele>781.0</ele><time>2026-05-02T09:52:02Z</time></trkpt><trkpt lat="42.19444504262325" lon="13.78172767611468"><ele>782.1999999999999</ele><time>2026-05-02T09:52:03Z</time></trkpt><trkpt lat="42.1943256368039" lon="13.78169253280926"><ele>783.4</ele><time>2026-05-02T09:52:04Z</time></trkpt><trkpt lat="42.19421795694098" lon="13.781627827947746"><ele>784.6</ele><time>2026-05-02T09:52:05Z</time></trkpt><trkpt lat="42.19413107570359" lon="13.78154208200402"><ele>785.8</ele><time>2026-05-02T09:52:06Z</time></trkpt><trkpt lat="42.19406631123708" lon="13.781442291516479"><ele>787.0</ele><time>2026-05-02T09:52:07Z</time></trkpt><trkpt lat="42.19402036487222" lon="13.781319040719767"><ele>790.5</ele><time>2026-05-02T09:52:08Z</time></trkpt><trkpt lat="42.19399459789485" lon="13.78117759235074"><ele>794.0</ele><time>2026-05-02T09:52:09Z</time></trkpt><trkpt lat="42.19397880073862" lon="13.78101950185823"><ele>797.5</ele><time>2026-05-02T09:52:10Z</time></trkpt><trkpt lat="42.19396233884299" lon="13.780850508630621"><ele>801.0</ele><time>2026-05-02T09:52:11Z</time></trkpt><trkpt lat="42.193952959109545" lon="13.78067309060554"><ele>802.0</ele><time>2026-05-02T09:52:12Z</time></trkpt><trkpt lat="42.193957270346715" lon="13.780486778897432"><ele>803.0</ele><time>2026-05-02T09:52:13Z</time></trkpt><trkpt lat="42.193976466387014" lon="13.780297898439416"><ele>804.0</ele><time>2026-05-02T09:52:14Z</time></trkpt><trkpt lat="42.19401210676" lon="13.780111966029954"><ele>805.0</ele><time>2026-05-02T09:52:15Z</time></trkpt><trkpt lat="42.19405026990023" lon="13.779928496910149"><ele>802.75</ele><time>2026-05-02T09:52:16Z</time></trkpt><trkpt lat="42.19408621079021" lon="13.779749006868213"><ele>800.5</ele><time>2026-05-02T09:52:17Z</time></trkpt><trkpt lat="42.19412146878359" lon="13.779574306866072"><ele>798.25</ele><time>2026-05-02T09:52:18Z</time></trkpt><trkpt lat="42.19414841429188" lon="13.779402956948148"><ele>796.0</ele><time>2026-05-02T09:52:19Z</time></trkpt><trkpt lat="42.194168238224975" lon="13.779231457149328"><ele>796.0</ele><time>2026-05-02T09:52:20Z</time></trkpt><trkpt lat="42.1941697778559" lon="13.77904983026255"><ele>796.0</ele><time>2026-05-02T09:52:21Z</time></trkpt><trkpt lat="42.19414990041487" lon="13.778854578348803"><ele>796.0</ele><time>2026-05-02T09:52:22Z</time></trkpt><trkpt lat="42.194122921358755" lon="13.778648726852543"><ele>796.0</ele><time>2026-05-02T09:52:23Z</time></trkpt><trkpt lat="42.19410227983854" lon="13.77842997538597"><ele>799.0</ele><time>2026-05-02T09:52:24Z</time></trkpt><trkpt lat="42.19410560411999" lon="13.778211507357316"><ele>802.0</ele><time>2026-05-02T09:52:25Z</time></trkpt><trkpt lat="42.194126877503756" lon="13.777990562112945"><ele>805.0</ele><time>2026-05-02T09:52:26Z</time></trkpt><trkpt lat="42.194152965414666" lon="13.777766998916173"><ele>808.3333333333333</ele><time>2026-05-02T09:52:27Z</time></trkpt><trkpt lat="42.19418184634262" lon="13.77754613455815"><ele>811.6666666666667</ele><time>2026-05-02T09:52:28Z</time></trkpt><trkpt lat="42.194217869474734" lon="13.777329738938253"><ele>815.0</ele><time>2026-05-02T09:52:29Z</time></trkpt><trkpt lat="42.19426699620027" lon="13.777113513375443"><ele>815.0</ele><time>2026-05-02T09:52:30Z</time></trkpt><trkpt lat="42.194332700312415" lon="13.77690351544225"><ele>815.0</ele><time>2026-05-02T09:52:31Z</time></trkpt><trkpt lat="42.194412246356066" lon="13.776700291739223"><ele>815.0</ele><time>2026-05-02T09:52:32Z</time></trkpt><trkpt lat="42.19449964559693" lon="13.776502762872308"><ele>817.6666666666667</ele><time>2026-05-02T09:52:33Z</time></trkpt><trkpt lat="42.194605605321655" lon="13.776327124879202"><ele>820.3333333333333</ele><time>2026-05-02T09:52:34Z</time></trkpt><trkpt lat="42.1946647822672" lon="13.776141257575308"><ele>823.0</ele><time>2026-05-02T09:52:35Z</time></trkpt><trkpt lat="42.194719499102774" lon="13.775959386284365"><ele>821.0</ele><time>2026-05-02T09:52:36Z</time></trkpt><trkpt lat="42.19477550222444" lon="13.775775241305764"><ele>819.0</ele><time>2026-05-02T09:52:37Z</time></trkpt><trkpt lat="42.194851615994146" lon="13.775605873569631"><ele>817.0</ele><time>2026-05-02T09:52:38Z</time></trkpt><trkpt lat="42.19495160954765" lon="13.775459873147325"><ele>815.0</ele><time>2026-05-02T09:52:39Z</time></trkpt><trkpt lat="42.19506456508402" lon="13.77532538297788"><ele>818.6666666666667</ele><time>2026-05-02T09:52:40Z</time></trkpt><trkpt lat="42.195170833123704" lon="13.775174503488415"><ele>822.3333333333333</ele><time>2026-05-02T09:52:41Z</time></trkpt><trkpt lat="42.195272582722495" lon="13.77500391558273"><ele>826.0</ele><time>2026-05-02T09:52:42Z</time></trkpt><trkpt lat="42.19538821905834" lon="13.774836837885394"><ele>826.0</ele><time>2026-05-02T09:52:43Z</time></trkpt><trkpt lat="42.19549192810321" lon="13.774651391497512"><ele>826.0</ele><time>2026-05-02T09:52:44Z</time></trkpt><trkpt lat="42.195582365180556" lon="13.77446139133071"><ele>826.0</ele><time>2026-05-02T09:52:45Z</time></trkpt><trkpt lat="42.19568355991639" lon="13.774289804098268"><ele>826.75</ele><time>2026-05-02T09:52:46Z</time></trkpt><trkpt lat="42.19577856244407" lon="13.774124737258477"><ele>827.5</ele><time>2026-05-02T09:52:47Z</time></trkpt><trkpt lat="42.19586616146058" lon="13.773974633948637"><ele>828.25</ele><time>2026-05-02T09:52:48Z</time></trkpt><trkpt lat="42.19594092848066" lon="13.773838209600356"><ele>829.0</ele><time>2026-05-02T09:52:49Z</time></trkpt><trkpt lat="42.19599793349194" lon="13.773709397298418"><ele>829.0</ele><time>2026-05-02T09:52:50Z</time></trkpt><trkpt lat="42.196049761527156" lon="13.773572245480729"><ele>829.0</ele><time>2026-05-02T09:52:51Z</time></trkpt><trkpt lat="42.19604325319243" lon="13.773396220458451"><ele>829.0</ele><time>2026-05-02T09:52:52Z</time></trkpt><trkpt lat="42.19604082798379" lon="13.77320593470221"><ele>829.0</ele><time>2026-05-02T09:52:53Z</time></trkpt><trkpt lat="42.196038200325525" lon="13.772994456801374"><ele>832.6666666666666</ele><time>2026-05-02T09:52:54Z</time></trkpt><trkpt lat="42.196043348068855" lon="13.772769286898955"><ele>836.3333333333333</ele><time>2026-05-02T09:52:55Z</time></trkpt><trkpt lat="42.196059980506156" lon="13.772536972619958"><ele>840.0</ele><time>2026-05-02T09:52:56Z</time></trkpt><trkpt lat="42.19609442479976" lon="13.772322199990255"><ele>840.75</ele><time>2026-05-02T09:52:57Z</time></trkpt><trkpt lat="42.1961266033645" lon="13.772111282184534"><ele>841.5</ele><time>2026-05-02T09:52:58Z</time></trkpt><trkpt lat="42.196131869027425" lon="13.771910874160875"><ele>842.25</ele><time>2026-05-02T09:52:59Z</time></trkpt><trkpt lat="42.196126457428704" lon="13.771745561387183"><ele>843.0</ele><time>2026-05-02T09:53:00Z</time></trkpt><trkpt lat="42.196113038566246" lon="13.771613127402661"><ele>843.0</ele><time>2026-05-02T09:53:01Z</time></trkpt><trkpt lat="42.19608010918685" lon="13.771493848639436"><ele>843.0</ele><time>2026-05-02T09:53:02Z</time></trkpt><trkpt lat="42.195979449224396" lon="13.771433145178541"><ele>843.0</ele><time>2026-05-02T09:53:03Z</time></trkpt><trkpt lat="42.19587064408653" lon="13.771388691689461"><ele>843.0</ele><time>2026-05-02T09:53:04Z</time></trkpt><trkpt lat="42.195747193893915" lon="13.771357824262608"><ele>843.0</ele><time>2026-05-02T09:53:05Z</time></trkpt><trkpt lat="42.19562317094568" lon="13.7713455397443"><ele>845.2</ele><time>2026-05-02T09:53:06Z</time></trkpt><trkpt lat="42.19550497958144" lon="13.771351720475309"><ele>847.4</ele><time>2026-05-02T09:53:07Z</time></trkpt><trkpt lat="42.195399078945854" lon="13.77136195165725"><ele>849.6000000000001</ele><time>2026-05-02T09:53:08Z</time></trkpt><trkpt lat="42.19531255665162" lon="13.771372584594195"><ele>851.8000000000001</ele><time>2026-05-02T09:53:09Z</time></trkpt><trkpt lat="42.1952373101259" lon="13.771377732734802"><ele>854.0</ele><time>2026-05-02T09:53:10Z</time></trkpt><trkpt lat="42.19517365283075" lon="13.771376480581813"><ele>854.0000000000001</ele><time>2026-05-02T09:53:11Z</time></trkpt><trkpt lat="42.19510712311492" lon="13.771366160681188"><ele>854.0</ele><time>2026-05-02T09:53:12Z</time></trkpt><trkpt lat="42.1950308140622" lon="13.771330564395335"><ele>854.0</ele><time>2026-05-02T09:53:13Z</time></trkpt><trkpt lat="42.1949624874431" lon="13.771255576119275"><ele>854.0</ele><time>2026-05-02T09:53:14Z</time></trkpt><trkpt lat="42.194943509164425" lon="13.771138609162822"><ele>854.0000000000001</ele><time>2026-05-02T09:53:15Z</time></trkpt><trkpt lat="42.19491257597634" lon="13.771014722112499"><ele>854.0</ele><time>2026-05-02T09:53:16Z</time></trkpt><trkpt lat="42.19489888682565" lon="13.770860870453884"><ele>853.0</ele><time>2026-05-02T09:53:17Z</time></trkpt><trkpt lat="42.194871935013445" lon="13.770690302503064"><ele>852.0</ele><time>2026-05-02T09:53:18Z</time></trkpt><trkpt lat="42.19483483122463" lon="13.770511278279153"><ele>851.0</ele><time>2026-05-02T09:53:19Z</time></trkpt><trkpt lat="42.19477676823601" lon="13.77033102962153"><ele>850.0</ele><time>2026-05-02T09:53:20Z</time></trkpt><trkpt lat="42.19470151050954" lon="13.770151101450047"><ele>852.75</ele><time>2026-05-02T09:53:21Z</time></trkpt><trkpt lat="42.194625540225324" lon="13.76998478847548"><ele>855.5</ele><time>2026-05-02T09:53:22Z</time></trkpt><trkpt lat="42.194561814512674" lon="13.769838683042517"><ele>858.25</ele><time>2026-05-02T09:53:23Z</time></trkpt><trkpt lat="42.19450367779649" lon="13.769715267235128"><ele>861.0</ele><time>2026-05-02T09:53:24Z</time></trkpt><trkpt lat="42.194429337751295" lon="13.769623505613492"><ele>861.0</ele><time>2026-05-02T09:53:25Z</time></trkpt><trkpt lat="42.19433340079399" lon="13.769565117421841"><ele>861.0</ele><time>2026-05-02T09:53:26Z</time></trkpt><trkpt lat="42.19422159866144" lon="13.769554339870346"><ele>861.0</ele><time>2026-05-02T09:53:27Z</time></trkpt><trkpt lat="42.19409787198698" lon="13.769582877987265"><ele>861.0</ele><time>2026-05-02T09:53:28Z</time></trkpt><trkpt lat="42.193962656853394" lon="13.769596428193061"><ele>863.5</ele><time>2026-05-02T09:53:29Z</time></trkpt><trkpt lat="42.19382504634183" lon="13.769643386885054"><ele>866.0</ele><time>2026-05-02T09:53:30Z</time></trkpt><trkpt lat="42.193677678401535" lon="13.769647315384969"><ele>868.5</ele><time>2026-05-02T09:53:31Z</time></trkpt><trkpt lat="42.19353122732993" lon="13.769626892034202"><ele>871.0</ele><time>2026-05-02T09:53:32Z</time></trkpt><trkpt lat="42.19338589550416" lon="13.769599769725426"><ele>871.0</ele><time>2026-05-02T09:53:33Z</time></trkpt><trkpt lat="42.19323936487568" lon="13.769591876176145"><ele>871.0</ele><time>2026-05-02T09:53:34Z</time></trkpt><trkpt lat="42.1930851537265" lon="13.769591348978683"><ele>871.0</ele><time>2026-05-02T09:53:35Z</time></trkpt><trkpt lat="42.19291770988538" lon="13.769585700091614"><ele>872.0</ele><time>2026-05-02T09:53:36Z</time></trkpt><trkpt lat="42.19275749890806" lon="13.769575596130267"><ele>873.0</ele><time>2026-05-02T09:53:37Z</time></trkpt><trkpt lat="42.19259145049956" lon="13.76956033680377"><ele>874.0</ele><time>2026-05-02T09:53:38Z</time></trkpt><trkpt lat="42.192423065613106" lon="13.769522366175325"><ele>873.6666666666666</ele><time>2026-05-02T09:53:39Z</time></trkpt><trkpt lat="42.19225810346087" lon="13.769458089923399"><ele>873.3333333333333</ele><time>2026-05-02T09:53:40Z</time></trkpt><trkpt lat="42.192090622700604" lon="13.76940408196202"><ele>873.0</ele><time>2026-05-02T09:53:41Z</time></trkpt><trkpt lat="42.19191877440449" lon="13.769387764453114"><ele>873.0</ele><time>2026-05-02T09:53:42Z</time></trkpt><trkpt lat="42.19175698255691" lon="13.769391019868575"><ele>873.0</ele><time>2026-05-02T09:53:43Z</time></trkpt><trkpt lat="42.191611047409296" lon="13.769387625776929"><ele>873.0</ele><time>2026-05-02T09:53:44Z</time></trkpt><trkpt lat="42.191481588561466" lon="13.769374901671256"><ele>873.0</ele><time>2026-05-02T09:53:45Z</time></trkpt><trkpt lat="42.1913743643771" lon="13.769351515457085"><ele>872.8</ele><time>2026-05-02T09:53:46Z</time></trkpt><trkpt lat="42.19128395723148" lon="13.769291625069224"><ele>872.5999999999999</ele><time>2026-05-02T09:53:47Z</time></trkpt><trkpt lat="42.19121325896813" lon="13.769196304244813"><ele>872.4000000000001</ele><time>2026-05-02T09:53:48Z</time></trkpt><trkpt lat="42.19115409834666" lon="13.769086925854182"><ele>872.2</ele><time>2026-05-02T09:53:49Z</time></trkpt><trkpt lat="42.191091640900986" lon="13.768976297115984"><ele>872.0</ele><time>2026-05-02T09:53:50Z</time></trkpt><trkpt lat="42.19102603731034" lon="13.768878639925237"><ele>872.0</ele><time>2026-05-02T09:53:51Z</time></trkpt><trkpt lat="42.190967212799464" lon="13.768796520822841"><ele>872.0</ele><time>2026-05-02T09:53:52Z</time></trkpt><trkpt lat="42.19091710990106" lon="13.768737734734897"><ele>872.0</ele><time>2026-05-02T09:53:53Z</time></trkpt><trkpt lat="42.19085024578833" lon="13.768679533353268"><ele>872.0</ele><time>2026-05-02T09:53:55Z</time></trkpt><trkpt lat="42.190929141972205" lon="13.768564960478212"><ele>872.0</ele><time>2026-05-02T09:53:59Z</time></trkpt><trkpt lat="42.19103142108926" lon="13.768515027841376"><ele>872.1666666666667</ele><time>2026-05-02T09:54:01Z</time></trkpt><trkpt lat="42.19110065150033" lon="13.768477560854512"><ele>872.3333333333334</ele><time>2026-05-02T09:54:02Z</time></trkpt><trkpt lat="42.191159559577336" lon="13.76840361350814"><ele>872.5</ele><time>2026-05-02T09:54:03Z</time></trkpt><trkpt lat="42.19119235149181" lon="13.768305822695218"><ele>872.6666666666667</ele><time>2026-05-02T09:54:04Z</time></trkpt><trkpt lat="42.191244699113064" lon="13.768213622338786"><ele>872.8333333333334</ele><time>2026-05-02T09:54:05Z</time></trkpt><trkpt lat="42.191298868200015" lon="13.768115239880645"><ele>873.0</ele><time>2026-05-02T09:54:06Z</time></trkpt><trkpt lat="42.191354895892886" lon="13.768020047220475"><ele>873.0</ele><time>2026-05-02T09:54:07Z</time></trkpt><trkpt lat="42.191408073456415" lon="13.76795153489039"><ele>873.0</ele><time>2026-05-02T09:54:08Z</time></trkpt><trkpt lat="42.19146074351193" lon="13.767887684601423"><ele>873.0</ele><time>2026-05-02T09:54:09Z</time></trkpt><trkpt lat="42.191503519227844" lon="13.767816367769209"><ele>873.0</ele><time>2026-05-02T09:54:10Z</time></trkpt><trkpt lat="42.19155405472618" lon="13.767759189718221"><ele>873.0</ele><time>2026-05-02T09:54:11Z</time></trkpt><trkpt lat="42.19165612889152" lon="13.767681276503476"><ele>873.0</ele><time>2026-05-02T09:54:13Z</time></trkpt><trkpt lat="42.19174582590576" lon="13.767565021434665"><ele>875.5</ele><time>2026-05-02T09:54:15Z</time></trkpt><trkpt lat="42.19179206864844" lon="13.767493994836254"><ele>878.0</ele><time>2026-05-02T09:54:16Z</time></trkpt><trkpt lat="42.19182738763784" lon="13.767414666703521"><ele>880.5</ele><time>2026-05-02T09:54:17Z</time></trkpt><trkpt lat="42.19185903636827" lon="13.767336339825578"><ele>883.0</ele><time>2026-05-02T09:54:18Z</time></trkpt><trkpt lat="42.19189466177041" lon="13.76725827435675"><ele>885.5</ele><time>2026-05-02T09:54:19Z</time></trkpt><trkpt lat="42.19192452785945" lon="13.767183133371622"><ele>888.0</ele><time>2026-05-02T09:54:20Z</time></trkpt><trkpt lat="42.19196367134763" lon="13.76701326857949"><ele>888.0</ele><time>2026-05-02T09:54:22Z</time></trkpt><trkpt lat="42.191990841824925" lon="13.766927963123191"><ele>888.0</ele><time>2026-05-02T09:54:23Z</time></trkpt><trkpt lat="42.192008458834344" lon="13.766838149172155"><ele>888.0</ele><time>2026-05-02T09:54:24Z</time></trkpt><trkpt lat="42.19204576984518" lon="13.766760562868082"><ele>888.0</ele><time>2026-05-02T09:54:25Z</time></trkpt><trkpt lat="42.192084387078744" lon="13.766677367955305"><ele>888.0</ele><time>2026-05-02T09:54:26Z</time></trkpt><trkpt lat="42.19212228777252" lon="13.766594533872302"><ele>888.0</ele><time>2026-05-02T09:54:27Z</time></trkpt><trkpt lat="42.19216567364145" lon="13.766512330783753"><ele>888.0</ele><time>2026-05-02T09:54:28Z</time></trkpt><trkpt lat="42.19220498283882" lon="13.766445485796167"><ele>889.2</ele><time>2026-05-02T09:54:29Z</time></trkpt><trkpt lat="42.19228558289708" lon="13.766311401428267"><ele>890.4</ele><time>2026-05-02T09:54:31Z</time></trkpt><trkpt lat="42.19233223425016" lon="13.766224674118181"><ele>891.6000000000001</ele><time>2026-05-02T09:54:32Z</time></trkpt><trkpt lat="42.192386683745774" lon="13.766139283232269"><ele>892.8000000000001</ele><time>2026-05-02T09:54:33Z</time></trkpt><trkpt lat="42.19244256818131" lon="13.766046408521266"><ele>894.0</ele><time>2026-05-02T09:54:34Z</time></trkpt><trkpt lat="42.19249947529247" lon="13.765954658896764"><ele>896.0</ele><time>2026-05-02T09:54:35Z</time></trkpt><trkpt lat="42.19255503587987" lon="13.765868501823112"><ele>898.0</ele><time>2026-05-02T09:54:36Z</time></trkpt><trkpt lat="42.19261120780846" lon="13.765778000935263"><ele>900.0</ele><time>2026-05-02T09:54:37Z</time></trkpt><trkpt lat="42.19267277340763" lon="13.765698596081517"><ele>902.0</ele><time>2026-05-02T09:54:38Z</time></trkpt><trkpt lat="42.192738443309956" lon="13.765617523684341"><ele>904.0</ele><time>2026-05-02T09:54:39Z</time></trkpt><trkpt lat="42.19279996796599" lon="13.765540306010394"><ele>906.0</ele><time>2026-05-02T09:54:40Z</time></trkpt><trkpt lat="42.19286130567215" lon="13.76546285756517"><ele>906.0</ele><time>2026-05-02T09:54:41Z</time></trkpt><trkpt lat="42.19293004349409" lon="13.76536906306144"><ele>906.0</ele><time>2026-05-02T09:54:42Z</time></trkpt><trkpt lat="42.192991255287005" lon="13.765286184492261"><ele>906.0</ele><time>2026-05-02T09:54:43Z</time></trkpt><trkpt lat="42.19305139629064" lon="13.765214068143974"><ele>906.0</ele><time>2026-05-02T09:54:44Z</time></trkpt><trkpt lat="42.19311971375202" lon="13.76513031902572"><ele>906.0</ele><time>2026-05-02T09:54:45Z</time></trkpt><trkpt lat="42.19317636295423" lon="13.765036525954795"><ele>906.0</ele><time>2026-05-02T09:54:46Z</time></trkpt><trkpt lat="42.19323094532148" lon="13.764941002976402"><ele>906.5999999999999</ele><time>2026-05-02T09:54:47Z</time></trkpt><trkpt lat="42.19328850936318" lon="13.764842483895658"><ele>907.1999999999999</ele><time>2026-05-02T09:54:48Z</time></trkpt><trkpt lat="42.19335003548819" lon="13.76474463149856"><ele>907.8000000000001</ele><time>2026-05-02T09:54:49Z</time></trkpt><trkpt lat="42.193414622036634" lon="13.764662200443306"><ele>908.4000000000001</ele><time>2026-05-02T09:54:50Z</time></trkpt><trkpt lat="42.193482454664895" lon="13.76458659202651"><ele>909.0</ele><time>2026-05-02T09:54:51Z</time></trkpt><trkpt lat="42.19355168230985" lon="13.764519757078103"><ele>909.0</ele><time>2026-05-02T09:54:52Z</time></trkpt><trkpt lat="42.19362823258644" lon="13.76448316941765"><ele>909.0</ele><time>2026-05-02T09:54:53Z</time></trkpt><trkpt lat="42.193690268871386" lon="13.76442301881442"><ele>909.0</ele><time>2026-05-02T09:54:54Z</time></trkpt><trkpt lat="42.19376695843317" lon="13.764397694068105"><ele>909.0</ele><time>2026-05-02T09:54:55Z</time></trkpt><trkpt lat="42.19384384191244" lon="13.764372405535967"><ele>909.0</ele><time>2026-05-02T09:54:56Z</time></trkpt><trkpt lat="42.19391139619928" lon="13.764339822682308"><ele>909.0</ele><time>2026-05-02T09:54:57Z</time></trkpt><trkpt lat="42.19396758307598" lon="13.76428489952392"><ele>909.6666666666666</ele><time>2026-05-02T09:54:58Z</time></trkpt><trkpt lat="42.19401674745254" lon="13.764207298380308"><ele>910.3333333333333</ele><time>2026-05-02T09:54:59Z</time></trkpt><trkpt lat="42.19405996369615" lon="13.764110908321083"><ele>911.0</ele><time>2026-05-02T09:55:00Z</time></trkpt><trkpt lat="42.1941023306797" lon="13.764001422925181"><ele>911.6666666666666</ele><time>2026-05-02T09:55:01Z</time></trkpt><trkpt lat="42.19414057705375" lon="13.763878514587386"><ele>912.3333333333333</ele><time>2026-05-02T09:55:02Z</time></trkpt><trkpt lat="42.19418886135856" lon="13.763763682791915"><ele>913.0</ele><time>2026-05-02T09:55:03Z</time></trkpt><trkpt lat="42.19423340848346" lon="13.76365494385684"><ele>912.9999999999999</ele><time>2026-05-02T09:55:04Z</time></trkpt><trkpt lat="42.194274839496984" lon="13.763552902852307"><ele>913.0</ele><time>2026-05-02T09:55:05Z</time></trkpt><trkpt lat="42.19432466422216" lon="13.763460452091103"><ele>913.0</ele><time>2026-05-02T09:55:06Z</time></trkpt><trkpt lat="42.194383096028695" lon="13.763381357496826"><ele>913.0</ele><time>2026-05-02T09:55:07Z</time></trkpt><trkpt lat="42.194442647129705" lon="13.763309231569103"><ele>912.9999999999999</ele><time>2026-05-02T09:55:08Z</time></trkpt><trkpt lat="42.19450771607887" lon="13.763215727008316"><ele>913.0</ele><time>2026-05-02T09:55:09Z</time></trkpt><trkpt lat="42.19456980583114" lon="13.763123444402721"><ele>913.3333333333333</ele><time>2026-05-02T09:55:10Z</time></trkpt><trkpt lat="42.19463034776393" lon="13.763037378466368"><ele>913.6666666666666</ele><time>2026-05-02T09:55:11Z</time></trkpt><trkpt lat="42.19468673987985" lon="13.76296020078923"><ele>914.0</ele><time>2026-05-02T09:55:12Z</time></trkpt><trkpt lat="42.19474018188295" lon="13.762895575575351"><ele>914.3333333333333</ele><time>2026-05-02T09:55:13Z</time></trkpt><trkpt lat="42.19479893705032" lon="13.76284544621268"><ele>914.6666666666666</ele><time>2026-05-02T09:55:14Z</time></trkpt><trkpt lat="42.19486805928366" lon="13.762796141779646"><ele>915.0</ele><time>2026-05-02T09:55:15Z</time></trkpt><trkpt lat="42.194944053039144" lon="13.762751083431517"><ele>915.0</ele><time>2026-05-02T09:55:16Z</time></trkpt><trkpt lat="42.19501730416642" lon="13.762714236457454"><ele>915.0</ele><time>2026-05-02T09:55:17Z</time></trkpt><trkpt lat="42.195090937430145" lon="13.762679105098973"><ele>915.0</ele><time>2026-05-02T09:55:18Z</time></trkpt><trkpt lat="42.19516299341525" lon="13.762649285225002"><ele>915.0</ele><time>2026-05-02T09:55:19Z</time></trkpt><trkpt lat="42.195240762741555" lon="13.762636737674377"><ele>915.0</ele><time>2026-05-02T09:55:20Z</time></trkpt><trkpt lat="42.1953136190967" lon="13.762592198916634"><ele>915.0</ele><time>2026-05-02T09:55:21Z</time></trkpt><trkpt lat="42.19538202740953" lon="13.762548266270052"><ele>914.8333333333334</ele><time>2026-05-02T09:55:22Z</time></trkpt><trkpt lat="42.195441131375674" lon="13.7624786061234"><ele>914.6666666666667</ele><time>2026-05-02T09:55:23Z</time></trkpt><trkpt lat="42.195500571731756" lon="13.76239642679046"><ele>914.5</ele><time>2026-05-02T09:55:24Z</time></trkpt><trkpt lat="42.19555447790988" lon="13.762309033516708"><ele>914.3333333333334</ele><time>2026-05-02T09:55:25Z</time></trkpt><trkpt lat="42.19560819137204" lon="13.76221932908232"><ele>914.1666666666667</ele><time>2026-05-02T09:55:26Z</time></trkpt><trkpt lat="42.19565418043655" lon="13.762135768514018"><ele>914.0</ele><time>2026-05-02T09:55:27Z</time></trkpt><trkpt lat="42.195701129148574" lon="13.762052269952413"><ele>914.0000000000001</ele><time>2026-05-02T09:55:28Z</time></trkpt><trkpt lat="42.19573944605851" lon="13.761978598638608"><ele>914.0</ele><time>2026-05-02T09:55:29Z</time></trkpt><trkpt lat="42.19578317005325" lon="13.76188200362422"><ele>914.0000000000001</ele><time>2026-05-02T09:55:31Z</time></trkpt><trkpt lat="42.19583291483669" lon="13.76176900281966"><ele>914.0000000000001</ele><time>2026-05-02T09:55:33Z</time></trkpt><trkpt lat="42.195866071508696" lon="13.761695949958877"><ele>914.0</ele><time>2026-05-02T09:55:34Z</time></trkpt><trkpt lat="42.19591003178758" lon="13.76163123634182"><ele>914.0000000000001</ele><time>2026-05-02T09:55:35Z</time></trkpt><trkpt lat="42.19593349203404" lon="13.761542045215602"><ele>914.0000000000001</ele><time>2026-05-02T09:55:36Z</time></trkpt><trkpt lat="42.19598029009841" lon="13.761456643796391"><ele>915.3333333333334</ele><time>2026-05-02T09:55:37Z</time></trkpt><trkpt lat="42.196035590025666" lon="13.761391084494939"><ele>916.6666666666667</ele><time>2026-05-02T09:55:38Z</time></trkpt><trkpt lat="42.196071853959396" lon="13.761316260940093"><ele>918.0</ele><time>2026-05-02T09:55:41Z</time></trkpt><trkpt lat="42.196123865835034" lon="13.761236836698677"><ele>919.3333333333333</ele><time>2026-05-02T09:55:43Z</time></trkpt><trkpt lat="42.19617958230885" lon="13.761182523138173"><ele>920.6666666666666</ele><time>2026-05-02T09:55:44Z</time></trkpt><trkpt lat="42.19623638507425" lon="13.761097853580488"><ele>922.0</ele><time>2026-05-02T09:55:45Z</time></trkpt><trkpt lat="42.196288904510766" lon="13.760993564231923"><ele>921.9999999999999</ele><time>2026-05-02T09:55:46Z</time></trkpt><trkpt lat="42.19633861916602" lon="13.7608943794396"><ele>922.0</ele><time>2026-05-02T09:55:47Z</time></trkpt><trkpt lat="42.19638554106838" lon="13.760797304778956"><ele>922.0</ele><time>2026-05-02T09:55:48Z</time></trkpt><trkpt lat="42.19642771611194" lon="13.76071055143742"><ele>922.0</ele><time>2026-05-02T09:55:49Z</time></trkpt><trkpt lat="42.19647276580225" lon="13.760626080726153"><ele>921.9999999999999</ele><time>2026-05-02T09:55:50Z</time></trkpt><trkpt lat="42.19651142655918" lon="13.760542484117995"><ele>922.0</ele><time>2026-05-02T09:55:51Z</time></trkpt><trkpt lat="42.19655912612646" lon="13.760456613257865"><ele>921.9999999999999</ele><time>2026-05-02T09:55:52Z</time></trkpt><trkpt lat="42.196609653001126" lon="13.760380697522786"><ele>922.0</ele><time>2026-05-02T09:55:53Z</time></trkpt><trkpt lat="42.19665492822739" lon="13.760293753304792"><ele>922.0</ele><time>2026-05-02T09:55:54Z</time></trkpt><trkpt lat="42.19669881772793" lon="13.760195673087953"><ele>922.0</ele><time>2026-05-02T09:55:55Z</time></trkpt><trkpt lat="42.19674159725611" lon="13.760092331805973"><ele>921.9999999999999</ele><time>2026-05-02T09:55:56Z</time></trkpt><trkpt lat="42.196780529902554" lon="13.75999580113317"><ele>922.0</ele><time>2026-05-02T09:55:57Z</time></trkpt><trkpt lat="42.19683233267426" lon="13.759859950497821"><ele>923.4999999999999</ele><time>2026-05-02T09:55:59Z</time></trkpt><trkpt lat="42.196898211437976" lon="13.759731949121647"><ele>925.0</ele><time>2026-05-02T09:56:01Z</time></trkpt><trkpt lat="42.19692381834546" lon="13.75964930961661"><ele>926.5</ele><time>2026-05-02T09:56:02Z</time></trkpt><trkpt lat="42.1969327907116" lon="13.759548786680856"><ele>928.0</ele><time>2026-05-02T09:56:03Z</time></trkpt><trkpt lat="42.19693430320199" lon="13.759443189658441"><ele>929.4999999999999</ele><time>2026-05-02T09:56:04Z</time></trkpt><trkpt lat="42.19693329749349" lon="13.759333269409925"><ele>931.0</ele><time>2026-05-02T09:56:05Z</time></trkpt><trkpt lat="42.196923295535946" lon="13.759226933871663"><ele>931.8333333333333</ele><time>2026-05-02T09:56:06Z</time></trkpt><trkpt lat="42.19690180905178" lon="13.759121423878138"><ele>932.6666666666666</ele><time>2026-05-02T09:56:07Z</time></trkpt><trkpt lat="42.196883202430186" lon="13.759016737548986"><ele>933.5</ele><time>2026-05-02T09:56:08Z</time></trkpt><trkpt lat="42.19687010644596" lon="13.758896940275848"><ele>934.3333333333333</ele><time>2026-05-02T09:56:09Z</time></trkpt><trkpt lat="42.19686617119335" lon="13.758784905754002"><ele>935.1666666666666</ele><time>2026-05-02T09:56:10Z</time></trkpt><trkpt lat="42.19684951783197" lon="13.758681702191975"><ele>936.0</ele><time>2026-05-02T09:56:11Z</time></trkpt><trkpt lat="42.19683295334917" lon="13.758590916700644"><ele>936.2857142857143</ele><time>2026-05-02T09:56:12Z</time></trkpt><trkpt lat="42.196826072192664" lon="13.758504074268235"><ele>936.5714285714287</ele><time>2026-05-02T09:56:13Z</time></trkpt><trkpt lat="42.196837166844304" lon="13.75841759412601"><ele>936.8571428571429</ele><time>2026-05-02T09:56:14Z</time></trkpt><trkpt lat="42.19685859002321" lon="13.758330683804694"><ele>937.1428571428571</ele><time>2026-05-02T09:56:15Z</time></trkpt><trkpt lat="42.19688744470803" lon="13.758242225512568"><ele>937.4285714285714</ele><time>2026-05-02T09:56:16Z</time></trkpt><trkpt lat="42.19692179803814" lon="13.75816152358698"><ele>937.7142857142858</ele><time>2026-05-02T09:56:17Z</time></trkpt><trkpt lat="42.196951243676644" lon="13.758080498163869"><ele>938.0</ele><time>2026-05-02T09:56:18Z</time></trkpt><trkpt lat="42.19697877388989" lon="13.758000610103224"><ele>938.0</ele><time>2026-05-02T09:56:19Z</time></trkpt><trkpt lat="42.19705608720937" lon="13.757845700387628"><ele>938.0</ele><time>2026-05-02T09:56:21Z</time></trkpt><trkpt lat="42.19710353778454" lon="13.7577629422082"><ele>938.0</ele><time>2026-05-02T09:56:22Z</time></trkpt><trkpt lat="42.197156496708594" lon="13.757679093233232"><ele>938.0</ele><time>2026-05-02T09:56:23Z</time></trkpt><trkpt lat="42.19720190495905" lon="13.757588518255675"><ele>938.0</ele><time>2026-05-02T09:56:24Z</time></trkpt><trkpt lat="42.19723642895969" lon="13.757490386116896"><ele>939.3333333333334</ele><time>2026-05-02T09:56:25Z</time></trkpt><trkpt lat="42.19725840615384" lon="13.757390384732565"><ele>940.6666666666667</ele><time>2026-05-02T09:56:26Z</time></trkpt><trkpt lat="42.19726134074665" lon="13.757276619981562"><ele>942.0</ele><time>2026-05-02T09:56:27Z</time></trkpt><trkpt lat="42.19724999281836" lon="13.757178977726252"><ele>943.3333333333333</ele><time>2026-05-02T09:56:28Z</time></trkpt><trkpt lat="42.19722707622607" lon="13.757079241088631"><ele>944.6666666666666</ele><time>2026-05-02T09:56:29Z</time></trkpt><trkpt lat="42.197202497066435" lon="13.756984883986181"><ele>946.0</ele><time>2026-05-02T09:56:30Z</time></trkpt><trkpt lat="42.1971909632271" lon="13.756888197890271"><ele>946.9999999999999</ele><time>2026-05-02T09:56:31Z</time></trkpt><trkpt lat="42.197173108966396" lon="13.75679741550606"><ele>948.0</ele><time>2026-05-02T09:56:32Z</time></trkpt><trkpt lat="42.19716792369878" lon="13.75670263372599"><ele>949.0</ele><time>2026-05-02T09:56:33Z</time></trkpt><trkpt lat="42.19716695261529" lon="13.756605347944657"><ele>950.0</ele><time>2026-05-02T09:56:34Z</time></trkpt><trkpt lat="42.19715086920614" lon="13.756492742087838"><ele>950.9999999999999</ele><time>2026-05-02T09:56:35Z</time></trkpt><trkpt lat="42.19716719499058" lon="13.756406765115665"><ele>952.0</ele><time>2026-05-02T09:56:36Z</time></trkpt><trkpt lat="42.19716859434952" lon="13.756244733804717"><ele>952.0</ele><time>2026-05-02T09:56:38Z</time></trkpt><trkpt lat="42.197152298798" lon="13.756152209430256"><ele>952.0</ele><time>2026-05-02T09:56:39Z</time></trkpt><trkpt lat="42.1971657809506" lon="13.756054191318498"><ele>952.0</ele><time>2026-05-02T09:56:40Z</time></trkpt><trkpt lat="42.197163100432476" lon="13.755961848684175"><ele>952.0</ele><time>2026-05-02T09:56:41Z</time></trkpt><trkpt lat="42.19714741565234" lon="13.755868073582388"><ele>952.0</ele><time>2026-05-02T09:56:42Z</time></trkpt><trkpt lat="42.19713928946451" lon="13.755769135725119"><ele>952.0</ele><time>2026-05-02T09:56:43Z</time></trkpt><trkpt lat="42.19712344667759" lon="13.755673715488825"><ele>952.0</ele><time>2026-05-02T09:56:44Z</time></trkpt><trkpt lat="42.197106286796796" lon="13.755576740378432"><ele>953.4999999999999</ele><time>2026-05-02T09:56:45Z</time></trkpt><trkpt lat="42.19709522178379" lon="13.755480524761177"><ele>955.0</ele><time>2026-05-02T09:56:46Z</time></trkpt><trkpt lat="42.197082944872875" lon="13.755380040421521"><ele>956.5</ele><time>2026-05-02T09:56:47Z</time></trkpt><trkpt lat="42.19706205162133" lon="13.755291196036342"><ele>958.0</ele><time>2026-05-02T09:56:48Z</time></trkpt><trkpt lat="42.19704060337099" lon="13.75519100818689"><ele>959.4999999999999</ele><time>2026-05-02T09:56:49Z</time></trkpt><trkpt lat="42.197014500734184" lon="13.755096486527378"><ele>961.0</ele><time>2026-05-02T09:56:50Z</time></trkpt><trkpt lat="42.19697300069696" lon="13.754975938706018"><ele>963.0</ele><time>2026-05-02T09:56:52Z</time></trkpt><trkpt lat="42.19693545920209" lon="13.754817984596787"><ele>964.9999999999999</ele><time>2026-05-02T09:56:54Z</time></trkpt><trkpt lat="42.19691725025329" lon="13.754702543983589"><ele>966.9999999999999</ele><time>2026-05-02T09:56:56Z</time></trkpt><trkpt lat="42.196903638973836" lon="13.754617526084651"><ele>969.0</ele><time>2026-05-02T09:57:16Z</time></trkpt><trkpt lat="42.1968918457993" lon="13.75447787992631"><ele>971.0</ele><time>2026-05-02T09:57:19Z</time></trkpt><trkpt lat="42.19687556486673" lon="13.75434784724923"><ele>973.1999999999999</ele><time>2026-05-02T09:57:21Z</time></trkpt><trkpt lat="42.196842893807485" lon="13.7542125237492"><ele>975.3999999999999</ele><time>2026-05-02T09:57:23Z</time></trkpt><trkpt lat="42.19681532791186" lon="13.754133860116914"><ele>977.6</ele><time>2026-05-02T09:57:24Z</time></trkpt><trkpt lat="42.196742695954455" lon="13.75399858746041"><ele>979.8</ele><time>2026-05-02T09:57:26Z</time></trkpt><trkpt lat="42.196674996283214" lon="13.753938068104144"><ele>982.0</ele><time>2026-05-02T09:57:28Z</time></trkpt><trkpt lat="42.19658985493157" lon="13.753885161094221"><ele>982.0</ele><time>2026-05-02T09:57:30Z</time></trkpt><trkpt lat="42.19653753153423" lon="13.753758623612306"><ele>982.0</ele><time>2026-05-02T09:57:32Z</time></trkpt><trkpt lat="42.19648993731995" lon="13.753644460606795"><ele>982.0</ele><time>2026-05-02T09:57:34Z</time></trkpt><trkpt lat="42.196501162360725" lon="13.753507930530024"><ele>982.0</ele><time>2026-05-02T09:57:36Z</time></trkpt><trkpt lat="42.196532237703224" lon="13.753417728115044"><ele>982.0</ele><time>2026-05-02T09:57:37Z</time></trkpt><trkpt lat="42.19656464576321" lon="13.753320287319703"><ele>983.5714285714286</ele><time>2026-05-02T09:57:38Z</time></trkpt><trkpt lat="42.19659215827792" lon="13.753228862945246"><ele>985.1428571428571</ele><time>2026-05-02T09:57:39Z</time></trkpt><trkpt lat="42.19663330097412" lon="13.75314623498831"><ele>986.7142857142857</ele><time>2026-05-02T09:57:40Z</time></trkpt><trkpt lat="42.19668746415197" lon="13.75308762657712"><ele>988.2857142857142</ele><time>2026-05-02T09:57:41Z</time></trkpt><trkpt lat="42.19675547280332" lon="13.753053923921343"><ele>989.8571428571429</ele><time>2026-05-02T09:57:42Z</time></trkpt><trkpt lat="42.19682571931941" lon="13.753038589019942"><ele>991.4285714285713</ele><time>2026-05-02T09:57:43Z</time></trkpt><trkpt lat="42.196892265311114" lon="13.753032955949914"><ele>993.0</ele><time>2026-05-02T09:57:44Z</time></trkpt><trkpt lat="42.19699173363206" lon="13.752970124471851"><ele>993.0</ele><time>2026-05-02T09:57:46Z</time></trkpt><trkpt lat="42.197043247912816" lon="13.752917767682883"><ele>993.0</ele><time>2026-05-02T09:57:47Z</time></trkpt><trkpt lat="42.197093764105134" lon="13.752858907745841"><ele>993.0</ele><time>2026-05-02T09:57:48Z</time></trkpt><trkpt lat="42.197143896147075" lon="13.752791394582573"><ele>993.0</ele><time>2026-05-02T09:57:49Z</time></trkpt><trkpt lat="42.19719417711426" lon="13.752708653953112"><ele>993.0</ele><time>2026-05-02T09:57:50Z</time></trkpt><trkpt lat="42.19723983095427" lon="13.752617209601238"><ele>993.0</ele><time>2026-05-02T09:57:51Z</time></trkpt><trkpt lat="42.19728026552327" lon="13.75252377770164"><ele>993.0</ele><time>2026-05-02T09:57:52Z</time></trkpt><trkpt lat="42.19731843632756" lon="13.75242655434375"><ele>993.8571428571429</ele><time>2026-05-02T09:57:53Z</time></trkpt><trkpt lat="42.197357634345735" lon="13.752338717574212"><ele>994.7142857142858</ele><time>2026-05-02T09:57:54Z</time></trkpt><trkpt lat="42.19739266124807" lon="13.752250735933142"><ele>995.5714285714287</ele><time>2026-05-02T09:57:55Z</time></trkpt><trkpt lat="42.197422860010626" lon="13.752157612015719"><ele>996.4285714285714</ele><time>2026-05-02T09:57:56Z</time></trkpt><trkpt lat="42.19745004599689" lon="13.752065183184019"><ele>997.2857142857144</ele><time>2026-05-02T09:57:57Z</time></trkpt><trkpt lat="42.19747273221939" lon="13.751983224503359"><ele>998.1428571428572</ele><time>2026-05-02T09:57:58Z</time></trkpt><trkpt lat="42.19751009559747" lon="13.751908455649888"><ele>999.0</ele><time>2026-05-02T09:57:59Z</time></trkpt><trkpt lat="42.19756503321316" lon="13.751845090460037"><ele>1001.0</ele><time>2026-05-02T09:58:00Z</time></trkpt><trkpt lat="42.197620886554866" lon="13.751779060372368"><ele>1003.0</ele><time>2026-05-02T09:58:01Z</time></trkpt><trkpt lat="42.197670249897335" lon="13.751702297239405"><ele>1005.0</ele><time>2026-05-02T09:58:02Z</time></trkpt><trkpt lat="42.1977216586089" lon="13.75162838215768"><ele>1007.0</ele><time>2026-05-02T09:58:03Z</time></trkpt><trkpt lat="42.19777732528402" lon="13.751564056960925"><ele>1009.0</ele><time>2026-05-02T09:58:04Z</time></trkpt><trkpt lat="42.1978337972321" lon="13.751495314126478"><ele>1011.0</ele><time>2026-05-02T09:58:05Z</time></trkpt><trkpt lat="42.19789508827267" lon="13.751426916468521"><ele>1011.0</ele><time>2026-05-02T09:58:06Z</time></trkpt><trkpt lat="42.19795539117283" lon="13.751359484458408"><ele>1011.0</ele><time>2026-05-02T09:58:07Z</time></trkpt><trkpt lat="42.19801642575723" lon="13.751286782455203"><ele>1011.0</ele><time>2026-05-02T09:58:08Z</time></trkpt><trkpt lat="42.19806996831203" lon="13.751207208268264"><ele>1011.0</ele><time>2026-05-02T09:58:09Z</time></trkpt><trkpt lat="42.19811739239286" lon="13.751123719623756"><ele>1011.0</ele><time>2026-05-02T09:58:10Z</time></trkpt><trkpt lat="42.19816765401136" lon="13.751049164174983"><ele>1011.0</ele><time>2026-05-02T09:58:11Z</time></trkpt><trkpt lat="42.19822145414222" lon="13.750976359728792"><ele>1013.0</ele><time>2026-05-02T09:58:12Z</time></trkpt><trkpt lat="42.198269739134254" lon="13.750915458359799"><ele>1014.9999999999999</ele><time>2026-05-02T09:58:13Z</time></trkpt><trkpt lat="42.19830989652013" lon="13.750833746277536"><ele>1016.9999999999999</ele><time>2026-05-02T09:58:14Z</time></trkpt><trkpt lat="42.198343577844675" lon="13.750756922239125"><ele>1019.0</ele><time>2026-05-02T09:58:15Z</time></trkpt><trkpt lat="42.19843535512245" lon="13.750664469179991"><ele>1021.0</ele><time>2026-05-02T09:58:17Z</time></trkpt><trkpt lat="42.19852539215715" lon="13.75051833375802"><ele>1020.9999999999999</ele><time>2026-05-02T09:58:19Z</time></trkpt><trkpt lat="42.19858069641889" lon="13.750448480964167"><ele>1021.0</ele><time>2026-05-02T09:58:20Z</time></trkpt><trkpt lat="42.19863084100461" lon="13.750377011581536"><ele>1021.0</ele><time>2026-05-02T09:58:21Z</time></trkpt><trkpt lat="42.198673749676864" lon="13.750307742061738"><ele>1021.0</ele><time>2026-05-02T09:58:22Z</time></trkpt><trkpt lat="42.19870910479424" lon="13.750234491873762"><ele>1020.9999999999999</ele><time>2026-05-02T09:58:23Z</time></trkpt><trkpt lat="42.19874726645339" lon="13.750075452939681"><ele>1021.0</ele><time>2026-05-02T09:58:25Z</time></trkpt><trkpt lat="42.19874333893982" lon="13.749985643826847"><ele>1022.5714285714286</ele><time>2026-05-02T09:58:26Z</time></trkpt><trkpt lat="42.19874863091272" lon="13.74989999063228"><ele>1024.142857142857</ele><time>2026-05-02T09:58:27Z</time></trkpt><trkpt lat="42.198744946421705" lon="13.749810945323365"><ele>1025.7142857142858</ele><time>2026-05-02T09:58:28Z</time></trkpt><trkpt lat="42.19875429590695" lon="13.749709707068389"><ele>1027.2857142857142</ele><time>2026-05-02T09:58:29Z</time></trkpt><trkpt lat="42.1987455168899" lon="13.749609858551171"><ele>1028.857142857143</ele><time>2026-05-02T09:58:30Z</time></trkpt><trkpt lat="42.19872948301086" lon="13.749514790592587"><ele>1030.4285714285713</ele><time>2026-05-02T09:58:31Z</time></trkpt><trkpt lat="42.198710683077145" lon="13.749422933346372"><ele>1032.0</ele><time>2026-05-02T09:58:32Z</time></trkpt><trkpt lat="42.198701112054806" lon="13.749337427375067"><ele>1032.8333333333333</ele><time>2026-05-02T09:58:33Z</time></trkpt><trkpt lat="42.19869519396419" lon="13.749230338345907"><ele>1033.6666666666667</ele><time>2026-05-02T09:58:34Z</time></trkpt><trkpt lat="42.198695348581566" lon="13.749122751622922"><ele>1034.5</ele><time>2026-05-02T09:58:35Z</time></trkpt><trkpt lat="42.19869767647673" lon="13.749019682924494"><ele>1035.3333333333335</ele><time>2026-05-02T09:58:36Z</time></trkpt><trkpt lat="42.19868556456959" lon="13.748914217704863"><ele>1036.1666666666667</ele><time>2026-05-02T09:58:37Z</time></trkpt><trkpt lat="42.19866049366472" lon="13.748808296540918"><ele>1037.0</ele><time>2026-05-02T09:58:38Z</time></trkpt><trkpt lat="42.1986355859499" lon="13.74871317010024"><ele>1037.0</ele><time>2026-05-02T09:58:39Z</time></trkpt><trkpt lat="42.198625321240556" lon="13.748614351425047"><ele>1037.0</ele><time>2026-05-02T09:58:40Z</time></trkpt><trkpt lat="42.1986286844994" lon="13.748516363998714"><ele>1037.0</ele><time>2026-05-02T09:58:41Z</time></trkpt><trkpt lat="42.19864204078903" lon="13.748415805364665"><ele>1037.0</ele><time>2026-05-02T09:58:42Z</time></trkpt><trkpt lat="42.19865670348839" lon="13.748312200249202"><ele>1037.0</ele><time>2026-05-02T09:58:43Z</time></trkpt><trkpt lat="42.198664741634936" lon="13.748208694288243"><ele>1037.0</ele><time>2026-05-02T09:58:44Z</time></trkpt><trkpt lat="42.19866686280892" lon="13.74809456330251"><ele>1037.3333333333335</ele><time>2026-05-02T09:58:45Z</time></trkpt><trkpt lat="42.19866964838165" lon="13.747986089995143"><ele>1037.6666666666667</ele><time>2026-05-02T09:58:46Z</time></trkpt><trkpt lat="42.19867230525657" lon="13.747889978700723"><ele>1038.0</ele><time>2026-05-02T09:58:47Z</time></trkpt><trkpt lat="42.198673019198175" lon="13.747796925316639"><ele>1038.3333333333333</ele><time>2026-05-02T09:58:48Z</time></trkpt><trkpt lat="42.19867105423369" lon="13.74768898583432"><ele>1038.6666666666665</ele><time>2026-05-02T09:58:49Z</time></trkpt><trkpt lat="42.19867140607854" lon="13.747573901449536"><ele>1039.0</ele><time>2026-05-02T09:58:50Z</time></trkpt><trkpt lat="42.198671752595764" lon="13.747460670995633"><ele>1040.1666666666665</ele><time>2026-05-02T09:58:51Z</time></trkpt><trkpt lat="42.19867941929043" lon="13.747341812065127"><ele>1041.3333333333333</ele><time>2026-05-02T09:58:52Z</time></trkpt><trkpt lat="42.198688533774266" lon="13.747226479156875"><ele>1042.5</ele><time>2026-05-02T09:58:53Z</time></trkpt><trkpt lat="42.1987017534715" lon="13.747119760852934"><ele>1043.6666666666667</ele><time>2026-05-02T09:58:54Z</time></trkpt><trkpt lat="42.19873114692593" lon="13.747022549237176"><ele>1044.8333333333335</ele><time>2026-05-02T09:58:55Z</time></trkpt><trkpt lat="42.198768003819396" lon="13.74693771469954"><ele>1046.0</ele><time>2026-05-02T09:58:56Z</time></trkpt><trkpt lat="42.19879840067311" lon="13.746837587447995"><ele>1047.1666666666667</ele><time>2026-05-02T09:58:57Z</time></trkpt><trkpt lat="42.198815087276856" lon="13.746728378688337"><ele>1048.3333333333335</ele><time>2026-05-02T09:58:58Z</time></trkpt><trkpt lat="42.19881981692428" lon="13.746614429332224"><ele>1049.5</ele><time>2026-05-02T09:58:59Z</time></trkpt><trkpt lat="42.198821942392186" lon="13.746503794988762"><ele>1050.6666666666667</ele><time>2026-05-02T09:59:00Z</time></trkpt><trkpt lat="42.19882528478627" lon="13.746381430387977"><ele>1051.8333333333333</ele><time>2026-05-02T09:59:01Z</time></trkpt><trkpt lat="42.198829118089655" lon="13.74626961782918"><ele>1053.0</ele><time>2026-05-02T09:59:02Z</time></trkpt><trkpt lat="42.198837551417796" lon="13.746158789995762"><ele>1053.6666666666667</ele><time>2026-05-02T09:59:03Z</time></trkpt><trkpt lat="42.19885506487938" lon="13.746039104776163"><ele>1054.3333333333333</ele><time>2026-05-02T09:59:04Z</time></trkpt><trkpt lat="42.198886170427386" lon="13.745935134601108"><ele>1055.0</ele><time>2026-05-02T09:59:05Z</time></trkpt><trkpt lat="42.198925205036474" lon="13.745822979626185"><ele>1055.6666666666665</ele><time>2026-05-02T09:59:06Z</time></trkpt><trkpt lat="42.19895800748214" lon="13.745706636390635"><ele>1056.3333333333333</ele><time>2026-05-02T09:59:07Z</time></trkpt><trkpt lat="42.19898199273249" lon="13.74558984618742"><ele>1057.0</ele><time>2026-05-02T09:59:08Z</time></trkpt><trkpt lat="42.19900772094779" lon="13.745480482611221"><ele>1057.0</ele><time>2026-05-02T09:59:09Z</time></trkpt><trkpt lat="42.19903548683002" lon="13.745394841312295"><ele>1057.0</ele><time>2026-05-02T09:59:10Z</time></trkpt><trkpt lat="42.19907741521294" lon="13.74531855734159"><ele>1057.0</ele><time>2026-05-02T09:59:11Z</time></trkpt><trkpt lat="42.1991323165309" lon="13.745253146041115"><ele>1057.0</ele><time>2026-05-02T09:59:12Z</time></trkpt><trkpt lat="42.19919012276149" lon="13.745184738044621"><ele>1057.0</ele><time>2026-05-02T09:59:13Z</time></trkpt><trkpt lat="42.19924079422485" lon="13.7451095526112"><ele>1057.0</ele><time>2026-05-02T09:59:14Z</time></trkpt><trkpt lat="42.199285008199354" lon="13.745022209549699"><ele>1057.0</ele><time>2026-05-02T09:59:15Z</time></trkpt><trkpt lat="42.19932002954314" lon="13.744931651291974"><ele>1057.3333333333333</ele><time>2026-05-02T09:59:16Z</time></trkpt><trkpt lat="42.19934777897676" lon="13.74485522427921"><ele>1057.6666666666665</ele><time>2026-05-02T09:59:17Z</time></trkpt><trkpt lat="42.19938790099327" lon="13.744726000451294"><ele>1058.0</ele><time>2026-05-02T09:59:19Z</time></trkpt><trkpt lat="42.19942401621711" lon="13.744606276033695"><ele>1058.3333333333333</ele><time>2026-05-02T09:59:21Z</time></trkpt><trkpt lat="42.199466079634384" lon="13.744496252829217"><ele>1058.6666666666667</ele><time>2026-05-02T09:59:23Z</time></trkpt><trkpt lat="42.19951461562574" lon="13.74440203548821"><ele>1059.0</ele><time>2026-05-02T09:59:25Z</time></trkpt><trkpt lat="42.199590883554926" lon="13.744330080618285"><ele>1059.8</ele><time>2026-05-02T09:59:27Z</time></trkpt><trkpt lat="42.19969119019153" lon="13.744270539303969"><ele>1060.6000000000001</ele><time>2026-05-02T09:59:29Z</time></trkpt><trkpt lat="42.19978516157962" lon="13.744230340267942"><ele>1061.4</ele><time>2026-05-02T09:59:31Z</time></trkpt><trkpt lat="42.19985751661572" lon="13.744188624898584"><ele>1062.2</ele><time>2026-05-02T09:59:33Z</time></trkpt><trkpt lat="42.19994658825507" lon="13.744137775826966"><ele>1063.0</ele><time>2026-05-02T09:59:35Z</time></trkpt><trkpt lat="42.20002757099981" lon="13.744093547402843"><ele>1060.6</ele><time>2026-05-02T09:59:37Z</time></trkpt><trkpt lat="42.200100357167905" lon="13.744053905021758"><ele>1058.1999999999998</ele><time>2026-05-02T09:59:39Z</time></trkpt><trkpt lat="42.200173974465706" lon="13.743998351910347"><ele>1055.8</ele><time>2026-05-02T09:59:41Z</time></trkpt><trkpt lat="42.200247713661994" lon="13.743923911989393"><ele>1053.3999999999999</ele><time>2026-05-02T09:59:43Z</time></trkpt><trkpt lat="42.20032879774329" lon="13.743819766428707"><ele>1051.0</ele><time>2026-05-02T09:59:45Z</time></trkpt><trkpt lat="42.20038183558058" lon="13.743702709909721"><ele>1051.0</ele><time>2026-05-02T09:59:47Z</time></trkpt><trkpt lat="42.200442527995385" lon="13.743577165889548"><ele>1051.0</ele><time>2026-05-02T09:59:49Z</time></trkpt><trkpt lat="42.20050244073687" lon="13.74345930462341"><ele>1051.0</ele><time>2026-05-02T09:59:51Z</time></trkpt><trkpt lat="42.20055427897093" lon="13.743340556149349"><ele>1051.0</ele><time>2026-05-02T09:59:53Z</time></trkpt><trkpt lat="42.20061528985932" lon="13.743188920078396"><ele>1051.0</ele><time>2026-05-02T09:59:55Z</time></trkpt><trkpt lat="42.20064413127717" lon="13.743103161379544"><ele>1049.142857142857</ele><time>2026-05-02T09:59:56Z</time></trkpt><trkpt lat="42.20067042713157" lon="13.743021184847965"><ele>1047.2857142857142</ele><time>2026-05-02T09:59:57Z</time></trkpt><trkpt lat="42.20070216114433" lon="13.74293604771283"><ele>1045.4285714285713</ele><time>2026-05-02T09:59:58Z</time></trkpt><trkpt lat="42.200741914860906" lon="13.742853673759118"><ele>1043.5714285714284</ele><time>2026-05-02T09:59:59Z</time></trkpt><trkpt lat="42.2007923672109" lon="13.742770866114084"><ele>1041.7142857142856</ele><time>2026-05-02T10:00:00Z</time></trkpt><trkpt lat="42.200844536066555" lon="13.742692561549351"><ele>1039.857142857143</ele><time>2026-05-02T10:00:01Z</time></trkpt><trkpt lat="42.20089498632314" lon="13.74262278697063"><ele>1038.0</ele><time>2026-05-02T10:00:02Z</time></trkpt><trkpt lat="42.20093397995184" lon="13.742548085735251"><ele>1038.0</ele><time>2026-05-02T10:00:03Z</time></trkpt><trkpt lat="42.20099701570655" lon="13.742423326100736"><ele>1038.0</ele><time>2026-05-02T10:00:05Z</time></trkpt><trkpt lat="42.20104966600759" lon="13.742358282160867"><ele>1038.0</ele><time>2026-05-02T10:00:06Z</time></trkpt><trkpt lat="42.20111113397109" lon="13.742287964623634"><ele>1038.0</ele><time>2026-05-02T10:00:07Z</time></trkpt><trkpt lat="42.20117659986163" lon="13.742220684102492"><ele>1038.0</ele><time>2026-05-02T10:00:08Z</time></trkpt><trkpt lat="42.20123922429888" lon="13.74215350132612"><ele>1038.0</ele><time>2026-05-02T10:00:09Z</time></trkpt><trkpt lat="42.201295753686715" lon="13.742080914945824"><ele>1038.0</ele><time>2026-05-02T10:00:10Z</time></trkpt><trkpt lat="42.20134948222001" lon="13.742017150607014"><ele>1038.0</ele><time>2026-05-02T10:00:11Z</time></trkpt><trkpt lat="42.20139628987288" lon="13.74195545352679"><ele>1038.0</ele><time>2026-05-02T10:00:12Z</time></trkpt><trkpt lat="42.201480506214175" lon="13.741835232093571"><ele>1038.0</ele><time>2026-05-02T10:00:14Z</time></trkpt><trkpt lat="42.20155584919311" lon="13.74171614694368"><ele>1038.0</ele><time>2026-05-02T10:00:16Z</time></trkpt><trkpt lat="42.20161625168509" lon="13.741605608148026"><ele>1035.6666666666667</ele><time>2026-05-02T10:00:18Z</time></trkpt><trkpt lat="42.20169028836492" lon="13.74149377720361"><ele>1033.3333333333333</ele><time>2026-05-02T10:00:20Z</time></trkpt><trkpt lat="42.20174177731872" lon="13.741433740848118"><ele>1031.0</ele><time>2026-05-02T10:00:21Z</time></trkpt><trkpt lat="42.20179855952767" lon="13.741380274761966"><ele>1028.6666666666665</ele><time>2026-05-02T10:00:22Z</time></trkpt><trkpt lat="42.20186601069253" lon="13.741336294704942"><ele>1026.3333333333333</ele><time>2026-05-02T10:00:23Z</time></trkpt><trkpt lat="42.20192731678925" lon="13.741293963388928"><ele>1024.0</ele><time>2026-05-02T10:00:24Z</time></trkpt><trkpt lat="42.201991150622014" lon="13.7412657841521"><ele>1023.9999999999999</ele><time>2026-05-02T10:00:25Z</time></trkpt><trkpt lat="42.20206295468997" lon="13.7412567811726"><ele>1024.0</ele><time>2026-05-02T10:00:26Z</time></trkpt><trkpt lat="42.202143470969666" lon="13.741249073886467"><ele>1024.0</ele><time>2026-05-02T10:00:27Z</time></trkpt><trkpt lat="42.20221165510245" lon="13.74124076715625"><ele>1024.0</ele><time>2026-05-02T10:00:28Z</time></trkpt><trkpt lat="42.20229556888822" lon="13.741232207320966"><ele>1023.9999999999999</ele><time>2026-05-02T10:00:29Z</time></trkpt><trkpt lat="42.20237818263939" lon="13.741217592996465"><ele>1024.0</ele><time>2026-05-02T10:00:30Z</time></trkpt><trkpt lat="42.20246207946364" lon="13.741200983776139"><ele>1019.8333333333333</ele><time>2026-05-02T10:00:31Z</time></trkpt><trkpt lat="42.20254522856625" lon="13.741180468405615"><ele>1015.6666666666666</ele><time>2026-05-02T10:00:32Z</time></trkpt><trkpt lat="42.202633981715955" lon="13.741164212481769"><ele>1011.5</ele><time>2026-05-02T10:00:33Z</time></trkpt><trkpt lat="42.202718285886924" lon="13.74114636251139"><ele>1007.3333333333333</ele><time>2026-05-02T10:00:34Z</time></trkpt><trkpt lat="42.202796312640096" lon="13.741124492232531"><ele>1003.1666666666666</ele><time>2026-05-02T10:00:35Z</time></trkpt><trkpt lat="42.20286879361021" lon="13.741096145580356"><ele>999.0</ele><time>2026-05-02T10:00:36Z</time></trkpt><trkpt lat="42.20294026869487" lon="13.741060798759877"><ele>1000.1666666666666</ele><time>2026-05-02T10:00:37Z</time></trkpt><trkpt lat="42.20301253259958" lon="13.741030071937638"><ele>1001.3333333333333</ele><time>2026-05-02T10:00:38Z</time></trkpt><trkpt lat="42.20308170928115" lon="13.741015484855048"><ele>1002.5</ele><time>2026-05-02T10:00:39Z</time></trkpt><trkpt lat="42.20314776321453" lon="13.741004594719243"><ele>1003.6666666666666</ele><time>2026-05-02T10:00:40Z</time></trkpt><trkpt lat="42.20321588484427" lon="13.74099273228721"><ele>1004.8333333333333</ele><time>2026-05-02T10:00:41Z</time></trkpt><trkpt lat="42.20333249265251" lon="13.740948537224847"><ele>1006.0</ele><time>2026-05-02T10:00:43Z</time></trkpt><trkpt lat="42.20344066274115" lon="13.740894902910584"><ele>1006.0</ele><time>2026-05-02T10:00:45Z</time></trkpt><trkpt lat="42.203538772052994" lon="13.740866565631746"><ele>1005.9999999999999</ele><time>2026-05-02T10:00:47Z</time></trkpt><trkpt lat="42.20361236821269" lon="13.740780856523093"><ele>1005.9999999999999</ele><time>2026-05-02T10:00:49Z</time></trkpt><trkpt lat="42.20365810079679" lon="13.740662962563826"><ele>1006.0</ele><time>2026-05-02T10:00:51Z</time></trkpt><trkpt lat="42.2037353260269" lon="13.74053611533849"><ele>1006.0</ele><time>2026-05-02T10:00:53Z</time></trkpt><trkpt lat="42.20378186298282" lon="13.7404569351943"><ele>1005.9999999999999</ele><time>2026-05-02T10:00:54Z</time></trkpt><trkpt lat="42.20383062376202" lon="13.740366043362284"><ele>1006.0</ele><time>2026-05-02T10:00:55Z</time></trkpt><trkpt lat="42.20387899616354" lon="13.740274598680028"><ele>1006.0</ele><time>2026-05-02T10:00:56Z</time></trkpt><trkpt lat="42.20392382233962" lon="13.740196216363913"><ele>1006.0</ele><time>2026-05-02T10:00:57Z</time></trkpt><trkpt lat="42.20397236437865" lon="13.740124501727815"><ele>1005.9999999999999</ele><time>2026-05-02T10:00:58Z</time></trkpt><trkpt lat="42.20402407710107" lon="13.740065471593775"><ele>1006.0</ele><time>2026-05-02T10:00:59Z</time></trkpt><trkpt lat="42.20408614680152" lon="13.740015055498375"><ele>1004.9999999999999</ele><time>2026-05-02T10:01:00Z</time></trkpt><trkpt lat="42.204149341139384" lon="13.739970209196262"><ele>1004.0</ele><time>2026-05-02T10:01:01Z</time></trkpt><trkpt lat="42.20421598504515" lon="13.73992134255263"><ele>1003.0</ele><time>2026-05-02T10:01:02Z</time></trkpt><trkpt lat="42.204275837978564" lon="13.739861148368167"><ele>1002.0</ele><time>2026-05-02T10:01:03Z</time></trkpt><trkpt lat="42.204333763818916" lon="13.73979724730285"><ele>1000.9999999999999</ele><time>2026-05-02T10:01:04Z</time></trkpt><trkpt lat="42.20439949318154" lon="13.739737181644454"><ele>1000.0</ele><time>2026-05-02T10:01:05Z</time></trkpt><trkpt lat="42.204465269445926" lon="13.73968524409503"><ele>1000.0</ele><time>2026-05-02T10:01:06Z</time></trkpt><trkpt lat="42.20453530172337" lon="13.739642941682993"><ele>1000.0</ele><time>2026-05-02T10:01:07Z</time></trkpt><trkpt lat="42.204608899100464" lon="13.739608278633177"><ele>1000.0</ele><time>2026-05-02T10:01:08Z</time></trkpt><trkpt lat="42.20468272419612" lon="13.739580376249656"><ele>1000.0</ele><time>2026-05-02T10:01:09Z</time></trkpt><trkpt lat="42.20475214923432" lon="13.739556729529133"><ele>1000.0</ele><time>2026-05-02T10:01:10Z</time></trkpt><trkpt lat="42.20482334973404" lon="13.739547662278063"><ele>1000.0</ele><time>2026-05-02T10:01:11Z</time></trkpt><trkpt lat="42.2048891787826" lon="13.73953568255813"><ele>1000.0</ele><time>2026-05-02T10:01:12Z</time></trkpt><trkpt lat="42.204997900044596" lon="13.739469186214139"><ele>998.1666666666666</ele><time>2026-05-02T10:01:14Z</time></trkpt><trkpt lat="42.20507688140442" lon="13.739355506608442"><ele>996.3333333333333</ele><time>2026-05-02T10:01:16Z</time></trkpt><trkpt lat="42.20513127487453" lon="13.73919677277488"><ele>994.5</ele><time>2026-05-02T10:01:18Z</time></trkpt><trkpt lat="42.20517035437647" lon="13.739117169480192"><ele>992.6666666666667</ele><time>2026-05-02T10:01:19Z</time></trkpt><trkpt lat="42.20522003354725" lon="13.7390583220582"><ele>990.8333333333334</ele><time>2026-05-02T10:01:20Z</time></trkpt><trkpt lat="42.2052816249295" lon="13.739029104697146"><ele>989.0</ele><time>2026-05-02T10:01:21Z</time></trkpt><trkpt lat="42.2054129727177" lon="13.73900468528318"><ele>989.0</ele><time>2026-05-02T10:01:23Z</time></trkpt><trkpt lat="42.20548550766996" lon="13.738966448623888"><ele>988.9999999999999</ele><time>2026-05-02T10:01:24Z</time></trkpt><trkpt lat="42.20555870333364" lon="13.738941691912634"><ele>989.0</ele><time>2026-05-02T10:01:25Z</time></trkpt><trkpt lat="42.20563410700629" lon="13.73893792690519"><ele>989.0</ele><time>2026-05-02T10:01:26Z</time></trkpt><trkpt lat="42.20571311170838" lon="13.738939820071742"><ele>988.9999999999999</ele><time>2026-05-02T10:01:27Z</time></trkpt><trkpt lat="42.20578088982621" lon="13.738925323708623"><ele>989.0</ele><time>2026-05-02T10:01:28Z</time></trkpt><trkpt lat="42.20584730815531" lon="13.738889426413845"><ele>989.0</ele><time>2026-05-02T10:01:29Z</time></trkpt><trkpt lat="42.20591043049036" lon="13.738849637445778"><ele>988.0</ele><time>2026-05-02T10:01:30Z</time></trkpt><trkpt lat="42.20597450827374" lon="13.738808949705021"><ele>986.9999999999999</ele><time>2026-05-02T10:01:31Z</time></trkpt><trkpt lat="42.206043315700214" lon="13.738759694900128"><ele>986.0</ele><time>2026-05-02T10:01:32Z</time></trkpt><trkpt lat="42.206117442647134" lon="13.738714831014251"><ele>985.0</ele><time>2026-05-02T10:01:33Z</time></trkpt><trkpt lat="42.20618802519266" lon="13.738687152068442"><ele>983.9999999999999</ele><time>2026-05-02T10:01:34Z</time></trkpt><trkpt lat="42.20625392789601" lon="13.738686624559742"><ele>983.0</ele><time>2026-05-02T10:01:35Z</time></trkpt><trkpt lat="42.206320356073995" lon="13.738711684114852"><ele>982.0</ele><time>2026-05-02T10:01:36Z</time></trkpt><trkpt lat="42.20639461923481" lon="13.7387458148151"><ele>982.0</ele><time>2026-05-02T10:01:37Z</time></trkpt><trkpt lat="42.20646930526211" lon="13.738780280201665"><ele>981.9999999999999</ele><time>2026-05-02T10:01:38Z</time></trkpt><trkpt lat="42.20654529249541" lon="13.738811090560239"><ele>982.0</ele><time>2026-05-02T10:01:39Z</time></trkpt><trkpt lat="42.20661290151363" lon="13.738824755153368"><ele>982.0</ele><time>2026-05-02T10:01:40Z</time></trkpt><trkpt lat="42.206685247541216" lon="13.73882390548007"><ele>981.9999999999999</ele><time>2026-05-02T10:01:41Z</time></trkpt><trkpt lat="42.206752334366584" lon="13.738820073601508"><ele>982.0</ele><time>2026-05-02T10:01:42Z</time></trkpt><trkpt lat="42.20682386602578" lon="13.738824416743261"><ele>982.0</ele><time>2026-05-02T10:01:43Z</time></trkpt><trkpt lat="42.20690953960184" lon="13.738833521814481"><ele>982.0</ele><time>2026-05-02T10:01:44Z</time></trkpt><trkpt lat="42.206984098588514" lon="13.738838335581287"><ele>981.9999999999999</ele><time>2026-05-02T10:01:45Z</time></trkpt><trkpt lat="42.207050648368124" lon="13.738838347382451"><ele>982.0</ele><time>2026-05-02T10:01:46Z</time></trkpt><trkpt lat="42.207114602441855" lon="13.73883061572269"><ele>982.0</ele><time>2026-05-02T10:01:47Z</time></trkpt><trkpt lat="42.20718121004921" lon="13.738809329191826"><ele>981.9999999999999</ele><time>2026-05-02T10:01:48Z</time></trkpt><trkpt lat="42.20724835848652" lon="13.73876877890924"><ele>982.0</ele><time>2026-05-02T10:01:49Z</time></trkpt><trkpt lat="42.207309943210305" lon="13.738721870227705"><ele>982.0</ele><time>2026-05-02T10:01:50Z</time></trkpt><trkpt lat="42.20737457483721" lon="13.73867105108243"><ele>983.8333333333333</ele><time>2026-05-02T10:01:51Z</time></trkpt><trkpt lat="42.2074382342489" lon="13.73861324268343"><ele>985.6666666666666</ele><time>2026-05-02T10:01:52Z</time></trkpt><trkpt lat="42.2074992694048" lon="13.738538488703083"><ele>987.5</ele><time>2026-05-02T10:01:53Z</time></trkpt><trkpt lat="42.20755475968453" lon="13.738462759836274"><ele>989.3333333333333</ele><time>2026-05-02T10:01:54Z</time></trkpt><trkpt lat="42.20760937634382" lon="13.738377399356636"><ele>991.1666666666666</ele><time>2026-05-02T10:01:55Z</time></trkpt><trkpt lat="42.207665278184884" lon="13.738288117386917"><ele>993.0</ele><time>2026-05-02T10:01:56Z</time></trkpt><trkpt lat="42.20771495626291" lon="13.738201211502954"><ele>993.0</ele><time>2026-05-02T10:01:57Z</time></trkpt><trkpt lat="42.20776633949481" lon="13.73812015523998"><ele>993.0</ele><time>2026-05-02T10:01:58Z</time></trkpt><trkpt lat="42.20781744103748" lon="13.738053742305798"><ele>993.0</ele><time>2026-05-02T10:01:59Z</time></trkpt><trkpt lat="42.20787677305434" lon="13.737992466798302"><ele>993.0</ele><time>2026-05-02T10:02:00Z</time></trkpt><trkpt lat="42.20794862849932" lon="13.737936922882254"><ele>993.0</ele><time>2026-05-02T10:02:01Z</time></trkpt><trkpt lat="42.20802164060712" lon="13.737885455230199"><ele>993.0</ele><time>2026-05-02T10:02:02Z</time></trkpt><trkpt lat="42.20809071083216" lon="13.737823473419864"><ele>993.0</ele><time>2026-05-02T10:02:03Z</time></trkpt><trkpt lat="42.20815795635168" lon="13.737766149575002"><ele>993.0</ele><time>2026-05-02T10:02:04Z</time></trkpt><trkpt lat="42.208229074351514" lon="13.737725967717205"><ele>993.0</ele><time>2026-05-02T10:02:05Z</time></trkpt><trkpt lat="42.208306253784976" lon="13.73767417020885"><ele>993.0</ele><time>2026-05-02T10:02:06Z</time></trkpt><trkpt lat="42.208382611449004" lon="13.737628047354464"><ele>993.0</ele><time>2026-05-02T10:02:07Z</time></trkpt><trkpt lat="42.20845868248828" lon="13.737598062270857"><ele>993.0</ele><time>2026-05-02T10:02:08Z</time></trkpt><trkpt lat="42.20852507572789" lon="13.737577343978012"><ele>993.6666666666666</ele><time>2026-05-02T10:02:09Z</time></trkpt><trkpt lat="42.20859216949096" lon="13.737542154415804"><ele>994.3333333333333</ele><time>2026-05-02T10:02:10Z</time></trkpt><trkpt lat="42.20867239757252" lon="13.737501481206941"><ele>995.0</ele><time>2026-05-02T10:02:11Z</time></trkpt><trkpt lat="42.208755837071855" lon="13.737458393884175"><ele>995.6666666666666</ele><time>2026-05-02T10:02:12Z</time></trkpt><trkpt lat="42.20884047549045" lon="13.737414740046813"><ele>996.3333333333333</ele><time>2026-05-02T10:02:13Z</time></trkpt><trkpt lat="42.208924173026176" lon="13.737371666083705"><ele>997.0</ele><time>2026-05-02T10:02:14Z</time></trkpt><trkpt lat="42.209006255177606" lon="13.737329018034377"><ele>994.6666666666666</ele><time>2026-05-02T10:02:15Z</time></trkpt><trkpt lat="42.2090832586433" lon="13.73728756801999"><ele>992.3333333333333</ele><time>2026-05-02T10:02:16Z</time></trkpt><trkpt lat="42.20915662574915" lon="13.737256438240278"><ele>990.0</ele><time>2026-05-02T10:02:17Z</time></trkpt><trkpt lat="42.2092374075171" lon="13.73722329331053"><ele>987.6666666666667</ele><time>2026-05-02T10:02:18Z</time></trkpt><trkpt lat="42.20932052644659" lon="13.737185982935591"><ele>985.3333333333334</ele><time>2026-05-02T10:02:19Z</time></trkpt><trkpt lat="42.20940294662726" lon="13.737141945475091"><ele>983.0</ele><time>2026-05-02T10:02:20Z</time></trkpt><trkpt lat="42.209468449823454" lon="13.737104892569374"><ele>983.0</ele><time>2026-05-02T10:02:21Z</time></trkpt><trkpt lat="42.20955230468932" lon="13.737061958022043"><ele>983.0</ele><time>2026-05-02T10:02:23Z</time></trkpt><trkpt lat="42.20960788758473" lon="13.7369956118306"><ele>983.0</ele><time>2026-05-02T10:02:25Z</time></trkpt><trkpt lat="42.20966133598559" lon="13.736889273468012"><ele>983.0</ele><time>2026-05-02T10:02:27Z</time></trkpt><trkpt lat="42.20974324675442" lon="13.736790717785802"><ele>983.0</ele><time>2026-05-02T10:02:29Z</time></trkpt><trkpt lat="42.209838628675755" lon="13.73670136109815"><ele>983.1666666666667</ele><time>2026-05-02T10:02:31Z</time></trkpt><trkpt lat="42.20992948583456" lon="13.73662059720897"><ele>983.3333333333334</ele><time>2026-05-02T10:02:33Z</time></trkpt><trkpt lat="42.209982286662765" lon="13.736569369393385"><ele>983.5</ele><time>2026-05-02T10:02:34Z</time></trkpt><trkpt lat="42.21003261882803" lon="13.73651205609858"><ele>983.6666666666667</ele><time>2026-05-02T10:02:35Z</time></trkpt><trkpt lat="42.210089746695765" lon="13.73644743002318"><ele>983.8333333333334</ele><time>2026-05-02T10:02:36Z</time></trkpt><trkpt lat="42.21015091611169" lon="13.736385571740522"><ele>984.0</ele><time>2026-05-02T10:02:37Z</time></trkpt><trkpt lat="42.210211794724366" lon="13.736332702313097"><ele>984.0</ele><time>2026-05-02T10:02:38Z</time></trkpt><trkpt lat="42.210276929726945" lon="13.73628816967092"><ele>984.0</ele><time>2026-05-02T10:02:39Z</time></trkpt><trkpt lat="42.210336589776404" lon="13.736247885974896"><ele>984.0</ele><time>2026-05-02T10:02:40Z</time></trkpt><trkpt lat="42.21041358777346" lon="13.736198289683085"><ele>984.0</ele><time>2026-05-02T10:02:42Z</time></trkpt><trkpt lat="42.210383289685836" lon="13.736105689709085"><ele>984.0</ele><time>2026-05-02T10:02:55Z</time></trkpt><trkpt lat="42.21029314292653" lon="13.736061124188188"><ele>984.0</ele><time>2026-05-02T10:02:57Z</time></trkpt><trkpt lat="42.210236344403675" lon="13.7360149806276"><ele>985.4000000000001</ele><time>2026-05-02T10:02:58Z</time></trkpt><trkpt lat="42.210123059705595" lon="13.735945400830015"><ele>986.8000000000001</ele><time>2026-05-02T10:03:00Z</time></trkpt><trkpt lat="42.210063098912535" lon="13.735906695309081"><ele>988.1999999999999</ele><time>2026-05-02T10:03:01Z</time></trkpt><trkpt lat="42.2099578235685" lon="13.735826303966299"><ele>989.5999999999999</ele><time>2026-05-02T10:03:03Z</time></trkpt><trkpt lat="42.2098938517277" lon="13.735774210132135"><ele>991.0</ele><time>2026-05-02T10:03:04Z</time></trkpt><trkpt lat="42.209834184218906" lon="13.735719755313507"><ele>994.3333333333333</ele><time>2026-05-02T10:03:05Z</time></trkpt><trkpt lat="42.209763003226094" lon="13.735652504920532"><ele>997.6666666666666</ele><time>2026-05-02T10:03:06Z</time></trkpt><trkpt lat="42.20969198483277" lon="13.735579001930052"><ele>1001.0</ele><time>2026-05-02T10:03:07Z</time></trkpt><trkpt lat="42.20962652715183" lon="13.735497644855595"><ele>1004.3333333333333</ele><time>2026-05-02T10:03:08Z</time></trkpt><trkpt lat="42.209536715768486" lon="13.735446096224567"><ele>1007.6666666666666</ele><time>2026-05-02T10:03:09Z</time></trkpt><trkpt lat="42.209479629706614" lon="13.73536791663612"><ele>1011.0</ele><time>2026-05-02T10:03:10Z</time></trkpt><trkpt lat="42.20941657536733" lon="13.735290081631298"><ele>1010.9999999999999</ele><time>2026-05-02T10:03:11Z</time></trkpt><trkpt lat="42.2093611897434" lon="13.73522136222708"><ele>1011.0</ele><time>2026-05-02T10:03:12Z</time></trkpt><trkpt lat="42.20930870650029" lon="13.735158339797081"><ele>1010.9999999999999</ele><time>2026-05-02T10:03:13Z</time></trkpt><trkpt lat="42.20924919542774" lon="13.735105498822074"><ele>1010.9999999999999</ele><time>2026-05-02T10:03:14Z</time></trkpt><trkpt lat="42.209183736100776" lon="13.735080263070829"><ele>1011.0</ele><time>2026-05-02T10:03:15Z</time></trkpt><trkpt lat="42.20911652146696" lon="13.73507193080414"><ele>1010.9999999999999</ele><time>2026-05-02T10:03:16Z</time></trkpt><trkpt lat="42.209038916469666" lon="13.735063447697582"><ele>1010.9999999999999</ele><time>2026-05-02T10:03:17Z</time></trkpt><trkpt lat="42.20893987950427" lon="13.735056532392491"><ele>1015.5</ele><time>2026-05-02T10:03:18Z</time></trkpt><trkpt lat="42.20883138868723" lon="13.735058179076557"><ele>1020.0</ele><time>2026-05-02T10:03:19Z</time></trkpt><trkpt lat="42.20870291833355" lon="13.735076701675704"><ele>1024.5</ele><time>2026-05-02T10:03:20Z</time></trkpt><trkpt lat="42.20856683471432" lon="13.735106119135892"><ele>1029.0</ele><time>2026-05-02T10:03:21Z</time></trkpt><trkpt lat="42.208445368976044" lon="13.735148368454364"><ele>1029.0</ele><time>2026-05-02T10:03:22Z</time></trkpt><trkpt lat="42.2083476312246" lon="13.735205438492892"><ele>1029.0</ele><time>2026-05-02T10:03:23Z</time></trkpt><trkpt lat="42.2082706671136" lon="13.735280112924539"><ele>1029.0</ele><time>2026-05-02T10:03:24Z</time></trkpt><trkpt lat="42.20820242841722" lon="13.735375563484956"><ele>1029.0</ele><time>2026-05-02T10:03:25Z</time></trkpt><trkpt lat="42.20814047162466" lon="13.735481924018762"><ele>1029.0</ele><time>2026-05-02T10:03:26Z</time></trkpt><trkpt lat="42.208089525910424" lon="13.73560240954264"><ele>1031.2</ele><time>2026-05-02T10:03:27Z</time></trkpt><trkpt lat="42.2080411954941" lon="13.735734601807916"><ele>1033.4</ele><time>2026-05-02T10:03:28Z</time></trkpt><trkpt lat="42.20797756331551" lon="13.735855865658381"><ele>1035.6</ele><time>2026-05-02T10:03:29Z</time></trkpt><trkpt lat="42.20792189731091" lon="13.735978279504765"><ele>1037.8</ele><time>2026-05-02T10:03:30Z</time></trkpt><trkpt lat="42.20786298928294" lon="13.73610852665707"><ele>1040.0</ele><time>2026-05-02T10:03:31Z</time></trkpt><trkpt lat="42.20780815276096" lon="13.736230551374343"><ele>1040.0</ele><time>2026-05-02T10:03:32Z</time></trkpt><trkpt lat="42.20774852943634" lon="13.736346538555058"><ele>1040.0</ele><time>2026-05-02T10:03:33Z</time></trkpt><trkpt lat="42.207679699373436" lon="13.736453653183196"><ele>1040.0</ele><time>2026-05-02T10:03:34Z</time></trkpt><trkpt lat="42.207605967460154" lon="13.736550068747746"><ele>1040.0</ele><time>2026-05-02T10:03:35Z</time></trkpt><trkpt lat="42.2075394056757" lon="13.736636039531328"><ele>1040.0</ele><time>2026-05-02T10:03:36Z</time></trkpt><trkpt lat="42.20748163423191" lon="13.736706083182614"><ele>1040.0</ele><time>2026-05-02T10:03:37Z</time></trkpt><trkpt lat="42.207417985830986" lon="13.736772902837052"><ele>1040.0</ele><time>2026-05-02T10:03:38Z</time></trkpt><trkpt lat="42.20735271486381" lon="13.73682889943187"><ele>1040.0</ele><time>2026-05-02T10:03:39Z</time></trkpt><trkpt lat="42.207291065757396" lon="13.736875128294136"><ele>1040.0</ele><time>2026-05-02T10:03:40Z</time></trkpt><trkpt lat="42.207184237850385" lon="13.736934415223804"><ele>1040.0</ele><time>2026-05-02T10:03:42Z</time></trkpt><trkpt lat="42.20711395880943" lon="13.736916360340768"><ele>1040.0</ele><time>2026-05-02T10:03:45Z</time></trkpt><trkpt lat="42.20705070124042" lon="13.736851636245612"><ele>1040.2</ele><time>2026-05-02T10:03:47Z</time></trkpt><trkpt lat="42.207002837905776" lon="13.73672575994374"><ele>1040.4</ele><time>2026-05-02T10:03:49Z</time></trkpt><trkpt lat="42.20695326456764" lon="13.736547749656172"><ele>1040.6</ele><time>2026-05-02T10:03:51Z</time></trkpt><trkpt lat="42.20692960234914" lon="13.73645167190602"><ele>1040.8</ele><time>2026-05-02T10:03:52Z</time></trkpt><trkpt lat="42.20690462275762" lon="13.736346853054878"><ele>1041.0</ele><time>2026-05-02T10:03:53Z</time></trkpt><trkpt lat="42.206880395018324" lon="13.736243935320811"><ele>1041.0</ele><time>2026-05-02T10:03:54Z</time></trkpt><trkpt lat="42.206852009051424" lon="13.736123753674514"><ele>1041.0</ele><time>2026-05-02T10:03:55Z</time></trkpt><trkpt lat="42.2068283345599" lon="13.736010974567959"><ele>1041.0</ele><time>2026-05-02T10:03:56Z</time></trkpt><trkpt lat="42.20681446861412" lon="13.735898740179051"><ele>1041.0</ele><time>2026-05-02T10:03:57Z</time></trkpt><trkpt lat="42.20681498470174" lon="13.735792195455652"><ele>1041.0</ele><time>2026-05-02T10:03:58Z</time></trkpt><trkpt lat="42.206817652296344" lon="13.735693106129874"><ele>1041.0</ele><time>2026-05-02T10:03:59Z</time></trkpt><trkpt lat="42.206803974175436" lon="13.735606819968647"><ele>1043.3999999999999</ele><time>2026-05-02T10:04:00Z</time></trkpt><trkpt lat="42.20676546560862" lon="13.735446663312018"><ele>1045.8</ele><time>2026-05-02T10:04:02Z</time></trkpt><trkpt lat="42.20671877823092" lon="13.735349043954809"><ele>1048.1999999999998</ele><time>2026-05-02T10:04:03Z</time></trkpt><trkpt lat="42.20666426629931" lon="13.73524361530708"><ele>1050.6</ele><time>2026-05-02T10:04:04Z</time></trkpt><trkpt lat="42.20664349077371" lon="13.735129858849087"><ele>1053.0</ele><time>2026-05-02T10:04:05Z</time></trkpt><trkpt lat="42.20661472258559" lon="13.735026169329284"><ele>1055.0</ele><time>2026-05-02T10:04:06Z</time></trkpt><trkpt lat="42.206590765908444" lon="13.734922518097045"><ele>1057.0</ele><time>2026-05-02T10:04:07Z</time></trkpt><trkpt lat="42.20656840641578" lon="13.734807893673812"><ele>1059.0</ele><time>2026-05-02T10:04:08Z</time></trkpt><trkpt lat="42.20656182674238" lon="13.734704299685747"><ele>1061.0</ele><time>2026-05-02T10:04:09Z</time></trkpt><trkpt lat="42.20656225226219" lon="13.734612749458114"><ele>1063.0</ele><time>2026-05-02T10:04:10Z</time></trkpt><trkpt lat="42.206573451198345" lon="13.73445138051321"><ele>1065.0</ele><time>2026-05-02T10:04:12Z</time></trkpt><trkpt lat="42.206590374107485" lon="13.73426374205527"><ele>1066.1666666666667</ele><time>2026-05-02T10:04:14Z</time></trkpt><trkpt lat="42.20660279413962" lon="13.73414448501217"><ele>1067.3333333333333</ele><time>2026-05-02T10:04:15Z</time></trkpt><trkpt lat="42.20661910060462" lon="13.734034682465417"><ele>1068.5</ele><time>2026-05-02T10:04:16Z</time></trkpt><trkpt lat="42.20663750381245" lon="13.733919533831024"><ele>1069.6666666666665</ele><time>2026-05-02T10:04:17Z</time></trkpt><trkpt lat="42.206636808829" lon="13.733816902605955"><ele>1070.8333333333333</ele><time>2026-05-02T10:04:18Z</time></trkpt><trkpt lat="42.20664938359033" lon="13.733701745754463"><ele>1072.0</ele><time>2026-05-02T10:04:19Z</time></trkpt><trkpt lat="42.20664200548027" lon="13.733577697907828"><ele>1073.6</ele><time>2026-05-02T10:04:20Z</time></trkpt><trkpt lat="42.20663524344595" lon="13.733442999624662"><ele>1075.2</ele><time>2026-05-02T10:04:21Z</time></trkpt><trkpt lat="42.20660718499311" lon="13.7333142639294"><ele>1076.8</ele><time>2026-05-02T10:04:22Z</time></trkpt><trkpt lat="42.2065753496824" lon="13.733206289626679"><ele>1078.4</ele><time>2026-05-02T10:04:23Z</time></trkpt><trkpt lat="42.20652498005193" lon="13.733113145639926"><ele>1080.0</ele><time>2026-05-02T10:04:24Z</time></trkpt><trkpt lat="42.20649851911057" lon="13.733010605846886"><ele>1081.6</ele><time>2026-05-02T10:04:25Z</time></trkpt><trkpt lat="42.206450869735946" lon="13.732899345698657"><ele>1083.2</ele><time>2026-05-02T10:04:26Z</time></trkpt><trkpt lat="42.20639356249414" lon="13.732776988221252"><ele>1084.8</ele><time>2026-05-02T10:04:27Z</time></trkpt><trkpt lat="42.206338619887596" lon="13.732677582210826"><ele>1086.4</ele><time>2026-05-02T10:04:28Z</time></trkpt><trkpt lat="42.206270647984326" lon="13.732601565156843"><ele>1088.0</ele><time>2026-05-02T10:04:29Z</time></trkpt><trkpt lat="42.20620567285515" lon="13.732531598282495"><ele>1089.1666666666667</ele><time>2026-05-02T10:04:30Z</time></trkpt><trkpt lat="42.206148385339645" lon="13.732401240610898"><ele>1090.3333333333335</ele><time>2026-05-02T10:04:32Z</time></trkpt><trkpt lat="42.2061447762223" lon="13.732312265275445"><ele>1091.5</ele><time>2026-05-02T10:04:33Z</time></trkpt><trkpt lat="42.20612919415722" lon="13.732192709388896"><ele>1092.6666666666667</ele><time>2026-05-02T10:04:34Z</time></trkpt><trkpt lat="42.20611631935576" lon="13.732077060868376"><ele>1093.8333333333333</ele><time>2026-05-02T10:04:35Z</time></trkpt><trkpt lat="42.20610569206219" lon="13.731956249105666"><ele>1095.0</ele><time>2026-05-02T10:04:36Z</time></trkpt><trkpt lat="42.20609553105561" lon="13.731833092815968"><ele>1097.6</ele><time>2026-05-02T10:04:37Z</time></trkpt><trkpt lat="42.20607139083249" lon="13.731701306708963"><ele>1100.2</ele><time>2026-05-02T10:04:38Z</time></trkpt><trkpt lat="42.20606067290619" lon="13.731561653462329"><ele>1102.8</ele><time>2026-05-02T10:04:39Z</time></trkpt><trkpt lat="42.206032708526244" lon="13.731437438342997"><ele>1105.4</ele><time>2026-05-02T10:04:40Z</time></trkpt><trkpt lat="42.20599590509916" lon="13.731309573963548"><ele>1108.0</ele><time>2026-05-02T10:04:41Z</time></trkpt><trkpt lat="42.20596472509558" lon="13.731218620802935"><ele>1108.0</ele><time>2026-05-02T10:04:42Z</time></trkpt><trkpt lat="42.20592485593382" lon="13.731130118458147"><ele>1108.0</ele><time>2026-05-02T10:04:43Z</time></trkpt><trkpt lat="42.20589472151402" lon="13.731043236277305"><ele>1108.0</ele><time>2026-05-02T10:04:44Z</time></trkpt><trkpt lat="42.205872788319375" lon="13.730945331092304"><ele>1108.0</ele><time>2026-05-02T10:04:45Z</time></trkpt><trkpt lat="42.20584023482137" lon="13.730853103412505"><ele>1108.0</ele><time>2026-05-02T10:04:46Z</time></trkpt><trkpt lat="42.20580571710834" lon="13.730752749150222"><ele>1108.0</ele><time>2026-05-02T10:04:47Z</time></trkpt><trkpt lat="42.20577993258917" lon="13.730673022101747"><ele>1108.0</ele><time>2026-05-02T10:04:48Z</time></trkpt><trkpt lat="42.205758036949874" lon="13.73057665349955"><ele>1109.8333333333333</ele><time>2026-05-02T10:04:49Z</time></trkpt><trkpt lat="42.20572854487932" lon="13.730468818663104"><ele>1111.6666666666665</ele><time>2026-05-02T10:04:50Z</time></trkpt><trkpt lat="42.20566043071222" lon="13.730395499567715"><ele>1113.5</ele><time>2026-05-02T10:04:51Z</time></trkpt><trkpt lat="42.20560667791517" lon="13.730330108596727"><ele>1115.3333333333333</ele><time>2026-05-02T10:04:52Z</time></trkpt><trkpt lat="42.20556239573531" lon="13.730234158483297"><ele>1117.1666666666667</ele><time>2026-05-02T10:04:53Z</time></trkpt><trkpt lat="42.20553865618135" lon="13.730106328837913"><ele>1119.0</ele><time>2026-05-02T10:04:54Z</time></trkpt><trkpt lat="42.205515798345324" lon="13.729985922183488"><ele>1121.6000000000001</ele><time>2026-05-02T10:04:55Z</time></trkpt><trkpt lat="42.20545886955048" lon="13.729878119096872"><ele>1124.2</ele><time>2026-05-02T10:04:56Z</time></trkpt><trkpt lat="42.205372543433576" lon="13.72977562451201"><ele>1126.8000000000002</ele><time>2026-05-02T10:04:57Z</time></trkpt><trkpt lat="42.205285705083696" lon="13.729664988575509"><ele>1129.4</ele><time>2026-05-02T10:04:58Z</time></trkpt><trkpt lat="42.20521657553916" lon="13.729558119872063"><ele>1132.0</ele><time>2026-05-02T10:04:59Z</time></trkpt><trkpt lat="42.20517107166769" lon="13.729456537210444"><ele>1131.5</ele><time>2026-05-02T10:05:00Z</time></trkpt><trkpt lat="42.20511837764025" lon="13.729350617177019"><ele>1131.0</ele><time>2026-05-02T10:05:01Z</time></trkpt><trkpt lat="42.205055958341624" lon="13.729259637382494"><ele>1130.5</ele><time>2026-05-02T10:05:02Z</time></trkpt><trkpt lat="42.20499767641941" lon="13.72918131845648"><ele>1130.0</ele><time>2026-05-02T10:05:03Z</time></trkpt><trkpt lat="42.20495062794546" lon="13.729116450790853"><ele>1129.5</ele><time>2026-05-02T10:05:04Z</time></trkpt><trkpt lat="42.204919041686104" lon="13.729029883107197"><ele>1129.0</ele><time>2026-05-02T10:05:05Z</time></trkpt><trkpt lat="42.20481774463348" lon="13.728943152981874"><ele>1130.0</ele><time>2026-05-02T10:05:07Z</time></trkpt><trkpt lat="42.20470025826529" lon="13.728905076437073"><ele>1131.0</ele><time>2026-05-02T10:05:09Z</time></trkpt><trkpt lat="42.2046364159167" lon="13.728881158130212"><ele>1132.0</ele><time>2026-05-02T10:05:10Z</time></trkpt><trkpt lat="42.20456701323911" lon="13.728851227575484"><ele>1133.0</ele><time>2026-05-02T10:05:11Z</time></trkpt><trkpt lat="42.204487161036035" lon="13.72881737589982"><ele>1134.0</ele><time>2026-05-02T10:05:12Z</time></trkpt><trkpt lat="42.20440317049048" lon="13.728780478375553"><ele>1135.0</ele><time>2026-05-02T10:05:13Z</time></trkpt><trkpt lat="42.204335117631665" lon="13.728741688544167"><ele>1135.0</ele><time>2026-05-02T10:05:14Z</time></trkpt><trkpt lat="42.2042481905154" lon="13.728674539346537"><ele>1135.0</ele><time>2026-05-02T10:05:16Z</time></trkpt><trkpt lat="42.20416987612951" lon="13.728609471094362"><ele>1135.0</ele><time>2026-05-02T10:05:18Z</time></trkpt><trkpt lat="42.2041107778187" lon="13.728554818866492"><ele>1135.0</ele><time>2026-05-02T10:05:19Z</time></trkpt><trkpt lat="42.2040574953026" lon="13.728501065164371"><ele>1135.0</ele><time>2026-05-02T10:05:20Z</time></trkpt><trkpt lat="42.20400151881382" lon="13.728450719832026"><ele>1135.0</ele><time>2026-05-02T10:05:21Z</time></trkpt><trkpt lat="42.20389583626162" lon="13.728369226339325"><ele>1134.3333333333333</ele><time>2026-05-02T10:05:23Z</time></trkpt><trkpt lat="42.203829621186266" lon="13.72834305653765"><ele>1133.6666666666665</ele><time>2026-05-02T10:05:24Z</time></trkpt><trkpt lat="42.203750997699586" lon="13.72835718605857"><ele>1133.0</ele><time>2026-05-02T10:05:25Z</time></trkpt><trkpt lat="42.203681197383005" lon="13.728381297700103"><ele>1132.3333333333333</ele><time>2026-05-02T10:05:26Z</time></trkpt><trkpt lat="42.20359818481884" lon="13.728413813955243"><ele>1131.6666666666667</ele><time>2026-05-02T10:05:27Z</time></trkpt><trkpt lat="42.20351405011512" lon="13.72844702510452"><ele>1131.0</ele><time>2026-05-02T10:05:28Z</time></trkpt><trkpt lat="42.203429227077486" lon="13.728503444352553"><ele>1131.0</ele><time>2026-05-02T10:05:29Z</time></trkpt><trkpt lat="42.20334861697412" lon="13.728528061677972"><ele>1131.0</ele><time>2026-05-02T10:05:30Z</time></trkpt><trkpt lat="42.2032717733293" lon="13.728560453830502"><ele>1131.0</ele><time>2026-05-02T10:05:31Z</time></trkpt><trkpt lat="42.20320070943157" lon="13.728584212180458"><ele>1131.0</ele><time>2026-05-02T10:05:32Z</time></trkpt><trkpt lat="42.20311504276493" lon="13.728589337460889"><ele>1131.0</ele><time>2026-05-02T10:05:33Z</time></trkpt><trkpt lat="42.20301999399354" lon="13.72857196928789"><ele>1131.0</ele><time>2026-05-02T10:05:34Z</time></trkpt><trkpt lat="42.20291295838663" lon="13.728561608760026"><ele>1133.5</ele><time>2026-05-02T10:05:35Z</time></trkpt><trkpt lat="42.20279635937391" lon="13.72857367163251"><ele>1136.0</ele><time>2026-05-02T10:05:36Z</time></trkpt><trkpt lat="42.20267911603355" lon="13.728592352827404"><ele>1138.5</ele><time>2026-05-02T10:05:37Z</time></trkpt><trkpt lat="42.202564397516696" lon="13.728618096998929"><ele>1141.0</ele><time>2026-05-02T10:05:38Z</time></trkpt><trkpt lat="42.20244879046819" lon="13.72864054484446"><ele>1141.0</ele><time>2026-05-02T10:05:39Z</time></trkpt><trkpt lat="42.20233398277788" lon="13.728642089479594"><ele>1141.0</ele><time>2026-05-02T10:05:40Z</time></trkpt><trkpt lat="42.2022270769436" lon="13.728616095412477"><ele>1141.0</ele><time>2026-05-02T10:05:41Z</time></trkpt><trkpt lat="42.20212497719377" lon="13.728569538565445"><ele>1141.0</ele><time>2026-05-02T10:05:42Z</time></trkpt><trkpt lat="42.202032161785674" lon="13.728520849470668"><ele>1141.0</ele><time>2026-05-02T10:05:43Z</time></trkpt><trkpt lat="42.20194395946418" lon="13.72848971642884"><ele>1140.3333333333333</ele><time>2026-05-02T10:05:44Z</time></trkpt><trkpt lat="42.20185879797469" lon="13.728477462360337"><ele>1139.6666666666665</ele><time>2026-05-02T10:05:45Z</time></trkpt><trkpt lat="42.20176731632685" lon="13.728456235400397"><ele>1139.0</ele><time>2026-05-02T10:05:46Z</time></trkpt><trkpt lat="42.20167804295301" lon="13.728473333568468"><ele>1138.3333333333333</ele><time>2026-05-02T10:05:47Z</time></trkpt><trkpt lat="42.20159248786582" lon="13.728488445366"><ele>1137.6666666666667</ele><time>2026-05-02T10:05:48Z</time></trkpt><trkpt lat="42.201510539208286" lon="13.728502920080734"><ele>1137.0</ele><time>2026-05-02T10:05:49Z</time></trkpt><trkpt lat="42.20143530474916" lon="13.728516208882295"><ele>1137.8</ele><time>2026-05-02T10:05:50Z</time></trkpt><trkpt lat="42.20136492295837" lon="13.728528640532344"><ele>1138.6</ele><time>2026-05-02T10:05:51Z</time></trkpt><trkpt lat="42.20130164366024" lon="13.728540049911324"><ele>1139.3999999999999</ele><time>2026-05-02T10:05:52Z</time></trkpt><trkpt lat="42.20118052917442" lon="13.728559639398124"><ele>1140.2</ele><time>2026-05-02T10:05:54Z</time></trkpt><trkpt lat="42.20106781969368" lon="13.728571252894348"><ele>1141.0</ele><time>2026-05-02T10:05:56Z</time></trkpt><trkpt lat="42.200964682050085" lon="13.7285599586781"><ele>1138.8</ele><time>2026-05-02T10:05:58Z</time></trkpt><trkpt lat="42.20090079467272" lon="13.728552479497871"><ele>1136.6</ele><time>2026-05-02T10:05:59Z</time></trkpt><trkpt lat="42.20077581902016" lon="13.728542994122924"><ele>1134.4</ele><time>2026-05-02T10:06:01Z</time></trkpt><trkpt lat="42.20067434552185" lon="13.728520338251068"><ele>1132.2</ele><time>2026-05-02T10:06:03Z</time></trkpt><trkpt lat="42.20060869792468" lon="13.728452877445074"><ele>1130.0</ele><time>2026-05-02T10:06:05Z</time></trkpt><trkpt lat="42.20050828261427" lon="13.728384298127523"><ele>1128.6666666666667</ele><time>2026-05-02T10:06:07Z</time></trkpt><trkpt lat="42.20040642044442" lon="13.72827647314216"><ele>1127.3333333333335</ele><time>2026-05-02T10:06:09Z</time></trkpt><trkpt lat="42.20036592098001" lon="13.728203894699123"><ele>1126.0</ele><time>2026-05-02T10:06:10Z</time></trkpt><trkpt lat="42.200331161580536" lon="13.728124133944876"><ele>1124.6666666666667</ele><time>2026-05-02T10:06:11Z</time></trkpt><trkpt lat="42.200292417200494" lon="13.728028896101161"><ele>1123.3333333333333</ele><time>2026-05-02T10:06:12Z</time></trkpt><trkpt lat="42.20025599047974" lon="13.727949799945815"><ele>1122.0</ele><time>2026-05-02T10:06:13Z</time></trkpt><trkpt lat="42.20021127421313" lon="13.727864659864586"><ele>1122.0</ele><time>2026-05-02T10:06:14Z</time></trkpt><trkpt lat="42.200162550440666" lon="13.727798998370504"><ele>1122.0</ele><time>2026-05-02T10:06:15Z</time></trkpt><trkpt lat="42.20009086631146" lon="13.7277388344168"><ele>1122.0</ele><time>2026-05-02T10:06:16Z</time></trkpt><trkpt lat="42.20002363008056" lon="13.727681909275686"><ele>1122.0</ele><time>2026-05-02T10:06:17Z</time></trkpt><trkpt lat="42.199959143453995" lon="13.727626468817567"><ele>1122.0</ele><time>2026-05-02T10:06:18Z</time></trkpt><trkpt lat="42.19989694202333" lon="13.727573549033018"><ele>1122.0</ele><time>2026-05-02T10:06:19Z</time></trkpt><trkpt lat="42.19983025928752" lon="13.72751834093219"><ele>1119.6666666666667</ele><time>2026-05-02T10:06:20Z</time></trkpt><trkpt lat="42.199762228722825" lon="13.727469160584906"><ele>1117.3333333333333</ele><time>2026-05-02T10:06:21Z</time></trkpt><trkpt lat="42.19970403717622" lon="13.727427660871012"><ele>1115.0</ele><time>2026-05-02T10:06:22Z</time></trkpt><trkpt lat="42.199605472643064" lon="13.727342965127049"><ele>1112.6666666666665</ele><time>2026-05-02T10:06:24Z</time></trkpt><trkpt lat="42.1995592398301" lon="13.727225873345416"><ele>1110.3333333333333</ele><time>2026-05-02T10:06:26Z</time></trkpt><trkpt lat="42.19952636819076" lon="13.727152723465203"><ele>1108.0</ele><time>2026-05-02T10:06:27Z</time></trkpt><trkpt lat="42.1994593757679" lon="13.727087580648371"><ele>1108.0</ele><time>2026-05-02T10:06:28Z</time></trkpt><trkpt lat="42.19937570770983" lon="13.727051211871661"><ele>1108.0</ele><time>2026-05-02T10:06:29Z</time></trkpt><trkpt lat="42.1992934530015" lon="13.727013172830494"><ele>1108.0</ele><time>2026-05-02T10:06:30Z</time></trkpt><trkpt lat="42.199207426796114" lon="13.726986322009273"><ele>1108.0</ele><time>2026-05-02T10:06:31Z</time></trkpt><trkpt lat="42.19913102886035" lon="13.726975613722242"><ele>1108.0</ele><time>2026-05-02T10:06:32Z</time></trkpt><trkpt lat="42.19905772446476" lon="13.726982785109684"><ele>1108.0</ele><time>2026-05-02T10:06:33Z</time></trkpt><trkpt lat="42.198993053821745" lon="13.726992365735724"><ele>1107.6</ele><time>2026-05-02T10:06:34Z</time></trkpt><trkpt lat="42.19888186348909" lon="13.727001312593814"><ele>1107.1999999999998</ele><time>2026-05-02T10:06:36Z</time></trkpt><trkpt lat="42.198770445697505" lon="13.726993283316592"><ele>1106.8</ele><time>2026-05-02T10:06:38Z</time></trkpt><trkpt lat="42.19865777432993" lon="13.726913825454538"><ele>1106.3999999999999</ele><time>2026-05-02T10:06:40Z</time></trkpt><trkpt lat="42.198589649098025" lon="13.726862911872725"><ele>1106.0</ele><time>2026-05-02T10:06:41Z</time></trkpt><trkpt lat="42.19852153284433" lon="13.726808871700419"><ele>1104.1666666666667</ele><time>2026-05-02T10:06:42Z</time></trkpt><trkpt lat="42.19844853613855" lon="13.726761734617773"><ele>1102.3333333333335</ele><time>2026-05-02T10:06:43Z</time></trkpt><trkpt lat="42.19838054362205" lon="13.726722311872415"><ele>1100.5</ele><time>2026-05-02T10:06:44Z</time></trkpt><trkpt lat="42.198311147345784" lon="13.726683603403561"><ele>1098.6666666666667</ele><time>2026-05-02T10:06:45Z</time></trkpt><trkpt lat="42.19824706361126" lon="13.726645966640174"><ele>1096.8333333333333</ele><time>2026-05-02T10:06:46Z</time></trkpt><trkpt lat="42.19818585555967" lon="13.726608677443773"><ele>1095.0</ele><time>2026-05-02T10:06:47Z</time></trkpt><trkpt lat="42.198077917396844" lon="13.726557962587103"><ele>1094.0</ele><time>2026-05-02T10:06:49Z</time></trkpt><trkpt lat="42.198014212656574" lon="13.726517778597724"><ele>1093.0</ele><time>2026-05-02T10:06:51Z</time></trkpt><trkpt lat="42.19798094719814" lon="13.726417970433685"><ele>1092.0</ele><time>2026-05-02T10:06:53Z</time></trkpt><trkpt lat="42.19788527239592" lon="13.726338919316412"><ele>1091.0</ele><time>2026-05-02T10:06:55Z</time></trkpt><trkpt lat="42.197805243544394" lon="13.726345004200518"><ele>1090.0</ele><time>2026-05-02T10:06:56Z</time></trkpt><trkpt lat="42.1977448936038" lon="13.72638734385722"><ele>1089.0</ele><time>2026-05-02T10:06:57Z</time></trkpt><trkpt lat="42.197689281411044" lon="13.726446892804878"><ele>1089.0</ele><time>2026-05-02T10:06:58Z</time></trkpt><trkpt lat="42.19764397093213" lon="13.72652248211913"><ele>1089.0</ele><time>2026-05-02T10:06:59Z</time></trkpt><trkpt lat="42.19764206624957" lon="13.726624964004113"><ele>1089.0</ele><time>2026-05-02T10:07:00Z</time></trkpt><trkpt lat="42.19760329038965" lon="13.726713458617116"><ele>1089.0</ele><time>2026-05-02T10:07:01Z</time></trkpt><trkpt lat="42.19757817166883" lon="13.72679190879123"><ele>1089.0</ele><time>2026-05-02T10:07:02Z</time></trkpt><trkpt lat="42.19749157429815" lon="13.726885237132231"><ele>1089.0</ele><time>2026-05-02T10:07:04Z</time></trkpt><trkpt lat="42.19737659045841" lon="13.726957280873147"><ele>1088.0</ele><time>2026-05-02T10:07:06Z</time></trkpt><trkpt lat="42.19731087087762" lon="13.726986170571461"><ele>1087.0</ele><time>2026-05-02T10:07:07Z</time></trkpt><trkpt lat="42.19724724581566" lon="13.727010203442607"><ele>1086.0</ele><time>2026-05-02T10:07:08Z</time></trkpt><trkpt lat="42.19714482738719" lon="13.727040809063785"><ele>1085.0</ele><time>2026-05-02T10:07:10Z</time></trkpt><trkpt lat="42.19707885285101" lon="13.727059512231673"><ele>1084.0</ele><time>2026-05-02T10:07:11Z</time></trkpt><trkpt lat="42.19699944998276" lon="13.727083304910506"><ele>1083.0</ele><time>2026-05-02T10:07:12Z</time></trkpt><trkpt lat="42.19691418104875" lon="13.727112096912977"><ele>1083.0</ele><time>2026-05-02T10:07:13Z</time></trkpt><trkpt lat="42.1968244150284" lon="13.72714552202151"><ele>1083.0</ele><time>2026-05-02T10:07:14Z</time></trkpt><trkpt lat="42.196734332084596" lon="13.727180114258939"><ele>1083.0</ele><time>2026-05-02T10:07:15Z</time></trkpt><trkpt lat="42.196658141563994" lon="13.727210442656999"><ele>1083.0</ele><time>2026-05-02T10:07:16Z</time></trkpt><trkpt lat="42.1965933923514" lon="13.727237595564603"><ele>1083.0</ele><time>2026-05-02T10:07:17Z</time></trkpt><trkpt lat="42.19653094848519" lon="13.727265997960172"><ele>1083.0</ele><time>2026-05-02T10:07:18Z</time></trkpt><trkpt lat="42.19644075755661" lon="13.727313857971756"><ele>1082.8333333333333</ele><time>2026-05-02T10:07:20Z</time></trkpt><trkpt lat="42.19638730989693" lon="13.72719570069545"><ele>1082.6666666666667</ele><time>2026-05-02T10:07:26Z</time></trkpt><trkpt lat="42.19638906362883" lon="13.727099755635344"><ele>1082.5</ele><time>2026-05-02T10:07:27Z</time></trkpt><trkpt lat="42.19639554186286" lon="13.726995841464547"><ele>1082.3333333333335</ele><time>2026-05-02T10:07:28Z</time></trkpt><trkpt lat="42.196411992584565" lon="13.726894547367143"><ele>1082.1666666666667</ele><time>2026-05-02T10:07:29Z</time></trkpt><trkpt lat="42.19643169427582" lon="13.726785122286374"><ele>1082.0</ele><time>2026-05-02T10:07:30Z</time></trkpt><trkpt lat="42.196454160600425" lon="13.72666801507553"><ele>1083.2</ele><time>2026-05-02T10:07:31Z</time></trkpt><trkpt lat="42.1964865018884" lon="13.726561085506752"><ele>1084.4</ele><time>2026-05-02T10:07:32Z</time></trkpt><trkpt lat="42.19650986156282" lon="13.726460068187324"><ele>1085.6</ele><time>2026-05-02T10:07:33Z</time></trkpt><trkpt lat="42.196524451422114" lon="13.72634280669572"><ele>1086.8</ele><time>2026-05-02T10:07:34Z</time></trkpt><trkpt lat="42.196544590432126" lon="13.726208273524222"><ele>1088.0</ele><time>2026-05-02T10:07:35Z</time></trkpt><trkpt lat="42.19657380775932" lon="13.726079471158215"><ele>1088.8333333333335</ele><time>2026-05-02T10:07:36Z</time></trkpt><trkpt lat="42.196617682472294" lon="13.725966264845212"><ele>1089.6666666666667</ele><time>2026-05-02T10:07:37Z</time></trkpt><trkpt lat="42.19667201368421" lon="13.725883673241768"><ele>1090.5</ele><time>2026-05-02T10:07:38Z</time></trkpt><trkpt lat="42.19673642988017" lon="13.72581282415221"><ele>1091.3333333333333</ele><time>2026-05-02T10:07:39Z</time></trkpt><trkpt lat="42.19680764821587" lon="13.725771463977392"><ele>1092.1666666666665</ele><time>2026-05-02T10:07:40Z</time></trkpt><trkpt lat="42.196910744274064" lon="13.725716646004189"><ele>1093.0</ele><time>2026-05-02T10:07:42Z</time></trkpt><trkpt lat="42.19698058570815" lon="13.725612933165467"><ele>1093.0</ele><time>2026-05-02T10:07:44Z</time></trkpt><trkpt lat="42.197027168234754" lon="13.72546772393059"><ele>1093.0</ele><time>2026-05-02T10:07:46Z</time></trkpt><trkpt lat="42.19705905153954" lon="13.725294902343911"><ele>1093.0</ele><time>2026-05-02T10:07:48Z</time></trkpt><trkpt lat="42.19708624420819" lon="13.725195561326856"><ele>1093.0</ele><time>2026-05-02T10:07:49Z</time></trkpt><trkpt lat="42.197105354278676" lon="13.725102321482069"><ele>1093.0</ele><time>2026-05-02T10:07:50Z</time></trkpt><trkpt lat="42.197135468903106" lon="13.725010935379617"><ele>1093.2</ele><time>2026-05-02T10:07:51Z</time></trkpt><trkpt lat="42.197170409315255" lon="13.72490850475943"><ele>1093.4</ele><time>2026-05-02T10:07:52Z</time></trkpt><trkpt lat="42.19719887593552" lon="13.724791207955006"><ele>1093.6000000000001</ele><time>2026-05-02T10:07:53Z</time></trkpt><trkpt lat="42.197214090937294" lon="13.72467918268416"><ele>1093.8</ele><time>2026-05-02T10:07:54Z</time></trkpt><trkpt lat="42.19722435590134" lon="13.724546053485406"><ele>1094.0</ele><time>2026-05-02T10:07:55Z</time></trkpt><trkpt lat="42.197229229342376" lon="13.724417490470337"><ele>1095.0</ele><time>2026-05-02T10:07:56Z</time></trkpt><trkpt lat="42.19722011171466" lon="13.72432300158151"><ele>1096.0</ele><time>2026-05-02T10:07:57Z</time></trkpt><trkpt lat="42.19720126889272" lon="13.724219518350512"><ele>1097.0</ele><time>2026-05-02T10:07:58Z</time></trkpt><trkpt lat="42.197181438841724" lon="13.724099426324013"><ele>1098.0</ele><time>2026-05-02T10:07:59Z</time></trkpt><trkpt lat="42.19716545509501" lon="13.723994401452217"><ele>1099.0</ele><time>2026-05-02T10:08:00Z</time></trkpt><trkpt lat="42.19715571923238" lon="13.723884095976889"><ele>1100.0</ele><time>2026-05-02T10:08:01Z</time></trkpt><trkpt lat="42.197161370690765" lon="13.72376456236553"><ele>1100.0</ele><time>2026-05-02T10:08:02Z</time></trkpt><trkpt lat="42.19717123239377" lon="13.723645403664353"><ele>1100.0</ele><time>2026-05-02T10:08:03Z</time></trkpt><trkpt lat="42.19718026120048" lon="13.723517611739705"><ele>1100.0</ele><time>2026-05-02T10:08:04Z</time></trkpt><trkpt lat="42.19719158390175" lon="13.72340145276453"><ele>1100.0</ele><time>2026-05-02T10:08:05Z</time></trkpt><trkpt lat="42.197207850369125" lon="13.72330756072889"><ele>1100.0</ele><time>2026-05-02T10:08:06Z</time></trkpt><trkpt lat="42.19722278061645" lon="13.723211278541765"><ele>1100.0</ele><time>2026-05-02T10:08:07Z</time></trkpt><trkpt lat="42.197243670089186" lon="13.723120515539422"><ele>1100.0</ele><time>2026-05-02T10:08:08Z</time></trkpt><trkpt lat="42.197279323627065" lon="13.723027649583049"><ele>1100.0</ele><time>2026-05-02T10:08:09Z</time></trkpt><trkpt lat="42.197327338436075" lon="13.722942837940376"><ele>1100.0</ele><time>2026-05-02T10:08:10Z</time></trkpt><trkpt lat="42.19737424291723" lon="13.722855260853267"><ele>1100.0</ele><time>2026-05-02T10:08:11Z</time></trkpt><trkpt lat="42.19741681665704" lon="13.722770232951234"><ele>1100.0</ele><time>2026-05-02T10:08:12Z</time></trkpt><trkpt lat="42.19746345775199" lon="13.722688538143135"><ele>1100.0</ele><time>2026-05-02T10:08:13Z</time></trkpt><trkpt lat="42.19750793307528" lon="13.722606708563116"><ele>1098.6</ele><time>2026-05-02T10:08:14Z</time></trkpt><trkpt lat="42.197546016042025" lon="13.72252686618655"><ele>1097.2</ele><time>2026-05-02T10:08:15Z</time></trkpt><trkpt lat="42.19760918331233" lon="13.722385255704493"><ele>1095.8</ele><time>2026-05-02T10:08:17Z</time></trkpt><trkpt lat="42.19767123609959" lon="13.722238738341785"><ele>1094.4</ele><time>2026-05-02T10:08:19Z</time></trkpt><trkpt lat="42.197707086572834" lon="13.72216424159301"><ele>1093.0</ele><time>2026-05-02T10:08:20Z</time></trkpt><trkpt lat="42.19777078275265" lon="13.72204178610883"><ele>1093.0</ele><time>2026-05-02T10:08:22Z</time></trkpt><trkpt lat="42.19782910584912" lon="13.721930429211836"><ele>1093.0</ele><time>2026-05-02T10:08:23.999Z</time></trkpt><trkpt lat="42.19789728569061" lon="13.721838354819555"><ele>1093.0</ele><time>2026-05-02T10:08:25.999Z</time></trkpt><trkpt lat="42.19798502160254" lon="13.721748441110407"><ele>1093.0</ele><time>2026-05-02T10:08:27.999Z</time></trkpt><trkpt lat="42.19807782651057" lon="13.721671378445714"><ele>1093.0</ele><time>2026-05-02T10:08:29.999Z</time></trkpt><trkpt lat="42.1981635030335" lon="13.721594721041246"><ele>1092.0</ele><time>2026-05-02T10:08:31.999Z</time></trkpt><trkpt lat="42.19824632067638" lon="13.721485762064928"><ele>1091.0</ele><time>2026-05-02T10:08:33.999Z</time></trkpt><trkpt lat="42.19832292246528" lon="13.721377295119968"><ele>1090.0</ele><time>2026-05-02T10:08:35.999Z</time></trkpt><trkpt lat="42.19840478562676" lon="13.721272214182486"><ele>1089.0</ele><time>2026-05-02T10:08:37.999Z</time></trkpt><trkpt lat="42.19845556542629" lon="13.721211093621253"><ele>1088.0</ele><time>2026-05-02T10:08:38.999Z</time></trkpt><trkpt lat="42.198511629733225" lon="13.721151271247578"><ele>1088.0</ele><time>2026-05-02T10:08:39.999Z</time></trkpt><trkpt lat="42.19857202445169" lon="13.721085722189398"><ele>1088.0</ele><time>2026-05-02T10:08:40.999Z</time></trkpt><trkpt lat="42.19864064016849" lon="13.721020542324307"><ele>1088.0</ele><time>2026-05-02T10:08:42Z</time></trkpt><trkpt lat="42.1987105863623" lon="13.720960259461803"><ele>1088.0</ele><time>2026-05-02T10:08:43Z</time></trkpt><trkpt lat="42.198776296408376" lon="13.720914566528881"><ele>1088.0</ele><time>2026-05-02T10:08:44Z</time></trkpt><trkpt lat="42.198840566241266" lon="13.720875073915273"><ele>1088.0</ele><time>2026-05-02T10:08:45Z</time></trkpt><trkpt lat="42.19894407488651" lon="13.720787633343656"><ele>1086.5</ele><time>2026-05-02T10:08:47Z</time></trkpt><trkpt lat="42.19899664481024" lon="13.720732784594741"><ele>1085.0</ele><time>2026-05-02T10:08:48Z</time></trkpt><trkpt lat="42.19905110824003" lon="13.720673198830829"><ele>1083.5</ele><time>2026-05-02T10:08:49Z</time></trkpt><trkpt lat="42.19910411079976" lon="13.720613093701347"><ele>1082.0</ele><time>2026-05-02T10:08:50Z</time></trkpt><trkpt lat="42.19918257829401" lon="13.720507916652627"><ele>1080.5</ele><time>2026-05-02T10:08:52Z</time></trkpt><trkpt lat="42.19924774434508" lon="13.72043671776626"><ele>1079.0</ele><time>2026-05-02T10:08:54Z</time></trkpt><trkpt lat="42.19931341430854" lon="13.720348459289893"><ele>1077.1666666666667</ele><time>2026-05-02T10:08:56Z</time></trkpt><trkpt lat="42.19936646889618" lon="13.72024424113386"><ele>1075.3333333333335</ele><time>2026-05-02T10:08:58Z</time></trkpt><trkpt lat="42.19940081178287" lon="13.720100140625753"><ele>1073.5</ele><time>2026-05-02T10:09:00Z</time></trkpt><trkpt lat="42.19941255140934" lon="13.72001623453358"><ele>1071.6666666666667</ele><time>2026-05-02T10:09:01Z</time></trkpt><trkpt lat="42.19942350704994" lon="13.719922448931735"><ele>1069.8333333333333</ele><time>2026-05-02T10:09:02Z</time></trkpt><trkpt lat="42.199435789788645" lon="13.719811668868132"><ele>1068.0</ele><time>2026-05-02T10:09:03Z</time></trkpt><trkpt lat="42.1994655705053" lon="13.719705582758783"><ele>1068.2</ele><time>2026-05-02T10:09:04Z</time></trkpt><trkpt lat="42.19951251024212" lon="13.719594227695936"><ele>1068.4</ele><time>2026-05-02T10:09:05Z</time></trkpt><trkpt lat="42.199566904815825" lon="13.71949459322723"><ele>1068.6000000000001</ele><time>2026-05-02T10:09:06Z</time></trkpt><trkpt lat="42.19960835469231" lon="13.719394251743926"><ele>1068.8</ele><time>2026-05-02T10:09:07Z</time></trkpt><trkpt lat="42.199632960296434" lon="13.719286656729606"><ele>1069.0</ele><time>2026-05-02T10:09:08Z</time></trkpt><trkpt lat="42.19966409557735" lon="13.71915312135565"><ele>1069.0</ele><time>2026-05-02T10:09:09Z</time></trkpt><trkpt lat="42.19970463537326" lon="13.719036594102862"><ele>1069.0</ele><time>2026-05-02T10:09:10Z</time></trkpt><trkpt lat="42.199753214234676" lon="13.718934257672482"><ele>1069.0</ele><time>2026-05-02T10:09:11Z</time></trkpt><trkpt lat="42.199804052475756" lon="13.71884584928939"><ele>1069.0</ele><time>2026-05-02T10:09:12Z</time></trkpt><trkpt lat="42.199863206957936" lon="13.718763996828166"><ele>1069.0</ele><time>2026-05-02T10:09:13Z</time></trkpt><trkpt lat="42.19991953146395" lon="13.71868983143734"><ele>1069.0</ele><time>2026-05-02T10:09:14Z</time></trkpt><trkpt lat="42.19997958627335" lon="13.71859650058528"><ele>1067.0</ele><time>2026-05-02T10:09:15Z</time></trkpt><trkpt lat="42.2000372656356" lon="13.71849344427613"><ele>1065.0</ele><time>2026-05-02T10:09:16Z</time></trkpt><trkpt lat="42.20008114598127" lon="13.718390940026003"><ele>1063.0</ele><time>2026-05-02T10:09:17Z</time></trkpt><trkpt lat="42.20012340128781" lon="13.718292653397326"><ele>1061.0</ele><time>2026-05-02T10:09:18Z</time></trkpt><trkpt lat="42.20016544909679" lon="13.718206001536448"><ele>1059.0</ele><time>2026-05-02T10:09:19Z</time></trkpt><trkpt lat="42.20024355810912" lon="13.718096976222926"><ele>1059.0</ele><time>2026-05-02T10:09:21Z</time></trkpt><trkpt lat="42.20026209117084" lon="13.717977241629342"><ele>1059.0</ele><time>2026-05-02T10:09:23Z</time></trkpt><trkpt lat="42.20027024162818" lon="13.717850905575721"><ele>1059.0</ele><time>2026-05-02T10:09:25Z</time></trkpt><trkpt lat="42.200304546322265" lon="13.717727407710697"><ele>1059.0</ele><time>2026-05-02T10:09:27Z</time></trkpt><trkpt lat="42.20028219286805" lon="13.717606078296072"><ele>1059.0</ele><time>2026-05-02T10:09:29Z</time></trkpt><trkpt lat="42.20022831593714" lon="13.71745145940918"><ele>1059.0</ele><time>2026-05-02T10:09:31Z</time></trkpt><trkpt lat="42.20019910636308" lon="13.717373708320919"><ele>1059.0</ele><time>2026-05-02T10:09:32Z</time></trkpt><trkpt lat="42.20016492719349" lon="13.717297368747579"><ele>1059.0</ele><time>2026-05-02T10:09:33Z</time></trkpt><trkpt lat="42.200110884091785" lon="13.717159588091134"><ele>1059.0</ele><time>2026-05-02T10:09:35Z</time></trkpt><trkpt lat="42.20008405141365" lon="13.717082157982508"><ele>1059.0</ele><time>2026-05-02T10:09:36Z</time></trkpt><trkpt lat="42.200060006298195" lon="13.71698908519871"><ele>1059.0</ele><time>2026-05-02T10:09:37Z</time></trkpt><trkpt lat="42.20003982523031" lon="13.716879705699952"><ele>1059.0</ele><time>2026-05-02T10:09:38Z</time></trkpt><trkpt lat="42.20002147233398" lon="13.71677264598364"><ele>1059.0</ele><time>2026-05-02T10:09:39Z</time></trkpt><trkpt lat="42.199996333988445" lon="13.716657037267673"><ele>1059.0</ele><time>2026-05-02T10:09:40Z</time></trkpt><trkpt lat="42.19996650284565" lon="13.716549613871445"><ele>1059.0</ele><time>2026-05-02T10:09:41Z</time></trkpt><trkpt lat="42.199937784271796" lon="13.716452891047531"><ele>1059.0</ele><time>2026-05-02T10:09:42Z</time></trkpt><trkpt lat="42.19992809656676" lon="13.71636036081442"><ele>1059.0</ele><time>2026-05-02T10:09:43Z</time></trkpt><trkpt lat="42.199945769154326" lon="13.71626750322898"><ele>1059.0</ele><time>2026-05-02T10:09:44Z</time></trkpt><trkpt lat="42.19998186300826" lon="13.716165300483256"><ele>1059.0</ele><time>2026-05-02T10:09:45Z</time></trkpt><trkpt lat="42.20002765124164" lon="13.716045381856306"><ele>1059.0</ele><time>2026-05-02T10:09:46Z</time></trkpt><trkpt lat="42.200088202014875" lon="13.715921295671933"><ele>1059.0</ele><time>2026-05-02T10:09:47Z</time></trkpt><trkpt lat="42.200153040137366" lon="13.715803500165466"><ele>1059.0</ele><time>2026-05-02T10:09:48Z</time></trkpt><trkpt lat="42.20020218409824" lon="13.715698978226293"><ele>1059.1666666666667</ele><time>2026-05-02T10:09:49Z</time></trkpt><trkpt lat="42.20023053336934" lon="13.715590309483748"><ele>1059.3333333333333</ele><time>2026-05-02T10:09:50Z</time></trkpt><trkpt lat="42.200250837488014" lon="13.715470690934966"><ele>1059.5</ele><time>2026-05-02T10:09:51Z</time></trkpt><trkpt lat="42.200272074907915" lon="13.715353660022867"><ele>1059.6666666666665</ele><time>2026-05-02T10:09:52Z</time></trkpt><trkpt lat="42.200287912451365" lon="13.715248776488622"><ele>1059.8333333333333</ele><time>2026-05-02T10:09:53Z</time></trkpt><trkpt lat="42.200300704027484" lon="13.715158901092709"><ele>1060.0</ele><time>2026-05-02T10:09:54Z</time></trkpt><trkpt lat="42.20030158257167" lon="13.715006610511905"><ele>1060.1666666666665</ele><time>2026-05-02T10:09:56Z</time></trkpt><trkpt lat="42.20031734635178" lon="13.714908316480948"><ele>1060.3333333333333</ele><time>2026-05-02T10:09:57Z</time></trkpt><trkpt lat="42.20035880513565" lon="13.714812080628805"><ele>1060.5</ele><time>2026-05-02T10:09:58Z</time></trkpt><trkpt lat="42.20040784041849" lon="13.714724363827845"><ele>1060.6666666666667</ele><time>2026-05-02T10:09:59Z</time></trkpt><trkpt lat="42.200439871749495" lon="13.714635393429896"><ele>1060.8333333333335</ele><time>2026-05-02T10:10:00Z</time></trkpt><trkpt lat="42.20046054493257" lon="13.714536678267285"><ele>1061.0</ele><time>2026-05-02T10:10:01Z</time></trkpt><trkpt lat="42.20047089638322" lon="13.714439841526666"><ele>1060.8333333333335</ele><time>2026-05-02T10:10:02Z</time></trkpt><trkpt lat="42.20047638865303" lon="13.714336798537754"><ele>1060.6666666666667</ele><time>2026-05-02T10:10:03Z</time></trkpt><trkpt lat="42.2004806211408" lon="13.714236754659805"><ele>1060.5</ele><time>2026-05-02T10:10:04Z</time></trkpt><trkpt lat="42.20048918265434" lon="13.714113258197163"><ele>1060.3333333333333</ele><time>2026-05-02T10:10:05Z</time></trkpt><trkpt lat="42.20050540179942" lon="13.713972957513613"><ele>1060.1666666666665</ele><time>2026-05-02T10:10:06Z</time></trkpt><trkpt lat="42.20051683015096" lon="13.713836595467434"><ele>1060.0</ele><time>2026-05-02T10:10:07Z</time></trkpt><trkpt lat="42.200534893884736" lon="13.713709525252844"><ele>1060.0</ele><time>2026-05-02T10:10:08Z</time></trkpt><trkpt lat="42.20055605332964" lon="13.713576880764723"><ele>1060.0</ele><time>2026-05-02T10:10:09Z</time></trkpt><trkpt lat="42.20057776868801" lon="13.713459789042293"><ele>1060.0</ele><time>2026-05-02T10:10:10Z</time></trkpt><trkpt lat="42.20059930672708" lon="13.71334141435444"><ele>1060.0</ele><time>2026-05-02T10:10:11Z</time></trkpt><trkpt lat="42.20062395504323" lon="13.713226141261156"><ele>1060.0</ele><time>2026-05-02T10:10:12Z</time></trkpt><trkpt lat="42.200654093255906" lon="13.713119347388362"><ele>1055.8</ele><time>2026-05-02T10:10:13Z</time></trkpt><trkpt lat="42.200692787835266" lon="13.71301253891751"><ele>1051.6</ele><time>2026-05-02T10:10:14Z</time></trkpt><trkpt lat="42.20073844540911" lon="13.712908506118886"><ele>1047.4</ele><time>2026-05-02T10:10:15Z</time></trkpt><trkpt lat="42.20078848327228" lon="13.71280065367312"><ele>1043.2</ele><time>2026-05-02T10:10:16Z</time></trkpt><trkpt lat="42.200840118596744" lon="13.712682337957375"><ele>1039.0</ele><time>2026-05-02T10:10:17Z</time></trkpt><trkpt lat="42.20088384556931" lon="13.712572202322564"><ele>1038.5</ele><time>2026-05-02T10:10:18Z</time></trkpt><trkpt lat="42.20092016043652" lon="13.712472697794126"><ele>1038.0</ele><time>2026-05-02T10:10:19Z</time></trkpt><trkpt lat="42.20095238256505" lon="13.712386819720303"><ele>1037.5</ele><time>2026-05-02T10:10:20Z</time></trkpt><trkpt lat="42.20098239453572" lon="13.712294416603878"><ele>1037.0</ele><time>2026-05-02T10:10:21Z</time></trkpt><trkpt lat="42.20100099088602" lon="13.712202780155222"><ele>1036.5</ele><time>2026-05-02T10:10:22Z</time></trkpt><trkpt lat="42.20101755322798" lon="13.712101347764504"><ele>1036.0</ele><time>2026-05-02T10:10:23Z</time></trkpt><trkpt lat="42.20103909142363" lon="13.711995067008251"><ele>1035.5</ele><time>2026-05-02T10:10:24Z</time></trkpt><trkpt lat="42.20106417805266" lon="13.711895314102277"><ele>1035.0</ele><time>2026-05-02T10:10:25Z</time></trkpt><trkpt lat="42.201089396749765" lon="13.71180976907626"><ele>1034.5</ele><time>2026-05-02T10:10:26Z</time></trkpt><trkpt lat="42.20111257093932" lon="13.711729032927861"><ele>1034.0</ele><time>2026-05-02T10:10:27Z</time></trkpt><trkpt lat="42.201141731509935" lon="13.711563735067227"><ele>1033.5</ele><time>2026-05-02T10:10:29Z</time></trkpt><trkpt lat="42.20114399044142" lon="13.711474169237391"><ele>1033.0</ele><time>2026-05-02T10:10:29.999Z</time></trkpt><trkpt lat="42.2011406483871" lon="13.711378424841039"><ele>1033.0</ele><time>2026-05-02T10:10:30.999Z</time></trkpt><trkpt lat="42.201127041154265" lon="13.711271421247874"><ele>1033.0</ele><time>2026-05-02T10:10:31.999Z</time></trkpt><trkpt lat="42.20110938327099" lon="13.71117419628562"><ele>1033.0</ele><time>2026-05-02T10:10:32.999Z</time></trkpt><trkpt lat="42.201094178896625" lon="13.71106468494602"><ele>1033.0</ele><time>2026-05-02T10:10:33.999Z</time></trkpt><trkpt lat="42.20108733776199" lon="13.710950785690281"><ele>1033.0</ele><time>2026-05-02T10:10:34.999Z</time></trkpt><trkpt lat="42.20107663612583" lon="13.710838289673438"><ele>1033.0</ele><time>2026-05-02T10:10:35.999Z</time></trkpt><trkpt lat="42.201061761719124" lon="13.710742919454539"><ele>1032.3333333333333</ele><time>2026-05-02T10:10:36.999Z</time></trkpt><trkpt lat="42.201059340287266" lon="13.71058392309169"><ele>1031.6666666666665</ele><time>2026-05-02T10:10:38.999Z</time></trkpt><trkpt lat="42.20107491624159" lon="13.710497235001608"><ele>1031.0</ele><time>2026-05-02T10:10:39.999Z</time></trkpt><trkpt lat="42.20109249219319" lon="13.71040230330441"><ele>1030.3333333333333</ele><time>2026-05-02T10:10:40.999Z</time></trkpt><trkpt lat="42.20111080087624" lon="13.7102912331664"><ele>1029.6666666666667</ele><time>2026-05-02T10:10:41.999Z</time></trkpt><trkpt lat="42.20112636422121" lon="13.710185779042988"><ele>1029.0</ele><time>2026-05-02T10:10:42.999Z</time></trkpt><trkpt lat="42.201149418667285" lon="13.710084108157368"><ele>1028.8333333333333</ele><time>2026-05-02T10:10:43.999Z</time></trkpt><trkpt lat="42.2011736124224" lon="13.709985127584849"><ele>1028.6666666666667</ele><time>2026-05-02T10:10:44.999Z</time></trkpt><trkpt lat="42.2011887144863" lon="13.709889264453059"><ele>1028.5</ele><time>2026-05-02T10:10:45.999Z</time></trkpt><trkpt lat="42.201208427327174" lon="13.709776348891562"><ele>1028.3333333333335</ele><time>2026-05-02T10:10:46.999Z</time></trkpt><trkpt lat="42.201235248132384" lon="13.709639062673789"><ele>1028.1666666666667</ele><time>2026-05-02T10:10:47.999Z</time></trkpt><trkpt lat="42.201260461580446" lon="13.709512958192638"><ele>1028.0</ele><time>2026-05-02T10:10:48.999Z</time></trkpt><trkpt lat="42.201292793091625" lon="13.70940099809946"><ele>1028.3333333333335</ele><time>2026-05-02T10:10:49.999Z</time></trkpt><trkpt lat="42.20131137810904" lon="13.709296734866788"><ele>1028.6666666666667</ele><time>2026-05-02T10:10:50.999Z</time></trkpt><trkpt lat="42.20132651665602" lon="13.709194907054332"><ele>1029.0</ele><time>2026-05-02T10:10:51.999Z</time></trkpt><trkpt lat="42.20133511398293" lon="13.7090874829731"><ele>1029.3333333333333</ele><time>2026-05-02T10:10:52.999Z</time></trkpt><trkpt lat="42.20134685758887" lon="13.70898722454043"><ele>1029.6666666666665</ele><time>2026-05-02T10:10:53.999Z</time></trkpt><trkpt lat="42.201368161747006" lon="13.708888990881702"><ele>1030.0</ele><time>2026-05-02T10:10:54.999Z</time></trkpt><trkpt lat="42.20139858708609" lon="13.708794443968923"><ele>1030.0</ele><time>2026-05-02T10:10:55.999Z</time></trkpt><trkpt lat="42.20143622598532" lon="13.708689516551935"><ele>1030.0</ele><time>2026-05-02T10:10:56.999Z</time></trkpt><trkpt lat="42.20146833372413" lon="13.70857650535274"><ele>1030.0</ele><time>2026-05-02T10:10:57.999Z</time></trkpt><trkpt lat="42.201491833851755" lon="13.708473659571496"><ele>1030.0</ele><time>2026-05-02T10:10:58.999Z</time></trkpt><trkpt lat="42.20150975335026" lon="13.708378663948109"><ele>1030.0</ele><time>2026-05-02T10:10:59.999Z</time></trkpt><trkpt lat="42.20153952827805" lon="13.70824021630063"><ele>1030.0</ele><time>2026-05-02T10:11:01.999Z</time></trkpt><trkpt lat="42.20155350519401" lon="13.708080700491413"><ele>1025.2</ele><time>2026-05-02T10:11:03.999Z</time></trkpt><trkpt lat="42.20156575005225" lon="13.707991652861002"><ele>1020.4</ele><time>2026-05-02T10:11:04.999Z</time></trkpt><trkpt lat="42.20158486228878" lon="13.707832482073275"><ele>1015.5999999999999</ele><time>2026-05-02T10:11:06.999Z</time></trkpt><trkpt lat="42.20161323658396" lon="13.707693778814702"><ele>1010.8</ele><time>2026-05-02T10:11:08.999Z</time></trkpt><trkpt lat="42.20165179112064" lon="13.707585909953082"><ele>1006.0</ele><time>2026-05-02T10:11:10.999Z</time></trkpt><trkpt lat="42.20168469860647" lon="13.707478924201613"><ele>1004.6666666666666</ele><time>2026-05-02T10:11:12.999Z</time></trkpt><trkpt lat="42.20171293223712" lon="13.707361493171286"><ele>1003.3333333333333</ele><time>2026-05-02T10:11:14.999Z</time></trkpt><trkpt lat="42.20172249703956" lon="13.70725955163232"><ele>1002.0</ele><time>2026-05-02T10:11:16.999Z</time></trkpt><trkpt lat="42.20173011518853" lon="13.707147743319615"><ele>1000.6666666666667</ele><time>2026-05-02T10:11:19.999Z</time></trkpt><trkpt lat="42.20173774114574" lon="13.707053497583574"><ele>999.3333333333334</ele><time>2026-05-02T10:11:22Z</time></trkpt><trkpt lat="42.20176960953203" lon="13.706952819594525"><ele>998.0</ele><time>2026-05-02T10:11:24Z</time></trkpt><trkpt lat="42.201817253839316" lon="13.70684323092758"><ele>996.5999999999999</ele><time>2026-05-02T10:11:26Z</time></trkpt><trkpt lat="42.20185906497598" lon="13.706743816154999"><ele>995.1999999999999</ele><time>2026-05-02T10:11:28Z</time></trkpt><trkpt lat="42.20185031772018" lon="13.70660400480989"><ele>993.8</ele><time>2026-05-02T10:11:31Z</time></trkpt><trkpt lat="42.20182255349635" lon="13.7064457856133"><ele>992.4</ele><time>2026-05-02T10:11:33Z</time></trkpt><trkpt lat="42.20180368166162" lon="13.706327299067048"><ele>991.0</ele><time>2026-05-02T10:11:35Z</time></trkpt><trkpt lat="42.201762995485275" lon="13.706224775666202"><ele>990.9999999999999</ele><time>2026-05-02T10:11:37Z</time></trkpt><trkpt lat="42.20168645270382" lon="13.706151742972931"><ele>991.0</ele><time>2026-05-02T10:11:39Z</time></trkpt><trkpt lat="42.20158498604735" lon="13.706113873680387"><ele>991.0</ele><time>2026-05-02T10:11:41Z</time></trkpt><trkpt lat="42.201511961764936" lon="13.706060246974046"><ele>991.0</ele><time>2026-05-02T10:11:43Z</time></trkpt><trkpt lat="42.20150082276476" lon="13.705950220848653"><ele>990.9999999999999</ele><time>2026-05-02T10:11:45Z</time></trkpt><trkpt lat="42.20151145444578" lon="13.705836369948013"><ele>991.0</ele><time>2026-05-02T10:11:47Z</time></trkpt><trkpt lat="42.201535035201225" lon="13.705731420038369"><ele>992.1666666666666</ele><time>2026-05-02T10:11:49Z</time></trkpt><trkpt lat="42.20149302287485" lon="13.705582883331472"><ele>993.3333333333333</ele><time>2026-05-02T10:11:51Z</time></trkpt><trkpt lat="42.201461639470075" lon="13.705498103658561"><ele>994.5</ele><time>2026-05-02T10:11:52Z</time></trkpt><trkpt lat="42.201431218762586" lon="13.705415383117002"><ele>995.6666666666667</ele><time>2026-05-02T10:11:53Z</time></trkpt><trkpt lat="42.201390038303465" lon="13.705347808329332"><ele>996.8333333333334</ele><time>2026-05-02T10:11:54Z</time></trkpt><trkpt lat="42.20135219236238" lon="13.705193418211252"><ele>998.0</ele><time>2026-05-02T10:11:56Z</time></trkpt><trkpt lat="42.201347825591306" lon="13.705042856530914"><ele>994.6666666666667</ele><time>2026-05-02T10:11:58Z</time></trkpt><trkpt lat="42.201349052553944" lon="13.704949476043833"><ele>991.3333333333334</ele><time>2026-05-02T10:11:59Z</time></trkpt><trkpt lat="42.20134905255489" lon="13.704834056741069"><ele>988.0</ele><time>2026-05-02T10:12:00Z</time></trkpt><trkpt lat="42.20135260895338" lon="13.704720701594953"><ele>984.6666666666667</ele><time>2026-05-02T10:12:01Z</time></trkpt><trkpt lat="42.201356290829644" lon="13.704619163648223"><ele>981.3333333333334</ele><time>2026-05-02T10:12:02Z</time></trkpt><trkpt lat="42.201359721426556" lon="13.704524555422383"><ele>978.0</ele><time>2026-05-02T10:12:03Z</time></trkpt><trkpt lat="42.20135767002194" lon="13.704375340120942"><ele>973.8</ele><time>2026-05-02T10:12:05Z</time></trkpt><trkpt lat="42.201373584056114" lon="13.70425590996265"><ele>969.5999999999999</ele><time>2026-05-02T10:12:07Z</time></trkpt><trkpt lat="42.20135849124825" lon="13.704140024494428"><ele>965.4000000000001</ele><time>2026-05-02T10:12:09Z</time></trkpt><trkpt lat="42.201373798992904" lon="13.703998439741703"><ele>961.2</ele><time>2026-05-02T10:12:11Z</time></trkpt><trkpt lat="42.201413210168155" lon="13.703837680072239"><ele>957.0</ele><time>2026-05-02T10:12:13Z</time></trkpt><trkpt lat="42.20144507992338" lon="13.70369093097076"><ele>951.25</ele><time>2026-05-02T10:12:15Z</time></trkpt><trkpt lat="42.20146902408001" lon="13.703535345668772"><ele>945.5</ele><time>2026-05-02T10:12:17Z</time></trkpt><trkpt lat="42.20148713174454" lon="13.703370493063655"><ele>939.75</ele><time>2026-05-02T10:12:19Z</time></trkpt><trkpt lat="42.201496532876824" lon="13.703221360408401"><ele>934.0</ele><time>2026-05-02T10:12:21Z</time></trkpt><trkpt lat="42.20148412681146" lon="13.703090030000908"><ele>934.0</ele><time>2026-05-02T10:12:23Z</time></trkpt><trkpt lat="42.20145522047932" lon="13.70297291820537"><ele>934.0000000000001</ele><time>2026-05-02T10:12:25Z</time></trkpt><trkpt lat="42.20137713930327" lon="13.702911926585262"><ele>934.0000000000001</ele><time>2026-05-02T10:12:27Z</time></trkpt><trkpt lat="42.201331404823556" lon="13.702831887549188"><ele>934.0</ele><time>2026-05-02T10:12:29Z</time></trkpt><trkpt lat="42.20127762121957" lon="13.702730930527787"><ele>934.0</ele><time>2026-05-02T10:12:31Z</time></trkpt><trkpt lat="42.20119031006503" lon="13.702635127880106"><ele>934.6</ele><time>2026-05-02T10:12:33Z</time></trkpt><trkpt lat="42.201094490496885" lon="13.702598125070004"><ele>935.2</ele><time>2026-05-02T10:12:35Z</time></trkpt><trkpt lat="42.20102379997594" lon="13.702498749169605"><ele>935.8000000000001</ele><time>2026-05-02T10:12:37Z</time></trkpt><trkpt lat="42.20091562960823" lon="13.702415926584912"><ele>936.4000000000001</ele><time>2026-05-02T10:12:39Z</time></trkpt><trkpt lat="42.20081212517628" lon="13.702351169340846"><ele>937.0</ele><time>2026-05-02T10:12:41Z</time></trkpt><trkpt lat="42.200754740037475" lon="13.702314941901115"><ele>931.0</ele><time>2026-05-02T10:12:42Z</time></trkpt><trkpt lat="42.200642544123674" lon="13.702272169796855"><ele>925.0</ele><time>2026-05-02T10:12:44Z</time></trkpt><trkpt lat="42.20054812942661" lon="13.702239061167804"><ele>919.0</ele><time>2026-05-02T10:12:46Z</time></trkpt><trkpt lat="42.20045192490371" lon="13.702208752631984"><ele>913.0</ele><time>2026-05-02T10:12:48Z</time></trkpt><trkpt lat="42.20035827175584" lon="13.702203270687088"><ele>907.0</ele><time>2026-05-02T10:12:50Z</time></trkpt><trkpt lat="42.200275588874185" lon="13.702194670706339"><ele>907.0000000000001</ele><time>2026-05-02T10:12:52Z</time></trkpt><trkpt lat="42.20019931618709" lon="13.702162298132503"><ele>907.0</ele><time>2026-05-02T10:12:55Z</time></trkpt><trkpt lat="42.200141288510146" lon="13.702113518504616"><ele>907.0000000000001</ele><time>2026-05-02T10:12:58Z</time></trkpt><trkpt lat="42.20012692642794" lon="13.702024515752573"><ele>907.0000000000001</ele><time>2026-05-02T10:13:00Z</time></trkpt><trkpt lat="42.20012004845168" lon="13.701936268116423"><ele>907.0</ele><time>2026-05-02T10:13:02Z</time></trkpt><trkpt lat="42.20009666044581" lon="13.701817286719264"><ele>907.0000000000001</ele><time>2026-05-02T10:13:05Z</time></trkpt><trkpt lat="42.2000760048924" lon="13.70173376157923"><ele>907.0000000000001</ele><time>2026-05-02T10:13:07Z</time></trkpt><trkpt lat="42.20004957520466" lon="13.701633003506892"><ele>907.4999999999999</ele><time>2026-05-02T10:13:10Z</time></trkpt><trkpt lat="42.20001615974969" lon="13.701556744080676"><ele>908.0</ele><time>2026-05-02T10:13:12Z</time></trkpt><trkpt lat="42.19998224207735" lon="13.701457148966082"><ele>908.5</ele><time>2026-05-02T10:13:16Z</time></trkpt><trkpt lat="42.200004277085284" lon="13.701371198744997"><ele>909.0</ele><time>2026-05-02T10:13:18Z</time></trkpt><trkpt lat="42.20001856102836" lon="13.701267349484729"><ele>909.4999999999999</ele><time>2026-05-02T10:13:20Z</time></trkpt><trkpt lat="42.2000240384958" lon="13.70114133715711"><ele>910.0</ele><time>2026-05-02T10:13:22Z</time></trkpt><trkpt lat="42.20003700174505" lon="13.701022147682046"><ele>908.9999999999999</ele><time>2026-05-02T10:13:24Z</time></trkpt><trkpt lat="42.200045687627515" lon="13.70090382805373"><ele>908.0</ele><time>2026-05-02T10:13:26Z</time></trkpt><trkpt lat="42.200073538326805" lon="13.70078439019853"><ele>907.0</ele><time>2026-05-02T10:13:28Z</time></trkpt><trkpt lat="42.200077810155356" lon="13.700686183788866"><ele>906.0</ele><time>2026-05-02T10:13:30Z</time></trkpt><trkpt lat="42.200055218702815" lon="13.700592499293885"><ele>904.9999999999999</ele><time>2026-05-02T10:13:32Z</time></trkpt><trkpt lat="42.20001640179155" lon="13.700484502396176"><ele>904.0</ele><time>2026-05-02T10:13:34Z</time></trkpt><trkpt lat="42.20001257562966" lon="13.700346304162155"><ele>903.8333333333333</ele><time>2026-05-02T10:13:36Z</time></trkpt><trkpt lat="42.200016661447265" lon="13.700229101457976"><ele>903.6666666666666</ele><time>2026-05-02T10:13:38Z</time></trkpt><trkpt lat="42.20004007615255" lon="13.700109614585788"><ele>903.5</ele><time>2026-05-02T10:13:40Z</time></trkpt><trkpt lat="42.2000450851014" lon="13.700008002323582"><ele>903.3333333333333</ele><time>2026-05-02T10:13:42Z</time></trkpt><trkpt lat="42.2000016400809" lon="13.699934146429516"><ele>903.1666666666666</ele><time>2026-05-02T10:13:44Z</time></trkpt><trkpt lat="42.19992900254693" lon="13.69987795867951"><ele>903.0</ele><time>2026-05-02T10:13:46Z</time></trkpt><trkpt lat="42.19985966765136" lon="13.699845354037413"><ele>892.5999999999999</ele><time>2026-05-02T10:13:48Z</time></trkpt><trkpt lat="42.199789228202036" lon="13.69976814183236"><ele>882.1999999999999</ele><time>2026-05-02T10:13:50Z</time></trkpt><trkpt lat="42.19974191678275" lon="13.699653455031042"><ele>871.8</ele><time>2026-05-02T10:13:52Z</time></trkpt><trkpt lat="42.19970551710676" lon="13.699540773268868"><ele>861.4</ele><time>2026-05-02T10:13:54Z</time></trkpt><trkpt lat="42.19967441776291" lon="13.699410194123042"><ele>851.0</ele><time>2026-05-02T10:13:56Z</time></trkpt><trkpt lat="42.19966289899998" lon="13.69930991756234"><ele>851.0</ele><time>2026-05-02T10:13:58Z</time></trkpt><trkpt lat="42.19962904565006" lon="13.699203716146998"><ele>851.0</ele><time>2026-05-02T10:14:00Z</time></trkpt><trkpt lat="42.199571797795905" lon="13.699135960308245"><ele>851.0</ele><time>2026-05-02T10:14:02Z</time></trkpt><trkpt lat="42.19953074272948" lon="13.699050647980787"><ele>851.0</ele><time>2026-05-02T10:14:04Z</time></trkpt><trkpt lat="42.19949334406674" lon="13.698901032748548"><ele>851.0</ele><time>2026-05-02T10:14:06Z</time></trkpt><trkpt lat="42.199489078822886" lon="13.698744784186728"><ele>851.0</ele><time>2026-05-02T10:14:08Z</time></trkpt><trkpt lat="42.19949664765019" lon="13.698591890569787"><ele>851.0</ele><time>2026-05-02T10:14:10Z</time></trkpt><trkpt lat="42.19947596362805" lon="13.698440625313248"><ele>851.0</ele><time>2026-05-02T10:14:12Z</time></trkpt><trkpt lat="42.199444826696364" lon="13.698326322359351"><ele>851.0</ele><time>2026-05-02T10:14:14Z</time></trkpt><trkpt lat="42.199449663860044" lon="13.698192559220736"><ele>851.0</ele><time>2026-05-02T10:14:16Z</time></trkpt><trkpt lat="42.199474974866654" lon="13.698038798092984"><ele>851.6666666666667</ele><time>2026-05-02T10:14:18Z</time></trkpt><trkpt lat="42.19949372055087" lon="13.697941176943033"><ele>852.3333333333334</ele><time>2026-05-02T10:14:19Z</time></trkpt><trkpt lat="42.199514735509545" lon="13.697854968545988"><ele>853.0</ele><time>2026-05-02T10:14:20Z</time></trkpt><trkpt lat="42.19956018711167" lon="13.697732176091847"><ele>853.6666666666667</ele><time>2026-05-02T10:14:22Z</time></trkpt><trkpt lat="42.19960263069005" lon="13.697621397478793"><ele>854.3333333333334</ele><time>2026-05-02T10:14:24Z</time></trkpt><trkpt lat="42.19963565265672" lon="13.697522048818326"><ele>855.0</ele><time>2026-05-02T10:14:26Z</time></trkpt><trkpt lat="42.19968880269338" lon="13.69742449531258"><ele>853.0</ele><time>2026-05-02T10:14:28Z</time></trkpt><trkpt lat="42.19974132435213" lon="13.697354960958434"><ele>851.0</ele><time>2026-05-02T10:14:30Z</time></trkpt><trkpt lat="42.19979555205342" lon="13.697249126926659"><ele>849.0</ele><time>2026-05-02T10:14:32Z</time></trkpt><trkpt lat="42.1998357522909" lon="13.697176965057707"><ele>847.0</ele><time>2026-05-02T10:14:34Z</time></trkpt><trkpt lat="42.19989850136171" lon="13.697141623280384"><ele>845.0</ele><time>2026-05-02T10:14:36Z</time></trkpt><trkpt lat="42.19998921563615" lon="13.697116636822143"><ele>843.0</ele><time>2026-05-02T10:14:38Z</time></trkpt><trkpt lat="42.200082063923325" lon="13.69709878752242"><ele>850.0</ele><time>2026-05-02T10:14:40Z</time></trkpt><trkpt lat="42.20019179940208" lon="13.69705500843102"><ele>857.0</ele><time>2026-05-02T10:14:42Z</time></trkpt><trkpt lat="42.20027869620083" lon="13.69699440691926"><ele>864.0</ele><time>2026-05-02T10:14:44Z</time></trkpt><trkpt lat="42.200370582359184" lon="13.696974676721462"><ele>871.0</ele><time>2026-05-02T10:14:46Z</time></trkpt><trkpt lat="42.200449471430424" lon="13.696984204323675"><ele>878.0</ele><time>2026-05-02T10:14:48Z</time></trkpt><trkpt lat="42.20052386651719" lon="13.69694362778348"><ele>875.0</ele><time>2026-05-02T10:14:50Z</time></trkpt><trkpt lat="42.20061027872625" lon="13.696877929628139"><ele>872.0</ele><time>2026-05-02T10:14:52Z</time></trkpt><trkpt lat="42.200696434480896" lon="13.696820138828679"><ele>869.0</ele><time>2026-05-02T10:14:54Z</time></trkpt><trkpt lat="42.20078303026062" lon="13.696748537441403"><ele>866.0</ele><time>2026-05-02T10:14:56Z</time></trkpt><trkpt lat="42.2008482938786" lon="13.696676208849501"><ele>863.0</ele><time>2026-05-02T10:14:58Z</time></trkpt><trkpt lat="42.20084774776783" lon="13.69657984821924"><ele>863.0000000000001</ele><time>2026-05-02T10:15:00Z</time></trkpt><trkpt lat="42.2007839801875" lon="13.696526936894907"><ele>863.0</ele><time>2026-05-02T10:15:02Z</time></trkpt><trkpt lat="42.200710955262345" lon="13.69656695568979"><ele>863.0</ele><time>2026-05-02T10:15:04Z</time></trkpt><trkpt lat="42.20063499000635" lon="13.696587193183362"><ele>863.0</ele><time>2026-05-02T10:15:06Z</time></trkpt><trkpt lat="42.20057663300472" lon="13.696516451271265"><ele>863.0000000000001</ele><time>2026-05-02T10:15:08Z</time></trkpt><trkpt lat="42.20051948281567" lon="13.696466713330377"><ele>863.0</ele><time>2026-05-02T10:15:10Z</time></trkpt><trkpt lat="42.20045815107527" lon="13.696524391450119"><ele>860.1666666666667</ele><time>2026-05-02T10:15:12Z</time></trkpt><trkpt lat="42.200387634814376" lon="13.696550246283113"><ele>857.3333333333334</ele><time>2026-05-02T10:15:14Z</time></trkpt><trkpt lat="42.20031008718771" lon="13.696494786280052"><ele>854.5</ele><time>2026-05-02T10:15:19Z</time></trkpt><trkpt lat="42.20024412389813" lon="13.696398191058186"><ele>851.6666666666667</ele><time>2026-05-02T10:15:22Z</time></trkpt><trkpt lat="42.20017730788204" lon="13.69633211519445"><ele>848.8333333333334</ele><time>2026-05-02T10:15:24Z</time></trkpt><trkpt lat="42.20011457719498" lon="13.696271934400915"><ele>846.0</ele><time>2026-05-02T10:15:26Z</time></trkpt><trkpt lat="42.20004096237404" lon="13.696250064861488"><ele>846.0</ele><time>2026-05-02T10:15:28Z</time></trkpt><trkpt lat="42.19995575830435" lon="13.696312352094962"><ele>846.0</ele><time>2026-05-02T10:15:30Z</time></trkpt><trkpt lat="42.19989305494945" lon="13.69638950380623"><ele>846.0</ele><time>2026-05-02T10:15:32Z</time></trkpt><trkpt lat="42.199826451192735" lon="13.696410909292515"><ele>846.0</ele><time>2026-05-02T10:15:34Z</time></trkpt><trkpt lat="42.199755785669936" lon="13.696365299546503"><ele>846.0</ele><time>2026-05-02T10:15:36Z</time></trkpt><trkpt lat="42.19968427367261" lon="13.696297573634098"><ele>846.0</ele><time>2026-05-02T10:15:38Z</time></trkpt><trkpt lat="42.19962606040222" lon="13.696198699638781"><ele>837.5999999999999</ele><time>2026-05-02T10:15:40Z</time></trkpt><trkpt lat="42.19957414862254" lon="13.696084836203678"><ele>829.2</ele><time>2026-05-02T10:15:42Z</time></trkpt><trkpt lat="42.19951606570299" lon="13.695976169748452"><ele>820.8</ele><time>2026-05-02T10:15:44Z</time></trkpt><trkpt lat="42.19944786472161" lon="13.695877224178451"><ele>812.4000000000001</ele><time>2026-05-02T10:15:46Z</time></trkpt><trkpt lat="42.199382461930675" lon="13.695775137743963"><ele>804.0</ele><time>2026-05-02T10:15:48Z</time></trkpt><trkpt lat="42.19932497866196" lon="13.695669640893952"><ele>804.0</ele><time>2026-05-02T10:15:50Z</time></trkpt><trkpt lat="42.199259363329794" lon="13.695545341510732"><ele>804.0</ele><time>2026-05-02T10:15:52Z</time></trkpt><trkpt lat="42.199206082159186" lon="13.69540222761371"><ele>804.0</ele><time>2026-05-02T10:15:54Z</time></trkpt><trkpt lat="42.199184640943685" lon="13.695310054716877"><ele>804.0</ele><time>2026-05-02T10:15:55Z</time></trkpt><trkpt lat="42.19914734409548" lon="13.69515047565101"><ele>804.0</ele><time>2026-05-02T10:15:57Z</time></trkpt><trkpt lat="42.19907644016379" lon="13.695020994943096"><ele>804.8333333333334</ele><time>2026-05-02T10:15:59Z</time></trkpt><trkpt lat="42.199003952078925" lon="13.694935894186404"><ele>805.6666666666667</ele><time>2026-05-02T10:16:01Z</time></trkpt><trkpt lat="42.19892541496093" lon="13.694910180940045"><ele>806.5</ele><time>2026-05-02T10:16:03Z</time></trkpt><trkpt lat="42.19885457491931" lon="13.694966170610382"><ele>807.3333333333334</ele><time>2026-05-02T10:16:05Z</time></trkpt><trkpt lat="42.198810296840094" lon="13.695063246247487"><ele>808.1666666666667</ele><time>2026-05-02T10:16:07Z</time></trkpt><trkpt lat="42.19876891743771" lon="13.695184900542742"><ele>809.0</ele><time>2026-05-02T10:16:09Z</time></trkpt><trkpt lat="42.19871559219275" lon="13.695302455789244"><ele>804.6666666666667</ele><time>2026-05-02T10:16:11Z</time></trkpt><trkpt lat="42.19864544439039" lon="13.69541702956694"><ele>800.3333333333334</ele><time>2026-05-02T10:16:13Z</time></trkpt><trkpt lat="42.1985808675055" lon="13.695532996749176"><ele>796.0</ele><time>2026-05-02T10:16:15Z</time></trkpt><trkpt lat="42.19854000804654" lon="13.69560759325829"><ele>791.6666666666667</ele><time>2026-05-02T10:16:17Z</time></trkpt><trkpt lat="42.198468039318506" lon="13.695603773799007"><ele>787.3333333333334</ele><time>2026-05-02T10:16:19Z</time></trkpt><trkpt lat="42.19840880189881" lon="13.69554127994988"><ele>783.0</ele><time>2026-05-02T10:16:21Z</time></trkpt><trkpt lat="42.198347313203335" lon="13.695480738281844"><ele>783.0</ele><time>2026-05-02T10:16:23Z</time></trkpt><trkpt lat="42.19825612922228" lon="13.6954629096034"><ele>783.0</ele><time>2026-05-02T10:16:25Z</time></trkpt><trkpt lat="42.19816222539829" lon="13.695480909085925"><ele>783.0</ele><time>2026-05-02T10:16:27Z</time></trkpt><trkpt lat="42.198085720418995" lon="13.695547157706077"><ele>783.0</ele><time>2026-05-02T10:16:29Z</time></trkpt><trkpt lat="42.19803443756007" lon="13.695623184904772"><ele>783.0</ele><time>2026-05-02T10:16:31Z</time></trkpt><trkpt lat="42.19796336444055" lon="13.695671297950996"><ele>783.0</ele><time>2026-05-02T10:16:33Z</time></trkpt><trkpt lat="42.19785914876883" lon="13.695707025806811"><ele>779.8333333333334</ele><time>2026-05-02T10:16:35Z</time></trkpt><trkpt lat="42.1977452598553" lon="13.695743161370013"><ele>776.6666666666666</ele><time>2026-05-02T10:16:37Z</time></trkpt><trkpt lat="42.19768150213596" lon="13.695761644133345"><ele>773.5</ele><time>2026-05-02T10:16:38Z</time></trkpt><trkpt lat="42.19755146091524" lon="13.695795906726014"><ele>770.3333333333333</ele><time>2026-05-02T10:16:40Z</time></trkpt><trkpt lat="42.1974887839575" lon="13.695815916590957"><ele>767.1666666666666</ele><time>2026-05-02T10:16:41Z</time></trkpt><trkpt lat="42.19742475859068" lon="13.695836122079902"><ele>764.0</ele><time>2026-05-02T10:16:42Z</time></trkpt><trkpt lat="42.19731760644087" lon="13.695873465077632"><ele>761.0</ele><time>2026-05-02T10:16:44Z</time></trkpt><trkpt lat="42.197221721054284" lon="13.695909390007676"><ele>758.0</ele><time>2026-05-02T10:16:46Z</time></trkpt><trkpt lat="42.197129482050705" lon="13.695896322764229"><ele>755.0</ele><time>2026-05-02T10:16:48Z</time></trkpt><trkpt lat="42.19705104634966" lon="13.695921192489868"><ele>752.0</ele><time>2026-05-02T10:16:50Z</time></trkpt><trkpt lat="42.19697817551763" lon="13.695944832953513"><ele>749.0</ele><time>2026-05-02T10:16:52Z</time></trkpt><trkpt lat="42.19690961613007" lon="13.695967074722578"><ele>746.0</ele><time>2026-05-02T10:16:54Z</time></trkpt><trkpt lat="42.19680095337056" lon="13.696003438895113"><ele>746.0</ele><time>2026-05-02T10:16:56Z</time></trkpt><trkpt lat="42.19667812173248" lon="13.696046013479387"><ele>746.0</ele><time>2026-05-02T10:16:58Z</time></trkpt><trkpt lat="42.19661684022867" lon="13.696069537046665"><ele>746.0</ele><time>2026-05-02T10:16:59Z</time></trkpt><trkpt lat="42.196525940440935" lon="13.69611909170509"><ele>746.0</ele><time>2026-05-02T10:17:01Z</time></trkpt><trkpt lat="42.19648620464219" lon="13.696225881835826"><ele>746.0</ele><time>2026-05-02T10:17:03Z</time></trkpt><trkpt lat="42.196485068453526" lon="13.696323697811879"><ele>745.0</ele><time>2026-05-02T10:17:05Z</time></trkpt><trkpt lat="42.196477120291654" lon="13.696230379019708"><ele>744.0</ele><time>2026-05-02T10:17:15Z</time></trkpt><trkpt lat="42.19650561250587" lon="13.696117562330507"><ele>743.0</ele><time>2026-05-02T10:17:17Z</time></trkpt><trkpt lat="42.19639495812628" lon="13.695829828224758"><ele>742.0</ele><time>2026-05-02T10:17:19Z</time></trkpt><trkpt lat="42.196373468875166" lon="13.695681882595537"><ele>740.5</ele><time>2026-05-02T10:17:21Z</time></trkpt><trkpt lat="42.19638025775274" lon="13.695560866454"><ele>739.0</ele><time>2026-05-02T10:17:23Z</time></trkpt><trkpt lat="42.19637125372089" lon="13.695436155924378"><ele>737.5</ele><time>2026-05-02T10:17:25Z</time></trkpt><trkpt lat="42.19632075251395" lon="13.695364224913588"><ele>736.0</ele><time>2026-05-02T10:17:26Z</time></trkpt><trkpt lat="42.19629190880954" lon="13.695204642668175"><ele>734.5</ele><time>2026-05-02T10:17:28Z</time></trkpt><trkpt lat="42.19627317822365" lon="13.695118945213109"><ele>733.0</ele><time>2026-05-02T10:17:29Z</time></trkpt><trkpt lat="42.19626252250828" lon="13.695027360064708"><ele>732.9999999999999</ele><time>2026-05-02T10:17:30Z</time></trkpt><trkpt lat="42.1962553476405" lon="13.694930300876958"><ele>733.0</ele><time>2026-05-02T10:17:31Z</time></trkpt><trkpt lat="42.196249603885526" lon="13.694829577443995"><ele>733.0</ele><time>2026-05-02T10:17:32Z</time></trkpt><trkpt lat="42.196234632203925" lon="13.694727056111304"><ele>733.0</ele><time>2026-05-02T10:17:33Z</time></trkpt><trkpt lat="42.19623247345479" lon="13.694622371878243"><ele>733.0</ele><time>2026-05-02T10:17:34Z</time></trkpt><trkpt lat="42.196208907849964" lon="13.694528497578036"><ele>732.9999999999999</ele><time>2026-05-02T10:17:35Z</time></trkpt><trkpt lat="42.196182609999994" lon="13.694445598243371"><ele>733.0</ele><time>2026-05-02T10:17:36Z</time></trkpt><trkpt lat="42.19615651235031" lon="13.694366293274634"><ele>732.5999999999999</ele><time>2026-05-02T10:17:37Z</time></trkpt><trkpt lat="42.196130588259805" lon="13.694287515731443"><ele>732.1999999999999</ele><time>2026-05-02T10:17:38Z</time></trkpt><trkpt lat="42.19610497237696" lon="13.694209674886997"><ele>731.8</ele><time>2026-05-02T10:17:39Z</time></trkpt><trkpt lat="42.196042716245806" lon="13.694070014463327"><ele>731.4</ele><time>2026-05-02T10:17:41Z</time></trkpt><trkpt lat="42.19600314391252" lon="13.69391896486845"><ele>731.0</ele><time>2026-05-02T10:17:43Z</time></trkpt><trkpt lat="42.19596228782364" lon="13.693766682940879"><ele>731.0</ele><time>2026-05-02T10:17:45Z</time></trkpt><trkpt lat="42.19596087511484" lon="13.693675004112574"><ele>731.0</ele><time>2026-05-02T10:17:46Z</time></trkpt><trkpt lat="42.19594514486317" lon="13.693522490618376"><ele>731.0</ele><time>2026-05-02T10:17:48Z</time></trkpt><trkpt lat="42.19593680124927" lon="13.693413092492504"><ele>731.0</ele><time>2026-05-02T10:17:50Z</time></trkpt><trkpt lat="42.19592528565345" lon="13.693328230737405"><ele>731.0</ele><time>2026-05-02T10:17:52Z</time></trkpt><trkpt lat="42.19589684833907" lon="13.693250091114427"><ele>731.0</ele><time>2026-05-02T10:17:54Z</time></trkpt><trkpt lat="42.19587964268952" lon="13.693155421506036"><ele>729.5999999999999</ele><time>2026-05-02T10:17:56Z</time></trkpt><trkpt lat="42.1958578957734" lon="13.693042844672865"><ele>728.2</ele><time>2026-05-02T10:17:58Z</time></trkpt><trkpt lat="42.19584278345076" lon="13.692910004057703"><ele>726.8</ele><time>2026-05-02T10:18:00Z</time></trkpt><trkpt lat="42.195824626474064" lon="13.692778325084285"><ele>725.4000000000001</ele><time>2026-05-02T10:18:02Z</time></trkpt><trkpt lat="42.19582001784457" lon="13.692626624929702"><ele>724.0</ele><time>2026-05-02T10:18:04Z</time></trkpt><trkpt lat="42.19581905093246" lon="13.692485664324122"><ele>722.3333333333334</ele><time>2026-05-02T10:18:06Z</time></trkpt><trkpt lat="42.19582459387829" lon="13.69231574458158"><ele>720.6666666666667</ele><time>2026-05-02T10:18:08Z</time></trkpt><trkpt lat="42.19582807439631" lon="13.692228873497335"><ele>719.0</ele><time>2026-05-02T10:18:09Z</time></trkpt><trkpt lat="42.195826788565796" lon="13.69213594052888"><ele>717.3333333333334</ele><time>2026-05-02T10:18:10Z</time></trkpt><trkpt lat="42.19582643726863" lon="13.692043286454222"><ele>715.6666666666666</ele><time>2026-05-02T10:18:11Z</time></trkpt><trkpt lat="42.19582502222678" lon="13.691952246508455"><ele>714.0</ele><time>2026-05-02T10:18:12Z</time></trkpt><trkpt lat="42.19582427674788" lon="13.691862593286373"><ele>712.6</ele><time>2026-05-02T10:18:13Z</time></trkpt><trkpt lat="42.195830405540896" lon="13.691709876974315"><ele>711.2</ele><time>2026-05-02T10:18:15Z</time></trkpt><trkpt lat="42.19583682480469" lon="13.691554706918701"><ele>709.8000000000001</ele><time>2026-05-02T10:18:17Z</time></trkpt><trkpt lat="42.19580353142904" lon="13.691429132293324"><ele>708.4000000000001</ele><time>2026-05-02T10:18:19Z</time></trkpt><trkpt lat="42.19573758018483" lon="13.691336777003222"><ele>707.0</ele><time>2026-05-02T10:18:21Z</time></trkpt><trkpt lat="42.19569249264858" lon="13.691211936147063"><ele>704.0</ele><time>2026-05-02T10:18:23Z</time></trkpt><trkpt lat="42.195640745877725" lon="13.691070970558686"><ele>701.0</ele><time>2026-05-02T10:18:25Z</time></trkpt><trkpt lat="42.1955726911972" lon="13.69094659955896"><ele>698.0</ele><time>2026-05-02T10:18:27Z</time></trkpt><trkpt lat="42.19547446338067" lon="13.690837884418059"><ele>695.0</ele><time>2026-05-02T10:18:29Z</time></trkpt><trkpt lat="42.19541586369181" lon="13.690799985806771"><ele>692.0</ele><time>2026-05-02T10:18:30Z</time></trkpt><trkpt lat="42.19529425964214" lon="13.690746804497234"><ele>692.0</ele><time>2026-05-02T10:18:32Z</time></trkpt><trkpt lat="42.195226813754616" lon="13.690724867850232"><ele>692.0</ele><time>2026-05-02T10:18:33Z</time></trkpt><trkpt lat="42.19516252331169" lon="13.690712719387772"><ele>692.0</ele><time>2026-05-02T10:18:34Z</time></trkpt><trkpt lat="42.19504700354709" lon="13.690662552196969"><ele>692.0</ele><time>2026-05-02T10:18:36Z</time></trkpt><trkpt lat="42.19498513974772" lon="13.690632107777605"><ele>692.0</ele><time>2026-05-02T10:18:37Z</time></trkpt><trkpt lat="42.194909786434124" lon="13.69060717826137"><ele>692.0</ele><time>2026-05-02T10:18:38Z</time></trkpt><trkpt lat="42.19483041090138" lon="13.69058013357646"><ele>690.0</ele><time>2026-05-02T10:18:39Z</time></trkpt><trkpt lat="42.19474732956101" lon="13.69055377157018"><ele>688.0</ele><time>2026-05-02T10:18:40Z</time></trkpt><trkpt lat="42.19466062134756" lon="13.690531699473128"><ele>686.0</ele><time>2026-05-02T10:18:41Z</time></trkpt><trkpt lat="42.194572595001446" lon="13.690510199786521"><ele>684.0</ele><time>2026-05-02T10:18:42Z</time></trkpt><trkpt lat="42.19449761243953" lon="13.690487261053157"><ele>682.0</ele><time>2026-05-02T10:18:43Z</time></trkpt><trkpt lat="42.19443452283462" lon="13.690455731858536"><ele>680.0</ele><time>2026-05-02T10:18:44Z</time></trkpt><trkpt lat="42.19437577061226" lon="13.690415471441986"><ele>680.0</ele><time>2026-05-02T10:18:45Z</time></trkpt><trkpt lat="42.19431936801118" lon="13.690367134972346"><ele>680.0</ele><time>2026-05-02T10:18:46Z</time></trkpt><trkpt lat="42.19426847789045" lon="13.690313932623699"><ele>680.0</ele><time>2026-05-02T10:18:47Z</time></trkpt><trkpt lat="42.19422277217923" lon="13.690249994419066"><ele>680.0</ele><time>2026-05-02T10:18:48Z</time></trkpt><trkpt lat="42.19418144649685" lon="13.690181897421912"><ele>680.0</ele><time>2026-05-02T10:18:49Z</time></trkpt><trkpt lat="42.194137906705556" lon="13.690111689947345"><ele>680.0</ele><time>2026-05-02T10:18:50Z</time></trkpt><trkpt lat="42.194092543437634" lon="13.690043320537415"><ele>680.0</ele><time>2026-05-02T10:18:51Z</time></trkpt><trkpt lat="42.1940431260282" lon="13.68997836522408"><ele>677.8571428571429</ele><time>2026-05-02T10:18:52Z</time></trkpt><trkpt lat="42.19399989591073" lon="13.689910377631357"><ele>675.7142857142857</ele><time>2026-05-02T10:18:53Z</time></trkpt><trkpt lat="42.19396988797562" lon="13.68983375597683"><ele>673.5714285714286</ele><time>2026-05-02T10:18:54Z</time></trkpt><trkpt lat="42.19394900315019" lon="13.689751625902788"><ele>671.4285714285714</ele><time>2026-05-02T10:18:55Z</time></trkpt><trkpt lat="42.19392605985751" lon="13.689670041122069"><ele>669.2857142857142</ele><time>2026-05-02T10:18:56Z</time></trkpt><trkpt lat="42.1938945479916" lon="13.689590658489085"><ele>667.1428571428571</ele><time>2026-05-02T10:18:57Z</time></trkpt><trkpt lat="42.19385249984398" lon="13.689525401259557"><ele>665.0</ele><time>2026-05-02T10:18:58Z</time></trkpt><trkpt lat="42.19375741403113" lon="13.68945520557714"><ele>665.0</ele><time>2026-05-02T10:19:00Z</time></trkpt><trkpt lat="42.19364174595699" lon="13.689432572919182"><ele>665.0</ele><time>2026-05-02T10:19:02Z</time></trkpt><trkpt lat="42.193564907829916" lon="13.68944104925147"><ele>665.0</ele><time>2026-05-02T10:19:04Z</time></trkpt><trkpt lat="42.19349669548715" lon="13.689459742083955"><ele>665.0</ele><time>2026-05-02T10:19:06Z</time></trkpt><trkpt lat="42.193408162657136" lon="13.689392548796246"><ele>665.0</ele><time>2026-05-02T10:19:09Z</time></trkpt><trkpt lat="42.193398702226375" lon="13.689295992167118"><ele>665.0</ele><time>2026-05-02T10:19:10Z</time></trkpt><trkpt lat="42.19335239179481" lon="13.689213267452027"><ele>665.1666666666666</ele><time>2026-05-02T10:19:11Z</time></trkpt><trkpt lat="42.193296804510496" lon="13.689126240032536"><ele>665.3333333333333</ele><time>2026-05-02T10:19:12Z</time></trkpt><trkpt lat="42.193237019732614" lon="13.689047516939146"><ele>665.5</ele><time>2026-05-02T10:19:13Z</time></trkpt><trkpt lat="42.1931738915882" lon="13.688985101142068"><ele>665.6666666666666</ele><time>2026-05-02T10:19:14Z</time></trkpt><trkpt lat="42.19314023519768" lon="13.688910200983551"><ele>665.8333333333334</ele><time>2026-05-02T10:19:15Z</time></trkpt><trkpt lat="42.193085733211056" lon="13.688755814351111"><ele>666.0</ele><time>2026-05-02T10:19:17Z</time></trkpt><trkpt lat="42.1930632652869" lon="13.688644340307077"><ele>667.6666666666666</ele><time>2026-05-02T10:19:18Z</time></trkpt><trkpt lat="42.19305766155483" lon="13.688509762209627"><ele>669.3333333333334</ele><time>2026-05-02T10:19:19Z</time></trkpt><trkpt lat="42.19304312727582" lon="13.688385085536488"><ele>671.0</ele><time>2026-05-02T10:19:20Z</time></trkpt><trkpt lat="42.19303753665606" lon="13.688285785747425"><ele>672.6666666666667</ele><time>2026-05-02T10:19:21Z</time></trkpt><trkpt lat="42.19303780907322" lon="13.688178642801601"><ele>674.3333333333334</ele><time>2026-05-02T10:19:22Z</time></trkpt><trkpt lat="42.19304777630541" lon="13.688085781494987"><ele>676.0</ele><time>2026-05-02T10:19:23Z</time></trkpt><trkpt lat="42.193057824306834" lon="13.68797785087446"><ele>676.0</ele><time>2026-05-02T10:19:24Z</time></trkpt><trkpt lat="42.193074078553536" lon="13.687883730792356"><ele>676.0</ele><time>2026-05-02T10:19:25Z</time></trkpt><trkpt lat="42.19307558853104" lon="13.687787574719557"><ele>676.0</ele><time>2026-05-02T10:19:26Z</time></trkpt><trkpt lat="42.19307175046658" lon="13.687686145537322"><ele>676.0</ele><time>2026-05-02T10:19:27Z</time></trkpt><trkpt lat="42.19302638975582" lon="13.687591539587892"><ele>676.0</ele><time>2026-05-02T10:19:28Z</time></trkpt><trkpt lat="42.19301275144485" lon="13.687481516852694"><ele>676.0</ele><time>2026-05-02T10:19:29Z</time></trkpt><trkpt lat="42.19298776304605" lon="13.68738605771262"><ele>676.1666666666667</ele><time>2026-05-02T10:19:30Z</time></trkpt><trkpt lat="42.19296825076734" lon="13.687303242842844"><ele>676.3333333333334</ele><time>2026-05-02T10:19:31Z</time></trkpt><trkpt lat="42.192953229531284" lon="13.687137881812035"><ele>676.5</ele><time>2026-05-02T10:19:33Z</time></trkpt><trkpt lat="42.19296479350197" lon="13.687046119185554"><ele>676.6666666666666</ele><time>2026-05-02T10:19:34Z</time></trkpt><trkpt lat="42.19296976126121" lon="13.686948019260473"><ele>676.8333333333333</ele><time>2026-05-02T10:19:35Z</time></trkpt><trkpt lat="42.1929930574686" lon="13.686838336970618"><ele>677.0</ele><time>2026-05-02T10:19:36Z</time></trkpt><trkpt lat="42.19302405951639" lon="13.686731764267133"><ele>676.6666666666666</ele><time>2026-05-02T10:19:37Z</time></trkpt><trkpt lat="42.19305544665943" lon="13.686629437645854"><ele>676.3333333333333</ele><time>2026-05-02T10:19:38Z</time></trkpt><trkpt lat="42.193079879561274" lon="13.686523102469044"><ele>676.0</ele><time>2026-05-02T10:19:39Z</time></trkpt><trkpt lat="42.19310229377457" lon="13.686420822588333"><ele>675.6666666666666</ele><time>2026-05-02T10:19:40Z</time></trkpt><trkpt lat="42.19312450777255" lon="13.686317923303887"><ele>675.3333333333334</ele><time>2026-05-02T10:19:41Z</time></trkpt><trkpt lat="42.19314805908998" lon="13.686221173954662"><ele>675.0</ele><time>2026-05-02T10:19:42Z</time></trkpt><trkpt lat="42.19317561977919" lon="13.686120070359257"><ele>675.0</ele><time>2026-05-02T10:19:43Z</time></trkpt><trkpt lat="42.193205277862035" lon="13.686026450766263"><ele>675.0</ele><time>2026-05-02T10:19:44Z</time></trkpt><trkpt lat="42.19322346763691" lon="13.685932329340263"><ele>675.0</ele><time>2026-05-02T10:19:45Z</time></trkpt><trkpt lat="42.19322575240395" lon="13.685837474458468"><ele>675.0</ele><time>2026-05-02T10:19:46Z</time></trkpt><trkpt lat="42.1932038488556" lon="13.685744645549283"><ele>675.0</ele><time>2026-05-02T10:19:47Z</time></trkpt><trkpt lat="42.193182064905706" lon="13.685651525650146"><ele>675.0</ele><time>2026-05-02T10:19:48Z</time></trkpt><trkpt lat="42.193163861841136" lon="13.68555311361661"><ele>675.0</ele><time>2026-05-02T10:19:49Z</time></trkpt><trkpt lat="42.193158072094164" lon="13.685454973711172"><ele>674.8333333333334</ele><time>2026-05-02T10:19:50Z</time></trkpt><trkpt lat="42.1931559245296" lon="13.685358463000288"><ele>674.6666666666666</ele><time>2026-05-02T10:19:51Z</time></trkpt><trkpt lat="42.193179517905236" lon="13.685260294611131"><ele>674.5</ele><time>2026-05-02T10:19:52Z</time></trkpt><trkpt lat="42.19317681144339" lon="13.685153151612639"><ele>674.3333333333333</ele><time>2026-05-02T10:19:53Z</time></trkpt><trkpt lat="42.19319166687013" lon="13.685039416293353"><ele>674.1666666666666</ele><time>2026-05-02T10:19:54Z</time></trkpt><trkpt lat="42.1931990342116" lon="13.684932575939483"><ele>674.0</ele><time>2026-05-02T10:19:55Z</time></trkpt><trkpt lat="42.193195442572545" lon="13.68482273218467"><ele>674.0</ele><time>2026-05-02T10:19:56Z</time></trkpt><trkpt lat="42.19317837580995" lon="13.684712967092302"><ele>674.0</ele><time>2026-05-02T10:19:57Z</time></trkpt><trkpt lat="42.19315879129347" lon="13.684613068517653"><ele>674.0</ele><time>2026-05-02T10:19:58Z</time></trkpt><trkpt lat="42.19314306955338" lon="13.684507078861266"><ele>674.0</ele><time>2026-05-02T10:19:59Z</time></trkpt><trkpt lat="42.19311924889049" lon="13.684411252867147"><ele>674.0</ele><time>2026-05-02T10:20:00Z</time></trkpt><trkpt lat="42.193094458712686" lon="13.684307845747986"><ele>674.0</ele><time>2026-05-02T10:20:01Z</time></trkpt><trkpt lat="42.19306956757386" lon="13.684210318760426"><ele>671.8333333333333</ele><time>2026-05-02T10:20:02Z</time></trkpt><trkpt lat="42.19305017785453" lon="13.684110860515847"><ele>669.6666666666666</ele><time>2026-05-02T10:20:03Z</time></trkpt><trkpt lat="42.19302792364024" lon="13.684010186152324"><ele>667.5</ele><time>2026-05-02T10:20:04Z</time></trkpt><trkpt lat="42.193004373801166" lon="13.683905955322734"><ele>665.3333333333334</ele><time>2026-05-02T10:20:05Z</time></trkpt><trkpt lat="42.19298512767545" lon="13.683806058150685"><ele>663.1666666666667</ele><time>2026-05-02T10:20:06Z</time></trkpt><trkpt lat="42.1929606617887" lon="13.683703365345904"><ele>661.0</ele><time>2026-05-02T10:20:07Z</time></trkpt><trkpt lat="42.19293135588696" lon="13.683605678131288"><ele>661.5</ele><time>2026-05-02T10:20:08Z</time></trkpt><trkpt lat="42.19290251186629" lon="13.683508917107503"><ele>662.0</ele><time>2026-05-02T10:20:09Z</time></trkpt><trkpt lat="42.19287896973925" lon="13.683406755208727"><ele>662.5</ele><time>2026-05-02T10:20:10Z</time></trkpt><trkpt lat="42.19286167649244" lon="13.683296567254073"><ele>663.0</ele><time>2026-05-02T10:20:11Z</time></trkpt><trkpt lat="42.19284884456452" lon="13.683186918694888"><ele>663.5</ele><time>2026-05-02T10:20:12Z</time></trkpt><trkpt lat="42.19283274804085" lon="13.683071645094287"><ele>664.0</ele><time>2026-05-02T10:20:13Z</time></trkpt><trkpt lat="42.192814303156425" lon="13.682953819508988"><ele>664.0</ele><time>2026-05-02T10:20:14Z</time></trkpt><trkpt lat="42.192794794346945" lon="13.6828356537936"><ele>664.0</ele><time>2026-05-02T10:20:15Z</time></trkpt><trkpt lat="42.19277420688596" lon="13.6827253128546"><ele>664.0</ele><time>2026-05-02T10:20:16Z</time></trkpt><trkpt lat="42.192755218744026" lon="13.68262381837109"><ele>664.0</ele><time>2026-05-02T10:20:17Z</time></trkpt><trkpt lat="42.19274037996694" lon="13.682540438355682"><ele>664.0</ele><time>2026-05-02T10:20:18Z</time></trkpt><trkpt lat="42.19273267149355" lon="13.682400845558588"><ele>664.0</ele><time>2026-05-02T10:20:20Z</time></trkpt><trkpt lat="42.192704712223104" lon="13.682286296721319"><ele>664.1666666666667</ele><time>2026-05-02T10:20:22Z</time></trkpt><trkpt lat="42.19267701520051" lon="13.682188272718633"><ele>664.3333333333334</ele><time>2026-05-02T10:20:24Z</time></trkpt><trkpt lat="42.19265217602638" lon="13.682094438872037"><ele>664.5</ele><time>2026-05-02T10:20:26Z</time></trkpt><trkpt lat="42.192647991944455" lon="13.682006699681592"><ele>664.6666666666666</ele><time>2026-05-02T10:20:28Z</time></trkpt><trkpt lat="42.19269306989801" lon="13.681874223922792"><ele>664.8333333333333</ele><time>2026-05-02T10:20:30Z</time></trkpt><trkpt lat="42.192728018300684" lon="13.681756588030723"><ele>665.0</ele><time>2026-05-02T10:20:32Z</time></trkpt><trkpt lat="42.19275485377141" lon="13.681637980731548"><ele>665.0</ele><time>2026-05-02T10:20:34Z</time></trkpt><trkpt lat="42.19275448113137" lon="13.68154380721953"><ele>665.0</ele><time>2026-05-02T10:20:36Z</time></trkpt><trkpt lat="42.1927493967004" lon="13.681453916769508"><ele>665.0</ele><time>2026-05-02T10:20:38Z</time></trkpt><trkpt lat="42.192743588105245" lon="13.681352760469716"><ele>665.0</ele><time>2026-05-02T10:20:40Z</time></trkpt><trkpt lat="42.19275461901145" lon="13.681233090402976"><ele>665.0</ele><time>2026-05-02T10:20:42Z</time></trkpt><trkpt lat="42.192767052461804" lon="13.68113992467389"><ele>665.0</ele><time>2026-05-02T10:20:44Z</time></trkpt><trkpt lat="42.19281704456233" lon="13.681072468426601"><ele>665.0</ele><time>2026-05-02T10:20:46Z</time></trkpt><trkpt lat="42.19290501457335" lon="13.680993512271208"><ele>662.4</ele><time>2026-05-02T10:20:48Z</time></trkpt><trkpt lat="42.19298991335007" lon="13.680899697887508"><ele>659.8</ele><time>2026-05-02T10:20:50Z</time></trkpt><trkpt lat="42.19306419382029" lon="13.680816492772253"><ele>657.2</ele><time>2026-05-02T10:20:52Z</time></trkpt><trkpt lat="42.19308823311025" lon="13.680724122192297"><ele>654.6</ele><time>2026-05-02T10:20:54Z</time></trkpt><trkpt lat="42.19303567911756" lon="13.680621596105723"><ele>652.0</ele><time>2026-05-02T10:20:56Z</time></trkpt><trkpt lat="42.193002807291634" lon="13.680482563034086"><ele>652.0</ele><time>2026-05-02T10:20:58Z</time></trkpt><trkpt lat="42.19296904988947" lon="13.680318616878425"><ele>652.0</ele><time>2026-05-02T10:21:00Z</time></trkpt><trkpt lat="42.19297675934383" lon="13.680224773638546"><ele>652.0</ele><time>2026-05-02T10:21:01Z</time></trkpt><trkpt lat="42.19297191905996" lon="13.680135722241056"><ele>652.0</ele><time>2026-05-02T10:21:02Z</time></trkpt><trkpt lat="42.19296643879247" lon="13.680049339595993"><ele>652.0</ele><time>2026-05-02T10:21:03Z</time></trkpt><trkpt lat="42.19296198176986" lon="13.679928927310689"><ele>652.0</ele><time>2026-05-02T10:21:05Z</time></trkpt><trkpt lat="42.19297164163734" lon="13.679777034787355"><ele>651.3333333333334</ele><time>2026-05-02T10:21:07Z</time></trkpt><trkpt lat="42.19299378608734" lon="13.679674323509179"><ele>650.6666666666667</ele><time>2026-05-02T10:21:08Z</time></trkpt><trkpt lat="42.19304297542627" lon="13.679578278280296"><ele>650.0</ele><time>2026-05-02T10:21:09Z</time></trkpt><trkpt lat="42.19308300630184" lon="13.67947730222317"><ele>649.3333333333334</ele><time>2026-05-02T10:21:10Z</time></trkpt><trkpt lat="42.19311669927342" lon="13.679365919752724"><ele>648.6666666666666</ele><time>2026-05-02T10:21:11Z</time></trkpt><trkpt lat="42.19317551481938" lon="13.679273980826474"><ele>648.0</ele><time>2026-05-02T10:21:12Z</time></trkpt><trkpt lat="42.19323463746374" lon="13.67918490871823"><ele>648.0</ele><time>2026-05-02T10:21:13Z</time></trkpt><trkpt lat="42.19329586698402" lon="13.679097749330673"><ele>648.0</ele><time>2026-05-02T10:21:14Z</time></trkpt><trkpt lat="42.193359638128484" lon="13.679003691005832"><ele>648.0</ele><time>2026-05-02T10:21:15Z</time></trkpt><trkpt lat="42.19342528323125" lon="13.678903660531931"><ele>648.0</ele><time>2026-05-02T10:21:16Z</time></trkpt><trkpt lat="42.19349507542258" lon="13.678799954527678"><ele>648.0</ele><time>2026-05-02T10:21:17Z</time></trkpt><trkpt lat="42.193568284526464" lon="13.678691235688014"><ele>645.75</ele><time>2026-05-02T10:21:18Z</time></trkpt><trkpt lat="42.19364101150957" lon="13.678581384675097"><ele>643.5</ele><time>2026-05-02T10:21:19Z</time></trkpt><trkpt lat="42.1937182696109" lon="13.678469375965504"><ele>641.25</ele><time>2026-05-02T10:21:20Z</time></trkpt><trkpt lat="42.1937945228708" lon="13.678353700457624"><ele>639.0</ele><time>2026-05-02T10:21:21Z</time></trkpt><trkpt lat="42.19387080316488" lon="13.678232921657132"><ele>639.0</ele><time>2026-05-02T10:21:22Z</time></trkpt><trkpt lat="42.19395063621988" lon="13.678112035353161"><ele>639.0</ele><time>2026-05-02T10:21:23Z</time></trkpt><trkpt lat="42.19403155284573" lon="13.677989732788427"><ele>639.0</ele><time>2026-05-02T10:21:24Z</time></trkpt><trkpt lat="42.1941131710717" lon="13.677864413817918"><ele>639.0</ele><time>2026-05-02T10:21:25Z</time></trkpt><trkpt lat="42.19419249037783" lon="13.677733909340676"><ele>640.0</ele><time>2026-05-02T10:21:26Z</time></trkpt><trkpt lat="42.19427697954457" lon="13.677603796254878"><ele>641.0</ele><time>2026-05-02T10:21:27Z</time></trkpt><trkpt lat="42.19436260147289" lon="13.677473800148615"><ele>642.0</ele><time>2026-05-02T10:21:28Z</time></trkpt><trkpt lat="42.194444350847675" lon="13.677339782053531"><ele>643.0</ele><time>2026-05-02T10:21:29Z</time></trkpt><trkpt lat="42.194526875049924" lon="13.677204283291704"><ele>643.0</ele><time>2026-05-02T10:21:30Z</time></trkpt><trkpt lat="42.1946055872448" lon="13.67706248682146"><ele>643.0</ele><time>2026-05-02T10:21:31Z</time></trkpt><trkpt lat="42.19467898173297" lon="13.676920403595982"><ele>643.0</ele><time>2026-05-02T10:21:32Z</time></trkpt><trkpt lat="42.194744507193825" lon="13.676776518011819"><ele>643.0</ele><time>2026-05-02T10:21:33Z</time></trkpt><trkpt lat="42.1948116550584" lon="13.676627045010187"><ele>642.25</ele><time>2026-05-02T10:21:34Z</time></trkpt><trkpt lat="42.19487941767509" lon="13.676474013490074"><ele>641.5</ele><time>2026-05-02T10:21:35Z</time></trkpt><trkpt lat="42.19494739893393" lon="13.6763219820198"><ele>640.75</ele><time>2026-05-02T10:21:36Z</time></trkpt><trkpt lat="42.1950149470567" lon="13.676170204393763"><ele>640.0</ele><time>2026-05-02T10:21:37Z</time></trkpt><trkpt lat="42.195085061226905" lon="13.676020982448712"><ele>640.0</ele><time>2026-05-02T10:21:38Z</time></trkpt><trkpt lat="42.195157075332304" lon="13.675880553217977"><ele>640.0</ele><time>2026-05-02T10:21:39Z</time></trkpt><trkpt lat="42.19523576958314" lon="13.675757142890015"><ele>640.0</ele><time>2026-05-02T10:21:40Z</time></trkpt><trkpt lat="42.19531781334585" lon="13.675657915589495"><ele>640.0</ele><time>2026-05-02T10:21:41Z</time></trkpt><trkpt lat="42.19540454124998" lon="13.6755729765409"><ele>640.0</ele><time>2026-05-02T10:21:42Z</time></trkpt><trkpt lat="42.19550269987299" lon="13.67549105501125"><ele>640.0</ele><time>2026-05-02T10:21:43Z</time></trkpt><trkpt lat="42.19560484897433" lon="13.675400530136622"><ele>640.0</ele><time>2026-05-02T10:21:44Z</time></trkpt><trkpt lat="42.195716021931105" lon="13.675304917647036"><ele>640.0</ele><time>2026-05-02T10:21:45Z</time></trkpt><trkpt lat="42.19583206011679" lon="13.675206710890208"><ele>639.75</ele><time>2026-05-02T10:21:46Z</time></trkpt><trkpt lat="42.19595055894082" lon="13.675098802680122"><ele>639.5</ele><time>2026-05-02T10:21:47Z</time></trkpt><trkpt lat="42.19606507452413" lon="13.674973146814494"><ele>639.25</ele><time>2026-05-02T10:21:48Z</time></trkpt><trkpt lat="42.196172041643266" lon="13.674829563061806"><ele>639.0</ele><time>2026-05-02T10:21:49Z</time></trkpt><trkpt lat="42.1962755999549" lon="13.674672024282764"><ele>639.0</ele><time>2026-05-02T10:21:50Z</time></trkpt><trkpt lat="42.19637455290575" lon="13.67450836320121"><ele>639.0</ele><time>2026-05-02T10:21:51Z</time></trkpt><trkpt lat="42.1964737882233" lon="13.674340366861669"><ele>639.0</ele><time>2026-05-02T10:21:52Z</time></trkpt><trkpt lat="42.196575002415976" lon="13.674172570995585"><ele>638.0</ele><time>2026-05-02T10:21:53Z</time></trkpt><trkpt lat="42.19667536061175" lon="13.674003763533053"><ele>637.0</ele><time>2026-05-02T10:21:54Z</time></trkpt><trkpt lat="42.19677585693894" lon="13.673837047148869"><ele>636.0</ele><time>2026-05-02T10:21:55Z</time></trkpt><trkpt lat="42.196873400704305" lon="13.673672228551025"><ele>633.75</ele><time>2026-05-02T10:21:56Z</time></trkpt><trkpt lat="42.196965636942025" lon="13.673513027362452"><ele>631.5</ele><time>2026-05-02T10:21:57Z</time></trkpt><trkpt lat="42.19705087912276" lon="13.673355011501643"><ele>629.25</ele><time>2026-05-02T10:21:58Z</time></trkpt><trkpt lat="42.19712127683305" lon="13.673193674564317"><ele>627.0</ele><time>2026-05-02T10:21:59Z</time></trkpt><trkpt lat="42.19717008991604" lon="13.673024743664355"><ele>627.0</ele><time>2026-05-02T10:22:00Z</time></trkpt><trkpt lat="42.197214678239526" lon="13.67286202057148"><ele>627.0</ele><time>2026-05-02T10:22:01Z</time></trkpt><trkpt lat="42.19726223278123" lon="13.672715449961643"><ele>627.0</ele><time>2026-05-02T10:22:02Z</time></trkpt><trkpt lat="42.197322418716475" lon="13.67258804812693"><ele>627.0</ele><time>2026-05-02T10:22:03Z</time></trkpt><trkpt lat="42.197398697804076" lon="13.67248955304587"><ele>627.8000000000001</ele><time>2026-05-02T10:22:04Z</time></trkpt><trkpt lat="42.197484336984644" lon="13.672413811643526"><ele>628.6</ele><time>2026-05-02T10:22:05Z</time></trkpt><trkpt lat="42.197583306184704" lon="13.672354623988058"><ele>629.4000000000001</ele><time>2026-05-02T10:22:06Z</time></trkpt><trkpt lat="42.197690074299565" lon="13.672318079480062"><ele>630.2</ele><time>2026-05-02T10:22:07Z</time></trkpt><trkpt lat="42.19779991867491" lon="13.672311591953015"><ele>631.0</ele><time>2026-05-02T10:22:08Z</time></trkpt><trkpt lat="42.19790535018791" lon="13.672346745328438"><ele>631.0</ele><time>2026-05-02T10:22:09Z</time></trkpt><trkpt lat="42.19800578119763" lon="13.672406218463578"><ele>631.0</ele><time>2026-05-02T10:22:10Z</time></trkpt><trkpt lat="42.19810930284998" lon="13.672456998132123"><ele>631.0</ele><time>2026-05-02T10:22:11Z</time></trkpt><trkpt lat="42.1982174216774" lon="13.672491134661511"><ele>631.0</ele><time>2026-05-02T10:22:12Z</time></trkpt><trkpt lat="42.198325631330455" lon="13.672506190824965"><ele>631.0</ele><time>2026-05-02T10:22:13Z</time></trkpt><trkpt lat="42.19842070337802" lon="13.67250462659939"><ele>632.0</ele><time>2026-05-02T10:22:14Z</time></trkpt><trkpt lat="42.198504832606396" lon="13.672485966254063"><ele>633.0</ele><time>2026-05-02T10:22:15Z</time></trkpt><trkpt lat="42.198581872937545" lon="13.67244795204955"><ele>634.0</ele><time>2026-05-02T10:22:16Z</time></trkpt><trkpt lat="42.19865171854597" lon="13.67238526774159"><ele>635.0</ele><time>2026-05-02T10:22:17Z</time></trkpt><trkpt lat="42.19870478006036" lon="13.67229790290208"><ele>636.0</ele><time>2026-05-02T10:22:18Z</time></trkpt><trkpt lat="42.19872752519343" lon="13.672195318071314"><ele>637.0</ele><time>2026-05-02T10:22:19Z</time></trkpt><trkpt lat="42.198722422030364" lon="13.67209644632224"><ele>637.0</ele><time>2026-05-02T10:22:20Z</time></trkpt><trkpt lat="42.19869885704725" lon="13.671994386846"><ele>637.0</ele><time>2026-05-02T10:22:21Z</time></trkpt><trkpt lat="42.19868363412404" lon="13.671879688868268"><ele>637.0</ele><time>2026-05-02T10:22:22Z</time></trkpt><trkpt lat="42.198685291137615" lon="13.671754877107654"><ele>637.0</ele><time>2026-05-02T10:22:23Z</time></trkpt><trkpt lat="42.1986970114964" lon="13.671620780879891"><ele>637.0</ele><time>2026-05-02T10:22:24Z</time></trkpt><trkpt lat="42.19872538569196" lon="13.671487681312804"><ele>636.25</ele><time>2026-05-02T10:22:25Z</time></trkpt><trkpt lat="42.19877491668785" lon="13.67135986242407"><ele>635.5</ele><time>2026-05-02T10:22:26Z</time></trkpt><trkpt lat="42.19884406458103" lon="13.671240086335095"><ele>634.75</ele><time>2026-05-02T10:22:27Z</time></trkpt><trkpt lat="42.19893287050988" lon="13.671135964885147"><ele>634.0</ele><time>2026-05-02T10:22:28Z</time></trkpt><trkpt lat="42.19903796419446" lon="13.671045966555097"><ele>634.0</ele><time>2026-05-02T10:22:29Z</time></trkpt><trkpt lat="42.19913504496763" lon="13.670939834533229"><ele>634.0</ele><time>2026-05-02T10:22:30Z</time></trkpt><trkpt lat="42.199211180554755" lon="13.670800844170081"><ele>634.0</ele><time>2026-05-02T10:22:31Z</time></trkpt><trkpt lat="42.19927121338517" lon="13.670639811978942"><ele>634.0</ele><time>2026-05-02T10:22:32Z</time></trkpt><trkpt lat="42.199325009483054" lon="13.670472653189826"><ele>634.0</ele><time>2026-05-02T10:22:33Z</time></trkpt><trkpt lat="42.199382986690686" lon="13.670302604657502"><ele>634.0</ele><time>2026-05-02T10:22:34Z</time></trkpt><trkpt lat="42.19945343420999" lon="13.670137768561997"><ele>634.0</ele><time>2026-05-02T10:22:35Z</time></trkpt><trkpt lat="42.19953669619989" lon="13.669986382522213"><ele>634.0</ele><time>2026-05-02T10:22:36Z</time></trkpt><trkpt lat="42.199637629324904" lon="13.669855225411572"><ele>633.0</ele><time>2026-05-02T10:22:37Z</time></trkpt><trkpt lat="42.19974362677405" lon="13.66973112338888"><ele>632.0</ele><time>2026-05-02T10:22:38Z</time></trkpt><trkpt lat="42.199848663347126" lon="13.669605562767662"><ele>631.0</ele><time>2026-05-02T10:22:39Z</time></trkpt><trkpt lat="42.19995446354054" lon="13.669483683689972"><ele>630.0</ele><time>2026-05-02T10:22:40Z</time></trkpt><trkpt lat="42.20006149545776" lon="13.669368543829144"><ele>630.0</ele><time>2026-05-02T10:22:41Z</time></trkpt><trkpt lat="42.20015805816179" lon="13.669254799902852"><ele>630.0</ele><time>2026-05-02T10:22:42Z</time></trkpt><trkpt lat="42.20023818868234" lon="13.669135048387133"><ele>630.0</ele><time>2026-05-02T10:22:43Z</time></trkpt><trkpt lat="42.2002997333588" lon="13.669008664997058"><ele>630.0</ele><time>2026-05-02T10:22:44Z</time></trkpt><trkpt lat="42.20034442536005" lon="13.668883541130214"><ele>630.0</ele><time>2026-05-02T10:22:45Z</time></trkpt><trkpt lat="42.20037894332225" lon="13.668777553999742"><ele>630.0</ele><time>2026-05-02T10:22:46Z</time></trkpt><trkpt lat="42.20040856151573" lon="13.668688089756472"><ele>630.0</ele><time>2026-05-02T10:22:47Z</time></trkpt><trkpt lat="42.20043574346294" lon="13.668611195177904"><ele>630.0</ele><time>2026-05-02T10:22:48Z</time></trkpt><trkpt lat="42.20047159810459" lon="13.668495894538609"><ele>630.0</ele><time>2026-05-02T10:22:50Z</time></trkpt><trkpt lat="42.200370587530955" lon="13.66843996245974"><ele>630.0</ele><time>2026-05-02T10:22:54Z</time></trkpt><trkpt lat="42.20031009581597" lon="13.668465516384606"><ele>630.0</ele><time>2026-05-02T10:22:55Z</time></trkpt><trkpt lat="42.20025165177326" lon="13.66850162309003"><ele>630.0</ele><time>2026-05-02T10:22:56Z</time></trkpt><trkpt lat="42.200189254457406" lon="13.668548656142931"><ele>630.0</ele><time>2026-05-02T10:22:57Z</time></trkpt><trkpt lat="42.200122300658414" lon="13.668601095788386"><ele>630.0</ele><time>2026-05-02T10:22:58Z</time></trkpt><trkpt lat="42.20004979414193" lon="13.668660060051563"><ele>630.0</ele><time>2026-05-02T10:22:59Z</time></trkpt><trkpt lat="42.19998423242009" lon="13.668734244414951"><ele>630.0</ele><time>2026-05-02T10:23:00Z</time></trkpt><trkpt lat="42.19992218499369" lon="13.668819107727508"><ele>630.0</ele><time>2026-05-02T10:23:01Z</time></trkpt><trkpt lat="42.19986092276141" lon="13.668903519868923"><ele>630.0</ele><time>2026-05-02T10:23:02Z</time></trkpt><trkpt lat="42.19980047662379" lon="13.668986807455845"><ele>630.0</ele><time>2026-05-02T10:23:03Z</time></trkpt><trkpt lat="42.19974146795523" lon="13.669068513411872"><ele>630.0</ele><time>2026-05-02T10:23:04Z</time></trkpt><trkpt lat="42.19968571771692" lon="13.669147794560887"><ele>630.0</ele><time>2026-05-02T10:23:05Z</time></trkpt><trkpt lat="42.19963108717848" lon="13.669227611892657"><ele>630.0</ele><time>2026-05-02T10:23:06Z</time></trkpt><trkpt lat="42.19958077570095" lon="13.669306382027239"><ele>628.3333333333334</ele><time>2026-05-02T10:23:07Z</time></trkpt><trkpt lat="42.199542272491364" lon="13.669380068455283"><ele>626.6666666666666</ele><time>2026-05-02T10:23:08Z</time></trkpt><trkpt lat="42.19947937603557" lon="13.66948255489933"><ele>625.0</ele><time>2026-05-02T10:23:10Z</time></trkpt><trkpt lat="42.19939267624043" lon="13.66948583193259"><ele>623.3333333333333</ele><time>2026-05-02T10:23:13Z</time></trkpt><trkpt lat="42.19939853412488" lon="13.669366970661374"><ele>621.6666666666666</ele><time>2026-05-02T10:23:15Z</time></trkpt><trkpt lat="42.19940684679908" lon="13.669272361657766"><ele>620.0</ele><time>2026-05-02T10:23:16Z</time></trkpt><trkpt lat="42.19940691276999" lon="13.66916273267871"><ele>617.2</ele><time>2026-05-02T10:23:17Z</time></trkpt><trkpt lat="42.199423010026344" lon="13.669045208064642"><ele>614.4</ele><time>2026-05-02T10:23:18Z</time></trkpt><trkpt lat="42.19943073246041" lon="13.668923863811127"><ele>611.6</ele><time>2026-05-02T10:23:19Z</time></trkpt><trkpt lat="42.19943888427901" lon="13.668801864262754"><ele>608.8</ele><time>2026-05-02T10:23:20Z</time></trkpt><trkpt lat="42.19943677843885" lon="13.668677339402606"><ele>606.0</ele><time>2026-05-02T10:23:21Z</time></trkpt><trkpt lat="42.19941601719083" lon="13.66854945342418"><ele>605.2</ele><time>2026-05-02T10:23:22Z</time></trkpt><trkpt lat="42.19938788107788" lon="13.668414369649016"><ele>604.4000000000001</ele><time>2026-05-02T10:23:23Z</time></trkpt><trkpt lat="42.19935392232162" lon="13.668279317791432"><ele>603.6</ele><time>2026-05-02T10:23:24Z</time></trkpt><trkpt lat="42.19932868129283" lon="13.668141575875898"><ele>602.8000000000001</ele><time>2026-05-02T10:23:25Z</time></trkpt><trkpt lat="42.19929160020588" lon="13.66800872878605"><ele>602.0</ele><time>2026-05-02T10:23:26Z</time></trkpt><trkpt lat="42.199244865872224" lon="13.66788709662654"><ele>603.0</ele><time>2026-05-02T10:23:27Z</time></trkpt><trkpt lat="42.19923490317621" lon="13.667752078744783"><ele>604.0</ele><time>2026-05-02T10:23:28Z</time></trkpt><trkpt lat="42.199213641294385" lon="13.667628740390938"><ele>605.0</ele><time>2026-05-02T10:23:29Z</time></trkpt><trkpt lat="42.199193118031346" lon="13.667518479435373"><ele>606.0</ele><time>2026-05-02T10:23:30Z</time></trkpt><trkpt lat="42.19915258560971" lon="13.667415660097657"><ele>607.0</ele><time>2026-05-02T10:23:32Z</time></trkpt><trkpt lat="42.199127532455286" lon="13.667319698342684"><ele>608.0</ele><time>2026-05-02T10:23:35Z</time></trkpt><trkpt lat="42.199101983943365" lon="13.667188744158821"><ele>608.0</ele><time>2026-05-02T10:23:37Z</time></trkpt><trkpt lat="42.199256574610914" lon="13.667051166060112"><ele>608.0</ele><time>2026-05-02T10:23:38Z</time></trkpt><trkpt lat="42.19927738370098" lon="13.666905075674537"><ele>608.0</ele><time>2026-05-02T10:23:40Z</time></trkpt><trkpt lat="42.19927035402104" lon="13.666813397046269"><ele>608.0</ele><time>2026-05-02T10:23:41Z</time></trkpt><trkpt lat="42.19925989004092" lon="13.666718984811776"><ele>608.0</ele><time>2026-05-02T10:23:42Z</time></trkpt><trkpt lat="42.19925120161653" lon="13.666633839964176"><ele>608.1666666666666</ele><time>2026-05-02T10:23:43Z</time></trkpt><trkpt lat="42.199228873547014" lon="13.666486990662152"><ele>608.3333333333333</ele><time>2026-05-02T10:23:45Z</time></trkpt><trkpt lat="42.199223629659095" lon="13.666359090031305"><ele>608.5</ele><time>2026-05-02T10:23:47Z</time></trkpt><trkpt lat="42.19922724572109" lon="13.666271363848534"><ele>608.6666666666666</ele><time>2026-05-02T10:23:48Z</time></trkpt><trkpt lat="42.199235553976315" lon="13.666167451494056"><ele>608.8333333333334</ele><time>2026-05-02T10:23:49Z</time></trkpt><trkpt lat="42.1992501380266" lon="13.666065233486933"><ele>609.0</ele><time>2026-05-02T10:23:50Z</time></trkpt><trkpt lat="42.199269883847705" lon="13.66596461689484"><ele>608.3333333333334</ele><time>2026-05-02T10:23:51Z</time></trkpt><trkpt lat="42.1993056935048" lon="13.665870746614035"><ele>607.6666666666666</ele><time>2026-05-02T10:23:52Z</time></trkpt><trkpt lat="42.19934621455348" lon="13.66580029603682"><ele>607.0</ele><time>2026-05-02T10:23:53Z</time></trkpt><trkpt lat="42.199414896755485" lon="13.665699127624254"><ele>606.3333333333333</ele><time>2026-05-02T10:23:55Z</time></trkpt><trkpt lat="42.19945715657914" lon="13.665632158015772"><ele>605.6666666666666</ele><time>2026-05-02T10:23:56Z</time></trkpt><trkpt lat="42.19950072045272" lon="13.665556172102889"><ele>605.0</ele><time>2026-05-02T10:23:57Z</time></trkpt><trkpt lat="42.19954594365138" lon="13.665475808843683"><ele>605.0</ele><time>2026-05-02T10:23:58Z</time></trkpt><trkpt lat="42.199579252266915" lon="13.665398726592068"><ele>605.0</ele><time>2026-05-02T10:23:59Z</time></trkpt><trkpt lat="42.19961517541335" lon="13.665327863444471"><ele>605.0</ele><time>2026-05-02T10:24:00Z</time></trkpt><trkpt lat="42.19970403770469" lon="13.66522036883711"><ele>605.0</ele><time>2026-05-02T10:24:02Z</time></trkpt><trkpt lat="42.19975522814821" lon="13.665160286064923"><ele>605.0</ele><time>2026-05-02T10:24:03Z</time></trkpt><trkpt lat="42.19980790518864" lon="13.665098270338264"><ele>605.0</ele><time>2026-05-02T10:24:04Z</time></trkpt><trkpt lat="42.19986387280083" lon="13.665042360882582"><ele>605.0</ele><time>2026-05-02T10:24:05Z</time></trkpt><trkpt lat="42.19995401502894" lon="13.664985693275494"><ele>605.0</ele><time>2026-05-02T10:24:07Z</time></trkpt><trkpt lat="42.20003122963604" lon="13.664914155719414"><ele>605.0</ele><time>2026-05-02T10:24:10Z</time></trkpt><trkpt lat="42.20012455706401" lon="13.664844099515948"><ele>605.0</ele><time>2026-05-02T10:24:12Z</time></trkpt><trkpt lat="42.20023239936521" lon="13.664794832676003"><ele>605.0</ele><time>2026-05-02T10:24:14Z</time></trkpt><trkpt lat="42.200330075752596" lon="13.664765806887281"><ele>605.0</ele><time>2026-05-02T10:24:16Z</time></trkpt><trkpt lat="42.200420476338564" lon="13.664725081040675"><ele>605.0</ele><time>2026-05-02T10:24:18Z</time></trkpt><trkpt lat="42.20051266343201" lon="13.664675628188949"><ele>605.0</ele><time>2026-05-02T10:24:20Z</time></trkpt><trkpt lat="42.20060933606319" lon="13.664608402918693"><ele>605.0</ele><time>2026-05-02T10:24:22Z</time></trkpt><trkpt lat="42.20071640638567" lon="13.664533252315179"><ele>605.0</ele><time>2026-05-02T10:24:24Z</time></trkpt><trkpt lat="42.20080391517472" lon="13.664485289022284"><ele>601.0</ele><time>2026-05-02T10:24:26Z</time></trkpt><trkpt lat="42.20087791342226" lon="13.664416415630875"><ele>597.0</ele><time>2026-05-02T10:24:28Z</time></trkpt><trkpt lat="42.20094375943242" lon="13.664306203247726"><ele>593.0</ele><time>2026-05-02T10:24:30Z</time></trkpt><trkpt lat="42.20103167337009" lon="13.664193811313641"><ele>589.0</ele><time>2026-05-02T10:24:32Z</time></trkpt><trkpt lat="42.20111874025763" lon="13.664103166297956"><ele>585.0</ele><time>2026-05-02T10:24:34Z</time></trkpt><trkpt lat="42.201214853535525" lon="13.664046615776257"><ele>585.0</ele><time>2026-05-02T10:24:36Z</time></trkpt><trkpt lat="42.20132487068535" lon="13.66401389499447"><ele>585.0</ele><time>2026-05-02T10:24:38Z</time></trkpt><trkpt lat="42.20139568358381" lon="13.663996161776105"><ele>585.0</ele><time>2026-05-02T10:24:39Z</time></trkpt><trkpt lat="42.20146202613394" lon="13.663978768202204"><ele>585.0</ele><time>2026-05-02T10:24:40Z</time></trkpt><trkpt lat="42.20153263976743" lon="13.663960904912615"><ele>585.0</ele><time>2026-05-02T10:24:41Z</time></trkpt><trkpt lat="42.20160656698613" lon="13.663934723243488"><ele>585.0</ele><time>2026-05-02T10:24:42Z</time></trkpt><trkpt lat="42.20167550274715" lon="13.663912454369456"><ele>584.2</ele><time>2026-05-02T10:24:43Z</time></trkpt><trkpt lat="42.20173607952278" lon="13.663888979704874"><ele>583.4</ele><time>2026-05-02T10:24:44Z</time></trkpt><trkpt lat="42.201835069672065" lon="13.663837326648206"><ele>582.6</ele><time>2026-05-02T10:24:46Z</time></trkpt><trkpt lat="42.20188944120958" lon="13.663759190116577"><ele>581.8</ele><time>2026-05-02T10:24:48Z</time></trkpt><trkpt lat="42.201936307288584" lon="13.663623827426868"><ele>581.0</ele><time>2026-05-02T10:24:50Z</time></trkpt><trkpt lat="42.20198217199053" lon="13.663509919252244"><ele>578.6</ele><time>2026-05-02T10:24:52Z</time></trkpt><trkpt lat="42.20203435547585" lon="13.663393694791631"><ele>576.2</ele><time>2026-05-02T10:24:54Z</time></trkpt><trkpt lat="42.20206873289062" lon="13.663318933932418"><ele>573.8</ele><time>2026-05-02T10:24:55Z</time></trkpt><trkpt lat="42.20212571185289" lon="13.66317612260767"><ele>571.4</ele><time>2026-05-02T10:24:57Z</time></trkpt><trkpt lat="42.20218933590534" lon="13.663045627473826"><ele>569.0</ele><time>2026-05-02T10:24:59Z</time></trkpt><trkpt lat="42.20224340865154" lon="13.662917007374409"><ele>569.0</ele><time>2026-05-02T10:25:01Z</time></trkpt><trkpt lat="42.20228675693055" lon="13.662780026426582"><ele>569.0</ele><time>2026-05-02T10:25:03Z</time></trkpt><trkpt lat="42.20230929383724" lon="13.662696214863152"><ele>569.0</ele><time>2026-05-02T10:25:04Z</time></trkpt><trkpt lat="42.202329265595935" lon="13.662606109758563"><ele>569.0</ele><time>2026-05-02T10:25:05Z</time></trkpt><trkpt lat="42.20235194180608" lon="13.662520998548285"><ele>569.0</ele><time>2026-05-02T10:25:06Z</time></trkpt><trkpt lat="42.20236794798537" lon="13.662435793131635"><ele>569.0</ele><time>2026-05-02T10:25:07Z</time></trkpt><trkpt lat="42.202399413200425" lon="13.662345344354488"><ele>569.0</ele><time>2026-05-02T10:25:08Z</time></trkpt><trkpt lat="42.202429048220964" lon="13.662255407607073"><ele>569.0</ele><time>2026-05-02T10:25:09Z</time></trkpt><trkpt lat="42.202460548621296" lon="13.66216155435163"><ele>569.0</ele><time>2026-05-02T10:25:10Z</time></trkpt><trkpt lat="42.20248913978067" lon="13.66205954865629"><ele>569.0</ele><time>2026-05-02T10:25:11Z</time></trkpt><trkpt lat="42.202517002486836" lon="13.66196090491675"><ele>569.0</ele><time>2026-05-02T10:25:12Z</time></trkpt><trkpt lat="42.20254365519335" lon="13.661853211247674"><ele>569.0</ele><time>2026-05-02T10:25:13Z</time></trkpt><trkpt lat="42.202564614467825" lon="13.66173654053579"><ele>568.4285714285714</ele><time>2026-05-02T10:25:14Z</time></trkpt><trkpt lat="42.202582953177746" lon="13.661631287633359"><ele>567.8571428571429</ele><time>2026-05-02T10:25:15Z</time></trkpt><trkpt lat="42.20261039176509" lon="13.661525372607722"><ele>567.2857142857142</ele><time>2026-05-02T10:25:16Z</time></trkpt><trkpt lat="42.202644066620394" lon="13.661435266603865"><ele>566.7142857142858</ele><time>2026-05-02T10:25:17Z</time></trkpt><trkpt lat="42.20268257511423" lon="13.661357272252578"><ele>566.1428571428571</ele><time>2026-05-02T10:25:18Z</time></trkpt><trkpt lat="42.20271671842592" lon="13.661280379922466"><ele>565.5714285714286</ele><time>2026-05-02T10:25:19Z</time></trkpt><trkpt lat="42.20275107796909" lon="13.661201397874233"><ele>565.0</ele><time>2026-05-02T10:25:20Z</time></trkpt><trkpt lat="42.202779798418675" lon="13.661110417111164"><ele>564.3333333333334</ele><time>2026-05-02T10:25:21Z</time></trkpt><trkpt lat="42.202811869773456" lon="13.661000429203815"><ele>563.6666666666667</ele><time>2026-05-02T10:25:22Z</time></trkpt><trkpt lat="42.202838490857275" lon="13.660893031991902"><ele>563.0</ele><time>2026-05-02T10:25:23Z</time></trkpt><trkpt lat="42.20285891986955" lon="13.660799063145259"><ele>562.3333333333334</ele><time>2026-05-02T10:25:24Z</time></trkpt><trkpt lat="42.20287726277196" lon="13.660713362739218"><ele>561.6666666666666</ele><time>2026-05-02T10:25:25Z</time></trkpt><trkpt lat="42.202911451356194" lon="13.660547309963828"><ele>561.0</ele><time>2026-05-02T10:25:27Z</time></trkpt><trkpt lat="42.20293307792964" lon="13.660380120190709"><ele>561.0</ele><time>2026-05-02T10:25:29Z</time></trkpt><trkpt lat="42.20294220996251" lon="13.660295575861415"><ele>561.0</ele><time>2026-05-02T10:25:30Z</time></trkpt><trkpt lat="42.202976522499505" lon="13.66013361538415"><ele>561.0</ele><time>2026-05-02T10:25:32Z</time></trkpt><trkpt lat="42.2030018498301" lon="13.660052492540345"><ele>561.0</ele><time>2026-05-02T10:25:33Z</time></trkpt><trkpt lat="42.203052159469124" lon="13.659891980175667"><ele>561.0</ele><time>2026-05-02T10:25:35Z</time></trkpt><trkpt lat="42.20308417204803" lon="13.659811979948294"><ele>560.2857142857142</ele><time>2026-05-02T10:25:36Z</time></trkpt><trkpt lat="42.203117231030646" lon="13.659730252755534"><ele>559.5714285714286</ele><time>2026-05-02T10:25:37Z</time></trkpt><trkpt lat="42.2031455452413" lon="13.659643636787884"><ele>558.8571428571429</ele><time>2026-05-02T10:25:38Z</time></trkpt><trkpt lat="42.20316594448746" lon="13.659555684929"><ele>558.1428571428571</ele><time>2026-05-02T10:25:39Z</time></trkpt><trkpt lat="42.20318961772023" lon="13.659469341335466"><ele>557.4285714285714</ele><time>2026-05-02T10:25:40Z</time></trkpt><trkpt lat="42.203220191935465" lon="13.65938332290667"><ele>556.7142857142857</ele><time>2026-05-02T10:25:41Z</time></trkpt><trkpt lat="42.203250419983256" lon="13.659297129322841"><ele>556.0</ele><time>2026-05-02T10:25:42Z</time></trkpt><trkpt lat="42.20328324521093" lon="13.659210843300748"><ele>554.0</ele><time>2026-05-02T10:25:43Z</time></trkpt><trkpt lat="42.20332411065916" lon="13.659132589015808"><ele>552.0</ele><time>2026-05-02T10:25:44Z</time></trkpt><trkpt lat="42.20336184111545" lon="13.659052837917896"><ele>550.0</ele><time>2026-05-02T10:25:45Z</time></trkpt><trkpt lat="42.20342256166809" lon="13.658932857269425"><ele>548.0</ele><time>2026-05-02T10:25:47Z</time></trkpt><trkpt lat="42.20347232006726" lon="13.658830013227211"><ele>546.0</ele><time>2026-05-02T10:25:49Z</time></trkpt><trkpt lat="42.20350393076778" lon="13.658743529242797"><ele>544.0</ele><time>2026-05-02T10:25:51Z</time></trkpt><trkpt lat="42.2035369697041" lon="13.658654231054463"><ele>541.6</ele><time>2026-05-02T10:25:54Z</time></trkpt><trkpt lat="42.20352335148937" lon="13.658561103663152"><ele>539.2</ele><time>2026-05-02T10:25:57Z</time></trkpt><trkpt lat="42.203391218035925" lon="13.658489533839552"><ele>536.8000000000001</ele><time>2026-05-02T10:25:59Z</time></trkpt><trkpt lat="42.2033100945398" lon="13.65846794966011"><ele>534.4</ele><time>2026-05-02T10:26:00Z</time></trkpt><trkpt lat="42.20322949270478" lon="13.658433774201194"><ele>532.0</ele><time>2026-05-02T10:26:01Z</time></trkpt><trkpt lat="42.20314066553734" lon="13.658397921723392"><ele>531.8000000000001</ele><time>2026-05-02T10:26:02Z</time></trkpt><trkpt lat="42.203052348903505" lon="13.65836704070617"><ele>531.6</ele><time>2026-05-02T10:26:03Z</time></trkpt><trkpt lat="42.20296432155778" lon="13.658331725177034"><ele>531.4000000000001</ele><time>2026-05-02T10:26:04Z</time></trkpt><trkpt lat="42.20287824782239" lon="13.658285356270744"><ele>531.2</ele><time>2026-05-02T10:26:05Z</time></trkpt><trkpt lat="42.20279428408295" lon="13.658218435174522"><ele>531.0</ele><time>2026-05-02T10:26:06Z</time></trkpt><trkpt lat="42.20270713099111" lon="13.658131094460149"><ele>531.0</ele><time>2026-05-02T10:26:07Z</time></trkpt><trkpt lat="42.202610656051746" lon="13.658027961595275"><ele>531.0</ele><time>2026-05-02T10:26:08Z</time></trkpt><trkpt lat="42.202516842440026" lon="13.657932575803182"><ele>531.0</ele><time>2026-05-02T10:26:09Z</time></trkpt><trkpt lat="42.202416772026226" lon="13.65782886580013"><ele>531.0</ele><time>2026-05-02T10:26:10Z</time></trkpt><trkpt lat="42.20231605289115" lon="13.657722605952543"><ele>527.5</ele><time>2026-05-02T10:26:11Z</time></trkpt><trkpt lat="42.20222211203043" lon="13.65762397942596"><ele>524.0</ele><time>2026-05-02T10:26:12Z</time></trkpt><trkpt lat="42.20212420412144" lon="13.65754199385614"><ele>520.5</ele><time>2026-05-02T10:26:13Z</time></trkpt><trkpt lat="42.20201075116924" lon="13.657483016380484"><ele>517.0</ele><time>2026-05-02T10:26:14Z</time></trkpt><trkpt lat="42.201884259910265" lon="13.657459700864038"><ele>517.0</ele><time>2026-05-02T10:26:15Z</time></trkpt><trkpt lat="42.20174878078794" lon="13.657465480526229"><ele>517.0</ele><time>2026-05-02T10:26:16Z</time></trkpt><trkpt lat="42.20160595819864" lon="13.657489203432062"><ele>517.0</ele><time>2026-05-02T10:26:17Z</time></trkpt><trkpt lat="42.20146764468566" lon="13.657518499088605"><ele>517.0</ele><time>2026-05-02T10:26:18Z</time></trkpt><trkpt lat="42.20133460300126" lon="13.657551295475873"><ele>517.75</ele><time>2026-05-02T10:26:19Z</time></trkpt><trkpt lat="42.20120773300035" lon="13.65758965689481"><ele>518.5</ele><time>2026-05-02T10:26:20Z</time></trkpt><trkpt lat="42.20109080950873" lon="13.65765033351967"><ele>519.25</ele><time>2026-05-02T10:26:21Z</time></trkpt><trkpt lat="42.20098971606974" lon="13.657758945063053"><ele>520.0</ele><time>2026-05-02T10:26:22Z</time></trkpt><trkpt lat="42.200897507511165" lon="13.657895900919222"><ele>520.0</ele><time>2026-05-02T10:26:23Z</time></trkpt><trkpt lat="42.200803617615286" lon="13.658025909996027"><ele>520.0</ele><time>2026-05-02T10:26:24Z</time></trkpt><trkpt lat="42.2007037513711" lon="13.658133572487818"><ele>520.0</ele><time>2026-05-02T10:26:25Z</time></trkpt><trkpt lat="42.20059666278011" lon="13.658212637728765"><ele>520.0</ele><time>2026-05-02T10:26:26Z</time></trkpt><trkpt lat="42.20047516057541" lon="13.65826145450285"><ele>517.0</ele><time>2026-05-02T10:26:27Z</time></trkpt><trkpt lat="42.20034334670041" lon="13.658287024271958"><ele>514.0</ele><time>2026-05-02T10:26:28Z</time></trkpt><trkpt lat="42.20020448195123" lon="13.658312633271636"><ele>511.0</ele><time>2026-05-02T10:26:29Z</time></trkpt><trkpt lat="42.20005922109704" lon="13.658345156176061"><ele>508.0</ele><time>2026-05-02T10:26:30Z</time></trkpt><trkpt lat="42.199908273560105" lon="13.658379281293065"><ele>505.33333333333337</ele><time>2026-05-02T10:26:31Z</time></trkpt><trkpt lat="42.199757693175286" lon="13.658417134719782"><ele>502.66666666666663</ele><time>2026-05-02T10:26:32Z</time></trkpt><trkpt lat="42.19961337198301" lon="13.658485214149698"><ele>500.0</ele><time>2026-05-02T10:26:33Z</time></trkpt><trkpt lat="42.199479924876606" lon="13.658591514016157"><ele>502.66666666666663</ele><time>2026-05-02T10:26:34Z</time></trkpt><trkpt lat="42.19935402516276" lon="13.65872559355328"><ele>505.33333333333337</ele><time>2026-05-02T10:26:35Z</time></trkpt><trkpt lat="42.199231150379276" lon="13.658859787549751"><ele>508.0</ele><time>2026-05-02T10:26:36Z</time></trkpt><trkpt lat="42.19911038315369" lon="13.658988763681712"><ele>505.25</ele><time>2026-05-02T10:26:37Z</time></trkpt><trkpt lat="42.19899899783084" lon="13.659104757956674"><ele>502.5</ele><time>2026-05-02T10:26:38Z</time></trkpt><trkpt lat="42.198902351995066" lon="13.659204594822024"><ele>499.75</ele><time>2026-05-02T10:26:39Z</time></trkpt><trkpt lat="42.19881045593042" lon="13.659280416601922"><ele>497.0</ele><time>2026-05-02T10:26:40Z</time></trkpt><trkpt lat="42.19870923082604" lon="13.65931865532978"><ele>497.0</ele><time>2026-05-02T10:26:41Z</time></trkpt><trkpt lat="42.19860406081746" lon="13.659317947117625"><ele>497.00000000000006</ele><time>2026-05-02T10:26:42Z</time></trkpt><trkpt lat="42.19849304996882" lon="13.659283924571017"><ele>497.00000000000006</ele><time>2026-05-02T10:26:43Z</time></trkpt><trkpt lat="42.198380509780854" lon="13.659244884558708"><ele>497.0</ele><time>2026-05-02T10:26:44Z</time></trkpt><trkpt lat="42.198275402313065" lon="13.659207277633884"><ele>497.0</ele><time>2026-05-02T10:26:45Z</time></trkpt><trkpt lat="42.198190639701835" lon="13.659208308503057"><ele>496.6</ele><time>2026-05-02T10:26:46Z</time></trkpt><trkpt lat="42.19815521404383" lon="13.659046792199106"><ele>496.20000000000005</ele><time>2026-05-02T10:26:47Z</time></trkpt><trkpt lat="42.19811541360412" lon="13.658938024787464"><ele>495.8</ele><time>2026-05-02T10:26:48Z</time></trkpt><trkpt lat="42.19806761131756" lon="13.658832120682902"><ele>495.4</ele><time>2026-05-02T10:26:49Z</time></trkpt><trkpt lat="42.198031490477554" lon="13.658701947534333"><ele>495.0</ele><time>2026-05-02T10:26:50Z</time></trkpt><trkpt lat="42.197986528803604" lon="13.658550830383483"><ele>494.25</ele><time>2026-05-02T10:26:51Z</time></trkpt><trkpt lat="42.19792774806962" lon="13.65839676276438"><ele>493.5</ele><time>2026-05-02T10:26:52Z</time></trkpt><trkpt lat="42.197843967930865" lon="13.658244742222408"><ele>492.75</ele><time>2026-05-02T10:26:53Z</time></trkpt><trkpt lat="42.19773677286647" lon="13.658083114741428"><ele>492.0</ele><time>2026-05-02T10:26:54Z</time></trkpt><trkpt lat="42.197621257870416" lon="13.657905227087516"><ele>492.33333333333337</ele><time>2026-05-02T10:26:55Z</time></trkpt><trkpt lat="42.19749842205057" lon="13.657719886339926"><ele>492.6666666666667</ele><time>2026-05-02T10:26:56Z</time></trkpt><trkpt lat="42.197373272395566" lon="13.657530510453737"><ele>493.0</ele><time>2026-05-02T10:26:57Z</time></trkpt><trkpt lat="42.197258433091896" lon="13.65735301079753"><ele>493.0</ele><time>2026-05-02T10:26:58Z</time></trkpt><trkpt lat="42.19714184287088" lon="13.657169608210575"><ele>493.0</ele><time>2026-05-02T10:26:59Z</time></trkpt><trkpt lat="42.197025244798894" lon="13.65698983839049"><ele>493.0</ele><time>2026-05-02T10:27:00Z</time></trkpt><trkpt lat="42.196906978698294" lon="13.656808974636748"><ele>493.0</ele><time>2026-05-02T10:27:01Z</time></trkpt><trkpt lat="42.19679113567845" lon="13.65662235976169"><ele>493.0</ele><time>2026-05-02T10:27:02Z</time></trkpt><trkpt lat="42.19667575885226" lon="13.65643741623183"><ele>493.0</ele><time>2026-05-02T10:27:03Z</time></trkpt><trkpt lat="42.19655909128969" lon="13.656256718015689"><ele>495.6666666666667</ele><time>2026-05-02T10:27:04Z</time></trkpt><trkpt lat="42.19644594841638" lon="13.656082830691355"><ele>498.33333333333337</ele><time>2026-05-02T10:27:05Z</time></trkpt><trkpt lat="42.196331670086046" lon="13.655905505766652"><ele>501.0</ele><time>2026-05-02T10:27:06Z</time></trkpt><trkpt lat="42.19622351492864" lon="13.655730233437218"><ele>501.0</ele><time>2026-05-02T10:27:07Z</time></trkpt><trkpt lat="42.19611652542257" lon="13.655556704819885"><ele>501.0</ele><time>2026-05-02T10:27:08Z</time></trkpt><trkpt lat="42.196007414351065" lon="13.655390992012132"><ele>501.0</ele><time>2026-05-02T10:27:09Z</time></trkpt><trkpt lat="42.195899462671726" lon="13.655230580945084"><ele>502.33333333333337</ele><time>2026-05-02T10:27:10Z</time></trkpt><trkpt lat="42.1957994730522" lon="13.655072497918018"><ele>503.6666666666667</ele><time>2026-05-02T10:27:11Z</time></trkpt><trkpt lat="42.19571240835664" lon="13.654906628249128"><ele>505.0</ele><time>2026-05-02T10:27:12Z</time></trkpt><trkpt lat="42.19564511405573" lon="13.654729704200207"><ele>508.25</ele><time>2026-05-02T10:27:13Z</time></trkpt><trkpt lat="42.195599741694636" lon="13.654538917059792"><ele>511.5</ele><time>2026-05-02T10:27:14Z</time></trkpt><trkpt lat="42.19558401380199" lon="13.654345930515378"><ele>514.75</ele><time>2026-05-02T10:27:15Z</time></trkpt><trkpt lat="42.195595505258844" lon="13.654149182878404"><ele>518.0</ele><time>2026-05-02T10:27:16Z</time></trkpt><trkpt lat="42.19562849086456" lon="13.653942880746504"><ele>519.0</ele><time>2026-05-02T10:27:17Z</time></trkpt><trkpt lat="42.19566917940843" lon="13.653727203050796"><ele>520.0</ele><time>2026-05-02T10:27:18Z</time></trkpt><trkpt lat="42.195707179861515" lon="13.653498670579202"><ele>521.0</ele><time>2026-05-02T10:27:19Z</time></trkpt><trkpt lat="42.19574592401557" lon="13.653258632707574"><ele>521.0</ele><time>2026-05-02T10:27:20Z</time></trkpt><trkpt lat="42.195784721845136" lon="13.653010526666588"><ele>521.0</ele><time>2026-05-02T10:27:21Z</time></trkpt><trkpt lat="42.19582659086013" lon="13.652759455983428"><ele>521.0</ele><time>2026-05-02T10:27:22Z</time></trkpt><trkpt lat="42.195869023862855" lon="13.652504817827761"><ele>522.6666666666666</ele><time>2026-05-02T10:27:23Z</time></trkpt><trkpt lat="42.19590963557769" lon="13.652254993887217"><ele>524.3333333333334</ele><time>2026-05-02T10:27:24Z</time></trkpt><trkpt lat="42.19594995730635" lon="13.652001982176206"><ele>526.0</ele><time>2026-05-02T10:27:25Z</time></trkpt><trkpt lat="42.19599212146128" lon="13.651755943354079"><ele>527.6666666666667</ele><time>2026-05-02T10:27:26Z</time></trkpt><trkpt lat="42.19603256177457" lon="13.651519640839037"><ele>529.3333333333334</ele><time>2026-05-02T10:27:27Z</time></trkpt><trkpt lat="42.19607076016118" lon="13.651288543587338"><ele>531.0</ele><time>2026-05-02T10:27:28Z</time></trkpt><trkpt lat="42.19610612559838" lon="13.651061732707998"><ele>532.3333333333334</ele><time>2026-05-02T10:27:29Z</time></trkpt><trkpt lat="42.19614266155614" lon="13.650843981068467"><ele>533.6666666666667</ele><time>2026-05-02T10:27:30Z</time></trkpt><trkpt lat="42.19617869571323" lon="13.650632469136074"><ele>535.0</ele><time>2026-05-02T10:27:31Z</time></trkpt><trkpt lat="42.19621261190725" lon="13.650420918420224"><ele>537.3333333333334</ele><time>2026-05-02T10:27:32Z</time></trkpt><trkpt lat="42.19624556600892" lon="13.65021119627789"><ele>539.6666666666666</ele><time>2026-05-02T10:27:33Z</time></trkpt><trkpt lat="42.19628087334007" lon="13.649999262262053"><ele>542.0</ele><time>2026-05-02T10:27:34Z</time></trkpt><trkpt lat="42.196317791647786" lon="13.649779926209462"><ele>542.0</ele><time>2026-05-02T10:27:35Z</time></trkpt><trkpt lat="42.1963555697755" lon="13.649543578145439"><ele>542.0</ele><time>2026-05-02T10:27:36Z</time></trkpt><trkpt lat="42.19639666089694" lon="13.649305093155164"><ele>542.0</ele><time>2026-05-02T10:27:37Z</time></trkpt><trkpt lat="42.19643729712299" lon="13.64907987080605"><ele>542.6666666666666</ele><time>2026-05-02T10:27:38Z</time></trkpt><trkpt lat="42.19647716509609" lon="13.648859748713468"><ele>543.3333333333334</ele><time>2026-05-02T10:27:39Z</time></trkpt><trkpt lat="42.196513837428384" lon="13.64865675734668"><ele>544.0</ele><time>2026-05-02T10:27:40Z</time></trkpt><trkpt lat="42.19654804276216" lon="13.64847710964604"><ele>544.6</ele><time>2026-05-02T10:27:41Z</time></trkpt><trkpt lat="42.196578928655505" lon="13.648315257058885"><ele>545.2</ele><time>2026-05-02T10:27:42Z</time></trkpt><trkpt lat="42.19660719794361" lon="13.648173150184315"><ele>545.8000000000001</ele><time>2026-05-02T10:27:43Z</time></trkpt><trkpt lat="42.19662615918935" lon="13.648057078019527"><ele>546.4</ele><time>2026-05-02T10:27:44Z</time></trkpt><trkpt lat="42.19663634181671" lon="13.647965261804632"><ele>547.0</ele><time>2026-05-02T10:27:45Z</time></trkpt><trkpt lat="42.19666053750468" lon="13.64783233530488"><ele>548.8000000000001</ele><time>2026-05-02T10:27:47Z</time></trkpt><trkpt lat="42.19668580289959" lon="13.64775251014387"><ele>550.6</ele><time>2026-05-02T10:27:49Z</time></trkpt><trkpt lat="42.196509040847275" lon="13.647714566030427"><ele>552.4000000000001</ele><time>2026-05-02T10:27:52Z</time></trkpt><trkpt lat="42.19645757542182" lon="13.647771599779295"><ele>554.2</ele><time>2026-05-02T10:27:53Z</time></trkpt><trkpt lat="42.19639377775947" lon="13.647852361182837"><ele>556.0</ele><time>2026-05-02T10:27:54Z</time></trkpt><trkpt lat="42.19630681074422" lon="13.647955580448542"><ele>556.5</ele><time>2026-05-02T10:27:55Z</time></trkpt><trkpt lat="42.19621233096766" lon="13.648069244869342"><ele>557.0</ele><time>2026-05-02T10:27:56Z</time></trkpt><trkpt lat="42.19611954867183" lon="13.648181226756407"><ele>557.5</ele><time>2026-05-02T10:27:57Z</time></trkpt><trkpt lat="42.196014111726704" lon="13.64830690138611"><ele>558.0</ele><time>2026-05-02T10:27:58Z</time></trkpt><trkpt lat="42.19589264470535" lon="13.648424003281484"><ele>558.0</ele><time>2026-05-02T10:27:59Z</time></trkpt><trkpt lat="42.19575691066048" lon="13.648522058249611"><ele>558.0</ele><time>2026-05-02T10:28:00Z</time></trkpt><trkpt lat="42.19561106624547" lon="13.648604223612251"><ele>558.0</ele><time>2026-05-02T10:28:01Z</time></trkpt><trkpt lat="42.195474409294256" lon="13.648679030625926"><ele>561.6666666666666</ele><time>2026-05-02T10:28:02Z</time></trkpt><trkpt lat="42.19534050446743" lon="13.64877427581056"><ele>565.3333333333333</ele><time>2026-05-02T10:28:03Z</time></trkpt><trkpt lat="42.19522220291277" lon="13.64889923970175"><ele>569.0</ele><time>2026-05-02T10:28:04Z</time></trkpt><trkpt lat="42.19512521373998" lon="13.649060182312594"><ele>569.0</ele><time>2026-05-02T10:28:05Z</time></trkpt><trkpt lat="42.19503917900222" lon="13.649245939104915"><ele>569.0</ele><time>2026-05-02T10:28:06Z</time></trkpt><trkpt lat="42.19495218036143" lon="13.649445181068755"><ele>569.0</ele><time>2026-05-02T10:28:07Z</time></trkpt><trkpt lat="42.194860990652316" lon="13.649651237196625"><ele>574.3333333333333</ele><time>2026-05-02T10:28:08Z</time></trkpt><trkpt lat="42.19476161864334" lon="13.649837597971919"><ele>579.6666666666666</ele><time>2026-05-02T10:28:09Z</time></trkpt><trkpt lat="42.19465057634285" lon="13.649992754778964"><ele>585.0</ele><time>2026-05-02T10:28:10Z</time></trkpt><trkpt lat="42.19452120648032" lon="13.650119298626691"><ele>585.0</ele><time>2026-05-02T10:28:11Z</time></trkpt><trkpt lat="42.194377073792474" lon="13.650224382668782"><ele>585.0</ele><time>2026-05-02T10:28:12Z</time></trkpt><trkpt lat="42.19422513804064" lon="13.650326458856634"><ele>585.0</ele><time>2026-05-02T10:28:13Z</time></trkpt><trkpt lat="42.194074175823054" lon="13.6504396795676"><ele>587.3333333333334</ele><time>2026-05-02T10:28:14Z</time></trkpt><trkpt lat="42.19392041726718" lon="13.650553337599119"><ele>589.6666666666667</ele><time>2026-05-02T10:28:15Z</time></trkpt><trkpt lat="42.19377134014223" lon="13.650668745061942"><ele>592.0</ele><time>2026-05-02T10:28:16Z</time></trkpt><trkpt lat="42.193631910449525" lon="13.650793248598603"><ele>592.0</ele><time>2026-05-02T10:28:17Z</time></trkpt><trkpt lat="42.1935068018723" lon="13.650938696788812"><ele>592.0</ele><time>2026-05-02T10:28:18Z</time></trkpt><trkpt lat="42.19340474208779" lon="13.651094911986835"><ele>592.0</ele><time>2026-05-02T10:28:19Z</time></trkpt><trkpt lat="42.1933237034613" lon="13.651251120955335"><ele>589.25</ele><time>2026-05-02T10:28:20Z</time></trkpt><trkpt lat="42.193262972157456" lon="13.65140908285508"><ele>586.5</ele><time>2026-05-02T10:28:21Z</time></trkpt><trkpt lat="42.19322290818482" lon="13.651565332791863"><ele>583.75</ele><time>2026-05-02T10:28:22Z</time></trkpt><trkpt lat="42.193222116002666" lon="13.651731364223405"><ele>581.0</ele><time>2026-05-02T10:28:23Z</time></trkpt><trkpt lat="42.193249642988896" lon="13.651898414187466"><ele>582.5</ele><time>2026-05-02T10:28:24Z</time></trkpt><trkpt lat="42.193291956209386" lon="13.652069729729943"><ele>584.0</ele><time>2026-05-02T10:28:25Z</time></trkpt><trkpt lat="42.19331622895093" lon="13.652253531511523"><ele>585.5</ele><time>2026-05-02T10:28:26Z</time></trkpt><trkpt lat="42.193313473288654" lon="13.652433349508925"><ele>587.0</ele><time>2026-05-02T10:28:27Z</time></trkpt><trkpt lat="42.19329471063547" lon="13.652613942920784"><ele>587.0</ele><time>2026-05-02T10:28:28Z</time></trkpt><trkpt lat="42.19326900658307" lon="13.652783998292756"><ele>587.0</ele><time>2026-05-02T10:28:29Z</time></trkpt><trkpt lat="42.193242813733725" lon="13.652931235724196"><ele>587.0</ele><time>2026-05-02T10:28:30Z</time></trkpt><trkpt lat="42.19321387214872" lon="13.653054559024579"><ele>587.0</ele><time>2026-05-02T10:28:31Z</time></trkpt><trkpt lat="42.1931714014649" lon="13.653144052243594"><ele>587.0</ele><time>2026-05-02T10:28:32Z</time></trkpt><trkpt lat="42.193102775636305" lon="13.653203168031665"><ele>588.0</ele><time>2026-05-02T10:28:33Z</time></trkpt><trkpt lat="42.19302745376715" lon="13.653197230060771"><ele>589.0</ele><time>2026-05-02T10:28:34Z</time></trkpt><trkpt lat="42.19297702061625" lon="13.653133958485508"><ele>590.0</ele><time>2026-05-02T10:28:35Z</time></trkpt><trkpt lat="42.192953423945745" lon="13.65303896615037"><ele>591.0</ele><time>2026-05-02T10:28:36Z</time></trkpt><trkpt lat="42.19296189895505" lon="13.652919405613652"><ele>592.0</ele><time>2026-05-02T10:28:37Z</time></trkpt><trkpt lat="42.19299295474527" lon="13.652788792047753"><ele>593.0</ele><time>2026-05-02T10:28:38Z</time></trkpt><trkpt lat="42.19302699252383" lon="13.652647455619059"><ele>597.0</ele><time>2026-05-02T10:28:39Z</time></trkpt><trkpt lat="42.19305140397454" lon="13.652504449192632"><ele>601.0</ele><time>2026-05-02T10:28:40Z</time></trkpt><trkpt lat="42.19306577776779" lon="13.652364423077401"><ele>605.0</ele><time>2026-05-02T10:28:41Z</time></trkpt><trkpt lat="42.19306353160298" lon="13.652244222324553"><ele>609.0</ele><time>2026-05-02T10:28:42Z</time></trkpt><trkpt lat="42.19302907403285" lon="13.652148499905717"><ele>613.0</ele><time>2026-05-02T10:28:43Z</time></trkpt><trkpt lat="42.192963871267075" lon="13.652098401578145"><ele>613.0</ele><time>2026-05-02T10:28:44Z</time></trkpt><trkpt lat="42.19288970656516" lon="13.652113926538817"><ele>613.0</ele><time>2026-05-02T10:28:45Z</time></trkpt><trkpt lat="42.192837496579756" lon="13.652193985628413"><ele>613.0</ele><time>2026-05-02T10:28:46Z</time></trkpt><trkpt lat="42.19281462570439" lon="13.652310744165264"><ele>613.0</ele><time>2026-05-02T10:28:47Z</time></trkpt><trkpt lat="42.19280604159562" lon="13.652446920438527"><ele>613.0</ele><time>2026-05-02T10:28:48Z</time></trkpt><trkpt lat="42.19277776183075" lon="13.652591148145099"><ele>613.0</ele><time>2026-05-02T10:28:49Z</time></trkpt><trkpt lat="42.19271315258699" lon="13.652724393422123"><ele>613.0</ele><time>2026-05-02T10:28:50Z</time></trkpt><trkpt lat="42.19261705844261" lon="13.65282700377487"><ele>613.0</ele><time>2026-05-02T10:28:51Z</time></trkpt><trkpt lat="42.19251328975949" lon="13.652894107983503"><ele>613.0</ele><time>2026-05-02T10:28:52Z</time></trkpt><trkpt lat="42.19242562560353" lon="13.652913434103631"><ele>613.0</ele><time>2026-05-02T10:28:53Z</time></trkpt><trkpt lat="42.19236198038391" lon="13.652877833644107"><ele>613.0</ele><time>2026-05-02T10:28:54Z</time></trkpt><trkpt lat="42.192354205244875" lon="13.652716248879576"><ele>613.0</ele><time>2026-05-02T10:28:56Z</time></trkpt><trkpt lat="42.192422407230936" lon="13.652664418963964"><ele>613.0</ele><time>2026-05-02T10:28:57Z</time></trkpt><trkpt lat="42.192495462287994" lon="13.652605009533572"><ele>613.0</ele><time>2026-05-02T10:28:58Z</time></trkpt><trkpt lat="42.19256770361929" lon="13.65253465322162"><ele>613.0</ele><time>2026-05-02T10:28:59Z</time></trkpt><trkpt lat="42.19263178205641" lon="13.652458012732124"><ele>613.0</ele><time>2026-05-02T10:29:00Z</time></trkpt><trkpt lat="42.19266645691517" lon="13.652355433467546"><ele>613.0</ele><time>2026-05-02T10:29:01Z</time></trkpt><trkpt lat="42.19264840469513" lon="13.652246248262852"><ele>613.0</ele><time>2026-05-02T10:29:02Z</time></trkpt><trkpt lat="42.192592444486664" lon="13.652174379245533"><ele>613.0</ele><time>2026-05-02T10:29:03Z</time></trkpt><trkpt lat="42.19250677752082" lon="13.652167615062337"><ele>613.0</ele><time>2026-05-02T10:29:04Z</time></trkpt><trkpt lat="42.19242627733447" lon="13.65221713642191"><ele>613.0</ele><time>2026-05-02T10:29:05Z</time></trkpt><trkpt lat="42.192350645512086" lon="13.652307025964843"><ele>616.5</ele><time>2026-05-02T10:29:06Z</time></trkpt><trkpt lat="42.192269835807316" lon="13.652406167864962"><ele>620.0</ele><time>2026-05-02T10:29:07Z</time></trkpt><trkpt lat="42.19218101675106" lon="13.652508956399297"><ele>623.5</ele><time>2026-05-02T10:29:08Z</time></trkpt><trkpt lat="42.19208532438533" lon="13.652605749641694"><ele>627.0</ele><time>2026-05-02T10:29:09Z</time></trkpt><trkpt lat="42.191976739666536" lon="13.65268321731911"><ele>627.0</ele><time>2026-05-02T10:29:10Z</time></trkpt><trkpt lat="42.19185074618749" lon="13.652731861204463"><ele>627.0</ele><time>2026-05-02T10:29:11Z</time></trkpt><trkpt lat="42.191709780397424" lon="13.652753026702417"><ele>627.0</ele><time>2026-05-02T10:29:12Z</time></trkpt><trkpt lat="42.191560252315355" lon="13.652766878310713"><ele>627.0</ele><time>2026-05-02T10:29:13Z</time></trkpt><trkpt lat="42.19141243096848" lon="13.652801198181251"><ele>627.75</ele><time>2026-05-02T10:29:14Z</time></trkpt><trkpt lat="42.19127276299812" lon="13.652869204073122"><ele>628.5</ele><time>2026-05-02T10:29:15Z</time></trkpt><trkpt lat="42.19114586919786" lon="13.652969229460405"><ele>629.25</ele><time>2026-05-02T10:29:16Z</time></trkpt><trkpt lat="42.19104107348265" lon="13.653087849578494"><ele>630.0</ele><time>2026-05-02T10:29:17Z</time></trkpt><trkpt lat="42.19093219873182" lon="13.653206786136849"><ele>630.0</ele><time>2026-05-02T10:29:18Z</time></trkpt><trkpt lat="42.19080978850359" lon="13.65330757190277"><ele>630.0</ele><time>2026-05-02T10:29:19Z</time></trkpt><trkpt lat="42.19067652968273" lon="13.653386477262835"><ele>630.0</ele><time>2026-05-02T10:29:20Z</time></trkpt><trkpt lat="42.190537439308486" lon="13.653456455844537"><ele>630.0</ele><time>2026-05-02T10:29:21Z</time></trkpt><trkpt lat="42.19039472753585" lon="13.653525636593942"><ele>632.3333333333334</ele><time>2026-05-02T10:29:22Z</time></trkpt><trkpt lat="42.19024962486059" lon="13.653595025452633"><ele>634.6666666666667</ele><time>2026-05-02T10:29:23Z</time></trkpt><trkpt lat="42.19010089346424" lon="13.653652122905223"><ele>637.0</ele><time>2026-05-02T10:29:24Z</time></trkpt><trkpt lat="42.18995959730471" lon="13.653703421086346"><ele>640.0</ele><time>2026-05-02T10:29:25Z</time></trkpt><trkpt lat="42.18983955145741" lon="13.653758667559948"><ele>643.0</ele><time>2026-05-02T10:29:26Z</time></trkpt><trkpt lat="42.18974641292128" lon="13.653824020996646"><ele>646.0</ele><time>2026-05-02T10:29:27Z</time></trkpt><trkpt lat="42.18968138300774" lon="13.65388669578051"><ele>649.0</ele><time>2026-05-02T10:29:28Z</time></trkpt><trkpt lat="42.18967009159502" lon="13.654016048482573"><ele>652.0</ele><time>2026-05-02T10:29:29Z</time></trkpt><trkpt lat="42.18968380722527" lon="13.654150083521461"><ele>652.0</ele><time>2026-05-02T10:29:30Z</time></trkpt><trkpt lat="42.1897263775968" lon="13.654280136344235"><ele>652.0</ele><time>2026-05-02T10:29:31Z</time></trkpt><trkpt lat="42.189780642699105" lon="13.654423612568749"><ele>652.0</ele><time>2026-05-02T10:29:32Z</time></trkpt><trkpt lat="42.18983326140414" lon="13.654576505065696"><ele>652.0</ele><time>2026-05-02T10:29:33Z</time></trkpt><trkpt lat="42.189883847393844" lon="13.65472240997113"><ele>650.2</ele><time>2026-05-02T10:29:34Z</time></trkpt><trkpt lat="42.1899312744313" lon="13.654851920872686"><ele>648.4000000000001</ele><time>2026-05-02T10:29:35Z</time></trkpt><trkpt lat="42.189970158315546" lon="13.654971409099554"><ele>646.5999999999999</ele><time>2026-05-02T10:29:36Z</time></trkpt><trkpt lat="42.189978933841694" lon="13.655087150190662"><ele>644.8</ele><time>2026-05-02T10:29:37Z</time></trkpt><trkpt lat="42.1899356337643" lon="13.655187816891669"><ele>643.0</ele><time>2026-05-02T10:29:38Z</time></trkpt><trkpt lat="42.189862460302045" lon="13.655257380176334"><ele>645.25</ele><time>2026-05-02T10:29:39Z</time></trkpt><trkpt lat="42.18976888741455" lon="13.655309359718608"><ele>647.5</ele><time>2026-05-02T10:29:40Z</time></trkpt><trkpt lat="42.189649359675954" lon="13.655359248559444"><ele>649.75</ele><time>2026-05-02T10:29:41Z</time></trkpt><trkpt lat="42.189518283097485" lon="13.655424572693866"><ele>652.0</ele><time>2026-05-02T10:29:42Z</time></trkpt><trkpt lat="42.189371986081326" lon="13.655509617864082"><ele>652.0</ele><time>2026-05-02T10:29:43Z</time></trkpt><trkpt lat="42.18921701945928" lon="13.655597420713429"><ele>652.0</ele><time>2026-05-02T10:29:44Z</time></trkpt><trkpt lat="42.18907322177931" lon="13.655675211339705"><ele>652.0</ele><time>2026-05-02T10:29:45Z</time></trkpt><trkpt lat="42.188918062231146" lon="13.655748416982497"><ele>654.3333333333334</ele><time>2026-05-02T10:29:46Z</time></trkpt><trkpt lat="42.18875854918954" lon="13.65581270356963"><ele>656.6666666666666</ele><time>2026-05-02T10:29:47Z</time></trkpt><trkpt lat="42.18860207938" lon="13.655870964286414"><ele>659.0</ele><time>2026-05-02T10:29:48Z</time></trkpt><trkpt lat="42.18845844847764" lon="13.655927625795623"><ele>659.0</ele><time>2026-05-02T10:29:49Z</time></trkpt><trkpt lat="42.18832898926842" lon="13.6559832981619"><ele>659.0</ele><time>2026-05-02T10:29:50Z</time></trkpt><trkpt lat="42.188230852589825" lon="13.656034406690964"><ele>659.0</ele><time>2026-05-02T10:29:51Z</time></trkpt><trkpt lat="42.18816984571098" lon="13.656092900677876"><ele>659.0</ele><time>2026-05-02T10:29:52Z</time></trkpt><trkpt lat="42.18814049554228" lon="13.656254158230675"><ele>659.0</ele><time>2026-05-02T10:29:54Z</time></trkpt><trkpt lat="42.18818633308016" lon="13.65633358547111"><ele>660.2</ele><time>2026-05-02T10:29:55Z</time></trkpt><trkpt lat="42.18826453460282" lon="13.656371153869824"><ele>661.4000000000001</ele><time>2026-05-02T10:29:56Z</time></trkpt><trkpt lat="42.18836119194336" lon="13.656369575197218"><ele>662.6</ele><time>2026-05-02T10:29:57Z</time></trkpt><trkpt lat="42.18847710308871" lon="13.656353482413166"><ele>663.8</ele><time>2026-05-02T10:29:58Z</time></trkpt><trkpt lat="42.18861217613743" lon="13.656341124798281"><ele>665.0</ele><time>2026-05-02T10:29:59Z</time></trkpt><trkpt lat="42.188761168470364" lon="13.656331402305321"><ele>665.0</ele><time>2026-05-02T10:30:00Z</time></trkpt><trkpt lat="42.188911955116595" lon="13.65631419970468"><ele>665.0</ele><time>2026-05-02T10:30:01Z</time></trkpt><trkpt lat="42.18905630256646" lon="13.656294325892707"><ele>665.0</ele><time>2026-05-02T10:30:02Z</time></trkpt><trkpt lat="42.1891863874536" lon="13.656277082470586"><ele>665.0</ele><time>2026-05-02T10:30:03Z</time></trkpt><trkpt lat="42.18929954618389" lon="13.656264065479535"><ele>664.2857142857143</ele><time>2026-05-02T10:30:04Z</time></trkpt><trkpt lat="42.18939314794835" lon="13.656265715101867"><ele>663.5714285714286</ele><time>2026-05-02T10:30:05Z</time></trkpt><trkpt lat="42.18946578236594" lon="13.656302662652752"><ele>662.8571428571429</ele><time>2026-05-02T10:30:06Z</time></trkpt><trkpt lat="42.18949369654731" lon="13.656383901681062"><ele>662.1428571428571</ele><time>2026-05-02T10:30:07Z</time></trkpt><trkpt lat="42.18949339536196" lon="13.65647370623442"><ele>661.4285714285714</ele><time>2026-05-02T10:30:08Z</time></trkpt><trkpt lat="42.18944342842624" lon="13.656538287401238"><ele>660.7142857142858</ele><time>2026-05-02T10:30:09Z</time></trkpt><trkpt lat="42.189370849219884" lon="13.65656449197994"><ele>660.0</ele><time>2026-05-02T10:30:10Z</time></trkpt><trkpt lat="42.18928207850188" lon="13.656525116816573"><ele>660.0</ele><time>2026-05-02T10:30:11Z</time></trkpt><trkpt lat="42.18917500837515" lon="13.656546502200039"><ele>660.0</ele><time>2026-05-02T10:30:12Z</time></trkpt><trkpt lat="42.189043372798196" lon="13.656543839992247"><ele>660.0</ele><time>2026-05-02T10:30:13Z</time></trkpt><trkpt lat="42.188899843065364" lon="13.656544603180588"><ele>660.0</ele><time>2026-05-02T10:30:14Z</time></trkpt><trkpt lat="42.18874677401822" lon="13.656550044152208"><ele>661.6666666666666</ele><time>2026-05-02T10:30:15Z</time></trkpt><trkpt lat="42.1885843867637" lon="13.656554931165955"><ele>663.3333333333333</ele><time>2026-05-02T10:30:16Z</time></trkpt><trkpt lat="42.188416961542565" lon="13.656561945162927"><ele>665.0</ele><time>2026-05-02T10:30:17Z</time></trkpt><trkpt lat="42.188254880314034" lon="13.656575943190399"><ele>666.3333333333333</ele><time>2026-05-02T10:30:18Z</time></trkpt><trkpt lat="42.18808546121313" lon="13.65659255666133"><ele>667.6666666666666</ele><time>2026-05-02T10:30:19Z</time></trkpt><trkpt lat="42.187913409472884" lon="13.65661484058067"><ele>669.0</ele><time>2026-05-02T10:30:20Z</time></trkpt><trkpt lat="42.18773905833626" lon="13.656647956524665"><ele>669.0</ele><time>2026-05-02T10:30:21Z</time></trkpt><trkpt lat="42.18756703041099" lon="13.65669050319576"><ele>669.0</ele><time>2026-05-02T10:30:22Z</time></trkpt><trkpt lat="42.18739487152065" lon="13.65673263890346"><ele>669.0</ele><time>2026-05-02T10:30:23Z</time></trkpt><trkpt lat="42.187225052418455" lon="13.656774597327516"><ele>671.3333333333334</ele><time>2026-05-02T10:30:24Z</time></trkpt><trkpt lat="42.18705486583272" lon="13.65681510285754"><ele>673.6666666666667</ele><time>2026-05-02T10:30:25Z</time></trkpt><trkpt lat="42.18688493781729" lon="13.656854186888118"><ele>676.0</ele><time>2026-05-02T10:30:26Z</time></trkpt><trkpt lat="42.18671637817653" lon="13.65689784473271"><ele>676.0</ele><time>2026-05-02T10:30:27Z</time></trkpt><trkpt lat="42.18654611546685" lon="13.65694185528016"><ele>676.0</ele><time>2026-05-02T10:30:28Z</time></trkpt><trkpt lat="42.186373359399845" lon="13.656983601605274"><ele>676.0</ele><time>2026-05-02T10:30:29Z</time></trkpt><trkpt lat="42.18620059359681" lon="13.65702518987566"><ele>680.6666666666667</ele><time>2026-05-02T10:30:30Z</time></trkpt><trkpt lat="42.18602606751138" lon="13.657069942934996"><ele>685.3333333333334</ele><time>2026-05-02T10:30:31Z</time></trkpt><trkpt lat="42.18585133080414" lon="13.657114305163132"><ele>690.0</ele><time>2026-05-02T10:30:32Z</time></trkpt><trkpt lat="42.18567683343592" lon="13.657156561820011"><ele>690.0</ele><time>2026-05-02T10:30:33Z</time></trkpt><trkpt lat="42.18550715327371" lon="13.657198070326958"><ele>690.0</ele><time>2026-05-02T10:30:34Z</time></trkpt><trkpt lat="42.185347765983764" lon="13.657254275397689"><ele>690.0</ele><time>2026-05-02T10:30:35Z</time></trkpt><trkpt lat="42.18521013656434" lon="13.657329599561516"><ele>690.0</ele><time>2026-05-02T10:30:36Z</time></trkpt><trkpt lat="42.18508014129731" lon="13.65743280278977"><ele>690.0</ele><time>2026-05-02T10:30:37Z</time></trkpt><trkpt lat="42.18495938553481" lon="13.657557598641448"><ele>690.0</ele><time>2026-05-02T10:30:38Z</time></trkpt><trkpt lat="42.184839146639135" lon="13.657690519483431"><ele>688.6666666666666</ele><time>2026-05-02T10:30:39Z</time></trkpt><trkpt lat="42.184720859375915" lon="13.657821711596942"><ele>687.3333333333333</ele><time>2026-05-02T10:30:40Z</time></trkpt><trkpt lat="42.18460158394527" lon="13.657954059464398"><ele>686.0</ele><time>2026-05-02T10:30:41Z</time></trkpt><trkpt lat="42.18448546879283" lon="13.658084135045147"><ele>686.0</ele><time>2026-05-02T10:30:42Z</time></trkpt><trkpt lat="42.18436792272328" lon="13.658210000203418"><ele>686.0</ele><time>2026-05-02T10:30:43Z</time></trkpt><trkpt lat="42.18424569544144" lon="13.658327472407972"><ele>686.0</ele><time>2026-05-02T10:30:44Z</time></trkpt><trkpt lat="42.184119967459104" lon="13.658433692431359"><ele>686.0</ele><time>2026-05-02T10:30:45Z</time></trkpt><trkpt lat="42.1839927899481" lon="13.658532482956335"><ele>684.75</ele><time>2026-05-02T10:30:46Z</time></trkpt><trkpt lat="42.18386116333504" lon="13.658623541630787"><ele>683.5</ele><time>2026-05-02T10:30:47Z</time></trkpt><trkpt lat="42.18372656360232" lon="13.658705189909194"><ele>682.25</ele><time>2026-05-02T10:30:48Z</time></trkpt><trkpt lat="42.18358907366561" lon="13.658780577154074"><ele>681.0</ele><time>2026-05-02T10:30:49Z</time></trkpt><trkpt lat="42.183449505858526" lon="13.658855900086513"><ele>681.0</ele><time>2026-05-02T10:30:50Z</time></trkpt><trkpt lat="42.18330641800795" lon="13.658935503922939"><ele>681.0</ele><time>2026-05-02T10:30:51Z</time></trkpt><trkpt lat="42.18315923390778" lon="13.659015563236778"><ele>681.0</ele><time>2026-05-02T10:30:52Z</time></trkpt><trkpt lat="42.18300738057199" lon="13.65909286240644"><ele>683.3333333333334</ele><time>2026-05-02T10:30:53Z</time></trkpt><trkpt lat="42.182853399841505" lon="13.659171016027683"><ele>685.6666666666667</ele><time>2026-05-02T10:30:54Z</time></trkpt><trkpt lat="42.18270111260469" lon="13.659253711116417"><ele>688.0</ele><time>2026-05-02T10:30:55Z</time></trkpt><trkpt lat="42.18254899809265" lon="13.659333899144913"><ele>688.0</ele><time>2026-05-02T10:30:56Z</time></trkpt><trkpt lat="42.18239814246927" lon="13.659418868307627"><ele>688.0</ele><time>2026-05-02T10:30:57Z</time></trkpt><trkpt lat="42.18225102363339" lon="13.659512102506216"><ele>688.0</ele><time>2026-05-02T10:30:58Z</time></trkpt><trkpt lat="42.182111040067355" lon="13.659616790505202"><ele>687.0</ele><time>2026-05-02T10:30:59Z</time></trkpt><trkpt lat="42.18197744657403" lon="13.659734294826421"><ele>686.0</ele><time>2026-05-02T10:31:00Z</time></trkpt><trkpt lat="42.18185028872768" lon="13.659864299093222"><ele>685.0</ele><time>2026-05-02T10:31:01Z</time></trkpt><trkpt lat="42.18172261114758" lon="13.660004763050765"><ele>685.0</ele><time>2026-05-02T10:31:02Z</time></trkpt><trkpt lat="42.181594414777045" lon="13.660149310231231"><ele>685.0</ele><time>2026-05-02T10:31:03Z</time></trkpt><trkpt lat="42.18146833615969" lon="13.660297149016221"><ele>685.0</ele><time>2026-05-02T10:31:04Z</time></trkpt><trkpt lat="42.18134428461979" lon="13.660445488671192"><ele>686.3333333333334</ele><time>2026-05-02T10:31:05Z</time></trkpt><trkpt lat="42.18122164941295" lon="13.660596231862934"><ele>687.6666666666666</ele><time>2026-05-02T10:31:06Z</time></trkpt><trkpt lat="42.18110419826455" lon="13.660749727083575"><ele>689.0</ele><time>2026-05-02T10:31:07Z</time></trkpt><trkpt lat="42.18099288363515" lon="13.660908427373569"><ele>689.0</ele><time>2026-05-02T10:31:08Z</time></trkpt><trkpt lat="42.1808948653939" lon="13.66106021927435"><ele>689.0</ele><time>2026-05-02T10:31:09Z</time></trkpt><trkpt lat="42.18080149531863" lon="13.661204130387583"><ele>689.0</ele><time>2026-05-02T10:31:10Z</time></trkpt><trkpt lat="42.18070780119621" lon="13.66133648098341"><ele>689.0</ele><time>2026-05-02T10:31:11Z</time></trkpt><trkpt lat="42.18060906512795" lon="13.661460180033087"><ele>689.25</ele><time>2026-05-02T10:31:12Z</time></trkpt><trkpt lat="42.18050069212469" lon="13.661576511156719"><ele>689.5</ele><time>2026-05-02T10:31:13Z</time></trkpt><trkpt lat="42.180386914207865" lon="13.661689057726923"><ele>689.75</ele><time>2026-05-02T10:31:14Z</time></trkpt><trkpt lat="42.180267882288184" lon="13.661802233743803"><ele>690.0</ele><time>2026-05-02T10:31:15Z</time></trkpt><trkpt lat="42.180144520149" lon="13.661916692677613"><ele>688.6666666666666</ele><time>2026-05-02T10:31:16Z</time></trkpt><trkpt lat="42.18002208669045" lon="13.662042134192873"><ele>687.3333333333333</ele><time>2026-05-02T10:31:17Z</time></trkpt><trkpt lat="42.179891435631376" lon="13.662157419143547"><ele>686.0</ele><time>2026-05-02T10:31:18Z</time></trkpt><trkpt lat="42.179773176858646" lon="13.662296289622413"><ele>686.0</ele><time>2026-05-02T10:31:19Z</time></trkpt><trkpt lat="42.179667901483626" lon="13.662456833934996"><ele>686.0</ele><time>2026-05-02T10:31:20Z</time></trkpt><trkpt lat="42.17955311706216" lon="13.662606903258688"><ele>686.0</ele><time>2026-05-02T10:31:21Z</time></trkpt><trkpt lat="42.17944134514637" lon="13.662757860128924"><ele>686.3333333333333</ele><time>2026-05-02T10:31:22Z</time></trkpt><trkpt lat="42.17933067576093" lon="13.662910608884154"><ele>686.6666666666666</ele><time>2026-05-02T10:31:23Z</time></trkpt><trkpt lat="42.17922446708752" lon="13.66305782857415"><ele>687.0</ele><time>2026-05-02T10:31:24Z</time></trkpt><trkpt lat="42.1791222508832" lon="13.663203790621305"><ele>687.0</ele><time>2026-05-02T10:31:25Z</time></trkpt><trkpt lat="42.17902362898284" lon="13.663345380231192"><ele>687.0</ele><time>2026-05-02T10:31:26Z</time></trkpt><trkpt lat="42.17892226685755" lon="13.663475935692926"><ele>687.0</ele><time>2026-05-02T10:31:27Z</time></trkpt><trkpt lat="42.178815145175385" lon="13.663593971185445"><ele>687.0</ele><time>2026-05-02T10:31:28Z</time></trkpt><trkpt lat="42.17870721918772" lon="13.663711207657311"><ele>689.3333333333334</ele><time>2026-05-02T10:31:29Z</time></trkpt><trkpt lat="42.17859489354677" lon="13.663837798774955"><ele>691.6666666666667</ele><time>2026-05-02T10:31:30Z</time></trkpt><trkpt lat="42.17846893230613" lon="13.663959968058535"><ele>694.0</ele><time>2026-05-02T10:31:31Z</time></trkpt><trkpt lat="42.17833366654284" lon="13.664071694275451"><ele>694.0</ele><time>2026-05-02T10:31:32Z</time></trkpt><trkpt lat="42.17819365178521" lon="13.664173416853052"><ele>694.0</ele><time>2026-05-02T10:31:33Z</time></trkpt><trkpt lat="42.17805896200383" lon="13.664269902671045"><ele>694.0</ele><time>2026-05-02T10:31:34Z</time></trkpt><trkpt lat="42.17792838212849" lon="13.664364056492495"><ele>696.0</ele><time>2026-05-02T10:31:35Z</time></trkpt><trkpt lat="42.17780335613413" lon="13.664458101173896"><ele>698.0</ele><time>2026-05-02T10:31:36Z</time></trkpt><trkpt lat="42.17768223784866" lon="13.664551703093107"><ele>700.0</ele><time>2026-05-02T10:31:37Z</time></trkpt><trkpt lat="42.17756486767363" lon="13.664646207709126"><ele>702.0</ele><time>2026-05-02T10:31:38Z</time></trkpt><trkpt lat="42.177452009349516" lon="13.664744918038854"><ele>704.25</ele><time>2026-05-02T10:31:39Z</time></trkpt><trkpt lat="42.1773449786687" lon="13.664853487721482"><ele>706.5</ele><time>2026-05-02T10:31:40Z</time></trkpt><trkpt lat="42.17724089713145" lon="13.664971255245282"><ele>708.75</ele><time>2026-05-02T10:31:41Z</time></trkpt><trkpt lat="42.17714639527999" lon="13.665098408427871"><ele>711.0</ele><time>2026-05-02T10:31:42Z</time></trkpt><trkpt lat="42.177064857298184" lon="13.665223599866742"><ele>711.75</ele><time>2026-05-02T10:31:43Z</time></trkpt><trkpt lat="42.17698276221274" lon="13.665341535757454"><ele>712.5</ele><time>2026-05-02T10:31:44Z</time></trkpt><trkpt lat="42.1768943267657" lon="13.66545387109026"><ele>713.25</ele><time>2026-05-02T10:31:45Z</time></trkpt><trkpt lat="42.17679936766153" lon="13.665560126453903"><ele>714.0</ele><time>2026-05-02T10:31:46Z</time></trkpt><trkpt lat="42.17669908122402" lon="13.665662941232542"><ele>714.0</ele><time>2026-05-02T10:31:47Z</time></trkpt><trkpt lat="42.17659797299444" lon="13.665770796198471"><ele>714.0</ele><time>2026-05-02T10:31:48Z</time></trkpt><trkpt lat="42.17650522420951" lon="13.665873383225879"><ele>714.0</ele><time>2026-05-02T10:31:49Z</time></trkpt><trkpt lat="42.17642522269836" lon="13.665956278097925"><ele>714.0</ele><time>2026-05-02T10:31:50Z</time></trkpt><trkpt lat="42.17635250895327" lon="13.666030392452805"><ele>714.0</ele><time>2026-05-02T10:31:51Z</time></trkpt><trkpt lat="42.17627901096107" lon="13.66608489309197"><ele>717.25</ele><time>2026-05-02T10:31:52Z</time></trkpt><trkpt lat="42.17611307167856" lon="13.666098747865576"><ele>720.5</ele><time>2026-05-02T10:31:54Z</time></trkpt><trkpt lat="42.1760189585708" lon="13.666064376490917"><ele>723.75</ele><time>2026-05-02T10:31:55Z</time></trkpt><trkpt lat="42.175914556013964" lon="13.666023259241735"><ele>727.0</ele><time>2026-05-02T10:31:56Z</time></trkpt><trkpt lat="42.17580164077347" lon="13.665986264655903"><ele>727.0</ele><time>2026-05-02T10:31:57Z</time></trkpt><trkpt lat="42.175691286503614" lon="13.665927527375233"><ele>727.0</ele><time>2026-05-02T10:31:58Z</time></trkpt><trkpt lat="42.175576018228504" lon="13.665887357047215"><ele>727.0</ele><time>2026-05-02T10:31:59Z</time></trkpt><trkpt lat="42.175463618146125" lon="13.66583270124827"><ele>727.0</ele><time>2026-05-02T10:32:00Z</time></trkpt><trkpt lat="42.1753563738941" lon="13.665764111640646"><ele>729.25</ele><time>2026-05-02T10:32:01Z</time></trkpt><trkpt lat="42.17524041520818" lon="13.665710597065841"><ele>731.5</ele><time>2026-05-02T10:32:02Z</time></trkpt><trkpt lat="42.17513160302968" lon="13.665615041622198"><ele>733.75</ele><time>2026-05-02T10:32:03Z</time></trkpt><trkpt lat="42.17500513038606" lon="13.665531639223174"><ele>736.0</ele><time>2026-05-02T10:32:04Z</time></trkpt><trkpt lat="42.17487589893692" lon="13.665446725389767"><ele>738.25</ele><time>2026-05-02T10:32:05Z</time></trkpt><trkpt lat="42.17474306839246" lon="13.665360610426143"><ele>740.5</ele><time>2026-05-02T10:32:06Z</time></trkpt><trkpt lat="42.17460392082038" lon="13.665292386713231"><ele>742.75</ele><time>2026-05-02T10:32:07Z</time></trkpt><trkpt lat="42.1744729226162" lon="13.66520668991691"><ele>745.0</ele><time>2026-05-02T10:32:08Z</time></trkpt><trkpt lat="42.17435266763971" lon="13.665098879552744"><ele>746.0</ele><time>2026-05-02T10:32:09Z</time></trkpt><trkpt lat="42.17422841267457" lon="13.66501350711629"><ele>747.0</ele><time>2026-05-02T10:32:10Z</time></trkpt><trkpt lat="42.17410677231802" lon="13.664931036447333"><ele>748.0</ele><time>2026-05-02T10:32:11Z</time></trkpt><trkpt lat="42.17398149393271" lon="13.66486813983053"><ele>749.0</ele><time>2026-05-02T10:32:12Z</time></trkpt><trkpt lat="42.173864122180596" lon="13.664789896544324"><ele>752.75</ele><time>2026-05-02T10:32:13Z</time></trkpt><trkpt lat="42.17375384593689" lon="13.66469305213551"><ele>756.5</ele><time>2026-05-02T10:32:14Z</time></trkpt><trkpt lat="42.173636723435145" lon="13.664614751715375"><ele>760.25</ele><time>2026-05-02T10:32:15Z</time></trkpt><trkpt lat="42.17351985969365" lon="13.664538783137987"><ele>764.0</ele><time>2026-05-02T10:32:16Z</time></trkpt><trkpt lat="42.17340326321526" lon="13.66446590360637"><ele>765.0</ele><time>2026-05-02T10:32:17Z</time></trkpt><trkpt lat="42.17328860166597" lon="13.664391396790277"><ele>766.0</ele><time>2026-05-02T10:32:18Z</time></trkpt><trkpt lat="42.17317553990702" lon="13.664312887867503"><ele>767.0</ele><time>2026-05-02T10:32:19Z</time></trkpt><trkpt lat="42.17306497952473" lon="13.664228350401702"><ele>768.0</ele><time>2026-05-02T10:32:20Z</time></trkpt><trkpt lat="42.172957505362476" lon="13.664137036360051"><ele>770.5</ele><time>2026-05-02T10:32:21Z</time></trkpt><trkpt lat="42.17285083465509" lon="13.664040685859113"><ele>773.0</ele><time>2026-05-02T10:32:22Z</time></trkpt><trkpt lat="42.17274687158995" lon="13.663942270402368"><ele>775.5</ele><time>2026-05-02T10:32:23Z</time></trkpt><trkpt lat="42.17264321003464" lon="13.663844248698263"><ele>778.0</ele><time>2026-05-02T10:32:24Z</time></trkpt><trkpt lat="42.172541136743476" lon="13.663746795523153"><ele>778.0</ele><time>2026-05-02T10:32:25Z</time></trkpt><trkpt lat="42.172442355769505" lon="13.663641737992771"><ele>778.0</ele><time>2026-05-02T10:32:26Z</time></trkpt><trkpt lat="42.172353337600114" lon="13.663537174879052"><ele>778.0</ele><time>2026-05-02T10:32:27Z</time></trkpt><trkpt lat="42.17227444642194" lon="13.663433519154193"><ele>778.0</ele><time>2026-05-02T10:32:28Z</time></trkpt><trkpt lat="42.17221393851677" lon="13.663321438554018"><ele>780.75</ele><time>2026-05-02T10:32:29Z</time></trkpt><trkpt lat="42.17216291379576" lon="13.66319731828748"><ele>783.5</ele><time>2026-05-02T10:32:30Z</time></trkpt><trkpt lat="42.172097232825635" lon="13.66305796989409"><ele>786.25</ele><time>2026-05-02T10:32:31Z</time></trkpt><trkpt lat="42.172040792383335" lon="13.662896581306674"><ele>789.0</ele><time>2026-05-02T10:32:32Z</time></trkpt><trkpt lat="42.17197727013911" lon="13.662732992528264"><ele>789.75</ele><time>2026-05-02T10:32:33Z</time></trkpt><trkpt lat="42.17190499474175" lon="13.662573991656918"><ele>790.5</ele><time>2026-05-02T10:32:34Z</time></trkpt><trkpt lat="42.17183106315107" lon="13.662416592943663"><ele>791.25</ele><time>2026-05-02T10:32:35Z</time></trkpt><trkpt lat="42.171759970577604" lon="13.662261511122097"><ele>792.0</ele><time>2026-05-02T10:32:36Z</time></trkpt><trkpt lat="42.17168619421432" lon="13.66211262514615"><ele>792.0</ele><time>2026-05-02T10:32:37Z</time></trkpt><trkpt lat="42.17163028889794" lon="13.661951015271994"><ele>792.0</ele><time>2026-05-02T10:32:38Z</time></trkpt><trkpt lat="42.17156150779943" lon="13.661804051894952"><ele>792.0</ele><time>2026-05-02T10:32:39Z</time></trkpt><trkpt lat="42.1714961632305" lon="13.661659774815865"><ele>792.0</ele><time>2026-05-02T10:32:40Z</time></trkpt><trkpt lat="42.17142534858699" lon="13.661530920463361"><ele>797.4000000000001</ele><time>2026-05-02T10:32:41Z</time></trkpt><trkpt lat="42.171369382514584" lon="13.661407266161403"><ele>802.8000000000001</ele><time>2026-05-02T10:32:42Z</time></trkpt><trkpt lat="42.17133461873726" lon="13.661286943694552"><ele>808.2</ele><time>2026-05-02T10:32:43Z</time></trkpt><trkpt lat="42.171273719285296" lon="13.66118954962352"><ele>813.6</ele><time>2026-05-02T10:32:44Z</time></trkpt><trkpt lat="42.1712302943002" lon="13.661075571659412"><ele>819.0</ele><time>2026-05-02T10:32:45Z</time></trkpt><trkpt lat="42.17117128304282" lon="13.66098423235423"><ele>819.0</ele><time>2026-05-02T10:32:46Z</time></trkpt><trkpt lat="42.17108215532124" lon="13.660911347860768"><ele>819.0</ele><time>2026-05-02T10:32:47Z</time></trkpt><trkpt lat="42.17098396340063" lon="13.660823036288319"><ele>819.0</ele><time>2026-05-02T10:32:48Z</time></trkpt><trkpt lat="42.170852285720585" lon="13.660778554506123"><ele>819.0</ele><time>2026-05-02T10:32:49Z</time></trkpt><trkpt lat="42.170720355936574" lon="13.660732835475645"><ele>823.75</ele><time>2026-05-02T10:32:50Z</time></trkpt><trkpt lat="42.17058375686524" lon="13.66068527843444"><ele>828.5</ele><time>2026-05-02T10:32:51Z</time></trkpt><trkpt lat="42.170447941455734" lon="13.660633967739143"><ele>833.25</ele><time>2026-05-02T10:32:52Z</time></trkpt><trkpt lat="42.17031663604284" lon="13.660575681209991"><ele>838.0</ele><time>2026-05-02T10:32:53Z</time></trkpt><trkpt lat="42.17018591471877" lon="13.660530657879992"><ele>838.0</ele><time>2026-05-02T10:32:54Z</time></trkpt><trkpt lat="42.17007556663789" lon="13.660461987155143"><ele>838.0</ele><time>2026-05-02T10:32:55Z</time></trkpt><trkpt lat="42.16996767974545" lon="13.660396893709896"><ele>838.0</ele><time>2026-05-02T10:32:56Z</time></trkpt><trkpt lat="42.1698747924823" lon="13.660332272470871"><ele>838.0</ele><time>2026-05-02T10:32:57Z</time></trkpt><trkpt lat="42.16978193866073" lon="13.66028118337885"><ele>838.0</ele><time>2026-05-02T10:32:58Z</time></trkpt><trkpt lat="42.16967975144997" lon="13.660264766234219"><ele>843.0</ele><time>2026-05-02T10:32:59Z</time></trkpt><trkpt lat="42.1695731451188" lon="13.660231300051782"><ele>848.0</ele><time>2026-05-02T10:33:00Z</time></trkpt><trkpt lat="42.169461906219176" lon="13.660229036676197"><ele>853.0</ele><time>2026-05-02T10:33:01Z</time></trkpt><trkpt lat="42.16935185209459" lon="13.66018188215352"><ele>858.0</ele><time>2026-05-02T10:33:02Z</time></trkpt><trkpt lat="42.169241852590595" lon="13.660135997163339"><ele>858.0</ele><time>2026-05-02T10:33:03Z</time></trkpt><trkpt lat="42.16913224635491" lon="13.66008820128563"><ele>858.0</ele><time>2026-05-02T10:33:04Z</time></trkpt><trkpt lat="42.16903111696457" lon="13.660015543873362"><ele>858.0</ele><time>2026-05-02T10:33:05Z</time></trkpt><trkpt lat="42.168935268443505" lon="13.659957691735551"><ele>858.0</ele><time>2026-05-02T10:33:06Z</time></trkpt><trkpt lat="42.16884886045737" lon="13.659901959499544"><ele>858.0</ele><time>2026-05-02T10:33:07Z</time></trkpt><trkpt lat="42.168755446650536" lon="13.659870812855251"><ele>861.5</ele><time>2026-05-02T10:33:08Z</time></trkpt><trkpt lat="42.168649303147674" lon="13.659913347298652"><ele>865.0</ele><time>2026-05-02T10:33:09Z</time></trkpt><trkpt lat="42.16855193329783" lon="13.65997550191467"><ele>868.5</ele><time>2026-05-02T10:33:10Z</time></trkpt><trkpt lat="42.168444932913225" lon="13.660039081789154"><ele>872.0</ele><time>2026-05-02T10:33:11Z</time></trkpt><trkpt lat="42.16832955849541" lon="13.660105977596832"><ele>872.0</ele><time>2026-05-02T10:33:12Z</time></trkpt><trkpt lat="42.16821454055628" lon="13.660176527191409"><ele>872.0</ele><time>2026-05-02T10:33:13Z</time></trkpt><trkpt lat="42.168101097514786" lon="13.66025628791377"><ele>872.0</ele><time>2026-05-02T10:33:14Z</time></trkpt><trkpt lat="42.167986433791434" lon="13.660353983162276"><ele>872.0</ele><time>2026-05-02T10:33:15Z</time></trkpt><trkpt lat="42.167878440332345" lon="13.660456628516974"><ele>875.25</ele><time>2026-05-02T10:33:16Z</time></trkpt><trkpt lat="42.16777055260717" lon="13.660559432534393"><ele>878.5</ele><time>2026-05-02T10:33:17Z</time></trkpt><trkpt lat="42.16766233411404" lon="13.660659885804932"><ele>881.75</ele><time>2026-05-02T10:33:18Z</time></trkpt><trkpt lat="42.167551059848634" lon="13.660758249726294"><ele>885.0</ele><time>2026-05-02T10:33:19Z</time></trkpt><trkpt lat="42.167437925503826" lon="13.660850534581357"><ele>887.75</ele><time>2026-05-02T10:33:20Z</time></trkpt><trkpt lat="42.16732493066652" lon="13.660924546099329"><ele>890.5</ele><time>2026-05-02T10:33:21Z</time></trkpt><trkpt lat="42.16721245451418" lon="13.660990118645355"><ele>893.25</ele><time>2026-05-02T10:33:22Z</time></trkpt><trkpt lat="42.16710068872201" lon="13.661060141169056"><ele>896.0</ele><time>2026-05-02T10:33:23Z</time></trkpt><trkpt lat="42.16699417735333" lon="13.66116008541758"><ele>896.0</ele><time>2026-05-02T10:33:24Z</time></trkpt><trkpt lat="42.16689684305609" lon="13.66126783337268"><ele>896.0</ele><time>2026-05-02T10:33:25Z</time></trkpt><trkpt lat="42.16680951455611" lon="13.661372840358384"><ele>896.0</ele><time>2026-05-02T10:33:26Z</time></trkpt><trkpt lat="42.16672465357683" lon="13.661476814946198"><ele>896.0</ele><time>2026-05-02T10:33:27Z</time></trkpt><trkpt lat="42.16664485030898" lon="13.66159583597272"><ele>896.0</ele><time>2026-05-02T10:33:28Z</time></trkpt><trkpt lat="42.1665759779509" lon="13.661729656593252"><ele>896.0</ele><time>2026-05-02T10:33:29Z</time></trkpt><trkpt lat="42.16650910836065" lon="13.661857302288592"><ele>896.0</ele><time>2026-05-02T10:33:30Z</time></trkpt><trkpt lat="42.166433607340586" lon="13.661977438991558"><ele>896.0</ele><time>2026-05-02T10:33:31Z</time></trkpt><trkpt lat="42.166346966952524" lon="13.662103016630587"><ele>897.25</ele><time>2026-05-02T10:33:32Z</time></trkpt><trkpt lat="42.166256613709685" lon="13.662239818568258"><ele>898.5</ele><time>2026-05-02T10:33:33.001Z</time></trkpt><trkpt lat="42.16617727660016" lon="13.662366684853382"><ele>899.75</ele><time>2026-05-02T10:33:34.001Z</time></trkpt><trkpt lat="42.16612152969686" lon="13.66245306739708"><ele>901.0</ele><time>2026-05-02T10:33:35.001Z</time></trkpt><trkpt lat="42.16604785989509" lon="13.662556189762785"><ele>900.9999999999999</ele><time>2026-05-02T10:33:37.001Z</time></trkpt><trkpt lat="42.16596532585199" lon="13.662525733892107"><ele>901.0</ele><time>2026-05-02T10:33:39.001Z</time></trkpt><trkpt lat="42.16590915000729" lon="13.662399488071742"><ele>901.0</ele><time>2026-05-02T10:33:41.001Z</time></trkpt><trkpt lat="42.165904760784464" lon="13.662300386736405"><ele>901.0</ele><time>2026-05-02T10:33:42.001Z</time></trkpt><trkpt lat="42.165911305684546" lon="13.662190345586172"><ele>900.9999999999999</ele><time>2026-05-02T10:33:43.001Z</time></trkpt><trkpt lat="42.16592590428425" lon="13.662059973724567"><ele>901.0</ele><time>2026-05-02T10:33:44.001Z</time></trkpt><trkpt lat="42.16595043323894" lon="13.661917455748712"><ele>902.1999999999999</ele><time>2026-05-02T10:33:45.001Z</time></trkpt><trkpt lat="42.165979248175404" lon="13.661807312174629"><ele>903.3999999999999</ele><time>2026-05-02T10:33:46.001Z</time></trkpt><trkpt lat="42.166005316564" lon="13.66172723276867"><ele>904.6</ele><time>2026-05-02T10:33:47Z</time></trkpt><trkpt lat="42.16603626484909" lon="13.661605109228924"><ele>905.8</ele><time>2026-05-02T10:33:49Z</time></trkpt><trkpt lat="42.16599339137293" lon="13.661715119778606"><ele>907.0</ele><time>2026-05-02T10:34:11Z</time></trkpt><trkpt lat="42.16595140464882" lon="13.661881072645993"><ele>905.9999999999999</ele><time>2026-05-02T10:34:13Z</time></trkpt><trkpt lat="42.16593203838798" lon="13.661975934554327"><ele>905.0</ele><time>2026-05-02T10:34:14Z</time></trkpt><trkpt lat="42.16591624172142" lon="13.662072937659579"><ele>904.0</ele><time>2026-05-02T10:34:15Z</time></trkpt><trkpt lat="42.16590662900283" lon="13.662168601689869"><ele>903.0</ele><time>2026-05-02T10:34:16Z</time></trkpt><trkpt lat="42.16590826036258" lon="13.662259418969391"><ele>901.9999999999999</ele><time>2026-05-02T10:34:17Z</time></trkpt><trkpt lat="42.165928300410215" lon="13.662412113703802"><ele>901.0</ele><time>2026-05-02T10:34:19Z</time></trkpt><trkpt lat="42.165944514585924" lon="13.662509693060281"><ele>901.0</ele><time>2026-05-02T10:34:21Z</time></trkpt><trkpt lat="42.16581194598024" lon="13.662464253273077"><ele>901.0</ele><time>2026-05-02T10:34:28Z</time></trkpt><trkpt lat="42.16565168931571" lon="13.662498863037095"><ele>901.0</ele><time>2026-05-02T10:34:29Z</time></trkpt><trkpt lat="42.1655794828236" lon="13.662503693457072"><ele>901.0</ele><time>2026-05-02T10:34:30Z</time></trkpt><trkpt lat="42.16564864322952" lon="13.662377674658734"><ele>916.0</ele><time>2026-05-02T10:34:31Z</time></trkpt><trkpt lat="42.165317955092355" lon="13.66292406365768"><ele>915.9999999999999</ele><time>2026-05-02T10:34:33Z</time></trkpt><trkpt lat="42.16523180648876" lon="13.662930967690702"><ele>916.0</ele><time>2026-05-02T10:34:34Z</time></trkpt><trkpt lat="42.16514905188835" lon="13.662936938004659"><ele>916.0</ele><time>2026-05-02T10:34:35Z</time></trkpt><trkpt lat="42.16507258352264" lon="13.662962100499298"><ele>916.0</ele><time>2026-05-02T10:34:36Z</time></trkpt><trkpt lat="42.164999206051846" lon="13.66300802628989"><ele>915.9999999999999</ele><time>2026-05-02T10:34:37Z</time></trkpt><trkpt lat="42.16491787670179" lon="13.663068309068256"><ele>916.0</ele><time>2026-05-02T10:34:38Z</time></trkpt><trkpt lat="42.16483350563804" lon="13.663134541136204"><ele>916.9999999999999</ele><time>2026-05-02T10:34:39Z</time></trkpt><trkpt lat="42.164752949753684" lon="13.663191451881023"><ele>918.0</ele><time>2026-05-02T10:34:40Z</time></trkpt><trkpt lat="42.1646789099419" lon="13.663223901287106"><ele>919.0</ele><time>2026-05-02T10:34:41Z</time></trkpt><trkpt lat="42.1646096999969" lon="13.663260094333229"><ele>920.0</ele><time>2026-05-02T10:34:42Z</time></trkpt><trkpt lat="42.16455405952347" lon="13.663317254041818"><ele>920.9999999999999</ele><time>2026-05-02T10:34:43Z</time></trkpt><trkpt lat="42.164505181944584" lon="13.663384524230239"><ele>922.0</ele><time>2026-05-02T10:34:44Z</time></trkpt><trkpt lat="42.16445236683229" lon="13.663460656929889"><ele>921.9999999999999</ele><time>2026-05-02T10:34:45Z</time></trkpt><trkpt lat="42.16439415749498" lon="13.663537519400252"><ele>922.0</ele><time>2026-05-02T10:34:46Z</time></trkpt><trkpt lat="42.16433043088745" lon="13.663613640376848"><ele>922.0</ele><time>2026-05-02T10:34:47Z</time></trkpt><trkpt lat="42.16426224867792" lon="13.66367940128564"><ele>922.0</ele><time>2026-05-02T10:34:48Z</time></trkpt><trkpt lat="42.164187181272446" lon="13.663737559435248"><ele>921.9999999999999</ele><time>2026-05-02T10:34:49Z</time></trkpt><trkpt lat="42.16410217617765" lon="13.663786533862465"><ele>922.0</ele><time>2026-05-02T10:34:50Z</time></trkpt><trkpt lat="42.16401740098572" lon="13.663844349159573"><ele>924.1666666666666</ele><time>2026-05-02T10:34:51Z</time></trkpt><trkpt lat="42.163945021143604" lon="13.663913690990908"><ele>926.3333333333333</ele><time>2026-05-02T10:34:52Z</time></trkpt><trkpt lat="42.16389573797037" lon="13.66399194876797"><ele>928.5</ele><time>2026-05-02T10:34:53Z</time></trkpt><trkpt lat="42.16384807248516" lon="13.664069308122057"><ele>930.6666666666667</ele><time>2026-05-02T10:34:54Z</time></trkpt><trkpt lat="42.163786986250386" lon="13.664132960425537"><ele>932.8333333333334</ele><time>2026-05-02T10:34:55Z</time></trkpt><trkpt lat="42.163709219770446" lon="13.664189423763341"><ele>935.0</ele><time>2026-05-02T10:34:56Z</time></trkpt><trkpt lat="42.163626905702856" lon="13.664243212146218"><ele>935.0000000000001</ele><time>2026-05-02T10:34:57Z</time></trkpt><trkpt lat="42.16355168615418" lon="13.66430054625897"><ele>935.0</ele><time>2026-05-02T10:34:58Z</time></trkpt><trkpt lat="42.16349300493552" lon="13.664357299368806"><ele>935.0</ele><time>2026-05-02T10:34:59Z</time></trkpt><trkpt lat="42.163444585260685" lon="13.66443510308597"><ele>935.0</ele><time>2026-05-02T10:35:00Z</time></trkpt><trkpt lat="42.16339518685122" lon="13.66452432907274"><ele>935.0000000000001</ele><time>2026-05-02T10:35:01Z</time></trkpt><trkpt lat="42.163338162483804" lon="13.664613544878604"><ele>935.0</ele><time>2026-05-02T10:35:02Z</time></trkpt><trkpt lat="42.16328020286369" lon="13.664685788270488"><ele>935.5000000000001</ele><time>2026-05-02T10:35:03Z</time></trkpt><trkpt lat="42.16322151812489" lon="13.664753128469425"><ele>936.0</ele><time>2026-05-02T10:35:04Z</time></trkpt><trkpt lat="42.16317569648094" lon="13.664823709177526"><ele>936.5</ele><time>2026-05-02T10:35:05Z</time></trkpt><trkpt lat="42.16313112956291" lon="13.664903599271666"><ele>937.0</ele><time>2026-05-02T10:35:06Z</time></trkpt><trkpt lat="42.16304919097829" lon="13.665012132221213"><ele>937.5000000000001</ele><time>2026-05-02T10:35:08Z</time></trkpt><trkpt lat="42.16299716916414" lon="13.665075404069533"><ele>938.0</ele><time>2026-05-02T10:35:09Z</time></trkpt><trkpt lat="42.162959253126324" lon="13.66514949524948"><ele>937.8333333333334</ele><time>2026-05-02T10:35:10Z</time></trkpt><trkpt lat="42.16293085647399" lon="13.665237947142861"><ele>937.6666666666667</ele><time>2026-05-02T10:35:11Z</time></trkpt><trkpt lat="42.162896334315725" lon="13.66533829759211"><ele>937.5</ele><time>2026-05-02T10:35:12Z</time></trkpt><trkpt lat="42.16284791168592" lon="13.665429673088687"><ele>937.3333333333333</ele><time>2026-05-02T10:35:13Z</time></trkpt><trkpt lat="42.16279345564531" lon="13.665517712987956"><ele>937.1666666666666</ele><time>2026-05-02T10:35:14Z</time></trkpt><trkpt lat="42.162746025422976" lon="13.665624037166722"><ele>937.0</ele><time>2026-05-02T10:35:15Z</time></trkpt><trkpt lat="42.16270342540588" lon="13.665743305578914"><ele>936.9999999999999</ele><time>2026-05-02T10:35:16Z</time></trkpt><trkpt lat="42.1626621599472" lon="13.665859207165438"><ele>937.0</ele><time>2026-05-02T10:35:17Z</time></trkpt><trkpt lat="42.16262466513867" lon="13.665957506689562"><ele>937.0</ele><time>2026-05-02T10:35:18Z</time></trkpt><trkpt lat="42.16258668406121" lon="13.666027289557173"><ele>937.0</ele><time>2026-05-02T10:35:19Z</time></trkpt><trkpt lat="42.16249510480078" lon="13.666128302984026"><ele>936.9999999999999</ele><time>2026-05-02T10:35:21Z</time></trkpt><trkpt lat="42.16243195833968" lon="13.666176661482988"><ele>937.0</ele><time>2026-05-02T10:35:22Z</time></trkpt><trkpt lat="42.16236301419926" lon="13.666229496203698"><ele>938.8333333333333</ele><time>2026-05-02T10:35:23Z</time></trkpt><trkpt lat="42.16229279326815" lon="13.666281231134505"><ele>940.6666666666666</ele><time>2026-05-02T10:35:24Z</time></trkpt><trkpt lat="42.16222040773697" lon="13.666323055608869"><ele>942.5</ele><time>2026-05-02T10:35:25Z</time></trkpt><trkpt lat="42.162143557750866" lon="13.666355085205025"><ele>944.3333333333333</ele><time>2026-05-02T10:35:26Z</time></trkpt><trkpt lat="42.16206478390555" lon="13.666383349993726"><ele>946.1666666666666</ele><time>2026-05-02T10:35:27Z</time></trkpt><trkpt lat="42.16198536294253" lon="13.666433241776048"><ele>948.0</ele><time>2026-05-02T10:35:28Z</time></trkpt><trkpt lat="42.1619003714492" lon="13.666499342933387"><ele>948.0</ele><time>2026-05-02T10:35:29Z</time></trkpt><trkpt lat="42.16181690707563" lon="13.66658004543161"><ele>948.0</ele><time>2026-05-02T10:35:30Z</time></trkpt><trkpt lat="42.161739896216815" lon="13.666667329268614"><ele>948.0</ele><time>2026-05-02T10:35:31Z</time></trkpt><trkpt lat="42.16166550743007" lon="13.66674092810207"><ele>948.0</ele><time>2026-05-02T10:35:32Z</time></trkpt><trkpt lat="42.161590953873464" lon="13.6668014849402"><ele>948.0</ele><time>2026-05-02T10:35:33Z</time></trkpt><trkpt lat="42.161506632773786" lon="13.66686927648719"><ele>949.4</ele><time>2026-05-02T10:35:34Z</time></trkpt><trkpt lat="42.16142170042393" lon="13.666940919094715"><ele>950.8</ele><time>2026-05-02T10:35:35Z</time></trkpt><trkpt lat="42.16132880545197" lon="13.667012315280264"><ele>952.2</ele><time>2026-05-02T10:35:36Z</time></trkpt><trkpt lat="42.161245364960735" lon="13.667081909845395"><ele>953.6</ele><time>2026-05-02T10:35:37Z</time></trkpt><trkpt lat="42.16116596896214" lon="13.66716902839811"><ele>955.0</ele><time>2026-05-02T10:35:38Z</time></trkpt><trkpt lat="42.161095838025844" lon="13.667264497556388"><ele>954.9999999999999</ele><time>2026-05-02T10:35:39.001Z</time></trkpt><trkpt lat="42.16103329913357" lon="13.667361031252021"><ele>955.0</ele><time>2026-05-02T10:35:40.001Z</time></trkpt><trkpt lat="42.1609631379624" lon="13.667454885860337"><ele>955.0</ele><time>2026-05-02T10:35:41.001Z</time></trkpt><trkpt lat="42.16089514409392" lon="13.667536230995111"><ele>955.0</ele><time>2026-05-02T10:35:42.001Z</time></trkpt><trkpt lat="42.16083163021069" lon="13.667614283076562"><ele>954.9999999999999</ele><time>2026-05-02T10:35:43.001Z</time></trkpt><trkpt lat="42.16077440539889" lon="13.667685606759377"><ele>955.0</ele><time>2026-05-02T10:35:44.001Z</time></trkpt><trkpt lat="42.1607213797686" lon="13.667736074846927"><ele>954.4</ele><time>2026-05-02T10:35:45Z</time></trkpt><trkpt lat="42.16063717064041" lon="13.667809449449885"><ele>953.8</ele><time>2026-05-02T10:35:47Z</time></trkpt><trkpt lat="42.16056505621834" lon="13.667851900969088"><ele>953.2</ele><time>2026-05-02T10:35:49Z</time></trkpt><trkpt lat="42.160483907641094" lon="13.667924961961694"><ele>952.6</ele><time>2026-05-02T10:35:51Z</time></trkpt><trkpt lat="42.16040948703122" lon="13.668009735218005"><ele>952.0</ele><time>2026-05-02T10:35:53Z</time></trkpt><trkpt lat="42.16032207663364" lon="13.668086260186634"><ele>951.9999999999999</ele><time>2026-05-02T10:35:55Z</time></trkpt><trkpt lat="42.16026522165284" lon="13.668139139991787"><ele>952.0</ele><time>2026-05-02T10:35:56Z</time></trkpt><trkpt lat="42.160215887070436" lon="13.668192549183134"><ele>952.0</ele><time>2026-05-02T10:35:57Z</time></trkpt><trkpt lat="42.16012879977751" lon="13.668307786767219"><ele>952.0</ele><time>2026-05-02T10:35:59Z</time></trkpt><trkpt lat="42.160082878394704" lon="13.66836981000328"><ele>951.9999999999999</ele><time>2026-05-02T10:36:00Z</time></trkpt><trkpt lat="42.15999142414212" lon="13.668478281313778"><ele>952.0</ele><time>2026-05-02T10:36:02Z</time></trkpt><trkpt lat="42.15989191044146" lon="13.66857617341023"><ele>949.8</ele><time>2026-05-02T10:36:04Z</time></trkpt><trkpt lat="42.15983698014834" lon="13.668619925352147"><ele>947.6</ele><time>2026-05-02T10:36:05Z</time></trkpt><trkpt lat="42.15973627918288" lon="13.668711183428698"><ele>945.3999999999999</ele><time>2026-05-02T10:36:07Z</time></trkpt><trkpt lat="42.15964033751652" lon="13.668806603379439"><ele>943.1999999999999</ele><time>2026-05-02T10:36:09Z</time></trkpt><trkpt lat="42.15955224550056" lon="13.668897351938844"><ele>941.0</ele><time>2026-05-02T10:36:11Z</time></trkpt><trkpt lat="42.15950504373175" lon="13.669004049817937"><ele>940.9999999999999</ele><time>2026-05-02T10:36:13Z</time></trkpt><trkpt lat="42.15950460847997" lon="13.669137119483892"><ele>941.0</ele><time>2026-05-02T10:36:15Z</time></trkpt><trkpt lat="42.15950714199799" lon="13.66922321185247"><ele>940.9999999999999</ele><time>2026-05-02T10:36:16Z</time></trkpt><trkpt lat="42.15951003664329" lon="13.669318950599035"><ele>940.9999999999999</ele><time>2026-05-02T10:36:17Z</time></trkpt><trkpt lat="42.159508517079615" lon="13.669404299796923"><ele>941.0</ele><time>2026-05-02T10:36:18Z</time></trkpt><trkpt lat="42.1594977418997" lon="13.66950250003989"><ele>940.9999999999999</ele><time>2026-05-02T10:36:19Z</time></trkpt><trkpt lat="42.1594818398097" lon="13.669596180671057"><ele>940.9999999999999</ele><time>2026-05-02T10:36:20Z</time></trkpt><trkpt lat="42.159469865390854" lon="13.669687415128791"><ele>939.5999999999999</ele><time>2026-05-02T10:36:21Z</time></trkpt><trkpt lat="42.159443464032954" lon="13.669829634964765"><ele>938.1999999999999</ele><time>2026-05-02T10:36:23Z</time></trkpt><trkpt lat="42.159393837866745" lon="13.669922461247586"><ele>936.8000000000001</ele><time>2026-05-02T10:36:25Z</time></trkpt><trkpt lat="42.159336596413986" lon="13.670026241227491"><ele>935.4000000000001</ele><time>2026-05-02T10:36:27Z</time></trkpt><trkpt lat="42.1592899112562" lon="13.67008367520691"><ele>934.0</ele><time>2026-05-02T10:36:28Z</time></trkpt><trkpt lat="42.15923183778355" lon="13.670220001878244"><ele>935.142857142857</ele><time>2026-05-02T10:36:30Z</time></trkpt><trkpt lat="42.15920722750168" lon="13.670307779244009"><ele>936.2857142857142</ele><time>2026-05-02T10:36:31Z</time></trkpt><trkpt lat="42.15918614643117" lon="13.670390652339973"><ele>937.4285714285714</ele><time>2026-05-02T10:36:32Z</time></trkpt><trkpt lat="42.15917121758057" lon="13.670473855437937"><ele>938.5714285714286</ele><time>2026-05-02T10:36:33Z</time></trkpt><trkpt lat="42.15916606816162" lon="13.67056030288117"><ele>939.7142857142858</ele><time>2026-05-02T10:36:34Z</time></trkpt><trkpt lat="42.15916555136412" lon="13.670654644802426"><ele>940.857142857143</ele><time>2026-05-02T10:36:35Z</time></trkpt><trkpt lat="42.15916450633479" lon="13.670747063218254"><ele>942.0000000000001</ele><time>2026-05-02T10:36:36Z</time></trkpt><trkpt lat="42.1591660536317" lon="13.670903025767236"><ele>942.0</ele><time>2026-05-02T10:36:38Z</time></trkpt><trkpt lat="42.159182900443994" lon="13.671077421691798"><ele>942.0</ele><time>2026-05-02T10:36:40Z</time></trkpt><trkpt lat="42.15918803527289" lon="13.671163241081052"><ele>942.0</ele><time>2026-05-02T10:36:41Z</time></trkpt><trkpt lat="42.15919592799992" lon="13.67133546388816"><ele>942.0</ele><time>2026-05-02T10:36:43Z</time></trkpt><trkpt lat="42.15920570502343" lon="13.6714288508853"><ele>942.0</ele><time>2026-05-02T10:36:44Z</time></trkpt><trkpt lat="42.159207409035226" lon="13.67151970098016"><ele>942.2</ele><time>2026-05-02T10:36:45Z</time></trkpt><trkpt lat="42.15921359906784" lon="13.67166312313391"><ele>942.4000000000001</ele><time>2026-05-02T10:36:47Z</time></trkpt><trkpt lat="42.159252713936354" lon="13.671800363709234"><ele>942.5999999999999</ele><time>2026-05-02T10:36:49Z</time></trkpt><trkpt lat="42.15931984893354" lon="13.67191618042303"><ele>942.8</ele><time>2026-05-02T10:36:51Z</time></trkpt><trkpt lat="42.15940529213375" lon="13.671973637583996"><ele>943.0</ele><time>2026-05-02T10:36:53Z</time></trkpt><trkpt lat="42.15950327070801" lon="13.672027540407882"><ele>941.8</ele><time>2026-05-02T10:36:55Z</time></trkpt><trkpt lat="42.15956796590291" lon="13.67211801297398"><ele>940.5999999999999</ele><time>2026-05-02T10:36:57Z</time></trkpt><trkpt lat="42.15959220210281" lon="13.67221145138032"><ele>939.4000000000001</ele><time>2026-05-02T10:36:59Z</time></trkpt><trkpt lat="42.159599523022386" lon="13.672346306431905"><ele>938.2</ele><time>2026-05-02T10:37:01Z</time></trkpt><trkpt lat="42.15962471548902" lon="13.67248199585143"><ele>937.0</ele><time>2026-05-02T10:37:03Z</time></trkpt><trkpt lat="42.15967481653372" lon="13.672646855054198"><ele>936.9999999999999</ele><time>2026-05-02T10:37:05Z</time></trkpt><trkpt lat="42.159703259923454" lon="13.672729559637597"><ele>937.0</ele><time>2026-05-02T10:37:06Z</time></trkpt><trkpt lat="42.15973623077766" lon="13.672819893916076"><ele>937.0</ele><time>2026-05-02T10:37:07Z</time></trkpt><trkpt lat="42.15976461521836" lon="13.672900435984873"><ele>937.0</ele><time>2026-05-02T10:37:08Z</time></trkpt><trkpt lat="42.15982382122166" lon="13.673048700880615"><ele>936.9999999999999</ele><time>2026-05-02T10:37:10Z</time></trkpt><trkpt lat="42.15985544153155" lon="13.67312396746617"><ele>937.0</ele><time>2026-05-02T10:37:11Z</time></trkpt><trkpt lat="42.159888598548775" lon="13.673200703250163"><ele>939.6</ele><time>2026-05-02T10:37:12Z</time></trkpt><trkpt lat="42.15995434096683" lon="13.673346985540134"><ele>942.2</ele><time>2026-05-02T10:37:14Z</time></trkpt><trkpt lat="42.16002342179941" lon="13.673486179008965"><ele>944.8</ele><time>2026-05-02T10:37:16Z</time></trkpt><trkpt lat="42.16004932077518" lon="13.673564964190598"><ele>947.4</ele><time>2026-05-02T10:37:17Z</time></trkpt><trkpt lat="42.160082397754394" lon="13.673648881065661"><ele>950.0</ele><time>2026-05-02T10:37:18Z</time></trkpt><trkpt lat="42.16011140919192" lon="13.67373392342666"><ele>950.0</ele><time>2026-05-02T10:37:19Z</time></trkpt><trkpt lat="42.16014194555813" lon="13.673815475910237"><ele>950.0000000000001</ele><time>2026-05-02T10:37:20Z</time></trkpt><trkpt lat="42.160173133236995" lon="13.67389473346531"><ele>950.0</ele><time>2026-05-02T10:37:21Z</time></trkpt><trkpt lat="42.16020214315104" lon="13.673977921489294"><ele>950.0</ele><time>2026-05-02T10:37:22Z</time></trkpt><trkpt lat="42.16023494731751" lon="13.674053980701604"><ele>950.0000000000001</ele><time>2026-05-02T10:37:23Z</time></trkpt><trkpt lat="42.16027003640019" lon="13.674135394665631"><ele>950.0</ele><time>2026-05-02T10:37:24Z</time></trkpt><trkpt lat="42.16030469193521" lon="13.67421300080107"><ele>950.0</ele><time>2026-05-02T10:37:25Z</time></trkpt><trkpt lat="42.16037711791967" lon="13.674332470653063"><ele>950.0</ele><time>2026-05-02T10:37:27Z</time></trkpt><trkpt lat="42.16048359491834" lon="13.674389528591238"><ele>950.0</ele><time>2026-05-02T10:37:29Z</time></trkpt><trkpt lat="42.16060346011173" lon="13.674428152236608"><ele>950.0</ele><time>2026-05-02T10:37:31Z</time></trkpt><trkpt lat="42.1606734467575" lon="13.674458136585683"><ele>950.0</ele><time>2026-05-02T10:37:32Z</time></trkpt><trkpt lat="42.160738692974846" lon="13.674507310394453"><ele>950.0</ele><time>2026-05-02T10:37:33Z</time></trkpt><trkpt lat="42.16079179023653" lon="13.674578458062536"><ele>951.8333333333334</ele><time>2026-05-02T10:37:34Z</time></trkpt><trkpt lat="42.16083790508932" lon="13.674658043482715"><ele>953.6666666666667</ele><time>2026-05-02T10:37:35Z</time></trkpt><trkpt lat="42.160878581582686" lon="13.674728474922988"><ele>955.5</ele><time>2026-05-02T10:37:36Z</time></trkpt><trkpt lat="42.16092526324946" lon="13.674806350922802"><ele>957.3333333333333</ele><time>2026-05-02T10:37:37Z</time></trkpt><trkpt lat="42.16097715234533" lon="13.674889698488935"><ele>959.1666666666666</ele><time>2026-05-02T10:37:38Z</time></trkpt><trkpt lat="42.16102964990203" lon="13.674973704476095"><ele>961.0</ele><time>2026-05-02T10:37:39Z</time></trkpt><trkpt lat="42.16108913021899" lon="13.675066399136353"><ele>960.9999999999999</ele><time>2026-05-02T10:37:40Z</time></trkpt><trkpt lat="42.161138017542015" lon="13.675156398660627"><ele>961.0</ele><time>2026-05-02T10:37:41Z</time></trkpt><trkpt lat="42.161184335799874" lon="13.675256468990728"><ele>961.0</ele><time>2026-05-02T10:37:42Z</time></trkpt><trkpt lat="42.16121634998767" lon="13.675344741100318"><ele>961.0</ele><time>2026-05-02T10:37:43Z</time></trkpt><trkpt lat="42.16125690144623" lon="13.675417680376444"><ele>960.9999999999999</ele><time>2026-05-02T10:37:44Z</time></trkpt><trkpt lat="42.16130247305791" lon="13.675494560397008"><ele>961.0</ele><time>2026-05-02T10:37:45Z</time></trkpt><trkpt lat="42.161346265540644" lon="13.67557605140321"><ele>962.0</ele><time>2026-05-02T10:37:46Z</time></trkpt><trkpt lat="42.161390032323816" lon="13.675668654342006"><ele>962.9999999999999</ele><time>2026-05-02T10:37:47Z</time></trkpt><trkpt lat="42.16143482967157" lon="13.675749485823971"><ele>964.0</ele><time>2026-05-02T10:37:48Z</time></trkpt><trkpt lat="42.16147714686156" lon="13.675830569864505"><ele>965.0</ele><time>2026-05-02T10:37:49Z</time></trkpt><trkpt lat="42.16151156138334" lon="13.675905950264948"><ele>965.9999999999999</ele><time>2026-05-02T10:37:50Z</time></trkpt><trkpt lat="42.16153486069718" lon="13.675988680850004"><ele>967.0</ele><time>2026-05-02T10:37:51Z</time></trkpt><trkpt lat="42.16155530493551" lon="13.67607862621601"><ele>968.0</ele><time>2026-05-02T10:37:52Z</time></trkpt><trkpt lat="42.16158125626359" lon="13.676165001346394"><ele>968.0</ele><time>2026-05-02T10:37:53Z</time></trkpt><trkpt lat="42.16161116575195" lon="13.676322011020744"><ele>968.0</ele><time>2026-05-02T10:37:55Z</time></trkpt><trkpt lat="42.161658918507435" lon="13.676484736032997"><ele>968.0</ele><time>2026-05-02T10:37:57Z</time></trkpt><trkpt lat="42.16168229736201" lon="13.676573045763996"><ele>968.0</ele><time>2026-05-02T10:37:58Z</time></trkpt><trkpt lat="42.16171635883796" lon="13.676703826552211"><ele>968.0</ele><time>2026-05-02T10:38:00Z</time></trkpt><trkpt lat="42.16175365154851" lon="13.676818829143341"><ele>968.0</ele><time>2026-05-02T10:38:02Z</time></trkpt><trkpt lat="42.16177309242687" lon="13.676922234663726"><ele>968.0</ele><time>2026-05-02T10:38:04Z</time></trkpt><trkpt lat="42.161783029139826" lon="13.6770450029249"><ele>968.0</ele><time>2026-05-02T10:38:06Z</time></trkpt><trkpt lat="42.16179246482015" lon="13.677197054619171"><ele>968.0</ele><time>2026-05-02T10:38:08Z</time></trkpt><trkpt lat="42.161809313846824" lon="13.677351527286527"><ele>968.0</ele><time>2026-05-02T10:38:10Z</time></trkpt><trkpt lat="42.161827685110026" lon="13.677512747290836"><ele>966.5999999999999</ele><time>2026-05-02T10:38:12Z</time></trkpt><trkpt lat="42.161838422542274" lon="13.677678226486632"><ele>965.1999999999999</ele><time>2026-05-02T10:38:14Z</time></trkpt><trkpt lat="42.16183938701295" lon="13.677766291351839"><ele>963.8</ele><time>2026-05-02T10:38:15Z</time></trkpt><trkpt lat="42.16184064279776" lon="13.677921670068462"><ele>962.4</ele><time>2026-05-02T10:38:17Z</time></trkpt><trkpt lat="42.161846840226936" lon="13.678092764531101"><ele>961.0</ele><time>2026-05-02T10:38:19Z</time></trkpt><trkpt lat="42.161853919018164" lon="13.67819530590838"><ele>958.8333333333333</ele><time>2026-05-02T10:38:20Z</time></trkpt><trkpt lat="42.16186411617076" lon="13.678301281414411"><ele>956.6666666666666</ele><time>2026-05-02T10:38:21Z</time></trkpt><trkpt lat="42.16187012702041" lon="13.678401543770237"><ele>954.5</ele><time>2026-05-02T10:38:22Z</time></trkpt><trkpt lat="42.16187454072866" lon="13.678498555915796"><ele>952.3333333333333</ele><time>2026-05-02T10:38:23Z</time></trkpt><trkpt lat="42.161881370510336" lon="13.678585897719202"><ele>950.1666666666666</ele><time>2026-05-02T10:38:24Z</time></trkpt><trkpt lat="42.16189146553442" lon="13.678741147914366"><ele>948.0</ele><time>2026-05-02T10:38:26Z</time></trkpt><trkpt lat="42.161892731102675" lon="13.678895298183411"><ele>946.3333333333334</ele><time>2026-05-02T10:38:28Z</time></trkpt><trkpt lat="42.16188987242116" lon="13.678984329562544"><ele>944.6666666666667</ele><time>2026-05-02T10:38:29Z</time></trkpt><trkpt lat="42.16187423804953" lon="13.679149853761299"><ele>943.0</ele><time>2026-05-02T10:38:31Z</time></trkpt><trkpt lat="42.1618596612673" lon="13.679235386848887"><ele>941.3333333333334</ele><time>2026-05-02T10:38:32Z</time></trkpt><trkpt lat="42.161826129071656" lon="13.679400576902433"><ele>939.6666666666667</ele><time>2026-05-02T10:38:34Z</time></trkpt><trkpt lat="42.16181080243405" lon="13.679483751255976"><ele>938.0</ele><time>2026-05-02T10:38:35Z</time></trkpt><trkpt lat="42.16178405571201" lon="13.679632839391555"><ele>936.4</ele><time>2026-05-02T10:38:37Z</time></trkpt><trkpt lat="42.16176452384288" lon="13.679776257336814"><ele>934.8</ele><time>2026-05-02T10:38:39Z</time></trkpt><trkpt lat="42.161747062523006" lon="13.679900605601034"><ele>933.2</ele><time>2026-05-02T10:38:41Z</time></trkpt><trkpt lat="42.16172554650629" lon="13.6800209180011"><ele>931.6</ele><time>2026-05-02T10:38:43Z</time></trkpt><trkpt lat="42.16167438815428" lon="13.680117662341454"><ele>930.0</ele><time>2026-05-02T10:38:45Z</time></trkpt><trkpt lat="42.161602872337795" lon="13.680182993542468"><ele>930.0</ele><time>2026-05-02T10:38:47Z</time></trkpt><trkpt lat="42.16153820178758" lon="13.680248587639543"><ele>930.0</ele><time>2026-05-02T10:38:49Z</time></trkpt><trkpt lat="42.16146942665951" lon="13.6803253500834"><ele>930.0</ele><time>2026-05-02T10:39:04Z</time></trkpt><trkpt lat="42.161411435286105" lon="13.680411603869961"><ele>930.0</ele><time>2026-05-02T10:39:06Z</time></trkpt><trkpt lat="42.16135693508227" lon="13.680513889641164"><ele>930.0</ele><time>2026-05-02T10:39:08Z</time></trkpt><trkpt lat="42.161294738211346" lon="13.680571600277231"><ele>930.0</ele><time>2026-05-02T10:39:10Z</time></trkpt><trkpt lat="42.161299335651705" lon="13.680658606980888"><ele>930.0</ele><time>2026-05-02T10:39:15Z</time></trkpt><trkpt lat="42.16134531105373" lon="13.680587805286844"><ele>930.0</ele><time>2026-05-02T10:39:19Z</time></trkpt><trkpt lat="42.16136590781201" lon="13.68047890599389"><ele>930.0</ele><time>2026-05-02T10:39:21Z</time></trkpt><trkpt lat="42.16142913228964" lon="13.680376636315268"><ele>930.0</ele><time>2026-05-02T10:39:23Z</time></trkpt><trkpt lat="42.1615068378444" lon="13.680290665961818"><ele>930.0</ele><time>2026-05-02T10:39:25Z</time></trkpt><trkpt lat="42.16157868029054" lon="13.680204191978843"><ele>930.0</ele><time>2026-05-02T10:39:27Z</time></trkpt><trkpt lat="42.16159794563922" lon="13.680076924503098"><ele>930.0</ele><time>2026-05-02T10:39:30Z</time></trkpt><trkpt lat="42.16155201248213" lon="13.679976893721063"><ele>930.0</ele><time>2026-05-02T10:39:32Z</time></trkpt><trkpt lat="42.16153875308308" lon="13.679886379279388"><ele>930.0</ele><time>2026-05-02T10:39:34Z</time></trkpt><trkpt lat="42.16152163014428" lon="13.679785510026951"><ele>930.0</ele><time>2026-05-02T10:39:36Z</time></trkpt><trkpt lat="42.161504638254556" lon="13.679670597057898"><ele>930.0</ele><time>2026-05-02T10:39:38Z</time></trkpt><trkpt lat="42.16149170647936" lon="13.67954727809533"><ele>930.0</ele><time>2026-05-02T10:39:40Z</time></trkpt><trkpt lat="42.161482868788084" lon="13.679425456992933"><ele>931.0</ele><time>2026-05-02T10:39:42Z</time></trkpt><trkpt lat="42.16147284862869" lon="13.679340909972765"><ele>932.0</ele><time>2026-05-02T10:39:44Z</time></trkpt><trkpt lat="42.16143107788831" lon="13.679261677249464"><ele>933.0</ele><time>2026-05-02T10:39:46Z</time></trkpt><trkpt lat="42.16134422533681" lon="13.6792402173847"><ele>934.0</ele><time>2026-05-02T10:39:48Z</time></trkpt><trkpt lat="42.161245253021164" lon="13.679274142043775"><ele>935.0</ele><time>2026-05-02T10:39:50Z</time></trkpt><trkpt lat="42.16117919569532" lon="13.679297820700986"><ele>936.0</ele><time>2026-05-02T10:39:51Z</time></trkpt><trkpt lat="42.16111382247417" lon="13.67932149716065"><ele>936.0</ele><time>2026-05-02T10:39:52Z</time></trkpt><trkpt lat="42.16104668103122" lon="13.679345751190304"><ele>936.0</ele><time>2026-05-02T10:39:53Z</time></trkpt><trkpt lat="42.16098392372378" lon="13.679373887349675"><ele>936.0</ele><time>2026-05-02T10:39:54Z</time></trkpt><trkpt lat="42.16086410212331" lon="13.679413998313445"><ele>936.0</ele><time>2026-05-02T10:39:56Z</time></trkpt><trkpt lat="42.16080034078751" lon="13.679422809645688"><ele>936.0</ele><time>2026-05-02T10:39:57Z</time></trkpt><trkpt lat="42.16073482025556" lon="13.679428262456815"><ele>936.0</ele><time>2026-05-02T10:39:58Z</time></trkpt><trkpt lat="42.16067053633427" lon="13.679432377816306"><ele>932.1666666666666</ele><time>2026-05-02T10:39:59Z</time></trkpt><trkpt lat="42.16060691323821" lon="13.679441228931378"><ele>928.3333333333333</ele><time>2026-05-02T10:40:00Z</time></trkpt><trkpt lat="42.160485183277785" lon="13.679467414029945"><ele>924.5</ele><time>2026-05-02T10:40:02Z</time></trkpt><trkpt lat="42.16036911811437" lon="13.679527868582323"><ele>920.6666666666666</ele><time>2026-05-02T10:40:04Z</time></trkpt><trkpt lat="42.16031349432154" lon="13.679569311143695"><ele>916.8333333333333</ele><time>2026-05-02T10:40:05Z</time></trkpt><trkpt lat="42.160253087662255" lon="13.679613149657108"><ele>913.0</ele><time>2026-05-02T10:40:06Z</time></trkpt><trkpt lat="42.16019466255494" lon="13.679646546126111"><ele>913.0</ele><time>2026-05-02T10:40:07Z</time></trkpt><trkpt lat="42.16008203872316" lon="13.67970557247245"><ele>913.0</ele><time>2026-05-02T10:40:09Z</time></trkpt><trkpt lat="42.15998323759065" lon="13.679762321599819"><ele>913.0</ele><time>2026-05-02T10:40:11Z</time></trkpt><trkpt lat="42.15990011201915" lon="13.679829003801"><ele>913.0</ele><time>2026-05-02T10:40:13Z</time></trkpt><trkpt lat="42.15983306337042" lon="13.679938375360122"><ele>913.0</ele><time>2026-05-02T10:40:15Z</time></trkpt><trkpt lat="42.15977893145228" lon="13.680026954840498"><ele>908.8333333333333</ele><time>2026-05-02T10:40:17Z</time></trkpt><trkpt lat="42.15972345779119" lon="13.680071007330046"><ele>904.6666666666666</ele><time>2026-05-02T10:40:19Z</time></trkpt><trkpt lat="42.15964003846526" lon="13.680044401327587"><ele>900.5</ele><time>2026-05-02T10:44:50.999Z</time></trkpt><trkpt lat="42.15958801140788" lon="13.67998117166816"><ele>896.3333333333333</ele><time>2026-05-02T10:44:52.999Z</time></trkpt><trkpt lat="42.15954767286844" lon="13.679914407827106"><ele>892.1666666666666</ele><time>2026-05-02T10:44:54.999Z</time></trkpt><trkpt lat="42.15949136122106" lon="13.679825108643204"><ele>888.0</ele><time>2026-05-02T10:44:57.999Z</time></trkpt><trkpt lat="42.15944093070251" lon="13.679713316621354"><ele>888.0</ele><time>2026-05-02T10:45:00.999Z</time></trkpt><trkpt lat="42.1593985116886" lon="13.679613985476296"><ele>888.0</ele><time>2026-05-02T10:45:02.999Z</time></trkpt><trkpt lat="42.159368346906795" lon="13.67953911592978"><ele>888.0</ele><time>2026-05-02T10:45:04.999Z</time></trkpt><trkpt lat="42.159336521916174" lon="13.679439544761717"><ele>888.0</ele><time>2026-05-02T10:45:06.999Z</time></trkpt><trkpt lat="42.159308092594344" lon="13.679330215210928"><ele>888.0</ele><time>2026-05-02T10:45:08.999Z</time></trkpt><trkpt lat="42.159281337735216" lon="13.679218470184932"><ele>888.0</ele><time>2026-05-02T10:45:10.999Z</time></trkpt><trkpt lat="42.15925584903812" lon="13.67911210885875"><ele>889.8</ele><time>2026-05-02T10:45:13Z</time></trkpt><trkpt lat="42.15923201313405" lon="13.679007359432294"><ele>891.5999999999999</ele><time>2026-05-02T10:45:14.999Z</time></trkpt><trkpt lat="42.15919463564409" lon="13.678880069004148"><ele>893.4000000000001</ele><time>2026-05-02T10:45:16.999Z</time></trkpt><trkpt lat="42.15915021572322" lon="13.678728100413798"><ele>895.2</ele><time>2026-05-02T10:45:18.999Z</time></trkpt><trkpt lat="42.15910496505473" lon="13.678587093116146"><ele>897.0</ele><time>2026-05-02T10:45:20.999Z</time></trkpt><trkpt lat="42.159050205219806" lon="13.678439082429382"><ele>889.6666666666666</ele><time>2026-05-02T10:45:22.999Z</time></trkpt><trkpt lat="42.1590213069301" lon="13.678352241056619"><ele>882.3333333333333</ele><time>2026-05-02T10:45:23.999Z</time></trkpt><trkpt lat="42.15899457376406" lon="13.678257387496895"><ele>875.0</ele><time>2026-05-02T10:45:24.999Z</time></trkpt><trkpt lat="42.15896670792866" lon="13.678154460022656"><ele>867.6666666666666</ele><time>2026-05-02T10:45:25.999Z</time></trkpt><trkpt lat="42.15894077788751" lon="13.678050173339706"><ele>860.3333333333333</ele><time>2026-05-02T10:45:26.999Z</time></trkpt><trkpt lat="42.15890939952946" lon="13.677939565223014"><ele>853.0</ele><time>2026-05-02T10:45:27.999Z</time></trkpt><trkpt lat="42.158883200878144" lon="13.67784007513758"><ele>856.5999999999999</ele><time>2026-05-02T10:45:28.999Z</time></trkpt><trkpt lat="42.15885585937044" lon="13.677757715645825"><ele>860.1999999999999</ele><time>2026-05-02T10:45:29.999Z</time></trkpt><trkpt lat="42.15880318018168" lon="13.677615207739452"><ele>863.8</ele><time>2026-05-02T10:45:31.999Z</time></trkpt><trkpt lat="42.15875544580218" lon="13.677464406424416"><ele>867.4</ele><time>2026-05-02T10:45:33.999Z</time></trkpt><trkpt lat="42.158709789056275" lon="13.677317248849642"><ele>871.0</ele><time>2026-05-02T10:45:35.999Z</time></trkpt><trkpt lat="42.15865906831491" lon="13.67720711649787"><ele>871.0</ele><time>2026-05-02T10:45:37.999Z</time></trkpt><trkpt lat="42.15861305528834" lon="13.677105535552817"><ele>870.9999999999999</ele><time>2026-05-02T10:45:39.999Z</time></trkpt><trkpt lat="42.15856857137508" lon="13.6770039550178"><ele>870.9999999999999</ele><time>2026-05-02T10:45:41.999Z</time></trkpt><trkpt lat="42.158503545305386" lon="13.676875308616735"><ele>871.0</ele><time>2026-05-02T10:45:43.999Z</time></trkpt><trkpt lat="42.15843739347767" lon="13.676747738242508"><ele>871.0</ele><time>2026-05-02T10:45:45.999Z</time></trkpt><trkpt lat="42.15837356493884" lon="13.67662163421773"><ele>874.75</ele><time>2026-05-02T10:45:47.999Z</time></trkpt><trkpt lat="42.15830218128378" lon="13.676492027717165"><ele>878.5</ele><time>2026-05-02T10:45:49.999Z</time></trkpt><trkpt lat="42.158227810401144" lon="13.676364756818678"><ele>882.25</ele><time>2026-05-02T10:45:51.999Z</time></trkpt><trkpt lat="42.15815887711602" lon="13.676235854814117"><ele>886.0</ele><time>2026-05-02T10:45:53.999Z</time></trkpt><trkpt lat="42.15809575481254" lon="13.676102121095617"><ele>878.5999999999999</ele><time>2026-05-02T10:45:55.999Z</time></trkpt><trkpt lat="42.1580410877308" lon="13.675986034827396"><ele>871.1999999999999</ele><time>2026-05-02T10:45:57.999Z</time></trkpt><trkpt lat="42.157985399840136" lon="13.675870472264616"><ele>863.8</ele><time>2026-05-02T10:45:59.999Z</time></trkpt><trkpt lat="42.157930848987846" lon="13.675749563614206"><ele>856.4000000000001</ele><time>2026-05-02T10:46:01.999Z</time></trkpt><trkpt lat="42.157873216346964" lon="13.675642551024968"><ele>849.0</ele><time>2026-05-02T10:46:03.999Z</time></trkpt><trkpt lat="42.15782144261833" lon="13.675561134941724"><ele>849.0</ele><time>2026-05-02T10:46:05.999Z</time></trkpt><trkpt lat="42.15777967714168" lon="13.675480359881664"><ele>849.0</ele><time>2026-05-02T10:46:07.999Z</time></trkpt><trkpt lat="42.15774478946564" lon="13.675391091955166"><ele>849.0</ele><time>2026-05-02T10:46:09.999Z</time></trkpt><trkpt lat="42.15770802206375" lon="13.675295541277409"><ele>849.0</ele><time>2026-05-02T10:46:11.999Z</time></trkpt><trkpt lat="42.15766374380698" lon="13.675186781411437"><ele>849.0</ele><time>2026-05-02T10:46:13.999Z</time></trkpt><trkpt lat="42.15763380825457" lon="13.675075025585429"><ele>849.0</ele><time>2026-05-02T10:46:15.999Z</time></trkpt><trkpt lat="42.15761067401708" lon="13.674968923578648"><ele>849.3333333333334</ele><time>2026-05-02T10:46:17.999Z</time></trkpt><trkpt lat="42.15759537536063" lon="13.67486007319825"><ele>849.6666666666667</ele><time>2026-05-02T10:46:19.999Z</time></trkpt><trkpt lat="42.1575954853955" lon="13.674755877695025"><ele>850.0</ele><time>2026-05-02T10:46:21.999Z</time></trkpt><trkpt lat="42.15760132665776" lon="13.67463868422732"><ele>850.3333333333334</ele><time>2026-05-02T10:46:23.999Z</time></trkpt><trkpt lat="42.15759834800667" lon="13.674525220633736"><ele>850.6666666666667</ele><time>2026-05-02T10:46:25.999Z</time></trkpt><trkpt lat="42.157606328986105" lon="13.674428258096743"><ele>851.0</ele><time>2026-05-02T10:46:27.999Z</time></trkpt><trkpt lat="42.15764824501781" lon="13.674347541590155"><ele>851.0</ele><time>2026-05-02T10:46:29.999Z</time></trkpt><trkpt lat="42.15766508233053" lon="13.674239854685123"><ele>851.0</ele><time>2026-05-02T10:46:32.999Z</time></trkpt><trkpt lat="42.15757215577057" lon="13.674275582475522"><ele>851.0</ele><time>2026-05-02T10:46:35.999Z</time></trkpt><trkpt lat="42.157514242550214" lon="13.674371823389139"><ele>851.0</ele><time>2026-05-02T10:46:38Z</time></trkpt><trkpt lat="42.15746240689469" lon="13.674474768898795"><ele>851.0</ele><time>2026-05-02T10:46:40Z</time></trkpt><trkpt lat="42.157420508723135" lon="13.674582027361199"><ele>851.6666666666667</ele><time>2026-05-02T10:46:42Z</time></trkpt><trkpt lat="42.15739413186758" lon="13.674696016979304"><ele>852.3333333333334</ele><time>2026-05-02T10:46:44Z</time></trkpt><trkpt lat="42.15738176537086" lon="13.674806183487423"><ele>853.0</ele><time>2026-05-02T10:46:46Z</time></trkpt><trkpt lat="42.157372391072045" lon="13.67490846258262"><ele>853.6666666666667</ele><time>2026-05-02T10:46:48Z</time></trkpt><trkpt lat="42.15736479450019" lon="13.675024815183267"><ele>854.3333333333334</ele><time>2026-05-02T10:46:51Z</time></trkpt><trkpt lat="42.15728820823848" lon="13.675054368764203"><ele>855.0</ele><time>2026-05-02T10:46:54Z</time></trkpt><trkpt lat="42.15723864255291" lon="13.674967982603404"><ele>850.1428571428572</ele><time>2026-05-02T10:46:57Z</time></trkpt><trkpt lat="42.15721889489103" lon="13.674882465704423"><ele>845.2857142857142</ele><time>2026-05-02T10:46:59Z</time></trkpt><trkpt lat="42.15720502207183" lon="13.674788056110344"><ele>840.4285714285714</ele><time>2026-05-02T10:47:01Z</time></trkpt><trkpt lat="42.15719386535284" lon="13.674672176114917"><ele>835.5714285714287</ele><time>2026-05-02T10:47:03Z</time></trkpt><trkpt lat="42.157187803910865" lon="13.674582646252306"><ele>830.7142857142858</ele><time>2026-05-02T10:47:05Z</time></trkpt><trkpt lat="42.15718114752443" lon="13.674489670719977"><ele>825.8571428571429</ele><time>2026-05-02T10:47:07Z</time></trkpt><trkpt lat="42.157172148987684" lon="13.674394264335337"><ele>821.0</ele><time>2026-05-02T10:47:09Z</time></trkpt><trkpt lat="42.15716869796144" lon="13.674288335812372"><ele>821.0000000000001</ele><time>2026-05-02T10:47:11Z</time></trkpt><trkpt lat="42.1571790779353" lon="13.674168440797034"><ele>821.0</ele><time>2026-05-02T10:47:13Z</time></trkpt><trkpt lat="42.15720867133711" lon="13.67406265205012"><ele>821.0</ele><time>2026-05-02T10:47:15Z</time></trkpt><trkpt lat="42.15721362135785" lon="13.67396737479659"><ele>821.0</ele><time>2026-05-02T10:47:17Z</time></trkpt><trkpt lat="42.15714896877181" lon="13.673916551089901"><ele>821.0</ele><time>2026-05-02T10:47:19Z</time></trkpt><trkpt lat="42.157084428818116" lon="13.673896486764024"><ele>821.0000000000001</ele><time>2026-05-02T10:47:21Z</time></trkpt><trkpt lat="42.15702822091118" lon="13.673937711622127"><ele>821.0</ele><time>2026-05-02T10:47:23Z</time></trkpt><trkpt lat="42.15696710227525" lon="13.673996327041264"><ele>821.0000000000001</ele><time>2026-05-02T10:47:25Z</time></trkpt><trkpt lat="42.15691507953336" lon="13.674064238197653"><ele>821.0</ele><time>2026-05-02T10:47:27Z</time></trkpt><trkpt lat="42.15686685635788" lon="13.674131555348541"><ele>821.0</ele><time>2026-05-02T10:47:29Z</time></trkpt><trkpt lat="42.156839171878936" lon="13.674210966420606"><ele>821.0</ele><time>2026-05-02T10:47:31Z</time></trkpt><trkpt lat="42.15684310390049" lon="13.674318274205518"><ele>821.0</ele><time>2026-05-02T10:47:33Z</time></trkpt><trkpt lat="42.15685802855393" lon="13.674425753206135"><ele>821.0000000000001</ele><time>2026-05-02T10:47:35Z</time></trkpt><trkpt lat="42.15683972577728" lon="13.674518429265083"><ele>821.0</ele><time>2026-05-02T10:47:37Z</time></trkpt><trkpt lat="42.1568152442825" lon="13.674617909975334"><ele>819.0</ele><time>2026-05-02T10:47:39Z</time></trkpt><trkpt lat="42.156779909218855" lon="13.674734333429557"><ele>817.0</ele><time>2026-05-02T10:47:41Z</time></trkpt><trkpt lat="42.15674082652947" lon="13.674859144762154"><ele>815.0</ele><time>2026-05-02T10:47:43Z</time></trkpt><trkpt lat="42.15669375288634" lon="13.674970797797304"><ele>813.0</ele><time>2026-05-02T10:47:45Z</time></trkpt><trkpt lat="42.15665362069696" lon="13.675097253414275"><ele>811.0</ele><time>2026-05-02T10:47:47Z</time></trkpt><trkpt lat="42.15660061664911" lon="13.675224228218726"><ele>809.4</ele><time>2026-05-02T10:47:49Z</time></trkpt><trkpt lat="42.156555542456736" lon="13.67536428282287"><ele>807.8</ele><time>2026-05-02T10:47:51Z</time></trkpt><trkpt lat="42.156522644986595" lon="13.675499920821972"><ele>806.1999999999999</ele><time>2026-05-02T10:47:53Z</time></trkpt><trkpt lat="42.15649523000333" lon="13.675628904486421"><ele>804.5999999999999</ele><time>2026-05-02T10:47:55Z</time></trkpt><trkpt lat="42.15646608870052" lon="13.675755058198456"><ele>803.0</ele><time>2026-05-02T10:47:57Z</time></trkpt><trkpt lat="42.15642681875383" lon="13.675866386329242"><ele>805.5999999999999</ele><time>2026-05-02T10:47:59Z</time></trkpt><trkpt lat="42.156378124477584" lon="13.675959010064638"><ele>808.1999999999999</ele><time>2026-05-02T10:48:02Z</time></trkpt><trkpt lat="42.15638347298997" lon="13.676083528904021"><ele>810.8</ele><time>2026-05-02T10:48:04Z</time></trkpt><trkpt lat="42.156394002494196" lon="13.676264137941933"><ele>813.4</ele><time>2026-05-02T10:48:06Z</time></trkpt><trkpt lat="42.156401373049505" lon="13.676382822565975"><ele>816.0</ele><time>2026-05-02T10:48:07Z</time></trkpt><trkpt lat="42.15641782406863" lon="13.676513607773968"><ele>816.0</ele><time>2026-05-02T10:48:08Z</time></trkpt><trkpt lat="42.15644154679894" lon="13.67664391034583"><ele>816.0</ele><time>2026-05-02T10:48:09Z</time></trkpt><trkpt lat="42.156459614427796" lon="13.676770251826326"><ele>816.0</ele><time>2026-05-02T10:48:10Z</time></trkpt><trkpt lat="42.15648042488556" lon="13.676879795214859"><ele>816.0</ele><time>2026-05-02T10:48:11Z</time></trkpt><trkpt lat="42.156533891042464" lon="13.677021499257453"><ele>816.0</ele><time>2026-05-02T10:48:12.999Z</time></trkpt><trkpt lat="42.15658119298822" lon="13.677098660441528"><ele>809.0</ele><time>2026-05-02T10:48:13.999Z</time></trkpt><trkpt lat="42.156627360768006" lon="13.677186615160615"><ele>802.0</ele><time>2026-05-02T10:48:14.999Z</time></trkpt><trkpt lat="42.15667124439425" lon="13.677295037178798"><ele>795.0</ele><time>2026-05-02T10:48:15.999Z</time></trkpt><trkpt lat="42.156694066029424" lon="13.67743326527483"><ele>788.0</ele><time>2026-05-02T10:48:16.999Z</time></trkpt><trkpt lat="42.15674073166362" lon="13.677558560622677"><ele>781.0</ele><time>2026-05-02T10:48:17.999Z</time></trkpt><trkpt lat="42.156792808873135" lon="13.677682462920652"><ele>779.5</ele><time>2026-05-02T10:48:18.999Z</time></trkpt><trkpt lat="42.156808635418216" lon="13.677827785020947"><ele>778.0</ele><time>2026-05-02T10:48:19.999Z</time></trkpt><trkpt lat="42.156868356737384" lon="13.677951231553362"><ele>776.5</ele><time>2026-05-02T10:48:20.999Z</time></trkpt><trkpt lat="42.15688111620148" lon="13.678112537768103"><ele>775.0</ele><time>2026-05-02T10:48:21.999Z</time></trkpt><trkpt lat="42.15692464092785" lon="13.678254922745213"><ele>775.0</ele><time>2026-05-02T10:48:22.999Z</time></trkpt><trkpt lat="42.156961286082925" lon="13.678403313612806"><ele>775.0</ele><time>2026-05-02T10:48:23.999Z</time></trkpt><trkpt lat="42.156995527602945" lon="13.678554498448923"><ele>775.0</ele><time>2026-05-02T10:48:24.999Z</time></trkpt><trkpt lat="42.15702806831192" lon="13.67870725881477"><ele>775.0</ele><time>2026-05-02T10:48:25.999Z</time></trkpt><trkpt lat="42.15706252183858" lon="13.67885986927782"><ele>775.6</ele><time>2026-05-02T10:48:26.999Z</time></trkpt><trkpt lat="42.15709460849705" lon="13.679006435796168"><ele>776.2</ele><time>2026-05-02T10:48:27.999Z</time></trkpt><trkpt lat="42.157133181325996" lon="13.67913219438978"><ele>776.8</ele><time>2026-05-02T10:48:28.999Z</time></trkpt><trkpt lat="42.15718061046786" lon="13.679239143322675"><ele>777.4</ele><time>2026-05-02T10:48:29.999Z</time></trkpt><trkpt lat="42.15721921474617" lon="13.679337215893472"><ele>778.0</ele><time>2026-05-02T10:48:30.999Z</time></trkpt><trkpt lat="42.15723976928821" lon="13.67943799380453"><ele>775.2</ele><time>2026-05-02T10:48:31.999Z</time></trkpt><trkpt lat="42.15723207275268" lon="13.679544917708524"><ele>772.4</ele><time>2026-05-02T10:48:32.999Z</time></trkpt><trkpt lat="42.15721563889906" lon="13.679658098992157"><ele>769.6</ele><time>2026-05-02T10:48:33.999Z</time></trkpt><trkpt lat="42.157197247726124" lon="13.679781818120428"><ele>766.8000000000001</ele><time>2026-05-02T10:48:34.999Z</time></trkpt><trkpt lat="42.15717471942254" lon="13.679909884234911"><ele>764.0</ele><time>2026-05-02T10:48:35.999Z</time></trkpt><trkpt lat="42.15715720775786" lon="13.680047339552898"><ele>764.0</ele><time>2026-05-02T10:48:36.999Z</time></trkpt><trkpt lat="42.15713935264046" lon="13.680186073601801"><ele>764.0</ele><time>2026-05-02T10:48:38Z</time></trkpt><trkpt lat="42.15712033863089" lon="13.680329779351764"><ele>764.0</ele><time>2026-05-02T10:48:39Z</time></trkpt><trkpt lat="42.157087655185485" lon="13.68046934649975"><ele>764.0</ele><time>2026-05-02T10:48:40Z</time></trkpt><trkpt lat="42.15703965475723" lon="13.680602003922944"><ele>764.0</ele><time>2026-05-02T10:48:41Z</time></trkpt><trkpt lat="42.15698879839783" lon="13.68073170483901"><ele>760.2</ele><time>2026-05-02T10:48:42Z</time></trkpt><trkpt lat="42.15693373008401" lon="13.68086220040445"><ele>756.4000000000001</ele><time>2026-05-02T10:48:43Z</time></trkpt><trkpt lat="42.15687153635594" lon="13.680985901757733"><ele>752.6</ele><time>2026-05-02T10:48:44Z</time></trkpt><trkpt lat="42.15680178035849" lon="13.681102168397599"><ele>748.8</ele><time>2026-05-02T10:48:45Z</time></trkpt><trkpt lat="42.15672460403616" lon="13.681209944552027"><ele>745.0</ele><time>2026-05-02T10:48:46Z</time></trkpt><trkpt lat="42.15664547414733" lon="13.681315807034679"><ele>743.5</ele><time>2026-05-02T10:48:47Z</time></trkpt><trkpt lat="42.15656405368913" lon="13.68142009338611"><ele>742.0</ele><time>2026-05-02T10:48:48Z</time></trkpt><trkpt lat="42.15648294472954" lon="13.68152591089277"><ele>740.5</ele><time>2026-05-02T10:48:49Z</time></trkpt><trkpt lat="42.15639989954904" lon="13.681629700370568"><ele>739.0</ele><time>2026-05-02T10:48:50Z</time></trkpt><trkpt lat="42.156308988698896" lon="13.681725052437026"><ele>737.25</ele><time>2026-05-02T10:48:51Z</time></trkpt><trkpt lat="42.15621288659017" lon="13.681813229226426"><ele>735.5</ele><time>2026-05-02T10:48:52Z</time></trkpt><trkpt lat="42.15611713090176" lon="13.681904012848282"><ele>733.75</ele><time>2026-05-02T10:48:53Z</time></trkpt><trkpt lat="42.15602133852419" lon="13.68199788158874"><ele>732.0</ele><time>2026-05-02T10:48:54Z</time></trkpt><trkpt lat="42.15592406708903" lon="13.682089477697499"><ele>731.25</ele><time>2026-05-02T10:48:55Z</time></trkpt><trkpt lat="42.15582816792763" lon="13.682182525120547"><ele>730.5</ele><time>2026-05-02T10:48:56Z</time></trkpt><trkpt lat="42.15573141053597" lon="13.68227667690694"><ele>729.75</ele><time>2026-05-02T10:48:57Z</time></trkpt><trkpt lat="42.155632637256645" lon="13.682365271554996"><ele>729.0</ele><time>2026-05-02T10:48:58Z</time></trkpt><trkpt lat="42.155531525915826" lon="13.68244958876812"><ele>725.5</ele><time>2026-05-02T10:48:59Z</time></trkpt><trkpt lat="42.15543104126121" lon="13.682534500970487"><ele>722.0</ele><time>2026-05-02T10:49:00Z</time></trkpt><trkpt lat="42.15533138151197" lon="13.682621454370702"><ele>718.5</ele><time>2026-05-02T10:49:01Z</time></trkpt><trkpt lat="42.15523415289624" lon="13.682714384123091"><ele>715.0</ele><time>2026-05-02T10:49:02Z</time></trkpt><trkpt lat="42.15514008095635" lon="13.68281634765512"><ele>715.0</ele><time>2026-05-02T10:49:03Z</time></trkpt><trkpt lat="42.15504633921554" lon="13.682921356830466"><ele>715.0</ele><time>2026-05-02T10:49:04Z</time></trkpt><trkpt lat="42.154956369060606" lon="13.683026890254176"><ele>715.0</ele><time>2026-05-02T10:49:05Z</time></trkpt><trkpt lat="42.15485011924637" lon="13.683108322261418"><ele>715.0</ele><time>2026-05-02T10:49:06Z</time></trkpt><trkpt lat="42.1547634781078" lon="13.683214102647963"><ele>712.8</ele><time>2026-05-02T10:49:07Z</time></trkpt><trkpt lat="42.154677210532945" lon="13.68331690607892"><ele>710.6</ele><time>2026-05-02T10:49:08Z</time></trkpt><trkpt lat="42.15459950734248" lon="13.68340933005379"><ele>708.4000000000001</ele><time>2026-05-02T10:49:09Z</time></trkpt><trkpt lat="42.154545489858535" lon="13.683499516549766"><ele>706.2</ele><time>2026-05-02T10:49:10Z</time></trkpt><trkpt lat="42.15448884782506" lon="13.68356812704947"><ele>704.0</ele><time>2026-05-02T10:49:11Z</time></trkpt><trkpt lat="42.15441824242093" lon="13.683664700320271"><ele>703.0</ele><time>2026-05-02T10:49:13Z</time></trkpt><trkpt lat="42.154348059003844" lon="13.683698819667702"><ele>702.0</ele><time>2026-05-02T10:49:16Z</time></trkpt><trkpt lat="42.1542244379524" lon="13.68362896619593"><ele>701.0</ele><time>2026-05-02T10:49:19Z</time></trkpt><trkpt lat="42.154160499430596" lon="13.683632770736569"><ele>700.0</ele><time>2026-05-02T10:49:20Z</time></trkpt><trkpt lat="42.15409934005208" lon="13.68367139678337"><ele>699.0</ele><time>2026-05-02T10:49:21Z</time></trkpt><trkpt lat="42.1540508612371" lon="13.683742845491134"><ele>698.0</ele><time>2026-05-02T10:49:22Z</time></trkpt><trkpt lat="42.15402390510974" lon="13.683825902338592"><ele>698.0</ele><time>2026-05-02T10:49:23Z</time></trkpt><trkpt lat="42.153986144607494" lon="13.683895746747453"><ele>698.0</ele><time>2026-05-02T10:49:24Z</time></trkpt><trkpt lat="42.15406086087137" lon="13.684068661678957"><ele>698.0</ele><time>2026-05-02T10:49:26Z</time></trkpt><trkpt lat="42.15410811608938" lon="13.684130729106187"><ele>698.0</ele><time>2026-05-02T10:49:27Z</time></trkpt><trkpt lat="42.15413016815401" lon="13.68421765172879"><ele>698.0</ele><time>2026-05-02T10:49:28Z</time></trkpt><trkpt lat="42.15411626812642" lon="13.684335935140687"><ele>698.0</ele><time>2026-05-02T10:49:29Z</time></trkpt><trkpt lat="42.15408172326342" lon="13.68447584281261"><ele>697.5</ele><time>2026-05-02T10:49:30Z</time></trkpt><trkpt lat="42.154038685683965" lon="13.68463472362893"><ele>697.0</ele><time>2026-05-02T10:49:31Z</time></trkpt><trkpt lat="42.153995247945545" lon="13.684789707866775"><ele>696.5</ele><time>2026-05-02T10:49:32Z</time></trkpt><trkpt lat="42.1539496723521" lon="13.684961975249385"><ele>696.0</ele><time>2026-05-02T10:49:33Z</time></trkpt><trkpt lat="42.15390520986094" lon="13.685147859112183"><ele>695.0</ele><time>2026-05-02T10:49:34Z</time></trkpt><trkpt lat="42.15385780665833" lon="13.685345074040423"><ele>694.0</ele><time>2026-05-02T10:49:35Z</time></trkpt><trkpt lat="42.1538078014458" lon="13.685546305592316"><ele>693.0</ele><time>2026-05-02T10:49:36Z</time></trkpt><trkpt lat="42.15376001482274" lon="13.685739968235806"><ele>693.0</ele><time>2026-05-02T10:49:37Z</time></trkpt><trkpt lat="42.15371162376172" lon="13.685938477220118"><ele>693.0</ele><time>2026-05-02T10:49:38Z</time></trkpt><trkpt lat="42.1536631462923" lon="13.686141535785813"><ele>693.0</ele><time>2026-05-02T10:49:39Z</time></trkpt><trkpt lat="42.153616235602065" lon="13.6863478387932"><ele>689.3333333333334</ele><time>2026-05-02T10:49:40Z</time></trkpt><trkpt lat="42.15357158296951" lon="13.686556820248427"><ele>685.6666666666667</ele><time>2026-05-02T10:49:41Z</time></trkpt><trkpt lat="42.153525636463684" lon="13.68676878016025"><ele>682.0</ele><time>2026-05-02T10:49:42Z</time></trkpt><trkpt lat="42.15347846996853" lon="13.686984893336255"><ele>680.25</ele><time>2026-05-02T10:49:43Z</time></trkpt><trkpt lat="42.153435362077744" lon="13.687194762477525"><ele>678.5</ele><time>2026-05-02T10:49:44Z</time></trkpt><trkpt lat="42.153403624476006" lon="13.687363359745214"><ele>676.75</ele><time>2026-05-02T10:49:45Z</time></trkpt><trkpt lat="42.15338004043068" lon="13.68749528024713"><ele>675.0</ele><time>2026-05-02T10:49:46Z</time></trkpt><trkpt lat="42.15336122772982" lon="13.687597586092426"><ele>675.0</ele><time>2026-05-02T10:49:47Z</time></trkpt><trkpt lat="42.15332807363632" lon="13.687711019039156"><ele>675.0</ele><time>2026-05-02T10:49:49Z</time></trkpt><trkpt lat="42.153194860695066" lon="13.687672077387825"><ele>675.0</ele><time>2026-05-02T10:49:52Z</time></trkpt><trkpt lat="42.15311053989834" lon="13.687664733983222"><ele>675.0</ele><time>2026-05-02T10:49:53Z</time></trkpt><trkpt lat="42.15301900567084" lon="13.687709296728165"><ele>675.0</ele><time>2026-05-02T10:49:54Z</time></trkpt><trkpt lat="42.15293156421443" lon="13.687790496838684"><ele>673.4</ele><time>2026-05-02T10:49:55Z</time></trkpt><trkpt lat="42.152831712854905" lon="13.687860539588996"><ele>671.8</ele><time>2026-05-02T10:49:56Z</time></trkpt><trkpt lat="42.15273017648707" lon="13.687919312220252"><ele>670.2</ele><time>2026-05-02T10:49:57Z</time></trkpt><trkpt lat="42.152630915188816" lon="13.68795762344656"><ele>668.6</ele><time>2026-05-02T10:49:58Z</time></trkpt><trkpt lat="42.15256450395357" lon="13.688045797113544"><ele>667.0</ele><time>2026-05-02T10:49:59Z</time></trkpt><trkpt lat="42.1525013375668" lon="13.688142203616092"><ele>667.0</ele><time>2026-05-02T10:50:00Z</time></trkpt><trkpt lat="42.15242895583096" lon="13.688249583101033"><ele>667.0</ele><time>2026-05-02T10:50:01Z</time></trkpt><trkpt lat="42.152368488840956" lon="13.688382724640759"><ele>667.0</ele><time>2026-05-02T10:50:02Z</time></trkpt><trkpt lat="42.15230287230442" lon="13.688513224557974"><ele>667.0</ele><time>2026-05-02T10:50:03Z</time></trkpt><trkpt lat="42.15223569564741" lon="13.688634683289733"><ele>666.2</ele><time>2026-05-02T10:50:04Z</time></trkpt><trkpt lat="42.152164696853205" lon="13.688732833235154"><ele>665.4000000000001</ele><time>2026-05-02T10:50:05Z</time></trkpt><trkpt lat="42.152083000519525" lon="13.68881139711377"><ele>664.5999999999999</ele><time>2026-05-02T10:50:06Z</time></trkpt><trkpt lat="42.151990913671455" lon="13.688886635796294"><ele>663.8</ele><time>2026-05-02T10:50:07Z</time></trkpt><trkpt lat="42.15189208627406" lon="13.688963305361934"><ele>663.0</ele><time>2026-05-02T10:50:08Z</time></trkpt><trkpt lat="42.1517955413991" lon="13.689035314794726"><ele>663.0</ele><time>2026-05-02T10:50:09Z</time></trkpt><trkpt lat="42.15169737717024" lon="13.68910698099003"><ele>663.0</ele><time>2026-05-02T10:50:10Z</time></trkpt><trkpt lat="42.15160225262341" lon="13.689174341883959"><ele>663.0</ele><time>2026-05-02T10:50:11Z</time></trkpt><trkpt lat="42.15150596606781" lon="13.689241426746095"><ele>663.0</ele><time>2026-05-02T10:50:12Z</time></trkpt><trkpt lat="42.15141262720055" lon="13.689303238417695"><ele>663.0</ele><time>2026-05-02T10:50:13Z</time></trkpt><trkpt lat="42.15132849699343" lon="13.689357401803793"><ele>662.8333333333334</ele><time>2026-05-02T10:50:14Z</time></trkpt><trkpt lat="42.151257833355956" lon="13.68940239132892"><ele>662.6666666666666</ele><time>2026-05-02T10:50:15Z</time></trkpt><trkpt lat="42.151208714186254" lon="13.689458905002468"><ele>662.5</ele><time>2026-05-02T10:50:16Z</time></trkpt><trkpt lat="42.15115049093746" lon="13.689493139353194"><ele>662.3333333333333</ele><time>2026-05-02T10:50:17Z</time></trkpt><trkpt lat="42.15108902291093" lon="13.689652039821793"><ele>662.1666666666666</ele><time>2026-05-02T10:50:19Z</time></trkpt><trkpt lat="42.15106711522229" lon="13.689756259435665"><ele>662.0</ele><time>2026-05-02T10:50:20Z</time></trkpt><trkpt lat="42.151049759899976" lon="13.689863134981753"><ele>662.0</ele><time>2026-05-02T10:50:21Z</time></trkpt><trkpt lat="42.15103243727315" lon="13.689966654709183"><ele>662.0</ele><time>2026-05-02T10:50:22Z</time></trkpt><trkpt lat="42.1510274475233" lon="13.6900755834561"><ele>662.0</ele><time>2026-05-02T10:50:23Z</time></trkpt><trkpt lat="42.150990352822426" lon="13.690178380368284"><ele>662.0</ele><time>2026-05-02T10:50:24Z</time></trkpt><trkpt lat="42.150963907216884" lon="13.690294523145194"><ele>662.0</ele><time>2026-05-02T10:50:25Z</time></trkpt><trkpt lat="42.15092833381516" lon="13.690429789688736"><ele>662.0</ele><time>2026-05-02T10:50:26Z</time></trkpt><trkpt lat="42.150900780021296" lon="13.690577208300335"><ele>662.0</ele><time>2026-05-02T10:50:27Z</time></trkpt><trkpt lat="42.15085330748639" lon="13.690722260551327"><ele>662.0</ele><time>2026-05-02T10:50:28Z</time></trkpt><trkpt lat="42.15080923450621" lon="13.690869982477244"><ele>662.0</ele><time>2026-05-02T10:50:29Z</time></trkpt><trkpt lat="42.150761200698454" lon="13.691021902087265"><ele>662.0</ele><time>2026-05-02T10:50:30Z</time></trkpt><trkpt lat="42.15072293253123" lon="13.691179506636967"><ele>660.75</ele><time>2026-05-02T10:50:31Z</time></trkpt><trkpt lat="42.15067308513246" lon="13.691327954318895"><ele>659.5</ele><time>2026-05-02T10:50:32Z</time></trkpt><trkpt lat="42.150608503624134" lon="13.691463571281552"><ele>658.25</ele><time>2026-05-02T10:50:33Z</time></trkpt><trkpt lat="42.15055765459317" lon="13.691603601371652"><ele>657.0</ele><time>2026-05-02T10:50:34Z</time></trkpt><trkpt lat="42.15050688014824" lon="13.691739340150939"><ele>657.0</ele><time>2026-05-02T10:50:35Z</time></trkpt><trkpt lat="42.150453084900235" lon="13.691866847319826"><ele>657.0</ele><time>2026-05-02T10:50:36Z</time></trkpt><trkpt lat="42.15040563473878" lon="13.691998938506517"><ele>657.0</ele><time>2026-05-02T10:50:37Z</time></trkpt><trkpt lat="42.15032840132134" lon="13.692130575720682"><ele>657.0</ele><time>2026-05-02T10:50:38Z</time></trkpt><trkpt lat="42.150265371221884" lon="13.692279554168547"><ele>657.1666666666666</ele><time>2026-05-02T10:50:39Z</time></trkpt><trkpt lat="42.15021168499527" lon="13.692414196397598"><ele>657.3333333333334</ele><time>2026-05-02T10:50:40Z</time></trkpt><trkpt lat="42.15016747608109" lon="13.692531201294862"><ele>657.5</ele><time>2026-05-02T10:50:41Z</time></trkpt><trkpt lat="42.15013195552976" lon="13.692637296080768"><ele>657.6666666666667</ele><time>2026-05-02T10:50:42Z</time></trkpt><trkpt lat="42.150111084324614" lon="13.692739032256338"><ele>657.8333333333334</ele><time>2026-05-02T10:50:43Z</time></trkpt><trkpt lat="42.15008225408593" lon="13.69282048189142"><ele>658.0</ele><time>2026-05-02T10:50:44Z</time></trkpt><trkpt lat="42.15004547335418" lon="13.692942820965518"><ele>655.5</ele><time>2026-05-02T10:50:46Z</time></trkpt><trkpt lat="42.14985023778414" lon="13.692952800624695"><ele>653.0</ele><time>2026-05-02T10:50:47Z</time></trkpt><trkpt lat="42.14980157379668" lon="13.69303774370105"><ele>650.5</ele><time>2026-05-02T10:50:48Z</time></trkpt><trkpt lat="42.1497529951346" lon="13.693146232947866"><ele>648.0</ele><time>2026-05-02T10:50:49Z</time></trkpt><trkpt lat="42.14970105245757" lon="13.693264836533125"><ele>648.0</ele><time>2026-05-02T10:50:50Z</time></trkpt><trkpt lat="42.14964386645215" lon="13.693390784075518"><ele>648.0</ele><time>2026-05-02T10:50:51Z</time></trkpt><trkpt lat="42.149590487268135" lon="13.693516313563476"><ele>648.0</ele><time>2026-05-02T10:50:52Z</time></trkpt><trkpt lat="42.14953714449864" lon="13.693641896785742"><ele>648.0</ele><time>2026-05-02T10:50:53Z</time></trkpt><trkpt lat="42.14947622672294" lon="13.69376897541907"><ele>648.0</ele><time>2026-05-02T10:50:54Z</time></trkpt><trkpt lat="42.1494150554973" lon="13.693896528144728"><ele>648.4</ele><time>2026-05-02T10:50:55Z</time></trkpt><trkpt lat="42.14935728466033" lon="13.694022358118497"><ele>648.8</ele><time>2026-05-02T10:50:56Z</time></trkpt><trkpt lat="42.14929828181946" lon="13.694146742206929"><ele>649.2</ele><time>2026-05-02T10:50:57Z</time></trkpt><trkpt lat="42.1492412461463" lon="13.694265635890249"><ele>649.6</ele><time>2026-05-02T10:50:58Z</time></trkpt><trkpt lat="42.14918316478222" lon="13.694372248594693"><ele>650.0</ele><time>2026-05-02T10:50:59Z</time></trkpt><trkpt lat="42.14912519337857" lon="13.694461616680181"><ele>650.0</ele><time>2026-05-02T10:51:00Z</time></trkpt><trkpt lat="42.149063586989676" lon="13.694541602646158"><ele>650.0</ele><time>2026-05-02T10:51:01Z</time></trkpt><trkpt lat="42.14899630616575" lon="13.69463116772146"><ele>650.0</ele><time>2026-05-02T10:51:02Z</time></trkpt><trkpt lat="42.14892978804911" lon="13.69473415811472"><ele>650.0</ele><time>2026-05-02T10:51:03Z</time></trkpt><trkpt lat="42.148873038074" lon="13.69484992730284"><ele>650.0</ele><time>2026-05-02T10:51:04Z</time></trkpt><trkpt lat="42.148822316726935" lon="13.694970177629546"><ele>650.0</ele><time>2026-05-02T10:51:05Z</time></trkpt><trkpt lat="42.14877286232847" lon="13.695076487098918"><ele>650.0</ele><time>2026-05-02T10:51:06Z</time></trkpt><trkpt lat="42.148711326497036" lon="13.695149431277622"><ele>650.0</ele><time>2026-05-02T10:51:07Z</time></trkpt><trkpt lat="42.14864127161397" lon="13.695203377024914"><ele>650.0</ele><time>2026-05-02T10:51:08Z</time></trkpt><trkpt lat="42.14855539610311" lon="13.695259084926953"><ele>650.0</ele><time>2026-05-02T10:51:09Z</time></trkpt><trkpt lat="42.148467771131855" lon="13.695313311652074"><ele>650.0</ele><time>2026-05-02T10:51:10Z</time></trkpt><trkpt lat="42.14839296310959" lon="13.695371148199454"><ele>649.8333333333333</ele><time>2026-05-02T10:51:11Z</time></trkpt><trkpt lat="42.148336341546816" lon="13.695447889880466"><ele>649.6666666666666</ele><time>2026-05-02T10:51:12Z</time></trkpt><trkpt lat="42.148296447408825" lon="13.695547642198472"><ele>649.5</ele><time>2026-05-02T10:51:13Z</time></trkpt><trkpt lat="42.14825608237736" lon="13.695656961732881"><ele>649.3333333333334</ele><time>2026-05-02T10:51:14Z</time></trkpt><trkpt lat="42.14821403345223" lon="13.695765500243525"><ele>649.1666666666667</ele><time>2026-05-02T10:51:15Z</time></trkpt><trkpt lat="42.14817249290644" lon="13.695862590018049"><ele>649.0</ele><time>2026-05-02T10:51:16Z</time></trkpt><trkpt lat="42.14812876188946" lon="13.695928945860938"><ele>649.0</ele><time>2026-05-02T10:51:17Z</time></trkpt><trkpt lat="42.14806064723447" lon="13.69595865004037"><ele>649.0</ele><time>2026-05-02T10:51:18Z</time></trkpt><trkpt lat="42.14798667487073" lon="13.695981147606604"><ele>649.0</ele><time>2026-05-02T10:51:19Z</time></trkpt><trkpt lat="42.14791246743165" lon="13.696001154642314"><ele>649.0</ele><time>2026-05-02T10:51:20Z</time></trkpt><trkpt lat="42.147838794691545" lon="13.696017020757193"><ele>649.0</ele><time>2026-05-02T10:51:21Z</time></trkpt><trkpt lat="42.14774950281116" lon="13.696036727832412"><ele>649.0</ele><time>2026-05-02T10:51:22Z</time></trkpt><trkpt lat="42.147648663283434" lon="13.696054033224641"><ele>649.0</ele><time>2026-05-02T10:51:23Z</time></trkpt><trkpt lat="42.14754417321044" lon="13.696074810669996"><ele>649.0</ele><time>2026-05-02T10:51:24Z</time></trkpt><trkpt lat="42.1474403791845" lon="13.696092581384184"><ele>649.0</ele><time>2026-05-02T10:51:25Z</time></trkpt><trkpt lat="42.14733997959826" lon="13.696111638299097"><ele>649.0</ele><time>2026-05-02T10:51:26Z</time></trkpt><trkpt lat="42.147250103973775" lon="13.696126815522877"><ele>649.0</ele><time>2026-05-02T10:51:27Z</time></trkpt><trkpt lat="42.14717711943864" lon="13.696139958145086"><ele>648.0</ele><time>2026-05-02T10:51:28Z</time></trkpt><trkpt lat="42.14705666977348" lon="13.696130395396526"><ele>647.0</ele><time>2026-05-02T10:51:30Z</time></trkpt><trkpt lat="42.14694076456937" lon="13.696052424306469"><ele>646.0</ele><time>2026-05-02T10:51:32Z</time></trkpt><trkpt lat="42.14686440517096" lon="13.696008548047653"><ele>645.0</ele><time>2026-05-02T10:51:33Z</time></trkpt><trkpt lat="42.14678922467314" lon="13.695972378391765"><ele>644.0</ele><time>2026-05-02T10:51:34Z</time></trkpt><trkpt lat="42.14671519153227" lon="13.69593653249793"><ele>644.0</ele><time>2026-05-02T10:51:35Z</time></trkpt><trkpt lat="42.14662769282085" lon="13.695907997925339"><ele>644.0</ele><time>2026-05-02T10:51:36Z</time></trkpt><trkpt lat="42.146547822333225" lon="13.695892855340508"><ele>644.0</ele><time>2026-05-02T10:51:37Z</time></trkpt><trkpt lat="42.146464329366935" lon="13.69586566983057"><ele>644.0</ele><time>2026-05-02T10:51:38Z</time></trkpt><trkpt lat="42.146377428971974" lon="13.69583881697025"><ele>644.0</ele><time>2026-05-02T10:51:39Z</time></trkpt><trkpt lat="42.1462902503174" lon="13.695823504576113"><ele>644.0</ele><time>2026-05-02T10:51:40Z</time></trkpt><trkpt lat="42.146197538774885" lon="13.695826722871528"><ele>641.6</ele><time>2026-05-02T10:51:41Z</time></trkpt><trkpt lat="42.14610675711595" lon="13.695844210352497"><ele>639.2</ele><time>2026-05-02T10:51:42Z</time></trkpt><trkpt lat="42.14601385437862" lon="13.695880127847756"><ele>636.8000000000001</ele><time>2026-05-02T10:51:43Z</time></trkpt><trkpt lat="42.14591928428396" lon="13.695921326845493"><ele>634.4000000000001</ele><time>2026-05-02T10:51:44Z</time></trkpt><trkpt lat="42.145814727937115" lon="13.695957883452637"><ele>632.0</ele><time>2026-05-02T10:51:45Z</time></trkpt><trkpt lat="42.14570886084445" lon="13.696000268864235"><ele>629.6</ele><time>2026-05-02T10:51:46Z</time></trkpt><trkpt lat="42.14560148206055" lon="13.696049720557529"><ele>627.2</ele><time>2026-05-02T10:51:47Z</time></trkpt><trkpt lat="42.14549716320091" lon="13.696098962771433"><ele>624.8</ele><time>2026-05-02T10:51:48Z</time></trkpt><trkpt lat="42.14539521796204" lon="13.696149041151346"><ele>622.4</ele><time>2026-05-02T10:51:49Z</time></trkpt><trkpt lat="42.145292693260224" lon="13.69619294272806"><ele>620.0</ele><time>2026-05-02T10:51:50Z</time></trkpt><trkpt lat="42.14518890256508" lon="13.69623341895062"><ele>620.0</ele><time>2026-05-02T10:51:51Z</time></trkpt><trkpt lat="42.145082268572615" lon="13.696266322100357"><ele>620.0</ele><time>2026-05-02T10:51:52Z</time></trkpt><trkpt lat="42.144969724901756" lon="13.696290494701193"><ele>620.0</ele><time>2026-05-02T10:51:53Z</time></trkpt><trkpt lat="42.144851792488474" lon="13.696308183062952"><ele>620.0</ele><time>2026-05-02T10:51:54Z</time></trkpt><trkpt lat="42.14473451466545" lon="13.696323007032"><ele>617.8</ele><time>2026-05-02T10:51:55Z</time></trkpt><trkpt lat="42.144619358472745" lon="13.696337933685477"><ele>615.6</ele><time>2026-05-02T10:51:56Z</time></trkpt><trkpt lat="42.14450771701478" lon="13.696352949152828"><ele>613.4</ele><time>2026-05-02T10:51:57Z</time></trkpt><trkpt lat="42.144402995004356" lon="13.696375071025198"><ele>611.2</ele><time>2026-05-02T10:51:58Z</time></trkpt><trkpt lat="42.144304572312194" lon="13.696412472164539"><ele>609.0</ele><time>2026-05-02T10:51:59Z</time></trkpt><trkpt lat="42.144213565440246" lon="13.696460491447057"><ele>609.0</ele><time>2026-05-02T10:52:00Z</time></trkpt><trkpt lat="42.1441267237623" lon="13.69652152140661"><ele>609.0</ele><time>2026-05-02T10:52:01Z</time></trkpt><trkpt lat="42.14404130031401" lon="13.696607238274678"><ele>609.0</ele><time>2026-05-02T10:52:02Z</time></trkpt><trkpt lat="42.143952176350574" lon="13.69670625231884"><ele>609.0</ele><time>2026-05-02T10:52:03Z</time></trkpt><trkpt lat="42.14386097207462" lon="13.696795954982177"><ele>609.0</ele><time>2026-05-02T10:52:04Z</time></trkpt><trkpt lat="42.14376592173062" lon="13.696867204353767"><ele>606.2</ele><time>2026-05-02T10:52:05Z</time></trkpt><trkpt lat="42.143665089336025" lon="13.696924852521526"><ele>603.4</ele><time>2026-05-02T10:52:06Z</time></trkpt><trkpt lat="42.14356132905149" lon="13.696976639009996"><ele>600.6</ele><time>2026-05-02T10:52:07Z</time></trkpt><trkpt lat="42.14345660858954" lon="13.697034193865328"><ele>597.8</ele><time>2026-05-02T10:52:08Z</time></trkpt><trkpt lat="42.143351776175614" lon="13.697101106024393"><ele>595.0</ele><time>2026-05-02T10:52:09Z</time></trkpt><trkpt lat="42.14324547719434" lon="13.697176588956548"><ele>594.0</ele><time>2026-05-02T10:52:10Z</time></trkpt><trkpt lat="42.143144400616315" lon="13.697261964902712"><ele>593.0</ele><time>2026-05-02T10:52:11Z</time></trkpt><trkpt lat="42.14305471454273" lon="13.697340122334415"><ele>592.0</ele><time>2026-05-02T10:52:12Z</time></trkpt><trkpt lat="42.142979287651045" lon="13.697405389041366"><ele>591.0</ele><time>2026-05-02T10:52:13Z</time></trkpt><trkpt lat="42.14291229013007" lon="13.697465192838033"><ele>590.0</ele><time>2026-05-02T10:52:14Z</time></trkpt><trkpt lat="42.142846661033055" lon="13.697519855764828"><ele>590.0000000000001</ele><time>2026-05-02T10:52:15Z</time></trkpt><trkpt lat="42.1427818274784" lon="13.697566095498004"><ele>590.0</ele><time>2026-05-02T10:52:16Z</time></trkpt><trkpt lat="42.14271862215911" lon="13.697611125661563"><ele>590.0</ele><time>2026-05-02T10:52:17Z</time></trkpt><trkpt lat="42.142656831209365" lon="13.697656456469655"><ele>590.0</ele><time>2026-05-02T10:52:18Z</time></trkpt><trkpt lat="42.1425945654263" lon="13.697699890440381"><ele>590.0</ele><time>2026-05-02T10:52:19Z</time></trkpt><trkpt lat="42.14252730182141" lon="13.69774882263195"><ele>590.0000000000001</ele><time>2026-05-02T10:52:20Z</time></trkpt><trkpt lat="42.1424529397382" lon="13.697797228665983"><ele>590.0</ele><time>2026-05-02T10:52:21Z</time></trkpt><trkpt lat="42.14237253479878" lon="13.697853804281909"><ele>587.4</ele><time>2026-05-02T10:52:22Z</time></trkpt><trkpt lat="42.14228476741687" lon="13.697911063388487"><ele>584.8</ele><time>2026-05-02T10:52:23Z</time></trkpt><trkpt lat="42.14219918134752" lon="13.69796055848522"><ele>582.2</ele><time>2026-05-02T10:52:24Z</time></trkpt><trkpt lat="42.142104949988166" lon="13.698007960806832"><ele>579.6</ele><time>2026-05-02T10:52:25Z</time></trkpt><trkpt lat="42.14200913675815" lon="13.698049937393336"><ele>577.0</ele><time>2026-05-02T10:52:26Z</time></trkpt><trkpt lat="42.141910194030125" lon="13.698080533458233"><ele>577.0</ele><time>2026-05-02T10:52:27Z</time></trkpt><trkpt lat="42.1418130314116" lon="13.698103277068345"><ele>577.0</ele><time>2026-05-02T10:52:28Z</time></trkpt><trkpt lat="42.14171685451315" lon="13.698115066639781"><ele>577.0</ele><time>2026-05-02T10:52:29Z</time></trkpt><trkpt lat="42.141618765352355" lon="13.698116778367298"><ele>577.0</ele><time>2026-05-02T10:52:30Z</time></trkpt><trkpt lat="42.141532615502484" lon="13.698106855592828"><ele>577.0</ele><time>2026-05-02T10:52:31Z</time></trkpt><trkpt lat="42.14145480259103" lon="13.6980900836773"><ele>575.0</ele><time>2026-05-02T10:52:32Z</time></trkpt><trkpt lat="42.141379070983305" lon="13.698071249085237"><ele>573.0</ele><time>2026-05-02T10:52:33Z</time></trkpt><trkpt lat="42.14130223136801" lon="13.69804681038514"><ele>571.0</ele><time>2026-05-02T10:52:34Z</time></trkpt><trkpt lat="42.141227185140636" lon="13.698015952354751"><ele>569.0</ele><time>2026-05-02T10:52:35Z</time></trkpt><trkpt lat="42.14115451587679" lon="13.697978327988432"><ele>567.0</ele><time>2026-05-02T10:52:36Z</time></trkpt><trkpt lat="42.141087531745924" lon="13.697935429845545"><ele>565.0</ele><time>2026-05-02T10:52:37Z</time></trkpt><trkpt lat="42.14102789880528" lon="13.697884447832335"><ele>565.0</ele><time>2026-05-02T10:52:38Z</time></trkpt><trkpt lat="42.140944396052774" lon="13.697768817801492"><ele>565.0</ele><time>2026-05-02T10:52:40Z</time></trkpt><trkpt lat="42.14091430101652" lon="13.697670496545436"><ele>565.0</ele><time>2026-05-02T10:52:42Z</time></trkpt><trkpt lat="42.140849270201564" lon="13.697630682759423"><ele>565.0</ele><time>2026-05-02T10:52:45Z</time></trkpt><trkpt lat="42.14078472261576" lon="13.6977598849871"><ele>565.0</ele><time>2026-05-02T10:52:47Z</time></trkpt><trkpt lat="42.14074039780962" lon="13.697879125467491"><ele>565.3333333333334</ele><time>2026-05-02T10:52:48Z</time></trkpt><trkpt lat="42.14068840202113" lon="13.697977866941834"><ele>565.6666666666667</ele><time>2026-05-02T10:52:49Z</time></trkpt><trkpt lat="42.140647453303515" lon="13.698048037365146"><ele>566.0</ele><time>2026-05-02T10:52:50Z</time></trkpt><trkpt lat="42.14059709026612" lon="13.698150033982579"><ele>566.3333333333334</ele><time>2026-05-02T10:52:52Z</time></trkpt><trkpt lat="42.14052249400151" lon="13.698151459900114"><ele>566.6666666666666</ele><time>2026-05-02T10:52:54Z</time></trkpt><trkpt lat="42.14045823072614" lon="13.698029508144714"><ele>567.0</ele><time>2026-05-02T10:52:56Z</time></trkpt><trkpt lat="42.140406711256915" lon="13.697914263147991"><ele>567.0</ele><time>2026-05-02T10:52:57Z</time></trkpt><trkpt lat="42.14035955484043" lon="13.697798245564188"><ele>567.0</ele><time>2026-05-02T10:52:58Z</time></trkpt><trkpt lat="42.14030960532627" lon="13.697707609883459"><ele>567.0</ele><time>2026-05-02T10:52:59Z</time></trkpt><trkpt lat="42.14025227473636" lon="13.697625867590272"><ele>567.0</ele><time>2026-05-02T10:53:00Z</time></trkpt><trkpt lat="42.140189436024635" lon="13.6975463086447"><ele>567.0</ele><time>2026-05-02T10:53:01Z</time></trkpt><trkpt lat="42.14012047039558" lon="13.697465558031634"><ele>567.0</ele><time>2026-05-02T10:53:02Z</time></trkpt><trkpt lat="42.14006315242772" lon="13.697409870091542"><ele>567.0</ele><time>2026-05-02T10:53:03Z</time></trkpt><trkpt lat="42.13998696317567" lon="13.697376116685538"><ele>567.0</ele><time>2026-05-02T10:53:05Z</time></trkpt><trkpt lat="42.13986904328631" lon="13.69739807686642"><ele>567.0</ele><time>2026-05-02T10:53:07Z</time></trkpt><trkpt lat="42.13980321430042" lon="13.697419152498668"><ele>567.0</ele><time>2026-05-02T10:53:08Z</time></trkpt><trkpt lat="42.13973798632595" lon="13.69743925608529"><ele>567.0</ele><time>2026-05-02T10:53:09Z</time></trkpt><trkpt lat="42.13962925412229" lon="13.697429830428398"><ele>567.0</ele><time>2026-05-02T10:53:11Z</time></trkpt><trkpt lat="42.139528914916255" lon="13.697362110273469"><ele>568.4</ele><time>2026-05-02T10:53:13Z</time></trkpt><trkpt lat="42.13945911704618" lon="13.697317965013294"><ele>569.8000000000001</ele><time>2026-05-02T10:53:14Z</time></trkpt><trkpt lat="42.139385312951674" lon="13.697290873683185"><ele>571.2</ele><time>2026-05-02T10:53:15Z</time></trkpt><trkpt lat="42.139247391821854" lon="13.69729716809776"><ele>572.6</ele><time>2026-05-02T10:53:17Z</time></trkpt><trkpt lat="42.139122420971404" lon="13.697290613440924"><ele>574.0</ele><time>2026-05-02T10:53:19Z</time></trkpt><trkpt lat="42.13905974191852" lon="13.697271075903036"><ele>576.2</ele><time>2026-05-02T10:53:20Z</time></trkpt><trkpt lat="42.13895355242811" lon="13.697185969628748"><ele>578.4</ele><time>2026-05-02T10:53:22Z</time></trkpt><trkpt lat="42.138887989249326" lon="13.697126110382843"><ele>580.6</ele><time>2026-05-02T10:53:23Z</time></trkpt><trkpt lat="42.13881573032951" lon="13.69705545267995"><ele>582.8</ele><time>2026-05-02T10:53:24Z</time></trkpt><trkpt lat="42.138764164199266" lon="13.696977197851185"><ele>585.0</ele><time>2026-05-02T10:53:25Z</time></trkpt><trkpt lat="42.1387210041044" lon="13.696886160904166"><ele>585.0</ele><time>2026-05-02T10:53:26Z</time></trkpt><trkpt lat="42.13867909454177" lon="13.696820108544124"><ele>585.0</ele><time>2026-05-02T10:53:27Z</time></trkpt><trkpt lat="42.13862237113598" lon="13.69677042594171"><ele>585.0</ele><time>2026-05-02T10:53:28Z</time></trkpt><trkpt lat="42.13855146241927" lon="13.696731523671847"><ele>585.0</ele><time>2026-05-02T10:53:29Z</time></trkpt><trkpt lat="42.138466751697955" lon="13.696684504098405"><ele>585.0</ele><time>2026-05-02T10:53:30Z</time></trkpt><trkpt lat="42.13836596128719" lon="13.69663206486848"><ele>585.0</ele><time>2026-05-02T10:53:31Z</time></trkpt><trkpt lat="42.1382615158692" lon="13.69657960223568"><ele>585.8333333333334</ele><time>2026-05-02T10:53:32Z</time></trkpt><trkpt lat="42.13817305400824" lon="13.696538678908722"><ele>586.6666666666666</ele><time>2026-05-02T10:53:33Z</time></trkpt><trkpt lat="42.13809069096472" lon="13.696503342781096"><ele>587.5</ele><time>2026-05-02T10:53:34Z</time></trkpt><trkpt lat="42.13801509307348" lon="13.69647346308605"><ele>588.3333333333333</ele><time>2026-05-02T10:53:35Z</time></trkpt><trkpt lat="42.13792288686911" lon="13.696437239377223"><ele>589.1666666666666</ele><time>2026-05-02T10:53:36Z</time></trkpt><trkpt lat="42.13784077743416" lon="13.696407221098946"><ele>590.0</ele><time>2026-05-02T10:53:37Z</time></trkpt><trkpt lat="42.13777011710219" lon="13.696376546231189"><ele>590.0</ele><time>2026-05-02T10:53:38Z</time></trkpt><trkpt lat="42.137657483571424" lon="13.696302285490006"><ele>590.0</ele><time>2026-05-02T10:53:40Z</time></trkpt><trkpt lat="42.13759528788041" lon="13.696247634320583"><ele>590.0</ele><time>2026-05-02T10:53:41Z</time></trkpt><trkpt lat="42.13752834482373" lon="13.696174150625414"><ele>590.0</ele><time>2026-05-02T10:53:42Z</time></trkpt><trkpt lat="42.13745739118552" lon="13.696115015124052"><ele>590.0</ele><time>2026-05-02T10:53:43Z</time></trkpt><trkpt lat="42.13739650681765" lon="13.696082418089075"><ele>590.0</ele><time>2026-05-02T10:53:44Z</time></trkpt><trkpt lat="42.137281611846504" lon="13.69606148070189"><ele>590.6</ele><time>2026-05-02T10:53:46Z</time></trkpt><trkpt lat="42.13718079627859" lon="13.696050944082634"><ele>591.2</ele><time>2026-05-02T10:53:48Z</time></trkpt><trkpt lat="42.1371035846036" lon="13.696082169846118"><ele>591.8</ele><time>2026-05-02T10:53:50Z</time></trkpt><trkpt lat="42.13698929115919" lon="13.696115469904738"><ele>592.4</ele><time>2026-05-02T10:53:52Z</time></trkpt><trkpt lat="42.136924625248845" lon="13.69613304525368"><ele>593.0</ele><time>2026-05-02T10:53:53Z</time></trkpt><trkpt lat="42.136830684384286" lon="13.696142930344779"><ele>593.6</ele><time>2026-05-02T10:53:55Z</time></trkpt><trkpt lat="42.13671022727364" lon="13.696136272333078"><ele>594.1999999999999</ele><time>2026-05-02T10:53:57Z</time></trkpt><trkpt lat="42.136640473635815" lon="13.696129391965426"><ele>594.8</ele><time>2026-05-02T10:53:58Z</time></trkpt><trkpt lat="42.136575046581626" lon="13.69612044101365"><ele>595.4</ele><time>2026-05-02T10:53:59Z</time></trkpt><trkpt lat="42.13645423193813" lon="13.696100036565086"><ele>596.0</ele><time>2026-05-02T10:54:01Z</time></trkpt><trkpt lat="42.136326661158684" lon="13.696079507342862"><ele>596.5</ele><time>2026-05-02T10:54:03Z</time></trkpt><trkpt lat="42.13625389669428" lon="13.696083617011892"><ele>597.0</ele><time>2026-05-02T10:54:04Z</time></trkpt><trkpt lat="42.13616855455936" lon="13.696098648270286"><ele>597.5</ele><time>2026-05-02T10:54:05Z</time></trkpt><trkpt lat="42.13607721422751" lon="13.696111183924192"><ele>598.0</ele><time>2026-05-02T10:54:06Z</time></trkpt><trkpt lat="42.135988145679306" lon="13.696115460051331"><ele>598.5</ele><time>2026-05-02T10:54:07Z</time></trkpt><trkpt lat="42.13590883467277" lon="13.6961177345028"><ele>599.0</ele><time>2026-05-02T10:54:08Z</time></trkpt><trkpt lat="42.13583946826676" lon="13.696110162772555"><ele>599.6666666666666</ele><time>2026-05-02T10:54:09Z</time></trkpt><trkpt lat="42.13576754395681" lon="13.696086968964702"><ele>600.3333333333333</ele><time>2026-05-02T10:54:10Z</time></trkpt><trkpt lat="42.135687220982526" lon="13.696051477208215"><ele>601.0</ele><time>2026-05-02T10:54:11Z</time></trkpt><trkpt lat="42.13559734163648" lon="13.69601137895928"><ele>601.6666666666666</ele><time>2026-05-02T10:54:12Z</time></trkpt><trkpt lat="42.13550529612594" lon="13.695965782561851"><ele>602.3333333333334</ele><time>2026-05-02T10:54:13Z</time></trkpt><trkpt lat="42.135418536296555" lon="13.695921407121958"><ele>603.0</ele><time>2026-05-02T10:54:14Z</time></trkpt><trkpt lat="42.13533535729141" lon="13.695892315029129"><ele>604.6666666666666</ele><time>2026-05-02T10:54:15Z</time></trkpt><trkpt lat="42.13526098622616" lon="13.695877693834413"><ele>606.3333333333334</ele><time>2026-05-02T10:54:16Z</time></trkpt><trkpt lat="42.13519451394775" lon="13.695869775111749"><ele>608.0</ele><time>2026-05-02T10:54:17Z</time></trkpt><trkpt lat="42.13507400155415" lon="13.695894680566262"><ele>609.6666666666667</ele><time>2026-05-02T10:54:19Z</time></trkpt><trkpt lat="42.135010247870014" lon="13.695917662761802"><ele>611.3333333333334</ele><time>2026-05-02T10:54:20Z</time></trkpt><trkpt lat="42.13493770708229" lon="13.69593115221911"><ele>613.0</ele><time>2026-05-02T10:54:21Z</time></trkpt><trkpt lat="42.13487262199834" lon="13.695946715943284"><ele>613.0</ele><time>2026-05-02T10:54:22Z</time></trkpt><trkpt lat="42.13475950911654" lon="13.69596298389132"><ele>613.0</ele><time>2026-05-02T10:54:24Z</time></trkpt><trkpt lat="42.134688048570204" lon="13.695956691594569"><ele>613.0</ele><time>2026-05-02T10:54:25Z</time></trkpt><trkpt lat="42.134608901497856" lon="13.695964810605703"><ele>613.0</ele><time>2026-05-02T10:54:26Z</time></trkpt><trkpt lat="42.134535412739446" lon="13.695979482568381"><ele>613.0</ele><time>2026-05-02T10:54:27Z</time></trkpt><trkpt lat="42.134434865840134" lon="13.696030474073776"><ele>613.0</ele><time>2026-05-02T10:54:29Z</time></trkpt><trkpt lat="42.134357050751966" lon="13.69610257177719"><ele>613.0</ele><time>2026-05-02T10:54:31Z</time></trkpt><trkpt lat="42.13428234428334" lon="13.696200383319859"><ele>613.0</ele><time>2026-05-02T10:54:33Z</time></trkpt><trkpt lat="42.13424218972171" lon="13.696266099986053"><ele>613.0</ele><time>2026-05-02T10:54:34Z</time></trkpt><trkpt lat="42.13416578176449" lon="13.69640099515771"><ele>613.0</ele><time>2026-05-02T10:54:36Z</time></trkpt><trkpt lat="42.134080474422014" lon="13.696523897762434"><ele>613.0</ele><time>2026-05-02T10:54:38Z</time></trkpt><trkpt lat="42.13403583486235" lon="13.696588055531539"><ele>613.1428571428571</ele><time>2026-05-02T10:54:39Z</time></trkpt><trkpt lat="42.13398879160896" lon="13.696648980759873"><ele>613.2857142857142</ele><time>2026-05-02T10:54:40Z</time></trkpt><trkpt lat="42.13393456990319" lon="13.696707017144108"><ele>613.4285714285713</ele><time>2026-05-02T10:54:41Z</time></trkpt><trkpt lat="42.1338758212138" lon="13.696761144212967"><ele>613.5714285714286</ele><time>2026-05-02T10:54:42Z</time></trkpt><trkpt lat="42.133813804181656" lon="13.696820382918174"><ele>613.7142857142857</ele><time>2026-05-02T10:54:43Z</time></trkpt><trkpt lat="42.13375971102431" lon="13.696881725722864"><ele>613.8571428571428</ele><time>2026-05-02T10:54:44Z</time></trkpt><trkpt lat="42.13370777771591" lon="13.696951530263384"><ele>614.0</ele><time>2026-05-02T10:54:45Z</time></trkpt><trkpt lat="42.13365753388943" lon="13.697017061492135"><ele>612.6666666666666</ele><time>2026-05-02T10:54:46Z</time></trkpt><trkpt lat="42.13360774958727" lon="13.697086890923117"><ele>611.3333333333333</ele><time>2026-05-02T10:54:47Z</time></trkpt><trkpt lat="42.1335616407919" lon="13.697149978812352"><ele>610.0</ele><time>2026-05-02T10:54:48Z</time></trkpt><trkpt lat="42.13349326592738" lon="13.69724925155246"><ele>608.6666666666666</ele><time>2026-05-02T10:54:50Z</time></trkpt><trkpt lat="42.13344115426881" lon="13.697318919890094"><ele>607.3333333333334</ele><time>2026-05-02T10:54:51Z</time></trkpt><trkpt lat="42.13338022635005" lon="13.697405579538023"><ele>606.0</ele><time>2026-05-02T10:54:52Z</time></trkpt><trkpt lat="42.13331965262994" lon="13.697481886081645"><ele>606.0</ele><time>2026-05-02T10:54:53Z</time></trkpt><trkpt lat="42.133261758108624" lon="13.697557637297821"><ele>606.0</ele><time>2026-05-02T10:54:54Z</time></trkpt><trkpt lat="42.13319737891031" lon="13.697634873323423"><ele>606.0</ele><time>2026-05-02T10:54:55Z</time></trkpt><trkpt lat="42.1331236304434" lon="13.697713092864133"><ele>606.0</ele><time>2026-05-02T10:54:56Z</time></trkpt><trkpt lat="42.13304552956288" lon="13.697802486799233"><ele>606.0</ele><time>2026-05-02T10:54:57Z</time></trkpt><trkpt lat="42.13296861908729" lon="13.697900810348104"><ele>607.4</ele><time>2026-05-02T10:54:58Z</time></trkpt><trkpt lat="42.13289594378949" lon="13.697993534733312"><ele>608.8</ele><time>2026-05-02T10:54:59Z</time></trkpt><trkpt lat="42.1328215104868" lon="13.69808722617936"><ele>610.1999999999999</ele><time>2026-05-02T10:55:00Z</time></trkpt><trkpt lat="42.13274648779629" lon="13.698173211925909"><ele>611.6</ele><time>2026-05-02T10:55:01Z</time></trkpt><trkpt lat="42.13267526057112" lon="13.698235806848201"><ele>613.0</ele><time>2026-05-02T10:55:02Z</time></trkpt><trkpt lat="42.13260284126507" lon="13.698302473195394"><ele>613.0</ele><time>2026-05-02T10:55:03Z</time></trkpt><trkpt lat="42.1325441676635" lon="13.698389866909299"><ele>613.0</ele><time>2026-05-02T10:55:04Z</time></trkpt><trkpt lat="42.13250487083179" lon="13.698498379350724"><ele>613.0</ele><time>2026-05-02T10:55:05Z</time></trkpt><trkpt lat="42.13246391757713" lon="13.698633334960801"><ele>613.0</ele><time>2026-05-02T10:55:06Z</time></trkpt><trkpt lat="42.13242963012346" lon="13.698759609511677"><ele>613.0</ele><time>2026-05-02T10:55:07Z</time></trkpt><trkpt lat="42.13240148927789" lon="13.698871066805946"><ele>613.4</ele><time>2026-05-02T10:55:08Z</time></trkpt><trkpt lat="42.13236493016021" lon="13.698979877936512"><ele>613.8</ele><time>2026-05-02T10:55:09Z</time></trkpt><trkpt lat="42.13232235634567" lon="13.699082737745242"><ele>614.2</ele><time>2026-05-02T10:55:10Z</time></trkpt><trkpt lat="42.132266486319004" lon="13.69919806324416"><ele>614.6</ele><time>2026-05-02T10:55:11Z</time></trkpt><trkpt lat="42.132198071059584" lon="13.69931101482171"><ele>615.0</ele><time>2026-05-02T10:55:12Z</time></trkpt><trkpt lat="42.132128710452925" lon="13.699424016464636"><ele>615.0</ele><time>2026-05-02T10:55:13Z</time></trkpt><trkpt lat="42.132064008495256" lon="13.699528497971562"><ele>615.0</ele><time>2026-05-02T10:55:14Z</time></trkpt><trkpt lat="42.13198872499085" lon="13.699633154060704"><ele>615.0</ele><time>2026-05-02T10:55:15Z</time></trkpt><trkpt lat="42.13190619697855" lon="13.69974625607128"><ele>615.0</ele><time>2026-05-02T10:55:16Z</time></trkpt><trkpt lat="42.13183058507758" lon="13.699854231441197"><ele>615.0</ele><time>2026-05-02T10:55:17Z</time></trkpt><trkpt lat="42.13176493008223" lon="13.699947595556987"><ele>615.0</ele><time>2026-05-02T10:55:18Z</time></trkpt><trkpt lat="42.13170474619125" lon="13.70001820345081"><ele>615.0</ele><time>2026-05-02T10:55:19Z</time></trkpt><trkpt lat="42.1316481526607" lon="13.700077915427787"><ele>615.0</ele><time>2026-05-02T10:55:20Z</time></trkpt><trkpt lat="42.131593727216135" lon="13.700127675392649"><ele>615.0</ele><time>2026-05-02T10:55:21Z</time></trkpt><trkpt lat="42.13153562837646" lon="13.700170442646554"><ele>615.0</ele><time>2026-05-02T10:55:22Z</time></trkpt><trkpt lat="42.1314441245474" lon="13.700227671122263"><ele>615.0</ele><time>2026-05-02T10:55:24Z</time></trkpt><trkpt lat="42.13138872979864" lon="13.700284706749185"><ele>615.3333333333334</ele><time>2026-05-02T10:55:26Z</time></trkpt><trkpt lat="42.13132406956377" lon="13.700362014026432"><ele>615.6666666666666</ele><time>2026-05-02T10:55:28Z</time></trkpt><trkpt lat="42.13127932231203" lon="13.70042636187225"><ele>616.0</ele><time>2026-05-02T10:55:29Z</time></trkpt><trkpt lat="42.13123717042257" lon="13.700511728584045"><ele>616.3333333333333</ele><time>2026-05-02T10:55:30Z</time></trkpt><trkpt lat="42.13118813686742" lon="13.70060860365753"><ele>616.6666666666666</ele><time>2026-05-02T10:55:31Z</time></trkpt><trkpt lat="42.131129331475684" lon="13.700710752652604"><ele>617.0</ele><time>2026-05-02T10:55:32Z</time></trkpt><trkpt lat="42.131062642263494" lon="13.70080518371679"><ele>617.0</ele><time>2026-05-02T10:55:33Z</time></trkpt><trkpt lat="42.13097669110425" lon="13.700893200025574"><ele>617.0</ele><time>2026-05-02T10:55:34Z</time></trkpt><trkpt lat="42.13088558946977" lon="13.700975709949851"><ele>617.0</ele><time>2026-05-02T10:55:35Z</time></trkpt><trkpt lat="42.13079580095442" lon="13.701053415413671"><ele>617.0</ele><time>2026-05-02T10:55:36Z</time></trkpt><trkpt lat="42.13070892888728" lon="13.701135851861276"><ele>617.0</ele><time>2026-05-02T10:55:37Z</time></trkpt><trkpt lat="42.13062746773625" lon="13.701226235221025"><ele>619.0</ele><time>2026-05-02T10:55:38Z</time></trkpt><trkpt lat="42.13054829267554" lon="13.701319814124023"><ele>621.0</ele><time>2026-05-02T10:55:39Z</time></trkpt><trkpt lat="42.13047613093428" lon="13.701408284662097"><ele>623.0</ele><time>2026-05-02T10:55:40Z</time></trkpt><trkpt lat="42.13040944093006" lon="13.701488686751832"><ele>625.0</ele><time>2026-05-02T10:55:41Z</time></trkpt><trkpt lat="42.130352723593035" lon="13.701552834977608"><ele>627.0</ele><time>2026-05-02T10:55:42Z</time></trkpt><trkpt lat="42.130295990883866" lon="13.701614891048525"><ele>629.0</ele><time>2026-05-02T10:55:43Z</time></trkpt><trkpt lat="42.130242571545566" lon="13.701668796311699"><ele>629.0</ele><time>2026-05-02T10:55:44Z</time></trkpt><trkpt lat="42.13016249513201" lon="13.701725142736864"><ele>629.0</ele><time>2026-05-02T10:55:46Z</time></trkpt><trkpt lat="42.13009410726369" lon="13.701708475508205"><ele>629.0</ele><time>2026-05-02T10:55:49Z</time></trkpt><trkpt lat="42.13003011034613" lon="13.701716323952883"><ele>629.0</ele><time>2026-05-02T10:55:50Z</time></trkpt><trkpt lat="42.1300106181543" lon="13.701424143153487"><ele>629.0</ele><time>2026-05-02T10:55:51Z</time></trkpt><trkpt lat="42.129962817326856" lon="13.701338738201342"><ele>629.0</ele><time>2026-05-02T10:55:52Z</time></trkpt><trkpt lat="42.12992144206496" lon="13.70125362986461"><ele>629.0</ele><time>2026-05-02T10:55:53Z</time></trkpt><trkpt lat="42.12989677392486" lon="13.701151513112327"><ele>629.0</ele><time>2026-05-02T10:55:54Z</time></trkpt><trkpt lat="42.12985694736383" lon="13.701054100995549"><ele>629.0</ele><time>2026-05-02T10:55:55Z</time></trkpt><trkpt lat="42.12980256587711" lon="13.700961962055523"><ele>629.0</ele><time>2026-05-02T10:55:56Z</time></trkpt><trkpt lat="42.129761073919475" lon="13.700854622016596"><ele>629.0</ele><time>2026-05-02T10:55:57Z</time></trkpt><trkpt lat="42.12971906243925" lon="13.70075670922526"><ele>631.6666666666666</ele><time>2026-05-02T10:55:58Z</time></trkpt><trkpt lat="42.12968042024561" lon="13.700667898127548"><ele>634.3333333333333</ele><time>2026-05-02T10:55:59Z</time></trkpt><trkpt lat="42.12963831687079" lon="13.700581562937288"><ele>637.0</ele><time>2026-05-02T10:56:00Z</time></trkpt><trkpt lat="42.12959282709376" lon="13.700495125517422"><ele>639.6666666666666</ele><time>2026-05-02T10:56:01Z</time></trkpt><trkpt lat="42.1295521334185" lon="13.700420608833664"><ele>642.3333333333334</ele><time>2026-05-02T10:56:02Z</time></trkpt><trkpt lat="42.12950765714065" lon="13.700346374757343"><ele>645.0</ele><time>2026-05-02T10:56:03Z</time></trkpt><trkpt lat="42.12940857534342" lon="13.700257929065536"><ele>647.0</ele><time>2026-05-02T10:56:05Z</time></trkpt><trkpt lat="42.12931537603429" lon="13.7002351799286"><ele>649.0</ele><time>2026-05-02T10:56:07Z</time></trkpt><trkpt lat="42.12917626357606" lon="13.700242942042895"><ele>651.0</ele><time>2026-05-02T10:56:08Z</time></trkpt><trkpt lat="42.129091014857615" lon="13.700138872005413"><ele>653.0</ele><time>2026-05-02T10:56:10Z</time></trkpt><trkpt lat="42.12902041136339" lon="13.700083540085302"><ele>655.0</ele><time>2026-05-02T10:56:13Z</time></trkpt><trkpt lat="42.129027290035374" lon="13.699856738009252"><ele>656.6</ele><time>2026-05-02T10:56:14Z</time></trkpt><trkpt lat="42.12896590307434" lon="13.699922964911668"><ele>658.2</ele><time>2026-05-02T10:56:16Z</time></trkpt><trkpt lat="42.128879153059735" lon="13.700029964263107"><ele>659.8</ele><time>2026-05-02T10:56:18Z</time></trkpt><trkpt lat="42.12880022722734" lon="13.700067756018285"><ele>661.4</ele><time>2026-05-02T10:56:21Z</time></trkpt><trkpt lat="42.128748971348344" lon="13.700128306081865"><ele>663.0</ele><time>2026-05-02T10:56:25Z</time></trkpt><trkpt lat="42.12871560990313" lon="13.69990719337422"><ele>663.0</ele><time>2026-05-02T10:56:29Z</time></trkpt><trkpt lat="42.12866857446314" lon="13.699839481206984"><ele>663.0</ele><time>2026-05-02T10:56:32Z</time></trkpt><trkpt lat="42.12852279472407" lon="13.69990552428272"><ele>663.0</ele><time>2026-05-02T10:56:34Z</time></trkpt><trkpt lat="42.128409341632455" lon="13.69994833941436"><ele>663.0</ele><time>2026-05-02T10:56:36Z</time></trkpt><trkpt lat="42.12830307006927" lon="13.699986306315484"><ele>665.1666666666666</ele><time>2026-05-02T10:56:38Z</time></trkpt><trkpt lat="42.12818655385628" lon="13.700025910588673"><ele>667.3333333333334</ele><time>2026-05-02T10:56:40Z</time></trkpt><trkpt lat="42.12811931193334" lon="13.700048766354737"><ele>669.5</ele><time>2026-05-02T10:56:41Z</time></trkpt><trkpt lat="42.12804766210486" lon="13.700072000392543"><ele>671.6666666666667</ele><time>2026-05-02T10:56:42Z</time></trkpt><trkpt lat="42.12798331580443" lon="13.700090920056958"><ele>673.8333333333334</ele><time>2026-05-02T10:56:43Z</time></trkpt><trkpt lat="42.127917748410646" lon="13.700109165086937"><ele>676.0</ele><time>2026-05-02T10:56:44Z</time></trkpt><trkpt lat="42.12785240521802" lon="13.700144040651306"><ele>676.0</ele><time>2026-05-02T10:56:45Z</time></trkpt><trkpt lat="42.12778237956548" lon="13.700156224677935"><ele>676.0</ele><time>2026-05-02T10:56:46Z</time></trkpt><trkpt lat="42.12770944832288" lon="13.700169380874424"><ele>676.0</ele><time>2026-05-02T10:56:47Z</time></trkpt><trkpt lat="42.127633405143264" lon="13.70015928703622"><ele>676.0</ele><time>2026-05-02T10:56:48Z</time></trkpt><trkpt lat="42.12755820452963" lon="13.700162770386314"><ele>676.0</ele><time>2026-05-02T10:56:49Z</time></trkpt><trkpt lat="42.12748133604264" lon="13.70016105643276"><ele>676.0</ele><time>2026-05-02T10:56:50Z</time></trkpt><trkpt lat="42.12739813757026" lon="13.700154373528235"><ele>674.3333333333334</ele><time>2026-05-02T10:56:51Z</time></trkpt><trkpt lat="42.127297978767025" lon="13.700143008663561"><ele>672.6666666666667</ele><time>2026-05-02T10:56:53Z</time></trkpt><trkpt lat="42.12722519224753" lon="13.700133687868803"><ele>671.0</ele><time>2026-05-02T10:56:57Z</time></trkpt><trkpt lat="42.12716048535191" lon="13.700147152734688"><ele>669.3333333333334</ele><time>2026-05-02T10:57:01Z</time></trkpt><trkpt lat="42.127096294902344" lon="13.700120054946723"><ele>667.6666666666666</ele><time>2026-05-02T10:57:07Z</time></trkpt><trkpt lat="42.12704340533881" lon="13.70006886035923"><ele>666.0</ele><time>2026-05-02T10:57:09Z</time></trkpt><trkpt lat="42.127107588193624" lon="13.69987828255954"><ele>666.0</ele><time>2026-05-02T10:57:13Z</time></trkpt><trkpt lat="42.12715972114223" lon="13.699829398320889"><ele>666.0</ele><time>2026-05-02T10:57:15Z</time></trkpt><trkpt lat="42.12722130850981" lon="13.699880674604344"><ele>666.0</ele><time>2026-05-02T10:57:17Z</time></trkpt><trkpt lat="42.12728912980136" lon="13.699890291820711"><ele>666.0</ele><time>2026-05-02T10:57:25Z</time></trkpt><trkpt lat="42.12730087138716" lon="13.700188328451453"><ele>666.0</ele><time>2026-05-02T10:57:26Z</time></trkpt><trkpt lat="42.12736650667269" lon="13.700196235362043"><ele>666.0</ele><time>2026-05-02T10:57:29Z</time></trkpt><trkpt lat="42.12744177085257" lon="13.700203360971658"><ele>666.0</ele><time>2026-05-02T10:57:34Z</time></trkpt><trkpt lat="42.12723984386757" lon="13.700180502908056"><ele>666.0</ele><time>2026-05-02T10:58:40Z</time></trkpt><trkpt lat="42.12715535840425" lon="13.700169669354105"><ele>666.0</ele><time>2026-05-02T10:58:45Z</time></trkpt><trkpt lat="42.12708457275376" lon="13.700160592527432"><ele>666.0</ele><time>2026-05-02T10:58:50Z</time></trkpt><trkpt lat="42.127175798274244" lon="13.700172290382595"><ele>666.0</ele><time>2026-05-02T10:58:55Z</time></trkpt><trkpt lat="42.1270821877953" lon="13.700204150758477"><ele>666.0</ele><time>2026-05-02T10:59:02Z</time></trkpt><trkpt lat="42.12697447404715" lon="13.700157360416569"><ele>666.0</ele><time>2026-05-02T10:59:04Z</time></trkpt><trkpt lat="42.12688296312772" lon="13.700050490859798"><ele>666.0</ele><time>2026-05-02T10:59:06Z</time></trkpt><trkpt lat="42.126855635712616" lon="13.699968762740356"><ele>666.0</ele><time>2026-05-02T10:59:07Z</time></trkpt><trkpt lat="42.126819787187024" lon="13.699892792387697"><ele>666.0</ele><time>2026-05-02T10:59:08Z</time></trkpt><trkpt lat="42.126773999499015" lon="13.69975283094419"><ele>666.0</ele><time>2026-05-02T10:59:10Z</time></trkpt><trkpt lat="42.126759121987696" lon="13.699622329265187"><ele>666.0</ele><time>2026-05-02T10:59:12Z</time></trkpt><trkpt lat="42.126730288995915" lon="13.699505513509015"><ele>666.0</ele><time>2026-05-02T10:59:14Z</time></trkpt><trkpt lat="42.12669394429284" lon="13.699419204677646"><ele>666.0</ele><time>2026-05-02T10:59:16Z</time></trkpt><trkpt lat="42.126627302405836" lon="13.699406438197464"><ele>666.0</ele><time>2026-05-02T10:59:18Z</time></trkpt><trkpt lat="42.1265380968817" lon="13.699447467915732"><ele>664.8</ele><time>2026-05-02T10:59:20Z</time></trkpt><trkpt lat="42.12644292799221" lon="13.699388074266361"><ele>663.5999999999999</ele><time>2026-05-02T10:59:22Z</time></trkpt><trkpt lat="42.126350477195246" lon="13.699373162846914"><ele>662.4</ele><time>2026-05-02T10:59:24Z</time></trkpt><trkpt lat="42.12627845409896" lon="13.699361546208308"><ele>661.2</ele><time>2026-05-02T10:59:26Z</time></trkpt><trkpt lat="42.126237704138745" lon="13.69945007007424"><ele>660.0</ele><time>2026-05-02T10:59:27Z</time></trkpt><trkpt lat="42.126265958683426" lon="13.699268156755434"><ele>660.0</ele><time>2026-05-02T10:59:28Z</time></trkpt><trkpt lat="42.12625095304762" lon="13.6991719931245"><ele>660.0</ele><time>2026-05-02T10:59:29Z</time></trkpt><trkpt lat="42.12622147135131" lon="13.699086702717398"><ele>660.0</ele><time>2026-05-02T10:59:30Z</time></trkpt><trkpt lat="42.126160017009305" lon="13.699028250359143"><ele>660.0</ele><time>2026-05-02T10:59:31Z</time></trkpt><trkpt lat="42.12609225744394" lon="13.698925696875227"><ele>660.0</ele><time>2026-05-02T10:59:33Z</time></trkpt><trkpt lat="42.12608067539021" lon="13.698839503388529"><ele>660.0</ele><time>2026-05-02T10:59:34Z</time></trkpt><trkpt lat="42.126076734739684" lon="13.698717124774896"><ele>661.2</ele><time>2026-05-02T10:59:35Z</time></trkpt><trkpt lat="42.12608087426833" lon="13.698584252332617"><ele>662.4</ele><time>2026-05-02T10:59:36Z</time></trkpt><trkpt lat="42.126091122418245" lon="13.698448984756578"><ele>663.5999999999999</ele><time>2026-05-02T10:59:37Z</time></trkpt><trkpt lat="42.12609426120895" lon="13.698312249031957"><ele>664.8</ele><time>2026-05-02T10:59:38Z</time></trkpt><trkpt lat="42.12610468758494" lon="13.698176994602221"><ele>666.0</ele><time>2026-05-02T10:59:39Z</time></trkpt><trkpt lat="42.12610541002974" lon="13.698043961255268"><ele>666.0</ele><time>2026-05-02T10:59:40Z</time></trkpt><trkpt lat="42.126101062794" lon="13.697931100240908"><ele>666.0</ele><time>2026-05-02T10:59:41Z</time></trkpt><trkpt lat="42.12609982024936" lon="13.697808707006514"><ele>666.0</ele><time>2026-05-02T10:59:42Z</time></trkpt><trkpt lat="42.12608987450362" lon="13.697700915702965"><ele>666.0</ele><time>2026-05-02T10:59:43Z</time></trkpt><trkpt lat="42.126071847639864" lon="13.697570004264973"><ele>666.0</ele><time>2026-05-02T10:59:44Z</time></trkpt><trkpt lat="42.126045322241325" lon="13.697448431696825"><ele>666.0</ele><time>2026-05-02T10:59:45Z</time></trkpt><trkpt lat="42.12601815735378" lon="13.697341491022451"><ele>668.1999999999999</ele><time>2026-05-02T10:59:46Z</time></trkpt><trkpt lat="42.125996337603" lon="13.697227122031016"><ele>670.4</ele><time>2026-05-02T10:59:47Z</time></trkpt><trkpt lat="42.125970747639414" lon="13.697103801779727"><ele>672.6</ele><time>2026-05-02T10:59:48Z</time></trkpt><trkpt lat="42.12594077998168" lon="13.696982741603733"><ele>674.8</ele><time>2026-05-02T10:59:49Z</time></trkpt><trkpt lat="42.12590749756702" lon="13.696857203550438"><ele>677.0</ele><time>2026-05-02T10:59:50Z</time></trkpt><trkpt lat="42.12587632268456" lon="13.696726197047415"><ele>679.4000000000001</ele><time>2026-05-02T10:59:51Z</time></trkpt><trkpt lat="42.125851824170205" lon="13.696592059224736"><ele>681.8000000000001</ele><time>2026-05-02T10:59:52Z</time></trkpt><trkpt lat="42.12582461544509" lon="13.69645712064983"><ele>684.2</ele><time>2026-05-02T10:59:53Z</time></trkpt><trkpt lat="42.12579838975061" lon="13.696328959466008"><ele>686.6</ele><time>2026-05-02T10:59:54Z</time></trkpt><trkpt lat="42.125772951352275" lon="13.69619578516805"><ele>689.0</ele><time>2026-05-02T10:59:55Z</time></trkpt><trkpt lat="42.12575457803999" lon="13.696066143700603"><ele>692.5</ele><time>2026-05-02T10:59:56Z</time></trkpt><trkpt lat="42.125730448009485" lon="13.695930090508817"><ele>696.0</ele><time>2026-05-02T10:59:57Z</time></trkpt><trkpt lat="42.12569852832063" lon="13.695794275454997"><ele>699.5</ele><time>2026-05-02T10:59:58Z</time></trkpt><trkpt lat="42.125666620171664" lon="13.695644671710353"><ele>703.0</ele><time>2026-05-02T10:59:59Z</time></trkpt><trkpt lat="42.12564954646451" lon="13.695475581019966"><ele>704.75</ele><time>2026-05-02T11:00:00Z</time></trkpt><trkpt lat="42.125615311259395" lon="13.695300883150322"><ele>706.5</ele><time>2026-05-02T11:00:01Z</time></trkpt><trkpt lat="42.12557866266936" lon="13.695108706257988"><ele>708.25</ele><time>2026-05-02T11:00:02Z</time></trkpt><trkpt lat="42.12553477800348" lon="13.694918505857775"><ele>710.0</ele><time>2026-05-02T11:00:03Z</time></trkpt><trkpt lat="42.125495767462134" lon="13.694724344130018"><ele>714.75</ele><time>2026-05-02T11:00:04Z</time></trkpt><trkpt lat="42.12545940595205" lon="13.694555820683583"><ele>719.5</ele><time>2026-05-02T11:00:05Z</time></trkpt><trkpt lat="42.12542722283986" lon="13.694399963494323"><ele>724.25</ele><time>2026-05-02T11:00:06Z</time></trkpt><trkpt lat="42.12539153845061" lon="13.694268091585162"><ele>729.0</ele><time>2026-05-02T11:00:07Z</time></trkpt><trkpt lat="42.12535264273981" lon="13.694148557731728"><ele>730.0</ele><time>2026-05-02T11:00:08Z</time></trkpt><trkpt lat="42.12532718629097" lon="13.69403775831845"><ele>731.0</ele><time>2026-05-02T11:00:09Z</time></trkpt><trkpt lat="42.12529007094878" lon="13.69395006088106"><ele>732.0</ele><time>2026-05-02T11:00:10Z</time></trkpt><trkpt lat="42.12520969914574" lon="13.693850662511922"><ele>733.0</ele><time>2026-05-02T11:00:12Z</time></trkpt><trkpt lat="42.12515459255171" lon="13.693705373425857"><ele>734.0</ele><time>2026-05-02T11:00:14Z</time></trkpt><trkpt lat="42.12511271979262" lon="13.693542725286877"><ele>735.3333333333333</ele><time>2026-05-02T11:00:16Z</time></trkpt><trkpt lat="42.12508273696575" lon="13.693465878368901"><ele>736.6666666666666</ele><time>2026-05-02T11:00:17Z</time></trkpt><trkpt lat="42.12505047781231" lon="13.693387994586434"><ele>738.0</ele><time>2026-05-02T11:00:18Z</time></trkpt><trkpt lat="42.1249815739089" lon="13.693252778492667"><ele>739.3333333333334</ele><time>2026-05-02T11:00:20Z</time></trkpt><trkpt lat="42.124896752036065" lon="13.693128229741111"><ele>740.6666666666667</ele><time>2026-05-02T11:00:22Z</time></trkpt><trkpt lat="42.12484853658949" lon="13.693064106331322"><ele>742.0</ele><time>2026-05-02T11:00:23Z</time></trkpt><trkpt lat="42.12479990385541" lon="13.692999427961325"><ele>746.0</ele><time>2026-05-02T11:00:24Z</time></trkpt><trkpt lat="42.12475074415448" lon="13.692934048765093"><ele>750.0</ele><time>2026-05-02T11:00:25Z</time></trkpt><trkpt lat="42.12470528668646" lon="13.692873593219602"><ele>754.0</ele><time>2026-05-02T11:00:26Z</time></trkpt><trkpt lat="42.124649265909156" lon="13.692810502826893"><ele>758.0</ele><time>2026-05-02T11:00:27Z</time></trkpt><trkpt lat="42.12458618310937" lon="13.69274532238425"><ele>762.0</ele><time>2026-05-02T11:00:28Z</time></trkpt><trkpt lat="42.12453913649418" lon="13.69265780986363"><ele>766.0</ele><time>2026-05-02T11:00:29Z</time></trkpt><trkpt lat="42.12448194577642" lon="13.69256894415282"><ele>766.1666666666667</ele><time>2026-05-02T11:00:30Z</time></trkpt><trkpt lat="42.12441782976396" lon="13.692485297620108"><ele>766.3333333333334</ele><time>2026-05-02T11:00:31Z</time></trkpt><trkpt lat="42.124378247341795" lon="13.69238892620585"><ele>766.5</ele><time>2026-05-02T11:00:32Z</time></trkpt><trkpt lat="42.12434394418444" lon="13.692292723808643"><ele>766.6666666666666</ele><time>2026-05-02T11:00:33Z</time></trkpt><trkpt lat="42.124318759510054" lon="13.692201968660855"><ele>766.8333333333333</ele><time>2026-05-02T11:00:34Z</time></trkpt><trkpt lat="42.12427914898349" lon="13.692053570807015"><ele>767.0</ele><time>2026-05-02T11:00:36Z</time></trkpt><trkpt lat="42.124210380099655" lon="13.6920036608028"><ele>767.0</ele><time>2026-05-02T11:00:38Z</time></trkpt><trkpt lat="42.12410652525734" lon="13.692073719714392"><ele>767.0</ele><time>2026-05-02T11:00:40Z</time></trkpt><trkpt lat="42.124073135227626" lon="13.69214808120317"><ele>767.0</ele><time>2026-05-02T11:00:41Z</time></trkpt><trkpt lat="42.12405318985954" lon="13.692250093744574"><ele>767.0</ele><time>2026-05-02T11:00:42Z</time></trkpt><trkpt lat="42.12404045839615" lon="13.69237115406091"><ele>767.0</ele><time>2026-05-02T11:00:43Z</time></trkpt><trkpt lat="42.12403876674404" lon="13.69251214128235"><ele>771.0</ele><time>2026-05-02T11:00:44Z</time></trkpt><trkpt lat="42.12403543384587" lon="13.692652178293152"><ele>775.0</ele><time>2026-05-02T11:00:45Z</time></trkpt><trkpt lat="42.12404040127387" lon="13.692775086858685"><ele>779.0</ele><time>2026-05-02T11:00:46Z</time></trkpt><trkpt lat="42.124035009810896" lon="13.692903724945632"><ele>783.0</ele><time>2026-05-02T11:00:47Z</time></trkpt><trkpt lat="42.124037062023035" lon="13.693034649166886"><ele>787.0</ele><time>2026-05-02T11:00:48Z</time></trkpt><trkpt lat="42.1240437005647" lon="13.693132817763146"><ele>786.9999999999999</ele><time>2026-05-02T11:00:49Z</time></trkpt><trkpt lat="42.124051586146805" lon="13.693229015396252"><ele>787.0</ele><time>2026-05-02T11:00:50Z</time></trkpt><trkpt lat="42.12405334072342" lon="13.693328964100434"><ele>787.0</ele><time>2026-05-02T11:00:51Z</time></trkpt><trkpt lat="42.124044365229146" lon="13.693417950925694"><ele>787.0</ele><time>2026-05-02T11:00:52Z</time></trkpt><trkpt lat="42.1239808810399" lon="13.693563743046585"><ele>786.9999999999999</ele><time>2026-05-02T11:00:54Z</time></trkpt><trkpt lat="42.123923023373415" lon="13.693636370007333"><ele>787.0</ele><time>2026-05-02T11:00:55Z</time></trkpt><trkpt lat="42.12384825643133" lon="13.693716885370552"><ele>784.6</ele><time>2026-05-02T11:00:56Z</time></trkpt><trkpt lat="42.123770024313316" lon="13.693780962701728"><ele>782.2</ele><time>2026-05-02T11:00:57Z</time></trkpt><trkpt lat="42.123693175803105" lon="13.693823831594337"><ele>779.8</ele><time>2026-05-02T11:00:58Z</time></trkpt><trkpt lat="42.12360271740053" lon="13.693857627662975"><ele>777.4</ele><time>2026-05-02T11:00:59Z</time></trkpt><trkpt lat="42.123493775449155" lon="13.693828320243885"><ele>775.0</ele><time>2026-05-02T11:01:00Z</time></trkpt><trkpt lat="42.12341505685938" lon="13.693865419160073"><ele>774.9999999999999</ele><time>2026-05-02T11:01:01Z</time></trkpt><trkpt lat="42.123346616619365" lon="13.693903524441366"><ele>775.0</ele><time>2026-05-02T11:01:02Z</time></trkpt><trkpt lat="42.123279634370206" lon="13.693947770868018"><ele>775.0</ele><time>2026-05-02T11:01:03Z</time></trkpt><trkpt lat="42.123209748907726" lon="13.694016472820305"><ele>775.0</ele><time>2026-05-02T11:01:04Z</time></trkpt><trkpt lat="42.12313851513229" lon="13.694094975624225"><ele>774.9999999999999</ele><time>2026-05-02T11:01:05Z</time></trkpt><trkpt lat="42.12307310278146" lon="13.694193739729112"><ele>775.0</ele><time>2026-05-02T11:01:06Z</time></trkpt><trkpt lat="42.122999152025564" lon="13.694269458253002"><ele>777.6666666666666</ele><time>2026-05-02T11:01:07Z</time></trkpt><trkpt lat="42.12293886631208" lon="13.694333020005603"><ele>780.3333333333333</ele><time>2026-05-02T11:01:08Z</time></trkpt><trkpt lat="42.1228748730873" lon="13.69439889670824"><ele>783.0</ele><time>2026-05-02T11:01:09Z</time></trkpt><trkpt lat="42.12281434448863" lon="13.69444631743123"><ele>785.6666666666667</ele><time>2026-05-02T11:01:10Z</time></trkpt><trkpt lat="42.12274351511045" lon="13.694488058410881"><ele>788.3333333333334</ele><time>2026-05-02T11:01:11Z</time></trkpt><trkpt lat="42.122666263814764" lon="13.694524046962737"><ele>791.0</ele><time>2026-05-02T11:01:12Z</time></trkpt><trkpt lat="42.12258814119412" lon="13.694553171118065"><ele>791.0000000000001</ele><time>2026-05-02T11:01:13Z</time></trkpt><trkpt lat="42.12250602938546" lon="13.694580846968899"><ele>791.0</ele><time>2026-05-02T11:01:14Z</time></trkpt><trkpt lat="42.12241629982573" lon="13.694606540907843"><ele>791.0</ele><time>2026-05-02T11:01:15Z</time></trkpt><trkpt lat="42.12233404004833" lon="13.6946248557596"><ele>791.0</ele><time>2026-05-02T11:01:16Z</time></trkpt><trkpt lat="42.12225768134122" lon="13.694621824085731"><ele>791.0000000000001</ele><time>2026-05-02T11:01:17Z</time></trkpt><trkpt lat="42.1221877229345" lon="13.694601886544804"><ele>791.0</ele><time>2026-05-02T11:01:18Z</time></trkpt><trkpt lat="42.12212412074684" lon="13.694580873129064"><ele>792.0</ele><time>2026-05-02T11:01:19Z</time></trkpt><trkpt lat="42.12203430082289" lon="13.694548387248869"><ele>793.0</ele><time>2026-05-02T11:01:21Z</time></trkpt><trkpt lat="42.12210669230685" lon="13.694422964386924"><ele>794.0</ele><time>2026-05-02T11:01:30Z</time></trkpt><trkpt lat="42.12215053089745" lon="13.69429839255395"><ele>795.0</ele><time>2026-05-02T11:01:31Z</time></trkpt><trkpt lat="42.12220220140312" lon="13.694190977775795"><ele>796.0</ele><time>2026-05-02T11:01:32Z</time></trkpt><trkpt lat="42.122248478045464" lon="13.694065262568182"><ele>798.75</ele><time>2026-05-02T11:01:33Z</time></trkpt><trkpt lat="42.122297787124154" lon="13.693923857949757"><ele>801.5</ele><time>2026-05-02T11:01:34Z</time></trkpt><trkpt lat="42.12234649445921" lon="13.693777433869167"><ele>804.25</ele><time>2026-05-02T11:01:35Z</time></trkpt><trkpt lat="42.122390644199186" lon="13.693642149509937"><ele>807.0</ele><time>2026-05-02T11:01:36Z</time></trkpt><trkpt lat="42.12243755642327" lon="13.693507179421026"><ele>807.0</ele><time>2026-05-02T11:01:37Z</time></trkpt><trkpt lat="42.12248492152221" lon="13.6933767666528"><ele>807.0</ele><time>2026-05-02T11:01:38Z</time></trkpt><trkpt lat="42.12253133090572" lon="13.693257711438145"><ele>807.0</ele><time>2026-05-02T11:01:39Z</time></trkpt><trkpt lat="42.12257009918102" lon="13.693142290564847"><ele>807.0</ele><time>2026-05-02T11:01:40Z</time></trkpt><trkpt lat="42.122605947710866" lon="13.69302368740669"><ele>807.0</ele><time>2026-05-02T11:01:41Z</time></trkpt><trkpt lat="42.122607954549515" lon="13.692913058079457"><ele>807.0</ele><time>2026-05-02T11:01:42Z</time></trkpt><trkpt lat="42.122572147426226" lon="13.69282086669668"><ele>807.0</ele><time>2026-05-02T11:01:43Z</time></trkpt><trkpt lat="42.12252376109175" lon="13.692746434093378"><ele>807.0</ele><time>2026-05-02T11:01:44Z</time></trkpt><trkpt lat="42.1224377112775" lon="13.692730626723193"><ele>807.0</ele><time>2026-05-02T11:01:45Z</time></trkpt><trkpt lat="42.12233204869817" lon="13.69279082814226"><ele>807.0</ele><time>2026-05-02T11:01:46Z</time></trkpt><trkpt lat="42.12223037223168" lon="13.692876794394527"><ele>812.0</ele><time>2026-05-02T11:01:47Z</time></trkpt><trkpt lat="42.12211564726783" lon="13.692964383851773"><ele>817.0</ele><time>2026-05-02T11:01:48Z</time></trkpt><trkpt lat="42.121992005818605" lon="13.693055716281389"><ele>822.0</ele><time>2026-05-02T11:01:49Z</time></trkpt><trkpt lat="42.121860656735834" lon="13.693149116558443"><ele>827.0</ele><time>2026-05-02T11:01:50Z</time></trkpt><trkpt lat="42.12172909667414" lon="13.69323620069526"><ele>827.0</ele><time>2026-05-02T11:01:51Z</time></trkpt><trkpt lat="42.121607521517184" lon="13.693310928291218"><ele>827.0</ele><time>2026-05-02T11:01:52Z</time></trkpt><trkpt lat="42.1214867745321" lon="13.693378250151795"><ele>827.0</ele><time>2026-05-02T11:01:53Z</time></trkpt><trkpt lat="42.12136600118539" lon="13.693437032898208"><ele>827.0</ele><time>2026-05-02T11:01:54Z</time></trkpt><trkpt lat="42.1212346062105" lon="13.693488796113623"><ele>825.75</ele><time>2026-05-02T11:01:55Z</time></trkpt><trkpt lat="42.121095070017724" lon="13.693531139474615"><ele>824.5</ele><time>2026-05-02T11:01:56Z</time></trkpt><trkpt lat="42.12095107437843" lon="13.693579064556925"><ele>823.25</ele><time>2026-05-02T11:01:57Z</time></trkpt><trkpt lat="42.12081089476875" lon="13.69364032943522"><ele>822.0</ele><time>2026-05-02T11:01:58Z</time></trkpt><trkpt lat="42.12067839782084" lon="13.693696585421224"><ele>827.6666666666667</ele><time>2026-05-02T11:01:59Z</time></trkpt><trkpt lat="42.120538043500716" lon="13.693776868788941"><ele>833.3333333333334</ele><time>2026-05-02T11:02:00Z</time></trkpt><trkpt lat="42.12039262483004" lon="13.693810174464161"><ele>839.0</ele><time>2026-05-02T11:02:01Z</time></trkpt><trkpt lat="42.120246390475465" lon="13.693866765171764"><ele>839.0</ele><time>2026-05-02T11:02:02Z</time></trkpt><trkpt lat="42.12011372151057" lon="13.693923748628118"><ele>839.0</ele><time>2026-05-02T11:02:03Z</time></trkpt><trkpt lat="42.119982761049805" lon="13.693983430007709"><ele>839.0</ele><time>2026-05-02T11:02:04Z</time></trkpt><trkpt lat="42.11985097365031" lon="13.694043202949846"><ele>839.0</ele><time>2026-05-02T11:02:05Z</time></trkpt><trkpt lat="42.119723865971366" lon="13.694100769096703"><ele>845.25</ele><time>2026-05-02T11:02:06Z</time></trkpt><trkpt lat="42.1196010823103" lon="13.694153536491093"><ele>851.5</ele><time>2026-05-02T11:02:07Z</time></trkpt><trkpt lat="42.119480885855175" lon="13.694201496599005"><ele>857.75</ele><time>2026-05-02T11:02:08Z</time></trkpt><trkpt lat="42.11935506707894" lon="13.694242549968168"><ele>864.0</ele><time>2026-05-02T11:02:09Z</time></trkpt><trkpt lat="42.11922326489531" lon="13.694272045059785"><ele>864.0</ele><time>2026-05-02T11:02:10Z</time></trkpt><trkpt lat="42.11908377030978" lon="13.694303136833714"><ele>864.0</ele><time>2026-05-02T11:02:11Z</time></trkpt><trkpt lat="42.11894859036125" lon="13.694337072480113"><ele>864.0</ele><time>2026-05-02T11:02:12Z</time></trkpt><trkpt lat="42.1188174599991" lon="13.694403359508412"><ele>864.0</ele><time>2026-05-02T11:02:13Z</time></trkpt><trkpt lat="42.11869240041887" lon="13.694486708164616"><ele>862.25</ele><time>2026-05-02T11:02:14Z</time></trkpt><trkpt lat="42.11856919138904" lon="13.694567110552933"><ele>860.5</ele><time>2026-05-02T11:02:15Z</time></trkpt><trkpt lat="42.118438034524" lon="13.694652365015799"><ele>858.75</ele><time>2026-05-02T11:02:16Z</time></trkpt><trkpt lat="42.11830563365082" lon="13.694736315250621"><ele>857.0</ele><time>2026-05-02T11:02:17Z</time></trkpt><trkpt lat="42.11817085297328" lon="13.694821117701627"><ele>864.5</ele><time>2026-05-02T11:02:18Z</time></trkpt><trkpt lat="42.118042483838074" lon="13.694904068173663"><ele>872.0</ele><time>2026-05-02T11:02:19Z</time></trkpt><trkpt lat="42.11791118005802" lon="13.694988940635524"><ele>879.5</ele><time>2026-05-02T11:02:20Z</time></trkpt><trkpt lat="42.11778256708329" lon="13.695061673219936"><ele>887.0</ele><time>2026-05-02T11:02:21Z</time></trkpt><trkpt lat="42.11765680821336" lon="13.695121575532076"><ele>887.0</ele><time>2026-05-02T11:02:22Z</time></trkpt><trkpt lat="42.11753122214723" lon="13.69516960865269"><ele>887.0</ele><time>2026-05-02T11:02:23Z</time></trkpt><trkpt lat="42.117398097005335" lon="13.695196400083107"><ele>887.0</ele><time>2026-05-02T11:02:24Z</time></trkpt><trkpt lat="42.11725920534422" lon="13.695220779300099"><ele>887.0</ele><time>2026-05-02T11:02:25Z</time></trkpt><trkpt lat="42.11711489928071" lon="13.695249323323168"><ele>879.0</ele><time>2026-05-02T11:02:26Z</time></trkpt><trkpt lat="42.11696884122226" lon="13.695282433889188"><ele>871.0</ele><time>2026-05-02T11:02:27Z</time></trkpt><trkpt lat="42.11682087055183" lon="13.695320210103455"><ele>863.0</ele><time>2026-05-02T11:02:28Z</time></trkpt><trkpt lat="42.11667257476306" lon="13.695358481514203"><ele>868.25</ele><time>2026-05-02T11:02:29Z</time></trkpt><trkpt lat="42.116522368910324" lon="13.695389898262004"><ele>873.5</ele><time>2026-05-02T11:02:30Z</time></trkpt><trkpt lat="42.11637391214662" lon="13.695420981451365"><ele>878.75</ele><time>2026-05-02T11:02:31Z</time></trkpt><trkpt lat="42.11623160820518" lon="13.69545863758724"><ele>884.0</ele><time>2026-05-02T11:02:32Z</time></trkpt><trkpt lat="42.1160928931463" lon="13.695500514607836"><ele>884.0</ele><time>2026-05-02T11:02:33Z</time></trkpt><trkpt lat="42.11595116333665" lon="13.695546688991636"><ele>884.0</ele><time>2026-05-02T11:02:34Z</time></trkpt><trkpt lat="42.115809596400915" lon="13.695590552889826"><ele>884.0</ele><time>2026-05-02T11:02:35Z</time></trkpt><trkpt lat="42.115660020899206" lon="13.695628627172946"><ele>884.0</ele><time>2026-05-02T11:02:36Z</time></trkpt><trkpt lat="42.115507916280826" lon="13.695664196259296"><ele>890.6666666666667</ele><time>2026-05-02T11:02:37Z</time></trkpt><trkpt lat="42.115352617992265" lon="13.695700484971846"><ele>897.3333333333333</ele><time>2026-05-02T11:02:38Z</time></trkpt><trkpt lat="42.11520388653316" lon="13.695735153162252"><ele>904.0</ele><time>2026-05-02T11:02:39Z</time></trkpt><trkpt lat="42.11504751113529" lon="13.695771603165825"><ele>910.0</ele><time>2026-05-02T11:02:40Z</time></trkpt><trkpt lat="42.11488668010051" lon="13.6958086924593"><ele>916.0</ele><time>2026-05-02T11:02:41Z</time></trkpt><trkpt lat="42.114729340898194" lon="13.69584487630812"><ele>922.0</ele><time>2026-05-02T11:02:42Z</time></trkpt><trkpt lat="42.11456966767407" lon="13.695879192732729"><ele>922.0</ele><time>2026-05-02T11:02:43Z</time></trkpt><trkpt lat="42.11440795503837" lon="13.695915479482203"><ele>922.0</ele><time>2026-05-02T11:02:44Z</time></trkpt><trkpt lat="42.114247311936786" lon="13.695957972310989"><ele>922.0</ele><time>2026-05-02T11:02:45Z</time></trkpt><trkpt lat="42.114093699350924" lon="13.696000473984544"><ele>927.3333333333333</ele><time>2026-05-02T11:02:46Z</time></trkpt><trkpt lat="42.11393904238599" lon="13.696043264531161"><ele>932.6666666666667</ele><time>2026-05-02T11:02:47Z</time></trkpt><trkpt lat="42.1137875096914" lon="13.696087342322931"><ele>938.0</ele><time>2026-05-02T11:02:48Z</time></trkpt><trkpt lat="42.113637649241284" lon="13.696135023816044"><ele>933.0</ele><time>2026-05-02T11:02:49Z</time></trkpt><trkpt lat="42.11349613676399" lon="13.696183095083658"><ele>928.0</ele><time>2026-05-02T11:02:50Z</time></trkpt><trkpt lat="42.11335916386524" lon="13.696224175354143"><ele>923.0</ele><time>2026-05-02T11:02:51Z</time></trkpt><trkpt lat="42.11322305194724" lon="13.69625713452732"><ele>918.0</ele><time>2026-05-02T11:02:52Z</time></trkpt><trkpt lat="42.11309911883909" lon="13.696296608404339"><ele>918.0</ele><time>2026-05-02T11:02:53Z</time></trkpt><trkpt lat="42.11298679851401" lon="13.696338823302233"><ele>918.0</ele><time>2026-05-02T11:02:54Z</time></trkpt><trkpt lat="42.11286888518" lon="13.696396035670704"><ele>918.0</ele><time>2026-05-02T11:02:55Z</time></trkpt><trkpt lat="42.11275751770731" lon="13.69648760481343"><ele>918.0</ele><time>2026-05-02T11:02:56Z</time></trkpt><trkpt lat="42.11262823168723" lon="13.696541988822924"><ele>918.0</ele><time>2026-05-02T11:02:57Z</time></trkpt><trkpt lat="42.11249838821887" lon="13.696617793630844"><ele>918.0</ele><time>2026-05-02T11:02:58Z</time></trkpt><trkpt lat="42.11236744888936" lon="13.696694290010313"><ele>918.0</ele><time>2026-05-02T11:02:59Z</time></trkpt><trkpt lat="42.11222925193968" lon="13.696776459272249"><ele>918.0</ele><time>2026-05-02T11:03:00Z</time></trkpt><trkpt lat="42.11208958143673" lon="13.696859703633868"><ele>915.5</ele><time>2026-05-02T11:03:01Z</time></trkpt><trkpt lat="42.11195459424312" lon="13.696942860875172"><ele>913.0</ele><time>2026-05-02T11:03:02Z</time></trkpt><trkpt lat="42.11182224506147" lon="13.697025915901577"><ele>910.5</ele><time>2026-05-02T11:03:03Z</time></trkpt><trkpt lat="42.11168773916668" lon="13.69710057675858"><ele>908.0</ele><time>2026-05-02T11:03:04Z</time></trkpt><trkpt lat="42.11154493499673" lon="13.697165945979565"><ele>918.0</ele><time>2026-05-02T11:03:05Z</time></trkpt><trkpt lat="42.111401298756846" lon="13.69723019193798"><ele>928.0</ele><time>2026-05-02T11:03:06Z</time></trkpt><trkpt lat="42.11124929810145" lon="13.697300757006813"><ele>938.0</ele><time>2026-05-02T11:03:07Z</time></trkpt><trkpt lat="42.11109958006562" lon="13.697377398197771"><ele>938.0</ele><time>2026-05-02T11:03:08Z</time></trkpt><trkpt lat="42.11095947516089" lon="13.69745385318825"><ele>938.0</ele><time>2026-05-02T11:03:09Z</time></trkpt><trkpt lat="42.110826925865744" lon="13.697536707159072"><ele>938.0</ele><time>2026-05-02T11:03:10Z</time></trkpt><trkpt lat="42.11070299061031" lon="13.697625268256257"><ele>938.0</ele><time>2026-05-02T11:03:11Z</time></trkpt><trkpt lat="42.11057704350119" lon="13.697717138071837"><ele>936.3333333333334</ele><time>2026-05-02T11:03:12Z</time></trkpt><trkpt lat="42.110448386793365" lon="13.697810984293413"><ele>934.6666666666667</ele><time>2026-05-02T11:03:13Z</time></trkpt><trkpt lat="42.11031033651148" lon="13.697895291630019"><ele>933.0</ele><time>2026-05-02T11:03:14Z</time></trkpt><trkpt lat="42.110165315969766" lon="13.697957507152697"><ele>933.0</ele><time>2026-05-02T11:03:15Z</time></trkpt><trkpt lat="42.110011598769994" lon="13.698028604662799"><ele>933.0</ele><time>2026-05-02T11:03:16Z</time></trkpt><trkpt lat="42.1098612970295" lon="13.698098122380877"><ele>933.0</ele><time>2026-05-02T11:03:17Z</time></trkpt><trkpt lat="42.109707521734855" lon="13.698171621189456"><ele>941.3333333333333</ele><time>2026-05-02T11:03:18Z</time></trkpt><trkpt lat="42.109558473743384" lon="13.698249938681743"><ele>949.6666666666666</ele><time>2026-05-02T11:03:19Z</time></trkpt><trkpt lat="42.10941480431703" lon="13.698321005121137"><ele>958.0</ele><time>2026-05-02T11:03:20Z</time></trkpt><trkpt lat="42.109274080900704" lon="13.69837756425227"><ele>958.0</ele><time>2026-05-02T11:03:21Z</time></trkpt><trkpt lat="42.109130780725614" lon="13.698426229239615"><ele>958.0</ele><time>2026-05-02T11:03:22Z</time></trkpt><trkpt lat="42.108991299183806" lon="13.69847035254918"><ele>958.0</ele><time>2026-05-02T11:03:23Z</time></trkpt><trkpt lat="42.10886274519211" lon="13.698503931466423"><ele>958.0</ele><time>2026-05-02T11:03:24Z</time></trkpt><trkpt lat="42.1087553477088" lon="13.6985247194324"><ele>957.8333333333333</ele><time>2026-05-02T11:03:25Z</time></trkpt><trkpt lat="42.10866477898621" lon="13.698537576753944"><ele>957.6666666666666</ele><time>2026-05-02T11:03:26Z</time></trkpt><trkpt lat="42.10858114687006" lon="13.69854293867443"><ele>957.5</ele><time>2026-05-02T11:03:27Z</time></trkpt><trkpt lat="42.10850265602901" lon="13.698536174118308"><ele>957.3333333333333</ele><time>2026-05-02T11:03:28Z</time></trkpt><trkpt lat="42.10843384605834" lon="13.69850609025253"><ele>957.1666666666666</ele><time>2026-05-02T11:03:29Z</time></trkpt><trkpt lat="42.10838953469668" lon="13.698443785527"><ele>957.0</ele><time>2026-05-02T11:03:30Z</time></trkpt><trkpt lat="42.10835580675758" lon="13.69834744625444"><ele>957.0</ele><time>2026-05-02T11:03:31Z</time></trkpt><trkpt lat="42.108307793130024" lon="13.698234833796207"><ele>957.0</ele><time>2026-05-02T11:03:32Z</time></trkpt><trkpt lat="42.108275504710846" lon="13.698092633347722"><ele>957.0</ele><time>2026-05-02T11:03:33Z</time></trkpt><trkpt lat="42.10824510499291" lon="13.697950625224616"><ele>957.0</ele><time>2026-05-02T11:03:34Z</time></trkpt><trkpt lat="42.10818585610068" lon="13.6978276443644"><ele>957.0</ele><time>2026-05-02T11:03:35Z</time></trkpt><trkpt lat="42.10811308877008" lon="13.697728122410105"><ele>956.0</ele><time>2026-05-02T11:03:36Z</time></trkpt><trkpt lat="42.10807162453391" lon="13.697607487626358"><ele>955.0</ele><time>2026-05-02T11:03:37Z</time></trkpt><trkpt lat="42.10805183581832" lon="13.697496878411041"><ele>954.0</ele><time>2026-05-02T11:03:38Z</time></trkpt><trkpt lat="42.10805216988422" lon="13.69740286190036"><ele>953.0</ele><time>2026-05-02T11:03:40Z</time></trkpt><trkpt lat="42.108065774866915" lon="13.697311807095456"><ele>952.0</ele><time>2026-05-02T11:03:44Z</time></trkpt><trkpt lat="42.108036862970124" lon="13.697389677754503"><ele>951.0</ele><time>2026-05-02T11:03:55Z</time></trkpt><trkpt lat="42.10803572822318" lon="13.697486072452987"><ele>951.0</ele><time>2026-05-02T11:03:58Z</time></trkpt><trkpt lat="42.10804177723103" lon="13.697376627611984"><ele>950.9999999999999</ele><time>2026-05-02T11:04:03Z</time></trkpt><trkpt lat="42.1079429855355" lon="13.697321858217995"><ele>950.9999999999999</ele><time>2026-05-02T11:04:04Z</time></trkpt><trkpt lat="42.107906837814554" lon="13.69723337150182"><ele>951.0</ele><time>2026-05-02T11:04:05Z</time></trkpt><trkpt lat="42.10789499441035" lon="13.697139392071877"><ele>951.0</ele><time>2026-05-02T11:04:06Z</time></trkpt><trkpt lat="42.1078737994734" lon="13.696983731721973"><ele>950.6666666666666</ele><time>2026-05-02T11:04:08Z</time></trkpt><trkpt lat="42.107857088200554" lon="13.696816513417602"><ele>950.3333333333333</ele><time>2026-05-02T11:04:10Z</time></trkpt><trkpt lat="42.10782687204859" lon="13.696739353571504"><ele>950.0</ele><time>2026-05-02T11:04:11Z</time></trkpt><trkpt lat="42.10781179874264" lon="13.6966529368507"><ele>949.6666666666666</ele><time>2026-05-02T11:04:12Z</time></trkpt><trkpt lat="42.10778353331354" lon="13.69649354428755"><ele>949.3333333333333</ele><time>2026-05-02T11:04:14Z</time></trkpt><trkpt lat="42.10776796518894" lon="13.69640816302839"><ele>949.0</ele><time>2026-05-02T11:04:15Z</time></trkpt><trkpt lat="42.10776932370516" lon="13.696318525180363"><ele>948.9999999999999</ele><time>2026-05-02T11:04:16Z</time></trkpt><trkpt lat="42.10773917943132" lon="13.696237748798985"><ele>949.0</ele><time>2026-05-02T11:04:17Z</time></trkpt><trkpt lat="42.107710041847554" lon="13.696075641035687"><ele>949.0</ele><time>2026-05-02T11:04:19Z</time></trkpt><trkpt lat="42.10769664994559" lon="13.695987334250825"><ele>949.0</ele><time>2026-05-02T11:04:20Z</time></trkpt><trkpt lat="42.10769435271768" lon="13.695889470574812"><ele>948.9999999999999</ele><time>2026-05-02T11:04:21Z</time></trkpt><trkpt lat="42.10767876876396" lon="13.695799161354323"><ele>949.0</ele><time>2026-05-02T11:04:22Z</time></trkpt><trkpt lat="42.107652304321284" lon="13.695713945528789"><ele>948.4285714285716</ele><time>2026-05-02T11:04:23Z</time></trkpt><trkpt lat="42.107635546333675" lon="13.695628400454062"><ele>947.8571428571429</ele><time>2026-05-02T11:04:24Z</time></trkpt><trkpt lat="42.10762003277922" lon="13.695529056430713"><ele>947.2857142857143</ele><time>2026-05-02T11:04:25Z</time></trkpt><trkpt lat="42.10760407091046" lon="13.695428683740998"><ele>946.7142857142858</ele><time>2026-05-02T11:04:26Z</time></trkpt><trkpt lat="42.10758694278168" lon="13.695335915882461"><ele>946.1428571428571</ele><time>2026-05-02T11:04:27Z</time></trkpt><trkpt lat="42.10758102600549" lon="13.695229652153307"><ele>945.5714285714286</ele><time>2026-05-02T11:04:28Z</time></trkpt><trkpt lat="42.10754874577624" lon="13.695134419819901"><ele>945.0</ele><time>2026-05-02T11:04:29Z</time></trkpt><trkpt lat="42.10754807307463" lon="13.695029704982163"><ele>944.6</ele><time>2026-05-02T11:04:30Z</time></trkpt><trkpt lat="42.1075339640544" lon="13.694934549726407"><ele>944.2</ele><time>2026-05-02T11:04:31Z</time></trkpt><trkpt lat="42.107509560134446" lon="13.694779957290544"><ele>943.8</ele><time>2026-05-02T11:04:33Z</time></trkpt><trkpt lat="42.107476661622734" lon="13.69468372250808"><ele>943.4</ele><time>2026-05-02T11:04:35Z</time></trkpt><trkpt lat="42.10744323604668" lon="13.694531063435125"><ele>943.0</ele><time>2026-05-02T11:04:42Z</time></trkpt><trkpt lat="42.10739920974156" lon="13.694417869719777"><ele>939.5999999999999</ele><time>2026-05-02T11:04:44Z</time></trkpt><trkpt lat="42.1073072126477" lon="13.69434975752828"><ele>936.1999999999999</ele><time>2026-05-02T11:04:46Z</time></trkpt><trkpt lat="42.10717287384197" lon="13.694354537716691"><ele>932.8</ele><time>2026-05-02T11:04:48Z</time></trkpt><trkpt lat="42.10710093453604" lon="13.694328869921355"><ele>929.4</ele><time>2026-05-02T11:04:49Z</time></trkpt><trkpt lat="42.107023831232006" lon="13.694343548167518"><ele>926.0</ele><time>2026-05-02T11:04:50Z</time></trkpt><trkpt lat="42.10694593098581" lon="13.694313891680181"><ele>926.0000000000001</ele><time>2026-05-02T11:04:51Z</time></trkpt><trkpt lat="42.10687548571334" lon="13.694304738708453"><ele>926.0</ele><time>2026-05-02T11:04:52Z</time></trkpt><trkpt lat="42.106762711126166" lon="13.694309512382002"><ele>926.0</ele><time>2026-05-02T11:04:54Z</time></trkpt><trkpt lat="42.106684183391174" lon="13.694267370426532"><ele>926.0</ele><time>2026-05-02T11:04:57Z</time></trkpt><trkpt lat="42.10658916879381" lon="13.694240219220095"><ele>926.0000000000001</ele><time>2026-05-02T11:04:59Z</time></trkpt><trkpt lat="42.10651839518539" lon="13.694221582454148"><ele>926.0</ele><time>2026-05-02T11:05:00Z</time></trkpt><trkpt lat="42.106445528589106" lon="13.694187724705175"><ele>924.0000000000001</ele><time>2026-05-02T11:05:01Z</time></trkpt><trkpt lat="42.106370557513024" lon="13.69417262696149"><ele>922.0</ele><time>2026-05-02T11:05:02Z</time></trkpt><trkpt lat="42.106299497919515" lon="13.69417399162904"><ele>920.0</ele><time>2026-05-02T11:05:03Z</time></trkpt><trkpt lat="42.10622707496756" lon="13.694164500306966"><ele>918.0</ele><time>2026-05-02T11:05:04Z</time></trkpt><trkpt lat="42.10614763056134" lon="13.694148020198787"><ele>916.0000000000001</ele><time>2026-05-02T11:05:05Z</time></trkpt><trkpt lat="42.106067963055985" lon="13.694131453323042"><ele>914.0</ele><time>2026-05-02T11:05:06Z</time></trkpt><trkpt lat="42.10598867098903" lon="13.69411044294346"><ele>914.0000000000001</ele><time>2026-05-02T11:05:07Z</time></trkpt><trkpt lat="42.105908904147505" lon="13.694092000850649"><ele>914.0</ele><time>2026-05-02T11:05:08Z</time></trkpt><trkpt lat="42.105830583362014" lon="13.694055917586734"><ele>914.0</ele><time>2026-05-02T11:05:09Z</time></trkpt><trkpt lat="42.10575192741712" lon="13.694036284971167"><ele>914.0</ele><time>2026-05-02T11:05:10Z</time></trkpt><trkpt lat="42.105668775078335" lon="13.694014715859579"><ele>914.0000000000001</ele><time>2026-05-02T11:05:11Z</time></trkpt><trkpt lat="42.10559137276772" lon="13.693991063635185"><ele>914.0</ele><time>2026-05-02T11:05:12Z</time></trkpt><trkpt lat="42.10550898136734" lon="13.693966405666474"><ele>912.6666666666667</ele><time>2026-05-02T11:05:13Z</time></trkpt><trkpt lat="42.10542275407836" lon="13.693943703779093"><ele>911.3333333333334</ele><time>2026-05-02T11:05:14Z</time></trkpt><trkpt lat="42.10534420337325" lon="13.693923023017248"><ele>910.0</ele><time>2026-05-02T11:05:15Z</time></trkpt><trkpt lat="42.105267902699225" lon="13.693918631171577"><ele>908.6666666666667</ele><time>2026-05-02T11:05:16Z</time></trkpt><trkpt lat="42.10520454333056" lon="13.693904046458506"><ele>907.3333333333334</ele><time>2026-05-02T11:05:17Z</time></trkpt><trkpt lat="42.10511679327774" lon="13.693853679070548"><ele>906.0</ele><time>2026-05-02T11:05:19Z</time></trkpt><trkpt lat="42.10507564578759" lon="13.693751124385425"><ele>906.0</ele><time>2026-05-02T11:05:21Z</time></trkpt><trkpt lat="42.10500692119944" lon="13.693622439313263"><ele>906.0</ele><time>2026-05-02T11:05:23Z</time></trkpt><trkpt lat="42.1049687723026" lon="13.693545270439321"><ele>906.0</ele><time>2026-05-02T11:05:24Z</time></trkpt><trkpt lat="42.10492485353024" lon="13.693454792153299"><ele>906.0</ele><time>2026-05-02T11:05:25Z</time></trkpt><trkpt lat="42.104883232245605" lon="13.693377397932274"><ele>906.0</ele><time>2026-05-02T11:05:26Z</time></trkpt><trkpt lat="42.104830370663365" lon="13.693325810349705"><ele>906.0</ele><time>2026-05-02T11:05:27Z</time></trkpt><trkpt lat="42.10475921034851" lon="13.693247004795674"><ele>908.1666666666666</ele><time>2026-05-02T11:05:29Z</time></trkpt><trkpt lat="42.104633539294625" lon="13.693286000337055"><ele>910.3333333333333</ele><time>2026-05-02T11:05:31Z</time></trkpt><trkpt lat="42.10456070757548" lon="13.693303681563156"><ele>912.5</ele><time>2026-05-02T11:05:32Z</time></trkpt><trkpt lat="42.10448814241049" lon="13.69327481800088"><ele>914.6666666666666</ele><time>2026-05-02T11:05:33Z</time></trkpt><trkpt lat="42.10441544417437" lon="13.693290040414063"><ele>916.8333333333333</ele><time>2026-05-02T11:05:34Z</time></trkpt><trkpt lat="42.10435011630701" lon="13.69326639836881"><ele>919.0</ele><time>2026-05-02T11:05:35Z</time></trkpt><trkpt lat="42.104288688505086" lon="13.693242802812442"><ele>918.9999999999999</ele><time>2026-05-02T11:05:36Z</time></trkpt><trkpt lat="42.10417537094121" lon="13.693263007394782"><ele>919.0</ele><time>2026-05-02T11:05:38Z</time></trkpt><trkpt lat="42.104086025107875" lon="13.693368418609863"><ele>919.0</ele><time>2026-05-02T11:05:40Z</time></trkpt><trkpt lat="42.10405346232301" lon="13.69344413003129"><ele>919.0</ele><time>2026-05-02T11:05:41Z</time></trkpt><trkpt lat="42.10403672606578" lon="13.693529176150188"><ele>918.9999999999999</ele><time>2026-05-02T11:05:42Z</time></trkpt><trkpt lat="42.10402694329099" lon="13.693622469535429"><ele>919.0</ele><time>2026-05-02T11:05:43Z</time></trkpt><trkpt lat="42.10402064259579" lon="13.693716506500937"><ele>919.8000000000001</ele><time>2026-05-02T11:05:44Z</time></trkpt><trkpt lat="42.10398452564726" lon="13.693864323713164"><ele>920.6000000000001</ele><time>2026-05-02T11:05:46Z</time></trkpt><trkpt lat="42.10392547194881" lon="13.693958692306314"><ele>921.4</ele><time>2026-05-02T11:05:48Z</time></trkpt><trkpt lat="42.10384243049419" lon="13.69407041330819"><ele>922.2</ele><time>2026-05-02T11:05:50Z</time></trkpt><trkpt lat="42.10372594377687" lon="13.694123402974046"><ele>923.0</ele><time>2026-05-02T11:05:52Z</time></trkpt><trkpt lat="42.10360529223996" lon="13.694124090199688"><ele>923.0000000000001</ele><time>2026-05-02T11:05:54Z</time></trkpt><trkpt lat="42.10348095135424" lon="13.694098634244142"><ele>923.0</ele><time>2026-05-02T11:05:56Z</time></trkpt><trkpt lat="42.103411264892536" lon="13.694078280659955"><ele>923.0</ele><time>2026-05-02T11:05:57Z</time></trkpt><trkpt lat="42.103345168533814" lon="13.694063022218739"><ele>923.0</ele><time>2026-05-02T11:05:58Z</time></trkpt><trkpt lat="42.10327432499774" lon="13.694062796405822"><ele>923.0000000000001</ele><time>2026-05-02T11:05:59Z</time></trkpt><trkpt lat="42.10319760856474" lon="13.694080148259808"><ele>923.0</ele><time>2026-05-02T11:06:00Z</time></trkpt><trkpt lat="42.10311849467888" lon="13.694098088585093"><ele>923.6666666666667</ele><time>2026-05-02T11:06:01Z</time></trkpt><trkpt lat="42.10304330821599" lon="13.69411631085728"><ele>924.3333333333334</ele><time>2026-05-02T11:06:02Z</time></trkpt><trkpt lat="42.10297073630261" lon="13.69413540950372"><ele>925.0</ele><time>2026-05-02T11:06:03Z</time></trkpt><trkpt lat="42.10290237353007" lon="13.694145571947677"><ele>925.6666666666667</ele><time>2026-05-02T11:06:04Z</time></trkpt><trkpt lat="42.10282028585238" lon="13.694158315276482"><ele>926.3333333333334</ele><time>2026-05-02T11:06:05Z</time></trkpt><trkpt lat="42.10273844434482" lon="13.694176843509352"><ele>927.0</ele><time>2026-05-02T11:06:06Z</time></trkpt><trkpt lat="42.102654922758006" lon="13.694205046532343"><ele>927.0</ele><time>2026-05-02T11:06:07Z</time></trkpt><trkpt lat="42.102577165517715" lon="13.694232815362318"><ele>927.0</ele><time>2026-05-02T11:06:08Z</time></trkpt><trkpt lat="42.10250197867904" lon="13.694255541045631"><ele>927.0</ele><time>2026-05-02T11:06:09Z</time></trkpt><trkpt lat="42.10243229731667" lon="13.694270079989858"><ele>927.0</ele><time>2026-05-02T11:06:10Z</time></trkpt><trkpt lat="42.102362389338296" lon="13.694275097567251"><ele>927.0</ele><time>2026-05-02T11:06:11Z</time></trkpt><trkpt lat="42.10228129483511" lon="13.694273640557698"><ele>927.0</ele><time>2026-05-02T11:06:12Z</time></trkpt><trkpt lat="42.10220462358863" lon="13.694265248583545"><ele>928.2</ele><time>2026-05-02T11:06:13Z</time></trkpt><trkpt lat="42.10214407336924" lon="13.694240408326356"><ele>929.4000000000001</ele><time>2026-05-02T11:06:14Z</time></trkpt><trkpt lat="42.102044437626404" lon="13.694164513796547"><ele>930.5999999999999</ele><time>2026-05-02T11:06:16Z</time></trkpt><trkpt lat="42.10197433652687" lon="13.69401267267196"><ele>931.8</ele><time>2026-05-02T11:06:18Z</time></trkpt><trkpt lat="42.10191562520045" lon="13.693958643806825"><ele>933.0</ele><time>2026-05-02T11:06:19Z</time></trkpt><trkpt lat="42.10187181346357" lon="13.693879321062074"><ele>933.0</ele><time>2026-05-02T11:06:20Z</time></trkpt><trkpt lat="42.10182587547652" lon="13.693800590995064"><ele>932.9999999999999</ele><time>2026-05-02T11:06:21Z</time></trkpt><trkpt lat="42.10177895655535" lon="13.693722707056525"><ele>933.0</ele><time>2026-05-02T11:06:22Z</time></trkpt><trkpt lat="42.10172205281508" lon="13.69365961842533"><ele>933.0</ele><time>2026-05-02T11:06:23Z</time></trkpt><trkpt lat="42.10167116012014" lon="13.693600342338975"><ele>932.9999999999999</ele><time>2026-05-02T11:06:24Z</time></trkpt><trkpt lat="42.1016195367817" lon="13.693541206321203"><ele>933.0</ele><time>2026-05-02T11:06:25Z</time></trkpt><trkpt lat="42.10154884985683" lon="13.693501363640081"><ele>933.0</ele><time>2026-05-02T11:06:26Z</time></trkpt><trkpt lat="42.10146696583271" lon="13.693471444233142"><ele>935.3333333333334</ele><time>2026-05-02T11:06:27Z</time></trkpt><trkpt lat="42.10139580455829" lon="13.693457403185292"><ele>937.6666666666667</ele><time>2026-05-02T11:06:28Z</time></trkpt><trkpt lat="42.10133154156009" lon="13.693499476169084"><ele>940.0</ele><time>2026-05-02T11:06:29Z</time></trkpt><trkpt lat="42.10124006953305" lon="13.693619166315287"><ele>942.3333333333334</ele><time>2026-05-02T11:06:31Z</time></trkpt><trkpt lat="42.10120974696857" lon="13.693701824253038"><ele>944.6666666666667</ele><time>2026-05-02T11:06:32Z</time></trkpt><trkpt lat="42.10117194789034" lon="13.693783638451249"><ele>947.0</ele><time>2026-05-02T11:06:33Z</time></trkpt><trkpt lat="42.1011257044465" lon="13.693858282692968"><ele>947.0000000000001</ele><time>2026-05-02T11:06:34Z</time></trkpt><trkpt lat="42.10107154669278" lon="13.69393812828072"><ele>947.0</ele><time>2026-05-02T11:06:35Z</time></trkpt><trkpt lat="42.101018248302495" lon="13.694006106180604"><ele>947.0</ele><time>2026-05-02T11:06:36Z</time></trkpt><trkpt lat="42.100959511507384" lon="13.694077575184398"><ele>947.0</ele><time>2026-05-02T11:06:37Z</time></trkpt><trkpt lat="42.10090001866979" lon="13.69412707452735"><ele>947.0000000000001</ele><time>2026-05-02T11:06:38Z</time></trkpt><trkpt lat="42.10083771980574" lon="13.694181713467499"><ele>947.0</ele><time>2026-05-02T11:06:39Z</time></trkpt><trkpt lat="42.100771705173486" lon="13.69425253755137"><ele>949.3333333333334</ele><time>2026-05-02T11:06:40Z</time></trkpt><trkpt lat="42.10071389374511" lon="13.694321601479121"><ele>951.6666666666667</ele><time>2026-05-02T11:06:41Z</time></trkpt><trkpt lat="42.10064901094546" lon="13.69437422101364"><ele>954.0</ele><time>2026-05-02T11:06:42Z</time></trkpt><trkpt lat="42.10058408922566" lon="13.694392813739377"><ele>956.3333333333333</ele><time>2026-05-02T11:06:43Z</time></trkpt><trkpt lat="42.10051809874513" lon="13.694396293264157"><ele>958.6666666666666</ele><time>2026-05-02T11:06:44Z</time></trkpt><trkpt lat="42.10039769265575" lon="13.69432959511875"><ele>961.0</ele><time>2026-05-02T11:06:46Z</time></trkpt><trkpt lat="42.1003419582027" lon="13.694285011990742"><ele>961.0</ele><time>2026-05-02T11:06:47Z</time></trkpt><trkpt lat="42.100278262229864" lon="13.694260569359981"><ele>960.9999999999999</ele><time>2026-05-02T11:06:48Z</time></trkpt><trkpt lat="42.10015387294597" lon="13.69426853158496"><ele>960.9999999999999</ele><time>2026-05-02T11:06:50Z</time></trkpt><trkpt lat="42.10002922434268" lon="13.69422887751165"><ele>961.0</ele><time>2026-05-02T11:06:52Z</time></trkpt><trkpt lat="42.09995316047312" lon="13.69418978089789"><ele>961.0</ele><time>2026-05-02T11:06:53Z</time></trkpt><trkpt lat="42.099876037209114" lon="13.694153242584077"><ele>963.4285714285713</ele><time>2026-05-02T11:06:54Z</time></trkpt><trkpt lat="42.099803010444695" lon="13.694119688900548"><ele>965.8571428571428</ele><time>2026-05-02T11:06:55Z</time></trkpt><trkpt lat="42.09974500550201" lon="13.694076502965089"><ele>968.2857142857142</ele><time>2026-05-02T11:06:56Z</time></trkpt><trkpt lat="42.099704072328436" lon="13.694009879394589"><ele>970.7142857142858</ele><time>2026-05-02T11:06:57Z</time></trkpt><trkpt lat="42.09968009753252" lon="13.693924540755978"><ele>973.1428571428572</ele><time>2026-05-02T11:06:58Z</time></trkpt><trkpt lat="42.09966911083973" lon="13.693830644268578"><ele>975.5714285714287</ele><time>2026-05-02T11:06:59Z</time></trkpt><trkpt lat="42.09964760937668" lon="13.693739185745448"><ele>978.0</ele><time>2026-05-02T11:07:00Z</time></trkpt><trkpt lat="42.099615674992904" lon="13.693651504321965"><ele>979.5</ele><time>2026-05-02T11:07:01Z</time></trkpt><trkpt lat="42.09958389602259" lon="13.693558512870972"><ele>981.0</ele><time>2026-05-02T11:07:02Z</time></trkpt><trkpt lat="42.09955342350729" lon="13.693468777911418"><ele>982.5</ele><time>2026-05-02T11:07:03Z</time></trkpt><trkpt lat="42.09952145476675" lon="13.693388622543992"><ele>984.0</ele><time>2026-05-02T11:07:04Z</time></trkpt><trkpt lat="42.09941885769392" lon="13.693277688092001"><ele>985.5</ele><time>2026-05-02T11:07:06Z</time></trkpt><trkpt lat="42.09936318407881" lon="13.693227813077952"><ele>987.0</ele><time>2026-05-02T11:07:07Z</time></trkpt><trkpt lat="42.099308599474064" lon="13.693184758967153"><ele>987.0</ele><time>2026-05-02T11:07:08Z</time></trkpt><trkpt lat="42.09918646462581" lon="13.693165708608818"><ele>987.0</ele><time>2026-05-02T11:07:10Z</time></trkpt><trkpt lat="42.09912067453379" lon="13.693203966240038"><ele>987.0</ele><time>2026-05-02T11:07:11Z</time></trkpt><trkpt lat="42.099053466011114" lon="13.693248423565311"><ele>987.0</ele><time>2026-05-02T11:07:12Z</time></trkpt><trkpt lat="42.098990250028685" lon="13.693295107074901"><ele>987.0</ele><time>2026-05-02T11:07:13Z</time></trkpt><trkpt lat="42.09892262765602" lon="13.693407420091216"><ele>987.0</ele><time>2026-05-02T11:07:15Z</time></trkpt><trkpt lat="42.09889907175084" lon="13.693569635773693"><ele>990.4000000000001</ele><time>2026-05-02T11:07:17Z</time></trkpt><trkpt lat="42.09890023750288" lon="13.693740373439764"><ele>993.8000000000001</ele><time>2026-05-02T11:07:19Z</time></trkpt><trkpt lat="42.098916093718074" lon="13.69383308507373"><ele>997.2</ele><time>2026-05-02T11:07:20Z</time></trkpt><trkpt lat="42.09890959359436" lon="13.693938571544455"><ele>1000.6</ele><time>2026-05-02T11:07:21Z</time></trkpt><trkpt lat="42.09888970252697" lon="13.694026006515497"><ele>1004.0</ele><time>2026-05-02T11:07:22Z</time></trkpt><trkpt lat="42.09882015490583" lon="13.694148101627409"><ele>1004.0000000000001</ele><time>2026-05-02T11:07:24Z</time></trkpt><trkpt lat="42.09871119537579" lon="13.694197481997701"><ele>1004.0</ele><time>2026-05-02T11:07:26Z</time></trkpt><trkpt lat="42.09864483159214" lon="13.694221764807455"><ele>1004.0</ele><time>2026-05-02T11:07:27Z</time></trkpt><trkpt lat="42.09858699674378" lon="13.694274725365375"><ele>1004.0</ele><time>2026-05-02T11:07:28Z</time></trkpt><trkpt lat="42.098521264243296" lon="13.694347143898165"><ele>1004.0000000000001</ele><time>2026-05-02T11:07:29Z</time></trkpt><trkpt lat="42.09844853878026" lon="13.694430137920403"><ele>1004.0</ele><time>2026-05-02T11:07:30Z</time></trkpt><trkpt lat="42.09839546546114" lon="13.694498004571466"><ele>1004.0000000000001</ele><time>2026-05-02T11:07:31Z</time></trkpt><trkpt lat="42.09834128832472" lon="13.694582893918438"><ele>1004.0</ele><time>2026-05-02T11:07:32Z</time></trkpt><trkpt lat="42.09830192762812" lon="13.694663357556765"><ele>1004.0</ele><time>2026-05-02T11:07:33Z</time></trkpt><trkpt lat="42.098268034430916" lon="13.6947497238318"><ele>1004.0</ele><time>2026-05-02T11:07:34Z</time></trkpt><trkpt lat="42.098244590266624" lon="13.694832397801838"><ele>1004.0000000000001</ele><time>2026-05-02T11:07:35Z</time></trkpt><trkpt lat="42.09817412616143" lon="13.694983638317256"><ele>1004.0</ele><time>2026-05-02T11:07:37Z</time></trkpt><trkpt lat="42.09812563625904" lon="13.695063943024133"><ele>1004.0</ele><time>2026-05-02T11:07:38Z</time></trkpt><trkpt lat="42.09807519104842" lon="13.695147312074644"><ele>1004.0000000000001</ele><time>2026-05-02T11:07:39Z</time></trkpt><trkpt lat="42.0980322258705" lon="13.695227613752353"><ele>1004.0000000000001</ele><time>2026-05-02T11:07:40Z</time></trkpt><trkpt lat="42.097963950426816" lon="13.695359016393516"><ele>1004.0</ele><time>2026-05-02T11:07:42Z</time></trkpt><trkpt lat="42.097902042221556" lon="13.695449851526082"><ele>1004.0</ele><time>2026-05-02T11:07:44Z</time></trkpt><trkpt lat="42.097827353121275" lon="13.695509442965786"><ele>1002.8000000000001</ele><time>2026-05-02T11:07:46Z</time></trkpt><trkpt lat="42.09769791251147" lon="13.695550552500864"><ele>1001.6000000000001</ele><time>2026-05-02T11:07:48Z</time></trkpt><trkpt lat="42.09762036218253" lon="13.69557725059446"><ele>1000.4</ele><time>2026-05-02T11:07:49Z</time></trkpt><trkpt lat="42.097534200335204" lon="13.695603767175465"><ele>999.2</ele><time>2026-05-02T11:07:50Z</time></trkpt><trkpt lat="42.0974569515848" lon="13.695651631494107"><ele>998.0</ele><time>2026-05-02T11:07:51Z</time></trkpt><trkpt lat="42.097377170146" lon="13.695673841908336"><ele>998.0000000000001</ele><time>2026-05-02T11:07:52Z</time></trkpt><trkpt lat="42.09729874069758" lon="13.69571335013515"><ele>998.0</ele><time>2026-05-02T11:07:53Z</time></trkpt><trkpt lat="42.09722954077334" lon="13.695759901586431"><ele>998.0</ele><time>2026-05-02T11:07:54Z</time></trkpt><trkpt lat="42.097150274579896" lon="13.695822149214628"><ele>998.0</ele><time>2026-05-02T11:07:55Z</time></trkpt><trkpt lat="42.097066790005485" lon="13.695830852851785"><ele>998.0000000000001</ele><time>2026-05-02T11:07:56Z</time></trkpt><trkpt lat="42.096993464975924" lon="13.695850172486809"><ele>998.0</ele><time>2026-05-02T11:07:57Z</time></trkpt><trkpt lat="42.09692018262575" lon="13.69586275431829"><ele>998.0</ele><time>2026-05-02T11:07:58Z</time></trkpt><trkpt lat="42.09684642503967" lon="13.695868743444775"><ele>998.0</ele><time>2026-05-02T11:07:59Z</time></trkpt><trkpt lat="42.096779638103946" lon="13.695872148877372"><ele>998.0</ele><time>2026-05-02T11:08:00Z</time></trkpt><trkpt lat="42.09667838267067" lon="13.69583128852873"><ele>998.0</ele><time>2026-05-02T11:08:02Z</time></trkpt><trkpt lat="42.096586543619054" lon="13.695745311917731"><ele>998.0</ele><time>2026-05-02T11:08:04Z</time></trkpt><trkpt lat="42.09649497894134" lon="13.695657958710179"><ele>997.5999999999999</ele><time>2026-05-02T11:08:06Z</time></trkpt><trkpt lat="42.096382094795096" lon="13.695650726929326"><ele>997.1999999999999</ele><time>2026-05-02T11:08:08Z</time></trkpt><trkpt lat="42.096287196499766" lon="13.695714250162906"><ele>996.8</ele><time>2026-05-02T11:08:10Z</time></trkpt><trkpt lat="42.09617430890836" lon="13.69577634221807"><ele>996.4</ele><time>2026-05-02T11:08:12Z</time></trkpt><trkpt lat="42.09610840884467" lon="13.695817087692049"><ele>996.0</ele><time>2026-05-02T11:08:13Z</time></trkpt><trkpt lat="42.09603317908261" lon="13.695859984648234"><ele>996.0</ele><time>2026-05-02T11:08:14Z</time></trkpt><trkpt lat="42.095965678127065" lon="13.695891725207522"><ele>995.9999999999999</ele><time>2026-05-02T11:08:15Z</time></trkpt><trkpt lat="42.095858301813784" lon="13.695890699476017"><ele>995.9999999999999</ele><time>2026-05-02T11:08:17Z</time></trkpt><trkpt lat="42.0957604634011" lon="13.69580241053278"><ele>996.0</ele><time>2026-05-02T11:08:19Z</time></trkpt><trkpt lat="42.09568231589643" lon="13.695750916280675"><ele>996.0</ele><time>2026-05-02T11:08:20Z</time></trkpt><trkpt lat="42.09560853888975" lon="13.69571704033548"><ele>997.1666666666666</ele><time>2026-05-02T11:08:21Z</time></trkpt><trkpt lat="42.09553762957371" lon="13.695700483973013"><ele>998.3333333333333</ele><time>2026-05-02T11:08:22Z</time></trkpt><trkpt lat="42.09546455588237" lon="13.695694856987245"><ele>999.5</ele><time>2026-05-02T11:08:23Z</time></trkpt><trkpt lat="42.09538843813863" lon="13.69570436156072"><ele>1000.6666666666666</ele><time>2026-05-02T11:08:24Z</time></trkpt><trkpt lat="42.09529904211905" lon="13.695730385968169"><ele>1001.8333333333333</ele><time>2026-05-02T11:08:25Z</time></trkpt><trkpt lat="42.09521781954053" lon="13.695788875585245"><ele>1003.0</ele><time>2026-05-02T11:08:26Z</time></trkpt><trkpt lat="42.09514682022311" lon="13.695830156308988"><ele>1003.0</ele><time>2026-05-02T11:08:27Z</time></trkpt><trkpt lat="42.095061645971" lon="13.695895514973042"><ele>1003.0</ele><time>2026-05-02T11:08:29Z</time></trkpt><trkpt lat="42.09496313635086" lon="13.695931955331474"><ele>1003.0</ele><time>2026-05-02T11:08:31Z</time></trkpt><trkpt lat="42.09489169456552" lon="13.695962977645408"><ele>1003.0</ele><time>2026-05-02T11:08:32Z</time></trkpt><trkpt lat="42.094807354304876" lon="13.695987604293892"><ele>1003.0</ele><time>2026-05-02T11:08:33Z</time></trkpt><trkpt lat="42.09472215143253" lon="13.696017983807732"><ele>1003.6666666666666</ele><time>2026-05-02T11:08:34Z</time></trkpt><trkpt lat="42.094643241154785" lon="13.696053426249216"><ele>1004.3333333333333</ele><time>2026-05-02T11:08:35Z</time></trkpt><trkpt lat="42.09456417353144" lon="13.696102907130102"><ele>1005.0</ele><time>2026-05-02T11:08:36Z</time></trkpt><trkpt lat="42.094507058021975" lon="13.696170696505105"><ele>1005.6666666666667</ele><time>2026-05-02T11:08:37Z</time></trkpt><trkpt lat="42.09443756758721" lon="13.696213128883414"><ele>1006.3333333333334</ele><time>2026-05-02T11:08:38Z</time></trkpt><trkpt lat="42.09437274855049" lon="13.69625319676654"><ele>1007.0</ele><time>2026-05-02T11:08:39Z</time></trkpt><trkpt lat="42.094296369178366" lon="13.69629350457643"><ele>1007.2</ele><time>2026-05-02T11:08:40Z</time></trkpt><trkpt lat="42.094211067204306" lon="13.696312194838434"><ele>1007.4000000000001</ele><time>2026-05-02T11:08:41Z</time></trkpt><trkpt lat="42.09412443021966" lon="13.696330435960236"><ele>1007.5999999999999</ele><time>2026-05-02T11:08:42Z</time></trkpt><trkpt lat="42.09403444046937" lon="13.69636914938143"><ele>1007.8</ele><time>2026-05-02T11:08:43Z</time></trkpt><trkpt lat="42.09394720539097" lon="13.69639789592248"><ele>1008.0</ele><time>2026-05-02T11:08:44Z</time></trkpt><trkpt lat="42.09385591604566" lon="13.696417564529678"><ele>1008.0</ele><time>2026-05-02T11:08:45Z</time></trkpt><trkpt lat="42.093773248117266" lon="13.696457420858904"><ele>1008.0</ele><time>2026-05-02T11:08:46Z</time></trkpt><trkpt lat="42.09370080264963" lon="13.696523755713022"><ele>1008.0</ele><time>2026-05-02T11:08:47Z</time></trkpt><trkpt lat="42.093633061856686" lon="13.696605906285633"><ele>1008.0</ele><time>2026-05-02T11:08:48Z</time></trkpt><trkpt lat="42.09356331340019" lon="13.696699172098802"><ele>1008.0</ele><time>2026-05-02T11:08:49Z</time></trkpt><trkpt lat="42.09351620884799" lon="13.696784747739326"><ele>1008.0</ele><time>2026-05-02T11:08:50Z</time></trkpt><trkpt lat="42.09346195444375" lon="13.696876956903026"><ele>1007.2</ele><time>2026-05-02T11:08:51Z</time></trkpt><trkpt lat="42.09341372114265" lon="13.696962186844466"><ele>1006.4</ele><time>2026-05-02T11:08:52Z</time></trkpt><trkpt lat="42.09336105048873" lon="13.697053377630045"><ele>1005.6000000000001</ele><time>2026-05-02T11:08:53Z</time></trkpt><trkpt lat="42.09330818072373" lon="13.697148768341908"><ele>1004.8000000000001</ele><time>2026-05-02T11:08:54Z</time></trkpt><trkpt lat="42.09323843957205" lon="13.69727603341229"><ele>1004.0</ele><time>2026-05-02T11:08:56Z</time></trkpt><trkpt lat="42.093168739650146" lon="13.69741771290178"><ele>1003.8000000000001</ele><time>2026-05-02T11:08:58Z</time></trkpt><trkpt lat="42.09313526434877" lon="13.697493596719227"><ele>1003.6000000000001</ele><time>2026-05-02T11:08:59Z</time></trkpt><trkpt lat="42.09307642026199" lon="13.697636407740537"><ele>1003.4</ele><time>2026-05-02T11:09:01Z</time></trkpt><trkpt lat="42.093036130529946" lon="13.697701671464522"><ele>1003.2</ele><time>2026-05-02T11:09:02Z</time></trkpt><trkpt lat="42.0929343011875" lon="13.697769034256089"><ele>1003.0</ele><time>2026-05-02T11:09:04Z</time></trkpt><trkpt lat="42.092824492729775" lon="13.697800929942312"><ele>1002.9999999999999</ele><time>2026-05-02T11:09:06Z</time></trkpt><trkpt lat="42.09270802092601" lon="13.697730013726716"><ele>1003.0</ele><time>2026-05-02T11:09:08Z</time></trkpt><trkpt lat="42.09263261323974" lon="13.697711022334746"><ele>1003.0</ele><time>2026-05-02T11:09:09Z</time></trkpt><trkpt lat="42.0925564173095" lon="13.69768260880892"><ele>1003.0</ele><time>2026-05-02T11:09:10Z</time></trkpt><trkpt lat="42.09248483203098" lon="13.697687987214032"><ele>1002.9999999999999</ele><time>2026-05-02T11:09:11Z</time></trkpt><trkpt lat="42.092407465119884" lon="13.69771065897409"><ele>1003.0</ele><time>2026-05-02T11:09:12Z</time></trkpt><trkpt lat="42.092327790484035" lon="13.697716978680635"><ele>1001.6666666666666</ele><time>2026-05-02T11:09:13Z</time></trkpt><trkpt lat="42.09225005289542" lon="13.697765261005467"><ele>1000.3333333333333</ele><time>2026-05-02T11:09:14Z</time></trkpt><trkpt lat="42.09218432997912" lon="13.697786567897328"><ele>999.0</ele><time>2026-05-02T11:09:15Z</time></trkpt><trkpt lat="42.09212105141474" lon="13.69780979113145"><ele>997.6666666666667</ele><time>2026-05-02T11:09:16Z</time></trkpt><trkpt lat="42.09204915585804" lon="13.697832777034883"><ele>996.3333333333334</ele><time>2026-05-02T11:09:17Z</time></trkpt><trkpt lat="42.091975556978504" lon="13.697800698612353"><ele>995.0</ele><time>2026-05-02T11:09:18Z</time></trkpt><trkpt lat="42.09189235890412" lon="13.697786971092599"><ele>995.0</ele><time>2026-05-02T11:09:19Z</time></trkpt><trkpt lat="42.091814612816485" lon="13.697802595964214"><ele>995.0</ele><time>2026-05-02T11:09:20Z</time></trkpt><trkpt lat="42.09173085347265" lon="13.697814747434702"><ele>995.0</ele><time>2026-05-02T11:09:21Z</time></trkpt><trkpt lat="42.09165770066631" lon="13.69783908286888"><ele>995.0</ele><time>2026-05-02T11:09:22Z</time></trkpt><trkpt lat="42.09159021952826" lon="13.697875913140736"><ele>995.0</ele><time>2026-05-02T11:09:23Z</time></trkpt><trkpt lat="42.091534819416104" lon="13.69792516899049"><ele>995.0</ele><time>2026-05-02T11:09:24Z</time></trkpt><trkpt lat="42.09148453363519" lon="13.697976461000849"><ele>995.0</ele><time>2026-05-02T11:09:25Z</time></trkpt><trkpt lat="42.091370242636344" lon="13.698042334236312"><ele>994.4</ele><time>2026-05-02T11:09:27Z</time></trkpt><trkpt lat="42.09126468502421" lon="13.698132340148252"><ele>993.8</ele><time>2026-05-02T11:09:29Z</time></trkpt><trkpt lat="42.09115521828796" lon="13.698201773075224"><ele>993.2</ele><time>2026-05-02T11:09:31Z</time></trkpt><trkpt lat="42.09109187585749" lon="13.698214216162203"><ele>992.6</ele><time>2026-05-02T11:09:32Z</time></trkpt><trkpt lat="42.09098236214123" lon="13.698281320422064"><ele>992.0</ele><time>2026-05-02T11:09:34Z</time></trkpt><trkpt lat="42.09092276149935" lon="13.698311992994755"><ele>992.0000000000001</ele><time>2026-05-02T11:09:35Z</time></trkpt><trkpt lat="42.09086656611371" lon="13.69836447950527"><ele>992.0</ele><time>2026-05-02T11:09:36Z</time></trkpt><trkpt lat="42.090832628335384" lon="13.69844100024624"><ele>992.0</ele><time>2026-05-02T11:09:37Z</time></trkpt><trkpt lat="42.09081413593142" lon="13.698600550055897"><ele>992.0</ele><time>2026-05-02T11:09:39Z</time></trkpt><trkpt lat="42.09082056646862" lon="13.698689203452762"><ele>992.0000000000001</ele><time>2026-05-02T11:09:40Z</time></trkpt><trkpt lat="42.0908056127724" lon="13.698846671039256"><ele>992.0</ele><time>2026-05-02T11:09:42Z</time></trkpt><trkpt lat="42.09072868994354" lon="13.698950194516621"><ele>993.0</ele><time>2026-05-02T11:09:44Z</time></trkpt><trkpt lat="42.09065093872792" lon="13.699047378165494"><ele>994.0</ele><time>2026-05-02T11:09:46Z</time></trkpt><trkpt lat="42.090543678254946" lon="13.699133817953058"><ele>995.0</ele><time>2026-05-02T11:09:48Z</time></trkpt><trkpt lat="42.09048345073048" lon="13.699178702730435"><ele>996.0</ele><time>2026-05-02T11:09:49Z</time></trkpt><trkpt lat="42.0904146718679" lon="13.699226475043671"><ele>997.0</ele><time>2026-05-02T11:09:50Z</time></trkpt><trkpt lat="42.09034895643936" lon="13.699271973874238"><ele>996.9999999999999</ele><time>2026-05-02T11:09:51Z</time></trkpt><trkpt lat="42.090283012977885" lon="13.699316592457743"><ele>997.0</ele><time>2026-05-02T11:09:52Z</time></trkpt><trkpt lat="42.09022242820153" lon="13.699374174674988"><ele>996.9999999999999</ele><time>2026-05-02T11:09:53Z</time></trkpt><trkpt lat="42.0901630855867" lon="13.699423743505276"><ele>996.9999999999999</ele><time>2026-05-02T11:09:54Z</time></trkpt><trkpt lat="42.090102067003265" lon="13.69947668227829"><ele>997.0</ele><time>2026-05-02T11:09:55Z</time></trkpt><trkpt lat="42.09004091355656" lon="13.699535293340732"><ele>996.9999999999999</ele><time>2026-05-02T11:09:56Z</time></trkpt><trkpt lat="42.0899681754659" lon="13.699565351278798"><ele>996.9999999999999</ele><time>2026-05-02T11:09:57Z</time></trkpt><trkpt lat="42.089897542740644" lon="13.699606815101554"><ele>997.6</ele><time>2026-05-02T11:09:58Z</time></trkpt><trkpt lat="42.08983241409089" lon="13.699629258114708"><ele>998.2</ele><time>2026-05-02T11:09:59Z</time></trkpt><trkpt lat="42.089721857296524" lon="13.69958927744184"><ele>998.8</ele><time>2026-05-02T11:10:01Z</time></trkpt><trkpt lat="42.08967900991316" lon="13.699470621963194"><ele>999.4</ele><time>2026-05-02T11:10:03Z</time></trkpt><trkpt lat="42.08962871637113" lon="13.699339276240423"><ele>1000.0</ele><time>2026-05-02T11:10:05Z</time></trkpt><trkpt lat="42.08958370006785" lon="13.699177370985318"><ele>999.9999999999999</ele><time>2026-05-02T11:10:07Z</time></trkpt><trkpt lat="42.089562786946374" lon="13.699077506021126"><ele>1000.0</ele><time>2026-05-02T11:10:08Z</time></trkpt><trkpt lat="42.08954723889591" lon="13.698961253939077"><ele>1000.0</ele><time>2026-05-02T11:10:09Z</time></trkpt><trkpt lat="42.08953779172257" lon="13.698840691723573"><ele>1000.0</ele><time>2026-05-02T11:10:10Z</time></trkpt><trkpt lat="42.08954072926943" lon="13.698721652677099"><ele>999.9999999999999</ele><time>2026-05-02T11:10:11Z</time></trkpt><trkpt lat="42.08954644641255" lon="13.698612383464715"><ele>1000.0</ele><time>2026-05-02T11:10:12Z</time></trkpt><trkpt lat="42.089553863266715" lon="13.698497152589884"><ele>999.2857142857142</ele><time>2026-05-02T11:10:13Z</time></trkpt><trkpt lat="42.08953664891549" lon="13.698405975842238"><ele>998.5714285714287</ele><time>2026-05-02T11:10:14Z</time></trkpt><trkpt lat="42.089537938174516" lon="13.698302989607214"><ele>997.8571428571429</ele><time>2026-05-02T11:10:15Z</time></trkpt><trkpt lat="42.08950104824761" lon="13.698214471898222"><ele>997.1428571428571</ele><time>2026-05-02T11:10:16Z</time></trkpt><trkpt lat="42.089458789811815" lon="13.69812985917028"><ele>996.4285714285713</ele><time>2026-05-02T11:10:17Z</time></trkpt><trkpt lat="42.08941313971546" lon="13.698049762097897"><ele>995.7142857142858</ele><time>2026-05-02T11:10:18Z</time></trkpt><trkpt lat="42.089361652735725" lon="13.697994022800115"><ele>995.0</ele><time>2026-05-02T11:10:19Z</time></trkpt><trkpt lat="42.08929602176092" lon="13.697971472081782"><ele>995.0000000000001</ele><time>2026-05-02T11:10:20Z</time></trkpt><trkpt lat="42.089223805740744" lon="13.69800605834945"><ele>995.0</ele><time>2026-05-02T11:10:21Z</time></trkpt><trkpt lat="42.08914953071176" lon="13.69804617861756"><ele>995.0</ele><time>2026-05-02T11:10:22Z</time></trkpt><trkpt lat="42.08906928153993" lon="13.69810041297806"><ele>995.0</ele><time>2026-05-02T11:10:23Z</time></trkpt><trkpt lat="42.08898978218497" lon="13.698155790128737"><ele>995.0000000000001</ele><time>2026-05-02T11:10:24Z</time></trkpt><trkpt lat="42.088915810780726" lon="13.698231977814597"><ele>995.0</ele><time>2026-05-02T11:10:25Z</time></trkpt><trkpt lat="42.088851783630716" lon="13.69831705705101"><ele>995.0</ele><time>2026-05-02T11:10:26Z</time></trkpt><trkpt lat="42.088794963393916" lon="13.698380403304421"><ele>995.0</ele><time>2026-05-02T11:10:27Z</time></trkpt><trkpt lat="42.088729363822445" lon="13.698390646988791"><ele>995.0</ele><time>2026-05-02T11:10:28Z</time></trkpt><trkpt lat="42.08861026992193" lon="13.69848012753837"><ele>995.0</ele><time>2026-05-02T11:10:30Z</time></trkpt><trkpt lat="42.08852565758333" lon="13.698532157410853"><ele>995.0</ele><time>2026-05-02T11:10:31Z</time></trkpt><trkpt lat="42.08843447163612" lon="13.698579202605389"><ele>994.8333333333334</ele><time>2026-05-02T11:10:32Z</time></trkpt><trkpt lat="42.08834360067841" lon="13.698615984075671"><ele>994.6666666666667</ele><time>2026-05-02T11:10:33Z</time></trkpt><trkpt lat="42.088285353705196" lon="13.698681197345763"><ele>994.5</ele><time>2026-05-02T11:10:34Z</time></trkpt><trkpt lat="42.088206407372624" lon="13.698723394874676"><ele>994.3333333333333</ele><time>2026-05-02T11:10:35Z</time></trkpt><trkpt lat="42.08814217846987" lon="13.698803262812076"><ele>994.1666666666666</ele><time>2026-05-02T11:10:36Z</time></trkpt><trkpt lat="42.088069187514705" lon="13.698902668360764"><ele>994.0</ele><time>2026-05-02T11:10:37Z</time></trkpt><trkpt lat="42.08800708981589" lon="13.698995815107164"><ele>993.4999999999999</ele><time>2026-05-02T11:10:38Z</time></trkpt><trkpt lat="42.087950647912955" lon="13.699090480593762"><ele>993.0</ele><time>2026-05-02T11:10:39Z</time></trkpt><trkpt lat="42.087900004171374" lon="13.699185301435566"><ele>992.5</ele><time>2026-05-02T11:10:40Z</time></trkpt><trkpt lat="42.087859852608815" lon="13.699283970231143"><ele>992.0</ele><time>2026-05-02T11:10:41Z</time></trkpt><trkpt lat="42.08784632288396" lon="13.69938138949046"><ele>991.4999999999999</ele><time>2026-05-02T11:10:42Z</time></trkpt><trkpt lat="42.087848654440165" lon="13.699490123432374"><ele>991.0</ele><time>2026-05-02T11:10:43Z</time></trkpt><trkpt lat="42.087863975480175" lon="13.699611559041786"><ele>989.3333333333333</ele><time>2026-05-02T11:10:44Z</time></trkpt><trkpt lat="42.08787256136815" lon="13.699730344413613"><ele>987.6666666666666</ele><time>2026-05-02T11:10:45Z</time></trkpt><trkpt lat="42.087866842522466" lon="13.699832209882192"><ele>986.0</ele><time>2026-05-02T11:10:46Z</time></trkpt><trkpt lat="42.0878453615701" lon="13.699935047630623"><ele>984.3333333333333</ele><time>2026-05-02T11:10:47Z</time></trkpt><trkpt lat="42.08780487935068" lon="13.700034094373482"><ele>982.6666666666666</ele><time>2026-05-02T11:10:48Z</time></trkpt><trkpt lat="42.08773477739322" lon="13.700082172461062"><ele>981.0</ele><time>2026-05-02T11:10:49Z</time></trkpt><trkpt lat="42.08767046782182" lon="13.700112960117334"><ele>981.0</ele><time>2026-05-02T11:10:50Z</time></trkpt><trkpt lat="42.08759954890057" lon="13.700130091037408"><ele>981.0</ele><time>2026-05-02T11:10:51Z</time></trkpt><trkpt lat="42.08751146556486" lon="13.700178033148504"><ele>981.0</ele><time>2026-05-02T11:10:52Z</time></trkpt><trkpt lat="42.0874196159646" lon="13.700177527814828"><ele>981.0</ele><time>2026-05-02T11:10:53Z</time></trkpt><trkpt lat="42.08734035353849" lon="13.70020801871487"><ele>981.0</ele><time>2026-05-02T11:10:54Z</time></trkpt><trkpt lat="42.08726593410726" lon="13.700276115911732"><ele>981.0</ele><time>2026-05-02T11:10:55Z</time></trkpt><trkpt lat="42.08718418792769" lon="13.700345157388146"><ele>980.5</ele><time>2026-05-02T11:10:56Z</time></trkpt><trkpt lat="42.08710562075804" lon="13.700433141167967"><ele>980.0</ele><time>2026-05-02T11:10:57Z</time></trkpt><trkpt lat="42.087020279347655" lon="13.70049655156422"><ele>979.5</ele><time>2026-05-02T11:10:58Z</time></trkpt><trkpt lat="42.08694771783159" lon="13.700535214241238"><ele>979.0</ele><time>2026-05-02T11:10:59Z</time></trkpt><trkpt lat="42.08688010048798" lon="13.700580189485132"><ele>978.5</ele><time>2026-05-02T11:11:00Z</time></trkpt><trkpt lat="42.08682999592516" lon="13.700638588627283"><ele>978.0</ele><time>2026-05-02T11:11:01Z</time></trkpt><trkpt lat="42.08675325231141" lon="13.70067547167833"><ele>978.0</ele><time>2026-05-02T11:11:02Z</time></trkpt><trkpt lat="42.086697541168526" lon="13.700730914687984"><ele>978.0</ele><time>2026-05-02T11:11:03Z</time></trkpt><trkpt lat="42.08663913878187" lon="13.700799041207357"><ele>978.0</ele><time>2026-05-02T11:11:04Z</time></trkpt><trkpt lat="42.08659554799164" lon="13.700882596481533"><ele>978.0</ele><time>2026-05-02T11:11:05Z</time></trkpt><trkpt lat="42.086532873879946" lon="13.70096383734606"><ele>978.0</ele><time>2026-05-02T11:11:06Z</time></trkpt><trkpt lat="42.086460646898146" lon="13.701061512808588"><ele>978.0</ele><time>2026-05-02T11:11:08Z</time></trkpt><trkpt lat="42.08639950753063" lon="13.701186675545213"><ele>977.3333333333334</ele><time>2026-05-02T11:11:10Z</time></trkpt><trkpt lat="42.086341920810035" lon="13.701313769027164"><ele>976.6666666666667</ele><time>2026-05-02T11:11:12Z</time></trkpt><trkpt lat="42.086311812115085" lon="13.701391329792493"><ele>976.0</ele><time>2026-05-02T11:11:13Z</time></trkpt><trkpt lat="42.08628082128284" lon="13.701471563619283"><ele>975.3333333333334</ele><time>2026-05-02T11:11:14Z</time></trkpt><trkpt lat="42.08624545507633" lon="13.701560465972683"><ele>974.6666666666667</ele><time>2026-05-02T11:11:15Z</time></trkpt><trkpt lat="42.08621039249506" lon="13.701638947561385"><ele>974.0</ele><time>2026-05-02T11:11:16Z</time></trkpt><trkpt lat="42.086181840852674" lon="13.701726742471902"><ele>974.0000000000001</ele><time>2026-05-02T11:11:17Z</time></trkpt><trkpt lat="42.08613374969885" lon="13.701824229377673"><ele>974.0</ele><time>2026-05-02T11:11:18Z</time></trkpt><trkpt lat="42.08608666824346" lon="13.70192767634185"><ele>974.0</ele><time>2026-05-02T11:11:19Z</time></trkpt><trkpt lat="42.086043666980295" lon="13.70202525202095"><ele>974.0</ele><time>2026-05-02T11:11:20Z</time></trkpt><trkpt lat="42.085988006476015" lon="13.702121304153533"><ele>974.0000000000001</ele><time>2026-05-02T11:11:21Z</time></trkpt><trkpt lat="42.08594379519802" lon="13.702226439700294"><ele>974.0</ele><time>2026-05-02T11:11:22Z</time></trkpt><trkpt lat="42.08589723236567" lon="13.702334581324354"><ele>973.5000000000001</ele><time>2026-05-02T11:11:23Z</time></trkpt><trkpt lat="42.08585592603691" lon="13.702448076560005"><ele>973.0</ele><time>2026-05-02T11:11:24Z</time></trkpt><trkpt lat="42.08582380033676" lon="13.702553815697549"><ele>972.5</ele><time>2026-05-02T11:11:25Z</time></trkpt><trkpt lat="42.08579085533538" lon="13.702649602780399"><ele>972.0</ele><time>2026-05-02T11:11:26Z</time></trkpt><trkpt lat="42.08574985293899" lon="13.702749431999308"><ele>971.5000000000001</ele><time>2026-05-02T11:11:27Z</time></trkpt><trkpt lat="42.085692049772106" lon="13.70283233561034"><ele>971.0</ele><time>2026-05-02T11:11:28Z</time></trkpt><trkpt lat="42.08563855816377" lon="13.702917671619314"><ele>970.0000000000001</ele><time>2026-05-02T11:11:29Z</time></trkpt><trkpt lat="42.08558153302233" lon="13.703003317651126"><ele>969.0</ele><time>2026-05-02T11:11:30Z</time></trkpt><trkpt lat="42.085535493125946" lon="13.703101651365936"><ele>968.0</ele><time>2026-05-02T11:11:31Z</time></trkpt><trkpt lat="42.08546168085377" lon="13.703171860745055"><ele>967.0</ele><time>2026-05-02T11:11:32Z</time></trkpt><trkpt lat="42.08539780328352" lon="13.703258831520287"><ele>966.0000000000001</ele><time>2026-05-02T11:11:33Z</time></trkpt><trkpt lat="42.08533208361476" lon="13.703343282874261"><ele>965.0</ele><time>2026-05-02T11:11:34Z</time></trkpt><trkpt lat="42.085264689662345" lon="13.703423795852022"><ele>965.0</ele><time>2026-05-02T11:11:35Z</time></trkpt><trkpt lat="42.08519879840034" lon="13.703491548334332"><ele>965.0</ele><time>2026-05-02T11:11:36Z</time></trkpt><trkpt lat="42.08512021761467" lon="13.703563396007223"><ele>965.0</ele><time>2026-05-02T11:11:37Z</time></trkpt><trkpt lat="42.085030266918636" lon="13.703635390448497"><ele>965.0</ele><time>2026-05-02T11:11:38Z</time></trkpt><trkpt lat="42.08495048189156" lon="13.703722764430834"><ele>965.0</ele><time>2026-05-02T11:11:39Z</time></trkpt><trkpt lat="42.08486805455473" lon="13.703789025746607"><ele>965.1666666666667</ele><time>2026-05-02T11:11:40Z</time></trkpt><trkpt lat="42.08479330489069" lon="13.703853497372227"><ele>965.3333333333334</ele><time>2026-05-02T11:11:41Z</time></trkpt><trkpt lat="42.08471330629868" lon="13.70390689254052"><ele>965.5</ele><time>2026-05-02T11:11:42Z</time></trkpt><trkpt lat="42.08465091964729" lon="13.703993606035406"><ele>965.6666666666667</ele><time>2026-05-02T11:11:43Z</time></trkpt><trkpt lat="42.08458255750158" lon="13.704057977339362"><ele>965.8333333333334</ele><time>2026-05-02T11:11:44Z</time></trkpt><trkpt lat="42.08451738694434" lon="13.704127409819412"><ele>966.0</ele><time>2026-05-02T11:11:45Z</time></trkpt><trkpt lat="42.08441524760949" lon="13.70422132908302"><ele>966.0</ele><time>2026-05-02T11:11:47Z</time></trkpt><trkpt lat="42.08435998785191" lon="13.704282037165267"><ele>966.0</ele><time>2026-05-02T11:11:48Z</time></trkpt><trkpt lat="42.08430112175825" lon="13.704346707279473"><ele>966.0</ele><time>2026-05-02T11:11:49Z</time></trkpt><trkpt lat="42.08425235885428" lon="13.704428514501092"><ele>966.0</ele><time>2026-05-02T11:11:50Z</time></trkpt><trkpt lat="42.0841853464551" lon="13.704496546321439"><ele>966.0</ele><time>2026-05-02T11:11:51Z</time></trkpt><trkpt lat="42.084125956455374" lon="13.704562741153993"><ele>966.0</ele><time>2026-05-02T11:11:52Z</time></trkpt><trkpt lat="42.08406661500807" lon="13.70463296902079"><ele>966.3333333333334</ele><time>2026-05-02T11:11:53Z</time></trkpt><trkpt lat="42.08400693722313" lon="13.704707817902813"><ele>966.6666666666667</ele><time>2026-05-02T11:11:54Z</time></trkpt><trkpt lat="42.08395434335759" lon="13.704786263549964"><ele>967.0</ele><time>2026-05-02T11:11:55Z</time></trkpt><trkpt lat="42.08389773250839" lon="13.704859981844354"><ele>967.3333333333334</ele><time>2026-05-02T11:11:56Z</time></trkpt><trkpt lat="42.08382570499372" lon="13.70491948848043"><ele>967.6666666666667</ele><time>2026-05-02T11:11:57Z</time></trkpt><trkpt lat="42.08375660503084" lon="13.704979679974997"><ele>968.0</ele><time>2026-05-02T11:11:58Z</time></trkpt><trkpt lat="42.08367240283084" lon="13.705045608516645"><ele>968.0</ele><time>2026-05-02T11:11:59Z</time></trkpt><trkpt lat="42.08359136053761" lon="13.705109009111696"><ele>968.0</ele><time>2026-05-02T11:12:00Z</time></trkpt><trkpt lat="42.08352275344901" lon="13.705186716120533"><ele>968.0</ele><time>2026-05-02T11:12:01Z</time></trkpt><trkpt lat="42.08346237255395" lon="13.705248177045618"><ele>968.0</ele><time>2026-05-02T11:12:02Z</time></trkpt><trkpt lat="42.08339540043435" lon="13.705291561893986"><ele>968.0</ele><time>2026-05-02T11:12:03Z</time></trkpt><trkpt lat="42.08330962454879" lon="13.705413589421793"><ele>967.3333333333334</ele><time>2026-05-02T11:12:05Z</time></trkpt><trkpt lat="42.08326441102954" lon="13.705475184349392"><ele>966.6666666666667</ele><time>2026-05-02T11:12:06Z</time></trkpt><trkpt lat="42.08321349447786" lon="13.7055261688507"><ele>966.0</ele><time>2026-05-02T11:12:07Z</time></trkpt><trkpt lat="42.083144790507006" lon="13.705660751501089"><ele>965.3333333333333</ele><time>2026-05-02T11:12:09Z</time></trkpt><trkpt lat="42.08312361708724" lon="13.70575553450387"><ele>964.6666666666666</ele><time>2026-05-02T11:12:10Z</time></trkpt><trkpt lat="42.08308594256044" lon="13.705827982660292"><ele>964.0</ele><time>2026-05-02T11:12:11Z</time></trkpt><trkpt lat="42.08300427197223" lon="13.705976481451101"><ele>965.0</ele><time>2026-05-02T11:12:13Z</time></trkpt><trkpt lat="42.082945589248865" lon="13.706033603136293"><ele>966.0000000000001</ele><time>2026-05-02T11:12:14Z</time></trkpt><trkpt lat="42.08289672033066" lon="13.70611162761031"><ele>967.0000000000001</ele><time>2026-05-02T11:12:15Z</time></trkpt><trkpt lat="42.08285331495337" lon="13.706185287201114"><ele>968.0</ele><time>2026-05-02T11:12:16Z</time></trkpt><trkpt lat="42.08280221037507" lon="13.7063198181942"><ele>969.0</ele><time>2026-05-02T11:12:18Z</time></trkpt><trkpt lat="42.08268957583661" lon="13.706449736902192"><ele>969.0</ele><time>2026-05-02T11:12:20Z</time></trkpt><trkpt lat="42.08261779867062" lon="13.706549046961895"><ele>969.0</ele><time>2026-05-02T11:12:21Z</time></trkpt><trkpt lat="42.08254236194948" lon="13.70667628498397"><ele>969.0</ele><time>2026-05-02T11:12:22Z</time></trkpt><trkpt lat="42.08247205704774" lon="13.706810032725905"><ele>969.0</ele><time>2026-05-02T11:12:23Z</time></trkpt><trkpt lat="42.08240524142556" lon="13.706940643003954"><ele>973.25</ele><time>2026-05-02T11:12:24Z</time></trkpt><trkpt lat="42.08232913430064" lon="13.707078437486807"><ele>977.5</ele><time>2026-05-02T11:12:25Z</time></trkpt><trkpt lat="42.082244643312386" lon="13.707220266291216"><ele>981.75</ele><time>2026-05-02T11:12:26Z</time></trkpt><trkpt lat="42.082144057666895" lon="13.707363915742278"><ele>986.0</ele><time>2026-05-02T11:12:27Z</time></trkpt><trkpt lat="42.08204773458573" lon="13.707508357738073"><ele>986.0</ele><time>2026-05-02T11:12:28Z</time></trkpt><trkpt lat="42.08194706804941" lon="13.707661007591597"><ele>986.0</ele><time>2026-05-02T11:12:29Z</time></trkpt><trkpt lat="42.08185325246959" lon="13.707795674715694"><ele>986.0</ele><time>2026-05-02T11:12:30Z</time></trkpt><trkpt lat="42.081757644623174" lon="13.707927035036091"><ele>986.0</ele><time>2026-05-02T11:12:31Z</time></trkpt><trkpt lat="42.08166494913771" lon="13.70805498446344"><ele>987.0</ele><time>2026-05-02T11:12:32Z</time></trkpt><trkpt lat="42.08157097722019" lon="13.708179843553214"><ele>988.0</ele><time>2026-05-02T11:12:33Z</time></trkpt><trkpt lat="42.081470317675034" lon="13.708294351960811"><ele>989.0</ele><time>2026-05-02T11:12:34Z</time></trkpt><trkpt lat="42.081354290735746" lon="13.708385574828114"><ele>990.0</ele><time>2026-05-02T11:12:35Z</time></trkpt><trkpt lat="42.08123486031595" lon="13.708460707282232"><ele>990.0</ele><time>2026-05-02T11:12:36Z</time></trkpt><trkpt lat="42.08110617616175" lon="13.70853303586854"><ele>990.0</ele><time>2026-05-02T11:12:37Z</time></trkpt><trkpt lat="42.08096932622316" lon="13.708619365865049"><ele>990.0</ele><time>2026-05-02T11:12:38Z</time></trkpt><trkpt lat="42.08082390706754" lon="13.708709718129208"><ele>985.6666666666667</ele><time>2026-05-02T11:12:39Z</time></trkpt><trkpt lat="42.08067334913157" lon="13.7087997950368"><ele>981.3333333333334</ele><time>2026-05-02T11:12:40Z</time></trkpt><trkpt lat="42.080517755672005" lon="13.708891163023411"><ele>977.0</ele><time>2026-05-02T11:12:41Z</time></trkpt><trkpt lat="42.080358183208816" lon="13.708983189559465"><ele>977.0</ele><time>2026-05-02T11:12:42Z</time></trkpt><trkpt lat="42.08019806977016" lon="13.709080641128992"><ele>977.0</ele><time>2026-05-02T11:12:43Z</time></trkpt><trkpt lat="42.08004150804825" lon="13.70917441234886"><ele>977.0</ele><time>2026-05-02T11:12:44Z</time></trkpt><trkpt lat="42.0798955863538" lon="13.709258925932877"><ele>978.75</ele><time>2026-05-02T11:12:45Z</time></trkpt><trkpt lat="42.07976431153445" lon="13.709337542705446"><ele>980.5</ele><time>2026-05-02T11:12:46Z</time></trkpt><trkpt lat="42.07964392458878" lon="13.709411691721371"><ele>982.25</ele><time>2026-05-02T11:12:47Z</time></trkpt><trkpt lat="42.07953322360885" lon="13.709474053602547"><ele>984.0</ele><time>2026-05-02T11:12:48Z</time></trkpt><trkpt lat="42.0794216351491" lon="13.709513685174743"><ele>978.5</ele><time>2026-05-02T11:12:49Z</time></trkpt><trkpt lat="42.07930146192567" lon="13.709514530161332"><ele>973.0</ele><time>2026-05-02T11:12:50Z</time></trkpt><trkpt lat="42.07918321733026" lon="13.709477516987931"><ele>967.5</ele><time>2026-05-02T11:12:51Z</time></trkpt><trkpt lat="42.07907733028178" lon="13.709408286327033"><ele>962.0</ele><time>2026-05-02T11:12:52Z</time></trkpt><trkpt lat="42.07899158838011" lon="13.709299058826245"><ele>961.0</ele><time>2026-05-02T11:12:53Z</time></trkpt><trkpt lat="42.07891876323257" lon="13.709159871514265"><ele>960.0</ele><time>2026-05-02T11:12:54Z</time></trkpt><trkpt lat="42.07885175885488" lon="13.709002053100345"><ele>959.0</ele><time>2026-05-02T11:12:55Z</time></trkpt><trkpt lat="42.078790238521805" lon="13.708832939227182"><ele>958.0</ele><time>2026-05-02T11:12:56Z</time></trkpt><trkpt lat="42.078728872624026" lon="13.708649057071147"><ele>963.6666666666666</ele><time>2026-05-02T11:12:57Z</time></trkpt><trkpt lat="42.0786666815789" lon="13.708461944944842"><ele>969.3333333333333</ele><time>2026-05-02T11:12:58Z</time></trkpt><trkpt lat="42.07861388851739" lon="13.708262169341703"><ele>975.0</ele><time>2026-05-02T11:12:59Z</time></trkpt><trkpt lat="42.07857297563597" lon="13.708053548211435"><ele>975.0</ele><time>2026-05-02T11:13:00Z</time></trkpt><trkpt lat="42.0785408475181" lon="13.707843739355834"><ele>975.0</ele><time>2026-05-02T11:13:01Z</time></trkpt><trkpt lat="42.078507318039826" lon="13.707636586306753"><ele>975.0</ele><time>2026-05-02T11:13:02Z</time></trkpt><trkpt lat="42.078474493268764" lon="13.707434364924485"><ele>978.5</ele><time>2026-05-02T11:13:03Z</time></trkpt><trkpt lat="42.078443995843166" lon="13.707247697386265"><ele>982.0</ele><time>2026-05-02T11:13:03.999Z</time></trkpt><trkpt lat="42.07841654676641" lon="13.707079752577947"><ele>985.5</ele><time>2026-05-02T11:13:04.999Z</time></trkpt><trkpt lat="42.0783875629516" lon="13.706946506589858"><ele>989.0</ele><time>2026-05-02T11:13:05.999Z</time></trkpt><trkpt lat="42.07834313923847" lon="13.706845606107748"><ele>991.4000000000001</ele><time>2026-05-02T11:13:06.999Z</time></trkpt><trkpt lat="42.078275190507455" lon="13.70677255776685"><ele>993.8000000000001</ele><time>2026-05-02T11:13:07.999Z</time></trkpt><trkpt lat="42.078185905173946" lon="13.706746143729871"><ele>996.1999999999999</ele><time>2026-05-02T11:13:08.999Z</time></trkpt><trkpt lat="42.07809386380472" lon="13.706780787089695"><ele>998.5999999999999</ele><time>2026-05-02T11:13:09.999Z</time></trkpt><trkpt lat="42.07801476620146" lon="13.706870807561891"><ele>1001.0</ele><time>2026-05-02T11:13:10.999Z</time></trkpt><trkpt lat="42.07794612637382" lon="13.706994241508347"><ele>1001.0</ele><time>2026-05-02T11:13:11.999Z</time></trkpt><trkpt lat="42.07786698966819" lon="13.707136643850593"><ele>1001.0</ele><time>2026-05-02T11:13:12.999Z</time></trkpt><trkpt lat="42.07777688120856" lon="13.707284634766614"><ele>1001.0</ele><time>2026-05-02T11:13:13.999Z</time></trkpt><trkpt lat="42.077677161137245" lon="13.707442279935634"><ele>1001.0</ele><time>2026-05-02T11:13:14.999Z</time></trkpt><trkpt lat="42.07757908115363" lon="13.70760123599516"><ele>995.75</ele><time>2026-05-02T11:13:15.999Z</time></trkpt><trkpt lat="42.077492904960046" lon="13.707743923122782"><ele>990.5</ele><time>2026-05-02T11:13:16.999Z</time></trkpt><trkpt lat="42.07741423577574" lon="13.70786358761582"><ele>985.25</ele><time>2026-05-02T11:13:17.999Z</time></trkpt><trkpt lat="42.07732415352666" lon="13.707950006290696"><ele>980.0</ele><time>2026-05-02T11:13:18.999Z</time></trkpt><trkpt lat="42.07721962964006" lon="13.70799585845873"><ele>980.0</ele><time>2026-05-02T11:13:19.999Z</time></trkpt><trkpt lat="42.07711104161783" lon="13.707986747804766"><ele>980.0</ele><time>2026-05-02T11:13:20.999Z</time></trkpt><trkpt lat="42.07699378727784" lon="13.707947753540015"><ele>980.0</ele><time>2026-05-02T11:13:21.999Z</time></trkpt><trkpt lat="42.07686376701245" lon="13.707907481435708"><ele>980.0</ele><time>2026-05-02T11:13:22.999Z</time></trkpt><trkpt lat="42.0767210712215" lon="13.707864694462021"><ele>977.6666666666667</ele><time>2026-05-02T11:13:23.999Z</time></trkpt><trkpt lat="42.07656861119601" lon="13.707815121535909"><ele>975.3333333333333</ele><time>2026-05-02T11:13:25Z</time></trkpt><trkpt lat="42.076409851892244" lon="13.707763877896747"><ele>973.0</ele><time>2026-05-02T11:13:26Z</time></trkpt><trkpt lat="42.07624682416235" lon="13.707713290211922"><ele>985.0</ele><time>2026-05-02T11:13:27Z</time></trkpt><trkpt lat="42.07608676935481" lon="13.707663956242016"><ele>997.0</ele><time>2026-05-02T11:13:28Z</time></trkpt><trkpt lat="42.07593675758688" lon="13.707617753886954"><ele>1009.0</ele><time>2026-05-02T11:13:29Z</time></trkpt><trkpt lat="42.07579503418008" lon="13.707572394612452"><ele>1005.75</ele><time>2026-05-02T11:13:30Z</time></trkpt><trkpt lat="42.07566099639352" lon="13.70752637624781"><ele>1002.5</ele><time>2026-05-02T11:13:31Z</time></trkpt><trkpt lat="42.075529601938776" lon="13.707461931260749"><ele>999.25</ele><time>2026-05-02T11:13:32Z</time></trkpt><trkpt lat="42.075402202416996" lon="13.707367535035026"><ele>996.0</ele><time>2026-05-02T11:13:33Z</time></trkpt><trkpt lat="42.0752761208473" lon="13.70725415322685"><ele>996.0</ele><time>2026-05-02T11:13:34Z</time></trkpt><trkpt lat="42.07514507859677" lon="13.707133873682913"><ele>996.0</ele><time>2026-05-02T11:13:35Z</time></trkpt><trkpt lat="42.07500760739203" lon="13.70701330398186"><ele>996.0</ele><time>2026-05-02T11:13:36Z</time></trkpt><trkpt lat="42.07486798537314" lon="13.706889404303796"><ele>998.3333333333333</ele><time>2026-05-02T11:13:37Z</time></trkpt><trkpt lat="42.0747308739961" lon="13.706753268634321"><ele>1000.6666666666666</ele><time>2026-05-02T11:13:38Z</time></trkpt><trkpt lat="42.074598822015965" lon="13.706601503244372"><ele>1003.0</ele><time>2026-05-02T11:13:39Z</time></trkpt><trkpt lat="42.07447416378085" lon="13.706437049249311"><ele>1003.0</ele><time>2026-05-02T11:13:40Z</time></trkpt><trkpt lat="42.074354161365015" lon="13.706267881995263"><ele>1003.0</ele><time>2026-05-02T11:13:41Z</time></trkpt><trkpt lat="42.07423248935099" lon="13.706098132380024"><ele>1003.0</ele><time>2026-05-02T11:13:42Z</time></trkpt><trkpt lat="42.07411243438239" lon="13.705932993747972"><ele>1005.75</ele><time>2026-05-02T11:13:43Z</time></trkpt><trkpt lat="42.07399864731738" lon="13.705774822625756"><ele>1008.5</ele><time>2026-05-02T11:13:44Z</time></trkpt><trkpt lat="42.073895162453965" lon="13.705631026199546"><ele>1011.25</ele><time>2026-05-02T11:13:45Z</time></trkpt><trkpt lat="42.07380113229421" lon="13.705499679940475"><ele>1014.0</ele><time>2026-05-02T11:13:46Z</time></trkpt><trkpt lat="42.07371611079146" lon="13.705380155135368"><ele>1014.0</ele><time>2026-05-02T11:13:47Z</time></trkpt><trkpt lat="42.07363858734275" lon="13.705274381402237"><ele>1014.0000000000001</ele><time>2026-05-02T11:13:48Z</time></trkpt><trkpt lat="42.07355292253036" lon="13.705199760362072"><ele>1014.0000000000001</ele><time>2026-05-02T11:13:49Z</time></trkpt><trkpt lat="42.07345094727542" lon="13.705176846957967"><ele>1014.0</ele><time>2026-05-02T11:13:50Z</time></trkpt><trkpt lat="42.073341407121774" lon="13.705195707660206"><ele>1014.0</ele><time>2026-05-02T11:13:51Z</time></trkpt><trkpt lat="42.07322299488023" lon="13.70521554040027"><ele>1014.0</ele><time>2026-05-02T11:13:52Z</time></trkpt><trkpt lat="42.07309447166072" lon="13.705227380671037"><ele>1014.0</ele><time>2026-05-02T11:13:53Z</time></trkpt><trkpt lat="42.07295417594425" lon="13.705243226619498"><ele>1014.0</ele><time>2026-05-02T11:13:54Z</time></trkpt><trkpt lat="42.07280295944247" lon="13.705253728928975"><ele>1014.0</ele><time>2026-05-02T11:13:55Z</time></trkpt><trkpt lat="42.07264563914096" lon="13.705263963192362"><ele>1014.0</ele><time>2026-05-02T11:13:56Z</time></trkpt><trkpt lat="42.07247996623487" lon="13.705279755732578"><ele>1014.0</ele><time>2026-05-02T11:13:57Z</time></trkpt><trkpt lat="42.07230849638363" lon="13.705293429668838"><ele>1014.0</ele><time>2026-05-02T11:13:58Z</time></trkpt><trkpt lat="42.07213830996865" lon="13.705302960071434"><ele>1017.6666666666667</ele><time>2026-05-02T11:13:59Z</time></trkpt><trkpt lat="42.071971455705736" lon="13.705315719470079"><ele>1021.3333333333334</ele><time>2026-05-02T11:14:00Z</time></trkpt><trkpt lat="42.071814536699144" lon="13.705344594248086"><ele>1025.0</ele><time>2026-05-02T11:14:01Z</time></trkpt><trkpt lat="42.071674576967474" lon="13.705408043127425"><ele>1029.0</ele><time>2026-05-02T11:14:02Z</time></trkpt><trkpt lat="42.07155225935729" lon="13.705507940009777"><ele>1033.0</ele><time>2026-05-02T11:14:03Z</time></trkpt><trkpt lat="42.07145679604018" lon="13.70564424056441"><ele>1037.0</ele><time>2026-05-02T11:14:04Z</time></trkpt><trkpt lat="42.07137111614453" lon="13.705787942644502"><ele>1041.0</ele><time>2026-05-02T11:14:05Z</time></trkpt><trkpt lat="42.07129666606277" lon="13.705921516133118"><ele>1041.0</ele><time>2026-05-02T11:14:06Z</time></trkpt><trkpt lat="42.07122784946963" lon="13.706035347002464"><ele>1041.0</ele><time>2026-05-02T11:14:07Z</time></trkpt><trkpt lat="42.071149560427216" lon="13.706132459755928"><ele>1041.0</ele><time>2026-05-02T11:14:08Z</time></trkpt><trkpt lat="42.07105130629647" lon="13.706207922405225"><ele>1041.0</ele><time>2026-05-02T11:14:09Z</time></trkpt><trkpt lat="42.07094257581708" lon="13.70626571606037"><ele>1041.0</ele><time>2026-05-02T11:14:10Z</time></trkpt><trkpt lat="42.07082482304462" lon="13.70630063151429"><ele>1038.3999999999999</ele><time>2026-05-02T11:14:11Z</time></trkpt><trkpt lat="42.07070258543538" lon="13.706313882093022"><ele>1035.8</ele><time>2026-05-02T11:14:12Z</time></trkpt><trkpt lat="42.07058387120657" lon="13.706319801112194"><ele>1033.1999999999998</ele><time>2026-05-02T11:14:13Z</time></trkpt><trkpt lat="42.07048209408444" lon="13.706321444751778"><ele>1030.6</ele><time>2026-05-02T11:14:14Z</time></trkpt><trkpt lat="42.07039182382265" lon="13.70632101541297"><ele>1028.0</ele><time>2026-05-02T11:14:15Z</time></trkpt><trkpt lat="42.07030262402814" lon="13.706312632776509"><ele>1028.0</ele><time>2026-05-02T11:14:16Z</time></trkpt><trkpt lat="42.07021448528885" lon="13.706277790759877"><ele>1028.0</ele><time>2026-05-02T11:14:17Z</time></trkpt><trkpt lat="42.07014832853376" lon="13.706200037727607"><ele>1028.0</ele><time>2026-05-02T11:14:18Z</time></trkpt><trkpt lat="42.070126054610114" lon="13.70609286130788"><ele>1028.0</ele><time>2026-05-02T11:14:19Z</time></trkpt><trkpt lat="42.0701485240958" lon="13.705981765352522"><ele>1028.0</ele><time>2026-05-02T11:14:20Z</time></trkpt><trkpt lat="42.07021222144158" lon="13.705895157685378"><ele>1028.0</ele><time>2026-05-02T11:14:21Z</time></trkpt><trkpt lat="42.07030326737144" lon="13.705852784496242"><ele>1032.75</ele><time>2026-05-02T11:14:22Z</time></trkpt><trkpt lat="42.070407488911336" lon="13.705853538740723"><ele>1037.5</ele><time>2026-05-02T11:14:23Z</time></trkpt><trkpt lat="42.070521965511354" lon="13.70587757116578"><ele>1042.25</ele><time>2026-05-02T11:14:24Z</time></trkpt><trkpt lat="42.070646397195055" lon="13.705892098834425"><ele>1047.0</ele><time>2026-05-02T11:14:25Z</time></trkpt><trkpt lat="42.070772633591595" lon="13.705893879355974"><ele>1045.5</ele><time>2026-05-02T11:14:26Z</time></trkpt><trkpt lat="42.07088986551696" lon="13.705877758427446"><ele>1044.0</ele><time>2026-05-02T11:14:27Z</time></trkpt><trkpt lat="42.070998590936576" lon="13.705830851063162"><ele>1042.5</ele><time>2026-05-02T11:14:28Z</time></trkpt><trkpt lat="42.07110150533966" lon="13.705729697661154"><ele>1041.0</ele><time>2026-05-02T11:14:29Z</time></trkpt><trkpt lat="42.07118827543835" lon="13.705578503676195"><ele>1041.0</ele><time>2026-05-02T11:14:30Z</time></trkpt><trkpt lat="42.071271992587675" lon="13.70540838488674"><ele>1041.0</ele><time>2026-05-02T11:14:31Z</time></trkpt><trkpt lat="42.07137641079325" lon="13.705252552275235"><ele>1041.0</ele><time>2026-05-02T11:14:32Z</time></trkpt><trkpt lat="42.071504894914824" lon="13.705114492282904"><ele>1042.6666666666667</ele><time>2026-05-02T11:14:33Z</time></trkpt><trkpt lat="42.071641087245624" lon="13.704991242582771"><ele>1044.3333333333335</ele><time>2026-05-02T11:14:34Z</time></trkpt><trkpt lat="42.07177049877442" lon="13.704872390412637"><ele>1046.0</ele><time>2026-05-02T11:14:35Z</time></trkpt><trkpt lat="42.07190397985221" lon="13.704745604140458"><ele>1046.0</ele><time>2026-05-02T11:14:36Z</time></trkpt><trkpt lat="42.07203241553118" lon="13.70462345574609"><ele>1046.0</ele><time>2026-05-02T11:14:37Z</time></trkpt><trkpt lat="42.072151857039565" lon="13.704518168022371"><ele>1046.0</ele><time>2026-05-02T11:14:38Z</time></trkpt><trkpt lat="42.07226637761269" lon="13.704406349415354"><ele>1046.0</ele><time>2026-05-02T11:14:39Z</time></trkpt><trkpt lat="42.07236043071866" lon="13.70425721564045"><ele>1047.5</ele><time>2026-05-02T11:14:40Z</time></trkpt><trkpt lat="42.07244245757021" lon="13.704081634664085"><ele>1049.0</ele><time>2026-05-02T11:14:41Z</time></trkpt><trkpt lat="42.07252656542098" lon="13.703917952565698"><ele>1050.5</ele><time>2026-05-02T11:14:42Z</time></trkpt><trkpt lat="42.07260384825087" lon="13.703781226183576"><ele>1052.0</ele><time>2026-05-02T11:14:43Z</time></trkpt><trkpt lat="42.072665324869824" lon="13.70366090131671"><ele>1054.3333333333335</ele><time>2026-05-02T11:14:44Z</time></trkpt><trkpt lat="42.072697369242825" lon="13.703558358307713"><ele>1056.6666666666667</ele><time>2026-05-02T11:14:44.999Z</time></trkpt><trkpt lat="42.07268952475041" lon="13.703455094260434"><ele>1059.0</ele><time>2026-05-02T11:14:45.999Z</time></trkpt><trkpt lat="42.07264080325151" lon="13.703360544421457"><ele>1061.3333333333333</ele><time>2026-05-02T11:14:46.999Z</time></trkpt><trkpt lat="42.0725594047359" lon="13.703317038228816"><ele>1063.6666666666665</ele><time>2026-05-02T11:14:47.999Z</time></trkpt><trkpt lat="42.072471884970334" lon="13.703337820838646"><ele>1066.0</ele><time>2026-05-02T11:14:48.999Z</time></trkpt><trkpt lat="42.07239296273606" lon="13.703411113474317"><ele>1065.5</ele><time>2026-05-02T11:14:49.999Z</time></trkpt><trkpt lat="42.072315190261094" lon="13.703523346582063"><ele>1065.0</ele><time>2026-05-02T11:14:50.999Z</time></trkpt><trkpt lat="42.07222545404933" lon="13.703647823001097"><ele>1064.5</ele><time>2026-05-02T11:14:51.999Z</time></trkpt><trkpt lat="42.07212083947605" lon="13.703775942553287"><ele>1064.0</ele><time>2026-05-02T11:14:52.999Z</time></trkpt><trkpt lat="42.07200735375897" lon="13.703913202073498"><ele>1064.0</ele><time>2026-05-02T11:14:53.999Z</time></trkpt><trkpt lat="42.07189035422125" lon="13.704058227391888"><ele>1064.0</ele><time>2026-05-02T11:14:54.999Z</time></trkpt><trkpt lat="42.07177100531107" lon="13.704190554032813"><ele>1064.0</ele><time>2026-05-02T11:14:55.999Z</time></trkpt><trkpt lat="42.0716583093979" lon="13.704295456375087"><ele>1066.5</ele><time>2026-05-02T11:14:56.999Z</time></trkpt><trkpt lat="42.071534550611986" lon="13.704365937171232"><ele>1069.0</ele><time>2026-05-02T11:14:57.999Z</time></trkpt><trkpt lat="42.07139592534294" lon="13.704391266216"><ele>1071.5</ele><time>2026-05-02T11:14:58.999Z</time></trkpt><trkpt lat="42.071252021176605" lon="13.70438165245638"><ele>1074.0</ele><time>2026-05-02T11:14:59.999Z</time></trkpt><trkpt lat="42.071100599105165" lon="13.704369711623151"><ele>1074.0</ele><time>2026-05-02T11:15:00.999Z</time></trkpt><trkpt lat="42.07094060428644" lon="13.704359716329625"><ele>1074.0</ele><time>2026-05-02T11:15:01.999Z</time></trkpt><trkpt lat="42.07078810811097" lon="13.704346374468612"><ele>1074.0</ele><time>2026-05-02T11:15:02.999Z</time></trkpt><trkpt lat="42.070632198220004" lon="13.704333531116772"><ele>1072.3333333333333</ele><time>2026-05-02T11:15:03.999Z</time></trkpt><trkpt lat="42.070478672189786" lon="13.704329135106155"><ele>1070.6666666666665</ele><time>2026-05-02T11:15:04.999Z</time></trkpt><trkpt lat="42.070329555375295" lon="13.704358368969105"><ele>1069.0</ele><time>2026-05-02T11:15:05.999Z</time></trkpt><trkpt lat="42.07018938158271" lon="13.704430740320648"><ele>1069.0</ele><time>2026-05-02T11:15:06.999Z</time></trkpt><trkpt lat="42.070059229428075" lon="13.704543070895081"><ele>1069.0</ele><time>2026-05-02T11:15:07.999Z</time></trkpt><trkpt lat="42.06993525905053" lon="13.704684947921217"><ele>1069.0</ele><time>2026-05-02T11:15:08.999Z</time></trkpt><trkpt lat="42.06981245227468" lon="13.704844978034831"><ele>1069.6666666666665</ele><time>2026-05-02T11:15:09.999Z</time></trkpt><trkpt lat="42.069687435830744" lon="13.705010294976988"><ele>1070.3333333333333</ele><time>2026-05-02T11:15:10.999Z</time></trkpt><trkpt lat="42.06955588936505" lon="13.705168632596543"><ele>1071.0</ele><time>2026-05-02T11:15:11.999Z</time></trkpt><trkpt lat="42.06941757933521" lon="13.705312896773174"><ele>1071.0</ele><time>2026-05-02T11:15:12.999Z</time></trkpt><trkpt lat="42.06926435230769" lon="13.70543770559221"><ele>1071.0</ele><time>2026-05-02T11:15:13.999Z</time></trkpt><trkpt lat="42.06910284431491" lon="13.705547983361889"><ele>1071.0</ele><time>2026-05-02T11:15:14.999Z</time></trkpt><trkpt lat="42.0689381678992" lon="13.70564924923928"><ele>1077.0</ele><time>2026-05-02T11:15:15.999Z</time></trkpt><trkpt lat="42.068769535741154" lon="13.705735323680322"><ele>1083.0</ele><time>2026-05-02T11:15:16.999Z</time></trkpt><trkpt lat="42.06859601254541" lon="13.70580229025416"><ele>1089.0</ele><time>2026-05-02T11:15:17.999Z</time></trkpt><trkpt lat="42.06841637639825" lon="13.705849112058857"><ele>1093.6666666666667</ele><time>2026-05-02T11:15:18.999Z</time></trkpt><trkpt lat="42.06823297740121" lon="13.705891956155956"><ele>1098.3333333333335</ele><time>2026-05-02T11:15:19.999Z</time></trkpt><trkpt lat="42.068048023950865" lon="13.705935552146105"><ele>1103.0</ele><time>2026-05-02T11:15:20.999Z</time></trkpt><trkpt lat="42.06786559110905" lon="13.705975286407172"><ele>1103.0</ele><time>2026-05-02T11:15:21.999Z</time></trkpt><trkpt lat="42.067685226159696" lon="13.70600962764378"><ele>1103.0</ele><time>2026-05-02T11:15:22.999Z</time></trkpt><trkpt lat="42.067505858148394" lon="13.706034994734646"><ele>1103.0</ele><time>2026-05-02T11:15:23.999Z</time></trkpt><trkpt lat="42.0673250474973" lon="13.7060508705504"><ele>1105.0</ele><time>2026-05-02T11:15:24.999Z</time></trkpt><trkpt lat="42.0671474460486" lon="13.70605993940284"><ele>1107.0</ele><time>2026-05-02T11:15:25.999Z</time></trkpt><trkpt lat="42.06697085248532" lon="13.706064168089993"><ele>1109.0</ele><time>2026-05-02T11:15:26.999Z</time></trkpt><trkpt lat="42.0667980452376" lon="13.706060445496657"><ele>1109.0</ele><time>2026-05-02T11:15:27.999Z</time></trkpt><trkpt lat="42.06662469167704" lon="13.706057752414095"><ele>1109.0</ele><time>2026-05-02T11:15:28.999Z</time></trkpt><trkpt lat="42.066452871828766" lon="13.7060725114268"><ele>1109.0</ele><time>2026-05-02T11:15:29.999Z</time></trkpt><trkpt lat="42.06628435405216" lon="13.706109915657901"><ele>1100.3333333333335</ele><time>2026-05-02T11:15:31Z</time></trkpt><trkpt lat="42.06611877457826" lon="13.706164295302994"><ele>1091.6666666666667</ele><time>2026-05-02T11:15:32Z</time></trkpt><trkpt lat="42.06595039350699" lon="13.706213864181207"><ele>1083.0</ele><time>2026-05-02T11:15:33Z</time></trkpt><trkpt lat="42.06578344830367" lon="13.706249632451927"><ele>1086.6666666666667</ele><time>2026-05-02T11:15:34Z</time></trkpt><trkpt lat="42.06561460333246" lon="13.706251855522307"><ele>1090.3333333333335</ele><time>2026-05-02T11:15:35Z</time></trkpt><trkpt lat="42.06544765680165" lon="13.706223082656352"><ele>1094.0</ele><time>2026-05-02T11:15:36Z</time></trkpt><trkpt lat="42.065277461472235" lon="13.706194516592223"><ele>1094.0</ele><time>2026-05-02T11:15:37Z</time></trkpt><trkpt lat="42.06510711681134" lon="13.7061728240475"><ele>1094.0</ele><time>2026-05-02T11:15:38Z</time></trkpt><trkpt lat="42.06494380697627" lon="13.7061506855576"><ele>1094.0</ele><time>2026-05-02T11:15:39Z</time></trkpt><trkpt lat="42.06479115037798" lon="13.706130686046608"><ele>1099.5</ele><time>2026-05-02T11:15:40Z</time></trkpt><trkpt lat="42.064646237679426" lon="13.706118246342177"><ele>1105.0</ele><time>2026-05-02T11:15:41Z</time></trkpt><trkpt lat="42.064515111782875" lon="13.70611473749048"><ele>1110.5</ele><time>2026-05-02T11:15:42Z</time></trkpt><trkpt lat="42.06439393054379" lon="13.706111869962323"><ele>1116.0</ele><time>2026-05-02T11:15:43Z</time></trkpt><trkpt lat="42.064279764040535" lon="13.706101111495798"><ele>1116.0</ele><time>2026-05-02T11:15:44Z</time></trkpt><trkpt lat="42.06418152883216" lon="13.706085586141505"><ele>1116.0</ele><time>2026-05-02T11:15:45Z</time></trkpt><trkpt lat="42.06409840347688" lon="13.706056295803123"><ele>1116.0</ele><time>2026-05-02T11:15:46Z</time></trkpt><trkpt lat="42.06402572767617" lon="13.706001215293997"><ele>1116.0</ele><time>2026-05-02T11:15:47Z</time></trkpt><trkpt lat="42.06395551724128" lon="13.70592177258199"><ele>1116.0</ele><time>2026-05-02T11:15:48Z</time></trkpt><trkpt lat="42.063890973462975" lon="13.705826472059385"><ele>1115.3333333333333</ele><time>2026-05-02T11:15:49Z</time></trkpt><trkpt lat="42.063827567403855" lon="13.705729426212738"><ele>1114.6666666666667</ele><time>2026-05-02T11:15:50Z</time></trkpt><trkpt lat="42.06376960614572" lon="13.705646841929667"><ele>1114.0</ele><time>2026-05-02T11:15:51Z</time></trkpt><trkpt lat="42.063721196932484" lon="13.705576506956762"><ele>1113.3333333333335</ele><time>2026-05-02T11:15:52Z</time></trkpt><trkpt lat="42.0636718551222" lon="13.705499511638578"><ele>1112.6666666666667</ele><time>2026-05-02T11:15:53Z</time></trkpt><trkpt lat="42.063616686506535" lon="13.705416381284467"><ele>1112.0</ele><time>2026-05-02T11:15:54Z</time></trkpt><trkpt lat="42.06356277101965" lon="13.705325194618457"><ele>1110.8333333333335</ele><time>2026-05-02T11:15:55Z</time></trkpt><trkpt lat="42.06350981697334" lon="13.705228627311627"><ele>1109.6666666666667</ele><time>2026-05-02T11:15:56Z</time></trkpt><trkpt lat="42.06345859073988" lon="13.70513419470567"><ele>1108.5</ele><time>2026-05-02T11:15:57Z</time></trkpt><trkpt lat="42.06340975445316" lon="13.705040517508927"><ele>1107.3333333333333</ele><time>2026-05-02T11:15:58Z</time></trkpt><trkpt lat="42.06336392054883" lon="13.704951895698136"><ele>1106.1666666666665</ele><time>2026-05-02T11:15:59Z</time></trkpt><trkpt lat="42.063321805418866" lon="13.704870729094695"><ele>1105.0</ele><time>2026-05-02T11:16:00Z</time></trkpt><trkpt lat="42.06328299095124" lon="13.704794513632624"><ele>1101.5</ele><time>2026-05-02T11:16:01Z</time></trkpt><trkpt lat="42.06324754221007" lon="13.704713025010163"><ele>1098.0</ele><time>2026-05-02T11:16:02Z</time></trkpt><trkpt lat="42.06321604550541" lon="13.704614356331785"><ele>1094.5</ele><time>2026-05-02T11:16:03Z</time></trkpt><trkpt lat="42.06319165001933" lon="13.704501523864684"><ele>1091.0</ele><time>2026-05-02T11:16:04Z</time></trkpt><trkpt lat="42.06317183168427" lon="13.704382115019753"><ele>1087.5</ele><time>2026-05-02T11:16:05Z</time></trkpt><trkpt lat="42.063154576432225" lon="13.704267679211991"><ele>1084.0</ele><time>2026-05-02T11:16:06Z</time></trkpt><trkpt lat="42.06314008982391" lon="13.704169994634992"><ele>1084.0</ele><time>2026-05-02T11:16:07Z</time></trkpt><trkpt lat="42.063126364345784" lon="13.70408283448188"><ele>1084.0</ele><time>2026-05-02T11:16:08Z</time></trkpt><trkpt lat="42.063105358836204" lon="13.703930312487655"><ele>1084.0</ele><time>2026-05-02T11:16:10Z</time></trkpt><trkpt lat="42.06309165012449" lon="13.703832828586636"><ele>1084.0</ele><time>2026-05-02T11:16:12Z</time></trkpt><trkpt lat="42.063103769429304" lon="13.703918881358502"><ele>1084.0</ele><time>2026-05-02T11:16:19Z</time></trkpt><trkpt lat="42.06312450574012" lon="13.704051666529024"><ele>1084.0</ele><time>2026-05-02T11:16:20Z</time></trkpt><trkpt lat="42.06312817055669" lon="13.704170782724123"><ele>1084.0</ele><time>2026-05-02T11:16:21Z</time></trkpt><trkpt lat="42.06315212089924" lon="13.704294514127776"><ele>1084.0</ele><time>2026-05-02T11:16:22Z</time></trkpt><trkpt lat="42.06316198590995" lon="13.704432837884255"><ele>1084.0</ele><time>2026-05-02T11:16:23Z</time></trkpt><trkpt lat="42.063176213330806" lon="13.704576796050025"><ele>1084.0</ele><time>2026-05-02T11:16:24Z</time></trkpt><trkpt lat="42.06321308799204" lon="13.704724984466129"><ele>1084.0</ele><time>2026-05-02T11:16:25Z</time></trkpt><trkpt lat="42.06327111593747" lon="13.704855814265873"><ele>1088.2</ele><time>2026-05-02T11:16:26Z</time></trkpt><trkpt lat="42.06334099987785" lon="13.70498055536136"><ele>1092.4</ele><time>2026-05-02T11:16:27Z</time></trkpt><trkpt lat="42.06340980371819" lon="13.705107554894985"><ele>1096.6</ele><time>2026-05-02T11:16:28Z</time></trkpt><trkpt lat="42.06347709414499" lon="13.705228530315281"><ele>1100.8</ele><time>2026-05-02T11:16:29Z</time></trkpt><trkpt lat="42.06354052228471" lon="13.70533976005941"><ele>1105.0</ele><time>2026-05-02T11:16:30Z</time></trkpt><trkpt lat="42.063600265398804" lon="13.70544079037652"><ele>1106.1666666666665</ele><time>2026-05-02T11:16:31Z</time></trkpt><trkpt lat="42.0636551175865" lon="13.705529470303901"><ele>1107.3333333333333</ele><time>2026-05-02T11:16:32Z</time></trkpt><trkpt lat="42.063707313795504" lon="13.70559383320327"><ele>1108.5</ele><time>2026-05-02T11:16:33Z</time></trkpt><trkpt lat="42.06378679148055" lon="13.705693559663407"><ele>1109.6666666666667</ele><time>2026-05-02T11:16:35Z</time></trkpt><trkpt lat="42.06376053956719" lon="13.705783752862633"><ele>1110.8333333333335</ele><time>2026-05-02T11:16:37Z</time></trkpt><trkpt lat="42.06367049358885" lon="13.705802970408017"><ele>1112.0</ele><time>2026-05-02T11:16:39Z</time></trkpt><trkpt lat="42.063586022055745" lon="13.705715736520327"><ele>1112.0</ele><time>2026-05-02T11:16:41Z</time></trkpt><trkpt lat="42.06354040712457" lon="13.705655489963041"><ele>1112.0</ele><time>2026-05-02T11:16:42Z</time></trkpt><trkpt lat="42.063489768645006" lon="13.705597240128435"><ele>1112.0</ele><time>2026-05-02T11:16:43Z</time></trkpt><trkpt lat="42.06343522268279" lon="13.70553136138692"><ele>1112.0</ele><time>2026-05-02T11:16:43.999Z</time></trkpt><trkpt lat="42.06337529049648" lon="13.705461896507721"><ele>1112.0</ele><time>2026-05-02T11:16:44.999Z</time></trkpt><trkpt lat="42.063315767108065" lon="13.705399386429624"><ele>1112.0</ele><time>2026-05-02T11:16:45.999Z</time></trkpt><trkpt lat="42.06325848141844" lon="13.705343290677376"><ele>1112.0</ele><time>2026-05-02T11:16:46.999Z</time></trkpt><trkpt lat="42.06316832502512" lon="13.705261583933549"><ele>1106.4</ele><time>2026-05-02T11:16:48.999Z</time></trkpt><trkpt lat="42.06308845373887" lon="13.705187741103263"><ele>1100.8000000000002</ele><time>2026-05-02T11:16:50.999Z</time></trkpt><trkpt lat="42.06298952588408" lon="13.70513068768139"><ele>1095.2</ele><time>2026-05-02T11:16:52.999Z</time></trkpt><trkpt lat="42.0629022524211" lon="13.70507165235679"><ele>1089.6000000000001</ele><time>2026-05-02T11:16:54.999Z</time></trkpt><trkpt lat="42.06284568841537" lon="13.705028875400638"><ele>1084.0</ele><time>2026-05-02T11:16:55.999Z</time></trkpt><trkpt lat="42.06272968051684" lon="13.70498030178834"><ele>1084.0</ele><time>2026-05-02T11:16:57.999Z</time></trkpt><trkpt lat="42.06266501452181" lon="13.704969633915354"><ele>1084.0</ele><time>2026-05-02T11:16:58.999Z</time></trkpt><trkpt lat="42.0625352556299" lon="13.704957431104635"><ele>1084.0</ele><time>2026-05-02T11:17:00.999Z</time></trkpt><trkpt lat="42.06246057210981" lon="13.704942276245099"><ele>1084.0</ele><time>2026-05-02T11:17:01.999Z</time></trkpt><trkpt lat="42.06239034152118" lon="13.704928851669878"><ele>1084.0</ele><time>2026-05-02T11:17:02.999Z</time></trkpt><trkpt lat="42.06231566087826" lon="13.70493363977396"><ele>1084.0</ele><time>2026-05-02T11:17:03.999Z</time></trkpt><trkpt lat="42.062239731925224" lon="13.704937364868613"><ele>1082.3333333333333</ele><time>2026-05-02T11:17:04.999Z</time></trkpt><trkpt lat="42.06216091514537" lon="13.704930769199512"><ele>1080.6666666666665</ele><time>2026-05-02T11:17:05.999Z</time></trkpt><trkpt lat="42.062071839322975" lon="13.704920446658607"><ele>1079.0</ele><time>2026-05-02T11:17:06.999Z</time></trkpt><trkpt lat="42.06198275414775" lon="13.704908168039651"><ele>1077.3333333333333</ele><time>2026-05-02T11:17:07.999Z</time></trkpt><trkpt lat="42.061898093808196" lon="13.704896116415117"><ele>1075.6666666666667</ele><time>2026-05-02T11:17:08.999Z</time></trkpt><trkpt lat="42.0617943992092" lon="13.704878951513251"><ele>1074.0</ele><time>2026-05-02T11:17:10.999Z</time></trkpt><trkpt lat="42.06171720082197" lon="13.704816523395465"><ele>1073.9999999999998</ele><time>2026-05-02T11:17:12.999Z</time></trkpt><trkpt lat="42.061667740221935" lon="13.704750016255183"><ele>1074.0</ele><time>2026-05-02T11:17:13.999Z</time></trkpt><trkpt lat="42.06160654606146" lon="13.70467356293609"><ele>1074.0</ele><time>2026-05-02T11:17:14.999Z</time></trkpt><trkpt lat="42.061552335760354" lon="13.70460156079879"><ele>1074.0</ele><time>2026-05-02T11:17:15.999Z</time></trkpt><trkpt lat="42.06150186257875" lon="13.704527093806835"><ele>1074.0</ele><time>2026-05-02T11:17:16.999Z</time></trkpt><trkpt lat="42.061458847589336" lon="13.704453813069657"><ele>1073.9999999999998</ele><time>2026-05-02T11:17:17.999Z</time></trkpt><trkpt lat="42.061418238205505" lon="13.704380105554305"><ele>1074.0</ele><time>2026-05-02T11:17:18.999Z</time></trkpt><trkpt lat="42.06137493443624" lon="13.70430530027757"><ele>1073.142857142857</ele><time>2026-05-02T11:17:19.999Z</time></trkpt><trkpt lat="42.06133122471106" lon="13.704228128982882"><ele>1072.2857142857142</ele><time>2026-05-02T11:17:20.999Z</time></trkpt><trkpt lat="42.06128624340737" lon="13.704143979868299"><ele>1071.4285714285716</ele><time>2026-05-02T11:17:21.999Z</time></trkpt><trkpt lat="42.06124531886853" lon="13.704073163274204"><ele>1070.5714285714284</ele><time>2026-05-02T11:17:22.999Z</time></trkpt><trkpt lat="42.061203766285644" lon="13.70399828020133"><ele>1069.7142857142858</ele><time>2026-05-02T11:17:23.999Z</time></trkpt><trkpt lat="42.061154787714585" lon="13.703916872913169"><ele>1068.857142857143</ele><time>2026-05-02T11:17:24.999Z</time></trkpt><trkpt lat="42.06109995625428" lon="13.703836715939296"><ele>1068.0</ele><time>2026-05-02T11:17:25.999Z</time></trkpt><trkpt lat="42.06105028347107" lon="13.703754081328565"><ele>1068.0</ele><time>2026-05-02T11:17:26.999Z</time></trkpt><trkpt lat="42.060999766023485" lon="13.703666069637297"><ele>1068.0</ele><time>2026-05-02T11:17:27.999Z</time></trkpt><trkpt lat="42.060954179552425" lon="13.703586841621068"><ele>1068.0</ele><time>2026-05-02T11:17:28.999Z</time></trkpt><trkpt lat="42.06090496949088" lon="13.703500786934828"><ele>1068.0</ele><time>2026-05-02T11:17:29.999Z</time></trkpt><trkpt lat="42.060857492693465" lon="13.70342141838089"><ele>1068.0</ele><time>2026-05-02T11:17:30.999Z</time></trkpt><trkpt lat="42.06080630513764" lon="13.703335092241614"><ele>1068.0</ele><time>2026-05-02T11:17:31.999Z</time></trkpt><trkpt lat="42.06075852306036" lon="13.703246313049181"><ele>1068.4285714285716</ele><time>2026-05-02T11:17:32.999Z</time></trkpt><trkpt lat="42.06072194450942" lon="13.703174298110953"><ele>1068.857142857143</ele><time>2026-05-02T11:17:33.999Z</time></trkpt><trkpt lat="42.060686403790875" lon="13.703102032360128"><ele>1069.2857142857142</ele><time>2026-05-02T11:17:34.999Z</time></trkpt><trkpt lat="42.06064025180458" lon="13.703026177606894"><ele>1069.7142857142858</ele><time>2026-05-02T11:17:35.999Z</time></trkpt><trkpt lat="42.06058964884131" lon="13.70294314672138"><ele>1070.142857142857</ele><time>2026-05-02T11:17:37Z</time></trkpt><trkpt lat="42.060542825219514" lon="13.70285826866858"><ele>1070.5714285714287</ele><time>2026-05-02T11:17:38Z</time></trkpt><trkpt lat="42.06049693075765" lon="13.702769222177205"><ele>1071.0</ele><time>2026-05-02T11:17:39Z</time></trkpt><trkpt lat="42.06045561971261" lon="13.70268601995392"><ele>1070.0</ele><time>2026-05-02T11:17:40Z</time></trkpt><trkpt lat="42.06041089752582" lon="13.702592811887316"><ele>1069.0</ele><time>2026-05-02T11:17:41Z</time></trkpt><trkpt lat="42.060358552204995" lon="13.702496496070072"><ele>1068.0</ele><time>2026-05-02T11:17:42Z</time></trkpt><trkpt lat="42.06031517567903" lon="13.702412093980689"><ele>1067.0</ele><time>2026-05-02T11:17:43Z</time></trkpt><trkpt lat="42.0602659266739" lon="13.702328848946566"><ele>1066.0</ele><time>2026-05-02T11:17:44Z</time></trkpt><trkpt lat="42.06021080185191" lon="13.702239048383499"><ele>1065.0</ele><time>2026-05-02T11:17:45Z</time></trkpt><trkpt lat="42.0601567934054" lon="13.702152180976366"><ele>1065.0</ele><time>2026-05-02T11:17:46Z</time></trkpt><trkpt lat="42.06010860960008" lon="13.702074463921756"><ele>1065.0</ele><time>2026-05-02T11:17:47Z</time></trkpt><trkpt lat="42.06005473189308" lon="13.701996307522982"><ele>1065.0</ele><time>2026-05-02T11:17:48Z</time></trkpt><trkpt lat="42.06000469918822" lon="13.701910293010535"><ele>1065.0</ele><time>2026-05-02T11:17:49Z</time></trkpt><trkpt lat="42.05995651006216" lon="13.70181474809059"><ele>1065.0</ele><time>2026-05-02T11:17:50Z</time></trkpt><trkpt lat="42.059910736344655" lon="13.701722301953419"><ele>1065.0</ele><time>2026-05-02T11:17:51Z</time></trkpt><trkpt lat="42.05986312720505" lon="13.70163348071431"><ele>1066.8333333333333</ele><time>2026-05-02T11:17:52Z</time></trkpt><trkpt lat="42.059812628569844" lon="13.701545846499398"><ele>1068.6666666666667</ele><time>2026-05-02T11:17:53Z</time></trkpt><trkpt lat="42.05975646211126" lon="13.701454779263273"><ele>1070.5</ele><time>2026-05-02T11:17:54Z</time></trkpt><trkpt lat="42.05970543852776" lon="13.701371403297621"><ele>1072.3333333333335</ele><time>2026-05-02T11:17:55Z</time></trkpt><trkpt lat="42.059658030346135" lon="13.7012909486425"><ele>1074.1666666666667</ele><time>2026-05-02T11:17:56Z</time></trkpt><trkpt lat="42.05961010968411" lon="13.701210384044801"><ele>1076.0</ele><time>2026-05-02T11:17:57Z</time></trkpt><trkpt lat="42.059557342895125" lon="13.701120595163053"><ele>1073.857142857143</ele><time>2026-05-02T11:17:58Z</time></trkpt><trkpt lat="42.05951258435725" lon="13.70104133423862"><ele>1071.7142857142858</ele><time>2026-05-02T11:17:59Z</time></trkpt><trkpt lat="42.059472967117685" lon="13.70097508759207"><ele>1069.5714285714287</ele><time>2026-05-02T11:18:00Z</time></trkpt><trkpt lat="42.05942810357755" lon="13.700906347522531"><ele>1067.4285714285716</ele><time>2026-05-02T11:18:00.999Z</time></trkpt><trkpt lat="42.059380048165494" lon="13.700839722251812"><ele>1065.2857142857142</ele><time>2026-05-02T11:18:01.999Z</time></trkpt><trkpt lat="42.059328990797475" lon="13.700775574379943"><ele>1063.1428571428573</ele><time>2026-05-02T11:18:02.999Z</time></trkpt><trkpt lat="42.05927499518037" lon="13.700716771678362"><ele>1061.0</ele><time>2026-05-02T11:18:03.999Z</time></trkpt><trkpt lat="42.05921288764605" lon="13.700660389824208"><ele>1061.0</ele><time>2026-05-02T11:18:04.999Z</time></trkpt><trkpt lat="42.059142054988286" lon="13.7006104123518"><ele>1061.0</ele><time>2026-05-02T11:18:05.999Z</time></trkpt><trkpt lat="42.05906775415432" lon="13.700565954653527"><ele>1061.0</ele><time>2026-05-02T11:18:06.999Z</time></trkpt><trkpt lat="42.0589849654795" lon="13.700518467573325"><ele>1061.0</ele><time>2026-05-02T11:18:07.999Z</time></trkpt><trkpt lat="42.05891519133054" lon="13.700481182340653"><ele>1061.0</ele><time>2026-05-02T11:18:08.999Z</time></trkpt><trkpt lat="42.058806102490664" lon="13.700440906991995"><ele>1061.0</ele><time>2026-05-02T11:18:10.999Z</time></trkpt><trkpt lat="42.05872725047546" lon="13.700428242711595"><ele>1060.4285714285716</ele><time>2026-05-02T11:18:12.999Z</time></trkpt><trkpt lat="42.05864087759266" lon="13.70040419534362"><ele>1059.857142857143</ele><time>2026-05-02T11:18:15.999Z</time></trkpt><trkpt lat="42.05857774570243" lon="13.700413782908166"><ele>1059.2857142857142</ele><time>2026-05-02T11:19:52.999Z</time></trkpt><trkpt lat="42.05851132491154" lon="13.70040354943504"><ele>1058.7142857142858</ele><time>2026-05-02T11:19:53.999Z</time></trkpt><trkpt lat="42.05843932694239" lon="13.700395061253277"><ele>1058.142857142857</ele><time>2026-05-02T11:19:54.999Z</time></trkpt><trkpt lat="42.05836436766582" lon="13.70038794774416"><ele>1057.5714285714287</ele><time>2026-05-02T11:19:55.999Z</time></trkpt><trkpt lat="42.05829593534922" lon="13.700379386282414"><ele>1057.0</ele><time>2026-05-02T11:19:56.999Z</time></trkpt><trkpt lat="42.058227194883756" lon="13.700374498084823"><ele>1056.0</ele><time>2026-05-02T11:19:57.999Z</time></trkpt><trkpt lat="42.05815709238421" lon="13.700371101534639"><ele>1055.0</ele><time>2026-05-02T11:19:58.999Z</time></trkpt><trkpt lat="42.05804850321456" lon="13.700368106022474"><ele>1054.0</ele><time>2026-05-02T11:20:00.999Z</time></trkpt><trkpt lat="42.057935409268005" lon="13.700358208284433"><ele>1053.0</ele><time>2026-05-02T11:20:02.999Z</time></trkpt><trkpt lat="42.057827293939965" lon="13.700327056249128"><ele>1052.0</ele><time>2026-05-02T11:20:04.999Z</time></trkpt><trkpt lat="42.05771110286819" lon="13.700319828554296"><ele>1052.0</ele><time>2026-05-02T11:20:06.999Z</time></trkpt><trkpt lat="42.05759613534762" lon="13.70029342781391"><ele>1052.0</ele><time>2026-05-02T11:20:08.999Z</time></trkpt><trkpt lat="42.057474472196226" lon="13.700284753457344"><ele>1052.0</ele><time>2026-05-02T11:20:10.999Z</time></trkpt><trkpt lat="42.0573509643921" lon="13.700280199817438"><ele>1052.0</ele><time>2026-05-02T11:20:12.999Z</time></trkpt><trkpt lat="42.05728199463326" lon="13.700269733190021"><ele>1052.0</ele><time>2026-05-02T11:20:13.999Z</time></trkpt><trkpt lat="42.05720974596442" lon="13.700266643984202"><ele>1051.857142857143</ele><time>2026-05-02T11:20:14.999Z</time></trkpt><trkpt lat="42.05713916589873" lon="13.700267881916314"><ele>1051.7142857142856</ele><time>2026-05-02T11:20:15.999Z</time></trkpt><trkpt lat="42.057069086194524" lon="13.700261640238855"><ele>1051.5714285714284</ele><time>2026-05-02T11:20:16.999Z</time></trkpt><trkpt lat="42.05700364653866" lon="13.700248009086232"><ele>1051.4285714285713</ele><time>2026-05-02T11:20:17.999Z</time></trkpt><trkpt lat="42.05693514925207" lon="13.700233620064598"><ele>1051.2857142857142</ele><time>2026-05-02T11:20:18.999Z</time></trkpt><trkpt lat="42.05686411572687" lon="13.70021698516335"><ele>1051.142857142857</ele><time>2026-05-02T11:20:19.999Z</time></trkpt><trkpt lat="42.056794279424906" lon="13.700202736437765"><ele>1051.0</ele><time>2026-05-02T11:20:20.999Z</time></trkpt><trkpt lat="42.05671604637818" lon="13.700190953381263"><ele>1051.0</ele><time>2026-05-02T11:20:21.999Z</time></trkpt><trkpt lat="42.05663480725917" lon="13.700179535648275"><ele>1051.0</ele><time>2026-05-02T11:20:22.999Z</time></trkpt><trkpt lat="42.05655427205995" lon="13.700170098486213"><ele>1051.0</ele><time>2026-05-02T11:20:23.999Z</time></trkpt><trkpt lat="42.05647688174025" lon="13.700160349268883"><ele>1051.0</ele><time>2026-05-02T11:20:24.999Z</time></trkpt><trkpt lat="42.05640172982122" lon="13.700149075234322"><ele>1051.0</ele><time>2026-05-02T11:20:25.999Z</time></trkpt><trkpt lat="42.05632791804581" lon="13.700137339011842"><ele>1051.0</ele><time>2026-05-02T11:20:26.999Z</time></trkpt><trkpt lat="42.05625406818534" lon="13.700123767142728"><ele>1051.2</ele><time>2026-05-02T11:20:27.999Z</time></trkpt><trkpt lat="42.05617487636362" lon="13.700111872285092"><ele>1051.3999999999999</ele><time>2026-05-02T11:20:28.999Z</time></trkpt><trkpt lat="42.05610199197512" lon="13.700099318116683"><ele>1051.6</ele><time>2026-05-02T11:20:29.999Z</time></trkpt><trkpt lat="42.055986254499956" lon="13.700072771746607"><ele>1051.8</ele><time>2026-05-02T11:20:31.999Z</time></trkpt><trkpt lat="42.05586590162946" lon="13.700047907924047"><ele>1052.0</ele><time>2026-05-02T11:20:33.999Z</time></trkpt><trkpt lat="42.05574020285425" lon="13.700023244540512"><ele>1051.6666666666667</ele><time>2026-05-02T11:20:35.999Z</time></trkpt><trkpt lat="42.05567504540983" lon="13.700014585705167"><ele>1051.3333333333335</ele><time>2026-05-02T11:20:36.999Z</time></trkpt><trkpt lat="42.055611589944974" lon="13.700008506101588"><ele>1051.0</ele><time>2026-05-02T11:20:37.999Z</time></trkpt><trkpt lat="42.05554892036583" lon="13.699998751386344"><ele>1050.6666666666667</ele><time>2026-05-02T11:20:38.999Z</time></trkpt><trkpt lat="42.05548479378147" lon="13.699986762929523"><ele>1050.3333333333333</ele><time>2026-05-02T11:20:39.999Z</time></trkpt><trkpt lat="42.05537272596314" lon="13.699973908992439"><ele>1050.0</ele><time>2026-05-02T11:20:41.999Z</time></trkpt><trkpt lat="42.055254588982834" lon="13.69994956623416"><ele>1050.0</ele><time>2026-05-02T11:20:43.999Z</time></trkpt><trkpt lat="42.05514636249764" lon="13.699916570520422"><ele>1050.0</ele><time>2026-05-02T11:20:45.999Z</time></trkpt><trkpt lat="42.05503192249067" lon="13.699864068423864"><ele>1050.0</ele><time>2026-05-02T11:20:47.999Z</time></trkpt><trkpt lat="42.054971693271305" lon="13.699831668600229"><ele>1050.0</ele><time>2026-05-02T11:20:48.999Z</time></trkpt><trkpt lat="42.05491036744178" lon="13.699802271510181"><ele>1050.0</ele><time>2026-05-02T11:20:49.999Z</time></trkpt><trkpt lat="42.054801531791014" lon="13.699749912000268"><ele>1049.6</ele><time>2026-05-02T11:20:51.999Z</time></trkpt><trkpt lat="42.0547030635009" lon="13.699693232484348"><ele>1049.2</ele><time>2026-05-02T11:20:53.999Z</time></trkpt><trkpt lat="42.05458932486975" lon="13.699633664926486"><ele>1048.8</ele><time>2026-05-02T11:20:55.999Z</time></trkpt><trkpt lat="42.054527816588305" lon="13.699611806954996"><ele>1048.4</ele><time>2026-05-02T11:20:56.999Z</time></trkpt><trkpt lat="42.05446448934798" lon="13.69959998091237"><ele>1048.0</ele><time>2026-05-02T11:20:57.999Z</time></trkpt><trkpt lat="42.05434140979124" lon="13.699574766902687"><ele>1048.0</ele><time>2026-05-02T11:20:59.999Z</time></trkpt><trkpt lat="42.05421881271315" lon="13.699515333987224"><ele>1048.0</ele><time>2026-05-02T11:21:01.999Z</time></trkpt><trkpt lat="42.05414487356682" lon="13.699484087508011"><ele>1048.0</ele><time>2026-05-02T11:21:02.999Z</time></trkpt><trkpt lat="42.05406326332308" lon="13.699444191518195"><ele>1048.0</ele><time>2026-05-02T11:21:03.999Z</time></trkpt><trkpt lat="42.05398742999229" lon="13.699399283429088"><ele>1048.0</ele><time>2026-05-02T11:21:04.999Z</time></trkpt><trkpt lat="42.05390621701518" lon="13.699348494495297"><ele>1048.6666666666665</ele><time>2026-05-02T11:21:05.999Z</time></trkpt><trkpt lat="42.05382688713638" lon="13.699309868988179"><ele>1049.3333333333333</ele><time>2026-05-02T11:21:06.999Z</time></trkpt><trkpt lat="42.05374776019211" lon="13.699279944380114"><ele>1050.0</ele><time>2026-05-02T11:21:07.999Z</time></trkpt><trkpt lat="42.053666627927626" lon="13.699243036609865"><ele>1050.6666666666667</ele><time>2026-05-02T11:21:08.999Z</time></trkpt><trkpt lat="42.05359361182069" lon="13.699196410630151"><ele>1051.3333333333335</ele><time>2026-05-02T11:21:09.999Z</time></trkpt><trkpt lat="42.05351756114003" lon="13.699140868770321"><ele>1052.0</ele><time>2026-05-02T11:21:10.999Z</time></trkpt><trkpt lat="42.053446932994405" lon="13.699100613217537"><ele>1052.0</ele><time>2026-05-02T11:21:11.999Z</time></trkpt><trkpt lat="42.053364411520356" lon="13.699068169242112"><ele>1052.0</ele><time>2026-05-02T11:21:12.999Z</time></trkpt><trkpt lat="42.053284541149196" lon="13.69903936775741"><ele>1052.0</ele><time>2026-05-02T11:21:13.999Z</time></trkpt><trkpt lat="42.05320476997188" lon="13.69899670457689"><ele>1052.0</ele><time>2026-05-02T11:21:14.999Z</time></trkpt><trkpt lat="42.053133132587064" lon="13.698945018468748"><ele>1052.0</ele><time>2026-05-02T11:21:15.999Z</time></trkpt><trkpt lat="42.05306116867436" lon="13.698876714124918"><ele>1052.0</ele><time>2026-05-02T11:21:16.999Z</time></trkpt><trkpt lat="42.05299206202194" lon="13.69881718810468"><ele>1052.4</ele><time>2026-05-02T11:21:17.999Z</time></trkpt><trkpt lat="42.05293828422226" lon="13.698756164192538"><ele>1052.8000000000002</ele><time>2026-05-02T11:21:18.999Z</time></trkpt><trkpt lat="42.05286251351078" lon="13.698662584086904"><ele>1053.2</ele><time>2026-05-02T11:21:19.999Z</time></trkpt><trkpt lat="42.05278955648917" lon="13.698574153775853"><ele>1053.6000000000001</ele><time>2026-05-02T11:21:20.999Z</time></trkpt><trkpt lat="42.052712314631904" lon="13.698488148017908"><ele>1054.0</ele><time>2026-05-02T11:21:21.999Z</time></trkpt><trkpt lat="42.052632364485355" lon="13.698410951416472"><ele>1054.3333333333333</ele><time>2026-05-02T11:21:22.999Z</time></trkpt><trkpt lat="42.05255949850339" lon="13.698341606475145"><ele>1054.6666666666665</ele><time>2026-05-02T11:21:23.999Z</time></trkpt><trkpt lat="42.05248428798491" lon="13.698266387189197"><ele>1055.0</ele><time>2026-05-02T11:21:24.999Z</time></trkpt><trkpt lat="42.05240709871084" lon="13.698185811937929"><ele>1055.3333333333333</ele><time>2026-05-02T11:21:25.999Z</time></trkpt><trkpt lat="42.05233924039829" lon="13.698118871483796"><ele>1055.6666666666667</ele><time>2026-05-02T11:21:26.999Z</time></trkpt><trkpt lat="42.05228593460765" lon="13.698061360014552"><ele>1056.0</ele><time>2026-05-02T11:21:27.999Z</time></trkpt><trkpt lat="42.05222979890964" lon="13.698003311047685"><ele>1056.0</ele><time>2026-05-02T11:21:28.999Z</time></trkpt><trkpt lat="42.052166654386525" lon="13.69793954470163"><ele>1056.0</ele><time>2026-05-02T11:21:29.999Z</time></trkpt><trkpt lat="42.052101336331624" lon="13.697863863418192"><ele>1056.0</ele><time>2026-05-02T11:21:30.999Z</time></trkpt><trkpt lat="42.05204183620086" lon="13.697778289772966"><ele>1056.0</ele><time>2026-05-02T11:21:31.999Z</time></trkpt><trkpt lat="42.051982289638495" lon="13.697692927260436"><ele>1056.0</ele><time>2026-05-02T11:21:32.999Z</time></trkpt><trkpt lat="42.05192087080755" lon="13.697607433331587"><ele>1056.0</ele><time>2026-05-02T11:21:33.999Z</time></trkpt><trkpt lat="42.05186114460963" lon="13.697527838698463"><ele>1056.0</ele><time>2026-05-02T11:21:34.999Z</time></trkpt><trkpt lat="42.05179885280991" lon="13.697450246042841"><ele>1056.0</ele><time>2026-05-02T11:21:35.999Z</time></trkpt><trkpt lat="42.05173195234813" lon="13.697373230169458"><ele>1056.0</ele><time>2026-05-02T11:21:36.999Z</time></trkpt><trkpt lat="42.05166345204943" lon="13.697300661578733"><ele>1056.0</ele><time>2026-05-02T11:21:37.999Z</time></trkpt><trkpt lat="42.0515964472804" lon="13.697228543746066"><ele>1056.0</ele><time>2026-05-02T11:21:38.999Z</time></trkpt><trkpt lat="42.05152674685092" lon="13.69715101304944"><ele>1056.0</ele><time>2026-05-02T11:21:39.999Z</time></trkpt><trkpt lat="42.05145914692622" lon="13.697075320584483"><ele>1055.8333333333333</ele><time>2026-05-02T11:21:40.999Z</time></trkpt><trkpt lat="42.051392532590995" lon="13.697002440518027"><ele>1055.6666666666667</ele><time>2026-05-02T11:21:41.999Z</time></trkpt><trkpt lat="42.051320110949085" lon="13.696923867656025"><ele>1055.5</ele><time>2026-05-02T11:21:42.999Z</time></trkpt><trkpt lat="42.05125322193443" lon="13.696859126518685"><ele>1055.3333333333335</ele><time>2026-05-02T11:21:43.999Z</time></trkpt><trkpt lat="42.05118722456593" lon="13.696784887855495"><ele>1055.1666666666667</ele><time>2026-05-02T11:21:44.999Z</time></trkpt><trkpt lat="42.05111596003257" lon="13.696696330526589"><ele>1055.0</ele><time>2026-05-02T11:21:45.999Z</time></trkpt><trkpt lat="42.051050232518705" lon="13.696611126990112"><ele>1055.0</ele><time>2026-05-02T11:21:46.999Z</time></trkpt><trkpt lat="42.050981743112445" lon="13.69652915429192"><ele>1055.0</ele><time>2026-05-02T11:21:47.999Z</time></trkpt><trkpt lat="42.05091359831949" lon="13.69644872647321"><ele>1055.0</ele><time>2026-05-02T11:21:48.999Z</time></trkpt><trkpt lat="42.05084403598401" lon="13.696373138977815"><ele>1055.0</ele><time>2026-05-02T11:21:49.999Z</time></trkpt><trkpt lat="42.050778488857524" lon="13.696291408711328"><ele>1055.0</ele><time>2026-05-02T11:21:50.999Z</time></trkpt><trkpt lat="42.050716567226985" lon="13.696192445927675"><ele>1054.2</ele><time>2026-05-02T11:21:51.999Z</time></trkpt><trkpt lat="42.05065540328395" lon="13.696102945351841"><ele>1053.4</ele><time>2026-05-02T11:21:52.999Z</time></trkpt><trkpt lat="42.0505903372494" lon="13.696015021558955"><ele>1052.6</ele><time>2026-05-02T11:21:53.999Z</time></trkpt><trkpt lat="42.050520872654" lon="13.695925122052456"><ele>1051.8</ele><time>2026-05-02T11:21:54.999Z</time></trkpt><trkpt lat="42.050459706842794" lon="13.695835259330034"><ele>1051.0</ele><time>2026-05-02T11:21:55.999Z</time></trkpt><trkpt lat="42.05040152875234" lon="13.695757925346523"><ele>1051.0</ele><time>2026-05-02T11:21:56.999Z</time></trkpt><trkpt lat="42.05034016718572" lon="13.695693163543194"><ele>1051.0</ele><time>2026-05-02T11:21:57.999Z</time></trkpt><trkpt lat="42.05028445061107" lon="13.695626898750161"><ele>1051.0</ele><time>2026-05-02T11:21:58.999Z</time></trkpt><trkpt lat="42.05023144966289" lon="13.695548765478122"><ele>1051.0</ele><time>2026-05-02T11:21:59.999Z</time></trkpt><trkpt lat="42.05017269215884" lon="13.695466127313882"><ele>1051.0</ele><time>2026-05-02T11:22:00.999Z</time></trkpt><trkpt lat="42.05010415124351" lon="13.695379628021977"><ele>1051.0</ele><time>2026-05-02T11:22:01.999Z</time></trkpt><trkpt lat="42.05003599912881" lon="13.695289539682863"><ele>1051.2</ele><time>2026-05-02T11:22:02.999Z</time></trkpt><trkpt lat="42.04997109942924" lon="13.695207734859089"><ele>1051.3999999999999</ele><time>2026-05-02T11:22:03.999Z</time></trkpt><trkpt lat="42.04990901887537" lon="13.69511967854448"><ele>1051.6</ele><time>2026-05-02T11:22:04.999Z</time></trkpt><trkpt lat="42.04984471724895" lon="13.695029523197567"><ele>1051.8</ele><time>2026-05-02T11:22:05.999Z</time></trkpt><trkpt lat="42.049783276442305" lon="13.694945722970228"><ele>1052.0</ele><time>2026-05-02T11:22:06.999Z</time></trkpt><trkpt lat="42.04972232580914" lon="13.694850473166236"><ele>1052.6666666666667</ele><time>2026-05-02T11:22:07.999Z</time></trkpt><trkpt lat="42.04966523028671" lon="13.694770947207653"><ele>1053.3333333333335</ele><time>2026-05-02T11:22:08.999Z</time></trkpt><trkpt lat="42.04960058313704" lon="13.694679500465284"><ele>1054.0</ele><time>2026-05-02T11:22:09.999Z</time></trkpt><trkpt lat="42.04954627218767" lon="13.694601009127217"><ele>1054.6666666666667</ele><time>2026-05-02T11:22:10.999Z</time></trkpt><trkpt lat="42.04949299754512" lon="13.694519110481806"><ele>1055.3333333333333</ele><time>2026-05-02T11:22:11.999Z</time></trkpt><trkpt lat="42.04943707262438" lon="13.694440829575505"><ele>1056.0</ele><time>2026-05-02T11:22:12.999Z</time></trkpt><trkpt lat="42.049378298062315" lon="13.694363632501176"><ele>1055.8333333333333</ele><time>2026-05-02T11:22:13.999Z</time></trkpt><trkpt lat="42.049310306119295" lon="13.694278950862023"><ele>1055.6666666666667</ele><time>2026-05-02T11:22:14.999Z</time></trkpt><trkpt lat="42.04924482623216" lon="13.694209693285789"><ele>1055.5</ele><time>2026-05-02T11:22:15.999Z</time></trkpt><trkpt lat="42.049170585558045" lon="13.694132896929965"><ele>1055.3333333333335</ele><time>2026-05-02T11:22:16.999Z</time></trkpt><trkpt lat="42.049108483380856" lon="13.694076496981577"><ele>1055.1666666666667</ele><time>2026-05-02T11:22:17.999Z</time></trkpt><trkpt lat="42.04904185781574" lon="13.694004215673672"><ele>1055.0</ele><time>2026-05-02T11:22:18.999Z</time></trkpt><trkpt lat="42.04897746182883" lon="13.693939109863898"><ele>1055.0</ele><time>2026-05-02T11:22:19.999Z</time></trkpt><trkpt lat="42.048911065133765" lon="13.693859664904416"><ele>1055.0</ele><time>2026-05-02T11:22:20.999Z</time></trkpt><trkpt lat="42.04884686274001" lon="13.693791763076952"><ele>1055.0</ele><time>2026-05-02T11:22:21.999Z</time></trkpt><trkpt lat="42.04878563391222" lon="13.693718240782632"><ele>1055.0</ele><time>2026-05-02T11:22:22.999Z</time></trkpt><trkpt lat="42.0487222006576" lon="13.693640712829549"><ele>1055.0</ele><time>2026-05-02T11:22:23.999Z</time></trkpt><trkpt lat="42.04865326892144" lon="13.693562490528693"><ele>1055.0</ele><time>2026-05-02T11:22:24.999Z</time></trkpt><trkpt lat="42.04859429954798" lon="13.693499542251365"><ele>1054.6666666666667</ele><time>2026-05-02T11:22:25.999Z</time></trkpt><trkpt lat="42.048516044103415" lon="13.693429653098141"><ele>1054.3333333333335</ele><time>2026-05-02T11:22:26.999Z</time></trkpt><trkpt lat="42.04844137150872" lon="13.693360359832704"><ele>1054.0</ele><time>2026-05-02T11:22:27.999Z</time></trkpt><trkpt lat="42.04837368827534" lon="13.693293922130385"><ele>1053.6666666666667</ele><time>2026-05-02T11:22:28.999Z</time></trkpt><trkpt lat="42.04830862400807" lon="13.693226401193375"><ele>1053.3333333333333</ele><time>2026-05-02T11:22:29.999Z</time></trkpt><trkpt lat="42.048243978599025" lon="13.693162053502569"><ele>1053.0</ele><time>2026-05-02T11:22:30.999Z</time></trkpt><trkpt lat="42.04818238339414" lon="13.693095909518801"><ele>1053.0</ele><time>2026-05-02T11:22:31.999Z</time></trkpt><trkpt lat="42.048116476823324" lon="13.693026990600703"><ele>1053.0</ele><time>2026-05-02T11:22:32.999Z</time></trkpt><trkpt lat="42.048053222061185" lon="13.692957969482928"><ele>1053.0</ele><time>2026-05-02T11:22:33.999Z</time></trkpt><trkpt lat="42.047987293428356" lon="13.692880264073915"><ele>1053.0</ele><time>2026-05-02T11:22:34.999Z</time></trkpt><trkpt lat="42.047915596800735" lon="13.692798294828812"><ele>1053.0</ele><time>2026-05-02T11:22:35.999Z</time></trkpt><trkpt lat="42.04784062927554" lon="13.692716049818943"><ele>1053.0</ele><time>2026-05-02T11:22:36.999Z</time></trkpt><trkpt lat="42.04776862270577" lon="13.692641009007913"><ele>1050.2</ele><time>2026-05-02T11:22:37.999Z</time></trkpt><trkpt lat="42.047701993733114" lon="13.692566707396832"><ele>1047.4</ele><time>2026-05-02T11:22:38.999Z</time></trkpt><trkpt lat="42.04763152353293" lon="13.692488422203402"><ele>1044.6000000000001</ele><time>2026-05-02T11:22:39.999Z</time></trkpt><trkpt lat="42.047558327675084" lon="13.692413570592528"><ele>1041.8</ele><time>2026-05-02T11:22:40.999Z</time></trkpt><trkpt lat="42.04748231677825" lon="13.692342327257606"><ele>1039.0</ele><time>2026-05-02T11:22:41.999Z</time></trkpt><trkpt lat="42.04740942718433" lon="13.69227223558088"><ele>1039.0</ele><time>2026-05-02T11:22:42.999Z</time></trkpt><trkpt lat="42.04733590240536" lon="13.692195636766144"><ele>1039.0</ele><time>2026-05-02T11:22:43.999Z</time></trkpt><trkpt lat="42.04725873925187" lon="13.692118306790379"><ele>1039.0</ele><time>2026-05-02T11:22:44.999Z</time></trkpt><trkpt lat="42.047182570406235" lon="13.692047064508383"><ele>1039.0</ele><time>2026-05-02T11:22:45.999Z</time></trkpt><trkpt lat="42.04710121388855" lon="13.691975685503296"><ele>1039.0</ele><time>2026-05-02T11:22:46.999Z</time></trkpt><trkpt lat="42.04702366574638" lon="13.691912601779851"><ele>1035.8</ele><time>2026-05-02T11:22:47.999Z</time></trkpt><trkpt lat="42.04693939505143" lon="13.69184672936629"><ele>1032.6000000000001</ele><time>2026-05-02T11:22:48.999Z</time></trkpt><trkpt lat="42.046851204148" lon="13.691784364015145"><ele>1029.4</ele><time>2026-05-02T11:22:49.999Z</time></trkpt><trkpt lat="42.04676871299896" lon="13.691726726437736"><ele>1026.2</ele><time>2026-05-02T11:22:50.999Z</time></trkpt><trkpt lat="42.04668712146582" lon="13.691665780138166"><ele>1023.0</ele><time>2026-05-02T11:22:51.999Z</time></trkpt><trkpt lat="42.0466085989277" lon="13.691604005384795"><ele>1023.0</ele><time>2026-05-02T11:22:52.999Z</time></trkpt><trkpt lat="42.046532034314964" lon="13.69154517786214"><ele>1023.0</ele><time>2026-05-02T11:22:53.999Z</time></trkpt><trkpt lat="42.04646693969451" lon="13.691495624208175"><ele>1023.0</ele><time>2026-05-02T11:22:54.999Z</time></trkpt><trkpt lat="42.04640806506608" lon="13.69145403863666"><ele>1023.0</ele><time>2026-05-02T11:22:55.999Z</time></trkpt><trkpt lat="42.04634458144374" lon="13.691404944117572"><ele>1023.0</ele><time>2026-05-02T11:22:56.999Z</time></trkpt><trkpt lat="42.0462833149293" lon="13.691361093171855"><ele>1023.0</ele><time>2026-05-02T11:22:57.999Z</time></trkpt><trkpt lat="42.0462113933338" lon="13.691311272946065"><ele>1023.0</ele><time>2026-05-02T11:22:58.999Z</time></trkpt><trkpt lat="42.046133999200585" lon="13.691252867133112"><ele>1023.0</ele><time>2026-05-02T11:22:59.999Z</time></trkpt><trkpt lat="42.04606626788552" lon="13.691189708513663"><ele>1023.0</ele><time>2026-05-02T11:23:00.999Z</time></trkpt><trkpt lat="42.046000118946274" lon="13.69112026297358"><ele>1023.0</ele><time>2026-05-02T11:23:01.999Z</time></trkpt><trkpt lat="42.045935726791456" lon="13.691043318626075"><ele>1023.0</ele><time>2026-05-02T11:23:02.999Z</time></trkpt><trkpt lat="42.04586771592032" lon="13.690962255230703"><ele>1023.0</ele><time>2026-05-02T11:23:03.999Z</time></trkpt><trkpt lat="42.045803088686036" lon="13.69089286507527"><ele>1022.0</ele><time>2026-05-02T11:23:04.999Z</time></trkpt><trkpt lat="42.045730261503344" lon="13.690817343441017"><ele>1021.0</ele><time>2026-05-02T11:23:05.999Z</time></trkpt><trkpt lat="42.04565864787149" lon="13.690744253981265"><ele>1020.0</ele><time>2026-05-02T11:23:06.999Z</time></trkpt><trkpt lat="42.04559271668881" lon="13.690680261626147"><ele>1019.0</ele><time>2026-05-02T11:23:07.999Z</time></trkpt><trkpt lat="42.04553300259492" lon="13.69061491093833"><ele>1018.0</ele><time>2026-05-02T11:23:08.999Z</time></trkpt><trkpt lat="42.0454782265491" lon="13.690540896596787"><ele>1017.0</ele><time>2026-05-02T11:23:09.999Z</time></trkpt><trkpt lat="42.04542493644283" lon="13.690460623955238"><ele>1017.0</ele><time>2026-05-02T11:23:10.999Z</time></trkpt><trkpt lat="42.04537052476849" lon="13.690376199961882"><ele>1017.0</ele><time>2026-05-02T11:23:11.999Z</time></trkpt><trkpt lat="42.04531700046671" lon="13.69027609151006"><ele>1017.0</ele><time>2026-05-02T11:23:12.999Z</time></trkpt><trkpt lat="42.04527490465399" lon="13.690173111914369"><ele>1017.0</ele><time>2026-05-02T11:23:13.999Z</time></trkpt><trkpt lat="42.04523646543279" lon="13.690077704970046"><ele>1017.0</ele><time>2026-05-02T11:23:14.999Z</time></trkpt><trkpt lat="42.045169326101664" lon="13.689938865375453"><ele>1017.4285714285713</ele><time>2026-05-02T11:23:16.999Z</time></trkpt><trkpt lat="42.04513378577596" lon="13.689864279046823"><ele>1017.8571428571428</ele><time>2026-05-02T11:23:17.999Z</time></trkpt><trkpt lat="42.045099060016874" lon="13.689781830814345"><ele>1018.2857142857142</ele><time>2026-05-02T11:23:18.999Z</time></trkpt><trkpt lat="42.04506020255973" lon="13.689702752550488"><ele>1018.7142857142858</ele><time>2026-05-02T11:23:19.999Z</time></trkpt><trkpt lat="42.04502356568699" lon="13.689621197442786"><ele>1019.1428571428572</ele><time>2026-05-02T11:23:20.999Z</time></trkpt><trkpt lat="42.044987079987116" lon="13.689542802872511"><ele>1019.5714285714287</ele><time>2026-05-02T11:23:21.999Z</time></trkpt><trkpt lat="42.04495276915436" lon="13.689446320508265"><ele>1020.0</ele><time>2026-05-02T11:23:22.999Z</time></trkpt><trkpt lat="42.04492497642306" lon="13.689334850135996"><ele>1020.0</ele><time>2026-05-02T11:23:23.999Z</time></trkpt><trkpt lat="42.04489861275719" lon="13.68921225580643"><ele>1020.0</ele><time>2026-05-02T11:23:24.999Z</time></trkpt><trkpt lat="42.0448649383433" lon="13.689109084410983"><ele>1020.0</ele><time>2026-05-02T11:23:25.999Z</time></trkpt><trkpt lat="42.04482818744979" lon="13.689019434894881"><ele>1020.0</ele><time>2026-05-02T11:23:26.999Z</time></trkpt><trkpt lat="42.04478892974236" lon="13.688925134258946"><ele>1020.0</ele><time>2026-05-02T11:23:27.999Z</time></trkpt><trkpt lat="42.0447601095411" lon="13.688837228678507"><ele>1020.0</ele><time>2026-05-02T11:23:28.999Z</time></trkpt><trkpt lat="42.0447315931559" lon="13.688761190043374"><ele>1020.0</ele><time>2026-05-02T11:23:29.999Z</time></trkpt><trkpt lat="42.04465987045787" lon="13.688612315392422"><ele>1020.0</ele><time>2026-05-02T11:23:31.999Z</time></trkpt><trkpt lat="42.044609921011535" lon="13.688498078481105"><ele>1020.0</ele><time>2026-05-02T11:23:32.999Z</time></trkpt><trkpt lat="42.044571821744654" lon="13.688398438061485"><ele>1020.0</ele><time>2026-05-02T11:23:33.999Z</time></trkpt><trkpt lat="42.04454064059253" lon="13.68829722046832"><ele>1020.0</ele><time>2026-05-02T11:23:34.999Z</time></trkpt><trkpt lat="42.04451349887261" lon="13.688220604694072"><ele>1016.3333333333334</ele><time>2026-05-02T11:23:35.999Z</time></trkpt><trkpt lat="42.04447779861587" lon="13.688141194001082"><ele>1012.6666666666667</ele><time>2026-05-02T11:23:36.999Z</time></trkpt><trkpt lat="42.04443327054717" lon="13.688071928154777"><ele>1009.0</ele><time>2026-05-02T11:23:37.999Z</time></trkpt><trkpt lat="42.04438851834064" lon="13.687998282501098"><ele>1005.3333333333334</ele><time>2026-05-02T11:23:38.999Z</time></trkpt><trkpt lat="42.044351649589224" lon="13.687928087026732"><ele>1001.6666666666667</ele><time>2026-05-02T11:23:39.999Z</time></trkpt><trkpt lat="42.044271819386005" lon="13.687801982996637"><ele>998.0</ele><time>2026-05-02T11:23:41.999Z</time></trkpt><trkpt lat="42.04419932403989" lon="13.687660003849942"><ele>997.6666666666667</ele><time>2026-05-02T11:23:43.999Z</time></trkpt><trkpt lat="42.04417383790734" lon="13.687576438379638"><ele>997.3333333333334</ele><time>2026-05-02T11:23:44.999Z</time></trkpt><trkpt lat="42.044146502036114" lon="13.687494775677182"><ele>997.0</ele><time>2026-05-02T11:23:45.999Z</time></trkpt><trkpt lat="42.04408674978314" lon="13.687358558824451"><ele>996.6666666666667</ele><time>2026-05-02T11:23:47.999Z</time></trkpt><trkpt lat="42.04402274605872" lon="13.68725866352968"><ele>996.3333333333334</ele><time>2026-05-02T11:23:49.999Z</time></trkpt><trkpt lat="42.043974974790245" lon="13.687182399110558"><ele>996.0</ele><time>2026-05-02T11:23:51.999Z</time></trkpt><trkpt lat="42.0439170075114" lon="13.687080554528846"><ele>996.0</ele><time>2026-05-02T11:23:54.999Z</time></trkpt><trkpt lat="42.04386429343369" lon="13.687011319633193"><ele>996.0</ele><time>2026-05-02T11:23:56.999Z</time></trkpt><trkpt lat="42.0438124742105" lon="13.68694669725778"><ele>996.0</ele><time>2026-05-02T11:23:58.999Z</time></trkpt><trkpt lat="42.04377981595908" lon="13.686872606451178"><ele>996.0</ele><time>2026-05-02T11:24:00.999Z</time></trkpt><trkpt lat="42.043728399014654" lon="13.6867968936015"><ele>996.0</ele><time>2026-05-02T11:24:03.999Z</time></trkpt><trkpt lat="42.04366521523413" lon="13.686698532815829"><ele>996.0</ele><time>2026-05-02T11:24:06.999Z</time></trkpt><trkpt lat="42.04359144861716" lon="13.686619493183775"><ele>992.0</ele><time>2026-05-02T11:24:09.999Z</time></trkpt><trkpt lat="42.043549114303346" lon="13.686553167383087"><ele>988.0</ele><time>2026-05-02T11:24:11.999Z</time></trkpt><trkpt lat="42.043517530311775" lon="13.686469262811142"><ele>984.0</ele><time>2026-05-02T11:24:13.999Z</time></trkpt><trkpt lat="42.04348774914258" lon="13.686372661470745"><ele>980.0</ele><time>2026-05-02T11:24:15.999Z</time></trkpt><trkpt lat="42.04344418929238" lon="13.68623888521549"><ele>976.0</ele><time>2026-05-02T11:24:17.999Z</time></trkpt><trkpt lat="42.043396820726755" lon="13.686125143045642"><ele>972.0</ele><time>2026-05-02T11:24:19.999Z</time></trkpt><trkpt lat="42.04336615479486" lon="13.686025623506959"><ele>973.0</ele><time>2026-05-02T11:24:21.999Z</time></trkpt><trkpt lat="42.04333113296684" lon="13.685919488358927"><ele>974.0</ele><time>2026-05-02T11:24:23.999Z</time></trkpt><trkpt lat="42.043282373912966" lon="13.685821063224676"><ele>975.0</ele><time>2026-05-02T11:24:25.999Z</time></trkpt><trkpt lat="42.04322634795012" lon="13.685728466092394"><ele>976.0</ele><time>2026-05-02T11:24:27.999Z</time></trkpt><trkpt lat="42.043172126274555" lon="13.685652307344581"><ele>977.0</ele><time>2026-05-02T11:24:29.999Z</time></trkpt><trkpt lat="42.04311264878594" lon="13.685575009466113"><ele>978.0</ele><time>2026-05-02T11:24:31.999Z</time></trkpt><trkpt lat="42.043093722951866" lon="13.685467599821303"><ele>978.0</ele><time>2026-05-02T11:24:33.999Z</time></trkpt><trkpt lat="42.043049796473426" lon="13.68537707562036"><ele>978.0</ele><time>2026-05-02T11:24:35.999Z</time></trkpt><trkpt lat="42.042972816326895" lon="13.685312630734593"><ele>978.0</ele><time>2026-05-02T11:24:37.999Z</time></trkpt><trkpt lat="42.042921570902514" lon="13.685226174493701"><ele>978.0</ele><time>2026-05-02T11:24:39.999Z</time></trkpt><trkpt lat="42.04287155003257" lon="13.685128597753115"><ele>978.0</ele><time>2026-05-02T11:24:41.999Z</time></trkpt><trkpt lat="42.04281684152945" lon="13.685025028126491"><ele>978.0</ele><time>2026-05-02T11:24:43.999Z</time></trkpt><trkpt lat="42.04276796194808" lon="13.684925123660124"><ele>973.3333333333334</ele><time>2026-05-02T11:24:45.999Z</time></trkpt><trkpt lat="42.0427233594914" lon="13.684835397162143"><ele>968.6666666666667</ele><time>2026-05-02T11:24:47.999Z</time></trkpt><trkpt lat="42.04268540576754" lon="13.684745738411403"><ele>964.0</ele><time>2026-05-02T11:24:49.999Z</time></trkpt><trkpt lat="42.0426256774419" lon="13.684639831996321"><ele>959.3333333333334</ele><time>2026-05-02T11:24:51.999Z</time></trkpt><trkpt lat="42.04255113180065" lon="13.68454907563093"><ele>954.6666666666667</ele><time>2026-05-02T11:24:53.999Z</time></trkpt><trkpt lat="42.04248085463394" lon="13.684470020536606"><ele>950.0</ele><time>2026-05-02T11:24:55.999Z</time></trkpt><trkpt lat="42.04241966411849" lon="13.68438056762257"><ele>948.2</ele><time>2026-05-02T11:24:57.999Z</time></trkpt><trkpt lat="42.042363559997014" lon="13.68427923091155"><ele>946.4</ele><time>2026-05-02T11:24:59.999Z</time></trkpt><trkpt lat="42.042299824752874" lon="13.684184582834266"><ele>944.5999999999999</ele><time>2026-05-02T11:25:01.999Z</time></trkpt><trkpt lat="42.042224405107824" lon="13.68408299925592"><ele>942.8</ele><time>2026-05-02T11:25:03.999Z</time></trkpt><trkpt lat="42.04215932902666" lon="13.683995955606195"><ele>941.0</ele><time>2026-05-02T11:25:05.999Z</time></trkpt><trkpt lat="42.04209974475832" lon="13.683894598727482"><ele>941.0</ele><time>2026-05-02T11:25:07.999Z</time></trkpt><trkpt lat="42.04202590692348" lon="13.683821597405558"><ele>940.9999999999999</ele><time>2026-05-02T11:25:09.999Z</time></trkpt><trkpt lat="42.04196899850244" lon="13.683727791084397"><ele>940.9999999999999</ele><time>2026-05-02T11:25:11.999Z</time></trkpt><trkpt lat="42.04191087388806" lon="13.683632149903874"><ele>941.0</ele><time>2026-05-02T11:25:13.999Z</time></trkpt><trkpt lat="42.04184888375013" lon="13.683511944046053"><ele>941.0</ele><time>2026-05-02T11:25:15.999Z</time></trkpt><trkpt lat="42.041782245946806" lon="13.683398768509136"><ele>938.8333333333334</ele><time>2026-05-02T11:25:17.999Z</time></trkpt><trkpt lat="42.041698551913804" lon="13.683284186903474"><ele>936.6666666666667</ele><time>2026-05-02T11:25:19.999Z</time></trkpt><trkpt lat="42.04162949510234" lon="13.683161817667047"><ele>934.5</ele><time>2026-05-02T11:25:21.999Z</time></trkpt><trkpt lat="42.04158995660269" lon="13.683094960162993"><ele>932.3333333333333</ele><time>2026-05-02T11:25:22.999Z</time></trkpt><trkpt lat="42.04155072167249" lon="13.683020420849372"><ele>930.1666666666666</ele><time>2026-05-02T11:25:23.999Z</time></trkpt><trkpt lat="42.04150787677347" lon="13.682952806878573"><ele>928.0</ele><time>2026-05-02T11:25:24.999Z</time></trkpt><trkpt lat="42.041463516525425" lon="13.682881558457835"><ele>928.0</ele><time>2026-05-02T11:25:25.999Z</time></trkpt><trkpt lat="42.041422068629515" lon="13.682812934109387"><ele>928.0</ele><time>2026-05-02T11:25:26.999Z</time></trkpt><trkpt lat="42.041351687955334" lon="13.682694296197964"><ele>928.0</ele><time>2026-05-02T11:25:28.999Z</time></trkpt><trkpt lat="42.041272623759056" lon="13.682559173851118"><ele>928.0</ele><time>2026-05-02T11:25:30.999Z</time></trkpt><trkpt lat="42.041210225333444" lon="13.682439978701318"><ele>928.0</ele><time>2026-05-02T11:25:32.999Z</time></trkpt><trkpt lat="42.04116660538726" lon="13.68230337791432"><ele>923.8333333333333</ele><time>2026-05-02T11:25:34.999Z</time></trkpt><trkpt lat="42.04110533762396" lon="13.68218625966207"><ele>919.6666666666666</ele><time>2026-05-02T11:25:36.999Z</time></trkpt><trkpt lat="42.041055132597826" lon="13.682117072420192"><ele>915.5</ele><time>2026-05-02T11:25:37.999Z</time></trkpt><trkpt lat="42.04101096078392" lon="13.682050529186972"><ele>911.3333333333333</ele><time>2026-05-02T11:25:38.999Z</time></trkpt><trkpt lat="42.0409335409843" lon="13.68192874616819"><ele>907.1666666666666</ele><time>2026-05-02T11:25:40.999Z</time></trkpt><trkpt lat="42.04088700271895" lon="13.68186022535338"><ele>903.0</ele><time>2026-05-02T11:25:41.999Z</time></trkpt><trkpt lat="42.04083281657389" lon="13.681790409094182"><ele>902.0</ele><time>2026-05-02T11:25:42.999Z</time></trkpt><trkpt lat="42.04077658688931" lon="13.681724991376372"><ele>901.0</ele><time>2026-05-02T11:25:43.999Z</time></trkpt><trkpt lat="42.0407180955668" lon="13.681645843298808"><ele>900.0</ele><time>2026-05-02T11:25:44.999Z</time></trkpt><trkpt lat="42.040660744693824" lon="13.681558529653552"><ele>899.0</ele><time>2026-05-02T11:25:45.999Z</time></trkpt><trkpt lat="42.04060414771344" lon="13.681462427050297"><ele>898.0</ele><time>2026-05-02T11:25:46.999Z</time></trkpt><trkpt lat="42.04055100699117" lon="13.681371117866254"><ele>897.0</ele><time>2026-05-02T11:25:47.999Z</time></trkpt><trkpt lat="42.04049115267261" lon="13.681287251211865"><ele>897.0</ele><time>2026-05-02T11:25:48.999Z</time></trkpt><trkpt lat="42.04042823295736" lon="13.681206245636616"><ele>897.0</ele><time>2026-05-02T11:25:49.999Z</time></trkpt><trkpt lat="42.04036965822806" lon="13.681120680181278"><ele>897.0</ele><time>2026-05-02T11:25:50.999Z</time></trkpt><trkpt lat="42.040315356464944" lon="13.68103678991425"><ele>897.0</ele><time>2026-05-02T11:25:51.999Z</time></trkpt><trkpt lat="42.040258172233635" lon="13.68094537408742"><ele>897.0</ele><time>2026-05-02T11:25:52.999Z</time></trkpt><trkpt lat="42.040208963178756" lon="13.680859208006066"><ele>897.0</ele><time>2026-05-02T11:25:53.999Z</time></trkpt><trkpt lat="42.04016322277227" lon="13.680785195797384"><ele>898.4000000000001</ele><time>2026-05-02T11:25:54.999Z</time></trkpt><trkpt lat="42.040118382297806" lon="13.680706490480429"><ele>899.8000000000001</ele><time>2026-05-02T11:25:55.999Z</time></trkpt><trkpt lat="42.04004400005212" lon="13.680565624241094"><ele>901.2</ele><time>2026-05-02T11:25:57.999Z</time></trkpt><trkpt lat="42.040011245094945" lon="13.680491853887897"><ele>902.6</ele><time>2026-05-02T11:25:58.999Z</time></trkpt><trkpt lat="42.03994817155846" lon="13.680354322063724"><ele>904.0</ele><time>2026-05-02T11:26:00.999Z</time></trkpt><trkpt lat="42.03990168615372" lon="13.68027979762183"><ele>900.9999999999999</ele><time>2026-05-02T11:26:01.999Z</time></trkpt><trkpt lat="42.03985752256614" lon="13.68020703226896"><ele>898.0</ele><time>2026-05-02T11:26:02.999Z</time></trkpt><trkpt lat="42.039812257056525" lon="13.680134725922741"><ele>895.0</ele><time>2026-05-02T11:26:03.999Z</time></trkpt><trkpt lat="42.039739607525064" lon="13.68000215255947"><ele>892.0</ele><time>2026-05-02T11:26:05.999Z</time></trkpt><trkpt lat="42.03969733140341" lon="13.679935917756769"><ele>888.9999999999999</ele><time>2026-05-02T11:26:06.999Z</time></trkpt><trkpt lat="42.039650571830876" lon="13.679861460626679"><ele>886.0</ele><time>2026-05-02T11:26:07.999Z</time></trkpt><trkpt lat="42.03960980372095" lon="13.679790722077664"><ele>886.0</ele><time>2026-05-02T11:26:08.999Z</time></trkpt><trkpt lat="42.03957436065039" lon="13.679720093253335"><ele>886.0</ele><time>2026-05-02T11:26:09.999Z</time></trkpt><trkpt lat="42.03953654032814" lon="13.679649129191642"><ele>886.0</ele><time>2026-05-02T11:26:10.999Z</time></trkpt><trkpt lat="42.03949953197645" lon="13.679574639995337"><ele>886.0</ele><time>2026-05-02T11:26:11.999Z</time></trkpt><trkpt lat="42.03945982683884" lon="13.67949642979867"><ele>886.0</ele><time>2026-05-02T11:26:12.999Z</time></trkpt><trkpt lat="42.03942151852234" lon="13.67942907858243"><ele>886.0</ele><time>2026-05-02T11:26:14Z</time></trkpt><trkpt lat="42.0393509142231" lon="13.679300235330203"><ele>886.0</ele><time>2026-05-02T11:26:16Z</time></trkpt><trkpt lat="42.03929150132057" lon="13.67916826994753"><ele>886.4999999999999</ele><time>2026-05-02T11:26:18Z</time></trkpt><trkpt lat="42.039260708874025" lon="13.679093318308682"><ele>887.0</ele><time>2026-05-02T11:26:19Z</time></trkpt><trkpt lat="42.039220566424206" lon="13.679022879046274"><ele>887.5</ele><time>2026-05-02T11:26:20Z</time></trkpt><trkpt lat="42.03917209627107" lon="13.678945390373135"><ele>888.0</ele><time>2026-05-02T11:26:21Z</time></trkpt><trkpt lat="42.03912368766338" lon="13.678853379943066"><ele>888.4999999999999</ele><time>2026-05-02T11:26:22Z</time></trkpt><trkpt lat="42.039077448157414" lon="13.678750350329238"><ele>889.0</ele><time>2026-05-02T11:26:23Z</time></trkpt><trkpt lat="42.03901968234045" lon="13.678644813311692"><ele>885.6</ele><time>2026-05-02T11:26:24Z</time></trkpt><trkpt lat="42.03895805966456" lon="13.678537806071967"><ele>882.2</ele><time>2026-05-02T11:26:25Z</time></trkpt><trkpt lat="42.038907099322365" lon="13.678441447582188"><ele>878.8000000000001</ele><time>2026-05-02T11:26:26Z</time></trkpt><trkpt lat="42.0388554148386" lon="13.678346957813728"><ele>875.4000000000001</ele><time>2026-05-02T11:26:27Z</time></trkpt><trkpt lat="42.03879527781473" lon="13.678247286079433"><ele>872.0</ele><time>2026-05-02T11:26:28Z</time></trkpt><trkpt lat="42.03873276099519" lon="13.678151311852751"><ele>872.0000000000001</ele><time>2026-05-02T11:26:29Z</time></trkpt><trkpt lat="42.038682734662686" lon="13.678071692904542"><ele>872.0</ele><time>2026-05-02T11:26:30Z</time></trkpt><trkpt lat="42.03863252573213" lon="13.677985391491697"><ele>872.0</ele><time>2026-05-02T11:26:31Z</time></trkpt><trkpt lat="42.03858687871001" lon="13.677900101008818"><ele>872.0</ele><time>2026-05-02T11:26:32Z</time></trkpt><trkpt lat="42.03852891808327" lon="13.677813131906763"><ele>872.0000000000001</ele><time>2026-05-02T11:26:33Z</time></trkpt><trkpt lat="42.03847238352062" lon="13.677733825275679"><ele>872.0</ele><time>2026-05-02T11:26:34Z</time></trkpt><trkpt lat="42.03840953113328" lon="13.67764462493296"><ele>870.0</ele><time>2026-05-02T11:26:35Z</time></trkpt><trkpt lat="42.03834707700366" lon="13.67754131364772"><ele>868.0</ele><time>2026-05-02T11:26:36Z</time></trkpt><trkpt lat="42.03829099786125" lon="13.677441695524083"><ele>866.0</ele><time>2026-05-02T11:26:37Z</time></trkpt><trkpt lat="42.03823342461729" lon="13.677346256877977"><ele>864.0</ele><time>2026-05-02T11:26:38Z</time></trkpt><trkpt lat="42.03816679328407" lon="13.677263399150357"><ele>862.0</ele><time>2026-05-02T11:26:39Z</time></trkpt><trkpt lat="42.03808597437964" lon="13.677183589799553"><ele>861.9999999999999</ele><time>2026-05-02T11:26:40Z</time></trkpt><trkpt lat="42.038023921247394" lon="13.67714221990514"><ele>862.0</ele><time>2026-05-02T11:26:41Z</time></trkpt><trkpt lat="42.03796279541204" lon="13.677061962070425"><ele>862.0</ele><time>2026-05-02T11:26:42Z</time></trkpt><trkpt lat="42.03790954453154" lon="13.676991311468694"><ele>862.0</ele><time>2026-05-02T11:26:43Z</time></trkpt><trkpt lat="42.03786261066628" lon="13.67692481414846"><ele>861.9999999999999</ele><time>2026-05-02T11:26:44Z</time></trkpt><trkpt lat="42.03777182732079" lon="13.676817678290442"><ele>862.0</ele><time>2026-05-02T11:26:46Z</time></trkpt><trkpt lat="42.03771666274989" lon="13.676754996670251"><ele>859.8333333333333</ele><time>2026-05-02T11:26:47Z</time></trkpt><trkpt lat="42.03765514456774" lon="13.676680583286911"><ele>857.6666666666666</ele><time>2026-05-02T11:26:48Z</time></trkpt><trkpt lat="42.037601525625924" lon="13.676599742004285"><ele>855.5</ele><time>2026-05-02T11:26:49Z</time></trkpt><trkpt lat="42.03755173930386" lon="13.676521078095348"><ele>853.3333333333333</ele><time>2026-05-02T11:26:50Z</time></trkpt><trkpt lat="42.03750171123961" lon="13.676464900038393"><ele>851.1666666666666</ele><time>2026-05-02T11:26:51Z</time></trkpt><trkpt lat="42.037402818014165" lon="13.676392496005574"><ele>849.0</ele><time>2026-05-02T11:26:53Z</time></trkpt><trkpt lat="42.03734370796175" lon="13.676247692296739"><ele>849.0</ele><time>2026-05-02T11:26:55Z</time></trkpt><trkpt lat="42.037286432740856" lon="13.67610505695168"><ele>849.0</ele><time>2026-05-02T11:26:57Z</time></trkpt><trkpt lat="42.037201536527206" lon="13.676026694606042"><ele>849.0</ele><time>2026-05-02T11:26:59Z</time></trkpt><trkpt lat="42.03711438217107" lon="13.675968812769106"><ele>849.0</ele><time>2026-05-02T11:27:01Z</time></trkpt><trkpt lat="42.037031619177135" lon="13.67586359221422"><ele>849.0</ele><time>2026-05-02T11:27:03Z</time></trkpt><trkpt lat="42.03693329738433" lon="13.675759858869716"><ele>847.1666666666666</ele><time>2026-05-02T11:27:05Z</time></trkpt><trkpt lat="42.036851177531126" lon="13.675692682758351"><ele>845.3333333333333</ele><time>2026-05-02T11:27:07Z</time></trkpt><trkpt lat="42.03679906200019" lon="13.675620558191723"><ele>843.5</ele><time>2026-05-02T11:27:10Z</time></trkpt><trkpt lat="42.036712529128465" lon="13.675574124786895"><ele>841.6666666666666</ele><time>2026-05-02T11:27:17Z</time></trkpt><trkpt lat="42.036644874746386" lon="13.675518413345563"><ele>839.8333333333333</ele><time>2026-05-02T11:27:18Z</time></trkpt><trkpt lat="42.03658909423037" lon="13.675472550720327"><ele>838.0</ele><time>2026-05-02T11:27:19Z</time></trkpt><trkpt lat="42.036525797710425" lon="13.67543214479677"><ele>838.0</ele><time>2026-05-02T11:27:20Z</time></trkpt><trkpt lat="42.036469238370465" lon="13.675392468067665"><ele>838.0</ele><time>2026-05-02T11:27:21Z</time></trkpt><trkpt lat="42.03640948529435" lon="13.675342588907508"><ele>838.0</ele><time>2026-05-02T11:27:22Z</time></trkpt><trkpt lat="42.03631259746151" lon="13.675258216849588"><ele>838.0</ele><time>2026-05-02T11:27:24Z</time></trkpt><trkpt lat="42.03621753300609" lon="13.675229229236935"><ele>838.0</ele><time>2026-05-02T11:27:26Z</time></trkpt><trkpt lat="42.03608323641441" lon="13.67527041031849"><ele>837.9999999999999</ele><time>2026-05-02T11:27:28Z</time></trkpt><trkpt lat="42.03600894719521" lon="13.675287225068304"><ele>838.0</ele><time>2026-05-02T11:27:29Z</time></trkpt><trkpt lat="42.03594509645312" lon="13.67527492433775"><ele>838.0</ele><time>2026-05-02T11:27:30Z</time></trkpt><trkpt lat="42.035844745632986" lon="13.675224120317957"><ele>838.0</ele><time>2026-05-02T11:27:32Z</time></trkpt><trkpt lat="42.03575771227637" lon="13.675217990445654"><ele>837.9999999999999</ele><time>2026-05-02T11:27:34Z</time></trkpt><trkpt lat="42.03565614383724" lon="13.675201339166632"><ele>838.0</ele><time>2026-05-02T11:27:36Z</time></trkpt><trkpt lat="42.0355592987992" lon="13.675144936872515"><ele>835.9999999999999</ele><time>2026-05-02T11:27:38Z</time></trkpt><trkpt lat="42.035508753701826" lon="13.67506149613299"><ele>834.0</ele><time>2026-05-02T11:27:46Z</time></trkpt><trkpt lat="42.03546354771633" lon="13.674996356606297"><ele>832.0</ele><time>2026-05-02T11:27:47Z</time></trkpt><trkpt lat="42.03541651682252" lon="13.674906114530176"><ele>830.0</ele><time>2026-05-02T11:27:49Z</time></trkpt><trkpt lat="42.03537291690526" lon="13.67482664458811"><ele>827.9999999999999</ele><time>2026-05-02T11:27:51Z</time></trkpt><trkpt lat="42.03527935667314" lon="13.674753697567011"><ele>826.0</ele><time>2026-05-02T11:27:53Z</time></trkpt><trkpt lat="42.035154839790664" lon="13.674719039344211"><ele>825.9999999999999</ele><time>2026-05-02T11:27:55Z</time></trkpt><trkpt lat="42.03505510935121" lon="13.67469905527061"><ele>826.0</ele><time>2026-05-02T11:27:57Z</time></trkpt><trkpt lat="42.03498849756759" lon="13.674674379801456"><ele>826.0</ele><time>2026-05-02T11:27:59Z</time></trkpt><trkpt lat="42.03491647185111" lon="13.67464068712616"><ele>826.0</ele><time>2026-05-02T11:28:01Z</time></trkpt><trkpt lat="42.03484763669453" lon="13.674608888629981"><ele>825.9999999999999</ele><time>2026-05-02T11:28:03Z</time></trkpt><trkpt lat="42.03478553497778" lon="13.67454507370859"><ele>826.0</ele><time>2026-05-02T11:28:06Z</time></trkpt><trkpt lat="42.03472788632617" lon="13.674439903272487"><ele>822.8333333333333</ele><time>2026-05-02T11:28:09Z</time></trkpt><trkpt lat="42.034711213787006" lon="13.674308540735018"><ele>819.6666666666666</ele><time>2026-05-02T11:28:11Z</time></trkpt><trkpt lat="42.03470098673649" lon="13.674219537571883"><ele>816.5</ele><time>2026-05-02T11:28:12Z</time></trkpt><trkpt lat="42.03468599074818" lon="13.674127304539633"><ele>813.3333333333333</ele><time>2026-05-02T11:28:13Z</time></trkpt><trkpt lat="42.0346743604059" lon="13.674036671340914"><ele>810.1666666666666</ele><time>2026-05-02T11:28:14Z</time></trkpt><trkpt lat="42.03465932889285" lon="13.673947303963402"><ele>807.0</ele><time>2026-05-02T11:28:15Z</time></trkpt><trkpt lat="42.03466362239904" lon="13.673798048597465"><ele>807.0</ele><time>2026-05-02T11:28:17Z</time></trkpt><trkpt lat="42.03472234844413" lon="13.673644252529696"><ele>807.0</ele><time>2026-05-02T11:28:19Z</time></trkpt><trkpt lat="42.03475449819775" lon="13.673559501048224"><ele>807.0</ele><time>2026-05-02T11:28:20Z</time></trkpt><trkpt lat="42.03479677813664" lon="13.673421648717968"><ele>807.0</ele><time>2026-05-02T11:28:21Z</time></trkpt><trkpt lat="42.03483726747063" lon="13.673268166816078"><ele>807.0</ele><time>2026-05-02T11:28:22Z</time></trkpt><trkpt lat="42.034871561598074" lon="13.673129109163998"><ele>808.5</ele><time>2026-05-02T11:28:23Z</time></trkpt><trkpt lat="42.034905041606414" lon="13.673014375070736"><ele>810.0</ele><time>2026-05-02T11:28:24Z</time></trkpt><trkpt lat="42.03494609454962" lon="13.672901675853538"><ele>811.5</ele><time>2026-05-02T11:28:25Z</time></trkpt><trkpt lat="42.03498823113436" lon="13.672803986236712"><ele>813.0</ele><time>2026-05-02T11:28:26Z</time></trkpt><trkpt lat="42.03502740568059" lon="13.672716978360624"><ele>814.5</ele><time>2026-05-02T11:28:27Z</time></trkpt><trkpt lat="42.03505869428537" lon="13.67263041377479"><ele>816.0</ele><time>2026-05-02T11:28:28Z</time></trkpt><trkpt lat="42.03508685924217" lon="13.672539577840258"><ele>818.8</ele><time>2026-05-02T11:28:29Z</time></trkpt><trkpt lat="42.03512459962135" lon="13.672432702627528"><ele>821.5999999999999</ele><time>2026-05-02T11:28:30Z</time></trkpt><trkpt lat="42.035175593227315" lon="13.672313421734229"><ele>824.4</ele><time>2026-05-02T11:28:31Z</time></trkpt><trkpt lat="42.035234601964746" lon="13.672181807671782"><ele>827.2</ele><time>2026-05-02T11:28:32Z</time></trkpt><trkpt lat="42.035284245849425" lon="13.672052395846686"><ele>830.0</ele><time>2026-05-02T11:28:33Z</time></trkpt><trkpt lat="42.03532571297611" lon="13.671904198149024"><ele>831.0</ele><time>2026-05-02T11:28:34Z</time></trkpt><trkpt lat="42.03535594464713" lon="13.67175664228509"><ele>832.0</ele><time>2026-05-02T11:28:35Z</time></trkpt><trkpt lat="42.035387748855584" lon="13.67160736549098"><ele>833.0</ele><time>2026-05-02T11:28:36Z</time></trkpt><trkpt lat="42.03541956472581" lon="13.671468491153513"><ele>834.0</ele><time>2026-05-02T11:28:37Z</time></trkpt><trkpt lat="42.035451292767824" lon="13.671339687898843"><ele>835.0</ele><time>2026-05-02T11:28:38Z</time></trkpt><trkpt lat="42.0354842532601" lon="13.671213411165551"><ele>836.5</ele><time>2026-05-02T11:28:39Z</time></trkpt><trkpt lat="42.03551536936342" lon="13.67107671943998"><ele>838.0</ele><time>2026-05-02T11:28:40Z</time></trkpt><trkpt lat="42.03554206468827" lon="13.67092762175964"><ele>839.5</ele><time>2026-05-02T11:28:41Z</time></trkpt><trkpt lat="42.035563571475535" lon="13.670753683727758"><ele>841.0</ele><time>2026-05-02T11:28:42Z</time></trkpt><trkpt lat="42.035582512937005" lon="13.670565765934857"><ele>841.0</ele><time>2026-05-02T11:28:43Z</time></trkpt><trkpt lat="42.03559958298031" lon="13.670403164618538"><ele>841.0</ele><time>2026-05-02T11:28:44Z</time></trkpt><trkpt lat="42.03561400619426" lon="13.670268151223457"><ele>841.0</ele><time>2026-05-02T11:28:45Z</time></trkpt><trkpt lat="42.03561966909247" lon="13.670146601500264"><ele>841.0</ele><time>2026-05-02T11:28:46Z</time></trkpt><trkpt lat="42.035616570712655" lon="13.670024926378925"><ele>841.0</ele><time>2026-05-02T11:28:47Z</time></trkpt><trkpt lat="42.035604857931325" lon="13.669901746809161"><ele>841.4</ele><time>2026-05-02T11:28:48Z</time></trkpt><trkpt lat="42.03558377743078" lon="13.669765258624341"><ele>841.8</ele><time>2026-05-02T11:28:49Z</time></trkpt><trkpt lat="42.03555773236733" lon="13.669634356543396"><ele>842.1999999999999</ele><time>2026-05-02T11:28:50Z</time></trkpt><trkpt lat="42.03553834293487" lon="13.669505198567435"><ele>842.5999999999999</ele><time>2026-05-02T11:28:51Z</time></trkpt><trkpt lat="42.035536191570586" lon="13.669400250839852"><ele>843.0</ele><time>2026-05-02T11:28:52Z</time></trkpt><trkpt lat="42.03555791571025" lon="13.669310999482452"><ele>843.2</ele><time>2026-05-02T11:28:53Z</time></trkpt><trkpt lat="42.03559982420749" lon="13.669239231038492"><ele>843.4</ele><time>2026-05-02T11:28:54Z</time></trkpt><trkpt lat="42.035660659245714" lon="13.669163906582561"><ele>843.6</ele><time>2026-05-02T11:28:55Z</time></trkpt><trkpt lat="42.035736245058494" lon="13.669090446267777"><ele>843.8000000000001</ele><time>2026-05-02T11:28:56Z</time></trkpt><trkpt lat="42.03582585767444" lon="13.66900975647578"><ele>844.0</ele><time>2026-05-02T11:28:57Z</time></trkpt><trkpt lat="42.03591619827342" lon="13.668916349284217"><ele>843.8000000000001</ele><time>2026-05-02T11:28:58Z</time></trkpt><trkpt lat="42.036001082669216" lon="13.66882301532949"><ele>843.6</ele><time>2026-05-02T11:28:59Z</time></trkpt><trkpt lat="42.03608861847513" lon="13.668747507095585"><ele>843.4</ele><time>2026-05-02T11:29:00Z</time></trkpt><trkpt lat="42.03617521054181" lon="13.668692969071646"><ele>843.2</ele><time>2026-05-02T11:29:01Z</time></trkpt><trkpt lat="42.03624765940221" lon="13.668656247820184"><ele>843.0</ele><time>2026-05-02T11:29:02Z</time></trkpt><trkpt lat="42.036305728872264" lon="13.668602797482997"><ele>843.0</ele><time>2026-05-02T11:29:04Z</time></trkpt><trkpt lat="42.03636763750919" lon="13.66856634758826"><ele>843.0</ele><time>2026-05-02T11:29:07Z</time></trkpt><trkpt lat="42.03645375472678" lon="13.668560488108108"><ele>843.0</ele><time>2026-05-02T11:29:09Z</time></trkpt><trkpt lat="42.03656044295214" lon="13.668639441717886"><ele>843.0</ele><time>2026-05-02T11:29:11Z</time></trkpt><trkpt lat="42.036651752862035" lon="13.668688200103174"><ele>843.0</ele><time>2026-05-02T11:29:12Z</time></trkpt><trkpt lat="42.036777608105474" lon="13.668721726948101"><ele>844.4</ele><time>2026-05-02T11:29:13Z</time></trkpt><trkpt lat="42.036879890544874" lon="13.668754205835906"><ele>845.8</ele><time>2026-05-02T11:29:14Z</time></trkpt><trkpt lat="42.03698404685797" lon="13.668795373785594"><ele>847.2</ele><time>2026-05-02T11:29:15Z</time></trkpt><trkpt lat="42.037069633082275" lon="13.668830117135656"><ele>848.6</ele><time>2026-05-02T11:29:16Z</time></trkpt><trkpt lat="42.03716094078182" lon="13.668846798966621"><ele>850.0</ele><time>2026-05-02T11:29:18Z</time></trkpt><trkpt lat="42.03726287270822" lon="13.668703365253617"><ele>850.0</ele><time>2026-05-02T11:29:21Z</time></trkpt><trkpt lat="42.03724288686075" lon="13.668614727499731"><ele>850.0</ele><time>2026-05-02T11:29:22Z</time></trkpt><trkpt lat="42.03726227192371" lon="13.668517629719757"><ele>850.0</ele><time>2026-05-02T11:29:23Z</time></trkpt><trkpt lat="42.0372800300623" lon="13.668418037976807"><ele>850.0</ele><time>2026-05-02T11:29:24Z</time></trkpt><trkpt lat="42.03729474128144" lon="13.668331718307897"><ele>850.0</ele><time>2026-05-02T11:29:25Z</time></trkpt><trkpt lat="42.03731138976833" lon="13.668249786287255"><ele>850.0</ele><time>2026-05-02T11:29:26Z</time></trkpt><trkpt lat="42.03732966420081" lon="13.668163631313044"><ele>850.0</ele><time>2026-05-02T11:29:27Z</time></trkpt><trkpt lat="42.03735013883366" lon="13.668065235389408"><ele>850.2</ele><time>2026-05-02T11:29:28Z</time></trkpt><trkpt lat="42.03737309836841" lon="13.667957880314008"><ele>850.4</ele><time>2026-05-02T11:29:29Z</time></trkpt><trkpt lat="42.037398184056805" lon="13.667837839309971"><ele>850.5999999999999</ele><time>2026-05-02T11:29:30Z</time></trkpt><trkpt lat="42.03742052635269" lon="13.667706545625384"><ele>850.8</ele><time>2026-05-02T11:29:31Z</time></trkpt><trkpt lat="42.03745778341955" lon="13.667573676766438"><ele>851.0</ele><time>2026-05-02T11:29:32Z</time></trkpt><trkpt lat="42.037454283236194" lon="13.667445772171725"><ele>851.0000000000001</ele><time>2026-05-02T11:29:33Z</time></trkpt><trkpt lat="42.03746710046093" lon="13.667323876740506"><ele>851.0</ele><time>2026-05-02T11:29:34Z</time></trkpt><trkpt lat="42.03748412289563" lon="13.667217012968225"><ele>851.0</ele><time>2026-05-02T11:29:35Z</time></trkpt><trkpt lat="42.03750868938709" lon="13.667097140185938"><ele>851.0</ele><time>2026-05-02T11:29:36Z</time></trkpt><trkpt lat="42.0375570693436" lon="13.666995277988677"><ele>851.0000000000001</ele><time>2026-05-02T11:29:37Z</time></trkpt><trkpt lat="42.03759971638501" lon="13.666896182345802"><ele>851.0</ele><time>2026-05-02T11:29:38Z</time></trkpt><trkpt lat="42.03765820469254" lon="13.666793371771304"><ele>851.5</ele><time>2026-05-02T11:29:39Z</time></trkpt><trkpt lat="42.03773533905292" lon="13.666684917320946"><ele>852.0</ele><time>2026-05-02T11:29:40Z</time></trkpt><trkpt lat="42.037786420850566" lon="13.666545598754626"><ele>852.5</ele><time>2026-05-02T11:29:41Z</time></trkpt><trkpt lat="42.03783505864525" lon="13.66641177396633"><ele>853.0</ele><time>2026-05-02T11:29:42Z</time></trkpt><trkpt lat="42.03787420781656" lon="13.666260572636144"><ele>853.0</ele><time>2026-05-02T11:29:43Z</time></trkpt><trkpt lat="42.03791740624944" lon="13.66610075255815"><ele>853.0</ele><time>2026-05-02T11:29:44Z</time></trkpt><trkpt lat="42.037942826147024" lon="13.665939016829228"><ele>853.0</ele><time>2026-05-02T11:29:45Z</time></trkpt><trkpt lat="42.037985723397036" lon="13.66579277756652"><ele>853.0</ele><time>2026-05-02T11:29:46Z</time></trkpt><trkpt lat="42.038014219314604" lon="13.665626443896187"><ele>853.0</ele><time>2026-05-02T11:29:47Z</time></trkpt><trkpt lat="42.038028463411486" lon="13.66544962030151"><ele>853.0</ele><time>2026-05-02T11:29:48Z</time></trkpt><trkpt lat="42.038050576816424" lon="13.66527441619438"><ele>853.0</ele><time>2026-05-02T11:29:49Z</time></trkpt><trkpt lat="42.038081767530784" lon="13.66510695195629"><ele>853.0</ele><time>2026-05-02T11:29:50Z</time></trkpt><trkpt lat="42.03811841616952" lon="13.66494696501019"><ele>853.25</ele><time>2026-05-02T11:29:51Z</time></trkpt><trkpt lat="42.03815995403517" lon="13.664775153644468"><ele>853.5</ele><time>2026-05-02T11:29:52Z</time></trkpt><trkpt lat="42.038206581368044" lon="13.664585664981722"><ele>853.75</ele><time>2026-05-02T11:29:53Z</time></trkpt><trkpt lat="42.038258109780664" lon="13.664379127183338"><ele>854.0</ele><time>2026-05-02T11:29:54Z</time></trkpt><trkpt lat="42.038308938045994" lon="13.664170068982864"><ele>854.5</ele><time>2026-05-02T11:29:55Z</time></trkpt><trkpt lat="42.0383509516133" lon="13.663978878301247"><ele>855.0</ele><time>2026-05-02T11:29:56Z</time></trkpt><trkpt lat="42.03836491010354" lon="13.663802254467312"><ele>855.5</ele><time>2026-05-02T11:29:57Z</time></trkpt><trkpt lat="42.0383991130537" lon="13.663643243947973"><ele>856.0</ele><time>2026-05-02T11:29:58Z</time></trkpt><trkpt lat="42.038404547286426" lon="13.663484334416994"><ele>856.25</ele><time>2026-05-02T11:29:59Z</time></trkpt><trkpt lat="42.03843744320632" lon="13.663327728286342"><ele>856.5</ele><time>2026-05-02T11:30:00Z</time></trkpt><trkpt lat="42.03847465285898" lon="13.663173849334065"><ele>856.75</ele><time>2026-05-02T11:30:01Z</time></trkpt><trkpt lat="42.03852013986112" lon="13.663023593508507"><ele>857.0</ele><time>2026-05-02T11:30:02Z</time></trkpt><trkpt lat="42.03857208380878" lon="13.662872971392554"><ele>857.75</ele><time>2026-05-02T11:30:03Z</time></trkpt><trkpt lat="42.03862540652751" lon="13.66272494205379"><ele>858.5</ele><time>2026-05-02T11:30:04Z</time></trkpt><trkpt lat="42.038675947133825" lon="13.662570740130695"><ele>859.25</ele><time>2026-05-02T11:30:05Z</time></trkpt><trkpt lat="42.03872028380288" lon="13.662412701767826"><ele>860.0</ele><time>2026-05-02T11:30:06Z</time></trkpt><trkpt lat="42.03875929612384" lon="13.662248033741667"><ele>860.0</ele><time>2026-05-02T11:30:07Z</time></trkpt><trkpt lat="42.0388004462132" lon="13.662075411556854"><ele>860.0</ele><time>2026-05-02T11:30:08Z</time></trkpt><trkpt lat="42.03883867528205" lon="13.661899211181188"><ele>860.0</ele><time>2026-05-02T11:30:09Z</time></trkpt><trkpt lat="42.03887622764064" lon="13.66173878271066"><ele>860.0</ele><time>2026-05-02T11:30:10Z</time></trkpt><trkpt lat="42.03892091682994" lon="13.661597384795447"><ele>859.75</ele><time>2026-05-02T11:30:11Z</time></trkpt><trkpt lat="42.03899165038634" lon="13.661468948910155"><ele>859.5</ele><time>2026-05-02T11:30:12Z</time></trkpt><trkpt lat="42.03905157743518" lon="13.661318273872904"><ele>859.25</ele><time>2026-05-02T11:30:13Z</time></trkpt><trkpt lat="42.039092917809576" lon="13.661154793070388"><ele>859.0</ele><time>2026-05-02T11:30:14Z</time></trkpt><trkpt lat="42.039163849318165" lon="13.661004845580074"><ele>859.0</ele><time>2026-05-02T11:30:15Z</time></trkpt><trkpt lat="42.0392248137935" lon="13.660821397958747"><ele>859.0</ele><time>2026-05-02T11:30:16Z</time></trkpt><trkpt lat="42.039276514363934" lon="13.660605251252386"><ele>859.0</ele><time>2026-05-02T11:30:17Z</time></trkpt><trkpt lat="42.039340337587824" lon="13.660391755298734"><ele>859.0</ele><time>2026-05-02T11:30:18Z</time></trkpt><trkpt lat="42.039393250917" lon="13.660187790613927"><ele>859.0</ele><time>2026-05-02T11:30:19Z</time></trkpt><trkpt lat="42.039444061197585" lon="13.659996762554295"><ele>859.0</ele><time>2026-05-02T11:30:20Z</time></trkpt><trkpt lat="42.03949963577446" lon="13.659814441641151"><ele>859.0</ele><time>2026-05-02T11:30:21Z</time></trkpt><trkpt lat="42.03955522663575" lon="13.659646960681444"><ele>859.0</ele><time>2026-05-02T11:30:22Z</time></trkpt><trkpt lat="42.03962656674139" lon="13.659500811976134"><ele>859.0</ele><time>2026-05-02T11:30:23Z</time></trkpt><trkpt lat="42.03968355290936" lon="13.659361842979854"><ele>859.0</ele><time>2026-05-02T11:30:24Z</time></trkpt><trkpt lat="42.039737778320415" lon="13.65923448921516"><ele>859.2</ele><time>2026-05-02T11:30:25Z</time></trkpt><trkpt lat="42.039779394900144" lon="13.659103819073913"><ele>859.4000000000001</ele><time>2026-05-02T11:30:26Z</time></trkpt><trkpt lat="42.03984105112596" lon="13.659006433354893"><ele>859.6</ele><time>2026-05-02T11:30:27Z</time></trkpt><trkpt lat="42.03987483841615" lon="13.658893032300094"><ele>859.8</ele><time>2026-05-02T11:30:28Z</time></trkpt><trkpt lat="42.03993101739982" lon="13.658812318314435"><ele>860.0</ele><time>2026-05-02T11:30:29Z</time></trkpt><trkpt lat="42.04000233452339" lon="13.658763211471312"><ele>859.6666666666667</ele><time>2026-05-02T11:30:30Z</time></trkpt><trkpt lat="42.04007415765561" lon="13.658698273568868"><ele>859.3333333333334</ele><time>2026-05-02T11:30:31Z</time></trkpt><trkpt lat="42.04014799034548" lon="13.658630384567148"><ele>859.0</ele><time>2026-05-02T11:30:32Z</time></trkpt><trkpt lat="42.04022269744359" lon="13.65856673521745"><ele>858.6666666666667</ele><time>2026-05-02T11:30:33Z</time></trkpt><trkpt lat="42.040291479536485" lon="13.658487602073802"><ele>858.3333333333334</ele><time>2026-05-02T11:30:34Z</time></trkpt><trkpt lat="42.04037612092368" lon="13.658431813935549"><ele>858.0</ele><time>2026-05-02T11:30:35Z</time></trkpt><trkpt lat="42.040469011067266" lon="13.658362487161504"><ele>857.75</ele><time>2026-05-02T11:30:36Z</time></trkpt><trkpt lat="42.040572466314316" lon="13.658286164395069"><ele>857.5</ele><time>2026-05-02T11:30:37Z</time></trkpt><trkpt lat="42.04068459254775" lon="13.658204188253764"><ele>857.25</ele><time>2026-05-02T11:30:38Z</time></trkpt><trkpt lat="42.04080868746806" lon="13.65811500185971"><ele>857.0</ele><time>2026-05-02T11:30:39Z</time></trkpt><trkpt lat="42.040930613934414" lon="13.658025681557648"><ele>857.25</ele><time>2026-05-02T11:30:40Z</time></trkpt><trkpt lat="42.04104611723867" lon="13.657944409388168"><ele>857.5</ele><time>2026-05-02T11:30:41Z</time></trkpt><trkpt lat="42.04115508646179" lon="13.657870500407233"><ele>857.75</ele><time>2026-05-02T11:30:42Z</time></trkpt><trkpt lat="42.04126082262576" lon="13.65779608667186"><ele>858.0</ele><time>2026-05-02T11:30:43Z</time></trkpt><trkpt lat="42.04136218222592" lon="13.657726129884704"><ele>858.0</ele><time>2026-05-02T11:30:44Z</time></trkpt><trkpt lat="42.041452415460036" lon="13.657666318007532"><ele>858.0</ele><time>2026-05-02T11:30:45Z</time></trkpt><trkpt lat="42.0415368046784" lon="13.657612661625167"><ele>858.0</ele><time>2026-05-02T11:30:46Z</time></trkpt><trkpt lat="42.04161820109148" lon="13.65756743997643"><ele>858.0</ele><time>2026-05-02T11:30:47Z</time></trkpt><trkpt lat="42.04170978391888" lon="13.657522849749993"><ele>858.0</ele><time>2026-05-02T11:30:48Z</time></trkpt><trkpt lat="42.041803838582496" lon="13.657475436033652"><ele>858.3333333333334</ele><time>2026-05-02T11:30:49Z</time></trkpt><trkpt lat="42.041900684700444" lon="13.657424207624507"><ele>858.6666666666667</ele><time>2026-05-02T11:30:50Z</time></trkpt><trkpt lat="42.04199111258522" lon="13.657376430665757"><ele>859.0</ele><time>2026-05-02T11:30:51Z</time></trkpt><trkpt lat="42.0420757339693" lon="13.65733124900543"><ele>859.3333333333334</ele><time>2026-05-02T11:30:52Z</time></trkpt><trkpt lat="42.04215125787978" lon="13.657291267644899"><ele>859.6666666666667</ele><time>2026-05-02T11:30:53Z</time></trkpt><trkpt lat="42.04221953234414" lon="13.657260517310661"><ele>860.0</ele><time>2026-05-02T11:30:54Z</time></trkpt><trkpt lat="42.042313636226346" lon="13.657205274230796"><ele>860.0000000000001</ele><time>2026-05-02T11:30:56Z</time></trkpt><trkpt lat="42.042389505538615" lon="13.657208190211833"><ele>860.0</ele><time>2026-05-02T11:30:58Z</time></trkpt><trkpt lat="42.04246563978289" lon="13.657289726928639"><ele>860.0</ele><time>2026-05-02T11:31:00Z</time></trkpt><trkpt lat="42.04251023867537" lon="13.657423531523202"><ele>860.0</ele><time>2026-05-02T11:31:02Z</time></trkpt><trkpt lat="42.042534688416374" lon="13.65751125892844"><ele>860.0000000000001</ele><time>2026-05-02T11:31:04Z</time></trkpt><trkpt lat="42.042562438585755" lon="13.65762572340554"><ele>860.0</ele><time>2026-05-02T11:31:06Z</time></trkpt><trkpt lat="42.04257799147497" lon="13.657713022227474"><ele>859.8</ele><time>2026-05-02T11:31:07Z</time></trkpt><trkpt lat="42.042596952287234" lon="13.657795581661164"><ele>859.6</ele><time>2026-05-02T11:31:08Z</time></trkpt><trkpt lat="42.0426201882928" lon="13.657881852645279"><ele>859.4000000000001</ele><time>2026-05-02T11:31:10Z</time></trkpt><trkpt lat="42.04264837641928" lon="13.658010481226263"><ele>859.2</ele><time>2026-05-02T11:31:15Z</time></trkpt><trkpt lat="42.04266484199833" lon="13.658134624180358"><ele>859.0</ele><time>2026-05-02T11:31:17Z</time></trkpt><trkpt lat="42.04287637958421" lon="13.658111603940895"><ele>859.0</ele><time>2026-05-02T11:31:21Z</time></trkpt><trkpt lat="42.04296192844092" lon="13.658052201352863"><ele>859.0000000000001</ele><time>2026-05-02T11:31:22Z</time></trkpt><trkpt lat="42.043061828557484" lon="13.657986873676867"><ele>859.0000000000001</ele><time>2026-05-02T11:31:23Z</time></trkpt><trkpt lat="42.04316234124518" lon="13.657921731734834"><ele>859.0</ele><time>2026-05-02T11:31:24Z</time></trkpt><trkpt lat="42.04327543083946" lon="13.657852797646914"><ele>859.0</ele><time>2026-05-02T11:31:25Z</time></trkpt><trkpt lat="42.043401192667446" lon="13.657780877742043"><ele>858.75</ele><time>2026-05-02T11:31:26Z</time></trkpt><trkpt lat="42.043543911717904" lon="13.65770303229436"><ele>858.5</ele><time>2026-05-02T11:31:27Z</time></trkpt><trkpt lat="42.043681594172114" lon="13.657632940150961"><ele>858.25</ele><time>2026-05-02T11:31:28Z</time></trkpt><trkpt lat="42.04381456588481" lon="13.657567076598722"><ele>858.0</ele><time>2026-05-02T11:31:29Z</time></trkpt><trkpt lat="42.043923590644724" lon="13.657513811932823"><ele>858.0</ele><time>2026-05-02T11:31:30Z</time></trkpt><trkpt lat="42.04400265762302" lon="13.657484460449526"><ele>858.0</ele><time>2026-05-02T11:31:31Z</time></trkpt><trkpt lat="42.04407057251645" lon="13.657490393964817"><ele>858.0</ele><time>2026-05-02T11:31:32Z</time></trkpt><trkpt lat="42.04415916108047" lon="13.657527444356623"><ele>858.0</ele><time>2026-05-02T11:31:33Z</time></trkpt><trkpt lat="42.044269148141204" lon="13.657552669856416"><ele>858.0</ele><time>2026-05-02T11:31:34Z</time></trkpt><trkpt lat="42.04438986262956" lon="13.657528984090456"><ele>858.5999999999999</ele><time>2026-05-02T11:31:35Z</time></trkpt><trkpt lat="42.04451303437852" lon="13.657480593198624"><ele>859.1999999999999</ele><time>2026-05-02T11:31:36Z</time></trkpt><trkpt lat="42.04461268415253" lon="13.657434642911504"><ele>859.8</ele><time>2026-05-02T11:31:37Z</time></trkpt><trkpt lat="42.044683016588515" lon="13.65740283142896"><ele>860.4</ele><time>2026-05-02T11:31:38Z</time></trkpt><trkpt lat="42.04480896022535" lon="13.657327150233208"><ele>861.0</ele><time>2026-05-02T11:31:40Z</time></trkpt><trkpt lat="42.0448966388835" lon="13.657301431804457"><ele>861.3333333333334</ele><time>2026-05-02T11:31:41Z</time></trkpt><trkpt lat="42.044988159169726" lon="13.657288874770629"><ele>861.6666666666667</ele><time>2026-05-02T11:31:42Z</time></trkpt><trkpt lat="42.045068091051505" lon="13.657268354918104"><ele>862.0</ele><time>2026-05-02T11:31:43Z</time></trkpt><trkpt lat="42.04513767652535" lon="13.65723974981254"><ele>862.3333333333334</ele><time>2026-05-02T11:31:44Z</time></trkpt><trkpt lat="42.04520889300211" lon="13.657226585075284"><ele>862.6666666666667</ele><time>2026-05-02T11:31:45Z</time></trkpt><trkpt lat="42.045292695944134" lon="13.657231320728922"><ele>863.0</ele><time>2026-05-02T11:31:46Z</time></trkpt><trkpt lat="42.045384324731046" lon="13.657224569895961"><ele>863.0</ele><time>2026-05-02T11:31:47Z</time></trkpt><trkpt lat="42.04549388811746" lon="13.657196352828786"><ele>863.0</ele><time>2026-05-02T11:31:48Z</time></trkpt><trkpt lat="42.04558797027794" lon="13.65715848831928"><ele>863.0</ele><time>2026-05-02T11:31:49Z</time></trkpt><trkpt lat="42.04569402433879" lon="13.657107050211282"><ele>863.0</ele><time>2026-05-02T11:31:50Z</time></trkpt><trkpt lat="42.04579110890392" lon="13.65705174277466"><ele>863.0</ele><time>2026-05-02T11:31:51Z</time></trkpt><trkpt lat="42.04587582696107" lon="13.65700192229343"><ele>863.0000000000001</ele><time>2026-05-02T11:31:52Z</time></trkpt><trkpt lat="42.045951121094355" lon="13.656957821149986"><ele>863.0</ele><time>2026-05-02T11:31:53.001Z</time></trkpt><trkpt lat="42.046028555045645" lon="13.656893910739292"><ele>863.0</ele><time>2026-05-02T11:31:54.001Z</time></trkpt><trkpt lat="42.04609949154637" lon="13.65681689708746"><ele>863.0</ele><time>2026-05-02T11:31:55.001Z</time></trkpt><trkpt lat="42.04616103818885" lon="13.656755900962446"><ele>863.0000000000001</ele><time>2026-05-02T11:31:56.001Z</time></trkpt><trkpt lat="42.046233041387794" lon="13.656699787526126"><ele>863.0</ele><time>2026-05-02T11:31:57.001Z</time></trkpt><trkpt lat="42.04631597923583" lon="13.656653353519141"><ele>863.2</ele><time>2026-05-02T11:31:58.001Z</time></trkpt><trkpt lat="42.04640657378128" lon="13.65659551555774"><ele>863.4</ele><time>2026-05-02T11:31:59.001Z</time></trkpt><trkpt lat="42.04648780417107" lon="13.656527237335986"><ele>863.6000000000001</ele><time>2026-05-02T11:32:00.001Z</time></trkpt><trkpt lat="42.04656040406222" lon="13.656457620136075"><ele>863.8000000000001</ele><time>2026-05-02T11:32:01.001Z</time></trkpt><trkpt lat="42.04662454862094" lon="13.656377514050039"><ele>864.0</ele><time>2026-05-02T11:32:02.001Z</time></trkpt><trkpt lat="42.04669325816562" lon="13.656310754515486"><ele>864.0</ele><time>2026-05-02T11:32:03.001Z</time></trkpt><trkpt lat="42.04677074110488" lon="13.656250559695232"><ele>864.0000000000001</ele><time>2026-05-02T11:32:04.001Z</time></trkpt><trkpt lat="42.0468571407256" lon="13.656198126943135"><ele>864.0000000000001</ele><time>2026-05-02T11:32:05.001Z</time></trkpt><trkpt lat="42.046948195049794" lon="13.656144837260964"><ele>864.0</ele><time>2026-05-02T11:32:06.001Z</time></trkpt><trkpt lat="42.04704357486051" lon="13.656099931773726"><ele>864.0</ele><time>2026-05-02T11:32:07.001Z</time></trkpt><trkpt lat="42.04714448185027" lon="13.656039749253491"><ele>863.6</ele><time>2026-05-02T11:32:08.001Z</time></trkpt><trkpt lat="42.047245767579035" lon="13.655959733768759"><ele>863.2</ele><time>2026-05-02T11:32:09.001Z</time></trkpt><trkpt lat="42.0473403665862" lon="13.65587575987313"><ele>862.8000000000001</ele><time>2026-05-02T11:32:10.001Z</time></trkpt><trkpt lat="42.04742497015087" lon="13.655801502193732"><ele>862.4000000000001</ele><time>2026-05-02T11:32:11.001Z</time></trkpt><trkpt lat="42.047497958767536" lon="13.655732052964431"><ele>862.0</ele><time>2026-05-02T11:32:12.001Z</time></trkpt><trkpt lat="42.04756755092256" lon="13.655656762573495"><ele>862.0</ele><time>2026-05-02T11:32:13.001Z</time></trkpt><trkpt lat="42.047632116892125" lon="13.655596230483804"><ele>862.0</ele><time>2026-05-02T11:32:14.001Z</time></trkpt><trkpt lat="42.04770283067435" lon="13.655537978923281"><ele>862.0</ele><time>2026-05-02T11:32:15.001Z</time></trkpt><trkpt lat="42.047768035007515" lon="13.655463483669903"><ele>862.0</ele><time>2026-05-02T11:32:16.001Z</time></trkpt><trkpt lat="42.04784183326964" lon="13.655352111544524"><ele>862.0</ele><time>2026-05-02T11:32:17.001Z</time></trkpt><trkpt lat="42.04791582007391" lon="13.655229167190368"><ele>861.0</ele><time>2026-05-02T11:32:18.001Z</time></trkpt><trkpt lat="42.04799897325577" lon="13.655107162222906"><ele>860.0</ele><time>2026-05-02T11:32:19.001Z</time></trkpt><trkpt lat="42.04807489117411" lon="13.655004439029502"><ele>859.0</ele><time>2026-05-02T11:32:20.001Z</time></trkpt><trkpt lat="42.0481484383724" lon="13.654904734709001"><ele>858.0</ele><time>2026-05-02T11:32:21.001Z</time></trkpt><trkpt lat="42.048222078683494" lon="13.65481096649219"><ele>857.0</ele><time>2026-05-02T11:32:22.001Z</time></trkpt><trkpt lat="42.04828977049321" lon="13.654705021839863"><ele>857.4000000000001</ele><time>2026-05-02T11:32:23.001Z</time></trkpt><trkpt lat="42.04834034790187" lon="13.654597962763335"><ele>857.8000000000001</ele><time>2026-05-02T11:32:24.001Z</time></trkpt><trkpt lat="42.04838540501724" lon="13.654487949037932"><ele>858.2</ele><time>2026-05-02T11:32:25.001Z</time></trkpt><trkpt lat="42.04844149476813" lon="13.654386764069127"><ele>858.6</ele><time>2026-05-02T11:32:26.001Z</time></trkpt><trkpt lat="42.0485068634818" lon="13.654312164401397"><ele>859.0</ele><time>2026-05-02T11:32:27.001Z</time></trkpt><trkpt lat="42.04858705397348" lon="13.654250530442367"><ele>858.9999999999999</ele><time>2026-05-02T11:32:28.001Z</time></trkpt><trkpt lat="42.048669067052245" lon="13.654195311382251"><ele>859.0</ele><time>2026-05-02T11:32:29.001Z</time></trkpt><trkpt lat="42.04873615376036" lon="13.654120533309749"><ele>859.0</ele><time>2026-05-02T11:32:30.001Z</time></trkpt><trkpt lat="42.048788906568724" lon="13.654031969692005"><ele>859.0</ele><time>2026-05-02T11:32:31.001Z</time></trkpt><trkpt lat="42.04883819775419" lon="13.65395031793493"><ele>858.9999999999999</ele><time>2026-05-02T11:32:32.001Z</time></trkpt><trkpt lat="42.04889590639026" lon="13.653878566650413"><ele>859.0</ele><time>2026-05-02T11:32:33.001Z</time></trkpt><trkpt lat="42.04896294609952" lon="13.653812313543325"><ele>858.9999999999999</ele><time>2026-05-02T11:32:34.001Z</time></trkpt><trkpt lat="42.04903665699081" lon="13.653750592916197"><ele>859.0</ele><time>2026-05-02T11:32:35.001Z</time></trkpt><trkpt lat="42.04909782329358" lon="13.653699659050023"><ele>859.0</ele><time>2026-05-02T11:32:36.001Z</time></trkpt><trkpt lat="42.0491732636807" lon="13.653631383815991"><ele>859.0</ele><time>2026-05-02T11:32:37.001Z</time></trkpt><trkpt lat="42.04923636624764" lon="13.653562069928713"><ele>858.9999999999999</ele><time>2026-05-02T11:32:38.001Z</time></trkpt><trkpt lat="42.04930730001277" lon="13.653468505061458"><ele>859.0</ele><time>2026-05-02T11:32:39.001Z</time></trkpt><trkpt lat="42.049367172181235" lon="13.653365163578322"><ele>858.6666666666666</ele><time>2026-05-02T11:32:40.001Z</time></trkpt><trkpt lat="42.049423920136526" lon="13.65326465228597"><ele>858.3333333333333</ele><time>2026-05-02T11:32:41.001Z</time></trkpt><trkpt lat="42.0494828856561" lon="13.653181459998242"><ele>858.0</ele><time>2026-05-02T11:32:42.001Z</time></trkpt><trkpt lat="42.049543250229405" lon="13.653121196245296"><ele>857.6666666666667</ele><time>2026-05-02T11:32:43.001Z</time></trkpt><trkpt lat="42.04960116754156" lon="13.653064168177233"><ele>857.3333333333334</ele><time>2026-05-02T11:32:44.001Z</time></trkpt><trkpt lat="42.04965326882549" lon="13.652988407851412"><ele>857.0</ele><time>2026-05-02T11:32:45.001Z</time></trkpt><trkpt lat="42.04971287443504" lon="13.652860931543358"><ele>857.2</ele><time>2026-05-02T11:32:47.001Z</time></trkpt><trkpt lat="42.04975324438979" lon="13.652719429716097"><ele>857.4000000000001</ele><time>2026-05-02T11:32:49.001Z</time></trkpt><trkpt lat="42.049799928112286" lon="13.652600626378183"><ele>857.5999999999999</ele><time>2026-05-02T11:32:51.001Z</time></trkpt><trkpt lat="42.04984933742139" lon="13.65250788311042"><ele>857.8</ele><time>2026-05-02T11:32:53.001Z</time></trkpt><trkpt lat="42.049934918373545" lon="13.652381685441927"><ele>858.0</ele><time>2026-05-02T11:32:55.001Z</time></trkpt><trkpt lat="42.04999227330345" lon="13.65231201574407"><ele>858.0</ele><time>2026-05-02T11:32:56.001Z</time></trkpt><trkpt lat="42.05004824715633" lon="13.65224914194458"><ele>858.0</ele><time>2026-05-02T11:32:57.001Z</time></trkpt><trkpt lat="42.05010120151876" lon="13.652185692966947"><ele>858.0</ele><time>2026-05-02T11:32:58.001Z</time></trkpt><trkpt lat="42.050157188502695" lon="13.65212397482051"><ele>858.0</ele><time>2026-05-02T11:32:59.001Z</time></trkpt><trkpt lat="42.05021709608336" lon="13.652069653930706"><ele>858.0</ele><time>2026-05-02T11:33:00.001Z</time></trkpt><trkpt lat="42.0502793145134" lon="13.652018586832039"><ele>858.0</ele><time>2026-05-02T11:33:01.001Z</time></trkpt><trkpt lat="42.050339731572876" lon="13.651969093336701"><ele>858.0</ele><time>2026-05-02T11:33:02.001Z</time></trkpt><trkpt lat="42.05039444649067" lon="13.651921708668981"><ele>857.4</ele><time>2026-05-02T11:33:03.001Z</time></trkpt><trkpt lat="42.05048369689286" lon="13.6518547321821"><ele>856.8</ele><time>2026-05-02T11:33:05.001Z</time></trkpt><trkpt lat="42.05061530767495" lon="13.65180121413585"><ele>856.2</ele><time>2026-05-02T11:33:07.001Z</time></trkpt><trkpt lat="42.05068682873603" lon="13.651753362911208"><ele>855.6</ele><time>2026-05-02T11:33:08.001Z</time></trkpt><trkpt lat="42.05075861440414" lon="13.651689616634814"><ele>855.0</ele><time>2026-05-02T11:33:09.001Z</time></trkpt><trkpt lat="42.05081254645822" lon="13.651629350567779"><ele>855.5</ele><time>2026-05-02T11:33:10.001Z</time></trkpt><trkpt lat="42.050856067149304" lon="13.651499996084086"><ele>856.0</ele><time>2026-05-02T11:33:12.001Z</time></trkpt><trkpt lat="42.050880482187196" lon="13.651419407138334"><ele>856.5</ele><time>2026-05-02T11:33:13.001Z</time></trkpt><trkpt lat="42.05090892925643" lon="13.65133248207458"><ele>857.0</ele><time>2026-05-02T11:33:14.001Z</time></trkpt><trkpt lat="42.050936997262376" lon="13.65124634609258"><ele>857.5</ele><time>2026-05-02T11:33:15.001Z</time></trkpt><trkpt lat="42.05095570183201" lon="13.65113841040811"><ele>858.0</ele><time>2026-05-02T11:33:16.001Z</time></trkpt><trkpt lat="42.05094374819347" lon="13.651014191714081"><ele>858.0</ele><time>2026-05-02T11:33:17.001Z</time></trkpt><trkpt lat="42.050906570837995" lon="13.650871084079363"><ele>858.0</ele><time>2026-05-02T11:33:18.001Z</time></trkpt><trkpt lat="42.05086426617822" lon="13.650742656219679"><ele>858.0</ele><time>2026-05-02T11:33:19.001Z</time></trkpt><trkpt lat="42.05084038881375" lon="13.650626653339398"><ele>858.0</ele><time>2026-05-02T11:33:20.001Z</time></trkpt><trkpt lat="42.050819109181425" lon="13.650523691021668"><ele>858.0</ele><time>2026-05-02T11:33:21.001Z</time></trkpt><trkpt lat="42.05081801641445" lon="13.65037001873285"><ele>857.1666666666666</ele><time>2026-05-02T11:33:23.001Z</time></trkpt><trkpt lat="42.05084885946397" lon="13.650290429250846"><ele>856.3333333333333</ele><time>2026-05-02T11:33:24.001Z</time></trkpt><trkpt lat="42.050899623861376" lon="13.650214926845438"><ele>855.5</ele><time>2026-05-02T11:33:25.001Z</time></trkpt><trkpt lat="42.050958068416335" lon="13.650133738502216"><ele>854.6666666666666</ele><time>2026-05-02T11:33:26.001Z</time></trkpt><trkpt lat="42.05101954946648" lon="13.650035564379372"><ele>853.8333333333333</ele><time>2026-05-02T11:33:27.001Z</time></trkpt><trkpt lat="42.05108942702691" lon="13.649932013143907"><ele>853.0</ele><time>2026-05-02T11:33:28.001Z</time></trkpt><trkpt lat="42.051161125302535" lon="13.649821585038984"><ele>853.0</ele><time>2026-05-02T11:33:29.001Z</time></trkpt><trkpt lat="42.05122546524928" lon="13.64972252105014"><ele>853.0</ele><time>2026-05-02T11:33:30.001Z</time></trkpt><trkpt lat="42.05128921333544" lon="13.649632707798668"><ele>853.0</ele><time>2026-05-02T11:33:31.001Z</time></trkpt><trkpt lat="42.05136022185065" lon="13.649531343563154"><ele>853.0</ele><time>2026-05-02T11:33:32.001Z</time></trkpt><trkpt lat="42.05143234401063" lon="13.64941653608999"><ele>853.0</ele><time>2026-05-02T11:33:33.001Z</time></trkpt><trkpt lat="42.05149796765602" lon="13.64928218307716"><ele>852.8</ele><time>2026-05-02T11:33:34.001Z</time></trkpt><trkpt lat="42.05155141381661" lon="13.649140239727082"><ele>852.5999999999999</ele><time>2026-05-02T11:33:35.001Z</time></trkpt><trkpt lat="42.05159107067522" lon="13.648992025208022"><ele>852.4000000000001</ele><time>2026-05-02T11:33:36.001Z</time></trkpt><trkpt lat="42.051620456776114" lon="13.64885586472617"><ele>852.2</ele><time>2026-05-02T11:33:37.001Z</time></trkpt><trkpt lat="42.05165848446781" lon="13.648742490209345"><ele>852.0</ele><time>2026-05-02T11:33:38.001Z</time></trkpt><trkpt lat="42.05171422187576" lon="13.648635314244064"><ele>852.0</ele><time>2026-05-02T11:33:39.001Z</time></trkpt><trkpt lat="42.051782165945085" lon="13.648541035430359"><ele>852.0</ele><time>2026-05-02T11:33:40.001Z</time></trkpt><trkpt lat="42.051859837145756" lon="13.648449494499593"><ele>852.0</ele><time>2026-05-02T11:33:41.001Z</time></trkpt><trkpt lat="42.05194752131452" lon="13.648345750996636"><ele>852.0</ele><time>2026-05-02T11:33:42.001Z</time></trkpt><trkpt lat="42.05204162826991" lon="13.648229384071508"><ele>852.0</ele><time>2026-05-02T11:33:43.001Z</time></trkpt><trkpt lat="42.052139303117684" lon="13.64811772514877"><ele>852.0</ele><time>2026-05-02T11:33:44.001Z</time></trkpt><trkpt lat="42.0522376106514" lon="13.64801613291557"><ele>852.0</ele><time>2026-05-02T11:33:45.001Z</time></trkpt><trkpt lat="42.0523321407386" lon="13.647913898410682"><ele>852.0</ele><time>2026-05-02T11:33:46.001Z</time></trkpt><trkpt lat="42.0524216448054" lon="13.647819481902424"><ele>852.0</ele><time>2026-05-02T11:33:47.001Z</time></trkpt><trkpt lat="42.05251355562611" lon="13.647724494786852"><ele>852.2</ele><time>2026-05-02T11:33:48.001Z</time></trkpt><trkpt lat="42.05259637339868" lon="13.647624917207075"><ele>852.4000000000001</ele><time>2026-05-02T11:33:49.001Z</time></trkpt><trkpt lat="42.052673498570286" lon="13.647508733498217"><ele>852.5999999999999</ele><time>2026-05-02T11:33:50.001Z</time></trkpt><trkpt lat="42.05273828503168" lon="13.647413614365508"><ele>852.8</ele><time>2026-05-02T11:33:51.001Z</time></trkpt><trkpt lat="42.05280302601905" lon="13.647330671223049"><ele>853.0</ele><time>2026-05-02T11:33:52.001Z</time></trkpt><trkpt lat="42.052861684562444" lon="13.647252870733634"><ele>853.0</ele><time>2026-05-02T11:33:53.001Z</time></trkpt><trkpt lat="42.05293041885337" lon="13.647177257492359"><ele>853.0</ele><time>2026-05-02T11:33:54.001Z</time></trkpt><trkpt lat="42.05301711255318" lon="13.647098949131276"><ele>853.0</ele><time>2026-05-02T11:33:55.001Z</time></trkpt><trkpt lat="42.053108877004725" lon="13.647021000030215"><ele>853.0</ele><time>2026-05-02T11:33:56.001Z</time></trkpt><trkpt lat="42.05320195277624" lon="13.646942588133536"><ele>853.0</ele><time>2026-05-02T11:33:57.001Z</time></trkpt><trkpt lat="42.05329105495415" lon="13.646855254354115"><ele>853.5</ele><time>2026-05-02T11:33:58.001Z</time></trkpt><trkpt lat="42.053379178739334" lon="13.646762361501247"><ele>854.0</ele><time>2026-05-02T11:33:59.001Z</time></trkpt><trkpt lat="42.05347169608029" lon="13.646668887353872"><ele>854.5</ele><time>2026-05-02T11:34:00.001Z</time></trkpt><trkpt lat="42.053566267520296" lon="13.646568461083147"><ele>855.0</ele><time>2026-05-02T11:34:01.001Z</time></trkpt><trkpt lat="42.053663357082726" lon="13.64646356903455"><ele>855.0</ele><time>2026-05-02T11:34:02.001Z</time></trkpt><trkpt lat="42.0537497888341" lon="13.646362092718855"><ele>855.0</ele><time>2026-05-02T11:34:03.001Z</time></trkpt><trkpt lat="42.05382604456027" lon="13.646272701949476"><ele>855.0</ele><time>2026-05-02T11:34:04.001Z</time></trkpt><trkpt lat="42.05389141616754" lon="13.646191814302798"><ele>855.0</ele><time>2026-05-02T11:34:05.001Z</time></trkpt><trkpt lat="42.053968132849796" lon="13.646100284176823"><ele>855.0</ele><time>2026-05-02T11:34:06.001Z</time></trkpt><trkpt lat="42.05404248304047" lon="13.646014088311158"><ele>854.6</ele><time>2026-05-02T11:34:07.001Z</time></trkpt><trkpt lat="42.05412051120893" lon="13.645921165041536"><ele>854.2</ele><time>2026-05-02T11:34:08.001Z</time></trkpt><trkpt lat="42.054201811148424" lon="13.645829543908757"><ele>853.8</ele><time>2026-05-02T11:34:09.001Z</time></trkpt><trkpt lat="42.054285980799555" lon="13.64573810069372"><ele>853.4</ele><time>2026-05-02T11:34:10.001Z</time></trkpt><trkpt lat="42.05437155921073" lon="13.645648651541133"><ele>853.0</ele><time>2026-05-02T11:34:11.001Z</time></trkpt><trkpt lat="42.05445315251131" lon="13.645556687966641"><ele>853.0</ele><time>2026-05-02T11:34:12.001Z</time></trkpt><trkpt lat="42.05452995717112" lon="13.645467984108059"><ele>853.0</ele><time>2026-05-02T11:34:13.001Z</time></trkpt><trkpt lat="42.05460340581876" lon="13.645374671352792"><ele>853.0</ele><time>2026-05-02T11:34:14.001Z</time></trkpt><trkpt lat="42.054676507580446" lon="13.645267813398664"><ele>853.0</ele><time>2026-05-02T11:34:15.001Z</time></trkpt><trkpt lat="42.05474272076779" lon="13.645168744723938"><ele>853.0</ele><time>2026-05-02T11:34:16.001Z</time></trkpt><trkpt lat="42.054798859694074" lon="13.645069582683485"><ele>853.1666666666666</ele><time>2026-05-02T11:34:17.001Z</time></trkpt><trkpt lat="42.05484803903877" lon="13.64496966430883"><ele>853.3333333333333</ele><time>2026-05-02T11:34:18.001Z</time></trkpt><trkpt lat="42.054887473299644" lon="13.644869875597326"><ele>853.5</ele><time>2026-05-02T11:34:19.001Z</time></trkpt><trkpt lat="42.05492170240512" lon="13.644759097271121"><ele>853.6666666666667</ele><time>2026-05-02T11:34:20.001Z</time></trkpt><trkpt lat="42.0549472908066" lon="13.644651582161808"><ele>853.8333333333334</ele><time>2026-05-02T11:34:21.001Z</time></trkpt><trkpt lat="42.054968113797074" lon="13.644539469605663"><ele>854.0</ele><time>2026-05-02T11:34:22.001Z</time></trkpt><trkpt lat="42.05498797011125" lon="13.644426780720554"><ele>853.5000000000001</ele><time>2026-05-02T11:34:23.001Z</time></trkpt><trkpt lat="42.05500194747328" lon="13.64431994715836"><ele>853.0</ele><time>2026-05-02T11:34:24Z</time></trkpt><trkpt lat="42.055016055170235" lon="13.644218580271858"><ele>852.5</ele><time>2026-05-02T11:34:25Z</time></trkpt><trkpt lat="42.05504441278916" lon="13.644135100261646"><ele>852.0</ele><time>2026-05-02T11:34:26Z</time></trkpt><trkpt lat="42.05508203912654" lon="13.64405460321972"><ele>851.5000000000001</ele><time>2026-05-02T11:34:27Z</time></trkpt><trkpt lat="42.055124645490686" lon="13.643971031569901"><ele>851.0</ele><time>2026-05-02T11:34:28Z</time></trkpt><trkpt lat="42.055160975700424" lon="13.643862947918649"><ele>851.0</ele><time>2026-05-02T11:34:29Z</time></trkpt><trkpt lat="42.055191016319185" lon="13.64373293165988"><ele>851.0</ele><time>2026-05-02T11:34:30Z</time></trkpt><trkpt lat="42.055220198953464" lon="13.64358763235294"><ele>851.0</ele><time>2026-05-02T11:34:31Z</time></trkpt><trkpt lat="42.05525164851565" lon="13.643422587328219"><ele>851.0</ele><time>2026-05-02T11:34:32Z</time></trkpt><trkpt lat="42.05527620176315" lon="13.643265205604495"><ele>851.0000000000001</ele><time>2026-05-02T11:34:33Z</time></trkpt><trkpt lat="42.055296404939" lon="13.643137661183607"><ele>851.0</ele><time>2026-05-02T11:34:34Z</time></trkpt><trkpt lat="42.05531760686831" lon="13.643025367081705"><ele>851.0</ele><time>2026-05-02T11:34:35Z</time></trkpt><trkpt lat="42.055345699534" lon="13.64292262523205"><ele>851.0</ele><time>2026-05-02T11:34:36Z</time></trkpt><trkpt lat="42.05537837160069" lon="13.642817768058547"><ele>851.0000000000001</ele><time>2026-05-02T11:34:37Z</time></trkpt><trkpt lat="42.05542351032287" lon="13.642707133736916"><ele>851.0</ele><time>2026-05-02T11:34:38Z</time></trkpt><trkpt lat="42.05546821437449" lon="13.642603182048227"><ele>851.0000000000001</ele><time>2026-05-02T11:34:39Z</time></trkpt><trkpt lat="42.055504476955626" lon="13.642514493473417"><ele>851.0</ele><time>2026-05-02T11:34:40Z</time></trkpt><trkpt lat="42.05553208853096" lon="13.642438120625929"><ele>851.0</ele><time>2026-05-02T11:34:41Z</time></trkpt><trkpt lat="42.05561024651007" lon="13.642299370766876"><ele>851.0</ele><time>2026-05-02T11:34:43Z</time></trkpt><trkpt lat="42.0556732086118" lon="13.642246994864248"><ele>851.0000000000001</ele><time>2026-05-02T11:34:44Z</time></trkpt><trkpt lat="42.05574907289999" lon="13.642207532683177"><ele>851.0</ele><time>2026-05-02T11:34:45Z</time></trkpt><trkpt lat="42.05583937737365" lon="13.642170194335229"><ele>851.4</ele><time>2026-05-02T11:34:46Z</time></trkpt><trkpt lat="42.05594889589823" lon="13.642123512560145"><ele>851.8</ele><time>2026-05-02T11:34:47Z</time></trkpt><trkpt lat="42.05605889787449" lon="13.64208620786558"><ele>852.1999999999999</ele><time>2026-05-02T11:34:48Z</time></trkpt><trkpt lat="42.056160949867404" lon="13.6420506269213"><ele>852.5999999999999</ele><time>2026-05-02T11:34:49Z</time></trkpt><trkpt lat="42.05624259653587" lon="13.642004560586576"><ele>853.0</ele><time>2026-05-02T11:34:50Z</time></trkpt><trkpt lat="42.05634441661108" lon="13.641946782472397"><ele>853.0</ele><time>2026-05-02T11:34:51Z</time></trkpt><trkpt lat="42.05645131517582" lon="13.641896310964679"><ele>853.0</ele><time>2026-05-02T11:34:52Z</time></trkpt><trkpt lat="42.05656443189933" lon="13.641853673133651"><ele>853.0</ele><time>2026-05-02T11:34:53Z</time></trkpt><trkpt lat="42.05667963345952" lon="13.641810255318143"><ele>853.0</ele><time>2026-05-02T11:34:54Z</time></trkpt><trkpt lat="42.05678957013118" lon="13.64176758245492"><ele>853.0</ele><time>2026-05-02T11:34:55Z</time></trkpt><trkpt lat="42.056882023071076" lon="13.641731185658339"><ele>853.0</ele><time>2026-05-02T11:34:56Z</time></trkpt><trkpt lat="42.056967627591575" lon="13.641704732700902"><ele>853.0</ele><time>2026-05-02T11:34:57Z</time></trkpt><trkpt lat="42.05706096246539" lon="13.641703259927075"><ele>853.0</ele><time>2026-05-02T11:34:58Z</time></trkpt><trkpt lat="42.057156839914896" lon="13.641733453298594"><ele>853.0</ele><time>2026-05-02T11:34:59Z</time></trkpt><trkpt lat="42.05726483507975" lon="13.641766884065397"><ele>853.0</ele><time>2026-05-02T11:35:00Z</time></trkpt><trkpt lat="42.05737938964132" lon="13.64177419383882"><ele>853.0</ele><time>2026-05-02T11:35:01Z</time></trkpt><trkpt lat="42.05749734427867" lon="13.641772902831196"><ele>853.0</ele><time>2026-05-02T11:35:02Z</time></trkpt><trkpt lat="42.057606884455964" lon="13.641758765495934"><ele>853.0</ele><time>2026-05-02T11:35:03Z</time></trkpt><trkpt lat="42.057710975744726" lon="13.641729853679035"><ele>853.0</ele><time>2026-05-02T11:35:04Z</time></trkpt><trkpt lat="42.05781006619619" lon="13.641679589791952"><ele>853.4</ele><time>2026-05-02T11:35:05Z</time></trkpt><trkpt lat="42.05791119468892" lon="13.64161587205823"><ele>853.8</ele><time>2026-05-02T11:35:06Z</time></trkpt><trkpt lat="42.05801963606867" lon="13.641551821657568"><ele>854.2</ele><time>2026-05-02T11:35:07Z</time></trkpt><trkpt lat="42.05812586532457" lon="13.64150390442732"><ele>854.6</ele><time>2026-05-02T11:35:08Z</time></trkpt><trkpt lat="42.05822598613366" lon="13.64146142632939"><ele>855.0</ele><time>2026-05-02T11:35:09Z</time></trkpt><trkpt lat="42.05830931495096" lon="13.64141703297518"><ele>855.3333333333334</ele><time>2026-05-02T11:35:10Z</time></trkpt><trkpt lat="42.05839545917124" lon="13.641383933289731"><ele>855.6666666666667</ele><time>2026-05-02T11:35:11Z</time></trkpt><trkpt lat="42.0584869346014" lon="13.641360713954528"><ele>856.0</ele><time>2026-05-02T11:35:12Z</time></trkpt><trkpt lat="42.05857087035144" lon="13.641311874565215"><ele>856.3333333333334</ele><time>2026-05-02T11:35:13Z</time></trkpt><trkpt lat="42.058643843058086" lon="13.641256211278039"><ele>856.6666666666667</ele><time>2026-05-02T11:35:14Z</time></trkpt><trkpt lat="42.058723758238195" lon="13.6412159390884"><ele>857.0</ele><time>2026-05-02T11:35:15Z</time></trkpt><trkpt lat="42.058811845409316" lon="13.641199755825722"><ele>857.0</ele><time>2026-05-02T11:35:16Z</time></trkpt><trkpt lat="42.058912075363025" lon="13.641188294183616"><ele>857.0</ele><time>2026-05-02T11:35:17Z</time></trkpt><trkpt lat="42.05901792134335" lon="13.641178290526005"><ele>857.0</ele><time>2026-05-02T11:35:18Z</time></trkpt><trkpt lat="42.05912400710744" lon="13.641174446021768"><ele>857.0</ele><time>2026-05-02T11:35:19Z</time></trkpt><trkpt lat="42.059230942782115" lon="13.641182186011225"><ele>857.0</ele><time>2026-05-02T11:35:20Z</time></trkpt><trkpt lat="42.059334505084145" lon="13.641187899079311"><ele>857.5</ele><time>2026-05-02T11:35:21Z</time></trkpt><trkpt lat="42.05943767216342" lon="13.64117427071379"><ele>858.0</ele><time>2026-05-02T11:35:22Z</time></trkpt><trkpt lat="42.059552210531784" lon="13.641159130798743"><ele>858.5</ele><time>2026-05-02T11:35:23Z</time></trkpt><trkpt lat="42.05967567902948" lon="13.641147035523453"><ele>859.0</ele><time>2026-05-02T11:35:24Z</time></trkpt><trkpt lat="42.05980358913822" lon="13.641130407156563"><ele>859.25</ele><time>2026-05-02T11:35:25Z</time></trkpt><trkpt lat="42.059923820061435" lon="13.64113067693026"><ele>859.5</ele><time>2026-05-02T11:35:26Z</time></trkpt><trkpt lat="42.06004059552215" lon="13.64114449352314"><ele>859.75</ele><time>2026-05-02T11:35:27Z</time></trkpt><trkpt lat="42.06015004448439" lon="13.641167257355539"><ele>860.0</ele><time>2026-05-02T11:35:28Z</time></trkpt><trkpt lat="42.060260932867344" lon="13.64119428400616"><ele>860.0</ele><time>2026-05-02T11:35:29Z</time></trkpt><trkpt lat="42.06037217936608" lon="13.641214007669662"><ele>860.0</ele><time>2026-05-02T11:35:30Z</time></trkpt><trkpt lat="42.06049721126762" lon="13.641216528071975"><ele>860.0</ele><time>2026-05-02T11:35:31Z</time></trkpt><trkpt lat="42.06063295788788" lon="13.641211918762151"><ele>860.0</ele><time>2026-05-02T11:35:32Z</time></trkpt><trkpt lat="42.060767033190096" lon="13.641194616282919"><ele>860.0</ele><time>2026-05-02T11:35:33Z</time></trkpt><trkpt lat="42.06089728433318" lon="13.64117223518082"><ele>860.0</ele><time>2026-05-02T11:35:34Z</time></trkpt><trkpt lat="42.06101693581583" lon="13.641149665884532"><ele>860.0</ele><time>2026-05-02T11:35:35Z</time></trkpt><trkpt lat="42.061133059698264" lon="13.641120485872207"><ele>860.0</ele><time>2026-05-02T11:35:36Z</time></trkpt><trkpt lat="42.061246840120035" lon="13.641085126349358"><ele>860.0</ele><time>2026-05-02T11:35:37Z</time></trkpt><trkpt lat="42.06134371796145" lon="13.64104987662671"><ele>860.0</ele><time>2026-05-02T11:35:38Z</time></trkpt><trkpt lat="42.06144156773634" lon="13.641014511033356"><ele>860.0</ele><time>2026-05-02T11:35:39Z</time></trkpt><trkpt lat="42.06154523935608" lon="13.64098333888405"><ele>860.0</ele><time>2026-05-02T11:35:40Z</time></trkpt><trkpt lat="42.06164851993864" lon="13.640940522850887"><ele>860.0</ele><time>2026-05-02T11:35:41Z</time></trkpt><trkpt lat="42.0617431240196" lon="13.64087832590764"><ele>861.75</ele><time>2026-05-02T11:35:42Z</time></trkpt><trkpt lat="42.06184190667338" lon="13.64079842914616"><ele>863.5</ele><time>2026-05-02T11:35:43Z</time></trkpt><trkpt lat="42.06195038149776" lon="13.640704426161072"><ele>865.25</ele><time>2026-05-02T11:35:44Z</time></trkpt><trkpt lat="42.062056363208214" lon="13.6405995517512"><ele>867.0</ele><time>2026-05-02T11:35:45Z</time></trkpt><trkpt lat="42.06215833769163" lon="13.640492237915884"><ele>867.0</ele><time>2026-05-02T11:35:46Z</time></trkpt><trkpt lat="42.06224978330199" lon="13.640392289326822"><ele>867.0</ele><time>2026-05-02T11:35:47Z</time></trkpt><trkpt lat="42.0623310100003" lon="13.640296834606575"><ele>867.0</ele><time>2026-05-02T11:35:48Z</time></trkpt><trkpt lat="42.0624055798764" lon="13.640199104937535"><ele>867.0</ele><time>2026-05-02T11:35:49Z</time></trkpt><trkpt lat="42.06247755850649" lon="13.640107575931824"><ele>867.0</ele><time>2026-05-02T11:35:50Z</time></trkpt><trkpt lat="42.062551976425745" lon="13.640015362467372"><ele>867.0</ele><time>2026-05-02T11:35:51Z</time></trkpt><trkpt lat="42.06263248001777" lon="13.63992102687125"><ele>867.0</ele><time>2026-05-02T11:35:52Z</time></trkpt><trkpt lat="42.062720956418815" lon="13.63984386902362"><ele>867.0</ele><time>2026-05-02T11:35:53Z</time></trkpt><trkpt lat="42.062824117550655" lon="13.639770084828337"><ele>867.0</ele><time>2026-05-02T11:35:54Z</time></trkpt><trkpt lat="42.062926966665216" lon="13.639695292258448"><ele>867.0</ele><time>2026-05-02T11:35:55Z</time></trkpt><trkpt lat="42.06304510464164" lon="13.639611442619247"><ele>867.0</ele><time>2026-05-02T11:35:56Z</time></trkpt><trkpt lat="42.063157567140046" lon="13.639534510162498"><ele>867.0</ele><time>2026-05-02T11:35:57Z</time></trkpt><trkpt lat="42.063259132404355" lon="13.639457550887121"><ele>867.0</ele><time>2026-05-02T11:35:58Z</time></trkpt><trkpt lat="42.063359775598826" lon="13.639379962049178"><ele>867.0</ele><time>2026-05-02T11:35:59Z</time></trkpt><trkpt lat="42.06346093860604" lon="13.639304934119423"><ele>866.6</ele><time>2026-05-02T11:36:00Z</time></trkpt><trkpt lat="42.06356159984633" lon="13.639225288425518"><ele>866.2</ele><time>2026-05-02T11:36:01Z</time></trkpt><trkpt lat="42.063658546760585" lon="13.639145922450107"><ele>865.8</ele><time>2026-05-02T11:36:02Z</time></trkpt><trkpt lat="42.06375116171816" lon="13.639066333029389"><ele>865.4</ele><time>2026-05-02T11:36:03Z</time></trkpt><trkpt lat="42.06383483991516" lon="13.638973289447987"><ele>865.0</ele><time>2026-05-02T11:36:04Z</time></trkpt><trkpt lat="42.063923503644915" lon="13.638883783826362"><ele>865.0</ele><time>2026-05-02T11:36:05Z</time></trkpt><trkpt lat="42.06401767250944" lon="13.63880114457134"><ele>865.0</ele><time>2026-05-02T11:36:06Z</time></trkpt><trkpt lat="42.06411005539417" lon="13.638721182881937"><ele>865.0</ele><time>2026-05-02T11:36:07Z</time></trkpt><trkpt lat="42.064197736608435" lon="13.638638662048779"><ele>865.0</ele><time>2026-05-02T11:36:08Z</time></trkpt><trkpt lat="42.06426939601354" lon="13.638562541610519"><ele>865.0</ele><time>2026-05-02T11:36:09Z</time></trkpt><trkpt lat="42.06434529195626" lon="13.638490033645112"><ele>864.75</ele><time>2026-05-02T11:36:10Z</time></trkpt><trkpt lat="42.06442928653236" lon="13.638412472783989"><ele>864.5</ele><time>2026-05-02T11:36:11Z</time></trkpt><trkpt lat="42.06452130822175" lon="13.638326538929036"><ele>864.25</ele><time>2026-05-02T11:36:12Z</time></trkpt><trkpt lat="42.06462124428217" lon="13.638236197949633"><ele>864.0</ele><time>2026-05-02T11:36:13Z</time></trkpt><trkpt lat="42.06472007876338" lon="13.63813114127601"><ele>864.0</ele><time>2026-05-02T11:36:14Z</time></trkpt><trkpt lat="42.06482041593069" lon="13.638016222467396"><ele>864.0</ele><time>2026-05-02T11:36:15Z</time></trkpt><trkpt lat="42.06492667111152" lon="13.637895002142972"><ele>864.0</ele><time>2026-05-02T11:36:16Z</time></trkpt><trkpt lat="42.065029858825184" lon="13.637779456048639"><ele>864.0</ele><time>2026-05-02T11:36:17Z</time></trkpt><trkpt lat="42.0651201533746" lon="13.637679107568848"><ele>864.2</ele><time>2026-05-02T11:36:18Z</time></trkpt><trkpt lat="42.0652009914519" lon="13.637583366837937"><ele>864.4000000000001</ele><time>2026-05-02T11:36:19Z</time></trkpt><trkpt lat="42.065279138794715" lon="13.637485065235246"><ele>864.6</ele><time>2026-05-02T11:36:20Z</time></trkpt><trkpt lat="42.065361906095525" lon="13.63738601847399"><ele>864.8</ele><time>2026-05-02T11:36:21Z</time></trkpt><trkpt lat="42.06544662591143" lon="13.63729090678707"><ele>865.0</ele><time>2026-05-02T11:36:22Z</time></trkpt><trkpt lat="42.06553641176405" lon="13.637207648523257"><ele>865.0</ele><time>2026-05-02T11:36:23Z</time></trkpt><trkpt lat="42.065630023997805" lon="13.637137493827488"><ele>865.0</ele><time>2026-05-02T11:36:24Z</time></trkpt><trkpt lat="42.065716665017014" lon="13.63707840767175"><ele>865.0</ele><time>2026-05-02T11:36:25Z</time></trkpt><trkpt lat="42.065796394159996" lon="13.637031701355733"><ele>865.0</ele><time>2026-05-02T11:36:26Z</time></trkpt><trkpt lat="42.06588067658403" lon="13.636967925598995"><ele>865.0</ele><time>2026-05-02T11:36:27Z</time></trkpt><trkpt lat="42.06596879276516" lon="13.636880252158244"><ele>865.25</ele><time>2026-05-02T11:36:28Z</time></trkpt><trkpt lat="42.066075037218354" lon="13.636786863423813"><ele>865.5</ele><time>2026-05-02T11:36:29Z</time></trkpt><trkpt lat="42.066193523609186" lon="13.63669787265445"><ele>865.75</ele><time>2026-05-02T11:36:30Z</time></trkpt><trkpt lat="42.066321965642736" lon="13.636597401833233"><ele>866.0</ele><time>2026-05-02T11:36:31Z</time></trkpt><trkpt lat="42.066446963731124" lon="13.636499064461923"><ele>866.0</ele><time>2026-05-02T11:36:32Z</time></trkpt><trkpt lat="42.06656594206938" lon="13.636400728132116"><ele>866.0</ele><time>2026-05-02T11:36:33Z</time></trkpt><trkpt lat="42.06668070204895" lon="13.636303044020687"><ele>866.0</ele><time>2026-05-02T11:36:34Z</time></trkpt><trkpt lat="42.06677770154746" lon="13.636221079368594"><ele>866.0</ele><time>2026-05-02T11:36:35Z</time></trkpt><trkpt lat="42.066868635887964" lon="13.636143009210898"><ele>867.0</ele><time>2026-05-02T11:36:36Z</time></trkpt><trkpt lat="42.066952617703" lon="13.63606710365548"><ele>867.9999999999999</ele><time>2026-05-02T11:36:37Z</time></trkpt><trkpt lat="42.06702436589748" lon="13.636001771083269"><ele>868.9999999999999</ele><time>2026-05-02T11:36:38Z</time></trkpt><trkpt lat="42.06708865359556" lon="13.635943665136619"><ele>870.0</ele><time>2026-05-02T11:36:39Z</time></trkpt><trkpt lat="42.06719299381344" lon="13.635862694989571"><ele>871.0</ele><time>2026-05-02T11:36:41Z</time></trkpt><trkpt lat="42.0672600626064" lon="13.635846638767735"><ele>870.9999999999999</ele><time>2026-05-02T11:36:42Z</time></trkpt><trkpt lat="42.06733317234868" lon="13.63584487340547"><ele>871.0</ele><time>2026-05-02T11:36:43Z</time></trkpt><trkpt lat="42.06741267393783" lon="13.635837489388202"><ele>871.0</ele><time>2026-05-02T11:36:44Z</time></trkpt><trkpt lat="42.06749597906965" lon="13.635799923025159"><ele>871.0</ele><time>2026-05-02T11:36:45Z</time></trkpt><trkpt lat="42.06757337413958" lon="13.635741084919976"><ele>870.9999999999999</ele><time>2026-05-02T11:36:46Z</time></trkpt><trkpt lat="42.06766159044137" lon="13.63566114428738"><ele>871.0</ele><time>2026-05-02T11:36:47Z</time></trkpt><trkpt lat="42.067752179765826" lon="13.635569066273904"><ele>872.25</ele><time>2026-05-02T11:36:48Z</time></trkpt><trkpt lat="42.06784773941803" lon="13.635472276004656"><ele>873.5</ele><time>2026-05-02T11:36:49Z</time></trkpt><trkpt lat="42.067955189760674" lon="13.635372696438854"><ele>874.75</ele><time>2026-05-02T11:36:50Z</time></trkpt><trkpt lat="42.06806662986507" lon="13.635271335931009"><ele>876.0</ele><time>2026-05-02T11:36:51Z</time></trkpt><trkpt lat="42.06816714116287" lon="13.635163834410784"><ele>876.0</ele><time>2026-05-02T11:36:52Z</time></trkpt><trkpt lat="42.06826239487769" lon="13.635054940234308"><ele>876.0</ele><time>2026-05-02T11:36:53Z</time></trkpt><trkpt lat="42.06835404108387" lon="13.63495546261971"><ele>876.0</ele><time>2026-05-02T11:36:54Z</time></trkpt><trkpt lat="42.06843805283298" lon="13.634869045280514"><ele>876.0</ele><time>2026-05-02T11:36:55Z</time></trkpt><trkpt lat="42.068523861054935" lon="13.634782090603085"><ele>877.1999999999999</ele><time>2026-05-02T11:36:56Z</time></trkpt><trkpt lat="42.06860132874355" lon="13.634697487433488"><ele>878.3999999999999</ele><time>2026-05-02T11:36:57Z</time></trkpt><trkpt lat="42.06867517270452" lon="13.634600025052936"><ele>879.6</ele><time>2026-05-02T11:36:58Z</time></trkpt><trkpt lat="42.068758204507866" lon="13.634499187587055"><ele>880.8</ele><time>2026-05-02T11:36:59Z</time></trkpt><trkpt lat="42.06884344237296" lon="13.634401873589207"><ele>882.0</ele><time>2026-05-02T11:37:00Z</time></trkpt><trkpt lat="42.06892737378823" lon="13.634309285654385"><ele>882.0</ele><time>2026-05-02T11:37:01Z</time></trkpt><trkpt lat="42.068998089677294" lon="13.634233072347941"><ele>882.0</ele><time>2026-05-02T11:37:02Z</time></trkpt><trkpt lat="42.06905943963389" lon="13.634160403557425"><ele>882.0</ele><time>2026-05-02T11:37:03Z</time></trkpt><trkpt lat="42.069108536128574" lon="13.634092221124405"><ele>882.0</ele><time>2026-05-02T11:37:04Z</time></trkpt><trkpt lat="42.06914471667807" lon="13.634019270073319"><ele>882.0</ele><time>2026-05-02T11:37:05Z</time></trkpt><trkpt lat="42.069220527234705" lon="13.633895796667835"><ele>882.0</ele><time>2026-05-02T11:37:07Z</time></trkpt><trkpt lat="42.06933393209446" lon="13.63382636655044"><ele>883.2</ele><time>2026-05-02T11:37:09Z</time></trkpt><trkpt lat="42.069398186531" lon="13.63382400034499"><ele>884.4000000000001</ele><time>2026-05-02T11:37:10Z</time></trkpt><trkpt lat="42.069504861913494" lon="13.633881152116647"><ele>885.5999999999999</ele><time>2026-05-02T11:37:12Z</time></trkpt><trkpt lat="42.06958148479943" lon="13.63394212247196"><ele>886.8</ele><time>2026-05-02T11:37:14Z</time></trkpt><trkpt lat="42.06964077218506" lon="13.634000736198038"><ele>888.0</ele><time>2026-05-02T11:37:16Z</time></trkpt><trkpt lat="42.069669940633766" lon="13.63416439771214"><ele>888.0</ele><time>2026-05-02T11:37:18Z</time></trkpt><trkpt lat="42.06969424180235" lon="13.634316799852641"><ele>888.0</ele><time>2026-05-02T11:37:20Z</time></trkpt><trkpt lat="42.069737496668935" lon="13.634404501627614"><ele>888.0</ele><time>2026-05-02T11:37:21Z</time></trkpt><trkpt lat="42.0697951912761" lon="13.63451898200425"><ele>888.0</ele><time>2026-05-02T11:37:22Z</time></trkpt><trkpt lat="42.06987403481758" lon="13.634664144340737"><ele>888.0</ele><time>2026-05-02T11:37:23Z</time></trkpt><trkpt lat="42.06994903995759" lon="13.63479332605799"><ele>888.25</ele><time>2026-05-02T11:37:24Z</time></trkpt><trkpt lat="42.07003090030161" lon="13.634937428248287"><ele>888.5</ele><time>2026-05-02T11:37:25Z</time></trkpt><trkpt lat="42.07011307303403" lon="13.635087675971388"><ele>888.75</ele><time>2026-05-02T11:37:26Z</time></trkpt><trkpt lat="42.070202353837885" lon="13.635242532609658"><ele>889.0</ele><time>2026-05-02T11:37:27Z</time></trkpt><trkpt lat="42.0702972585107" lon="13.635399501141864"><ele>893.0</ele><time>2026-05-02T11:37:28Z</time></trkpt><trkpt lat="42.07038763549529" lon="13.635553848040045"><ele>897.0</ele><time>2026-05-02T11:37:29Z</time></trkpt><trkpt lat="42.07047827462001" lon="13.63571114800622"><ele>901.0</ele><time>2026-05-02T11:37:30Z</time></trkpt><trkpt lat="42.07056821268882" lon="13.635872168283795"><ele>905.0</ele><time>2026-05-02T11:37:31Z</time></trkpt><trkpt lat="42.070655504339804" lon="13.63604124508773"><ele>905.0</ele><time>2026-05-02T11:37:32Z</time></trkpt><trkpt lat="42.07074072943117" lon="13.636210783496155"><ele>905.0</ele><time>2026-05-02T11:37:33Z</time></trkpt><trkpt lat="42.07083139327842" lon="13.636371735676699"><ele>905.0</ele><time>2026-05-02T11:37:34Z</time></trkpt><trkpt lat="42.070932431560706" lon="13.636523487353179"><ele>905.0</ele><time>2026-05-02T11:37:35Z</time></trkpt><trkpt lat="42.07104816936239" lon="13.63665904433985"><ele>905.0</ele><time>2026-05-02T11:37:36Z</time></trkpt><trkpt lat="42.071171928133914" lon="13.636777971518365"><ele>905.0</ele><time>2026-05-02T11:37:37Z</time></trkpt><trkpt lat="42.071290754162845" lon="13.636897013326694"><ele>904.5</ele><time>2026-05-02T11:37:38Z</time></trkpt><trkpt lat="42.07139933029747" lon="13.637029494971337"><ele>904.0</ele><time>2026-05-02T11:37:39Z</time></trkpt><trkpt lat="42.07150464346023" lon="13.637169288202102"><ele>903.5</ele><time>2026-05-02T11:37:40Z</time></trkpt><trkpt lat="42.07161254832402" lon="13.637308826453134"><ele>903.0</ele><time>2026-05-02T11:37:41Z</time></trkpt><trkpt lat="42.07172833535113" lon="13.637443035654298"><ele>903.0</ele><time>2026-05-02T11:37:42Z</time></trkpt><trkpt lat="42.07185333045999" lon="13.637560148794792"><ele>903.0</ele><time>2026-05-02T11:37:43Z</time></trkpt><trkpt lat="42.071984700622515" lon="13.637671275747936"><ele>903.0</ele><time>2026-05-02T11:37:44Z</time></trkpt><trkpt lat="42.07211991319379" lon="13.637780014764012"><ele>905.3333333333333</ele><time>2026-05-02T11:37:45Z</time></trkpt><trkpt lat="42.07225621669846" lon="13.637871207450546"><ele>907.6666666666666</ele><time>2026-05-02T11:37:46Z</time></trkpt><trkpt lat="42.072395664448734" lon="13.63794815214054"><ele>910.0</ele><time>2026-05-02T11:37:47Z</time></trkpt><trkpt lat="42.07253561772723" lon="13.638021866772917"><ele>910.0</ele><time>2026-05-02T11:37:48Z</time></trkpt><trkpt lat="42.07267101248654" lon="13.638091947570588"><ele>910.0</ele><time>2026-05-02T11:37:49Z</time></trkpt><trkpt lat="42.072796376620445" lon="13.638165730439498"><ele>910.0</ele><time>2026-05-02T11:37:50Z</time></trkpt><trkpt lat="42.07290762328959" lon="13.638242424975846"><ele>910.0</ele><time>2026-05-02T11:37:51Z</time></trkpt><trkpt lat="42.07301071753976" lon="13.638334330480204"><ele>910.0</ele><time>2026-05-02T11:37:52Z</time></trkpt><trkpt lat="42.07310711307272" lon="13.638451553531493"><ele>910.0</ele><time>2026-05-02T11:37:53Z</time></trkpt><trkpt lat="42.0731945916962" lon="13.638592966830052"><ele>910.0</ele><time>2026-05-02T11:37:54Z</time></trkpt><trkpt lat="42.07328309921773" lon="13.638747251345386"><ele>910.0</ele><time>2026-05-02T11:37:55Z</time></trkpt><trkpt lat="42.07338209431308" lon="13.638908323011037"><ele>912.3333333333333</ele><time>2026-05-02T11:37:56Z</time></trkpt><trkpt lat="42.073490271793126" lon="13.639073666607139"><ele>914.6666666666667</ele><time>2026-05-02T11:37:57Z</time></trkpt><trkpt lat="42.073609684910735" lon="13.639235931497645"><ele>917.0</ele><time>2026-05-02T11:37:58Z</time></trkpt><trkpt lat="42.07373604425653" lon="13.639393501744369"><ele>918.6666666666667</ele><time>2026-05-02T11:37:59Z</time></trkpt><trkpt lat="42.07387015972794" lon="13.639543984294713"><ele>920.3333333333333</ele><time>2026-05-02T11:38:00Z</time></trkpt><trkpt lat="42.074006662321025" lon="13.639686194139104"><ele>922.0</ele><time>2026-05-02T11:38:01Z</time></trkpt><trkpt lat="42.07414131794194" lon="13.639828594615853"><ele>922.0</ele><time>2026-05-02T11:38:02Z</time></trkpt><trkpt lat="42.074273538102" lon="13.63997425521469"><ele>922.0</ele><time>2026-05-02T11:38:03Z</time></trkpt><trkpt lat="42.07440110982132" lon="13.640120623413672"><ele>922.0</ele><time>2026-05-02T11:38:04Z</time></trkpt><trkpt lat="42.07452311586324" lon="13.640270722384528"><ele>929.6666666666666</ele><time>2026-05-02T11:38:05Z</time></trkpt><trkpt lat="42.074640150100855" lon="13.640423963735632"><ele>937.3333333333333</ele><time>2026-05-02T11:38:06Z</time></trkpt><trkpt lat="42.07475421604206" lon="13.640578912560889"><ele>945.0</ele><time>2026-05-02T11:38:07Z</time></trkpt><trkpt lat="42.074865897251925" lon="13.64073753013516"><ele>942.0</ele><time>2026-05-02T11:38:08Z</time></trkpt><trkpt lat="42.07497767010619" lon="13.640901585905118"><ele>939.0</ele><time>2026-05-02T11:38:09Z</time></trkpt><trkpt lat="42.07508811756002" lon="13.641065699206539"><ele>936.0</ele><time>2026-05-02T11:38:10Z</time></trkpt><trkpt lat="42.075196594985016" lon="13.64123246933129"><ele>936.0</ele><time>2026-05-02T11:38:11Z</time></trkpt><trkpt lat="42.075303244064045" lon="13.641401035539905"><ele>936.0</ele><time>2026-05-02T11:38:12Z</time></trkpt><trkpt lat="42.075408407011366" lon="13.64156864058187"><ele>936.0</ele><time>2026-05-02T11:38:13Z</time></trkpt><trkpt lat="42.075516065704605" lon="13.641732173484808"><ele>936.0</ele><time>2026-05-02T11:38:14Z</time></trkpt><trkpt lat="42.07562973907857" lon="13.641884848477572"><ele>936.0</ele><time>2026-05-02T11:38:15Z</time></trkpt><trkpt lat="42.07575194360967" lon="13.642026818268635"><ele>936.0</ele><time>2026-05-02T11:38:16Z</time></trkpt><trkpt lat="42.07587670743378" lon="13.64216530641336"><ele>936.0</ele><time>2026-05-02T11:38:17Z</time></trkpt><trkpt lat="42.075999743035496" lon="13.64230068241217"><ele>936.0</ele><time>2026-05-02T11:38:18Z</time></trkpt><trkpt lat="42.07612142308735" lon="13.642437815008936"><ele>936.0</ele><time>2026-05-02T11:38:19Z</time></trkpt><trkpt lat="42.076240509176046" lon="13.642574166994292"><ele>936.0</ele><time>2026-05-02T11:38:20Z</time></trkpt><trkpt lat="42.076356580733965" lon="13.642712298495368"><ele>936.0</ele><time>2026-05-02T11:38:21Z</time></trkpt><trkpt lat="42.076467870105034" lon="13.642854043064737"><ele>936.0</ele><time>2026-05-02T11:38:22Z</time></trkpt><trkpt lat="42.07657719206699" lon="13.643000538909956"><ele>938.0</ele><time>2026-05-02T11:38:23Z</time></trkpt><trkpt lat="42.07668310965027" lon="13.643147945743667"><ele>940.0</ele><time>2026-05-02T11:38:24Z</time></trkpt><trkpt lat="42.0767864967479" lon="13.643300454111639"><ele>942.0</ele><time>2026-05-02T11:38:25Z</time></trkpt><trkpt lat="42.07688866540168" lon="13.643455473001952"><ele>942.0</ele><time>2026-05-02T11:38:26Z</time></trkpt><trkpt lat="42.076991505166724" lon="13.643608489174767"><ele>942.0</ele><time>2026-05-02T11:38:27Z</time></trkpt><trkpt lat="42.07709986907049" lon="13.643757386245198"><ele>942.0</ele><time>2026-05-02T11:38:28Z</time></trkpt><trkpt lat="42.0772119129443" lon="13.6438984612048"><ele>944.3333333333333</ele><time>2026-05-02T11:38:29Z</time></trkpt><trkpt lat="42.07732721610753" lon="13.644032524410795"><ele>946.6666666666666</ele><time>2026-05-02T11:38:30Z</time></trkpt><trkpt lat="42.07744534368369" lon="13.644157784210057"><ele>949.0</ele><time>2026-05-02T11:38:31Z</time></trkpt><trkpt lat="42.07756713180969" lon="13.644277181017923"><ele>949.0</ele><time>2026-05-02T11:38:32Z</time></trkpt><trkpt lat="42.077687876064445" lon="13.644392788307409"><ele>949.0</ele><time>2026-05-02T11:38:33Z</time></trkpt><trkpt lat="42.077802537397694" lon="13.64451670475265"><ele>949.0</ele><time>2026-05-02T11:38:34Z</time></trkpt><trkpt lat="42.07790017055736" lon="13.644667150930736"><ele>949.0</ele><time>2026-05-02T11:38:35Z</time></trkpt><trkpt lat="42.07798809109308" lon="13.644843528783781"><ele>952.6666666666666</ele><time>2026-05-02T11:38:36Z</time></trkpt><trkpt lat="42.07808302144852" lon="13.645029273763045"><ele>956.3333333333333</ele><time>2026-05-02T11:38:37Z</time></trkpt><trkpt lat="42.07818345156262" lon="13.645209675035783"><ele>960.0</ele><time>2026-05-02T11:38:38Z</time></trkpt><trkpt lat="42.078271541702215" lon="13.64536574938686"><ele>960.0</ele><time>2026-05-02T11:38:39Z</time></trkpt><trkpt lat="42.078348873252" lon="13.645508594810439"><ele>960.0</ele><time>2026-05-02T11:38:40Z</time></trkpt><trkpt lat="42.078415130371454" lon="13.645633175380894"><ele>960.0</ele><time>2026-05-02T11:38:41Z</time></trkpt><trkpt lat="42.07848523922769" lon="13.645760909885015"><ele>960.0</ele><time>2026-05-02T11:38:42Z</time></trkpt><trkpt lat="42.07858606135956" lon="13.645871694667628"><ele>960.0</ele><time>2026-05-02T11:38:43Z</time></trkpt><trkpt lat="42.07871111076838" lon="13.645935047413714"><ele>960.0</ele><time>2026-05-02T11:38:44Z</time></trkpt><trkpt lat="42.078828459911534" lon="13.646031382220809"><ele>960.0</ele><time>2026-05-02T11:38:45Z</time></trkpt><trkpt lat="42.078944584432804" lon="13.646152680845443"><ele>960.0</ele><time>2026-05-02T11:38:46Z</time></trkpt><trkpt lat="42.07905321718392" lon="13.646296580163414"><ele>960.25</ele><time>2026-05-02T11:38:47Z</time></trkpt><trkpt lat="42.07915202394796" lon="13.646452022387379"><ele>960.5</ele><time>2026-05-02T11:38:48Z</time></trkpt><trkpt lat="42.079236227978505" lon="13.646607837794306"><ele>960.75</ele><time>2026-05-02T11:38:49Z</time></trkpt><trkpt lat="42.07930302282303" lon="13.646754174243053"><ele>961.0</ele><time>2026-05-02T11:38:50Z</time></trkpt><trkpt lat="42.07936283242966" lon="13.646892046619012"><ele>963.1999999999999</ele><time>2026-05-02T11:38:51Z</time></trkpt><trkpt lat="42.079418922380924" lon="13.64702102331537"><ele>965.3999999999999</ele><time>2026-05-02T11:38:52Z</time></trkpt><trkpt lat="42.07945921545701" lon="13.647150391470742"><ele>967.6</ele><time>2026-05-02T11:38:53Z</time></trkpt><trkpt lat="42.079508218826206" lon="13.647268667206182"><ele>969.8</ele><time>2026-05-02T11:38:54Z</time></trkpt><trkpt lat="42.07960058243819" lon="13.647346658850086"><ele>972.0</ele><time>2026-05-02T11:38:55Z</time></trkpt><trkpt lat="42.07967375530413" lon="13.647426875169915"><ele>972.0</ele><time>2026-05-02T11:38:56Z</time></trkpt><trkpt lat="42.07975053601378" lon="13.647491809603451"><ele>972.0</ele><time>2026-05-02T11:38:57Z</time></trkpt><trkpt lat="42.07982726455248" lon="13.64754589154627"><ele>972.0</ele><time>2026-05-02T11:38:58Z</time></trkpt><trkpt lat="42.079900130180384" lon="13.647592871744097"><ele>972.0</ele><time>2026-05-02T11:38:59Z</time></trkpt><trkpt lat="42.07996779412183" lon="13.647635726248623"><ele>972.0</ele><time>2026-05-02T11:39:00Z</time></trkpt><trkpt lat="42.080039356071595" lon="13.647681861656352"><ele>972.0</ele><time>2026-05-02T11:39:01Z</time></trkpt><trkpt lat="42.08011762808934" lon="13.647732259403623"><ele>969.8333333333334</ele><time>2026-05-02T11:39:02Z</time></trkpt><trkpt lat="42.08018789357454" lon="13.647770860325378"><ele>967.6666666666667</ele><time>2026-05-02T11:39:03Z</time></trkpt><trkpt lat="42.08026391639278" lon="13.647801633178306"><ele>965.5</ele><time>2026-05-02T11:39:04Z</time></trkpt><trkpt lat="42.080345698260146" lon="13.647815351608799"><ele>963.3333333333334</ele><time>2026-05-02T11:39:05Z</time></trkpt><trkpt lat="42.08043383983343" lon="13.647814032903376"><ele>961.1666666666667</ele><time>2026-05-02T11:39:06Z</time></trkpt><trkpt lat="42.08052584945891" lon="13.64779779774154"><ele>959.0</ele><time>2026-05-02T11:39:06.999Z</time></trkpt><trkpt lat="42.08061882383352" lon="13.64776121683493"><ele>959.0</ele><time>2026-05-02T11:39:07.999Z</time></trkpt><trkpt lat="42.08071875051256" lon="13.647710824144275"><ele>959.0000000000001</ele><time>2026-05-02T11:39:08.999Z</time></trkpt><trkpt lat="42.08082719173496" lon="13.647658463284618"><ele>959.0000000000001</ele><time>2026-05-02T11:39:09.999Z</time></trkpt><trkpt lat="42.0809354060338" lon="13.647605435201232"><ele>959.0</ele><time>2026-05-02T11:39:10.999Z</time></trkpt><trkpt lat="42.08104190823575" lon="13.647559164319672"><ele>959.0</ele><time>2026-05-02T11:39:11.999Z</time></trkpt><trkpt lat="42.08115283770019" lon="13.647509429267524"><ele>960.0</ele><time>2026-05-02T11:39:12.999Z</time></trkpt><trkpt lat="42.08125727388035" lon="13.647451000731408"><ele>961.0000000000001</ele><time>2026-05-02T11:39:13.999Z</time></trkpt><trkpt lat="42.081355374189556" lon="13.647379261749725"><ele>962.0000000000001</ele><time>2026-05-02T11:39:14.999Z</time></trkpt><trkpt lat="42.08144996816293" lon="13.647300214344142"><ele>963.0</ele><time>2026-05-02T11:39:15.999Z</time></trkpt><trkpt lat="42.08153984068474" lon="13.64721724465044"><ele>964.0</ele><time>2026-05-02T11:39:16.999Z</time></trkpt><trkpt lat="42.08162116472534" lon="13.647121123700217"><ele>965.0</ele><time>2026-05-02T11:39:17.999Z</time></trkpt><trkpt lat="42.08170058221148" lon="13.64701243282361"><ele>966.0000000000001</ele><time>2026-05-02T11:39:18.999Z</time></trkpt><trkpt lat="42.08177712732948" lon="13.646907283092897"><ele>967.0000000000001</ele><time>2026-05-02T11:39:19.999Z</time></trkpt><trkpt lat="42.08185426092543" lon="13.646801254108528"><ele>968.0</ele><time>2026-05-02T11:39:20.999Z</time></trkpt><trkpt lat="42.081929450480224" lon="13.646698056491262"><ele>969.0</ele><time>2026-05-02T11:39:21.999Z</time></trkpt><trkpt lat="42.08200414415339" lon="13.646586000191249"><ele>970.0</ele><time>2026-05-02T11:39:22.999Z</time></trkpt><trkpt lat="42.082072319538874" lon="13.6464746576362"><ele>971.0000000000001</ele><time>2026-05-02T11:39:23.999Z</time></trkpt><trkpt lat="42.0821391971714" lon="13.646373325438452"><ele>972.0000000000001</ele><time>2026-05-02T11:39:24.999Z</time></trkpt><trkpt lat="42.082211848600295" lon="13.64628477610322"><ele>973.0</ele><time>2026-05-02T11:39:25.999Z</time></trkpt><trkpt lat="42.08229841556611" lon="13.646206014433075"><ele>974.0</ele><time>2026-05-02T11:39:26.999Z</time></trkpt><trkpt lat="42.08239405553742" lon="13.646134721718612"><ele>976.25</ele><time>2026-05-02T11:39:27.999Z</time></trkpt><trkpt lat="42.082495736717256" lon="13.646074393497525"><ele>978.5</ele><time>2026-05-02T11:39:28.999Z</time></trkpt><trkpt lat="42.082605416781526" lon="13.646025417085957"><ele>980.75</ele><time>2026-05-02T11:39:29.999Z</time></trkpt><trkpt lat="42.08271475970162" lon="13.64598897364859"><ele>983.0</ele><time>2026-05-02T11:39:30.999Z</time></trkpt><trkpt lat="42.082823593350604" lon="13.64594466077128"><ele>983.0</ele><time>2026-05-02T11:39:31.999Z</time></trkpt><trkpt lat="42.08292845037157" lon="13.645886295332442"><ele>983.0</ele><time>2026-05-02T11:39:32.999Z</time></trkpt><trkpt lat="42.083028704262034" lon="13.645821251798864"><ele>983.0</ele><time>2026-05-02T11:39:33.999Z</time></trkpt><trkpt lat="42.083126909985616" lon="13.645747797931142"><ele>983.0</ele><time>2026-05-02T11:39:34.999Z</time></trkpt><trkpt lat="42.08322154842247" lon="13.645672194546336"><ele>983.0</ele><time>2026-05-02T11:39:35.999Z</time></trkpt><trkpt lat="42.083320038476046" lon="13.64558587681646"><ele>985.5</ele><time>2026-05-02T11:39:36.999Z</time></trkpt><trkpt lat="42.08342124963081" lon="13.645489887333959"><ele>988.0</ele><time>2026-05-02T11:39:37.999Z</time></trkpt><trkpt lat="42.0835212370421" lon="13.645386771064098"><ele>990.5</ele><time>2026-05-02T11:39:38.999Z</time></trkpt><trkpt lat="42.083617664501375" lon="13.645284117607595"><ele>993.0</ele><time>2026-05-02T11:39:39.999Z</time></trkpt><trkpt lat="42.083714752842425" lon="13.645181328880225"><ele>993.8</ele><time>2026-05-02T11:39:40.999Z</time></trkpt><trkpt lat="42.08380155121604" lon="13.645076692904308"><ele>994.5999999999999</ele><time>2026-05-02T11:39:41.999Z</time></trkpt><trkpt lat="42.083879410912566" lon="13.644969812249435"><ele>995.4000000000001</ele><time>2026-05-02T11:39:42.999Z</time></trkpt><trkpt lat="42.083945315417814" lon="13.644852961485464"><ele>996.2</ele><time>2026-05-02T11:39:43.999Z</time></trkpt><trkpt lat="42.083998631350404" lon="13.644722271685513"><ele>997.0</ele><time>2026-05-02T11:39:44.999Z</time></trkpt><trkpt lat="42.08403772199516" lon="13.644590250504965"><ele>997.8</ele><time>2026-05-02T11:39:45.999Z</time></trkpt><trkpt lat="42.08406705006305" lon="13.644456534353436"><ele>998.6</ele><time>2026-05-02T11:39:46.999Z</time></trkpt><trkpt lat="42.0840895546196" lon="13.644320262865643"><ele>999.3999999999999</ele><time>2026-05-02T11:39:47.999Z</time></trkpt><trkpt lat="42.08411151942014" lon="13.644188569486168"><ele>1000.1999999999999</ele><time>2026-05-02T11:39:48.999Z</time></trkpt><trkpt lat="42.084140629337654" lon="13.644045607743564"><ele>1001.0</ele><time>2026-05-02T11:39:49.999Z</time></trkpt><trkpt lat="42.08418313038079" lon="13.643907506359133"><ele>1002.0</ele><time>2026-05-02T11:39:50.999Z</time></trkpt><trkpt lat="42.08423609156024" lon="13.643773998924846"><ele>1003.0</ele><time>2026-05-02T11:39:51.999Z</time></trkpt><trkpt lat="42.08429354331107" lon="13.643629862103424"><ele>1004.0</ele><time>2026-05-02T11:39:52.999Z</time></trkpt><trkpt lat="42.08434336756206" lon="13.643490782635988"><ele>1005.0</ele><time>2026-05-02T11:39:53.999Z</time></trkpt><trkpt lat="42.084387171779674" lon="13.643355726645412"><ele>1006.2</ele><time>2026-05-02T11:39:54.999Z</time></trkpt><trkpt lat="42.08442632126374" lon="13.643224766229965"><ele>1007.4</ele><time>2026-05-02T11:39:55.999Z</time></trkpt><trkpt lat="42.08447161781983" lon="13.64309634409417"><ele>1008.5999999999999</ele><time>2026-05-02T11:39:56.999Z</time></trkpt><trkpt lat="42.08452726793594" lon="13.642972082227644"><ele>1009.8</ele><time>2026-05-02T11:39:57.999Z</time></trkpt><trkpt lat="42.08459578652194" lon="13.642843481110004"><ele>1011.0</ele><time>2026-05-02T11:39:58.999Z</time></trkpt><trkpt lat="42.08466761122181" lon="13.642723536085546"><ele>1011.8</ele><time>2026-05-02T11:39:59.999Z</time></trkpt><trkpt lat="42.084739597159256" lon="13.642610187237153"><ele>1012.5999999999999</ele><time>2026-05-02T11:40:00.999Z</time></trkpt><trkpt lat="42.084801427146026" lon="13.642495396697782"><ele>1013.4</ele><time>2026-05-02T11:40:01.999Z</time></trkpt><trkpt lat="42.084845967062" lon="13.642376517014398"><ele>1014.2</ele><time>2026-05-02T11:40:02.999Z</time></trkpt><trkpt lat="42.084879686332485" lon="13.642245737769041"><ele>1015.0</ele><time>2026-05-02T11:40:03.999Z</time></trkpt><trkpt lat="42.084900417733536" lon="13.642114417198318"><ele>1015.0</ele><time>2026-05-02T11:40:04.999Z</time></trkpt><trkpt lat="42.084914107348524" lon="13.641982891076948"><ele>1015.0</ele><time>2026-05-02T11:40:05.999Z</time></trkpt><trkpt lat="42.084927428009614" lon="13.641838406064622"><ele>1015.0</ele><time>2026-05-02T11:40:06.999Z</time></trkpt><trkpt lat="42.08494291764416" lon="13.641706570662455"><ele>1015.0</ele><time>2026-05-02T11:40:07.999Z</time></trkpt><trkpt lat="42.08497094371131" lon="13.64157556864203"><ele>1015.0</ele><time>2026-05-02T11:40:08.999Z</time></trkpt><trkpt lat="42.08500932374516" lon="13.641434398816223"><ele>1018.5</ele><time>2026-05-02T11:40:09.999Z</time></trkpt><trkpt lat="42.08505648125581" lon="13.641287651360377"><ele>1022.0</ele><time>2026-05-02T11:40:10.999Z</time></trkpt><trkpt lat="42.085107996223016" lon="13.641137837958839"><ele>1025.5</ele><time>2026-05-02T11:40:11.999Z</time></trkpt><trkpt lat="42.08515351563649" lon="13.640992215936045"><ele>1029.0</ele><time>2026-05-02T11:40:12.999Z</time></trkpt><trkpt lat="42.085188805386515" lon="13.640857669602706"><ele>1030.1666666666667</ele><time>2026-05-02T11:40:13.999Z</time></trkpt><trkpt lat="42.08521576422474" lon="13.640727023389061"><ele>1031.3333333333333</ele><time>2026-05-02T11:40:14.999Z</time></trkpt><trkpt lat="42.08523090936025" lon="13.64060284275596"><ele>1032.5</ele><time>2026-05-02T11:40:15.999Z</time></trkpt><trkpt lat="42.08523164434968" lon="13.640486933145139"><ele>1033.6666666666665</ele><time>2026-05-02T11:40:16.999Z</time></trkpt><trkpt lat="42.08521847518092" lon="13.64037465063295"><ele>1034.8333333333333</ele><time>2026-05-02T11:40:17.999Z</time></trkpt><trkpt lat="42.085189553349515" lon="13.640268298050087"><ele>1036.0</ele><time>2026-05-02T11:40:18.999Z</time></trkpt><trkpt lat="42.08515681581222" lon="13.64016372362227"><ele>1036.8333333333333</ele><time>2026-05-02T11:40:19.999Z</time></trkpt><trkpt lat="42.085136600505486" lon="13.640062327996302"><ele>1037.6666666666665</ele><time>2026-05-02T11:40:20.999Z</time></trkpt><trkpt lat="42.08513446085794" lon="13.639955528740915"><ele>1038.5</ele><time>2026-05-02T11:40:21.999Z</time></trkpt><trkpt lat="42.08516179935848" lon="13.63985277040225"><ele>1039.3333333333333</ele><time>2026-05-02T11:40:22.999Z</time></trkpt><trkpt lat="42.08520871741504" lon="13.639756150281652"><ele>1040.1666666666667</ele><time>2026-05-02T11:40:23.999Z</time></trkpt><trkpt lat="42.08525975361936" lon="13.639653475073066"><ele>1041.0</ele><time>2026-05-02T11:40:24.999Z</time></trkpt><trkpt lat="42.08531227280075" lon="13.639559088889284"><ele>1042.1666666666667</ele><time>2026-05-02T11:40:25.999Z</time></trkpt><trkpt lat="42.085355134438686" lon="13.639466459110393"><ele>1043.3333333333333</ele><time>2026-05-02T11:40:26.999Z</time></trkpt><trkpt lat="42.085377853213245" lon="13.639379077907893"><ele>1044.5</ele><time>2026-05-02T11:40:27.999Z</time></trkpt><trkpt lat="42.08538542991204" lon="13.639289037008956"><ele>1045.6666666666665</ele><time>2026-05-02T11:40:28.999Z</time></trkpt><trkpt lat="42.08537642032381" lon="13.639180908958792"><ele>1046.8333333333333</ele><time>2026-05-02T11:40:29.999Z</time></trkpt><trkpt lat="42.08535120493102" lon="13.63907068480834"><ele>1048.0</ele><time>2026-05-02T11:40:30.999Z</time></trkpt><trkpt lat="42.08531650092057" lon="13.638968148196657"><ele>1048.0</ele><time>2026-05-02T11:40:31.999Z</time></trkpt><trkpt lat="42.08527473345077" lon="13.63886314556529"><ele>1048.0</ele><time>2026-05-02T11:40:32.999Z</time></trkpt><trkpt lat="42.08523955603037" lon="13.638755154993657"><ele>1048.0</ele><time>2026-05-02T11:40:33.999Z</time></trkpt><trkpt lat="42.085216591829884" lon="13.638622360032453"><ele>1048.0</ele><time>2026-05-02T11:40:34.999Z</time></trkpt><trkpt lat="42.085197476383655" lon="13.638471125140853"><ele>1048.0</ele><time>2026-05-02T11:40:35.999Z</time></trkpt><trkpt lat="42.08517213976155" lon="13.638313679375186"><ele>1050.25</ele><time>2026-05-02T11:40:36.999Z</time></trkpt><trkpt lat="42.085134720544076" lon="13.638140573731507"><ele>1052.5</ele><time>2026-05-02T11:40:37.999Z</time></trkpt><trkpt lat="42.08509674380355" lon="13.637971197628602"><ele>1054.75</ele><time>2026-05-02T11:40:38.999Z</time></trkpt><trkpt lat="42.08506110041992" lon="13.637810231596921"><ele>1057.0</ele><time>2026-05-02T11:40:39.999Z</time></trkpt><trkpt lat="42.08503853957889" lon="13.637667435250773"><ele>1058.2</ele><time>2026-05-02T11:40:40.999Z</time></trkpt><trkpt lat="42.08503110017231" lon="13.63753797349589"><ele>1059.4</ele><time>2026-05-02T11:40:41.999Z</time></trkpt><trkpt lat="42.0850351605299" lon="13.637408981718202"><ele>1060.6</ele><time>2026-05-02T11:40:42.999Z</time></trkpt><trkpt lat="42.08504131404617" lon="13.637255268380015"><ele>1061.8</ele><time>2026-05-02T11:40:43.999Z</time></trkpt><trkpt lat="42.08503451099278" lon="13.637089275857589"><ele>1063.0</ele><time>2026-05-02T11:40:44.999Z</time></trkpt><trkpt lat="42.08500985338763" lon="13.63694682624762"><ele>1064.1666666666665</ele><time>2026-05-02T11:40:45.999Z</time></trkpt><trkpt lat="42.08497512065601" lon="13.63682082934749"><ele>1065.3333333333333</ele><time>2026-05-02T11:40:46.999Z</time></trkpt><trkpt lat="42.08492935701298" lon="13.636719958135552"><ele>1066.5</ele><time>2026-05-02T11:40:48Z</time></trkpt><trkpt lat="42.08487400759584" lon="13.63662454925071"><ele>1067.6666666666667</ele><time>2026-05-02T11:40:49Z</time></trkpt><trkpt lat="42.08482310289963" lon="13.636542918213031"><ele>1068.8333333333335</ele><time>2026-05-02T11:40:50Z</time></trkpt><trkpt lat="42.08477355216256" lon="13.636460799239039"><ele>1070.0</ele><time>2026-05-02T11:40:51Z</time></trkpt><trkpt lat="42.08472505867848" lon="13.636378946572416"><ele>1070.1666666666667</ele><time>2026-05-02T11:40:52Z</time></trkpt><trkpt lat="42.08467402612385" lon="13.636291482547378"><ele>1070.3333333333335</ele><time>2026-05-02T11:40:53Z</time></trkpt><trkpt lat="42.084622691750944" lon="13.63620158539424"><ele>1070.5</ele><time>2026-05-02T11:40:54Z</time></trkpt><trkpt lat="42.084570041185216" lon="13.636119508478354"><ele>1070.6666666666667</ele><time>2026-05-02T11:40:55Z</time></trkpt><trkpt lat="42.08450860225227" lon="13.636034792936112"><ele>1070.8333333333333</ele><time>2026-05-02T11:40:56Z</time></trkpt><trkpt lat="42.08444270685327" lon="13.635936527969337"><ele>1071.0</ele><time>2026-05-02T11:40:57Z</time></trkpt><trkpt lat="42.08435618548377" lon="13.635824571810174"><ele>1072.3999999999999</ele><time>2026-05-02T11:40:58Z</time></trkpt><trkpt lat="42.084270138393954" lon="13.635727360392227"><ele>1073.8</ele><time>2026-05-02T11:40:59Z</time></trkpt><trkpt lat="42.08421389966172" lon="13.63564211807295"><ele>1075.1999999999998</ele><time>2026-05-02T11:41:00Z</time></trkpt><trkpt lat="42.08418324722189" lon="13.635567085772648"><ele>1076.6</ele><time>2026-05-02T11:41:01Z</time></trkpt><trkpt lat="42.0841512820705" lon="13.635403623418243"><ele>1078.0</ele><time>2026-05-02T11:41:03Z</time></trkpt><trkpt lat="42.08413611056368" lon="13.635247159862109"><ele>1079.0</ele><time>2026-05-02T11:41:05Z</time></trkpt><trkpt lat="42.08412757529765" lon="13.635157006015731"><ele>1080.0</ele><time>2026-05-02T11:41:06Z</time></trkpt><trkpt lat="42.084094388579075" lon="13.635051116526654"><ele>1081.0</ele><time>2026-05-02T11:41:07Z</time></trkpt><trkpt lat="42.08406302693871" lon="13.634938407342691"><ele>1082.0</ele><time>2026-05-02T11:41:08Z</time></trkpt><trkpt lat="42.08404094156699" lon="13.63480633113099"><ele>1083.0</ele><time>2026-05-02T11:41:09Z</time></trkpt><trkpt lat="42.08400713503783" lon="13.634677586072488"><ele>1084.0</ele><time>2026-05-02T11:41:10Z</time></trkpt><trkpt lat="42.083977638462954" lon="13.634553436293508"><ele>1083.4</ele><time>2026-05-02T11:41:11Z</time></trkpt><trkpt lat="42.08393496178143" lon="13.634460699157918"><ele>1082.8000000000002</ele><time>2026-05-02T11:41:12Z</time></trkpt><trkpt lat="42.08391829112066" lon="13.63437113345296"><ele>1082.1999999999998</ele><time>2026-05-02T11:41:13Z</time></trkpt><trkpt lat="42.08392354659928" lon="13.63423359153249"><ele>1081.6</ele><time>2026-05-02T11:41:15Z</time></trkpt><trkpt lat="42.08396267195292" lon="13.634133752774174"><ele>1081.0</ele><time>2026-05-02T11:41:17Z</time></trkpt><trkpt lat="42.08403084229605" lon="13.634009754179349"><ele>1081.0</ele><time>2026-05-02T11:41:19Z</time></trkpt><trkpt lat="42.0840872842041" lon="13.633946908237837"><ele>1081.0</ele><time>2026-05-02T11:41:20Z</time></trkpt><trkpt lat="42.08415290879679" lon="13.633895137802885"><ele>1081.0</ele><time>2026-05-02T11:41:21Z</time></trkpt><trkpt lat="42.0842291767478" lon="13.633858167786665"><ele>1081.0</ele><time>2026-05-02T11:41:22Z</time></trkpt><trkpt lat="42.084310562843655" lon="13.633831745779295"><ele>1081.0</ele><time>2026-05-02T11:41:23Z</time></trkpt><trkpt lat="42.08439060026489" lon="13.63380025298054"><ele>1081.0</ele><time>2026-05-02T11:41:24Z</time></trkpt><trkpt lat="42.08445658313023" lon="13.633747589453304"><ele>1081.8</ele><time>2026-05-02T11:41:25Z</time></trkpt><trkpt lat="42.084513521021236" lon="13.633671318009332"><ele>1082.6</ele><time>2026-05-02T11:41:26Z</time></trkpt><trkpt lat="42.08457061486486" lon="13.633573966277853"><ele>1083.4</ele><time>2026-05-02T11:41:27Z</time></trkpt><trkpt lat="42.08462031769891" lon="13.633467339391409"><ele>1084.2</ele><time>2026-05-02T11:41:28Z</time></trkpt><trkpt lat="42.084671816422556" lon="13.633348052493952"><ele>1085.0</ele><time>2026-05-02T11:41:29Z</time></trkpt><trkpt lat="42.08473015333451" lon="13.633237731218177"><ele>1085.0</ele><time>2026-05-02T11:41:30Z</time></trkpt><trkpt lat="42.08479538670593" lon="13.63315092310855"><ele>1085.0</ele><time>2026-05-02T11:41:31Z</time></trkpt><trkpt lat="42.084868472555584" lon="13.63306935811928"><ele>1085.0</ele><time>2026-05-02T11:41:32Z</time></trkpt><trkpt lat="42.08495298411215" lon="13.632980552127824"><ele>1085.0</ele><time>2026-05-02T11:41:33Z</time></trkpt><trkpt lat="42.085034279902" lon="13.63289960048756"><ele>1085.0</ele><time>2026-05-02T11:41:34Z</time></trkpt><trkpt lat="42.0851027459987" lon="13.632822980149921"><ele>1088.2</ele><time>2026-05-02T11:41:35Z</time></trkpt><trkpt lat="42.0851588984379" lon="13.632742554417726"><ele>1091.4</ele><time>2026-05-02T11:41:36Z</time></trkpt><trkpt lat="42.085199772705536" lon="13.632647343172135"><ele>1094.6</ele><time>2026-05-02T11:41:37Z</time></trkpt><trkpt lat="42.08522019058652" lon="13.632533318393255"><ele>1097.8</ele><time>2026-05-02T11:41:38Z</time></trkpt><trkpt lat="42.085225819988736" lon="13.632387839584117"><ele>1101.0</ele><time>2026-05-02T11:41:39Z</time></trkpt><trkpt lat="42.085216668144646" lon="13.6322253782692"><ele>1101.0</ele><time>2026-05-02T11:41:40Z</time></trkpt><trkpt lat="42.08520037866015" lon="13.63207201530386"><ele>1101.0</ele><time>2026-05-02T11:41:41Z</time></trkpt><trkpt lat="42.08519015247993" lon="13.631937178709483"><ele>1101.0</ele><time>2026-05-02T11:41:42Z</time></trkpt><trkpt lat="42.08519252896285" lon="13.63181344037256"><ele>1101.0</ele><time>2026-05-02T11:41:43Z</time></trkpt><trkpt lat="42.0852180567972" lon="13.63170159430319"><ele>1101.0</ele><time>2026-05-02T11:41:44Z</time></trkpt><trkpt lat="42.08526021811065" lon="13.631583500913878"><ele>1101.8</ele><time>2026-05-02T11:41:45Z</time></trkpt><trkpt lat="42.085317428569006" lon="13.631466982917154"><ele>1102.6</ele><time>2026-05-02T11:41:46Z</time></trkpt><trkpt lat="42.08538719935219" lon="13.631369239134179"><ele>1103.4</ele><time>2026-05-02T11:41:47Z</time></trkpt><trkpt lat="42.08545539239029" lon="13.63127331736396"><ele>1104.2</ele><time>2026-05-02T11:41:48Z</time></trkpt><trkpt lat="42.08550781308261" lon="13.631169245842795"><ele>1105.0</ele><time>2026-05-02T11:41:49Z</time></trkpt><trkpt lat="42.08552958971805" lon="13.631058259990262"><ele>1106.0</ele><time>2026-05-02T11:41:50Z</time></trkpt><trkpt lat="42.08552154589173" lon="13.630943117166414"><ele>1107.0</ele><time>2026-05-02T11:41:51Z</time></trkpt><trkpt lat="42.08550094493589" lon="13.630815455898158"><ele>1108.0</ele><time>2026-05-02T11:41:52Z</time></trkpt><trkpt lat="42.08547769059384" lon="13.63066933024338"><ele>1109.0</ele><time>2026-05-02T11:41:53Z</time></trkpt><trkpt lat="42.08546409290242" lon="13.630507542739089"><ele>1110.0</ele><time>2026-05-02T11:41:54Z</time></trkpt><trkpt lat="42.08545974616675" lon="13.630337900638867"><ele>1111.5</ele><time>2026-05-02T11:41:55Z</time></trkpt><trkpt lat="42.085461744175475" lon="13.630163742774911"><ele>1113.0</ele><time>2026-05-02T11:41:56Z</time></trkpt><trkpt lat="42.085458855112954" lon="13.630002850807662"><ele>1114.5</ele><time>2026-05-02T11:41:57Z</time></trkpt><trkpt lat="42.08545365990069" lon="13.629862194786142"><ele>1116.0</ele><time>2026-05-02T11:41:58Z</time></trkpt><trkpt lat="42.085463519628476" lon="13.629723650556711"><ele>1116.0</ele><time>2026-05-02T11:41:59Z</time></trkpt><trkpt lat="42.08548819982952" lon="13.629578891573317"><ele>1116.0</ele><time>2026-05-02T11:42:00Z</time></trkpt><trkpt lat="42.085524630072676" lon="13.629428076720679"><ele>1116.0</ele><time>2026-05-02T11:42:01Z</time></trkpt><trkpt lat="42.08556766235885" lon="13.629265871675575"><ele>1116.0</ele><time>2026-05-02T11:42:02Z</time></trkpt><trkpt lat="42.085608995122996" lon="13.62908415931234"><ele>1116.75</ele><time>2026-05-02T11:42:03Z</time></trkpt><trkpt lat="42.08564869504341" lon="13.628890525140175"><ele>1117.5</ele><time>2026-05-02T11:42:04Z</time></trkpt><trkpt lat="42.08568353695864" lon="13.628699579319393"><ele>1118.25</ele><time>2026-05-02T11:42:05Z</time></trkpt><trkpt lat="42.08571033445662" lon="13.628546255172232"><ele>1119.0</ele><time>2026-05-02T11:42:06Z</time></trkpt><trkpt lat="42.08572896708995" lon="13.62843531096889"><ele>1121.6000000000001</ele><time>2026-05-02T11:42:07Z</time></trkpt><trkpt lat="42.08577532113162" lon="13.628277846988995"><ele>1124.2</ele><time>2026-05-02T11:42:09Z</time></trkpt><trkpt lat="42.08582103990321" lon="13.628202662326471"><ele>1126.8000000000002</ele><time>2026-05-02T11:42:10Z</time></trkpt><trkpt lat="42.08587882451021" lon="13.62812436552324"><ele>1129.4</ele><time>2026-05-02T11:42:11Z</time></trkpt><trkpt lat="42.085943410813925" lon="13.628039794466856"><ele>1132.0</ele><time>2026-05-02T11:42:12Z</time></trkpt><trkpt lat="42.08599679390117" lon="13.627954645221353"><ele>1132.0</ele><time>2026-05-02T11:42:13Z</time></trkpt><trkpt lat="42.0860357797109" lon="13.62785250175343"><ele>1132.0</ele><time>2026-05-02T11:42:14Z</time></trkpt><trkpt lat="42.08606524204395" lon="13.627719618284653"><ele>1132.0</ele><time>2026-05-02T11:42:15Z</time></trkpt><trkpt lat="42.08608837928402" lon="13.627569427806192"><ele>1132.0</ele><time>2026-05-02T11:42:16Z</time></trkpt><trkpt lat="42.08613833813517" lon="13.627429123318517"><ele>1132.0</ele><time>2026-05-02T11:42:17Z</time></trkpt><trkpt lat="42.08618176147209" lon="13.627284761024416"><ele>1133.0</ele><time>2026-05-02T11:42:18Z</time></trkpt><trkpt lat="42.08623148960115" lon="13.627150818382116"><ele>1134.0</ele><time>2026-05-02T11:42:19Z</time></trkpt><trkpt lat="42.08627298052206" lon="13.627004531066895"><ele>1135.0</ele><time>2026-05-02T11:42:20Z</time></trkpt><trkpt lat="42.08632270942282" lon="13.626876222735063"><ele>1136.0</ele><time>2026-05-02T11:42:21Z</time></trkpt><trkpt lat="42.08639487979454" lon="13.626775806011212"><ele>1137.0</ele><time>2026-05-02T11:42:22Z</time></trkpt><trkpt lat="42.08645325362862" lon="13.626666195113945"><ele>1137.75</ele><time>2026-05-02T11:42:23Z</time></trkpt><trkpt lat="42.08650652350105" lon="13.626566168125695"><ele>1138.5</ele><time>2026-05-02T11:42:24Z</time></trkpt><trkpt lat="42.08642460080198" lon="13.626351711282304"><ele>1139.25</ele><time>2026-05-02T11:42:25.001Z</time></trkpt><trkpt lat="42.086420499878486" lon="13.626227499406536"><ele>1140.0</ele><time>2026-05-02T11:42:26.001Z</time></trkpt><trkpt lat="42.08641433614482" lon="13.626106881466336"><ele>1141.0</ele><time>2026-05-02T11:42:27.001Z</time></trkpt><trkpt lat="42.08640374806684" lon="13.625986652985215"><ele>1142.0</ele><time>2026-05-02T11:42:28.001Z</time></trkpt><trkpt lat="42.08638688184875" lon="13.625872386527892"><ele>1143.0</ele><time>2026-05-02T11:42:29.001Z</time></trkpt><trkpt lat="42.08636565635502" lon="13.62576029674664"><ele>1144.0</ele><time>2026-05-02T11:42:30.001Z</time></trkpt><trkpt lat="42.08634107920265" lon="13.625644819750482"><ele>1145.0</ele><time>2026-05-02T11:42:31.001Z</time></trkpt><trkpt lat="42.086312230132535" lon="13.625518020399038"><ele>1145.0</ele><time>2026-05-02T11:42:32.001Z</time></trkpt><trkpt lat="42.08627767835401" lon="13.625368477318824"><ele>1145.0</ele><time>2026-05-02T11:42:33.001Z</time></trkpt><trkpt lat="42.08624322639749" lon="13.625214215286027"><ele>1145.0</ele><time>2026-05-02T11:42:34.001Z</time></trkpt><trkpt lat="42.086207096591274" lon="13.62506117377453"><ele>1145.0</ele><time>2026-05-02T11:42:35.001Z</time></trkpt><trkpt lat="42.08616915735558" lon="13.624899576624951"><ele>1147.0</ele><time>2026-05-02T11:42:36.001Z</time></trkpt><trkpt lat="42.086139066936134" lon="13.62474148626192"><ele>1149.0</ele><time>2026-05-02T11:42:37.001Z</time></trkpt><trkpt lat="42.086116392346916" lon="13.624592946956996"><ele>1151.0</ele><time>2026-05-02T11:42:38.001Z</time></trkpt><trkpt lat="42.086104191209415" lon="13.624453666278223"><ele>1153.0</ele><time>2026-05-02T11:42:39.001Z</time></trkpt><trkpt lat="42.08610363130051" lon="13.624310614710765"><ele>1155.0</ele><time>2026-05-02T11:42:40.001Z</time></trkpt><trkpt lat="42.08610641585933" lon="13.624153618070984"><ele>1155.8</ele><time>2026-05-02T11:42:41.001Z</time></trkpt><trkpt lat="42.086102779059914" lon="13.623997118481528"><ele>1156.6</ele><time>2026-05-02T11:42:42.001Z</time></trkpt><trkpt lat="42.08608168784253" lon="13.62384177880431"><ele>1157.4</ele><time>2026-05-02T11:42:43.001Z</time></trkpt><trkpt lat="42.08605354011067" lon="13.623703600077755"><ele>1158.2</ele><time>2026-05-02T11:42:44.001Z</time></trkpt><trkpt lat="42.08601547754817" lon="13.623588638685662"><ele>1159.0</ele><time>2026-05-02T11:42:45.001Z</time></trkpt><trkpt lat="42.085971083662" lon="13.623493037052345"><ele>1160.6666666666665</ele><time>2026-05-02T11:42:46.001Z</time></trkpt><trkpt lat="42.08592586585129" lon="13.623404350995788"><ele>1162.3333333333333</ele><time>2026-05-02T11:42:47.001Z</time></trkpt><trkpt lat="42.08588449425832" lon="13.623316324428274"><ele>1164.0</ele><time>2026-05-02T11:42:48.001Z</time></trkpt><trkpt lat="42.085845081013595" lon="13.623226098755424"><ele>1165.6666666666667</ele><time>2026-05-02T11:42:49.001Z</time></trkpt><trkpt lat="42.08580461799717" lon="13.623159839332281"><ele>1167.3333333333335</ele><time>2026-05-02T11:42:50.001Z</time></trkpt><trkpt lat="42.08569378948478" lon="13.623089833050226"><ele>1169.0</ele><time>2026-05-02T11:42:52.001Z</time></trkpt><trkpt lat="42.085618182500504" lon="13.623086451249252"><ele>1169.5</ele><time>2026-05-02T11:42:53.001Z</time></trkpt><trkpt lat="42.085533171746704" lon="13.623102676942157"><ele>1170.0</ele><time>2026-05-02T11:42:54.001Z</time></trkpt><trkpt lat="42.08545006438054" lon="13.623141354101882"><ele>1170.5</ele><time>2026-05-02T11:42:55.001Z</time></trkpt><trkpt lat="42.08537303839788" lon="13.623195840348787"><ele>1171.0</ele><time>2026-05-02T11:42:56.001Z</time></trkpt><trkpt lat="42.085295666956895" lon="13.623257363406204"><ele>1171.5</ele><time>2026-05-02T11:42:57Z</time></trkpt><trkpt lat="42.08521259359148" lon="13.6233228614836"><ele>1172.0</ele><time>2026-05-02T11:42:58Z</time></trkpt><trkpt lat="42.085123724692366" lon="13.62338791397627"><ele>1172.0</ele><time>2026-05-02T11:42:59Z</time></trkpt><trkpt lat="42.085025969636135" lon="13.623459091747163"><ele>1172.0</ele><time>2026-05-02T11:43:00Z</time></trkpt><trkpt lat="42.08491973623405" lon="13.623531335953341"><ele>1172.0</ele><time>2026-05-02T11:43:01Z</time></trkpt><trkpt lat="42.08480776498193" lon="13.623606257484091"><ele>1172.0</ele><time>2026-05-02T11:43:02Z</time></trkpt><trkpt lat="42.08469796497809" lon="13.623683204101477"><ele>1171.4</ele><time>2026-05-02T11:43:03Z</time></trkpt><trkpt lat="42.084598654544784" lon="13.623759376620596"><ele>1170.8000000000002</ele><time>2026-05-02T11:43:04Z</time></trkpt><trkpt lat="42.084509135504774" lon="13.623826099789818"><ele>1170.2</ele><time>2026-05-02T11:43:05Z</time></trkpt><trkpt lat="42.08443170231481" lon="13.623879624163097"><ele>1169.6000000000001</ele><time>2026-05-02T11:43:06Z</time></trkpt><trkpt lat="42.084357352718435" lon="13.623927958078314"><ele>1169.0</ele><time>2026-05-02T11:43:07.001Z</time></trkpt><trkpt lat="42.08428515218112" lon="13.623975762542866"><ele>1169.0</ele><time>2026-05-02T11:43:08.001Z</time></trkpt><trkpt lat="42.084216777150296" lon="13.624034304583374"><ele>1169.0</ele><time>2026-05-02T11:43:09.001Z</time></trkpt><trkpt lat="42.084152839160666" lon="13.624100823035555"><ele>1169.0</ele><time>2026-05-02T11:43:10.001Z</time></trkpt><trkpt lat="42.08410660813166" lon="13.624170358195036"><ele>1169.0</ele><time>2026-05-02T11:43:11.001Z</time></trkpt><trkpt lat="42.0840714574523" lon="13.624244251151644"><ele>1169.0</ele><time>2026-05-02T11:43:12.001Z</time></trkpt><trkpt lat="42.08403247186992" lon="13.624387304941026"><ele>1169.0</ele><time>2026-05-02T11:43:14.001Z</time></trkpt><trkpt lat="42.08399601043406" lon="13.624543745643797"><ele>1168.1666666666667</ele><time>2026-05-02T11:43:16.001Z</time></trkpt><trkpt lat="42.08398105526664" lon="13.624636325849242"><ele>1167.3333333333335</ele><time>2026-05-02T11:43:17.001Z</time></trkpt><trkpt lat="42.083967365410764" lon="13.624737824597146"><ele>1166.5</ele><time>2026-05-02T11:43:18.001Z</time></trkpt><trkpt lat="42.08395226853614" lon="13.624845877016263"><ele>1165.6666666666667</ele><time>2026-05-02T11:43:19.001Z</time></trkpt><trkpt lat="42.083937330634036" lon="13.624952678843387"><ele>1164.8333333333333</ele><time>2026-05-02T11:43:20.001Z</time></trkpt><trkpt lat="42.08392278870449" lon="13.62505961406867"><ele>1164.0</ele><time>2026-05-02T11:43:21.001Z</time></trkpt><trkpt lat="42.08390943085293" lon="13.625167789837997"><ele>1164.0</ele><time>2026-05-02T11:43:22.001Z</time></trkpt><trkpt lat="42.08389358041987" lon="13.625279680845935"><ele>1164.0</ele><time>2026-05-02T11:43:23.001Z</time></trkpt><trkpt lat="42.08387879971234" lon="13.62539192529432"><ele>1164.0</ele><time>2026-05-02T11:43:24.001Z</time></trkpt><trkpt lat="42.083865116070314" lon="13.625494702935455"><ele>1164.0</ele><time>2026-05-02T11:43:25.001Z</time></trkpt><trkpt lat="42.08385277394915" lon="13.625592653444686"><ele>1164.0</ele><time>2026-05-02T11:43:26.001Z</time></trkpt><trkpt lat="42.08384117470899" lon="13.625682809001963"><ele>1164.0</ele><time>2026-05-02T11:43:27.001Z</time></trkpt><trkpt lat="42.08382927215398" lon="13.62577898724247"><ele>1162.5</ele><time>2026-05-02T11:43:28.001Z</time></trkpt><trkpt lat="42.08381735809329" lon="13.625871096544865"><ele>1161.0</ele><time>2026-05-02T11:43:29.001Z</time></trkpt><trkpt lat="42.08380745753516" lon="13.625981968538502"><ele>1159.5</ele><time>2026-05-02T11:43:30.001Z</time></trkpt><trkpt lat="42.08379502902124" lon="13.626091609561417"><ele>1158.0</ele><time>2026-05-02T11:43:31.001Z</time></trkpt><trkpt lat="42.083783948110316" lon="13.626199425903277"><ele>1156.5</ele><time>2026-05-02T11:43:32.001Z</time></trkpt><trkpt lat="42.083767557594584" lon="13.626307386351964"><ele>1155.0</ele><time>2026-05-02T11:43:33.001Z</time></trkpt><trkpt lat="42.08375249020094" lon="13.626408645014816"><ele>1153.1666666666667</ele><time>2026-05-02T11:43:34.001Z</time></trkpt><trkpt lat="42.08373934437443" lon="13.626502827399214"><ele>1151.3333333333333</ele><time>2026-05-02T11:43:35.001Z</time></trkpt><trkpt lat="42.083727243594275" lon="13.626594281834743"><ele>1149.5</ele><time>2026-05-02T11:43:36.001Z</time></trkpt><trkpt lat="42.083714962961615" lon="13.626682223378104"><ele>1147.6666666666665</ele><time>2026-05-02T11:43:37.001Z</time></trkpt><trkpt lat="42.08368723539426" lon="13.62684276305686"><ele>1145.8333333333333</ele><time>2026-05-02T11:43:39.001Z</time></trkpt><trkpt lat="42.08365426322216" lon="13.626960856055849"><ele>1144.0</ele><time>2026-05-02T11:43:41.001Z</time></trkpt><trkpt lat="42.08359882257994" lon="13.627048341975522"><ele>1142.6666666666665</ele><time>2026-05-02T11:43:43.001Z</time></trkpt><trkpt lat="42.08351218875624" lon="13.627128895872524"><ele>1141.3333333333333</ele><time>2026-05-02T11:43:45.001Z</time></trkpt><trkpt lat="42.083441350451615" lon="13.627175063275674"><ele>1140.0</ele><time>2026-05-02T11:43:46.001Z</time></trkpt><trkpt lat="42.08337102016786" lon="13.627221819615198"><ele>1138.6666666666667</ele><time>2026-05-02T11:43:47.001Z</time></trkpt><trkpt lat="42.08329201635244" lon="13.627266128429818"><ele>1137.3333333333335</ele><time>2026-05-02T11:43:48.001Z</time></trkpt><trkpt lat="42.083216193859656" lon="13.627298935793153"><ele>1136.0</ele><time>2026-05-02T11:43:49.001Z</time></trkpt><trkpt lat="42.0831397860649" lon="13.627319263420274"><ele>1135.8333333333335</ele><time>2026-05-02T11:43:50.001Z</time></trkpt><trkpt lat="42.083059213375265" lon="13.627321725523148"><ele>1135.6666666666667</ele><time>2026-05-02T11:43:51.001Z</time></trkpt><trkpt lat="42.08298075575014" lon="13.627307140819076"><ele>1135.5</ele><time>2026-05-02T11:43:52.001Z</time></trkpt><trkpt lat="42.082900957697426" lon="13.627282490997153"><ele>1135.3333333333333</ele><time>2026-05-02T11:43:53.001Z</time></trkpt><trkpt lat="42.082814923566126" lon="13.627259239536125"><ele>1135.1666666666665</ele><time>2026-05-02T11:43:54.001Z</time></trkpt><trkpt lat="42.08271410783469" lon="13.627229538200897"><ele>1135.0</ele><time>2026-05-02T11:43:55.001Z</time></trkpt><trkpt lat="42.08264043784388" lon="13.627205504941946"><ele>1135.0</ele><time>2026-05-02T11:43:56.001Z</time></trkpt><trkpt lat="42.082549868031535" lon="13.627154058484182"><ele>1135.0</ele><time>2026-05-02T11:43:58.001Z</time></trkpt><trkpt lat="42.08247992828546" lon="13.627122755344272"><ele>1135.0</ele><time>2026-05-02T11:44:01.001Z</time></trkpt><trkpt lat="42.08256427038117" lon="13.62714502585073"><ele>1135.0</ele><time>2026-05-02T11:44:26.001Z</time></trkpt><trkpt lat="42.082637264934405" lon="13.62717272356951"><ele>1135.0</ele><time>2026-05-02T11:44:27.001Z</time></trkpt><trkpt lat="42.082742797663634" lon="13.627223096282169"><ele>1135.0</ele><time>2026-05-02T11:44:29.001Z</time></trkpt><trkpt lat="42.08285107182276" lon="13.627252087776121"><ele>1135.0</ele><time>2026-05-02T11:44:31.001Z</time></trkpt><trkpt lat="42.08296878043299" lon="13.627275359617597"><ele>1135.0</ele><time>2026-05-02T11:44:33.001Z</time></trkpt><trkpt lat="42.08309101812298" lon="13.627293098122355"><ele>1135.0</ele><time>2026-05-02T11:44:35.001Z</time></trkpt><trkpt lat="42.08321614625301" lon="13.627273465264528"><ele>1135.0</ele><time>2026-05-02T11:44:37.001Z</time></trkpt><trkpt lat="42.083288773289304" lon="13.627243902020798"><ele>1135.0</ele><time>2026-05-02T11:44:38.001Z</time></trkpt><trkpt lat="42.083357400999226" lon="13.627205360472473"><ele>1135.1666666666665</ele><time>2026-05-02T11:44:39.001Z</time></trkpt><trkpt lat="42.08341979183455" lon="13.627164811364691"><ele>1135.3333333333333</ele><time>2026-05-02T11:44:40.001Z</time></trkpt><trkpt lat="42.083476645387755" lon="13.627125514545632"><ele>1135.5</ele><time>2026-05-02T11:44:41.001Z</time></trkpt><trkpt lat="42.08355430844573" lon="13.627088588768277"><ele>1135.6666666666667</ele><time>2026-05-02T11:44:43.001Z</time></trkpt><trkpt lat="42.083614215765934" lon="13.627186039343494"><ele>1135.8333333333335</ele><time>2026-05-02T11:44:46.001Z</time></trkpt><trkpt lat="42.083585094066606" lon="13.627340641710143"><ele>1136.0</ele><time>2026-05-02T11:44:48.001Z</time></trkpt><trkpt lat="42.08355028216492" lon="13.627427643916665"><ele>1136.0</ele><time>2026-05-02T11:44:49.001Z</time></trkpt><trkpt lat="42.08351050416419" lon="13.627505590572321"><ele>1136.0</ele><time>2026-05-02T11:44:50.001Z</time></trkpt><trkpt lat="42.083461162946826" lon="13.62758110923016"><ele>1136.0</ele><time>2026-05-02T11:44:51.001Z</time></trkpt><trkpt lat="42.083401015101586" lon="13.62765121569525"><ele>1136.0</ele><time>2026-05-02T11:44:52.001Z</time></trkpt><trkpt lat="42.08333160521879" lon="13.627707047837639"><ele>1136.0</ele><time>2026-05-02T11:44:53.001Z</time></trkpt><trkpt lat="42.083246150568385" lon="13.627764143690603"><ele>1136.0</ele><time>2026-05-02T11:44:54.001Z</time></trkpt><trkpt lat="42.08315935691035" lon="13.62782571510902"><ele>1134.1666666666667</ele><time>2026-05-02T11:44:55.001Z</time></trkpt><trkpt lat="42.083072843309616" lon="13.627885425647532"><ele>1132.3333333333335</ele><time>2026-05-02T11:44:56.001Z</time></trkpt><trkpt lat="42.082993921457664" lon="13.627938448332918"><ele>1130.5</ele><time>2026-05-02T11:44:57.001Z</time></trkpt><trkpt lat="42.08291840381836" lon="13.627987899970298"><ele>1128.6666666666667</ele><time>2026-05-02T11:44:58.001Z</time></trkpt><trkpt lat="42.082844668840174" lon="13.628038009140877"><ele>1126.8333333333333</ele><time>2026-05-02T11:44:59.001Z</time></trkpt><trkpt lat="42.08277771949271" lon="13.628083819078736"><ele>1125.0</ele><time>2026-05-02T11:45:00.001Z</time></trkpt><trkpt lat="42.082710113236175" lon="13.628133155436347"><ele>1125.0</ele><time>2026-05-02T11:45:01.001Z</time></trkpt><trkpt lat="42.082641108328765" lon="13.628181608031756"><ele>1125.0</ele><time>2026-05-02T11:45:02.001Z</time></trkpt><trkpt lat="42.08256818088821" lon="13.628227220666027"><ele>1125.0</ele><time>2026-05-02T11:45:03.001Z</time></trkpt><trkpt lat="42.082503279088606" lon="13.628276623898389"><ele>1125.0</ele><time>2026-05-02T11:45:04.001Z</time></trkpt><trkpt lat="42.08243363874702" lon="13.628329882810268"><ele>1125.0</ele><time>2026-05-02T11:45:05.001Z</time></trkpt><trkpt lat="42.08237063035885" lon="13.628377690934144"><ele>1125.0</ele><time>2026-05-02T11:45:06.001Z</time></trkpt><trkpt lat="42.08230582335001" lon="13.628422255296924"><ele>1123.8333333333333</ele><time>2026-05-02T11:45:07.001Z</time></trkpt><trkpt lat="42.08223976091097" lon="13.628464097584095"><ele>1122.6666666666667</ele><time>2026-05-02T11:45:08.001Z</time></trkpt><trkpt lat="42.082173134008485" lon="13.628502313652014"><ele>1121.5</ele><time>2026-05-02T11:45:09.001Z</time></trkpt><trkpt lat="42.08210897542233" lon="13.628536798876375"><ele>1120.3333333333335</ele><time>2026-05-02T11:45:10.001Z</time></trkpt><trkpt lat="42.08199536634512" lon="13.628585472478582"><ele>1119.1666666666667</ele><time>2026-05-02T11:45:12.001Z</time></trkpt><trkpt lat="42.08189506069819" lon="13.628609717861837"><ele>1118.0</ele><time>2026-05-02T11:45:14.001Z</time></trkpt><trkpt lat="42.08180227651436" lon="13.628607605341099"><ele>1118.0</ele><time>2026-05-02T11:45:16.001Z</time></trkpt><trkpt lat="42.08168013599772" lon="13.62857767404022"><ele>1118.0</ele><time>2026-05-02T11:45:18.001Z</time></trkpt><trkpt lat="42.08161708784073" lon="13.628551506398646"><ele>1118.0</ele><time>2026-05-02T11:45:19.001Z</time></trkpt><trkpt lat="42.08155823690789" lon="13.628519139520849"><ele>1118.0</ele><time>2026-05-02T11:45:20.001Z</time></trkpt><trkpt lat="42.081480637885086" lon="13.6284749546951"><ele>1118.0</ele><time>2026-05-02T11:45:22.001Z</time></trkpt><trkpt lat="42.08141237267292" lon="13.628446975156434"><ele>1118.0</ele><time>2026-05-02T11:45:30.001Z</time></trkpt><trkpt lat="42.081305897526555" lon="13.628402733737188"><ele>1115.3333333333335</ele><time>2026-05-02T11:45:32.001Z</time></trkpt><trkpt lat="42.081192452569994" lon="13.628321050539574"><ele>1112.6666666666667</ele><time>2026-05-02T11:45:34.001Z</time></trkpt><trkpt lat="42.08113478146535" lon="13.628271449274969"><ele>1110.0</ele><time>2026-05-02T11:45:35.001Z</time></trkpt><trkpt lat="42.08107577225841" lon="13.628212319358427"><ele>1107.3333333333333</ele><time>2026-05-02T11:45:36.001Z</time></trkpt><trkpt lat="42.081021768441424" lon="13.628145849874478"><ele>1104.6666666666665</ele><time>2026-05-02T11:45:37.001Z</time></trkpt><trkpt lat="42.080963989743516" lon="13.628066494862187"><ele>1102.0</ele><time>2026-05-02T11:45:38.001Z</time></trkpt><trkpt lat="42.0809037696096" lon="13.627980826282467"><ele>1102.0</ele><time>2026-05-02T11:45:39.001Z</time></trkpt><trkpt lat="42.08084203525597" lon="13.62789839432594"><ele>1102.0</ele><time>2026-05-02T11:45:40.001Z</time></trkpt><trkpt lat="42.08077644695308" lon="13.627816504019409"><ele>1102.0</ele><time>2026-05-02T11:45:41.001Z</time></trkpt><trkpt lat="42.08070714429548" lon="13.627722334750354"><ele>1102.0</ele><time>2026-05-02T11:45:42.001Z</time></trkpt><trkpt lat="42.080644242809825" lon="13.627623516931912"><ele>1102.0</ele><time>2026-05-02T11:45:43.001Z</time></trkpt><trkpt lat="42.08058449423902" lon="13.627521045171399"><ele>1100.6666666666665</ele><time>2026-05-02T11:45:44.001Z</time></trkpt><trkpt lat="42.08052550451892" lon="13.627419239469404"><ele>1099.3333333333333</ele><time>2026-05-02T11:45:45.001Z</time></trkpt><trkpt lat="42.08047322337314" lon="13.627336181353725"><ele>1098.0</ele><time>2026-05-02T11:45:46.001Z</time></trkpt><trkpt lat="42.080423282086514" lon="13.627248950194167"><ele>1096.6666666666667</ele><time>2026-05-02T11:45:47.001Z</time></trkpt><trkpt lat="42.08037908566851" lon="13.627154807400066"><ele>1095.3333333333335</ele><time>2026-05-02T11:45:48.001Z</time></trkpt><trkpt lat="42.08034712070858" lon="13.627055612616116"><ele>1094.0</ele><time>2026-05-02T11:45:49.001Z</time></trkpt><trkpt lat="42.080322521803936" lon="13.62693977777238"><ele>1094.0</ele><time>2026-05-02T11:45:50.001Z</time></trkpt><trkpt lat="42.080312751128744" lon="13.626817677998691"><ele>1094.0</ele><time>2026-05-02T11:45:51.001Z</time></trkpt><trkpt lat="42.08031618056214" lon="13.626696007047045"><ele>1094.0</ele><time>2026-05-02T11:45:52.001Z</time></trkpt><trkpt lat="42.08033276866421" lon="13.626580122539659"><ele>1094.0</ele><time>2026-05-02T11:45:53.001Z</time></trkpt><trkpt lat="42.08035979659214" lon="13.62646454003323"><ele>1094.0</ele><time>2026-05-02T11:45:54.001Z</time></trkpt><trkpt lat="42.08039426698291" lon="13.626349076429038"><ele>1094.0</ele><time>2026-05-02T11:45:55.001Z</time></trkpt><trkpt lat="42.08042577041339" lon="13.62621901234367"><ele>1094.0</ele><time>2026-05-02T11:45:56.001Z</time></trkpt><trkpt lat="42.0804469326715" lon="13.62610225876184"><ele>1094.0</ele><time>2026-05-02T11:45:57.001Z</time></trkpt><trkpt lat="42.08044822944014" lon="13.626001620368628"><ele>1094.0</ele><time>2026-05-02T11:45:58.001Z</time></trkpt><trkpt lat="42.080431269385144" lon="13.62589308869629"><ele>1094.0</ele><time>2026-05-02T11:45:59.001Z</time></trkpt><trkpt lat="42.08040426112748" lon="13.625783154783445"><ele>1094.0</ele><time>2026-05-02T11:46:00.001Z</time></trkpt><trkpt lat="42.08037747512218" lon="13.625659882630602"><ele>1094.4</ele><time>2026-05-02T11:46:01.001Z</time></trkpt><trkpt lat="42.08035986528155" lon="13.62553708686471"><ele>1094.8000000000002</ele><time>2026-05-02T11:46:02.001Z</time></trkpt><trkpt lat="42.08035098107517" lon="13.625407258671435"><ele>1095.1999999999998</ele><time>2026-05-02T11:46:03.001Z</time></trkpt><trkpt lat="42.08034334833329" lon="13.62527346115004"><ele>1095.6</ele><time>2026-05-02T11:46:04.001Z</time></trkpt><trkpt lat="42.08034105091248" lon="13.625142595330876"><ele>1096.0</ele><time>2026-05-02T11:46:05.001Z</time></trkpt><trkpt lat="42.080337301619174" lon="13.62501429759422"><ele>1096.6</ele><time>2026-05-02T11:46:06.001Z</time></trkpt><trkpt lat="42.08033524873441" lon="13.624884574666702"><ele>1097.1999999999998</ele><time>2026-05-02T11:46:07.001Z</time></trkpt><trkpt lat="42.080336139600256" lon="13.624756578987533"><ele>1097.8000000000002</ele><time>2026-05-02T11:46:08.001Z</time></trkpt><trkpt lat="42.08033748857558" lon="13.624628420104521"><ele>1098.4</ele><time>2026-05-02T11:46:09.001Z</time></trkpt><trkpt lat="42.080350909778254" lon="13.62450016576195"><ele>1099.0</ele><time>2026-05-02T11:46:10.001Z</time></trkpt><trkpt lat="42.08037896114109" lon="13.624383628433364"><ele>1099.0</ele><time>2026-05-02T11:46:11.001Z</time></trkpt><trkpt lat="42.08042014344693" lon="13.624270595209842"><ele>1099.0</ele><time>2026-05-02T11:46:12.001Z</time></trkpt><trkpt lat="42.08045510038739" lon="13.624158514463673"><ele>1099.0</ele><time>2026-05-02T11:46:13.001Z</time></trkpt><trkpt lat="42.08046465232687" lon="13.62404078253554"><ele>1099.0</ele><time>2026-05-02T11:46:14.001Z</time></trkpt><trkpt lat="42.080453841996615" lon="13.623915069008419"><ele>1099.0</ele><time>2026-05-02T11:46:15.001Z</time></trkpt><trkpt lat="42.08042797688111" lon="13.623777809134223"><ele>1099.8</ele><time>2026-05-02T11:46:16.001Z</time></trkpt><trkpt lat="42.08040274029779" lon="13.623639010006736"><ele>1100.6000000000001</ele><time>2026-05-02T11:46:17.001Z</time></trkpt><trkpt lat="42.08037950797434" lon="13.623492231574563"><ele>1101.4</ele><time>2026-05-02T11:46:18.001Z</time></trkpt><trkpt lat="42.080365620545734" lon="13.6233508844774"><ele>1102.2</ele><time>2026-05-02T11:46:19.001Z</time></trkpt><trkpt lat="42.080364206059265" lon="13.623216754058593"><ele>1103.0</ele><time>2026-05-02T11:46:20.001Z</time></trkpt><trkpt lat="42.08037561125207" lon="13.62308558591111"><ele>1103.0</ele><time>2026-05-02T11:46:21.001Z</time></trkpt><trkpt lat="42.0803903083363" lon="13.622958147015307"><ele>1103.0</ele><time>2026-05-02T11:46:22.001Z</time></trkpt><trkpt lat="42.08040839012965" lon="13.622845272655708"><ele>1103.0</ele><time>2026-05-02T11:46:23.001Z</time></trkpt><trkpt lat="42.08042734652592" lon="13.622744458441433"><ele>1103.0</ele><time>2026-05-02T11:46:24.001Z</time></trkpt><trkpt lat="42.080440854830385" lon="13.622644902097155"><ele>1103.0</ele><time>2026-05-02T11:46:25.001Z</time></trkpt><trkpt lat="42.080446534283666" lon="13.622546914161912"><ele>1103.0</ele><time>2026-05-02T11:46:26.001Z</time></trkpt><trkpt lat="42.080453278372836" lon="13.622454018995853"><ele>1102.6666666666667</ele><time>2026-05-02T11:46:27.001Z</time></trkpt><trkpt lat="42.08047037133358" lon="13.622367545461643"><ele>1102.3333333333335</ele><time>2026-05-02T11:46:28.001Z</time></trkpt><trkpt lat="42.08050364210227" lon="13.622275795605871"><ele>1102.0</ele><time>2026-05-02T11:46:29.001Z</time></trkpt><trkpt lat="42.080546983797745" lon="13.622183421785895"><ele>1101.6666666666667</ele><time>2026-05-02T11:46:30.001Z</time></trkpt><trkpt lat="42.08059037304826" lon="13.622092614745888"><ele>1101.3333333333333</ele><time>2026-05-02T11:46:31.001Z</time></trkpt><trkpt lat="42.08063197337841" lon="13.622006040194632"><ele>1101.0</ele><time>2026-05-02T11:46:32.001Z</time></trkpt><trkpt lat="42.080680009251104" lon="13.621920731694386"><ele>1100.1666666666667</ele><time>2026-05-02T11:46:33.001Z</time></trkpt><trkpt lat="42.08073199959173" lon="13.621844582874626"><ele>1099.3333333333333</ele><time>2026-05-02T11:46:34.001Z</time></trkpt><trkpt lat="42.0807960847253" lon="13.621768611371365"><ele>1098.5</ele><time>2026-05-02T11:46:35.001Z</time></trkpt><trkpt lat="42.08085653692602" lon="13.621703420549984"><ele>1097.6666666666665</ele><time>2026-05-02T11:46:36.001Z</time></trkpt><trkpt lat="42.08090790099074" lon="13.62163084179274"><ele>1096.8333333333333</ele><time>2026-05-02T11:46:37.001Z</time></trkpt><trkpt lat="42.08094675238246" lon="13.6215355764221"><ele>1096.0</ele><time>2026-05-02T11:46:38.001Z</time></trkpt><trkpt lat="42.08097349619508" lon="13.621425022371136"><ele>1098.1666666666665</ele><time>2026-05-02T11:46:39.001Z</time></trkpt><trkpt lat="42.08100366285571" lon="13.621315981623757"><ele>1100.3333333333333</ele><time>2026-05-02T11:46:40.001Z</time></trkpt><trkpt lat="42.081043640090854" lon="13.621221092431037"><ele>1102.5</ele><time>2026-05-02T11:46:41.001Z</time></trkpt><trkpt lat="42.08108750374587" lon="13.621123553351019"><ele>1104.6666666666667</ele><time>2026-05-02T11:46:42.001Z</time></trkpt><trkpt lat="42.081131285493164" lon="13.621018539807064"><ele>1106.8333333333335</ele><time>2026-05-02T11:46:43.001Z</time></trkpt><trkpt lat="42.08116288124128" lon="13.620913345936183"><ele>1109.0</ele><time>2026-05-02T11:46:44.001Z</time></trkpt><trkpt lat="42.081193888021545" lon="13.620799648495023"><ele>1109.0</ele><time>2026-05-02T11:46:45.001Z</time></trkpt><trkpt lat="42.08122188826622" lon="13.62069200669492"><ele>1109.0</ele><time>2026-05-02T11:46:46.001Z</time></trkpt><trkpt lat="42.081244474970546" lon="13.620580412653412"><ele>1109.0</ele><time>2026-05-02T11:46:47.001Z</time></trkpt><trkpt lat="42.08126540580402" lon="13.620467827410895"><ele>1109.0</ele><time>2026-05-02T11:46:48.001Z</time></trkpt><trkpt lat="42.08128770460352" lon="13.620362949024848"><ele>1109.0</ele><time>2026-05-02T11:46:49.001Z</time></trkpt><trkpt lat="42.08131807156209" lon="13.620258705402122"><ele>1109.0</ele><time>2026-05-02T11:46:50.001Z</time></trkpt><trkpt lat="42.08135161473363" lon="13.620153610903795"><ele>1107.8333333333335</ele><time>2026-05-02T11:46:51.001Z</time></trkpt><trkpt lat="42.081383021798096" lon="13.62006294531316"><ele>1106.6666666666667</ele><time>2026-05-02T11:46:52.001Z</time></trkpt><trkpt lat="42.08141220550286" lon="13.619957892158558"><ele>1105.5</ele><time>2026-05-02T11:46:53.001Z</time></trkpt><trkpt lat="42.08143519925662" lon="13.619855655094916"><ele>1104.3333333333333</ele><time>2026-05-02T11:46:54.001Z</time></trkpt><trkpt lat="42.08146026919341" lon="13.619750439292218"><ele>1103.1666666666665</ele><time>2026-05-02T11:46:55.001Z</time></trkpt><trkpt lat="42.081480777948045" lon="13.619653867813621"><ele>1102.0</ele><time>2026-05-02T11:46:56.001Z</time></trkpt><trkpt lat="42.08150530964706" lon="13.619564300758467"><ele>1102.9999999999998</ele><time>2026-05-02T11:46:57.001Z</time></trkpt><trkpt lat="42.08152841924605" lon="13.619478439497536"><ele>1104.0</ele><time>2026-05-02T11:46:58.001Z</time></trkpt><trkpt lat="42.081554644574446" lon="13.619390268468372"><ele>1105.0</ele><time>2026-05-02T11:46:59.001Z</time></trkpt><trkpt lat="42.08158505026218" lon="13.619293818857384"><ele>1106.0</ele><time>2026-05-02T11:47:00.001Z</time></trkpt><trkpt lat="42.081612742477695" lon="13.619202770996058"><ele>1107.0</ele><time>2026-05-02T11:47:01.001Z</time></trkpt><trkpt lat="42.081635096830084" lon="13.619117671161602"><ele>1107.9999999999998</ele><time>2026-05-02T11:47:02.001Z</time></trkpt><trkpt lat="42.08166173524536" lon="13.619018967428639"><ele>1109.0</ele><time>2026-05-02T11:47:03.001Z</time></trkpt><trkpt lat="42.08169065507812" lon="13.618919790488846"><ele>1109.0</ele><time>2026-05-02T11:47:04.001Z</time></trkpt><trkpt lat="42.08173405128035" lon="13.618798677483474"><ele>1109.0</ele><time>2026-05-02T11:47:05.001Z</time></trkpt><trkpt lat="42.08177234346153" lon="13.61868831575942"><ele>1109.0</ele><time>2026-05-02T11:47:06.001Z</time></trkpt><trkpt lat="42.08180394677749" lon="13.618583899425623"><ele>1109.0</ele><time>2026-05-02T11:47:07.001Z</time></trkpt><trkpt lat="42.08183029501233" lon="13.618493792483928"><ele>1109.0</ele><time>2026-05-02T11:47:08.001Z</time></trkpt><trkpt lat="42.081857839173104" lon="13.618404205554512"><ele>1109.0</ele><time>2026-05-02T11:47:09.001Z</time></trkpt><trkpt lat="42.081891559699116" lon="13.61830852206785"><ele>1107.1666666666667</ele><time>2026-05-02T11:47:10.001Z</time></trkpt><trkpt lat="42.08192434751696" lon="13.618206896977428"><ele>1105.3333333333335</ele><time>2026-05-02T11:47:11.001Z</time></trkpt><trkpt lat="42.08195228431874" lon="13.618108244474872"><ele>1103.5</ele><time>2026-05-02T11:47:12.001Z</time></trkpt><trkpt lat="42.081978885356506" lon="13.6180128537174"><ele>1101.6666666666667</ele><time>2026-05-02T11:47:13.001Z</time></trkpt><trkpt lat="42.082005339933296" lon="13.617912266292393"><ele>1099.8333333333333</ele><time>2026-05-02T11:47:14.001Z</time></trkpt><trkpt lat="42.082036273216" lon="13.617801829975813"><ele>1098.0</ele><time>2026-05-02T11:47:15.001Z</time></trkpt><trkpt lat="42.08206625151179" lon="13.617689886436633"><ele>1096.1666666666667</ele><time>2026-05-02T11:47:16.001Z</time></trkpt><trkpt lat="42.08208885759183" lon="13.617586662190044"><ele>1094.3333333333333</ele><time>2026-05-02T11:47:17.001Z</time></trkpt><trkpt lat="42.08210945363867" lon="13.617483546235645"><ele>1092.5</ele><time>2026-05-02T11:47:18.001Z</time></trkpt><trkpt lat="42.082124493210884" lon="13.617379702179004"><ele>1090.6666666666665</ele><time>2026-05-02T11:47:19.001Z</time></trkpt><trkpt lat="42.082141686457405" lon="13.617280077939526"><ele>1088.8333333333333</ele><time>2026-05-02T11:47:20.001Z</time></trkpt><trkpt lat="42.08215956213061" lon="13.617187578745787"><ele>1087.0</ele><time>2026-05-02T11:47:21.001Z</time></trkpt><trkpt lat="42.08217662150078" lon="13.617093946315116"><ele>1087.0</ele><time>2026-05-02T11:47:22.001Z</time></trkpt><trkpt lat="42.08219546548365" lon="13.616998994595454"><ele>1087.0</ele><time>2026-05-02T11:47:23.001Z</time></trkpt><trkpt lat="42.082215068693635" lon="13.616911680694509"><ele>1087.0</ele><time>2026-05-02T11:47:24.001Z</time></trkpt><trkpt lat="42.08224234281334" lon="13.616745493586121"><ele>1087.0</ele><time>2026-05-02T11:47:26.001Z</time></trkpt><trkpt lat="42.082225752760046" lon="13.616576302786543"><ele>1087.0</ele><time>2026-05-02T11:47:28.001Z</time></trkpt><trkpt lat="42.08221422911032" lon="13.61648727832402"><ele>1085.8333333333333</ele><time>2026-05-02T11:47:29.001Z</time></trkpt><trkpt lat="42.082209881023694" lon="13.616393470689454"><ele>1084.6666666666665</ele><time>2026-05-02T11:47:30.001Z</time></trkpt><trkpt lat="42.082208047781165" lon="13.61628189697137"><ele>1083.5</ele><time>2026-05-02T11:47:31.001Z</time></trkpt><trkpt lat="42.08220787040976" lon="13.616157734615097"><ele>1082.3333333333333</ele><time>2026-05-02T11:47:32.001Z</time></trkpt><trkpt lat="42.08220067563046" lon="13.61605843902198"><ele>1081.1666666666667</ele><time>2026-05-02T11:47:33.001Z</time></trkpt><trkpt lat="42.08220426537077" lon="13.615942737597717"><ele>1080.0</ele><time>2026-05-02T11:47:34.001Z</time></trkpt><trkpt lat="42.082204598602964" lon="13.615835889967885"><ele>1078.6666666666667</ele><time>2026-05-02T11:47:35.001Z</time></trkpt><trkpt lat="42.08220634556231" lon="13.615726609049213"><ele>1077.3333333333333</ele><time>2026-05-02T11:47:36.001Z</time></trkpt><trkpt lat="42.08220929734017" lon="13.615626434700744"><ele>1076.0</ele><time>2026-05-02T11:47:37.001Z</time></trkpt><trkpt lat="42.08220914270337" lon="13.615533918002896"><ele>1074.6666666666665</ele><time>2026-05-02T11:47:38.001Z</time></trkpt><trkpt lat="42.08220216012772" lon="13.615444594613203"><ele>1073.3333333333333</ele><time>2026-05-02T11:47:39.001Z</time></trkpt><trkpt lat="42.08219791813431" lon="13.615295270170428"><ele>1072.0</ele><time>2026-05-02T11:47:41.001Z</time></trkpt><trkpt lat="42.082192021076885" lon="13.615198312122564"><ele>1071.0</ele><time>2026-05-02T11:47:42.001Z</time></trkpt><trkpt lat="42.08218542694695" lon="13.615092801642222"><ele>1070.0</ele><time>2026-05-02T11:47:43.001Z</time></trkpt><trkpt lat="42.08217933781044" lon="13.61498552454893"><ele>1069.0</ele><time>2026-05-02T11:47:44.001Z</time></trkpt><trkpt lat="42.0821759601127" lon="13.614883688542514"><ele>1068.0</ele><time>2026-05-02T11:47:45.001Z</time></trkpt><trkpt lat="42.082171050999264" lon="13.61476809249934"><ele>1067.0</ele><time>2026-05-02T11:47:46.001Z</time></trkpt><trkpt lat="42.08217115930554" lon="13.614650171889123"><ele>1066.0</ele><time>2026-05-02T11:47:47.001Z</time></trkpt><trkpt lat="42.08216756743363" lon="13.61452454343849"><ele>1064.8333333333333</ele><time>2026-05-02T11:47:48.001Z</time></trkpt><trkpt lat="42.08216120423172" lon="13.614407600527212"><ele>1063.6666666666665</ele><time>2026-05-02T11:47:49.001Z</time></trkpt><trkpt lat="42.082157807904586" lon="13.614293973340194"><ele>1062.5</ele><time>2026-05-02T11:47:50.001Z</time></trkpt><trkpt lat="42.08215359945949" lon="13.614195602156393"><ele>1061.3333333333333</ele><time>2026-05-02T11:47:51.001Z</time></trkpt><trkpt lat="42.0821495704658" lon="13.614092324375966"><ele>1060.1666666666667</ele><time>2026-05-02T11:47:52.001Z</time></trkpt><trkpt lat="42.08214373827024" lon="13.613987734429726"><ele>1059.0</ele><time>2026-05-02T11:47:53.001Z</time></trkpt><trkpt lat="42.08213980478699" lon="13.613870563042545"><ele>1059.0</ele><time>2026-05-02T11:47:54.001Z</time></trkpt><trkpt lat="42.082133225473804" lon="13.613737608901761"><ele>1059.0</ele><time>2026-05-02T11:47:55.001Z</time></trkpt><trkpt lat="42.08212587927305" lon="13.61362951291274"><ele>1059.0</ele><time>2026-05-02T11:47:56.001Z</time></trkpt><trkpt lat="42.08211198042651" lon="13.613504334205166"><ele>1059.0</ele><time>2026-05-02T11:47:57.001Z</time></trkpt><trkpt lat="42.082101946566965" lon="13.613401021997841"><ele>1059.0</ele><time>2026-05-02T11:47:58.001Z</time></trkpt><trkpt lat="42.082097288446484" lon="13.613290757136241"><ele>1059.0</ele><time>2026-05-02T11:47:59.001Z</time></trkpt><trkpt lat="42.082092213662406" lon="13.613188518174828"><ele>1058.1666666666667</ele><time>2026-05-02T11:48:00.001Z</time></trkpt><trkpt lat="42.082087027075204" lon="13.613071422559873"><ele>1057.3333333333333</ele><time>2026-05-02T11:48:01.001Z</time></trkpt><trkpt lat="42.08208362296268" lon="13.612955548837434"><ele>1056.5</ele><time>2026-05-02T11:48:02.001Z</time></trkpt><trkpt lat="42.08208246059569" lon="13.612849023400305"><ele>1055.6666666666665</ele><time>2026-05-02T11:48:03.001Z</time></trkpt><trkpt lat="42.08207652614367" lon="13.612716967535661"><ele>1054.8333333333333</ele><time>2026-05-02T11:48:04.001Z</time></trkpt><trkpt lat="42.08207649803397" lon="13.612618301341492"><ele>1054.0</ele><time>2026-05-02T11:48:05.001Z</time></trkpt><trkpt lat="42.08207595130291" lon="13.612503772517472"><ele>1053.1666666666665</ele><time>2026-05-02T11:48:06.001Z</time></trkpt><trkpt lat="42.082069402733076" lon="13.61241032215924"><ele>1052.3333333333333</ele><time>2026-05-02T11:48:07.001Z</time></trkpt><trkpt lat="42.08206145522352" lon="13.612314364330386"><ele>1051.5</ele><time>2026-05-02T11:48:08.001Z</time></trkpt><trkpt lat="42.08204728500637" lon="13.6122167487583"><ele>1050.6666666666667</ele><time>2026-05-02T11:48:09.001Z</time></trkpt><trkpt lat="42.08204496363217" lon="13.612126017240781"><ele>1049.8333333333335</ele><time>2026-05-02T11:48:10.001Z</time></trkpt><trkpt lat="42.08203712948005" lon="13.611965780891913"><ele>1049.0</ele><time>2026-05-02T11:48:12.001Z</time></trkpt><trkpt lat="42.08202692000304" lon="13.61181179563588"><ele>1048.0</ele><time>2026-05-02T11:48:14.001Z</time></trkpt><trkpt lat="42.082023279465346" lon="13.611719166288166"><ele>1047.0</ele><time>2026-05-02T11:48:15.001Z</time></trkpt><trkpt lat="42.08201656207404" lon="13.611613561760159"><ele>1046.0</ele><time>2026-05-02T11:48:16.001Z</time></trkpt><trkpt lat="42.082012509264715" lon="13.61149915529544"><ele>1045.0</ele><time>2026-05-02T11:48:17.001Z</time></trkpt><trkpt lat="42.08201182373059" lon="13.611397047709417"><ele>1044.0</ele><time>2026-05-02T11:48:18.001Z</time></trkpt><trkpt lat="42.082007234557665" lon="13.61131214153605"><ele>1043.0</ele><time>2026-05-02T11:48:19.001Z</time></trkpt><trkpt lat="42.08200597010292" lon="13.611209333160069"><ele>1042.0</ele><time>2026-05-02T11:48:20.001Z</time></trkpt><trkpt lat="42.08200845298853" lon="13.611108635143017"><ele>1040.1666666666665</ele><time>2026-05-02T11:48:21.001Z</time></trkpt><trkpt lat="42.082019013953065" lon="13.611020110958464"><ele>1038.3333333333333</ele><time>2026-05-02T11:48:22.001Z</time></trkpt><trkpt lat="42.08202899572028" lon="13.610929168198055"><ele>1036.5</ele><time>2026-05-02T11:48:23.001Z</time></trkpt><trkpt lat="42.08205227650485" lon="13.6107662544942"><ele>1034.6666666666667</ele><time>2026-05-02T11:48:25.001Z</time></trkpt><trkpt lat="42.082079659674314" lon="13.610689865218555"><ele>1032.8333333333335</ele><time>2026-05-02T11:48:26.001Z</time></trkpt><trkpt lat="42.08214537883818" lon="13.610579094928244"><ele>1031.0</ele><time>2026-05-02T11:48:28.001Z</time></trkpt><trkpt lat="42.08222841009313" lon="13.610492014889171"><ele>1031.0</ele><time>2026-05-02T11:48:30.001Z</time></trkpt><trkpt lat="42.08232507297532" lon="13.61045320168902"><ele>1031.0</ele><time>2026-05-02T11:48:32.001Z</time></trkpt><trkpt lat="42.0824556300289" lon="13.610444229647973"><ele>1031.0</ele><time>2026-05-02T11:48:34.001Z</time></trkpt><trkpt lat="42.082523847275425" lon="13.610444340511936"><ele>1031.0</ele><time>2026-05-02T11:48:35.001Z</time></trkpt><trkpt lat="42.08262395055564" lon="13.61043333126875"><ele>1031.0</ele><time>2026-05-02T11:48:37.001Z</time></trkpt><trkpt lat="42.08270077234821" lon="13.610397672801138"><ele>1031.6666666666667</ele><time>2026-05-02T11:48:39.001Z</time></trkpt><trkpt lat="42.08275359198282" lon="13.610337313031483"><ele>1032.3333333333335</ele><time>2026-05-02T11:48:42.001Z</time></trkpt><trkpt lat="42.08283371090299" lon="13.610250215210511"><ele>1033.0</ele><time>2026-05-02T11:48:58.001Z</time></trkpt><trkpt lat="42.08286686985399" lon="13.610158434789868"><ele>1033.6666666666667</ele><time>2026-05-02T11:49:01.001Z</time></trkpt><trkpt lat="42.08277124331128" lon="13.610153424123258"><ele>1034.3333333333333</ele><time>2026-05-02T11:49:21.001Z</time></trkpt><trkpt lat="42.082688913230434" lon="13.610134486871313"><ele>1035.0</ele><time>2026-05-02T11:49:23.001Z</time></trkpt><trkpt lat="42.082607817063625" lon="13.610080516068306"><ele>1035.0</ele><time>2026-05-02T11:49:25.001Z</time></trkpt><trkpt lat="42.08251523725379" lon="13.610072001306015"><ele>1035.0</ele><time>2026-05-02T11:49:27.001Z</time></trkpt><trkpt lat="42.08240292767531" lon="13.610063035978765"><ele>1035.0</ele><time>2026-05-02T11:49:29.001Z</time></trkpt><trkpt lat="42.082281855472665" lon="13.610016418890675"><ele>1035.0</ele><time>2026-05-02T11:49:31.001Z</time></trkpt><trkpt lat="42.08220952972803" lon="13.610006500012313"><ele>1035.0</ele><time>2026-05-02T11:49:32.001Z</time></trkpt><trkpt lat="42.082135348906874" lon="13.609998146947714"><ele>1032.2</ele><time>2026-05-02T11:49:33.001Z</time></trkpt><trkpt lat="42.08206632485567" lon="13.609991355233795"><ele>1029.4</ele><time>2026-05-02T11:49:34.001Z</time></trkpt><trkpt lat="42.08194630010477" lon="13.609995164959319"><ele>1026.6</ele><time>2026-05-02T11:49:36.001Z</time></trkpt><trkpt lat="42.081882585700995" lon="13.610007493702096"><ele>1023.8</ele><time>2026-05-02T11:49:37.001Z</time></trkpt><trkpt lat="42.08175950990638" lon="13.610020622694213"><ele>1021.0</ele><time>2026-05-02T11:49:39.001Z</time></trkpt><trkpt lat="42.0816596361045" lon="13.610011145041065"><ele>1018.5999999999999</ele><time>2026-05-02T11:49:41.001Z</time></trkpt><trkpt lat="42.08156282814562" lon="13.610022605982701"><ele>1016.1999999999999</ele><time>2026-05-02T11:49:43.001Z</time></trkpt><trkpt lat="42.08145434614649" lon="13.61008023907788"><ele>1013.8000000000001</ele><time>2026-05-02T11:49:45.001Z</time></trkpt><trkpt lat="42.081359933787" lon="13.610137941481522"><ele>1011.4000000000001</ele><time>2026-05-02T11:49:47.001Z</time></trkpt><trkpt lat="42.08127246451279" lon="13.610198742101232"><ele>1009.0</ele><time>2026-05-02T11:49:49.001Z</time></trkpt><trkpt lat="42.081189984332845" lon="13.610261404924877"><ele>1009.0</ele><time>2026-05-02T11:49:51.001Z</time></trkpt><trkpt lat="42.08112247708852" lon="13.61028869095066"><ele>1009.0000000000001</ele><time>2026-05-02T11:49:54.001Z</time></trkpt><trkpt lat="42.081032930372345" lon="13.61027816496521"><ele>1009.0000000000001</ele><time>2026-05-02T11:49:57Z</time></trkpt><trkpt lat="42.08092127908275" lon="13.610233628975973"><ele>1009.0</ele><time>2026-05-02T11:49:59Z</time></trkpt><trkpt lat="42.08081556041182" lon="13.61020509694226"><ele>1009.0</ele><time>2026-05-02T11:50:01Z</time></trkpt><trkpt lat="42.08071386086354" lon="13.610215765328704"><ele>1006.5</ele><time>2026-05-02T11:50:03Z</time></trkpt><trkpt lat="42.0806060078963" lon="13.61023435991162"><ele>1004.0</ele><time>2026-05-02T11:50:05Z</time></trkpt><trkpt lat="42.08049792738477" lon="13.610266516185247"><ele>1001.5</ele><time>2026-05-02T11:50:07Z</time></trkpt><trkpt lat="42.08037825793627" lon="13.610300273006686"><ele>999.0</ele><time>2026-05-02T11:50:09Z</time></trkpt><trkpt lat="42.08026249582058" lon="13.610332877754377"><ele>999.0</ele><time>2026-05-02T11:50:11Z</time></trkpt><trkpt lat="42.08014943703526" lon="13.610338496337135"><ele>999.0</ele><time>2026-05-02T11:50:13Z</time></trkpt><trkpt lat="42.08003237817292" lon="13.610322765359877"><ele>999.0</ele><time>2026-05-02T11:50:15Z</time></trkpt><trkpt lat="42.07996040384412" lon="13.610333121949916"><ele>999.0</ele><time>2026-05-02T11:50:16Z</time></trkpt><trkpt lat="42.079890285711166" lon="13.610353720735453"><ele>999.0</ele><time>2026-05-02T11:50:17Z</time></trkpt><trkpt lat="42.079827250319205" lon="13.610373023186751"><ele>999.0</ele><time>2026-05-02T11:50:18Z</time></trkpt><trkpt lat="42.0797156781917" lon="13.610413264814348"><ele>996.4000000000001</ele><time>2026-05-02T11:50:20Z</time></trkpt><trkpt lat="42.07960791238912" lon="13.61043603389485"><ele>993.8000000000001</ele><time>2026-05-02T11:50:22Z</time></trkpt><trkpt lat="42.079498193478756" lon="13.610424531043607"><ele>991.1999999999999</ele><time>2026-05-02T11:50:24Z</time></trkpt><trkpt lat="42.079396183204665" lon="13.610367229783098"><ele>988.5999999999999</ele><time>2026-05-02T11:50:26Z</time></trkpt><trkpt lat="42.079290981767905" lon="13.610325278069359"><ele>986.0</ele><time>2026-05-02T11:50:28Z</time></trkpt><trkpt lat="42.07917672686765" lon="13.610286303044242"><ele>983.0</ele><time>2026-05-02T11:50:30Z</time></trkpt><trkpt lat="42.07907243130191" lon="13.610251280969333"><ele>979.9999999999999</ele><time>2026-05-02T11:50:32Z</time></trkpt><trkpt lat="42.078973479233284" lon="13.610235740550873"><ele>976.9999999999999</ele><time>2026-05-02T11:50:34Z</time></trkpt><trkpt lat="42.07885434986866" lon="13.610241626136338"><ele>974.0</ele><time>2026-05-02T11:50:36Z</time></trkpt><trkpt lat="42.07878565327757" lon="13.610253783510405"><ele>971.0</ele><time>2026-05-02T11:50:37Z</time></trkpt><trkpt lat="42.078708961983175" lon="13.610267679820339"><ele>971.0000000000001</ele><time>2026-05-02T11:50:38Z</time></trkpt><trkpt lat="42.07864462708448" lon="13.61027485768165"><ele>971.0</ele><time>2026-05-02T11:50:39Z</time></trkpt><trkpt lat="42.07850229834063" lon="13.610242748924964"><ele>971.0</ele><time>2026-05-02T11:50:41Z</time></trkpt><trkpt lat="42.07843053445987" lon="13.61023057563817"><ele>971.0</ele><time>2026-05-02T11:50:42Z</time></trkpt><trkpt lat="42.078354385743836" lon="13.61022042467409"><ele>971.0000000000001</ele><time>2026-05-02T11:50:43Z</time></trkpt><trkpt lat="42.07828677431298" lon="13.610223328425166"><ele>971.0</ele><time>2026-05-02T11:50:44Z</time></trkpt><trkpt lat="42.07817052036669" lon="13.610249491445721"><ele>968.8</ele><time>2026-05-02T11:50:46Z</time></trkpt><trkpt lat="42.07807007716066" lon="13.610274935323003"><ele>966.5999999999999</ele><time>2026-05-02T11:50:48Z</time></trkpt><trkpt lat="42.077949325545774" lon="13.610306919588371"><ele>964.4</ele><time>2026-05-02T11:50:50Z</time></trkpt><trkpt lat="42.077874826172575" lon="13.610301833820165"><ele>962.2</ele><time>2026-05-02T11:50:51Z</time></trkpt><trkpt lat="42.077794005501765" lon="13.610284989435765"><ele>960.0</ele><time>2026-05-02T11:50:52Z</time></trkpt><trkpt lat="42.077720737414666" lon="13.610274528776973"><ele>960.0</ele><time>2026-05-02T11:50:53Z</time></trkpt><trkpt lat="42.077601105884085" lon="13.610302117571162"><ele>960.0</ele><time>2026-05-02T11:50:55Z</time></trkpt><trkpt lat="42.07748546873395" lon="13.610330418423311"><ele>960.0</ele><time>2026-05-02T11:50:57Z</time></trkpt><trkpt lat="42.07737244980081" lon="13.610313881342886"><ele>960.0</ele><time>2026-05-02T11:50:59Z</time></trkpt><trkpt lat="42.07727041980515" lon="13.610351032059604"><ele>956.75</ele><time>2026-05-02T11:51:01Z</time></trkpt><trkpt lat="42.07715070751568" lon="13.61040450207238"><ele>953.5</ele><time>2026-05-02T11:51:03Z</time></trkpt><trkpt lat="42.07704624510269" lon="13.610429368314316"><ele>950.25</ele><time>2026-05-02T11:51:05Z</time></trkpt><trkpt lat="42.076940990388096" lon="13.610406883639653"><ele>947.0</ele><time>2026-05-02T11:51:07Z</time></trkpt><trkpt lat="42.076807081358666" lon="13.610391992006075"><ele>947.0000000000001</ele><time>2026-05-02T11:51:09Z</time></trkpt><trkpt lat="42.07672743831337" lon="13.610388719221014"><ele>947.0</ele><time>2026-05-02T11:51:10Z</time></trkpt><trkpt lat="42.07664403786559" lon="13.610391847516187"><ele>947.0</ele><time>2026-05-02T11:51:11.001Z</time></trkpt><trkpt lat="42.0765663801592" lon="13.61039475690188"><ele>947.0</ele><time>2026-05-02T11:51:12.001Z</time></trkpt><trkpt lat="42.07649618787939" lon="13.610392089494066"><ele>947.0000000000001</ele><time>2026-05-02T11:51:13.001Z</time></trkpt><trkpt lat="42.07642269984694" lon="13.610393371017269"><ele>947.0</ele><time>2026-05-02T11:51:14.001Z</time></trkpt><trkpt lat="42.07630536281235" lon="13.610430083618947"><ele>943.8</ele><time>2026-05-02T11:51:16.001Z</time></trkpt><trkpt lat="42.07618471637951" lon="13.610437084184117"><ele>940.6</ele><time>2026-05-02T11:51:18.001Z</time></trkpt><trkpt lat="42.076103311205614" lon="13.610482074291196"><ele>937.3999999999999</ele><time>2026-05-02T11:51:20.001Z</time></trkpt><trkpt lat="42.07605983882223" lon="13.610554263656766"><ele>934.1999999999999</ele><time>2026-05-02T11:51:22.001Z</time></trkpt><trkpt lat="42.07599455499292" lon="13.610647469099392"><ele>931.0</ele><time>2026-05-02T11:51:24.001Z</time></trkpt><trkpt lat="42.07591805993137" lon="13.610734594700988"><ele>931.0</ele><time>2026-05-02T11:51:26.001Z</time></trkpt><trkpt lat="42.07583918603105" lon="13.610791747709174"><ele>931.0</ele><time>2026-05-02T11:51:28.001Z</time></trkpt><trkpt lat="42.075779170796025" lon="13.610836597330529"><ele>931.0</ele><time>2026-05-02T11:51:32Z</time></trkpt><trkpt lat="42.07571975132356" lon="13.610888298470414"><ele>931.0</ele><time>2026-05-02T11:51:44Z</time></trkpt><trkpt lat="42.07566949020553" lon="13.610941347912894"><ele>931.0</ele><time>2026-05-02T11:51:48Z</time></trkpt><trkpt lat="42.07573714507077" lon="13.610937957137555"><ele>931.0</ele><time>2026-05-02T11:52:39Z</time></trkpt><trkpt lat="42.075782958166705" lon="13.611000573955836"><ele>931.0</ele><time>2026-05-02T11:52:49Z</time></trkpt><trkpt lat="42.075768219325134" lon="13.61108536202663"><ele>931.4285714285714</ele><time>2026-05-02T11:55:27.001Z</time></trkpt><trkpt lat="42.07577817456616" lon="13.61116988654954"><ele>931.8571428571429</ele><time>2026-05-02T11:55:34.001Z</time></trkpt><trkpt lat="42.07573961049242" lon="13.61105681459614"><ele>932.2857142857142</ele><time>2026-05-02T12:10:30Z</time></trkpt><trkpt lat="42.07568692498871" lon="13.61097805894515"><ele>932.7142857142857</ele><time>2026-05-02T12:14:09.999Z</time></trkpt><trkpt lat="42.075693078379786" lon="13.610892993659283"><ele>933.1428571428571</ele><time>2026-05-02T12:19:35Z</time></trkpt><trkpt lat="42.075650914751165" lon="13.610956153283787"><ele>933.5714285714284</ele><time>2026-05-02T12:19:53Z</time></trkpt><trkpt lat="42.075583587179736" lon="13.610987096509799"><ele>933.9999999999999</ele><time>2026-05-02T12:22:21.999Z</time></trkpt><trkpt lat="42.07552536255142" lon="13.611020327564464"><ele>931.4999999999999</ele><time>2026-05-02T12:22:23.999Z</time></trkpt><trkpt lat="42.07544067900839" lon="13.611062459880626"><ele>929.0</ele><time>2026-05-02T12:22:26.999Z</time></trkpt><trkpt lat="42.075355964054445" lon="13.611108544752625"><ele>926.5</ele><time>2026-05-02T12:22:29.999Z</time></trkpt><trkpt lat="42.07529210306194" lon="13.611139733800233"><ele>924.0</ele><time>2026-05-02T12:22:31.999Z</time></trkpt><trkpt lat="42.07521966271462" lon="13.611218349533356"><ele>921.4999999999999</ele><time>2026-05-02T12:22:34.999Z</time></trkpt><trkpt lat="42.07516283246407" lon="13.611271507508798"><ele>919.0</ele><time>2026-05-02T12:22:36.999Z</time></trkpt><trkpt lat="42.07510081057502" lon="13.611308096779558"><ele>918.8333333333333</ele><time>2026-05-02T12:22:38.999Z</time></trkpt><trkpt lat="42.07502557082571" lon="13.611318367621116"><ele>918.6666666666666</ele><time>2026-05-02T12:22:40.999Z</time></trkpt><trkpt lat="42.074947154303544" lon="13.61131306791453"><ele>918.5</ele><time>2026-05-02T12:22:42.999Z</time></trkpt><trkpt lat="42.07486686687121" lon="13.611317059496779"><ele>918.3333333333333</ele><time>2026-05-02T12:22:44.999Z</time></trkpt><trkpt lat="42.07478077152527" lon="13.611315393887521"><ele>918.1666666666666</ele><time>2026-05-02T12:22:46.999Z</time></trkpt><trkpt lat="42.07466658003365" lon="13.611280004456926"><ele>918.0</ele><time>2026-05-02T12:22:48.999Z</time></trkpt><trkpt lat="42.07460965540157" lon="13.61121220946723"><ele>916.6666666666666</ele><time>2026-05-02T12:22:49.999Z</time></trkpt><trkpt lat="42.07454082851197" lon="13.611181289394127"><ele>915.3333333333333</ele><time>2026-05-02T12:22:50.999Z</time></trkpt><trkpt lat="42.07447755896756" lon="13.61114850001471"><ele>914.0</ele><time>2026-05-02T12:22:51.999Z</time></trkpt><trkpt lat="42.074368849655706" lon="13.611091910688861"><ele>912.6666666666666</ele><time>2026-05-02T12:22:53.999Z</time></trkpt><trkpt lat="42.074287485690604" lon="13.611049118866982"><ele>911.3333333333333</ele><time>2026-05-02T12:22:55.999Z</time></trkpt><trkpt lat="42.074223585981414" lon="13.611013637485618"><ele>910.0</ele><time>2026-05-02T12:23:04.999Z</time></trkpt><trkpt lat="42.07414004703642" lon="13.610966417720906"><ele>908.4</ele><time>2026-05-02T12:23:08.999Z</time></trkpt><trkpt lat="42.074032085147934" lon="13.610902547487933"><ele>906.8</ele><time>2026-05-02T12:23:10.999Z</time></trkpt><trkpt lat="42.07395897397893" lon="13.610856339428448"><ele>905.2</ele><time>2026-05-02T12:23:11.999Z</time></trkpt><trkpt lat="42.07387644179215" lon="13.610798959069504"><ele>903.6</ele><time>2026-05-02T12:23:12.999Z</time></trkpt><trkpt lat="42.073791464799804" lon="13.610732882197738"><ele>902.0</ele><time>2026-05-02T12:23:13.999Z</time></trkpt><trkpt lat="42.0737088935337" lon="13.61067176193909"><ele>902.0</ele><time>2026-05-02T12:23:14.999Z</time></trkpt><trkpt lat="42.0736270150711" lon="13.610635692003084"><ele>902.0</ele><time>2026-05-02T12:23:15.999Z</time></trkpt><trkpt lat="42.07355202299664" lon="13.610542653297122"><ele>902.0</ele><time>2026-05-02T12:23:16.999Z</time></trkpt><trkpt lat="42.07345336969995" lon="13.610437190103847"><ele>902.0</ele><time>2026-05-02T12:23:17.999Z</time></trkpt><trkpt lat="42.07334272245197" lon="13.610350076533017"><ele>902.0</ele><time>2026-05-02T12:23:18.999Z</time></trkpt><trkpt lat="42.073237633402734" lon="13.610239067288346"><ele>899.25</ele><time>2026-05-02T12:23:19.999Z</time></trkpt><trkpt lat="42.073127782258865" lon="13.610121516630713"><ele>896.5</ele><time>2026-05-02T12:23:20.999Z</time></trkpt><trkpt lat="42.073017128199155" lon="13.609999931425959"><ele>893.75</ele><time>2026-05-02T12:23:21.999Z</time></trkpt><trkpt lat="42.072910865634675" lon="13.609876416410408"><ele>891.0</ele><time>2026-05-02T12:23:22.999Z</time></trkpt><trkpt lat="42.07280488210405" lon="13.609751325302373"><ele>891.0</ele><time>2026-05-02T12:23:23.999Z</time></trkpt><trkpt lat="42.07269997830506" lon="13.609623434904517"><ele>891.0</ele><time>2026-05-02T12:23:24.999Z</time></trkpt><trkpt lat="42.07261458110783" lon="13.609487533299866"><ele>891.0</ele><time>2026-05-02T12:23:25.999Z</time></trkpt><trkpt lat="42.072511880398956" lon="13.60939101370645"><ele>891.0</ele><time>2026-05-02T12:23:26.999Z</time></trkpt><trkpt lat="42.07244318570917" lon="13.60927619261556"><ele>889.0</ele><time>2026-05-02T12:23:27.999Z</time></trkpt><trkpt lat="42.07237295009722" lon="13.609189587570764"><ele>886.9999999999999</ele><time>2026-05-02T12:23:28.999Z</time></trkpt><trkpt lat="42.07230683117934" lon="13.609116651185408"><ele>884.9999999999999</ele><time>2026-05-02T12:23:29.999Z</time></trkpt><trkpt lat="42.072240869301496" lon="13.609059075311341"><ele>883.0</ele><time>2026-05-02T12:23:30.999Z</time></trkpt><trkpt lat="42.0722016124745" lon="13.608952826710425"><ele>881.0</ele><time>2026-05-02T12:23:31.999Z</time></trkpt><trkpt lat="42.072177271943865" lon="13.608813503415876"><ele>880.25</ele><time>2026-05-02T12:23:32.999Z</time></trkpt><trkpt lat="42.07215733646879" lon="13.608651603641842"><ele>879.5</ele><time>2026-05-02T12:23:33.999Z</time></trkpt><trkpt lat="42.07213037990479" lon="13.608478111426075"><ele>878.75</ele><time>2026-05-02T12:23:34.999Z</time></trkpt><trkpt lat="42.07210416710037" lon="13.608311425229736"><ele>878.0</ele><time>2026-05-02T12:23:35.999Z</time></trkpt><trkpt lat="42.07208384593751" lon="13.608155261410957"><ele>878.0</ele><time>2026-05-02T12:23:36.999Z</time></trkpt><trkpt lat="42.07207375050608" lon="13.6080044277304"><ele>878.0</ele><time>2026-05-02T12:23:37.999Z</time></trkpt><trkpt lat="42.07207290834505" lon="13.607846511902205"><ele>878.0</ele><time>2026-05-02T12:23:38.999Z</time></trkpt><trkpt lat="42.072072374765" lon="13.607679834179574"><ele>878.0</ele><time>2026-05-02T12:23:39.999Z</time></trkpt><trkpt lat="42.07207126771715" lon="13.60751824433475"><ele>876.8</ele><time>2026-05-02T12:23:40.999Z</time></trkpt><trkpt lat="42.0720715987652" lon="13.607363845418195"><ele>875.5999999999999</ele><time>2026-05-02T12:23:41.999Z</time></trkpt><trkpt lat="42.072071342611096" lon="13.607222730589415"><ele>874.4000000000001</ele><time>2026-05-02T12:23:42.999Z</time></trkpt><trkpt lat="42.07206605194878" lon="13.607097760333696"><ele>873.2</ele><time>2026-05-02T12:23:43.999Z</time></trkpt><trkpt lat="42.072053972800475" lon="13.606999732127441"><ele>872.0</ele><time>2026-05-02T12:23:44.999Z</time></trkpt><trkpt lat="42.07201696157577" lon="13.606849813492504"><ele>870.2</ele><time>2026-05-02T12:23:46.999Z</time></trkpt><trkpt lat="42.07199857537481" lon="13.60675568725347"><ele>868.4000000000001</ele><time>2026-05-02T12:23:47.999Z</time></trkpt><trkpt lat="42.071947907489516" lon="13.606654527731733"><ele>866.5999999999999</ele><time>2026-05-02T12:23:48.999Z</time></trkpt><trkpt lat="42.07188135505075" lon="13.606552236979894"><ele>864.8</ele><time>2026-05-02T12:23:49.999Z</time></trkpt><trkpt lat="42.07180267414874" lon="13.606450746444704"><ele>863.0</ele><time>2026-05-02T12:23:50.999Z</time></trkpt><trkpt lat="42.07171482870183" lon="13.606351277733136"><ele>863.0</ele><time>2026-05-02T12:23:51.999Z</time></trkpt><trkpt lat="42.07162676201618" lon="13.606253239920546"><ele>863.0</ele><time>2026-05-02T12:23:52.999Z</time></trkpt><trkpt lat="42.071543633682516" lon="13.60616441963627"><ele>863.0</ele><time>2026-05-02T12:23:53.999Z</time></trkpt><trkpt lat="42.071456267268935" lon="13.606103371798238"><ele>863.0</ele><time>2026-05-02T12:23:54.999Z</time></trkpt><trkpt lat="42.071365564077524" lon="13.606057176545367"><ele>863.0</ele><time>2026-05-02T12:23:55.999Z</time></trkpt><trkpt lat="42.07128242636303" lon="13.606015710747672"><ele>860.0</ele><time>2026-05-02T12:23:56.999Z</time></trkpt><trkpt lat="42.071198408364594" lon="13.60597380589901"><ele>857.0</ele><time>2026-05-02T12:23:57.999Z</time></trkpt><trkpt lat="42.07112025977588" lon="13.605915706853217"><ele>854.0</ele><time>2026-05-02T12:23:58.999Z</time></trkpt><trkpt lat="42.07104217849698" lon="13.605831161658891"><ele>851.0</ele><time>2026-05-02T12:23:59.999Z</time></trkpt><trkpt lat="42.070953367707816" lon="13.605741258842466"><ele>848.0</ele><time>2026-05-02T12:24:00.999Z</time></trkpt><trkpt lat="42.07085794617688" lon="13.605645603571315"><ele>845.25</ele><time>2026-05-02T12:24:01.999Z</time></trkpt><trkpt lat="42.070754291093806" lon="13.605548640605745"><ele>842.5</ele><time>2026-05-02T12:24:02.999Z</time></trkpt><trkpt lat="42.07064952214137" lon="13.605459145816036"><ele>839.75</ele><time>2026-05-02T12:24:03.999Z</time></trkpt><trkpt lat="42.07054469112056" lon="13.605366280895792"><ele>837.0</ele><time>2026-05-02T12:24:04.999Z</time></trkpt><trkpt lat="42.07044273276063" lon="13.605271689999315"><ele>835.75</ele><time>2026-05-02T12:24:05.999Z</time></trkpt><trkpt lat="42.070341427096864" lon="13.60517668709856"><ele>834.5</ele><time>2026-05-02T12:24:06.999Z</time></trkpt><trkpt lat="42.07024269187666" lon="13.605082909977764"><ele>833.25</ele><time>2026-05-02T12:24:07.999Z</time></trkpt><trkpt lat="42.070145801011385" lon="13.604990406599892"><ele>832.0</ele><time>2026-05-02T12:24:08.999Z</time></trkpt><trkpt lat="42.070048823516686" lon="13.604896888768778"><ele>832.0</ele><time>2026-05-02T12:24:09.999Z</time></trkpt><trkpt lat="42.069950661353026" lon="13.60480221089717"><ele>832.0</ele><time>2026-05-02T12:24:10.999Z</time></trkpt><trkpt lat="42.06985268752367" lon="13.604707694562151"><ele>832.0</ele><time>2026-05-02T12:24:11.999Z</time></trkpt><trkpt lat="42.069759677696645" lon="13.60461796704263"><ele>832.0</ele><time>2026-05-02T12:24:12.999Z</time></trkpt><trkpt lat="42.06966388522615" lon="13.60452686963387"><ele>827.25</ele><time>2026-05-02T12:24:13.999Z</time></trkpt><trkpt lat="42.06956370790631" lon="13.604433709742766"><ele>822.5</ele><time>2026-05-02T12:24:14.999Z</time></trkpt><trkpt lat="42.069465035991406" lon="13.604341949766221"><ele>817.75</ele><time>2026-05-02T12:24:15.999Z</time></trkpt><trkpt lat="42.06937275823099" lon="13.604254154432875"><ele>813.0</ele><time>2026-05-02T12:24:16.999Z</time></trkpt><trkpt lat="42.06926976345236" lon="13.604178159160796"><ele>813.0</ele><time>2026-05-02T12:24:17.999Z</time></trkpt><trkpt lat="42.069180745537615" lon="13.60407868073817"><ele>813.0</ele><time>2026-05-02T12:24:18.999Z</time></trkpt><trkpt lat="42.069091976956365" lon="13.603978455801649"><ele>813.0</ele><time>2026-05-02T12:24:19.999Z</time></trkpt><trkpt lat="42.069011445426135" lon="13.603860557925893"><ele>813.0</ele><time>2026-05-02T12:24:20.999Z</time></trkpt><trkpt lat="42.06891691581972" lon="13.603760517627409"><ele>812.0</ele><time>2026-05-02T12:24:21.999Z</time></trkpt><trkpt lat="42.06881177285356" lon="13.60367924552699"><ele>811.0</ele><time>2026-05-02T12:24:22.999Z</time></trkpt><trkpt lat="42.068730760080584" lon="13.603564249536086"><ele>810.0</ele><time>2026-05-02T12:24:23.999Z</time></trkpt><trkpt lat="42.06865114622186" lon="13.603475754257053"><ele>809.0</ele><time>2026-05-02T12:24:24.999Z</time></trkpt><trkpt lat="42.06857055732843" lon="13.603426316741066"><ele>808.0</ele><time>2026-05-02T12:24:25.999Z</time></trkpt><trkpt lat="42.06851334366147" lon="13.603376882152878"><ele>808.0</ele><time>2026-05-02T12:24:26.999Z</time></trkpt><trkpt lat="42.068418545840736" lon="13.603365978873061"><ele>808.0</ele><time>2026-05-02T12:24:28.999Z</time></trkpt><trkpt lat="42.06829791291271" lon="13.603457849560861"><ele>808.0</ele><time>2026-05-02T12:24:30.999Z</time></trkpt><trkpt lat="42.0682263244247" lon="13.603521068656338"><ele>808.0</ele><time>2026-05-02T12:24:31.999Z</time></trkpt><trkpt lat="42.06814738816617" lon="13.603556028120694"><ele>808.0</ele><time>2026-05-02T12:24:32.999Z</time></trkpt><trkpt lat="42.068056180264875" lon="13.60353197479692"><ele>810.25</ele><time>2026-05-02T12:24:33.999Z</time></trkpt><trkpt lat="42.0679613475845" lon="13.603534548950993"><ele>812.5</ele><time>2026-05-02T12:24:34.999Z</time></trkpt><trkpt lat="42.06784751668121" lon="13.603528178762172"><ele>814.75</ele><time>2026-05-02T12:24:35.999Z</time></trkpt><trkpt lat="42.067718664458056" lon="13.603519935601733"><ele>817.0</ele><time>2026-05-02T12:24:36.999Z</time></trkpt><trkpt lat="42.0675787529288" lon="13.603509247262133"><ele>818.0</ele><time>2026-05-02T12:24:37.999Z</time></trkpt><trkpt lat="42.067439425846175" lon="13.603501606178948"><ele>819.0</ele><time>2026-05-02T12:24:38.999Z</time></trkpt><trkpt lat="42.067303285195514" lon="13.603496524435206"><ele>820.0</ele><time>2026-05-02T12:24:39.999Z</time></trkpt><trkpt lat="42.067172231987094" lon="13.60348470622543"><ele>821.0</ele><time>2026-05-02T12:24:40.999Z</time></trkpt><trkpt lat="42.06704529636399" lon="13.60346425117788"><ele>821.0</ele><time>2026-05-02T12:24:41.999Z</time></trkpt><trkpt lat="42.066922038512196" lon="13.603432832557623"><ele>821.0</ele><time>2026-05-02T12:24:42.999Z</time></trkpt><trkpt lat="42.06679047545905" lon="13.603391679748063"><ele>821.0</ele><time>2026-05-02T12:24:43.999Z</time></trkpt><trkpt lat="42.06665685535833" lon="13.60336515785943"><ele>821.0</ele><time>2026-05-02T12:24:44.999Z</time></trkpt><trkpt lat="42.066532518404536" lon="13.603320257609056"><ele>822.4</ele><time>2026-05-02T12:24:45.999Z</time></trkpt><trkpt lat="42.06642131805495" lon="13.603273593211853"><ele>823.8</ele><time>2026-05-02T12:24:46.999Z</time></trkpt><trkpt lat="42.06631339792736" lon="13.603263684058312"><ele>825.1999999999999</ele><time>2026-05-02T12:24:47.999Z</time></trkpt><trkpt lat="42.06620621869463" lon="13.603274636264466"><ele>826.5999999999999</ele><time>2026-05-02T12:24:48.999Z</time></trkpt><trkpt lat="42.06610779434166" lon="13.603288280777111"><ele>828.0</ele><time>2026-05-02T12:24:49.999Z</time></trkpt><trkpt lat="42.06601460575617" lon="13.603299893366291"><ele>828.0</ele><time>2026-05-02T12:24:50.999Z</time></trkpt><trkpt lat="42.06593834668088" lon="13.60330939630318"><ele>828.0</ele><time>2026-05-02T12:24:51.999Z</time></trkpt><trkpt lat="42.06587372403225" lon="13.603318614832315"><ele>828.0</ele><time>2026-05-02T12:24:52.999Z</time></trkpt><trkpt lat="42.065787883517764" lon="13.603338824111352"><ele>828.0</ele><time>2026-05-02T12:24:54.999Z</time></trkpt><trkpt lat="42.06574606361245" lon="13.603180592458818"><ele>828.0</ele><time>2026-05-02T12:24:57.999Z</time></trkpt><trkpt lat="42.065717889023176" lon="13.603087743927857"><ele>828.0</ele><time>2026-05-02T12:24:58.999Z</time></trkpt><trkpt lat="42.06569940929195" lon="13.602982398684258"><ele>828.1666666666666</ele><time>2026-05-02T12:24:59.999Z</time></trkpt><trkpt lat="42.06567409199786" lon="13.60287909662807"><ele>828.3333333333333</ele><time>2026-05-02T12:25:00.999Z</time></trkpt><trkpt lat="42.06566232671611" lon="13.602792218975111"><ele>828.5</ele><time>2026-05-02T12:25:01.999Z</time></trkpt><trkpt lat="42.06569854774532" lon="13.60266728983113"><ele>828.6666666666666</ele><time>2026-05-02T12:25:03.999Z</time></trkpt><trkpt lat="42.06574826268513" lon="13.60257370102817"><ele>828.8333333333333</ele><time>2026-05-02T12:25:05.999Z</time></trkpt><trkpt lat="42.065832792112" lon="13.602550232422368"><ele>829.0</ele><time>2026-05-02T12:25:07.999Z</time></trkpt><trkpt lat="42.06585721388529" lon="13.60240831408477"><ele>828.8000000000001</ele><time>2026-05-02T12:25:09.999Z</time></trkpt><trkpt lat="42.06586228169718" lon="13.60230139190446"><ele>828.6</ele><time>2026-05-02T12:25:10.999Z</time></trkpt><trkpt lat="42.06588954650327" lon="13.60217948015015"><ele>828.4</ele><time>2026-05-02T12:25:11.999Z</time></trkpt><trkpt lat="42.065920284456844" lon="13.602041800333648"><ele>828.2</ele><time>2026-05-02T12:25:12.999Z</time></trkpt><trkpt lat="42.06594656788904" lon="13.601909735056257"><ele>828.0</ele><time>2026-05-02T12:25:13.999Z</time></trkpt><trkpt lat="42.06597092272446" lon="13.601786249852474"><ele>828.0</ele><time>2026-05-02T12:25:14.999Z</time></trkpt><trkpt lat="42.06599695292193" lon="13.601660096479506"><ele>828.0</ele><time>2026-05-02T12:25:15.999Z</time></trkpt><trkpt lat="42.066022317719096" lon="13.60152936536455"><ele>828.0</ele><time>2026-05-02T12:25:16.999Z</time></trkpt><trkpt lat="42.06603782263031" lon="13.601394562934388"><ele>828.0</ele><time>2026-05-02T12:25:17.999Z</time></trkpt><trkpt lat="42.06604599729379" lon="13.601259009583666"><ele>828.0</ele><time>2026-05-02T12:25:18.999Z</time></trkpt><trkpt lat="42.06605108523401" lon="13.60112490559629"><ele>828.2</ele><time>2026-05-02T12:25:19.999Z</time></trkpt><trkpt lat="42.066054082665346" lon="13.600999791916738"><ele>828.4</ele><time>2026-05-02T12:25:20.999Z</time></trkpt><trkpt lat="42.066059882790924" lon="13.600875356240044"><ele>828.6</ele><time>2026-05-02T12:25:21.999Z</time></trkpt><trkpt lat="42.066073298953555" lon="13.600744867733384"><ele>828.8000000000001</ele><time>2026-05-02T12:25:22.999Z</time></trkpt><trkpt lat="42.066095005297484" lon="13.600614243832087"><ele>829.0</ele><time>2026-05-02T12:25:23.999Z</time></trkpt><trkpt lat="42.06611646453692" lon="13.600483555095213"><ele>829.0</ele><time>2026-05-02T12:25:24.999Z</time></trkpt><trkpt lat="42.06613635882711" lon="13.600379084783935"><ele>829.0</ele><time>2026-05-02T12:25:25.999Z</time></trkpt><trkpt lat="42.06615133824265" lon="13.600278027409956"><ele>829.0</ele><time>2026-05-02T12:25:27.999Z</time></trkpt><trkpt lat="42.06597140246885" lon="13.60019375908487"><ele>829.0</ele><time>2026-05-02T12:25:30.999Z</time></trkpt><trkpt lat="42.06589566860448" lon="13.600190657948273"><ele>829.0</ele><time>2026-05-02T12:25:31.999Z</time></trkpt><trkpt lat="42.06581197261715" lon="13.600187534492326"><ele>827.3333333333333</ele><time>2026-05-02T12:25:32.999Z</time></trkpt><trkpt lat="42.065724277721564" lon="13.600180029034478"><ele>825.6666666666666</ele><time>2026-05-02T12:25:33.999Z</time></trkpt><trkpt lat="42.065639519747485" lon="13.600173232770345"><ele>824.0</ele><time>2026-05-02T12:25:34.999Z</time></trkpt><trkpt lat="42.065555400949044" lon="13.600165916027649"><ele>822.3333333333333</ele><time>2026-05-02T12:25:35.999Z</time></trkpt><trkpt lat="42.065476844069785" lon="13.60015858223205"><ele>820.6666666666666</ele><time>2026-05-02T12:25:36.999Z</time></trkpt><trkpt lat="42.06540391348613" lon="13.600151789967141"><ele>819.0</ele><time>2026-05-02T12:25:37.999Z</time></trkpt><trkpt lat="42.065332084524954" lon="13.600145100248188"><ele>819.0</ele><time>2026-05-02T12:25:38.999Z</time></trkpt><trkpt lat="42.065261895630215" lon="13.600139446384631"><ele>819.0</ele><time>2026-05-02T12:25:39.999Z</time></trkpt><trkpt lat="42.06519193882935" lon="13.600135124569974"><ele>819.0</ele><time>2026-05-02T12:25:40.999Z</time></trkpt><trkpt lat="42.06512506266592" lon="13.600130993072328"><ele>819.0</ele><time>2026-05-02T12:25:41.999Z</time></trkpt><trkpt lat="42.06504332671179" lon="13.600125943518503"><ele>819.0</ele><time>2026-05-02T12:25:42.999Z</time></trkpt><trkpt lat="42.06494609888812" lon="13.60012581717738"><ele>819.0</ele><time>2026-05-02T12:25:43.999Z</time></trkpt><trkpt lat="42.06483922522149" lon="13.600128386965896"><ele>817.2</ele><time>2026-05-02T12:25:44.999Z</time></trkpt><trkpt lat="42.06472960188715" lon="13.600130156136961"><ele>815.4000000000001</ele><time>2026-05-02T12:25:45.999Z</time></trkpt><trkpt lat="42.06462491514658" lon="13.600137376212507"><ele>813.6</ele><time>2026-05-02T12:25:46.999Z</time></trkpt><trkpt lat="42.06452854161152" lon="13.600142014548908"><ele>811.8</ele><time>2026-05-02T12:25:47.999Z</time></trkpt><trkpt lat="42.06443649119659" lon="13.600142128100005"><ele>810.0</ele><time>2026-05-02T12:25:48.999Z</time></trkpt><trkpt lat="42.064365917711605" lon="13.600140484661049"><ele>809.9999999999999</ele><time>2026-05-02T12:25:49.999Z</time></trkpt><trkpt lat="42.064299896208" lon="13.600131385390647"><ele>810.0</ele><time>2026-05-02T12:25:50.999Z</time></trkpt><trkpt lat="42.06423531060775" lon="13.600121392135344"><ele>810.0</ele><time>2026-05-02T12:25:51.999Z</time></trkpt><trkpt lat="42.0641631412451" lon="13.600118342198982"><ele>810.0</ele><time>2026-05-02T12:25:52.999Z</time></trkpt><trkpt lat="42.06408382443254" lon="13.60009378672075"><ele>810.0</ele><time>2026-05-02T12:25:53.999Z</time></trkpt><trkpt lat="42.064009476876095" lon="13.600074577486966"><ele>809.9999999999999</ele><time>2026-05-02T12:25:54.999Z</time></trkpt><trkpt lat="42.06394316478403" lon="13.600051714417829"><ele>810.0</ele><time>2026-05-02T12:25:55.999Z</time></trkpt><trkpt lat="42.06382800205493" lon="13.600016456595435"><ele>808.6666666666666</ele><time>2026-05-02T12:25:57.999Z</time></trkpt><trkpt lat="42.0637435910272" lon="13.599987341764852"><ele>807.3333333333333</ele><time>2026-05-02T12:25:59.999Z</time></trkpt><trkpt lat="42.063679978956635" lon="13.59993527289047"><ele>806.0</ele><time>2026-05-02T12:26:02.999Z</time></trkpt><trkpt lat="42.063736896463894" lon="13.599818636927703"><ele>804.6666666666666</ele><time>2026-05-02T12:26:04.999Z</time></trkpt><trkpt lat="42.06379186840579" lon="13.599697394666268"><ele>803.3333333333333</ele><time>2026-05-02T12:26:07.999Z</time></trkpt><trkpt lat="42.06382270582215" lon="13.59960692428646"><ele>802.0</ele><time>2026-05-02T12:26:08.999Z</time></trkpt><trkpt lat="42.063850500537605" lon="13.599509896234965"><ele>800.9999999999999</ele><time>2026-05-02T12:26:09.999Z</time></trkpt><trkpt lat="42.06388440911401" lon="13.599414814010315"><ele>800.0</ele><time>2026-05-02T12:26:10.999Z</time></trkpt><trkpt lat="42.06391737602508" lon="13.599320630834868"><ele>799.0</ele><time>2026-05-02T12:26:11.999Z</time></trkpt><trkpt lat="42.06394887252557" lon="13.599229550393979"><ele>798.0</ele><time>2026-05-02T12:26:12.999Z</time></trkpt><trkpt lat="42.063975629865986" lon="13.599148053578457"><ele>796.9999999999999</ele><time>2026-05-02T12:26:13.999Z</time></trkpt><trkpt lat="42.06401089397721" lon="13.599037928827439"><ele>796.0</ele><time>2026-05-02T12:26:15.999Z</time></trkpt><trkpt lat="42.064039453633804" lon="13.598951703187344"><ele>797.5999999999999</ele><time>2026-05-02T12:26:18.999Z</time></trkpt><trkpt lat="42.06413624248031" lon="13.598984616154045"><ele>799.2</ele><time>2026-05-02T12:26:20.999Z</time></trkpt><trkpt lat="42.0642116863878" lon="13.59898613648919"><ele>800.8</ele><time>2026-05-02T12:26:21.999Z</time></trkpt><trkpt lat="42.06430128474921" lon="13.598977693971104"><ele>802.4000000000001</ele><time>2026-05-02T12:26:22.999Z</time></trkpt><trkpt lat="42.06440933367149" lon="13.598973858216635"><ele>804.0</ele><time>2026-05-02T12:26:23.999Z</time></trkpt><trkpt lat="42.06451141764969" lon="13.598989187182763"><ele>804.0</ele><time>2026-05-02T12:26:24.999Z</time></trkpt><trkpt lat="42.06462187054434" lon="13.598993105003967"><ele>804.0</ele><time>2026-05-02T12:26:25.999Z</time></trkpt><trkpt lat="42.064722181767415" lon="13.59897779684426"><ele>804.0</ele><time>2026-05-02T12:26:26.999Z</time></trkpt><trkpt lat="42.06482267089312" lon="13.598988212377664"><ele>804.0</ele><time>2026-05-02T12:26:27.999Z</time></trkpt><trkpt lat="42.0649247645233" lon="13.598992302151935"><ele>804.0</ele><time>2026-05-02T12:26:28.999Z</time></trkpt><trkpt lat="42.06502835807541" lon="13.59899497512131"><ele>806.2</ele><time>2026-05-02T12:26:29.999Z</time></trkpt><trkpt lat="42.065135736633046" lon="13.598995501351425"><ele>808.4000000000001</ele><time>2026-05-02T12:26:30.999Z</time></trkpt><trkpt lat="42.065246316132594" lon="13.598999883656223"><ele>810.6</ele><time>2026-05-02T12:26:31.999Z</time></trkpt><trkpt lat="42.06535557094394" lon="13.599001504977766"><ele>812.8</ele><time>2026-05-02T12:26:32.999Z</time></trkpt><trkpt lat="42.06545988288432" lon="13.59900656936586"><ele>815.0</ele><time>2026-05-02T12:26:33.999Z</time></trkpt><trkpt lat="42.065567980116974" lon="13.599015220702194"><ele>815.0</ele><time>2026-05-02T12:26:34.999Z</time></trkpt><trkpt lat="42.065679110527725" lon="13.599015941143085"><ele>815.0</ele><time>2026-05-02T12:26:35.999Z</time></trkpt><trkpt lat="42.065790321894944" lon="13.599042824414637"><ele>815.0</ele><time>2026-05-02T12:26:36.999Z</time></trkpt><trkpt lat="42.06590424120137" lon="13.599047937006468"><ele>815.0</ele><time>2026-05-02T12:26:37.999Z</time></trkpt><trkpt lat="42.06601612967386" lon="13.599052971773512"><ele>817.0</ele><time>2026-05-02T12:26:38.999Z</time></trkpt><trkpt lat="42.06612537069468" lon="13.599036600484077"><ele>819.0</ele><time>2026-05-02T12:26:39.999Z</time></trkpt><trkpt lat="42.06622060270372" lon="13.59904847935875"><ele>821.0</ele><time>2026-05-02T12:26:40.999Z</time></trkpt><trkpt lat="42.06629466770523" lon="13.599055199539729"><ele>823.0</ele><time>2026-05-02T12:26:41.999Z</time></trkpt><trkpt lat="42.06636758214039" lon="13.599065916766447"><ele>825.0</ele><time>2026-05-02T12:26:43.999Z</time></trkpt><trkpt lat="42.06644694257527" lon="13.598880046046274"><ele>825.0</ele><time>2026-05-02T12:26:46.999Z</time></trkpt><trkpt lat="42.066493447238706" lon="13.59874619036521"><ele>825.0</ele><time>2026-05-02T12:26:47.999Z</time></trkpt><trkpt lat="42.06651666947139" lon="13.598604202786776"><ele>825.0</ele><time>2026-05-02T12:26:48.999Z</time></trkpt><trkpt lat="42.06656829648145" lon="13.598490247109856"><ele>825.0</ele><time>2026-05-02T12:26:49.999Z</time></trkpt><trkpt lat="42.06662123289906" lon="13.598380891761797"><ele>825.0</ele><time>2026-05-02T12:26:50.999Z</time></trkpt><trkpt lat="42.06666473900899" lon="13.598311765567006"><ele>825.8</ele><time>2026-05-02T12:26:51.999Z</time></trkpt><trkpt lat="42.06677167539194" lon="13.59827315558802"><ele>826.6</ele><time>2026-05-02T12:26:53.999Z</time></trkpt><trkpt lat="42.06680265443063" lon="13.598111707060983"><ele>827.4000000000001</ele><time>2026-05-02T12:26:54.999Z</time></trkpt><trkpt lat="42.06682447746865" lon="13.598032099745293"><ele>828.2</ele><time>2026-05-02T12:26:55.999Z</time></trkpt><trkpt lat="42.06685061112907" lon="13.597936767899753"><ele>829.0</ele><time>2026-05-02T12:26:57.999Z</time></trkpt><trkpt lat="42.06699419406108" lon="13.597946506493722"><ele>829.0</ele><time>2026-05-02T12:27:00.999Z</time></trkpt><trkpt lat="42.067089354675915" lon="13.597930910877608"><ele>829.0</ele><time>2026-05-02T12:27:01.999Z</time></trkpt><trkpt lat="42.06719313663979" lon="13.597944805491498"><ele>829.0</ele><time>2026-05-02T12:27:02.999Z</time></trkpt><trkpt lat="42.06729971055677" lon="13.597959257736823"><ele>829.0</ele><time>2026-05-02T12:27:03.999Z</time></trkpt><trkpt lat="42.06739826676364" lon="13.597988801877577"><ele>829.0</ele><time>2026-05-02T12:27:04.999Z</time></trkpt><trkpt lat="42.06750971876309" lon="13.598022061703402"><ele>831.75</ele><time>2026-05-02T12:27:05.999Z</time></trkpt><trkpt lat="42.067622881293175" lon="13.59805216290307"><ele>834.5</ele><time>2026-05-02T12:27:06.999Z</time></trkpt><trkpt lat="42.0677421249718" lon="13.598062474030915"><ele>837.25</ele><time>2026-05-02T12:27:07.999Z</time></trkpt><trkpt lat="42.06786071740936" lon="13.598100449515572"><ele>840.0</ele><time>2026-05-02T12:27:08.999Z</time></trkpt><trkpt lat="42.06798171732586" lon="13.598130338099775"><ele>840.0</ele><time>2026-05-02T12:27:09.999Z</time></trkpt><trkpt lat="42.0681021013516" lon="13.598164750093176"><ele>840.0</ele><time>2026-05-02T12:27:10.999Z</time></trkpt><trkpt lat="42.068222699113996" lon="13.59820709516522"><ele>840.0</ele><time>2026-05-02T12:27:11.999Z</time></trkpt><trkpt lat="42.06834043935823" lon="13.598241419364175"><ele>840.0</ele><time>2026-05-02T12:27:12.999Z</time></trkpt><trkpt lat="42.068461957137586" lon="13.598269453958457"><ele>842.0</ele><time>2026-05-02T12:27:13.999Z</time></trkpt><trkpt lat="42.06858464218732" lon="13.598292516524712"><ele>844.0</ele><time>2026-05-02T12:27:14.999Z</time></trkpt><trkpt lat="42.068706234869005" lon="13.598316765499613"><ele>846.0</ele><time>2026-05-02T12:27:15.999Z</time></trkpt><trkpt lat="42.06882459971538" lon="13.598348232089307"><ele>848.0</ele><time>2026-05-02T12:27:16.999Z</time></trkpt><trkpt lat="42.06893960475088" lon="13.59837826358638"><ele>848.0000000000001</ele><time>2026-05-02T12:27:17.999Z</time></trkpt><trkpt lat="42.069047909441394" lon="13.598406000511131"><ele>848.0</ele><time>2026-05-02T12:27:18.999Z</time></trkpt><trkpt lat="42.06914677821351" lon="13.598436265549934"><ele>848.0</ele><time>2026-05-02T12:27:19.999Z</time></trkpt><trkpt lat="42.06923032313171" lon="13.59846133479194"><ele>848.0</ele><time>2026-05-02T12:27:20.999Z</time></trkpt><trkpt lat="42.06929261028094" lon="13.598498662587646"><ele>848.0000000000001</ele><time>2026-05-02T12:27:21.999Z</time></trkpt><trkpt lat="42.06935413038717" lon="13.598562678774408"><ele>848.0</ele><time>2026-05-02T12:27:23.999Z</time></trkpt><trkpt lat="42.06933595456213" lon="13.598682857138282"><ele>850.5999999999999</ele><time>2026-05-02T12:27:24.999Z</time></trkpt><trkpt lat="42.06930849871745" lon="13.59878357492156"><ele>853.1999999999999</ele><time>2026-05-02T12:27:25.999Z</time></trkpt><trkpt lat="42.06928657306834" lon="13.598902182119586"><ele>855.8</ele><time>2026-05-02T12:27:26.999Z</time></trkpt><trkpt lat="42.06927976091929" lon="13.599039069129404"><ele>858.4</ele><time>2026-05-02T12:27:27.999Z</time></trkpt><trkpt lat="42.0692808890994" lon="13.599182517547009"><ele>861.0</ele><time>2026-05-02T12:27:28.999Z</time></trkpt><trkpt lat="42.0692803418932" lon="13.59931685916151"><ele>861.0</ele><time>2026-05-02T12:27:29.999Z</time></trkpt><trkpt lat="42.06928138041751" lon="13.599435832285026"><ele>861.0</ele><time>2026-05-02T12:27:30.999Z</time></trkpt><trkpt lat="42.069288943965816" lon="13.59953386815143"><ele>861.0</ele><time>2026-05-02T12:27:31.999Z</time></trkpt><trkpt lat="42.06930700111939" lon="13.599625554465277"><ele>861.0</ele><time>2026-05-02T12:27:32.999Z</time></trkpt><trkpt lat="42.069318635836645" lon="13.59971899566442"><ele>861.0</ele><time>2026-05-02T12:27:33.999Z</time></trkpt><trkpt lat="42.06936016808106" lon="13.59986214449296"><ele>861.0</ele><time>2026-05-02T12:27:35.999Z</time></trkpt><trkpt lat="42.069402024745386" lon="13.59994825710162"><ele>861.5</ele><time>2026-05-02T12:27:38.999Z</time></trkpt><trkpt lat="42.06953364725148" lon="13.599935637870622"><ele>862.0</ele><time>2026-05-02T12:27:40.999Z</time></trkpt><trkpt lat="42.06960644386706" lon="13.599870327768718"><ele>862.5</ele><time>2026-05-02T12:27:41.999Z</time></trkpt><trkpt lat="42.06970347814501" lon="13.599810045904949"><ele>863.0</ele><time>2026-05-02T12:27:42.999Z</time></trkpt><trkpt lat="42.06982614076139" lon="13.599770781867292"><ele>864.75</ele><time>2026-05-02T12:27:43.999Z</time></trkpt><trkpt lat="42.06994631707014" lon="13.599753482860553"><ele>866.5</ele><time>2026-05-02T12:27:44.999Z</time></trkpt><trkpt lat="42.07007525287636" lon="13.599748279117206"><ele>868.25</ele><time>2026-05-02T12:27:45.999Z</time></trkpt><trkpt lat="42.070212275166355" lon="13.599739417910413"><ele>870.0</ele><time>2026-05-02T12:27:46.999Z</time></trkpt><trkpt lat="42.0703559090956" lon="13.599720968817035"><ele>870.0</ele><time>2026-05-02T12:27:47.999Z</time></trkpt><trkpt lat="42.07050836580079" lon="13.599688535738972"><ele>870.0</ele><time>2026-05-02T12:27:48.999Z</time></trkpt><trkpt lat="42.07066610984655" lon="13.599639438593798"><ele>870.0</ele><time>2026-05-02T12:27:49.999Z</time></trkpt><trkpt lat="42.07082264988414" lon="13.599578762090097"><ele>870.0</ele><time>2026-05-02T12:27:50.999Z</time></trkpt><trkpt lat="42.07096873400253" lon="13.599512200921795"><ele>870.0</ele><time>2026-05-02T12:27:51.999Z</time></trkpt><trkpt lat="42.07111878591662" lon="13.599445041078768"><ele>870.0</ele><time>2026-05-02T12:27:52.999Z</time></trkpt><trkpt lat="42.07127329036261" lon="13.599378669874554"><ele>872.0</ele><time>2026-05-02T12:27:53.999Z</time></trkpt><trkpt lat="42.07142246203177" lon="13.59931446392903"><ele>874.0</ele><time>2026-05-02T12:27:54.999Z</time></trkpt><trkpt lat="42.071577694068964" lon="13.599245365027125"><ele>876.0</ele><time>2026-05-02T12:27:55.999Z</time></trkpt><trkpt lat="42.0717325738276" lon="13.599177337408321"><ele>878.3333333333333</ele><time>2026-05-02T12:27:56.999Z</time></trkpt><trkpt lat="42.071888677159336" lon="13.599109415203888"><ele>880.6666666666666</ele><time>2026-05-02T12:27:57.999Z</time></trkpt><trkpt lat="42.07204411515675" lon="13.599039327760357"><ele>883.0</ele><time>2026-05-02T12:27:58.999Z</time></trkpt><trkpt lat="42.07219894291389" lon="13.598966229662228"><ele>883.0</ele><time>2026-05-02T12:27:59.999Z</time></trkpt><trkpt lat="42.07235241546709" lon="13.598896055338026"><ele>883.0</ele><time>2026-05-02T12:28:00.999Z</time></trkpt><trkpt lat="42.07250781417179" lon="13.598826780518085"><ele>883.0</ele><time>2026-05-02T12:28:01.999Z</time></trkpt><trkpt lat="42.07266114822773" lon="13.598759236795287"><ele>885.3333333333333</ele><time>2026-05-02T12:28:02.999Z</time></trkpt><trkpt lat="42.07281395599851" lon="13.598689988171577"><ele>887.6666666666667</ele><time>2026-05-02T12:28:03.999Z</time></trkpt><trkpt lat="42.07296402752431" lon="13.598621627237067"><ele>890.0</ele><time>2026-05-02T12:28:04.999Z</time></trkpt><trkpt lat="42.07311483788456" lon="13.598555812583866"><ele>892.0</ele><time>2026-05-02T12:28:05.999Z</time></trkpt><trkpt lat="42.07326632840571" lon="13.59848727423253"><ele>894.0</ele><time>2026-05-02T12:28:06.999Z</time></trkpt><trkpt lat="42.073417239675905" lon="13.59841578927833"><ele>896.0</ele><time>2026-05-02T12:28:07.999Z</time></trkpt><trkpt lat="42.07356950895298" lon="13.59833951600732"><ele>898.6666666666667</ele><time>2026-05-02T12:28:08.999Z</time></trkpt><trkpt lat="42.073723576217596" lon="13.598265357679942"><ele>901.3333333333333</ele><time>2026-05-02T12:28:09.999Z</time></trkpt><trkpt lat="42.07387969596184" lon="13.598207008955756"><ele>904.0</ele><time>2026-05-02T12:28:10.999Z</time></trkpt><trkpt lat="42.07403916734547" lon="13.598168878223568"><ele>907.0</ele><time>2026-05-02T12:28:11.999Z</time></trkpt><trkpt lat="42.074204224132274" lon="13.598147144982297"><ele>910.0</ele><time>2026-05-02T12:28:12.999Z</time></trkpt><trkpt lat="42.074372152581944" lon="13.5981423867688"><ele>913.0</ele><time>2026-05-02T12:28:13.999Z</time></trkpt><trkpt lat="42.07454166572296" lon="13.598149344237465"><ele>913.0</ele><time>2026-05-02T12:28:14.999Z</time></trkpt><trkpt lat="42.074710411044386" lon="13.59815927652994"><ele>913.0</ele><time>2026-05-02T12:28:15.999Z</time></trkpt><trkpt lat="42.07487598505801" lon="13.59816999570069"><ele>913.0</ele><time>2026-05-02T12:28:16.999Z</time></trkpt><trkpt lat="42.07504125594456" lon="13.598182154067667"><ele>916.6666666666666</ele><time>2026-05-02T12:28:17.999Z</time></trkpt><trkpt lat="42.07520224988361" lon="13.598191995959159"><ele>920.3333333333333</ele><time>2026-05-02T12:28:18.999Z</time></trkpt><trkpt lat="42.07535760583462" lon="13.59819842860538"><ele>924.0</ele><time>2026-05-02T12:28:19.999Z</time></trkpt><trkpt lat="42.07551239432132" lon="13.598228309619387"><ele>924.0</ele><time>2026-05-02T12:28:20.999Z</time></trkpt><trkpt lat="42.07566458237661" lon="13.598216722958954"><ele>924.0</ele><time>2026-05-02T12:28:21.999Z</time></trkpt><trkpt lat="42.07581175802061" lon="13.598215425387464"><ele>924.0</ele><time>2026-05-02T12:28:22.999Z</time></trkpt><trkpt lat="42.075955615048095" lon="13.598199848116002"><ele>924.0</ele><time>2026-05-02T12:28:23.999Z</time></trkpt><trkpt lat="42.07608727560237" lon="13.5981742494211"><ele>926.5</ele><time>2026-05-02T12:28:24.999Z</time></trkpt><trkpt lat="42.07620625812425" lon="13.598170135472776"><ele>929.0</ele><time>2026-05-02T12:28:25.999Z</time></trkpt><trkpt lat="42.07631189278961" lon="13.5981068516778"><ele>931.5</ele><time>2026-05-02T12:28:26.999Z</time></trkpt><trkpt lat="42.07642027382159" lon="13.59804387878921"><ele>934.0</ele><time>2026-05-02T12:28:27.999Z</time></trkpt><trkpt lat="42.07650536967636" lon="13.597919798711779"><ele>934.75</ele><time>2026-05-02T12:28:28.999Z</time></trkpt><trkpt lat="42.07658037826666" lon="13.59778809212786"><ele>935.5</ele><time>2026-05-02T12:28:29.999Z</time></trkpt><trkpt lat="42.076651859227866" lon="13.597659685344325"><ele>936.25</ele><time>2026-05-02T12:28:30.999Z</time></trkpt><trkpt lat="42.07672006915449" lon="13.597537154497864"><ele>937.0</ele><time>2026-05-02T12:28:31.999Z</time></trkpt><trkpt lat="42.076792154344886" lon="13.597434166648046"><ele>939.2</ele><time>2026-05-02T12:28:32.999Z</time></trkpt><trkpt lat="42.07687459488334" lon="13.597359355885354"><ele>941.4000000000001</ele><time>2026-05-02T12:28:33.999Z</time></trkpt><trkpt lat="42.076963869396714" lon="13.597301146305252"><ele>943.5999999999999</ele><time>2026-05-02T12:28:34.999Z</time></trkpt><trkpt lat="42.07706519083409" lon="13.59728765171148"><ele>945.8</ele><time>2026-05-02T12:28:35.999Z</time></trkpt><trkpt lat="42.077151373241804" lon="13.597316303753011"><ele>948.0</ele><time>2026-05-02T12:28:36.999Z</time></trkpt><trkpt lat="42.07722116102157" lon="13.597396912346676"><ele>948.0</ele><time>2026-05-02T12:28:37.999Z</time></trkpt><trkpt lat="42.07726772768918" lon="13.597510070963917"><ele>948.0</ele><time>2026-05-02T12:28:38.999Z</time></trkpt><trkpt lat="42.07730558952145" lon="13.59763352540594"><ele>948.0</ele><time>2026-05-02T12:28:39.999Z</time></trkpt><trkpt lat="42.077339267774626" lon="13.597751655746992"><ele>948.0</ele><time>2026-05-02T12:28:40.999Z</time></trkpt><trkpt lat="42.07738026783027" lon="13.597872217757086"><ele>948.0</ele><time>2026-05-02T12:28:41.999Z</time></trkpt><trkpt lat="42.07742535620618" lon="13.59797380038305"><ele>949.1666666666666</ele><time>2026-05-02T12:28:42.999Z</time></trkpt><trkpt lat="42.07748431114884" lon="13.598029250422105"><ele>950.3333333333333</ele><time>2026-05-02T12:28:43.999Z</time></trkpt><trkpt lat="42.077562639715005" lon="13.598033633606871"><ele>951.5</ele><time>2026-05-02T12:28:44.999Z</time></trkpt><trkpt lat="42.077622493263" lon="13.59797616829703"><ele>952.6666666666666</ele><time>2026-05-02T12:28:45.999Z</time></trkpt><trkpt lat="42.077645689337665" lon="13.59786919966008"><ele>953.8333333333333</ele><time>2026-05-02T12:28:46.999Z</time></trkpt><trkpt lat="42.077637217093624" lon="13.597731527369593"><ele>955.0</ele><time>2026-05-02T12:28:47.999Z</time></trkpt><trkpt lat="42.077576157469615" lon="13.597615425199882"><ele>955.25</ele><time>2026-05-02T12:28:48.999Z</time></trkpt><trkpt lat="42.07751985781226" lon="13.597477722905126"><ele>955.5</ele><time>2026-05-02T12:28:49.999Z</time></trkpt><trkpt lat="42.07746199499292" lon="13.597325931677926"><ele>955.75</ele><time>2026-05-02T12:28:50.999Z</time></trkpt><trkpt lat="42.077401498549975" lon="13.597161616675299"><ele>956.0</ele><time>2026-05-02T12:28:51.999Z</time></trkpt><trkpt lat="42.0773344959364" lon="13.59698155770994"><ele>956.0</ele><time>2026-05-02T12:28:52.999Z</time></trkpt><trkpt lat="42.07726346849381" lon="13.59680289926341"><ele>956.0</ele><time>2026-05-02T12:28:53.999Z</time></trkpt><trkpt lat="42.07719216295718" lon="13.5966298588396"><ele>956.0</ele><time>2026-05-02T12:28:54.999Z</time></trkpt><trkpt lat="42.077127741730216" lon="13.596462834158439"><ele>956.0</ele><time>2026-05-02T12:28:55.999Z</time></trkpt><trkpt lat="42.07707740997328" lon="13.59631156387477"><ele>955.8</ele><time>2026-05-02T12:28:56.999Z</time></trkpt><trkpt lat="42.07705133712785" lon="13.596167080812991"><ele>955.5999999999999</ele><time>2026-05-02T12:28:57.999Z</time></trkpt><trkpt lat="42.07706482620193" lon="13.596025693668807"><ele>955.4</ele><time>2026-05-02T12:28:58.999Z</time></trkpt><trkpt lat="42.07711167027191" lon="13.595891906713483"><ele>955.2</ele><time>2026-05-02T12:28:59.999Z</time></trkpt><trkpt lat="42.07717359916802" lon="13.595764579075714"><ele>955.0</ele><time>2026-05-02T12:29:00.999Z</time></trkpt><trkpt lat="42.07724951794833" lon="13.59563901089153"><ele>955.0</ele><time>2026-05-02T12:29:01.999Z</time></trkpt><trkpt lat="42.07734107909463" lon="13.595516825780944"><ele>955.0</ele><time>2026-05-02T12:29:02.999Z</time></trkpt><trkpt lat="42.07744597262933" lon="13.595398681465932"><ele>955.0</ele><time>2026-05-02T12:29:03.999Z</time></trkpt><trkpt lat="42.077558139327394" lon="13.595277351840009"><ele>955.0</ele><time>2026-05-02T12:29:04.999Z</time></trkpt><trkpt lat="42.07767309350854" lon="13.595143767540565"><ele>958.5</ele><time>2026-05-02T12:29:05.999Z</time></trkpt><trkpt lat="42.07778860655204" lon="13.59500453997301"><ele>962.0</ele><time>2026-05-02T12:29:06.999Z</time></trkpt><trkpt lat="42.07790008188395" lon="13.594867551165182"><ele>965.5</ele><time>2026-05-02T12:29:07.999Z</time></trkpt><trkpt lat="42.07800836108876" lon="13.594758817693775"><ele>969.0</ele><time>2026-05-02T12:29:08.999Z</time></trkpt><trkpt lat="42.07811700761365" lon="13.594703415482302"><ele>969.0</ele><time>2026-05-02T12:29:09.999Z</time></trkpt><trkpt lat="42.07822253933961" lon="13.594645974015044"><ele>969.0000000000001</ele><time>2026-05-02T12:29:10.999Z</time></trkpt><trkpt lat="42.07830251477432" lon="13.594547211055799"><ele>969.0000000000001</ele><time>2026-05-02T12:29:11.999Z</time></trkpt><trkpt lat="42.078340204513104" lon="13.594406736716378"><ele>969.0</ele><time>2026-05-02T12:29:12.999Z</time></trkpt><trkpt lat="42.07833520039032" lon="13.594251173048393"><ele>969.0</ele><time>2026-05-02T12:29:13.999Z</time></trkpt><trkpt lat="42.078302668236695" lon="13.594100265332221"><ele>970.4000000000001</ele><time>2026-05-02T12:29:14.999Z</time></trkpt><trkpt lat="42.07827930691405" lon="13.59395136090039"><ele>971.8000000000001</ele><time>2026-05-02T12:29:15.999Z</time></trkpt><trkpt lat="42.07830430100811" lon="13.593812666834642"><ele>973.1999999999999</ele><time>2026-05-02T12:29:16.999Z</time></trkpt><trkpt lat="42.07837086331134" lon="13.593697760382446"><ele>974.5999999999999</ele><time>2026-05-02T12:29:17.999Z</time></trkpt><trkpt lat="42.07845434407365" lon="13.593606596521044"><ele>976.0</ele><time>2026-05-02T12:29:18.999Z</time></trkpt><trkpt lat="42.07854434818699" lon="13.593508293115585"><ele>976.0</ele><time>2026-05-02T12:29:19.999Z</time></trkpt><trkpt lat="42.07864393056935" lon="13.593408139507275"><ele>976.0</ele><time>2026-05-02T12:29:20.999Z</time></trkpt><trkpt lat="42.078742719762374" lon="13.593310173592542"><ele>976.0</ele><time>2026-05-02T12:29:21.999Z</time></trkpt><trkpt lat="42.07883954381053" lon="13.593219587640078"><ele>976.0</ele><time>2026-05-02T12:29:22.999Z</time></trkpt><trkpt lat="42.07892970605952" lon="13.593129443380324"><ele>976.0</ele><time>2026-05-02T12:29:23.999Z</time></trkpt><trkpt lat="42.07901684730775" lon="13.593036546663244"><ele>975.9999999999999</ele><time>2026-05-02T12:29:24.999Z</time></trkpt><trkpt lat="42.079116208383226" lon="13.592968746234469"><ele>975.9999999999999</ele><time>2026-05-02T12:29:25.999Z</time></trkpt><trkpt lat="42.079203959711286" lon="13.592889112229729"><ele>976.0</ele><time>2026-05-02T12:29:26.999Z</time></trkpt><trkpt lat="42.07927858040858" lon="13.592799791905732"><ele>976.0</ele><time>2026-05-02T12:29:27.999Z</time></trkpt><trkpt lat="42.07936232261539" lon="13.592722540762999"><ele>978.8</ele><time>2026-05-02T12:29:28.999Z</time></trkpt><trkpt lat="42.0794477234209" lon="13.592647465638773"><ele>981.5999999999999</ele><time>2026-05-02T12:29:29.999Z</time></trkpt><trkpt lat="42.07953411287587" lon="13.592570510495918"><ele>984.4</ele><time>2026-05-02T12:29:30.999Z</time></trkpt><trkpt lat="42.07961663091108" lon="13.592495542977552"><ele>987.2</ele><time>2026-05-02T12:29:31.999Z</time></trkpt><trkpt lat="42.07970205654879" lon="13.592438291767893"><ele>990.0</ele><time>2026-05-02T12:29:32.999Z</time></trkpt><trkpt lat="42.07977802493168" lon="13.592369806143603"><ele>990.0</ele><time>2026-05-02T12:29:33.999Z</time></trkpt><trkpt lat="42.07985160106538" lon="13.592303477140817"><ele>990.0</ele><time>2026-05-02T12:29:34.999Z</time></trkpt><trkpt lat="42.07992082183382" lon="13.592241074505946"><ele>990.0</ele><time>2026-05-02T12:29:35.999Z</time></trkpt><trkpt lat="42.079992025038855" lon="13.592176884702077"><ele>990.0</ele><time>2026-05-02T12:29:36.999Z</time></trkpt><trkpt lat="42.080065831005015" lon="13.592110348508644"><ele>990.0</ele><time>2026-05-02T12:29:37.999Z</time></trkpt><trkpt lat="42.080146851273746" lon="13.592042820760618"><ele>990.0</ele><time>2026-05-02T12:29:38.999Z</time></trkpt><trkpt lat="42.08023021426239" lon="13.59197514320635"><ele>992.8</ele><time>2026-05-02T12:29:39.999Z</time></trkpt><trkpt lat="42.080316305885" lon="13.59190526532996"><ele>995.6</ele><time>2026-05-02T12:29:40.999Z</time></trkpt><trkpt lat="42.08039706430889" lon="13.591816686259062"><ele>998.4000000000001</ele><time>2026-05-02T12:29:41.999Z</time></trkpt><trkpt lat="42.08048154006997" lon="13.591752521998151"><ele>1001.2</ele><time>2026-05-02T12:29:42.999Z</time></trkpt><trkpt lat="42.08056204578138" lon="13.591688306067951"><ele>1004.0</ele><time>2026-05-02T12:29:43.999Z</time></trkpt><trkpt lat="42.080632152075594" lon="13.591621424862202"><ele>1004.0</ele><time>2026-05-02T12:29:44.999Z</time></trkpt><trkpt lat="42.08068014418489" lon="13.591540057833113"><ele>1004.0000000000001</ele><time>2026-05-02T12:29:45.999Z</time></trkpt><trkpt lat="42.08071645943164" lon="13.591449850900032"><ele>1004.0000000000001</ele><time>2026-05-02T12:29:46.999Z</time></trkpt><trkpt lat="42.08072752562432" lon="13.591338471044981"><ele>1004.0</ele><time>2026-05-02T12:29:48.999Z</time></trkpt><trkpt lat="42.08074412778957" lon="13.591249798178772"><ele>1004.0</ele><time>2026-05-02T12:29:51.999Z</time></trkpt><trkpt lat="42.08057487221879" lon="13.591153632100745"><ele>1004.8333333333334</ele><time>2026-05-02T12:29:52.999Z</time></trkpt><trkpt lat="42.08049663500293" lon="13.591094969472133"><ele>1005.6666666666667</ele><time>2026-05-02T12:29:53.999Z</time></trkpt><trkpt lat="42.080414375076614" lon="13.591038531134688"><ele>1006.5</ele><time>2026-05-02T12:29:54.999Z</time></trkpt><trkpt lat="42.08033093652408" lon="13.590977779957337"><ele>1007.3333333333333</ele><time>2026-05-02T12:29:55.999Z</time></trkpt><trkpt lat="42.08025043162605" lon="13.590921914888318"><ele>1008.1666666666666</ele><time>2026-05-02T12:29:57Z</time></trkpt><trkpt lat="42.08018444366452" lon="13.590875561659603"><ele>1009.0</ele><time>2026-05-02T12:29:58Z</time></trkpt><trkpt lat="42.080092490278496" lon="13.590805917486703"><ele>1009.0</ele><time>2026-05-02T12:30:00Z</time></trkpt><trkpt lat="42.08002173162577" lon="13.59075003313956"><ele>1009.0</ele><time>2026-05-02T12:30:02Z</time></trkpt><trkpt lat="42.07996319493691" lon="13.590693179739391"><ele>1009.0</ele><time>2026-05-02T12:30:04Z</time></trkpt><trkpt lat="42.079906147596134" lon="13.590651530114865"><ele>1009.0</ele><time>2026-05-02T12:30:06Z</time></trkpt><trkpt lat="42.079842548244876" lon="13.590621261481038"><ele>1009.0</ele><time>2026-05-02T12:30:09Z</time></trkpt><trkpt lat="42.079902072309615" lon="13.590656445125454"><ele>1009.0</ele><time>2026-05-02T12:30:13Z</time></trkpt><trkpt lat="42.07995831549237" lon="13.590716830298877"><ele>1009.0</ele><time>2026-05-02T12:30:15Z</time></trkpt><trkpt lat="42.08007468828371" lon="13.590799848562652"><ele>1008.9999999999999</ele><time>2026-05-02T12:30:17Z</time></trkpt><trkpt lat="42.08014179171472" lon="13.590857991947857"><ele>1009.0</ele><time>2026-05-02T12:30:18Z</time></trkpt><trkpt lat="42.080215609601964" lon="13.59091345618103"><ele>1009.0</ele><time>2026-05-02T12:30:19Z</time></trkpt><trkpt lat="42.08028936979879" lon="13.590961501152119"><ele>1009.0</ele><time>2026-05-02T12:30:20Z</time></trkpt><trkpt lat="42.08035795647968" lon="13.591008256138121"><ele>1008.9999999999999</ele><time>2026-05-02T12:30:21Z</time></trkpt><trkpt lat="42.08042288816299" lon="13.591054593863062"><ele>1009.0</ele><time>2026-05-02T12:30:22Z</time></trkpt><trkpt lat="42.080482504674066" lon="13.59109845408443"><ele>1008.9999999999999</ele><time>2026-05-02T12:30:23Z</time></trkpt><trkpt lat="42.080539138932814" lon="13.59114468834564"><ele>1009.0</ele><time>2026-05-02T12:30:24Z</time></trkpt><trkpt lat="42.08063825540491" lon="13.591232415391623"><ele>1009.0</ele><time>2026-05-02T12:30:26Z</time></trkpt><trkpt lat="42.08070408692841" lon="13.591250704773008"><ele>1009.0</ele><time>2026-05-02T12:30:28Z</time></trkpt><trkpt lat="42.08077184298612" lon="13.591203482413597"><ele>1008.9999999999999</ele><time>2026-05-02T12:30:30Z</time></trkpt><trkpt lat="42.080776685679226" lon="13.5910859740434"><ele>1009.0</ele><time>2026-05-02T12:30:32Z</time></trkpt><trkpt lat="42.080702543628405" lon="13.590947482086255"><ele>1008.9999999999999</ele><time>2026-05-02T12:30:34Z</time></trkpt><trkpt lat="42.0806433056158" lon="13.59089250574837"><ele>1009.0</ele><time>2026-05-02T12:30:35Z</time></trkpt><trkpt lat="42.08057554974543" lon="13.590841468839347"><ele>1009.0</ele><time>2026-05-02T12:30:36Z</time></trkpt><trkpt lat="42.08050695443816" lon="13.590781644777303"><ele>1009.0</ele><time>2026-05-02T12:30:37Z</time></trkpt><trkpt lat="42.08043762876946" lon="13.590719907712037"><ele>1008.9999999999999</ele><time>2026-05-02T12:30:38Z</time></trkpt><trkpt lat="42.0803702962248" lon="13.590657926518624"><ele>1009.0</ele><time>2026-05-02T12:30:39Z</time></trkpt><trkpt lat="42.08020797673842" lon="13.590847024059398"><ele>1009.0</ele><time>2026-05-02T12:30:40Z</time></trkpt><trkpt lat="42.080142752867076" lon="13.590799740280545"><ele>1009.0</ele><time>2026-05-02T12:30:41Z</time></trkpt><trkpt lat="42.08008164358011" lon="13.59075543933825"><ele>1009.0</ele><time>2026-05-02T12:30:42Z</time></trkpt><trkpt lat="42.07998267329205" lon="13.59068411342969"><ele>1009.0</ele><time>2026-05-02T12:30:44Z</time></trkpt><trkpt lat="42.08016575773616" lon="13.59022520651215"><ele>1009.0</ele><time>2026-05-02T12:30:49Z</time></trkpt><trkpt lat="42.08024591396608" lon="13.590307672244018"><ele>1009.0000000000001</ele><time>2026-05-02T12:31:00Z</time></trkpt><trkpt lat="42.08031470456575" lon="13.590365183820829"><ele>1009.0000000000001</ele><time>2026-05-02T12:31:02Z</time></trkpt><trkpt lat="42.080398272287525" lon="13.590388757021502"><ele>1009.0</ele><time>2026-05-02T12:31:03.999Z</time></trkpt><trkpt lat="42.080486729464745" lon="13.590412049983712"><ele>1009.0</ele><time>2026-05-02T12:31:05.999Z</time></trkpt><trkpt lat="42.080579959744234" lon="13.590439489614479"><ele>1009.0</ele><time>2026-05-02T12:31:07.999Z</time></trkpt><trkpt lat="42.080681800753666" lon="13.590471746001265"><ele>1009.0000000000001</ele><time>2026-05-02T12:31:09.999Z</time></trkpt><trkpt lat="42.080781720897235" lon="13.590533284386947"><ele>1009.0000000000001</ele><time>2026-05-02T12:31:11.999Z</time></trkpt><trkpt lat="42.08089041302385" lon="13.590581704976096"><ele>1009.0</ele><time>2026-05-02T12:31:13.999Z</time></trkpt><trkpt lat="42.081006629242516" lon="13.590616240140315"><ele>1009.0</ele><time>2026-05-02T12:31:15.999Z</time></trkpt><trkpt lat="42.08112684729418" lon="13.590650330139994"><ele>1011.2</ele><time>2026-05-02T12:31:18Z</time></trkpt><trkpt lat="42.081236327500086" lon="13.590679272504063"><ele>1013.4000000000001</ele><time>2026-05-02T12:31:20Z</time></trkpt><trkpt lat="42.081303369938816" lon="13.590687576206433"><ele>1015.6</ele><time>2026-05-02T12:31:22Z</time></trkpt><trkpt lat="42.08132622969208" lon="13.590457414717067"><ele>1017.8</ele><time>2026-05-02T12:31:24Z</time></trkpt><trkpt lat="42.081335275237784" lon="13.590357570625661"><ele>1020.0</ele><time>2026-05-02T12:31:27Z</time></trkpt><trkpt lat="42.081337793270464" lon="13.590253566000047"><ele>1020.5</ele><time>2026-05-02T12:31:29Z</time></trkpt><trkpt lat="42.08133332487229" lon="13.590145376186019"><ele>1021.0</ele><time>2026-05-02T12:31:32Z</time></trkpt><trkpt lat="42.08140421150513" lon="13.590077091042884"><ele>1021.5</ele><time>2026-05-02T12:31:36Z</time></trkpt><trkpt lat="42.081498189679564" lon="13.590086933816503"><ele>1022.0</ele><time>2026-05-02T12:31:38Z</time></trkpt><trkpt lat="42.081584317719255" lon="13.590084008896122"><ele>1022.5</ele><time>2026-05-02T12:31:40Z</time></trkpt><trkpt lat="42.08165080940943" lon="13.590028088620992"><ele>1023.0</ele><time>2026-05-02T12:31:42Z</time></trkpt><trkpt lat="42.08171760051286" lon="13.58993304532998"><ele>1023.3333333333334</ele><time>2026-05-02T12:31:44Z</time></trkpt><trkpt lat="42.081784008262446" lon="13.58986431791904"><ele>1023.6666666666667</ele><time>2026-05-02T12:31:46Z</time></trkpt><trkpt lat="42.08185249676897" lon="13.58982167223882"><ele>1024.0</ele><time>2026-05-02T12:31:48Z</time></trkpt><trkpt lat="42.08191998959179" lon="13.589792064706941"><ele>1024.3333333333335</ele><time>2026-05-02T12:31:51Z</time></trkpt><trkpt lat="42.082012445933614" lon="13.589755850092764"><ele>1024.6666666666667</ele><time>2026-05-02T12:32:29Z</time></trkpt><trkpt lat="42.082100146333836" lon="13.589728566221789"><ele>1025.0</ele><time>2026-05-02T12:32:31Z</time></trkpt><trkpt lat="42.08219884863748" lon="13.589711893764889"><ele>1025.0</ele><time>2026-05-02T12:32:33Z</time></trkpt><trkpt lat="42.08229445911728" lon="13.589705661304013"><ele>1025.0</ele><time>2026-05-02T12:32:35Z</time></trkpt><trkpt lat="42.08236895633876" lon="13.589703634567579"><ele>1025.0</ele><time>2026-05-02T12:32:37Z</time></trkpt><trkpt lat="42.08244337335342" lon="13.589701945193589"><ele>1025.0</ele><time>2026-05-02T12:32:39Z</time></trkpt><trkpt lat="42.0825463074244" lon="13.589693738259465"><ele>1025.0</ele><time>2026-05-02T12:32:41Z</time></trkpt><trkpt lat="42.08264748013496" lon="13.589700830137826"><ele>1025.0</ele><time>2026-05-02T12:32:43Z</time></trkpt><trkpt lat="42.082738340296515" lon="13.589741532617085"><ele>1025.5</ele><time>2026-05-02T12:32:45Z</time></trkpt><trkpt lat="42.08272924823345" lon="13.589630879283135"><ele>1026.0</ele><time>2026-05-02T12:32:52Z</time></trkpt><trkpt lat="42.08268263938345" lon="13.589546657821625"><ele>1026.5</ele><time>2026-05-02T12:32:54Z</time></trkpt><trkpt lat="42.08269253418555" lon="13.589398792520825"><ele>1027.0</ele><time>2026-05-02T12:32:56Z</time></trkpt><trkpt lat="42.082700915666685" lon="13.589259909368945"><ele>1027.5</ele><time>2026-05-02T12:32:58Z</time></trkpt><trkpt lat="42.08270319762217" lon="13.589167034015055"><ele>1028.0</ele><time>2026-05-02T12:33:00Z</time></trkpt><trkpt lat="42.082613830984016" lon="13.589031791019792"><ele>1024.6666666666667</ele><time>2026-05-02T12:33:02Z</time></trkpt><trkpt lat="42.082597065923736" lon="13.588911657010632"><ele>1021.3333333333334</ele><time>2026-05-02T12:33:04Z</time></trkpt><trkpt lat="42.082583638273526" lon="13.588801825557283"><ele>1018.0</ele><time>2026-05-02T12:33:07Z</time></trkpt><trkpt lat="42.0826787641524" lon="13.588865067796101"><ele>1014.6666666666667</ele><time>2026-05-02T12:33:09.999Z</time></trkpt><trkpt lat="42.082749104387105" lon="13.588918276678053"><ele>1011.3333333333334</ele><time>2026-05-02T12:33:10.999Z</time></trkpt><trkpt lat="42.08281547976437" lon="13.58898191166002"><ele>1008.0</ele><time>2026-05-02T12:33:11.999Z</time></trkpt><trkpt lat="42.08288639939874" lon="13.58905365057158"><ele>1008.0</ele><time>2026-05-02T12:33:12.999Z</time></trkpt><trkpt lat="42.08295542667037" lon="13.589115435160982"><ele>1008.0</ele><time>2026-05-02T12:33:13.999Z</time></trkpt><trkpt lat="42.083024777211186" lon="13.589190242422424"><ele>1008.0</ele><time>2026-05-02T12:33:15.999Z</time></trkpt><trkpt lat="42.08308519894062" lon="13.589228720321278"><ele>1008.0</ele><time>2026-05-02T12:33:18.999Z</time></trkpt><trkpt lat="42.083006494349064" lon="13.589159534204404"><ele>1008.0</ele><time>2026-05-02T12:33:23.999Z</time></trkpt><trkpt lat="42.082947317247346" lon="13.589123900181336"><ele>1008.0</ele><time>2026-05-02T12:33:24.999Z</time></trkpt><trkpt lat="42.08288398714066" lon="13.58907452067405"><ele>1008.0</ele><time>2026-05-02T12:33:25.999Z</time></trkpt><trkpt lat="42.083002422425956" lon="13.589040943981631"><ele>1008.0</ele><time>2026-05-02T12:33:26.999Z</time></trkpt><trkpt lat="42.08272116549138" lon="13.588882006463914"><ele>1008.0</ele><time>2026-05-02T12:33:27.999Z</time></trkpt><trkpt lat="42.082656519585775" lon="13.588829184348997"><ele>1008.0</ele><time>2026-05-02T12:33:28.999Z</time></trkpt><trkpt lat="42.08259770610038" lon="13.588787793061304"><ele>1008.0</ele><time>2026-05-02T12:33:29.999Z</time></trkpt><trkpt lat="42.08252290443249" lon="13.588737700692844"><ele>1008.0</ele><time>2026-05-02T12:33:31.999Z</time></trkpt><trkpt lat="42.08257489173683" lon="13.58865268860281"><ele>1008.0</ele><time>2026-05-02T12:33:34.999Z</time></trkpt><trkpt lat="42.08267842874339" lon="13.588693111721728"><ele>1008.0</ele><time>2026-05-02T12:33:37Z</time></trkpt><trkpt lat="42.082798591053525" lon="13.588726073274893"><ele>1008.0</ele><time>2026-05-02T12:33:39Z</time></trkpt><trkpt lat="42.08286072409373" lon="13.588744295689379"><ele>1008.0</ele><time>2026-05-02T12:33:40Z</time></trkpt><trkpt lat="42.08292361765" lon="13.588761129771854"><ele>1008.0</ele><time>2026-05-02T12:33:41Z</time></trkpt><trkpt lat="42.08299251058117" lon="13.588783074048589"><ele>1008.0</ele><time>2026-05-02T12:33:42Z</time></trkpt><trkpt lat="42.08305821621572" lon="13.588797933292739"><ele>1008.0</ele><time>2026-05-02T12:33:43Z</time></trkpt><trkpt lat="42.08311939013111" lon="13.588830602773855"><ele>1008.0</ele><time>2026-05-02T12:33:44Z</time></trkpt><trkpt lat="42.0832311655602" lon="13.588839635354537"><ele>1008.0</ele><time>2026-05-02T12:33:46Z</time></trkpt><trkpt lat="42.083318465336596" lon="13.5888397392356"><ele>1006.5</ele><time>2026-05-02T12:33:48Z</time></trkpt><trkpt lat="42.083409952172396" lon="13.588832893496726"><ele>1005.0</ele><time>2026-05-02T12:33:50Z</time></trkpt><trkpt lat="42.08352202963663" lon="13.588835855153736"><ele>1003.5</ele><time>2026-05-02T12:33:52Z</time></trkpt><trkpt lat="42.08358715180927" lon="13.588835964180943"><ele>1002.0</ele><time>2026-05-02T12:33:53Z</time></trkpt><trkpt lat="42.08366029511251" lon="13.588853571165604"><ele>1000.5</ele><time>2026-05-02T12:33:54Z</time></trkpt><trkpt lat="42.083727161816924" lon="13.588855250427752"><ele>999.0</ele><time>2026-05-02T12:33:55Z</time></trkpt><trkpt lat="42.08379349080279" lon="13.588856916186765"><ele>999.0</ele><time>2026-05-02T12:33:56Z</time></trkpt><trkpt lat="42.0838655955376" lon="13.588858726995207"><ele>999.0</ele><time>2026-05-02T12:33:57Z</time></trkpt><trkpt lat="42.08393213728188" lon="13.588861022093472"><ele>999.0</ele><time>2026-05-02T12:33:58Z</time></trkpt><trkpt lat="42.08400066833161" lon="13.588845321163408"><ele>999.0</ele><time>2026-05-02T12:33:59Z</time></trkpt><trkpt lat="42.0841246756683" lon="13.588843252052918"><ele>999.0</ele><time>2026-05-02T12:34:01Z</time></trkpt><trkpt lat="42.08418847147327" lon="13.588828546155057"><ele>999.0</ele><time>2026-05-02T12:34:02Z</time></trkpt><trkpt lat="42.08425271363825" lon="13.588817810531209"><ele>997.3333333333334</ele><time>2026-05-02T12:34:03Z</time></trkpt><trkpt lat="42.084362436732775" lon="13.588820679952494"><ele>995.6666666666667</ele><time>2026-05-02T12:34:05Z</time></trkpt><trkpt lat="42.08443115031223" lon="13.588813881950369"><ele>994.0</ele><time>2026-05-02T12:34:06Z</time></trkpt><trkpt lat="42.08451124061181" lon="13.588792738330953"><ele>992.3333333333334</ele><time>2026-05-02T12:34:07Z</time></trkpt><trkpt lat="42.084593329353" lon="13.588801620501078"><ele>990.6666666666667</ele><time>2026-05-02T12:34:08Z</time></trkpt><trkpt lat="42.08466367531723" lon="13.588795844546636"><ele>989.0</ele><time>2026-05-02T12:34:09Z</time></trkpt><trkpt lat="42.08476143552299" lon="13.588772537023031"><ele>989.0</ele><time>2026-05-02T12:34:11Z</time></trkpt><trkpt lat="42.08481645826599" lon="13.588696033275205"><ele>989.0000000000001</ele><time>2026-05-02T12:34:14Z</time></trkpt><trkpt lat="42.08477353159729" lon="13.588585911857313"><ele>989.0000000000001</ele><time>2026-05-02T12:34:16Z</time></trkpt><trkpt lat="42.084701098104674" lon="13.58859859364413"><ele>989.0</ele><time>2026-05-02T12:34:17Z</time></trkpt><trkpt lat="42.08457846555121" lon="13.58859220709412"><ele>989.0</ele><time>2026-05-02T12:34:19Z</time></trkpt><trkpt lat="42.084475087880776" lon="13.588532427848937"><ele>986.0</ele><time>2026-05-02T12:34:21Z</time></trkpt><trkpt lat="42.084414671230256" lon="13.5884918072484"><ele>982.9999999999999</ele><time>2026-05-02T12:34:22Z</time></trkpt><trkpt lat="42.08434411856267" lon="13.58845668282497"><ele>980.0</ele><time>2026-05-02T12:34:23Z</time></trkpt><trkpt lat="42.0842874518739" lon="13.588399755359644"><ele>977.0</ele><time>2026-05-02T12:34:24Z</time></trkpt><trkpt lat="42.084229608851004" lon="13.588345970314887"><ele>973.9999999999999</ele><time>2026-05-02T12:34:25Z</time></trkpt><trkpt lat="42.084183578163845" lon="13.588285807436083"><ele>971.0</ele><time>2026-05-02T12:34:26Z</time></trkpt><trkpt lat="42.08414143500354" lon="13.588191041329303"><ele>968.0</ele><time>2026-05-02T12:34:28Z</time></trkpt><trkpt lat="42.084145677778324" lon="13.588100132533238"><ele>968.0</ele><time>2026-05-02T12:34:38Z</time></trkpt><trkpt lat="42.08420371116854" lon="13.58799552134212"><ele>968.0</ele><time>2026-05-02T12:34:41Z</time></trkpt><trkpt lat="42.08428078079085" lon="13.587956555923236"><ele>968.0</ele><time>2026-05-02T12:34:43Z</time></trkpt><trkpt lat="42.084370201630726" lon="13.587884410309561"><ele>968.0</ele><time>2026-05-02T12:34:45Z</time></trkpt><trkpt lat="42.08443341645398" lon="13.587803176762415"><ele>968.0</ele><time>2026-05-02T12:34:47Z</time></trkpt><trkpt lat="42.08449962609983" lon="13.587712894343467"><ele>965.8333333333334</ele><time>2026-05-02T12:34:49Z</time></trkpt><trkpt lat="42.08457506451344" lon="13.587572135310028"><ele>963.6666666666667</ele><time>2026-05-02T12:34:51Z</time></trkpt><trkpt lat="42.08462070575394" lon="13.587500694076942"><ele>961.5</ele><time>2026-05-02T12:34:52Z</time></trkpt><trkpt lat="42.08470184317395" lon="13.587465280901428"><ele>959.3333333333333</ele><time>2026-05-02T12:34:53Z</time></trkpt><trkpt lat="42.08475924455397" lon="13.587401200988822"><ele>957.1666666666666</ele><time>2026-05-02T12:34:54Z</time></trkpt><trkpt lat="42.0848182760138" lon="13.587339932406657"><ele>955.0</ele><time>2026-05-02T12:34:55Z</time></trkpt><trkpt lat="42.08488779695967" lon="13.587271988387958"><ele>954.3333333333333</ele><time>2026-05-02T12:34:56Z</time></trkpt><trkpt lat="42.08495998370957" lon="13.587208276439162"><ele>953.6666666666666</ele><time>2026-05-02T12:34:57Z</time></trkpt><trkpt lat="42.085038698725285" lon="13.587153854951554"><ele>953.0</ele><time>2026-05-02T12:34:58Z</time></trkpt><trkpt lat="42.085110813965926" lon="13.587115475061655"><ele>952.3333333333333</ele><time>2026-05-02T12:34:59Z</time></trkpt><trkpt lat="42.08518698607883" lon="13.58706802003799"><ele>951.6666666666666</ele><time>2026-05-02T12:35:00Z</time></trkpt><trkpt lat="42.08525735393529" lon="13.587042507207688"><ele>951.0</ele><time>2026-05-02T12:35:01Z</time></trkpt><trkpt lat="42.08533744217767" lon="13.587019067325224"><ele>951.0</ele><time>2026-05-02T12:35:02Z</time></trkpt><trkpt lat="42.08540531657725" lon="13.587015753441461"><ele>951.0</ele><time>2026-05-02T12:35:03Z</time></trkpt><trkpt lat="42.08546303394392" lon="13.586968430789053"><ele>951.0</ele><time>2026-05-02T12:35:04Z</time></trkpt><trkpt lat="42.08548747863362" lon="13.586873480110645"><ele>951.0</ele><time>2026-05-02T12:35:05Z</time></trkpt><trkpt lat="42.085546211728335" lon="13.586718372851223"><ele>951.0</ele><time>2026-05-02T12:35:07Z</time></trkpt><trkpt lat="42.085520113897196" lon="13.586626184360162"><ele>951.0</ele><time>2026-05-02T12:35:08Z</time></trkpt><trkpt lat="42.085494985580304" lon="13.586538992436243"><ele>950.1428571428571</ele><time>2026-05-02T12:35:09Z</time></trkpt><trkpt lat="42.085458389530025" lon="13.586457573981702"><ele>949.2857142857143</ele><time>2026-05-02T12:35:10Z</time></trkpt><trkpt lat="42.085442214896105" lon="13.586367072375795"><ele>948.4285714285714</ele><time>2026-05-02T12:35:11Z</time></trkpt><trkpt lat="42.0854125353168" lon="13.586280573381249"><ele>947.5714285714286</ele><time>2026-05-02T12:35:12Z</time></trkpt><trkpt lat="42.08538623112078" lon="13.586201661185754"><ele>946.7142857142858</ele><time>2026-05-02T12:35:14.999Z</time></trkpt><trkpt lat="42.08535317020952" lon="13.586096890364562"><ele>945.8571428571429</ele><time>2026-05-02T12:35:17.999Z</time></trkpt><trkpt lat="42.08536959059955" lon="13.58600401956773"><ele>945.0</ele><time>2026-05-02T12:35:18.999Z</time></trkpt><trkpt lat="42.08536581005145" lon="13.585915121739836"><ele>944.8571428571429</ele><time>2026-05-02T12:35:19.999Z</time></trkpt><trkpt lat="42.08536237371996" lon="13.58582935909542"><ele>944.7142857142858</ele><time>2026-05-02T12:35:20.999Z</time></trkpt><trkpt lat="42.08538282559505" lon="13.585739185474445"><ele>944.5714285714286</ele><time>2026-05-02T12:35:21.999Z</time></trkpt><trkpt lat="42.08542819048605" lon="13.585666883609209"><ele>944.4285714285714</ele><time>2026-05-02T12:35:22.999Z</time></trkpt><trkpt lat="42.0854567036146" lon="13.585586696514532"><ele>944.2857142857143</ele><time>2026-05-02T12:35:23.999Z</time></trkpt><trkpt lat="42.08547604218625" lon="13.585484747793377"><ele>944.1428571428571</ele><time>2026-05-02T12:35:24.999Z</time></trkpt><trkpt lat="42.085523592952406" lon="13.585392606616018"><ele>944.0</ele><time>2026-05-02T12:35:25.999Z</time></trkpt><trkpt lat="42.085564596343154" lon="13.585277136188925"><ele>943.6666666666667</ele><time>2026-05-02T12:35:26.999Z</time></trkpt><trkpt lat="42.085603099857536" lon="13.585171700960636"><ele>943.3333333333334</ele><time>2026-05-02T12:35:27.999Z</time></trkpt><trkpt lat="42.08563744273208" lon="13.585078752197557"><ele>943.0</ele><time>2026-05-02T12:35:28.999Z</time></trkpt><trkpt lat="42.08567225332099" lon="13.58498453755115"><ele>942.6666666666667</ele><time>2026-05-02T12:35:29.999Z</time></trkpt><trkpt lat="42.08569901546091" lon="13.584861814254024"><ele>942.3333333333334</ele><time>2026-05-02T12:35:30.999Z</time></trkpt><trkpt lat="42.08573911993433" lon="13.584760643897352"><ele>942.0</ele><time>2026-05-02T12:35:31.999Z</time></trkpt><trkpt lat="42.08577679804653" lon="13.584656805081838"><ele>945.1666666666666</ele><time>2026-05-02T12:35:32.999Z</time></trkpt><trkpt lat="42.08581115644664" lon="13.58457484952952"><ele>948.3333333333333</ele><time>2026-05-02T12:35:34Z</time></trkpt><trkpt lat="42.085874939467615" lon="13.584479285828433"><ele>951.5</ele><time>2026-05-02T12:35:36Z</time></trkpt><trkpt lat="42.085950879277135" lon="13.584399608411262"><ele>954.6666666666666</ele><time>2026-05-02T12:35:38Z</time></trkpt><trkpt lat="42.08602729118058" lon="13.584319285191938"><ele>957.8333333333333</ele><time>2026-05-02T12:35:40Z</time></trkpt><trkpt lat="42.08610107099012" lon="13.584250436443662"><ele>961.0</ele><time>2026-05-02T12:35:43Z</time></trkpt><trkpt lat="42.086097645573034" lon="13.584065742212859"><ele>961.4999999999999</ele><time>2026-05-02T12:35:48Z</time></trkpt><trkpt lat="42.08607385847317" lon="13.583968393698902"><ele>962.0</ele><time>2026-05-02T12:35:49Z</time></trkpt><trkpt lat="42.08605781234551" lon="13.583881374965372"><ele>962.5</ele><time>2026-05-02T12:35:50Z</time></trkpt><trkpt lat="42.08602320004774" lon="13.58376011994613"><ele>963.0</ele><time>2026-05-02T12:35:52Z</time></trkpt><trkpt lat="42.08598713145143" lon="13.583608330082896"><ele>963.4999999999999</ele><time>2026-05-02T12:35:54Z</time></trkpt><trkpt lat="42.08595430361522" lon="13.583513881082098"><ele>964.0</ele><time>2026-05-02T12:35:55Z</time></trkpt><trkpt lat="42.08591115642893" lon="13.583413945415462"><ele>964.6</ele><time>2026-05-02T12:35:56Z</time></trkpt><trkpt lat="42.0858655300794" lon="13.583306570136571"><ele>965.2</ele><time>2026-05-02T12:35:57Z</time></trkpt><trkpt lat="42.085814131242664" lon="13.583198302941346"><ele>965.8000000000001</ele><time>2026-05-02T12:35:58Z</time></trkpt><trkpt lat="42.08576028852123" lon="13.583096495002588"><ele>966.4000000000001</ele><time>2026-05-02T12:35:59Z</time></trkpt><trkpt lat="42.085699344825706" lon="13.582977712184809"><ele>967.0</ele><time>2026-05-02T12:36:00Z</time></trkpt><trkpt lat="42.08564202158825" lon="13.582868134259845"><ele>965.6</ele><time>2026-05-02T12:36:01Z</time></trkpt><trkpt lat="42.0856024697536" lon="13.582760637294074"><ele>964.2</ele><time>2026-05-02T12:36:02Z</time></trkpt><trkpt lat="42.085555780349345" lon="13.582658866658806"><ele>962.8</ele><time>2026-05-02T12:36:03Z</time></trkpt><trkpt lat="42.08550935116662" lon="13.582540276950441"><ele>961.4</ele><time>2026-05-02T12:36:04Z</time></trkpt><trkpt lat="42.085463790942505" lon="13.58240551635324"><ele>960.0</ele><time>2026-05-02T12:36:05Z</time></trkpt><trkpt lat="42.08541464354748" lon="13.582294519878895"><ele>960.0</ele><time>2026-05-02T12:36:06Z</time></trkpt><trkpt lat="42.08537690488805" lon="13.582156914259063"><ele>960.0</ele><time>2026-05-02T12:36:07Z</time></trkpt><trkpt lat="42.085340164707986" lon="13.582014814697771"><ele>960.0</ele><time>2026-05-02T12:36:08Z</time></trkpt><trkpt lat="42.085295049113654" lon="13.581889085125551"><ele>960.0</ele><time>2026-05-02T12:36:09Z</time></trkpt><trkpt lat="42.08526139818287" lon="13.581747586196297"><ele>960.0</ele><time>2026-05-02T12:36:10Z</time></trkpt><trkpt lat="42.085202779526895" lon="13.581628737964234"><ele>961.8</ele><time>2026-05-02T12:36:11Z</time></trkpt><trkpt lat="42.08515971067887" lon="13.581506609952788"><ele>963.6</ele><time>2026-05-02T12:36:12Z</time></trkpt><trkpt lat="42.08513296229752" lon="13.581381103274591"><ele>965.4000000000001</ele><time>2026-05-02T12:36:13Z</time></trkpt><trkpt lat="42.08509064988803" lon="13.58125932820909"><ele>967.2</ele><time>2026-05-02T12:36:14Z</time></trkpt><trkpt lat="42.08505074570708" lon="13.58114154159671"><ele>969.0</ele><time>2026-05-02T12:36:15Z</time></trkpt><trkpt lat="42.085000199493656" lon="13.581038857583899"><ele>970.0</ele><time>2026-05-02T12:36:16Z</time></trkpt><trkpt lat="42.08496876924474" lon="13.580922139023757"><ele>971.0</ele><time>2026-05-02T12:36:17Z</time></trkpt><trkpt lat="42.08493762307134" lon="13.580809262150016"><ele>972.0</ele><time>2026-05-02T12:36:18Z</time></trkpt><trkpt lat="42.08490530170614" lon="13.580702125241416"><ele>973.0</ele><time>2026-05-02T12:36:19Z</time></trkpt><trkpt lat="42.084880439081765" lon="13.580614511782747"><ele>974.0</ele><time>2026-05-02T12:36:20Z</time></trkpt><trkpt lat="42.084855801428425" lon="13.580506484269392"><ele>975.0</ele><time>2026-05-02T12:36:22Z</time></trkpt><trkpt lat="42.08484644889199" lon="13.580388721439979"><ele>976.0</ele><time>2026-05-02T12:36:26Z</time></trkpt><trkpt lat="42.08483206854577" lon="13.580284597291355"><ele>977.0</ele><time>2026-05-02T12:36:29Z</time></trkpt><trkpt lat="42.08480995928163" lon="13.580081779968166"><ele>978.0</ele><time>2026-05-02T12:36:31Z</time></trkpt><trkpt lat="42.08481611428602" lon="13.579966848889987"><ele>979.0</ele><time>2026-05-02T12:36:32Z</time></trkpt><trkpt lat="42.08483138000748" lon="13.57987535067716"><ele>980.0</ele><time>2026-05-02T12:36:33Z</time></trkpt><trkpt lat="42.08485491993783" lon="13.579774377899815"><ele>980.0</ele><time>2026-05-02T12:36:34Z</time></trkpt><trkpt lat="42.08489904498732" lon="13.57964066166455"><ele>980.0</ele><time>2026-05-02T12:36:35Z</time></trkpt><trkpt lat="42.0849573787165" lon="13.579512528740072"><ele>980.0</ele><time>2026-05-02T12:36:36Z</time></trkpt><trkpt lat="42.08500667676977" lon="13.579434924891356"><ele>980.0</ele><time>2026-05-02T12:36:37Z</time></trkpt><trkpt lat="42.085085042978505" lon="13.579328061919407"><ele>980.0</ele><time>2026-05-02T12:36:39Z</time></trkpt><trkpt lat="42.0851462151015" lon="13.579241981822172"><ele>977.3333333333334</ele><time>2026-05-02T12:36:41Z</time></trkpt><trkpt lat="42.08522166057585" lon="13.579135383312808"><ele>974.6666666666667</ele><time>2026-05-02T12:36:43Z</time></trkpt><trkpt lat="42.085270134587184" lon="13.5790699725386"><ele>972.0</ele><time>2026-05-02T12:36:44Z</time></trkpt><trkpt lat="42.08534330053075" lon="13.57897606899894"><ele>969.3333333333333</ele><time>2026-05-02T12:36:46Z</time></trkpt><trkpt lat="42.08539149576383" lon="13.578915479995397"><ele>966.6666666666666</ele><time>2026-05-02T12:36:48Z</time></trkpt><trkpt lat="42.08544245882708" lon="13.578851411381057"><ele>964.0</ele><time>2026-05-02T12:37:06Z</time></trkpt><trkpt lat="42.08550457770249" lon="13.578773318247991"><ele>963.6</ele><time>2026-05-02T12:37:09Z</time></trkpt><trkpt lat="42.08556895047581" lon="13.578683873441049"><ele>963.2</ele><time>2026-05-02T12:37:11Z</time></trkpt><trkpt lat="42.08564987021221" lon="13.57862099281401"><ele>962.8000000000001</ele><time>2026-05-02T12:37:13Z</time></trkpt><trkpt lat="42.085806161841994" lon="13.578578640147368"><ele>962.4000000000001</ele><time>2026-05-02T12:37:16Z</time></trkpt><trkpt lat="42.08586554531457" lon="13.578545504381584"><ele>962.0</ele><time>2026-05-02T12:37:17Z</time></trkpt><trkpt lat="42.085975198668656" lon="13.578466841047451"><ele>962.0000000000001</ele><time>2026-05-02T12:37:19Z</time></trkpt><trkpt lat="42.08604759842388" lon="13.57841213336676"><ele>962.0</ele><time>2026-05-02T12:37:21Z</time></trkpt><trkpt lat="42.08606128889165" lon="13.578273204972271"><ele>962.0</ele><time>2026-05-02T12:37:23Z</time></trkpt><trkpt lat="42.08608549575323" lon="13.578125138874858"><ele>962.0</ele><time>2026-05-02T12:37:25Z</time></trkpt><trkpt lat="42.08610219333946" lon="13.57803639704792"><ele>962.0000000000001</ele><time>2026-05-02T12:37:26Z</time></trkpt><trkpt lat="42.08615679098356" lon="13.577981468019281"><ele>962.0</ele><time>2026-05-02T12:37:27Z</time></trkpt><trkpt lat="42.086211284817" lon="13.577929525965342"><ele>959.0</ele><time>2026-05-02T12:37:28Z</time></trkpt><trkpt lat="42.086281703242285" lon="13.577829273761498"><ele>956.0</ele><time>2026-05-02T12:37:29Z</time></trkpt><trkpt lat="42.08634690841669" lon="13.577786989685436"><ele>953.0</ele><time>2026-05-02T12:37:30Z</time></trkpt><trkpt lat="42.08641361362833" lon="13.577750856530065"><ele>950.0</ele><time>2026-05-02T12:37:31Z</time></trkpt><trkpt lat="42.08650775485478" lon="13.577725464614078"><ele>947.0</ele><time>2026-05-02T12:37:33Z</time></trkpt><trkpt lat="42.086741326128646" lon="13.577888192195399"><ele>949.5000000000001</ele><time>2026-05-02T12:37:34Z</time></trkpt><trkpt lat="42.08681315043751" lon="13.57783580737968"><ele>952.0</ele><time>2026-05-02T12:37:44Z</time></trkpt><trkpt lat="42.08687717487512" lon="13.577834033956407"><ele>954.5</ele><time>2026-05-02T12:37:47Z</time></trkpt><trkpt lat="42.086752801946346" lon="13.577898816484256"><ele>957.0</ele><time>2026-05-02T12:38:14Z</time></trkpt><trkpt lat="42.08669053739965" lon="13.577938190727966"><ele>959.5000000000001</ele><time>2026-05-02T12:38:15Z</time></trkpt><trkpt lat="42.086633192303985" lon="13.577992621764597"><ele>962.0</ele><time>2026-05-02T12:38:16Z</time></trkpt><trkpt lat="42.08658393950752" lon="13.578061873937088"><ele>962.0</ele><time>2026-05-02T12:38:17Z</time></trkpt><trkpt lat="42.08653994351607" lon="13.578127843431758"><ele>962.0</ele><time>2026-05-02T12:38:18Z</time></trkpt><trkpt lat="42.08646819894782" lon="13.578265438835608"><ele>962.0</ele><time>2026-05-02T12:38:20Z</time></trkpt><trkpt lat="42.08643459145018" lon="13.578339455942471"><ele>962.0</ele><time>2026-05-02T12:38:21Z</time></trkpt><trkpt lat="42.086375308590206" lon="13.578480530442137"><ele>962.0</ele><time>2026-05-02T12:38:23Z</time></trkpt><trkpt lat="42.08633828409811" lon="13.578624540232193"><ele>965.0000000000001</ele><time>2026-05-02T12:38:25Z</time></trkpt><trkpt lat="42.086333718511916" lon="13.578748613685326"><ele>968.0</ele><time>2026-05-02T12:38:27Z</time></trkpt><trkpt lat="42.086319516755665" lon="13.578857276168987"><ele>971.0</ele><time>2026-05-02T12:38:29Z</time></trkpt><trkpt lat="42.086276572652814" lon="13.578957371767707"><ele>974.0</ele><time>2026-05-02T12:38:31Z</time></trkpt><trkpt lat="42.08621948049481" lon="13.57905766661369"><ele>977.0000000000001</ele><time>2026-05-02T12:38:33Z</time></trkpt><trkpt lat="42.08614251696764" lon="13.57912577285635"><ele>980.0</ele><time>2026-05-02T12:38:35Z</time></trkpt><trkpt lat="42.086062939211494" lon="13.579161386475539"><ele>980.0000000000001</ele><time>2026-05-02T12:38:37Z</time></trkpt><trkpt lat="42.085969161837845" lon="13.579222944145707"><ele>980.0</ele><time>2026-05-02T12:38:39Z</time></trkpt><trkpt lat="42.08589336086528" lon="13.579283140540305"><ele>980.0</ele><time>2026-05-02T12:38:41Z</time></trkpt><trkpt lat="42.085812284877576" lon="13.579321010748082"><ele>980.0</ele><time>2026-05-02T12:38:43Z</time></trkpt><trkpt lat="42.08575187549386" lon="13.579379280956328"><ele>980.0000000000001</ele><time>2026-05-02T12:38:50Z</time></trkpt><trkpt lat="42.08570002029617" lon="13.579429309439028"><ele>980.0</ele><time>2026-05-02T12:38:53Z</time></trkpt><trkpt lat="42.08560039737967" lon="13.579513899288925"><ele>979.6</ele><time>2026-05-02T12:38:55Z</time></trkpt><trkpt lat="42.08555168364846" lon="13.579569710945163"><ele>979.2</ele><time>2026-05-02T12:38:56Z</time></trkpt><trkpt lat="42.08544867565297" lon="13.57971579330511"><ele>978.8</ele><time>2026-05-02T12:38:58Z</time></trkpt><trkpt lat="42.08538510797092" lon="13.579794853298196"><ele>978.4</ele><time>2026-05-02T12:38:59Z</time></trkpt><trkpt lat="42.08530519405053" lon="13.579867501399118"><ele>978.0</ele><time>2026-05-02T12:39:00Z</time></trkpt><trkpt lat="42.08523084633815" lon="13.579912473854273"><ele>978.0</ele><time>2026-05-02T12:39:01Z</time></trkpt><trkpt lat="42.08513563745632" lon="13.579975780094815"><ele>978.0</ele><time>2026-05-02T12:39:03Z</time></trkpt><trkpt lat="42.0850667196334" lon="13.580053566734374"><ele>978.0</ele><time>2026-05-02T12:39:05Z</time></trkpt><trkpt lat="42.08501022701655" lon="13.580168791083498"><ele>978.0</ele><time>2026-05-02T12:39:07Z</time></trkpt><trkpt lat="42.08496807606774" lon="13.580272415723499"><ele>978.0</ele><time>2026-05-02T12:39:09Z</time></trkpt><trkpt lat="42.084931834454004" lon="13.580358102535431"><ele>978.3333333333334</ele><time>2026-05-02T12:39:11Z</time></trkpt><trkpt lat="42.084863252207235" lon="13.580379172650064"><ele>978.6666666666667</ele><time>2026-05-02T12:39:14Z</time></trkpt><trkpt lat="42.08484136789277" lon="13.580296484762954"><ele>979.0</ele><time>2026-05-02T12:39:16.001Z</time></trkpt><trkpt lat="42.08482230297043" lon="13.580178045937433"><ele>979.3333333333334</ele><time>2026-05-02T12:39:18.001Z</time></trkpt><trkpt lat="42.084820057809615" lon="13.58004678000415"><ele>979.6666666666667</ele><time>2026-05-02T12:39:20.001Z</time></trkpt><trkpt lat="42.084828495951236" lon="13.579906831165067"><ele>980.0</ele><time>2026-05-02T12:39:22.001Z</time></trkpt><trkpt lat="42.08485306687794" lon="13.5797739681676"><ele>980.0</ele><time>2026-05-02T12:39:24.001Z</time></trkpt><trkpt lat="42.08489292850646" lon="13.579653862247547"><ele>980.0</ele><time>2026-05-02T12:39:26.001Z</time></trkpt><trkpt lat="42.084946687900796" lon="13.57955646743588"><ele>980.0</ele><time>2026-05-02T12:39:28Z</time></trkpt><trkpt lat="42.08500105617599" lon="13.579449895470168"><ele>980.0</ele><time>2026-05-02T12:39:30Z</time></trkpt><trkpt lat="42.085053525045126" lon="13.579355968999929"><ele>980.0</ele><time>2026-05-02T12:39:32Z</time></trkpt><trkpt lat="42.08512768128503" lon="13.57926767239933"><ele>976.8</ele><time>2026-05-02T12:39:34Z</time></trkpt><trkpt lat="42.08517324384524" lon="13.579204502480502"><ele>973.6</ele><time>2026-05-02T12:39:35Z</time></trkpt><trkpt lat="42.085220191142206" lon="13.5791420129067"><ele>970.4000000000001</ele><time>2026-05-02T12:39:36Z</time></trkpt><trkpt lat="42.08526822064524" lon="13.579084727637714"><ele>967.2</ele><time>2026-05-02T12:39:37Z</time></trkpt><trkpt lat="42.08536189097571" lon="13.578979913330429"><ele>964.0</ele><time>2026-05-02T12:39:39Z</time></trkpt><trkpt lat="42.08544963449307" lon="13.578845123939969"><ele>964.0</ele><time>2026-05-02T12:39:41Z</time></trkpt><trkpt lat="42.08549371627652" lon="13.57876803260695"><ele>964.0000000000001</ele><time>2026-05-02T12:39:42Z</time></trkpt><trkpt lat="42.085540692353355" lon="13.578693043545073"><ele>964.0</ele><time>2026-05-02T12:39:43Z</time></trkpt><trkpt lat="42.08558751347939" lon="13.578623476705395"><ele>964.0</ele><time>2026-05-02T12:39:44Z</time></trkpt><trkpt lat="42.08563301529765" lon="13.578559345064768"><ele>964.0000000000001</ele><time>2026-05-02T12:39:45Z</time></trkpt><trkpt lat="42.0856756998058" lon="13.578493492943174"><ele>964.0</ele><time>2026-05-02T12:39:46Z</time></trkpt><trkpt lat="42.08571207138136" lon="13.578423710184229"><ele>964.0</ele><time>2026-05-02T12:39:47Z</time></trkpt><trkpt lat="42.085785844313726" lon="13.57830801734041"><ele>963.6666666666666</ele><time>2026-05-02T12:39:49Z</time></trkpt><trkpt lat="42.08582711694421" lon="13.578187546868746"><ele>963.3333333333333</ele><time>2026-05-02T12:39:51Z</time></trkpt><trkpt lat="42.08587923902164" lon="13.578085739265143"><ele>963.0</ele><time>2026-05-02T12:39:53Z</time></trkpt><trkpt lat="42.08590830457721" lon="13.57799470743047"><ele>962.6666666666667</ele><time>2026-05-02T12:39:55Z</time></trkpt><trkpt lat="42.08594584660387" lon="13.577870286224755"><ele>962.3333333333334</ele><time>2026-05-02T12:39:57Z</time></trkpt><trkpt lat="42.08596664695643" lon="13.577784527434256"><ele>962.0</ele><time>2026-05-02T12:39:58Z</time></trkpt><trkpt lat="42.08600063197884" lon="13.577644409039817"><ele>959.0</ele><time>2026-05-02T12:40:00Z</time></trkpt><trkpt lat="42.086024455600246" lon="13.577541756498603"><ele>956.0</ele><time>2026-05-02T12:40:02Z</time></trkpt><trkpt lat="42.086066446721055" lon="13.577476874317327"><ele>953.0</ele><time>2026-05-02T12:40:05Z</time></trkpt><trkpt lat="42.08612618269487" lon="13.577363037642995"><ele>950.0</ele><time>2026-05-02T12:40:08Z</time></trkpt><trkpt lat="42.08611489592486" lon="13.577240315159854"><ele>947.0</ele><time>2026-05-02T12:40:09Z</time></trkpt><trkpt lat="42.08590915811978" lon="13.577102576628393"><ele>947.0</ele><time>2026-05-02T12:40:10Z</time></trkpt><trkpt lat="42.085825284454586" lon="13.57711702446206"><ele>947.0</ele><time>2026-05-02T12:40:11Z</time></trkpt><trkpt lat="42.08571051291261" lon="13.577146832275092"><ele>947.0</ele><time>2026-05-02T12:40:13Z</time></trkpt><trkpt lat="42.085601343047145" lon="13.577177267485006"><ele>947.0</ele><time>2026-05-02T12:40:15Z</time></trkpt><trkpt lat="42.085536144630865" lon="13.577212512517555"><ele>947.0</ele><time>2026-05-02T12:40:17Z</time></trkpt><trkpt lat="42.08543662785386" lon="13.577207099491247"><ele>944.2</ele><time>2026-05-02T12:40:19Z</time></trkpt><trkpt lat="42.08531861369392" lon="13.577193570021205"><ele>941.4000000000001</ele><time>2026-05-02T12:40:21Z</time></trkpt><trkpt lat="42.08520292633153" lon="13.577219963487533"><ele>938.5999999999999</ele><time>2026-05-02T12:40:23Z</time></trkpt><trkpt lat="42.08515870322537" lon="13.5773275685821"><ele>935.8</ele><time>2026-05-02T12:40:24Z</time></trkpt><trkpt lat="42.085070458060216" lon="13.577305566427798"><ele>933.0</ele><time>2026-05-02T12:40:26Z</time></trkpt><trkpt lat="42.08497738509633" lon="13.577299267019791"><ele>933.0</ele><time>2026-05-02T12:40:28Z</time></trkpt><trkpt lat="42.08495103559741" lon="13.577159534209736"><ele>933.0</ele><time>2026-05-02T12:40:30Z</time></trkpt><trkpt lat="42.08500374444254" lon="13.577032932888635"><ele>933.0</ele><time>2026-05-02T12:40:32Z</time></trkpt><trkpt lat="42.0850721141678" lon="13.576938164244652"><ele>933.0</ele><time>2026-05-02T12:40:34Z</time></trkpt><trkpt lat="42.08514890583749" lon="13.57688556288126"><ele>933.0</ele><time>2026-05-02T12:40:36Z</time></trkpt><trkpt lat="42.08522164709182" lon="13.576832864341823"><ele>930.5</ele><time>2026-05-02T12:40:38Z</time></trkpt><trkpt lat="42.08529312711028" lon="13.576793126756703"><ele>928.0</ele><time>2026-05-02T12:40:40Z</time></trkpt><trkpt lat="42.085376895976246" lon="13.57675761776759"><ele>925.5</ele><time>2026-05-02T12:40:42Z</time></trkpt><trkpt lat="42.085433358293315" lon="13.576655041611904"><ele>923.0</ele><time>2026-05-02T12:40:44Z</time></trkpt><trkpt lat="42.08542117938136" lon="13.576529315322313"><ele>920.5</ele><time>2026-05-02T12:40:46Z</time></trkpt><trkpt lat="42.085368395131894" lon="13.57645237806178"><ele>918.0</ele><time>2026-05-02T12:40:48Z</time></trkpt><trkpt lat="42.085301234455834" lon="13.576425809836108"><ele>918.0</ele><time>2026-05-02T12:40:50Z</time></trkpt><trkpt lat="42.085228854509744" lon="13.576464539058959"><ele>918.0</ele><time>2026-05-02T12:40:53Z</time></trkpt><trkpt lat="42.08513932175794" lon="13.576479593924764"><ele>918.0</ele><time>2026-05-02T12:40:55Z</time></trkpt><trkpt lat="42.08506868224847" lon="13.576445862795342"><ele>918.0</ele><time>2026-05-02T12:40:56Z</time></trkpt><trkpt lat="42.08500764826578" lon="13.57640561290691"><ele>918.0</ele><time>2026-05-02T12:40:57Z</time></trkpt><trkpt lat="42.08494320028848" lon="13.576365740980728"><ele>918.0</ele><time>2026-05-02T12:40:58Z</time></trkpt><trkpt lat="42.08488461685227" lon="13.576328379102229"><ele>918.0</ele><time>2026-05-02T12:40:59Z</time></trkpt><trkpt lat="42.08478246599026" lon="13.57630644416869"><ele>916.8333333333334</ele><time>2026-05-02T12:41:01Z</time></trkpt><trkpt lat="42.084703801168864" lon="13.57626445942108"><ele>915.6666666666667</ele><time>2026-05-02T12:41:03.001Z</time></trkpt><trkpt lat="42.084602210536204" lon="13.576228419841632"><ele>914.5</ele><time>2026-05-02T12:41:05.001Z</time></trkpt><trkpt lat="42.08452121919189" lon="13.576228880402159"><ele>913.3333333333334</ele><time>2026-05-02T12:41:07.001Z</time></trkpt><trkpt lat="42.08445364214249" lon="13.576219196316556"><ele>912.1666666666667</ele><time>2026-05-02T12:41:09.001Z</time></trkpt><trkpt lat="42.084372379837035" lon="13.576221937846205"><ele>911.0</ele><time>2026-05-02T12:41:11.001Z</time></trkpt><trkpt lat="42.0842826367432" lon="13.57619945447954"><ele>908.8571428571429</ele><time>2026-05-02T12:41:13.001Z</time></trkpt><trkpt lat="42.08420652430449" lon="13.576164458621102"><ele>906.7142857142857</ele><time>2026-05-02T12:41:15.001Z</time></trkpt><trkpt lat="42.084138838142906" lon="13.576159480112164"><ele>904.5714285714286</ele><time>2026-05-02T12:41:17.001Z</time></trkpt><trkpt lat="42.08407337549015" lon="13.576137348587238"><ele>902.4285714285714</ele><time>2026-05-02T12:41:19.001Z</time></trkpt><trkpt lat="42.08400959039859" lon="13.576120771712292"><ele>900.2857142857142</ele><time>2026-05-02T12:41:21.001Z</time></trkpt><trkpt lat="42.08394041491013" lon="13.576107421632866"><ele>898.1428571428571</ele><time>2026-05-02T12:41:23.001Z</time></trkpt><trkpt lat="42.083844631520094" lon="13.576090701039973"><ele>896.0</ele><time>2026-05-02T12:41:25.001Z</time></trkpt><trkpt lat="42.08374801989168" lon="13.576091560598341"><ele>895.5000000000001</ele><time>2026-05-02T12:41:27.001Z</time></trkpt><trkpt lat="42.08365345791983" lon="13.576082093323881"><ele>895.0</ele><time>2026-05-02T12:41:29.001Z</time></trkpt><trkpt lat="42.08358200641093" lon="13.576024842919328"><ele>894.5</ele><time>2026-05-02T12:41:31.001Z</time></trkpt><trkpt lat="42.08352327055458" lon="13.575952655976304"><ele>894.0</ele><time>2026-05-02T12:41:33Z</time></trkpt><trkpt lat="42.083462324000834" lon="13.57587628322761"><ele>893.5000000000001</ele><time>2026-05-02T12:41:35Z</time></trkpt><trkpt lat="42.08340015172692" lon="13.575806081260625"><ele>893.0</ele><time>2026-05-02T12:41:37Z</time></trkpt><trkpt lat="42.08334657345156" lon="13.57572729693507"><ele>893.0</ele><time>2026-05-02T12:41:39Z</time></trkpt><trkpt lat="42.08332099220815" lon="13.575615376051616"><ele>893.0</ele><time>2026-05-02T12:41:41Z</time></trkpt><trkpt lat="42.083245657893436" lon="13.575478931237207"><ele>893.0</ele><time>2026-05-02T12:41:43Z</time></trkpt><trkpt lat="42.0831671745907" lon="13.57537303727253"><ele>893.0</ele><time>2026-05-02T12:41:45Z</time></trkpt><trkpt lat="42.08311503353226" lon="13.575260694275052"><ele>893.0</ele><time>2026-05-02T12:41:47Z</time></trkpt><trkpt lat="42.08308885865697" lon="13.575135854585692"><ele>891.4</ele><time>2026-05-02T12:41:49Z</time></trkpt><trkpt lat="42.083048641319365" lon="13.574987985674097"><ele>889.8</ele><time>2026-05-02T12:41:51Z</time></trkpt><trkpt lat="42.0830259218605" lon="13.574906504378252"><ele>888.2</ele><time>2026-05-02T12:41:52Z</time></trkpt><trkpt lat="42.0829889693395" lon="13.57475230927168"><ele>886.6</ele><time>2026-05-02T12:41:54Z</time></trkpt><trkpt lat="42.08292559346606" lon="13.574619529033905"><ele>885.0</ele><time>2026-05-02T12:41:56Z</time></trkpt><trkpt lat="42.08286001264516" lon="13.574472533847421"><ele>884.0</ele><time>2026-05-02T12:41:58Z</time></trkpt><trkpt lat="42.082784207826734" lon="13.574340590919437"><ele>883.0</ele><time>2026-05-02T12:42:00Z</time></trkpt><trkpt lat="42.08274972943251" lon="13.574260634120963"><ele>882.0</ele><time>2026-05-02T12:42:01Z</time></trkpt><trkpt lat="42.08271786936926" lon="13.574187246852345"><ele>881.0</ele><time>2026-05-02T12:42:02Z</time></trkpt><trkpt lat="42.08265074514568" lon="13.574092895021202"><ele>880.0</ele><time>2026-05-02T12:42:04Z</time></trkpt><trkpt lat="42.0826054469844" lon="13.573982216521417"><ele>879.0</ele><time>2026-05-02T12:42:06Z</time></trkpt><trkpt lat="42.08253133358555" lon="13.57384569016189"><ele>879.0</ele><time>2026-05-02T12:42:08Z</time></trkpt><trkpt lat="42.08249355647648" lon="13.57377662968093"><ele>879.0</ele><time>2026-05-02T12:42:09Z</time></trkpt><trkpt lat="42.08245374397118" lon="13.573705385977496"><ele>879.0</ele><time>2026-05-02T12:42:10Z</time></trkpt><trkpt lat="42.0823839573161" lon="13.573578705235846"><ele>879.0</ele><time>2026-05-02T12:42:12Z</time></trkpt><trkpt lat="42.08234202212515" lon="13.573498221940891"><ele>879.0</ele><time>2026-05-02T12:42:14Z</time></trkpt><trkpt lat="42.082287711720994" lon="13.573419041749304"><ele>879.0</ele><time>2026-05-02T12:42:16Z</time></trkpt><trkpt lat="42.08224612976713" lon="13.57332411127284"><ele>878.3333333333334</ele><time>2026-05-02T12:42:18Z</time></trkpt><trkpt lat="42.08218314960832" lon="13.57323850469587"><ele>877.6666666666667</ele><time>2026-05-02T12:42:20Z</time></trkpt><trkpt lat="42.082117640492946" lon="13.573164132860809"><ele>877.0</ele><time>2026-05-02T12:42:22Z</time></trkpt><trkpt lat="42.082054604086466" lon="13.573089478926251"><ele>876.3333333333334</ele><time>2026-05-02T12:42:24Z</time></trkpt><trkpt lat="42.081990726207714" lon="13.573008869692897"><ele>875.6666666666667</ele><time>2026-05-02T12:42:26Z</time></trkpt><trkpt lat="42.08192117288837" lon="13.572934309836333"><ele>875.0</ele><time>2026-05-02T12:42:28Z</time></trkpt><trkpt lat="42.0818434448261" lon="13.572858478106697"><ele>874.6</ele><time>2026-05-02T12:42:30Z</time></trkpt><trkpt lat="42.08174878571044" lon="13.572739339795866"><ele>874.2</ele><time>2026-05-02T12:42:32Z</time></trkpt><trkpt lat="42.08167541254831" lon="13.572642208113248"><ele>873.8</ele><time>2026-05-02T12:42:34Z</time></trkpt><trkpt lat="42.08161058132473" lon="13.57250827253253"><ele>873.4</ele><time>2026-05-02T12:42:36Z</time></trkpt><trkpt lat="42.08154759873581" lon="13.572426117858619"><ele>873.0</ele><time>2026-05-02T12:42:38Z</time></trkpt><trkpt lat="42.081494648180936" lon="13.572322239345997"><ele>873.0</ele><time>2026-05-02T12:42:40Z</time></trkpt><trkpt lat="42.08144384405185" lon="13.572268674229854"><ele>873.0</ele><time>2026-05-02T12:42:41Z</time></trkpt><trkpt lat="42.081394777191214" lon="13.572187923395727"><ele>873.0</ele><time>2026-05-02T12:42:43Z</time></trkpt><trkpt lat="42.08142200938408" lon="13.5720526327906"><ele>873.0</ele><time>2026-05-02T12:42:45Z</time></trkpt><trkpt lat="42.081477434493614" lon="13.571965626726007"><ele>873.0</ele><time>2026-05-02T12:42:47Z</time></trkpt><trkpt lat="42.08149178985358" lon="13.571855435294385"><ele>873.0</ele><time>2026-05-02T12:42:50Z</time></trkpt><trkpt lat="42.081437801901544" lon="13.571711263637075"><ele>871.4</ele><time>2026-05-02T12:42:52Z</time></trkpt><trkpt lat="42.081380132119115" lon="13.571642614903416"><ele>869.8</ele><time>2026-05-02T12:42:53Z</time></trkpt><trkpt lat="42.08131913577122" lon="13.571595394087607"><ele>868.2</ele><time>2026-05-02T12:42:54Z</time></trkpt><trkpt lat="42.08121730079335" lon="13.571494427558136"><ele>866.6</ele><time>2026-05-02T12:42:56Z</time></trkpt><trkpt lat="42.081148040793074" lon="13.571403930332876"><ele>865.0</ele><time>2026-05-02T12:42:58Z</time></trkpt><trkpt lat="42.08106039254963" lon="13.571349839460423"><ele>865.0</ele><time>2026-05-02T12:43:01Z</time></trkpt><trkpt lat="42.08098940533857" lon="13.571282585985779"><ele>865.0</ele><time>2026-05-02T12:43:03Z</time></trkpt><trkpt lat="42.080924128454946" lon="13.571205710741484"><ele>865.0</ele><time>2026-05-02T12:43:05Z</time></trkpt><trkpt lat="42.08085991504612" lon="13.571130538228292"><ele>865.0</ele><time>2026-05-02T12:43:07Z</time></trkpt><trkpt lat="42.080795848778415" lon="13.571019293952537"><ele>865.0</ele><time>2026-05-02T12:43:09Z</time></trkpt><trkpt lat="42.08076304691445" lon="13.570908846064135"><ele>865.4999999999999</ele><time>2026-05-02T12:43:10Z</time></trkpt><trkpt lat="42.08072675327104" lon="13.570788238508866"><ele>866.0</ele><time>2026-05-02T12:43:11Z</time></trkpt><trkpt lat="42.080678440823654" lon="13.570682587985102"><ele>866.5</ele><time>2026-05-02T12:43:12Z</time></trkpt><trkpt lat="42.080629936133604" lon="13.57059244260223"><ele>867.0</ele><time>2026-05-02T12:43:13Z</time></trkpt><trkpt lat="42.08058727878625" lon="13.570492257024114"><ele>867.4999999999999</ele><time>2026-05-02T12:43:14Z</time></trkpt><trkpt lat="42.08054837491841" lon="13.570412512870817"><ele>868.0</ele><time>2026-05-02T12:43:15Z</time></trkpt><trkpt lat="42.0805122566033" lon="13.570326976143875"><ele>867.9999999999999</ele><time>2026-05-02T12:43:16Z</time></trkpt><trkpt lat="42.080480115515904" lon="13.570223878566592"><ele>868.0</ele><time>2026-05-02T12:43:17Z</time></trkpt><trkpt lat="42.080449601770056" lon="13.57011861851171"><ele>868.0</ele><time>2026-05-02T12:43:18Z</time></trkpt><trkpt lat="42.08042523525681" lon="13.570021350137688"><ele>868.0</ele><time>2026-05-02T12:43:19Z</time></trkpt><trkpt lat="42.08040157874264" lon="13.569913731342222"><ele>867.9999999999999</ele><time>2026-05-02T12:43:20Z</time></trkpt><trkpt lat="42.08038403576543" lon="13.569811005839872"><ele>868.0</ele><time>2026-05-02T12:43:21Z</time></trkpt><trkpt lat="42.08036366851017" lon="13.569727498408303"><ele>868.0</ele><time>2026-05-02T12:43:22Z</time></trkpt><trkpt lat="42.080341143732035" lon="13.569579725869612"><ele>868.0</ele><time>2026-05-02T12:43:24Z</time></trkpt><trkpt lat="42.08032965230005" lon="13.569430527237506"><ele>868.0</ele><time>2026-05-02T12:43:26Z</time></trkpt><trkpt lat="42.080317837438955" lon="13.569290663366555"><ele>868.0</ele><time>2026-05-02T12:43:28.001Z</time></trkpt><trkpt lat="42.080288302962636" lon="13.569165439693002"><ele>868.0</ele><time>2026-05-02T12:43:30.001Z</time></trkpt><trkpt lat="42.080247471676294" lon="13.569024903903687"><ele>866.1666666666666</ele><time>2026-05-02T12:43:32.001Z</time></trkpt><trkpt lat="42.080228618450086" lon="13.568924986565808"><ele>864.3333333333333</ele><time>2026-05-02T12:43:33.001Z</time></trkpt><trkpt lat="42.08019520678247" lon="13.568832427867438"><ele>862.5</ele><time>2026-05-02T12:43:34.001Z</time></trkpt><trkpt lat="42.080150134548674" lon="13.568752261835538"><ele>860.6666666666667</ele><time>2026-05-02T12:43:35.001Z</time></trkpt><trkpt lat="42.08013138342692" lon="13.5686584055366"><ele>858.8333333333334</ele><time>2026-05-02T12:43:36.001Z</time></trkpt><trkpt lat="42.08010580873012" lon="13.568564546363458"><ele>857.0</ele><time>2026-05-02T12:43:37.001Z</time></trkpt><trkpt lat="42.08006770664958" lon="13.568466864111636"><ele>854.8333333333334</ele><time>2026-05-02T12:43:38.001Z</time></trkpt><trkpt lat="42.08006172503362" lon="13.568350873173621"><ele>852.6666666666667</ele><time>2026-05-02T12:43:39Z</time></trkpt><trkpt lat="42.0800315966803" lon="13.56825914619303"><ele>850.5</ele><time>2026-05-02T12:43:40Z</time></trkpt><trkpt lat="42.080024644263894" lon="13.568166603827436"><ele>848.3333333333333</ele><time>2026-05-02T12:43:41Z</time></trkpt><trkpt lat="42.08001657244594" lon="13.568073888122367"><ele>846.1666666666666</ele><time>2026-05-02T12:43:42Z</time></trkpt><trkpt lat="42.08000878158503" lon="13.567969847201352"><ele>844.0</ele><time>2026-05-02T12:43:43Z</time></trkpt><trkpt lat="42.08001638249447" lon="13.56786821677848"><ele>842.6666666666666</ele><time>2026-05-02T12:43:44Z</time></trkpt><trkpt lat="42.080029221130395" lon="13.567761126139706"><ele>841.3333333333333</ele><time>2026-05-02T12:43:45Z</time></trkpt><trkpt lat="42.08005492797583" lon="13.567677972032175"><ele>840.0</ele><time>2026-05-02T12:43:46Z</time></trkpt><trkpt lat="42.080084642267735" lon="13.567588255623237"><ele>838.6666666666667</ele><time>2026-05-02T12:43:47Z</time></trkpt><trkpt lat="42.0801238679451" lon="13.567483338843646"><ele>837.3333333333334</ele><time>2026-05-02T12:43:48Z</time></trkpt><trkpt lat="42.08016364527544" lon="13.56739258995535"><ele>836.0</ele><time>2026-05-02T12:43:49Z</time></trkpt><trkpt lat="42.080201414992246" lon="13.567318515551015"><ele>836.0000000000001</ele><time>2026-05-02T12:43:50Z</time></trkpt><trkpt lat="42.08027708075466" lon="13.567194891644473"><ele>836.0</ele><time>2026-05-02T12:43:52Z</time></trkpt><trkpt lat="42.08034754289713" lon="13.567082312437181"><ele>836.0</ele><time>2026-05-02T12:43:54Z</time></trkpt><trkpt lat="42.0803943688075" lon="13.567014095190947"><ele>836.0</ele><time>2026-05-02T12:43:55Z</time></trkpt><trkpt lat="42.08046419168663" lon="13.566964472661212"><ele>836.0000000000001</ele><time>2026-05-02T12:43:56Z</time></trkpt><trkpt lat="42.08050682825622" lon="13.566892393980797"><ele>836.0</ele><time>2026-05-02T12:43:57Z</time></trkpt><trkpt lat="42.08058208625557" lon="13.566793151365388"><ele>836.4</ele><time>2026-05-02T12:43:59Z</time></trkpt><trkpt lat="42.08059251427169" lon="13.56666851826299"><ele>836.8</ele><time>2026-05-02T12:44:01Z</time></trkpt><trkpt lat="42.08056631411895" lon="13.566553411040076"><ele>837.1999999999999</ele><time>2026-05-02T12:44:03Z</time></trkpt><trkpt lat="42.08052580081522" lon="13.566429844986551"><ele>837.5999999999999</ele><time>2026-05-02T12:44:05Z</time></trkpt><trkpt lat="42.08048885875173" lon="13.566294629254696"><ele>838.0</ele><time>2026-05-02T12:44:07Z</time></trkpt><trkpt lat="42.08045884547786" lon="13.566199725451868"><ele>837.9999999999999</ele><time>2026-05-02T12:44:08Z</time></trkpt><trkpt lat="42.08045550144816" lon="13.566081823723112"><ele>838.0</ele><time>2026-05-02T12:44:09Z</time></trkpt><trkpt lat="42.08045995995064" lon="13.5659667747809"><ele>838.0</ele><time>2026-05-02T12:44:10Z</time></trkpt><trkpt lat="42.08046281605258" lon="13.565849836929234"><ele>838.0</ele><time>2026-05-02T12:44:11Z</time></trkpt><trkpt lat="42.08044558414924" lon="13.565746878073917"><ele>837.9999999999999</ele><time>2026-05-02T12:44:12Z</time></trkpt><trkpt lat="42.080436303115825" lon="13.565662552966105"><ele>838.0</ele><time>2026-05-02T12:44:13Z</time></trkpt><trkpt lat="42.080384153467" lon="13.565503608198194"><ele>837.9999999999999</ele><time>2026-05-02T12:44:15Z</time></trkpt><trkpt lat="42.08033902278978" lon="13.565415468059545"><ele>838.0</ele><time>2026-05-02T12:44:16Z</time></trkpt><trkpt lat="42.0802960001917" lon="13.565321302491148"><ele>838.0</ele><time>2026-05-02T12:44:17Z</time></trkpt><trkpt lat="42.08025062489913" lon="13.565220683147455"><ele>838.0</ele><time>2026-05-02T12:44:18Z</time></trkpt><trkpt lat="42.08022015829183" lon="13.565123863720746"><ele>837.9999999999999</ele><time>2026-05-02T12:44:19Z</time></trkpt><trkpt lat="42.08018433012266" lon="13.565030442328426"><ele>838.0</ele><time>2026-05-02T12:44:20Z</time></trkpt><trkpt lat="42.08015272490442" lon="13.564930523526028"><ele>835.5999999999999</ele><time>2026-05-02T12:44:21Z</time></trkpt><trkpt lat="42.08012096322335" lon="13.564828220918534"><ele>833.1999999999999</ele><time>2026-05-02T12:44:22Z</time></trkpt><trkpt lat="42.080089186868804" lon="13.5647213626309"><ele>830.8</ele><time>2026-05-02T12:44:23Z</time></trkpt><trkpt lat="42.080076009621195" lon="13.564596739989895"><ele>828.4</ele><time>2026-05-02T12:44:24Z</time></trkpt><trkpt lat="42.08005247671746" lon="13.56447008177271"><ele>826.0</ele><time>2026-05-02T12:44:25Z</time></trkpt><trkpt lat="42.08002474102408" lon="13.564340848994542"><ele>824.6666666666666</ele><time>2026-05-02T12:44:26Z</time></trkpt><trkpt lat="42.080048987260035" lon="13.564214089718062"><ele>823.3333333333333</ele><time>2026-05-02T12:44:27Z</time></trkpt><trkpt lat="42.08003420781806" lon="13.564097922272737"><ele>822.0</ele><time>2026-05-02T12:44:28Z</time></trkpt><trkpt lat="42.08003940441822" lon="13.563988216310255"><ele>820.6666666666667</ele><time>2026-05-02T12:44:29Z</time></trkpt><trkpt lat="42.08004700265476" lon="13.563874065841063"><ele>819.3333333333334</ele><time>2026-05-02T12:44:30Z</time></trkpt><trkpt lat="42.08003116679741" lon="13.563756577111493"><ele>818.0</ele><time>2026-05-02T12:44:31Z</time></trkpt><trkpt lat="42.08002625474941" lon="13.563630100206646"><ele>817.8333333333334</ele><time>2026-05-02T12:44:32Z</time></trkpt><trkpt lat="42.08001363146376" lon="13.563500382493196"><ele>817.6666666666667</ele><time>2026-05-02T12:44:33Z</time></trkpt><trkpt lat="42.08000792138867" lon="13.563378699659381"><ele>817.5</ele><time>2026-05-02T12:44:34Z</time></trkpt><trkpt lat="42.07999491779071" lon="13.563269717448774"><ele>817.3333333333333</ele><time>2026-05-02T12:44:35Z</time></trkpt><trkpt lat="42.08000690856078" lon="13.563168490125033"><ele>817.1666666666666</ele><time>2026-05-02T12:44:36Z</time></trkpt><trkpt lat="42.08000735146958" lon="13.56306594569443"><ele>817.0</ele><time>2026-05-02T12:44:37Z</time></trkpt><trkpt lat="42.080006041671695" lon="13.562966045669047"><ele>816.9999999999999</ele><time>2026-05-02T12:44:38Z</time></trkpt><trkpt lat="42.080012654687884" lon="13.562869517496848"><ele>817.0</ele><time>2026-05-02T12:44:39Z</time></trkpt><trkpt lat="42.080039460151994" lon="13.562788470683385"><ele>817.0</ele><time>2026-05-02T12:44:40Z</time></trkpt><trkpt lat="42.08003759897902" lon="13.562657238869443"><ele>817.0</ele><time>2026-05-02T12:44:42Z</time></trkpt><trkpt lat="42.08004346279144" lon="13.562546145283896"><ele>816.9999999999999</ele><time>2026-05-02T12:44:44Z</time></trkpt><trkpt lat="42.080023862195" lon="13.562421340667786"><ele>817.0</ele><time>2026-05-02T12:44:46Z</time></trkpt><trkpt lat="42.079971239711966" lon="13.562295991355878"><ele>819.0</ele><time>2026-05-02T12:44:48Z</time></trkpt><trkpt lat="42.07992617897988" lon="13.562154109216268"><ele>821.0</ele><time>2026-05-02T12:44:50Z</time></trkpt><trkpt lat="42.079881160537425" lon="13.562019873419857"><ele>823.0</ele><time>2026-05-02T12:44:52Z</time></trkpt><trkpt lat="42.07984100778094" lon="13.561853572202837"><ele>825.0</ele><time>2026-05-02T12:44:54Z</time></trkpt><trkpt lat="42.079841214357295" lon="13.561748548673853"><ele>827.0</ele><time>2026-05-02T12:44:55Z</time></trkpt><trkpt lat="42.07984631952533" lon="13.561646075172241"><ele>827.0</ele><time>2026-05-02T12:44:56Z</time></trkpt><trkpt lat="42.079851494032674" lon="13.561543293543053"><ele>827.0</ele><time>2026-05-02T12:44:57Z</time></trkpt><trkpt lat="42.079857822985794" lon="13.561454421017697"><ele>827.0</ele><time>2026-05-02T12:44:58Z</time></trkpt><trkpt lat="42.07990040086274" lon="13.561390391289125"><ele>827.0</ele><time>2026-05-02T12:44:59Z</time></trkpt><trkpt lat="42.07995676198596" lon="13.561268572270055"><ele>827.0</ele><time>2026-05-02T12:45:01Z</time></trkpt><trkpt lat="42.08000053416264" lon="13.561204886570383"><ele>827.0</ele><time>2026-05-02T12:45:02Z</time></trkpt><trkpt lat="42.080041009611996" lon="13.56112482836392"><ele>827.0</ele><time>2026-05-02T12:45:03Z</time></trkpt><trkpt lat="42.080088969217144" lon="13.561055790434894"><ele>820.4000000000001</ele><time>2026-05-02T12:45:04Z</time></trkpt><trkpt lat="42.080130696289615" lon="13.560916893220643"><ele>813.8000000000001</ele><time>2026-05-02T12:45:06Z</time></trkpt><trkpt lat="42.080147523874786" lon="13.56076631054338"><ele>807.2</ele><time>2026-05-02T12:45:08Z</time></trkpt><trkpt lat="42.08012765135935" lon="13.56061420509902"><ele>800.6</ele><time>2026-05-02T12:45:10Z</time></trkpt><trkpt lat="42.0801021560645" lon="13.560533118022656"><ele>794.0</ele><time>2026-05-02T12:45:11Z</time></trkpt><trkpt lat="42.0800623180516" lon="13.5604666568972"><ele>796.4000000000001</ele><time>2026-05-02T12:45:12Z</time></trkpt><trkpt lat="42.08001016189387" lon="13.560348075153112"><ele>798.8</ele><time>2026-05-02T12:45:14Z</time></trkpt><trkpt lat="42.07996671706151" lon="13.560244030708455"><ele>801.2</ele><time>2026-05-02T12:45:16Z</time></trkpt><trkpt lat="42.07992117451928" lon="13.560136970528426"><ele>803.5999999999999</ele><time>2026-05-02T12:45:18Z</time></trkpt><trkpt lat="42.07986487330411" lon="13.560033702853417"><ele>806.0</ele><time>2026-05-02T12:45:20Z</time></trkpt><trkpt lat="42.079805327782054" lon="13.559934145856145"><ele>806.0</ele><time>2026-05-02T12:45:22Z</time></trkpt><trkpt lat="42.079746371534895" lon="13.559805333415696"><ele>806.0</ele><time>2026-05-02T12:45:24Z</time></trkpt><trkpt lat="42.079676287106096" lon="13.559673791329747"><ele>806.0</ele><time>2026-05-02T12:45:26Z</time></trkpt><trkpt lat="42.079638858104616" lon="13.559602693904207"><ele>806.0</ele><time>2026-05-02T12:45:27Z</time></trkpt><trkpt lat="42.07956678143103" lon="13.559463422399947"><ele>806.0</ele><time>2026-05-02T12:45:29.001Z</time></trkpt><trkpt lat="42.07950600337579" lon="13.559340525591393"><ele>801.1999999999999</ele><time>2026-05-02T12:45:31.001Z</time></trkpt><trkpt lat="42.07945605952205" lon="13.559230226754227"><ele>796.4</ele><time>2026-05-02T12:45:33.001Z</time></trkpt><trkpt lat="42.07939996972693" lon="13.55910504433621"><ele>791.6</ele><time>2026-05-02T12:45:35.001Z</time></trkpt><trkpt lat="42.079337768408095" lon="13.558972313522778"><ele>786.8</ele><time>2026-05-02T12:45:37.001Z</time></trkpt><trkpt lat="42.07927641703475" lon="13.55884980102301"><ele>782.0</ele><time>2026-05-02T12:45:39.001Z</time></trkpt><trkpt lat="42.07922697543619" lon="13.558791602096711"><ele>781.9999999999999</ele><time>2026-05-02T12:45:40.001Z</time></trkpt><trkpt lat="42.07918010242787" lon="13.55871694083343"><ele>782.0</ele><time>2026-05-02T12:45:41.001Z</time></trkpt><trkpt lat="42.07913119177893" lon="13.558641561945766"><ele>782.0</ele><time>2026-05-02T12:45:42.001Z</time></trkpt><trkpt lat="42.07908683851652" lon="13.558580141650118"><ele>782.0</ele><time>2026-05-02T12:45:43.001Z</time></trkpt><trkpt lat="42.07904474781886" lon="13.558516200564357"><ele>782.0</ele><time>2026-05-02T12:45:44.001Z</time></trkpt><trkpt lat="42.07901096997126" lon="13.55842963941476"><ele>781.9999999999999</ele><time>2026-05-02T12:45:45Z</time></trkpt><trkpt lat="42.07896494931026" lon="13.558352268835446"><ele>782.0</ele><time>2026-05-02T12:45:46Z</time></trkpt><trkpt lat="42.07892587030526" lon="13.558275292229087"><ele>782.3333333333334</ele><time>2026-05-02T12:45:47Z</time></trkpt><trkpt lat="42.07888807539383" lon="13.558197141613665"><ele>782.6666666666667</ele><time>2026-05-02T12:45:48Z</time></trkpt><trkpt lat="42.07885712490529" lon="13.558121802017881"><ele>783.0</ele><time>2026-05-02T12:45:49Z</time></trkpt><trkpt lat="42.078784737326636" lon="13.55799011606943"><ele>783.3333333333333</ele><time>2026-05-02T12:45:51Z</time></trkpt><trkpt lat="42.078743236459154" lon="13.557864585666277"><ele>783.6666666666666</ele><time>2026-05-02T12:45:53Z</time></trkpt><trkpt lat="42.078706310881785" lon="13.557783873408324"><ele>784.0</ele><time>2026-05-02T12:45:55Z</time></trkpt><trkpt lat="42.07865916092779" lon="13.557680812619482"><ele>780.0</ele><time>2026-05-02T12:45:58Z</time></trkpt><trkpt lat="42.07862627486432" lon="13.557608406535442"><ele>776.0</ele><time>2026-05-02T12:46:00Z</time></trkpt><trkpt lat="42.078572885771194" lon="13.557520166639724"><ele>772.0</ele><time>2026-05-02T12:46:02Z</time></trkpt><trkpt lat="42.078529053497164" lon="13.55740751221163"><ele>768.0</ele><time>2026-05-02T12:46:04Z</time></trkpt><trkpt lat="42.078464396710714" lon="13.557249485135898"><ele>764.0</ele><time>2026-05-02T12:46:06Z</time></trkpt><trkpt lat="42.07841888088321" lon="13.55714712539038"><ele>764.0</ele><time>2026-05-02T12:46:07Z</time></trkpt><trkpt lat="42.07836997265048" lon="13.5570401011008"><ele>764.0</ele><time>2026-05-02T12:46:08Z</time></trkpt><trkpt lat="42.07834357676661" lon="13.55694332512084"><ele>764.0</ele><time>2026-05-02T12:46:09Z</time></trkpt><trkpt lat="42.078287090156216" lon="13.556810998789434"><ele>764.0</ele><time>2026-05-02T12:46:11Z</time></trkpt><trkpt lat="42.07824505524363" lon="13.556665749247594"><ele>764.0</ele><time>2026-05-02T12:46:13Z</time></trkpt><trkpt lat="42.078212683283475" lon="13.556574410282149"><ele>765.5</ele><time>2026-05-02T12:46:14Z</time></trkpt><trkpt lat="42.07820976843518" lon="13.556464524733002"><ele>767.0</ele><time>2026-05-02T12:46:15Z</time></trkpt><trkpt lat="42.07819254016948" lon="13.556357694212517"><ele>768.5</ele><time>2026-05-02T12:46:16Z</time></trkpt><trkpt lat="42.07817348977267" lon="13.556239564867846"><ele>770.0</ele><time>2026-05-02T12:46:17Z</time></trkpt><trkpt lat="42.07814305819475" lon="13.556132874604172"><ele>771.5000000000001</ele><time>2026-05-02T12:46:18Z</time></trkpt><trkpt lat="42.07811985394296" lon="13.556030444982856"><ele>773.0</ele><time>2026-05-02T12:46:19Z</time></trkpt><trkpt lat="42.07808812895503" lon="13.555935733621808"><ele>773.0000000000001</ele><time>2026-05-02T12:46:20Z</time></trkpt><trkpt lat="42.078058389722294" lon="13.555835326640057"><ele>773.0</ele><time>2026-05-02T12:46:21Z</time></trkpt><trkpt lat="42.07801331897345" lon="13.55574898436286"><ele>773.0</ele><time>2026-05-02T12:46:22Z</time></trkpt><trkpt lat="42.07796678727221" lon="13.555662886317197"><ele>773.0</ele><time>2026-05-02T12:46:23Z</time></trkpt><trkpt lat="42.077919435402336" lon="13.5555772984401"><ele>773.0000000000001</ele><time>2026-05-02T12:46:24Z</time></trkpt><trkpt lat="42.07786287752049" lon="13.555506949052614"><ele>773.0</ele><time>2026-05-02T12:46:25Z</time></trkpt><trkpt lat="42.07783134876887" lon="13.555421768045228"><ele>770.5000000000001</ele><time>2026-05-02T12:46:26Z</time></trkpt><trkpt lat="42.077813274057675" lon="13.555339756717462"><ele>768.0</ele><time>2026-05-02T12:46:27Z</time></trkpt><trkpt lat="42.077829235071704" lon="13.555254921872077"><ele>765.5</ele><time>2026-05-02T12:46:28Z</time></trkpt><trkpt lat="42.07781475992092" lon="13.55516871024508"><ele>763.0</ele><time>2026-05-02T12:46:29Z</time></trkpt><trkpt lat="42.077824728100865" lon="13.55507154288364"><ele>760.5</ele><time>2026-05-02T12:46:30Z</time></trkpt><trkpt lat="42.07783053288099" lon="13.554982282860284"><ele>758.0</ele><time>2026-05-02T12:46:31Z</time></trkpt><trkpt lat="42.07780320698823" lon="13.554826082026938"><ele>758.0</ele><time>2026-05-02T12:46:33Z</time></trkpt><trkpt lat="42.07776467614802" lon="13.554741301155355"><ele>758.0</ele><time>2026-05-02T12:46:34Z</time></trkpt><trkpt lat="42.07772876389943" lon="13.554638713918257"><ele>758.0</ele><time>2026-05-02T12:46:35Z</time></trkpt><trkpt lat="42.07766126879098" lon="13.554554441092604"><ele>758.0</ele><time>2026-05-02T12:46:36Z</time></trkpt><trkpt lat="42.07761129526782" lon="13.554451266574917"><ele>758.0</ele><time>2026-05-02T12:46:37Z</time></trkpt><trkpt lat="42.07752238903525" lon="13.554393206695131"><ele>758.0</ele><time>2026-05-02T12:46:38Z</time></trkpt><trkpt lat="42.07744360585207" lon="13.554328192253132"><ele>758.5714285714287</ele><time>2026-05-02T12:46:39Z</time></trkpt><trkpt lat="42.07737101983534" lon="13.554265645364653"><ele>759.1428571428571</ele><time>2026-05-02T12:46:40Z</time></trkpt><trkpt lat="42.07731318166383" lon="13.554182583792985"><ele>759.7142857142858</ele><time>2026-05-02T12:46:41Z</time></trkpt><trkpt lat="42.07726666536161" lon="13.554122462788927"><ele>760.2857142857143</ele><time>2026-05-02T12:46:42Z</time></trkpt><trkpt lat="42.07722170726228" lon="13.554051769599502"><ele>760.8571428571429</ele><time>2026-05-02T12:46:43Z</time></trkpt><trkpt lat="42.077185320127136" lon="13.553962511213001"><ele>761.4285714285714</ele><time>2026-05-02T12:46:44Z</time></trkpt><trkpt lat="42.07716464432989" lon="13.55387788037339"><ele>762.0</ele><time>2026-05-02T12:46:45Z</time></trkpt><trkpt lat="42.077147380020065" lon="13.5537901630149"><ele>759.1666666666666</ele><time>2026-05-02T12:46:46Z</time></trkpt><trkpt lat="42.07712870201953" lon="13.553694195335833"><ele>756.3333333333334</ele><time>2026-05-02T12:46:47Z</time></trkpt><trkpt lat="42.077087076317426" lon="13.55360621298989"><ele>753.5</ele><time>2026-05-02T12:46:48Z</time></trkpt><trkpt lat="42.07702613660777" lon="13.553482862239413"><ele>750.6666666666667</ele><time>2026-05-02T12:46:50Z</time></trkpt><trkpt lat="42.07700751274826" lon="13.553400010979892"><ele>747.8333333333334</ele><time>2026-05-02T12:46:54Z</time></trkpt><trkpt lat="42.07712351747357" lon="13.553362923538673"><ele>745.0</ele><time>2026-05-02T12:46:58Z</time></trkpt><trkpt lat="42.07719241711493" lon="13.553325486065216"><ele>745.0</ele><time>2026-05-02T12:46:59Z</time></trkpt><trkpt lat="42.07727516659129" lon="13.553306814417175"><ele>745.0</ele><time>2026-05-02T12:47:00Z</time></trkpt><trkpt lat="42.0773608895697" lon="13.55326664090723"><ele>745.0</ele><time>2026-05-02T12:47:01Z</time></trkpt><trkpt lat="42.077437412133484" lon="13.553205544295343"><ele>745.0</ele><time>2026-05-02T12:47:02Z</time></trkpt><trkpt lat="42.07750761390162" lon="13.553115659320538"><ele>745.0</ele><time>2026-05-02T12:47:03Z</time></trkpt><trkpt lat="42.07755848406399" lon="13.552991176632643"><ele>746.8</ele><time>2026-05-02T12:47:04Z</time></trkpt><trkpt lat="42.07757613709401" lon="13.552859200513884"><ele>748.6</ele><time>2026-05-02T12:47:05Z</time></trkpt><trkpt lat="42.07755955866871" lon="13.552714859914872"><ele>750.4000000000001</ele><time>2026-05-02T12:47:06Z</time></trkpt><trkpt lat="42.07751970178506" lon="13.55256262038103"><ele>752.2</ele><time>2026-05-02T12:47:07Z</time></trkpt><trkpt lat="42.07748100723335" lon="13.552409640335734"><ele>754.0</ele><time>2026-05-02T12:47:08Z</time></trkpt><trkpt lat="42.077438052162925" lon="13.552245843470766"><ele>752.25</ele><time>2026-05-02T12:47:09Z</time></trkpt><trkpt lat="42.07739385516886" lon="13.552075195672163"><ele>750.5</ele><time>2026-05-02T12:47:10Z</time></trkpt><trkpt lat="42.07735133877331" lon="13.551906769164159"><ele>748.75</ele><time>2026-05-02T12:47:11Z</time></trkpt><trkpt lat="42.07730175477198" lon="13.551740695622273"><ele>747.0</ele><time>2026-05-02T12:47:12Z</time></trkpt><trkpt lat="42.07723670217249" lon="13.551586995548158"><ele>747.0</ele><time>2026-05-02T12:47:13Z</time></trkpt><trkpt lat="42.07715790008988" lon="13.551447077725332"><ele>747.0</ele><time>2026-05-02T12:47:14Z</time></trkpt><trkpt lat="42.07706935586568" lon="13.551323275857493"><ele>747.0</ele><time>2026-05-02T12:47:15Z</time></trkpt><trkpt lat="42.0769732083403" lon="13.551212563947995"><ele>747.0</ele><time>2026-05-02T12:47:16Z</time></trkpt><trkpt lat="42.07687142138556" lon="13.551120256597004"><ele>745.8</ele><time>2026-05-02T12:47:17Z</time></trkpt><trkpt lat="42.07677218465943" lon="13.551043159009454"><ele>744.6</ele><time>2026-05-02T12:47:18Z</time></trkpt><trkpt lat="42.076688164293095" lon="13.550974451211617"><ele>743.4</ele><time>2026-05-02T12:47:19Z</time></trkpt><trkpt lat="42.076617538489174" lon="13.550908139976718"><ele>742.1999999999999</ele><time>2026-05-02T12:47:20Z</time></trkpt><trkpt lat="42.076569413799405" lon="13.550826834105811"><ele>741.0</ele><time>2026-05-02T12:47:21Z</time></trkpt><trkpt lat="42.07654654739491" lon="13.550729233974643"><ele>741.0</ele><time>2026-05-02T12:47:22Z</time></trkpt><trkpt lat="42.07654802260534" lon="13.550628392746926"><ele>741.0</ele><time>2026-05-02T12:47:23Z</time></trkpt><trkpt lat="42.07656923519906" lon="13.550533996189642"><ele>741.0</ele><time>2026-05-02T12:47:24Z</time></trkpt><trkpt lat="42.07661673280768" lon="13.550451980490223"><ele>741.0</ele><time>2026-05-02T12:47:25Z</time></trkpt><trkpt lat="42.07668632518639" lon="13.550392540633387"><ele>741.0</ele><time>2026-05-02T12:47:26.001Z</time></trkpt><trkpt lat="42.07677037545138" lon="13.550352997148622"><ele>741.0</ele><time>2026-05-02T12:47:27.001Z</time></trkpt><trkpt lat="42.07686184738071" lon="13.55031743332527"><ele>742.8</ele><time>2026-05-02T12:47:28.001Z</time></trkpt><trkpt lat="42.07695811486923" lon="13.5502778470761"><ele>744.5999999999999</ele><time>2026-05-02T12:47:29.001Z</time></trkpt><trkpt lat="42.077057194517515" lon="13.550231093227925"><ele>746.4</ele><time>2026-05-02T12:47:30.001Z</time></trkpt><trkpt lat="42.07716356322124" lon="13.5501862458984"><ele>748.2</ele><time>2026-05-02T12:47:31.001Z</time></trkpt><trkpt lat="42.0772769481175" lon="13.550140134877202"><ele>750.0</ele><time>2026-05-02T12:47:32.001Z</time></trkpt><trkpt lat="42.07739426837699" lon="13.550092591456753"><ele>752.6</ele><time>2026-05-02T12:47:33.001Z</time></trkpt><trkpt lat="42.07751508390863" lon="13.55004541469004"><ele>755.2</ele><time>2026-05-02T12:47:34.001Z</time></trkpt><trkpt lat="42.0776317026817" lon="13.549995682798718"><ele>757.8</ele><time>2026-05-02T12:47:35.001Z</time></trkpt><trkpt lat="42.077722017843726" lon="13.549959690255214"><ele>760.4</ele><time>2026-05-02T12:47:36.001Z</time></trkpt><trkpt lat="42.07778401187144" lon="13.549929093811926"><ele>763.0</ele><time>2026-05-02T12:47:37.001Z</time></trkpt><trkpt lat="42.07788125199835" lon="13.54983582679802"><ele>763.0</ele><time>2026-05-02T12:47:39.001Z</time></trkpt><trkpt lat="42.077961353144055" lon="13.549747942434438"><ele>763.0</ele><time>2026-05-02T12:47:41.001Z</time></trkpt><trkpt lat="42.07782572119057" lon="13.549844420125156"><ele>763.0</ele><time>2026-05-02T12:47:48.001Z</time></trkpt><trkpt lat="42.077739317709835" lon="13.549911196706352"><ele>763.0</ele><time>2026-05-02T12:47:49.001Z</time></trkpt><trkpt lat="42.077628311886045" lon="13.549965495057355"><ele>763.0</ele><time>2026-05-02T12:47:50.001Z</time></trkpt><trkpt lat="42.07751926004593" lon="13.550004027546963"><ele>763.0</ele><time>2026-05-02T12:47:51Z</time></trkpt><trkpt lat="42.0774008556044" lon="13.550049459479107"><ele>763.0</ele><time>2026-05-02T12:47:52Z</time></trkpt><trkpt lat="42.077281288903826" lon="13.550105781104982"><ele>763.0</ele><time>2026-05-02T12:47:53Z</time></trkpt><trkpt lat="42.07716845795321" lon="13.55016075013835"><ele>760.4</ele><time>2026-05-02T12:47:54Z</time></trkpt><trkpt lat="42.07706290557399" lon="13.5502071090299"><ele>757.8</ele><time>2026-05-02T12:47:55Z</time></trkpt><trkpt lat="42.076960819633236" lon="13.550242367121816"><ele>755.2</ele><time>2026-05-02T12:47:56Z</time></trkpt><trkpt lat="42.07686523759338" lon="13.550276269348"><ele>752.6</ele><time>2026-05-02T12:47:57Z</time></trkpt><trkpt lat="42.07677661273305" lon="13.550315415026045"><ele>750.0</ele><time>2026-05-02T12:47:58Z</time></trkpt><trkpt lat="42.076692410446036" lon="13.550353472799706"><ele>750.8333333333334</ele><time>2026-05-02T12:47:59Z</time></trkpt><trkpt lat="42.07662413381191" lon="13.55039883975977"><ele>751.6666666666666</ele><time>2026-05-02T12:48:00Z</time></trkpt><trkpt lat="42.07657196012239" lon="13.550461473067402"><ele>752.5</ele><time>2026-05-02T12:48:01Z</time></trkpt><trkpt lat="42.07653917849079" lon="13.550573918432619"><ele>753.3333333333333</ele><time>2026-05-02T12:48:03Z</time></trkpt><trkpt lat="42.07657009153699" lon="13.550653364528909"><ele>754.1666666666666</ele><time>2026-05-02T12:48:05Z</time></trkpt><trkpt lat="42.076633918672684" lon="13.550688100640109"><ele>755.0</ele><time>2026-05-02T12:48:06Z</time></trkpt><trkpt lat="42.07671919526665" lon="13.550689181345453"><ele>755.0</ele><time>2026-05-02T12:48:07Z</time></trkpt><trkpt lat="42.07680963474043" lon="13.550675133255693"><ele>755.0</ele><time>2026-05-02T12:48:08Z</time></trkpt><trkpt lat="42.07690033634814" lon="13.550638620746192"><ele>755.0</ele><time>2026-05-02T12:48:09Z</time></trkpt><trkpt lat="42.07699335884114" lon="13.550593741136675"><ele>755.0</ele><time>2026-05-02T12:48:10Z</time></trkpt><trkpt lat="42.07709505981367" lon="13.550546672610572"><ele>755.0</ele><time>2026-05-02T12:48:11Z</time></trkpt><trkpt lat="42.07720526417563" lon="13.55050422015641"><ele>755.0</ele><time>2026-05-02T12:48:12Z</time></trkpt><trkpt lat="42.077309410325604" lon="13.550465033362393"><ele>755.0</ele><time>2026-05-02T12:48:13Z</time></trkpt><trkpt lat="42.0774170076363" lon="13.550418667371424"><ele>755.0</ele><time>2026-05-02T12:48:14Z</time></trkpt><trkpt lat="42.07752596066869" lon="13.55036731426075"><ele>755.0</ele><time>2026-05-02T12:48:15Z</time></trkpt><trkpt lat="42.07763834630074" lon="13.550317779795247"><ele>757.0</ele><time>2026-05-02T12:48:16Z</time></trkpt><trkpt lat="42.07775246726318" lon="13.550266258590913"><ele>759.0</ele><time>2026-05-02T12:48:17Z</time></trkpt><trkpt lat="42.07786815767338" lon="13.550211676809141"><ele>761.0</ele><time>2026-05-02T12:48:18Z</time></trkpt><trkpt lat="42.07798650044232" lon="13.55015986855528"><ele>763.0</ele><time>2026-05-02T12:48:19Z</time></trkpt><trkpt lat="42.07811220632489" lon="13.55014034465459"><ele>763.0</ele><time>2026-05-02T12:48:20Z</time></trkpt><trkpt lat="42.07823260074349" lon="13.550090299200697"><ele>763.0</ele><time>2026-05-02T12:48:21Z</time></trkpt><trkpt lat="42.07835202516293" lon="13.550040678739776"><ele>763.0</ele><time>2026-05-02T12:48:22Z</time></trkpt><trkpt lat="42.07846854760725" lon="13.549992279046524"><ele>763.0</ele><time>2026-05-02T12:48:23Z</time></trkpt><trkpt lat="42.07858383871275" lon="13.549944390817846"><ele>766.5</ele><time>2026-05-02T12:48:24Z</time></trkpt><trkpt lat="42.07869793972777" lon="13.549896996901438"><ele>770.0</ele><time>2026-05-02T12:48:25Z</time></trkpt><trkpt lat="42.078812458297584" lon="13.549848416474125"><ele>773.5</ele><time>2026-05-02T12:48:26Z</time></trkpt><trkpt lat="42.078922446187825" lon="13.549801100923707"><ele>777.0</ele><time>2026-05-02T12:48:27Z</time></trkpt><trkpt lat="42.079031927358" lon="13.549754003431026"><ele>777.6</ele><time>2026-05-02T12:48:28Z</time></trkpt><trkpt lat="42.07913957785603" lon="13.54970350314944"><ele>778.2</ele><time>2026-05-02T12:48:29Z</time></trkpt><trkpt lat="42.07924370989745" lon="13.54965276376783"><ele>778.8</ele><time>2026-05-02T12:48:30Z</time></trkpt><trkpt lat="42.07933883124344" lon="13.549579988404286"><ele>779.4</ele><time>2026-05-02T12:48:31Z</time></trkpt><trkpt lat="42.079425415998756" lon="13.549541857508746"><ele>780.0</ele><time>2026-05-02T12:48:32Z</time></trkpt><trkpt lat="42.07948848844859" lon="13.549513611517652"><ele>780.0</ele><time>2026-05-02T12:48:33Z</time></trkpt><trkpt lat="42.079566413760496" lon="13.549471447468528"><ele>780.0</ele><time>2026-05-02T12:48:35Z</time></trkpt><trkpt lat="42.079626778964126" lon="13.549523039247193"><ele>780.0</ele><time>2026-05-02T12:48:44Z</time></trkpt><trkpt lat="42.079722409404525" lon="13.549533966249964"><ele>780.0</ele><time>2026-05-02T12:48:56Z</time></trkpt><trkpt lat="42.07974402433847" lon="13.54939214054599"><ele>780.0</ele><time>2026-05-02T12:48:57Z</time></trkpt><trkpt lat="42.07981036508" lon="13.549333616783349"><ele>780.0</ele><time>2026-05-02T12:48:58Z</time></trkpt><trkpt lat="42.07987613661089" lon="13.54925859125616"><ele>781.5</ele><time>2026-05-02T12:48:59Z</time></trkpt><trkpt lat="42.07993948151065" lon="13.549193205114497"><ele>783.0</ele><time>2026-05-02T12:49:00Z</time></trkpt><trkpt lat="42.08000394763282" lon="13.549121176057465"><ele>784.5</ele><time>2026-05-02T12:49:01Z</time></trkpt><trkpt lat="42.08007311687784" lon="13.54904700483497"><ele>786.0</ele><time>2026-05-02T12:49:02Z</time></trkpt><trkpt lat="42.08013949924878" lon="13.548974551981242"><ele>787.5</ele><time>2026-05-02T12:49:03Z</time></trkpt><trkpt lat="42.08020719002857" lon="13.548900786056858"><ele>789.0</ele><time>2026-05-02T12:49:04Z</time></trkpt><trkpt lat="42.08027420985509" lon="13.548832008101257"><ele>789.0</ele><time>2026-05-02T12:49:05Z</time></trkpt><trkpt lat="42.080340245812415" lon="13.548761595516122"><ele>789.0</ele><time>2026-05-02T12:49:06Z</time></trkpt><trkpt lat="42.080409348332616" lon="13.548686404536861"><ele>789.0</ele><time>2026-05-02T12:49:07Z</time></trkpt><trkpt lat="42.08047538062538" lon="13.548613423977255"><ele>789.0</ele><time>2026-05-02T12:49:08Z</time></trkpt><trkpt lat="42.08054129602393" lon="13.548540659911358"><ele>789.0</ele><time>2026-05-02T12:49:09Z</time></trkpt><trkpt lat="42.08060912350391" lon="13.548470212103863"><ele>789.0</ele><time>2026-05-02T12:49:10Z</time></trkpt><trkpt lat="42.08067744981209" lon="13.548397040561811"><ele>788.3333333333334</ele><time>2026-05-02T12:49:11Z</time></trkpt><trkpt lat="42.08074574496313" lon="13.548323095698187"><ele>787.6666666666667</ele><time>2026-05-02T12:49:12Z</time></trkpt><trkpt lat="42.080812970674295" lon="13.548252370560038"><ele>787.0</ele><time>2026-05-02T12:49:13Z</time></trkpt><trkpt lat="42.0808799692085" lon="13.548181263477792"><ele>786.3333333333334</ele><time>2026-05-02T12:49:14Z</time></trkpt><trkpt lat="42.08094847368603" lon="13.54811287682776"><ele>785.6666666666667</ele><time>2026-05-02T12:49:15Z</time></trkpt><trkpt lat="42.08101810885247" lon="13.548041894671364"><ele>785.0</ele><time>2026-05-02T12:49:16Z</time></trkpt><trkpt lat="42.081087524963024" lon="13.54797332285682"><ele>785.0000000000001</ele><time>2026-05-02T12:49:17Z</time></trkpt><trkpt lat="42.08115446266212" lon="13.547899923413153"><ele>785.0</ele><time>2026-05-02T12:49:18Z</time></trkpt><trkpt lat="42.08122118059692" lon="13.547824038889285"><ele>785.0</ele><time>2026-05-02T12:49:19Z</time></trkpt><trkpt lat="42.08128969745826" lon="13.547746470877069"><ele>785.0</ele><time>2026-05-02T12:49:20Z</time></trkpt><trkpt lat="42.08136040491182" lon="13.54766893307406"><ele>785.0000000000001</ele><time>2026-05-02T12:49:21Z</time></trkpt><trkpt lat="42.081434425067975" lon="13.547596503468704"><ele>785.0</ele><time>2026-05-02T12:49:22Z</time></trkpt><trkpt lat="42.08151384266085" lon="13.547528833999861"><ele>782.6</ele><time>2026-05-02T12:49:23Z</time></trkpt><trkpt lat="42.081601474819735" lon="13.547467217837347"><ele>780.2</ele><time>2026-05-02T12:49:24Z</time></trkpt><trkpt lat="42.08169195984567" lon="13.547416790396479"><ele>777.8</ele><time>2026-05-02T12:49:25Z</time></trkpt><trkpt lat="42.08178250669005" lon="13.547377087028641"><ele>775.4</ele><time>2026-05-02T12:49:26Z</time></trkpt><trkpt lat="42.08186377478917" lon="13.547338805104824"><ele>773.0</ele><time>2026-05-02T12:49:27Z</time></trkpt><trkpt lat="42.08193866914477" lon="13.547302295604368"><ele>773.0</ele><time>2026-05-02T12:49:28Z</time></trkpt><trkpt lat="42.08201635364191" lon="13.547289313465631"><ele>773.0</ele><time>2026-05-02T12:49:29Z</time></trkpt><trkpt lat="42.0820920067993" lon="13.547246604546586"><ele>773.0</ele><time>2026-05-02T12:49:30Z</time></trkpt><trkpt lat="42.0821744404688" lon="13.547189288829221"><ele>773.0</ele><time>2026-05-02T12:49:31Z</time></trkpt><trkpt lat="42.08224785587699" lon="13.54710734396147"><ele>773.0</ele><time>2026-05-02T12:49:32Z</time></trkpt><trkpt lat="42.08229315841156" lon="13.54698344268285"><ele>773.5999999999999</ele><time>2026-05-02T12:49:33Z</time></trkpt><trkpt lat="42.08234021817621" lon="13.546872937495317"><ele>774.1999999999999</ele><time>2026-05-02T12:49:34Z</time></trkpt><trkpt lat="42.08238315450722" lon="13.546759065498344"><ele>774.8</ele><time>2026-05-02T12:49:35Z</time></trkpt><trkpt lat="42.08241968164326" lon="13.546640488382282"><ele>775.4</ele><time>2026-05-02T12:49:36Z</time></trkpt><trkpt lat="42.08244992933254" lon="13.54652027083284"><ele>776.0</ele><time>2026-05-02T12:49:37Z</time></trkpt><trkpt lat="42.08247860879172" lon="13.546406680467477"><ele>776.0</ele><time>2026-05-02T12:49:38Z</time></trkpt><trkpt lat="42.08250185578091" lon="13.546290443511623"><ele>776.0</ele><time>2026-05-02T12:49:39Z</time></trkpt><trkpt lat="42.08251878527997" lon="13.546164778597733"><ele>776.0</ele><time>2026-05-02T12:49:40Z</time></trkpt><trkpt lat="42.082532901708205" lon="13.546038914419123"><ele>776.0</ele><time>2026-05-02T12:49:41Z</time></trkpt><trkpt lat="42.082544347638134" lon="13.545910836690586"><ele>776.0</ele><time>2026-05-02T12:49:42Z</time></trkpt><trkpt lat="42.08255421790914" lon="13.545782404788202"><ele>774.8</ele><time>2026-05-02T12:49:43Z</time></trkpt><trkpt lat="42.08255913543709" lon="13.545652490220828"><ele>773.5999999999999</ele><time>2026-05-02T12:49:44Z</time></trkpt><trkpt lat="42.082556374187156" lon="13.545521625196738"><ele>772.4</ele><time>2026-05-02T12:49:45.001Z</time></trkpt><trkpt lat="42.08254552696072" lon="13.545397765200349"><ele>771.2</ele><time>2026-05-02T12:49:46.001Z</time></trkpt><trkpt lat="42.082525346177924" lon="13.545282488092683"><ele>770.0</ele><time>2026-05-02T12:49:47.001Z</time></trkpt><trkpt lat="42.082508416939284" lon="13.545175775856173"><ele>769.6666666666667</ele><time>2026-05-02T12:49:48.001Z</time></trkpt><trkpt lat="42.08249046962194" lon="13.54507148210668"><ele>769.3333333333334</ele><time>2026-05-02T12:49:49.001Z</time></trkpt><trkpt lat="42.08246795745831" lon="13.544958107718779"><ele>769.0</ele><time>2026-05-02T12:49:50.001Z</time></trkpt><trkpt lat="42.08244686680929" lon="13.54484043776033"><ele>768.6666666666667</ele><time>2026-05-02T12:49:51.001Z</time></trkpt><trkpt lat="42.08242491160137" lon="13.544720755100949"><ele>768.3333333333334</ele><time>2026-05-02T12:49:52.001Z</time></trkpt><trkpt lat="42.082402969921816" lon="13.544602478815534"><ele>768.0</ele><time>2026-05-02T12:49:53.001Z</time></trkpt><trkpt lat="42.082381594573306" lon="13.544485286662187"><ele>765.6666666666666</ele><time>2026-05-02T12:49:54.001Z</time></trkpt><trkpt lat="42.08236057343911" lon="13.544369275890325"><ele>763.3333333333334</ele><time>2026-05-02T12:49:55.001Z</time></trkpt><trkpt lat="42.08234908598423" lon="13.544252295857472"><ele>761.0</ele><time>2026-05-02T12:49:56.001Z</time></trkpt><trkpt lat="42.08234898408062" lon="13.544136127135767"><ele>758.6666666666667</ele><time>2026-05-02T12:49:57Z</time></trkpt><trkpt lat="42.082352129298044" lon="13.544027391870591"><ele>756.3333333333334</ele><time>2026-05-02T12:49:58Z</time></trkpt><trkpt lat="42.08237351514159" lon="13.543930780347896"><ele>754.0</ele><time>2026-05-02T12:49:59Z</time></trkpt><trkpt lat="42.082376912360594" lon="13.543839509983107"><ele>754.0</ele><time>2026-05-02T12:50:00Z</time></trkpt><trkpt lat="42.082354712308614" lon="13.543751376283376"><ele>754.0</ele><time>2026-05-02T12:50:01Z</time></trkpt><trkpt lat="42.08232194604315" lon="13.54360327310995"><ele>754.0</ele><time>2026-05-02T12:50:03Z</time></trkpt><trkpt lat="42.0823199812166" lon="13.543490916348512"><ele>754.0</ele><time>2026-05-02T12:50:05Z</time></trkpt><trkpt lat="42.08215802083876" lon="13.543491723236913"><ele>754.0</ele><time>2026-05-02T12:50:07Z</time></trkpt><trkpt lat="42.08206462433566" lon="13.543503649940808"><ele>753.4000000000001</ele><time>2026-05-02T12:50:09Z</time></trkpt><trkpt lat="42.0819654410444" lon="13.543507807026252"><ele>752.8</ele><time>2026-05-02T12:50:11Z</time></trkpt><trkpt lat="42.081895920154196" lon="13.54351242813102"><ele>752.2</ele><time>2026-05-02T12:50:13Z</time></trkpt><trkpt lat="42.08177128347346" lon="13.543492896996067"><ele>751.5999999999999</ele><time>2026-05-02T12:50:15Z</time></trkpt><trkpt lat="42.08167502296559" lon="13.543513513454448"><ele>751.0</ele><time>2026-05-02T12:50:16Z</time></trkpt><trkpt lat="42.08156729100854" lon="13.543505503045605"><ele>750.1999999999999</ele><time>2026-05-02T12:50:17Z</time></trkpt><trkpt lat="42.08145786828788" lon="13.543504147119688"><ele>749.4</ele><time>2026-05-02T12:50:18Z</time></trkpt><trkpt lat="42.08134723507869" lon="13.543501901261221"><ele>748.6</ele><time>2026-05-02T12:50:19Z</time></trkpt><trkpt lat="42.08123625840341" lon="13.543501410945918"><ele>747.8</ele><time>2026-05-02T12:50:20Z</time></trkpt><trkpt lat="42.08111973507597" lon="13.543501212692696"><ele>747.0</ele><time>2026-05-02T12:50:21Z</time></trkpt><trkpt lat="42.080999064679155" lon="13.543498446001765"><ele>747.0</ele><time>2026-05-02T12:50:22Z</time></trkpt><trkpt lat="42.08088508533971" lon="13.543496380159013"><ele>747.0</ele><time>2026-05-02T12:50:23Z</time></trkpt><trkpt lat="42.08077490724191" lon="13.54349586956388"><ele>747.0</ele><time>2026-05-02T12:50:24Z</time></trkpt><trkpt lat="42.08066962693929" lon="13.54349903230432"><ele>747.0</ele><time>2026-05-02T12:50:25Z</time></trkpt><trkpt lat="42.08056847095617" lon="13.543498062591036"><ele>747.0</ele><time>2026-05-02T12:50:26Z</time></trkpt><trkpt lat="42.0804689849662" lon="13.543474970923365"><ele>746.4000000000001</ele><time>2026-05-02T12:50:27Z</time></trkpt><trkpt lat="42.08037251451655" lon="13.543473464551445"><ele>745.8000000000001</ele><time>2026-05-02T12:50:28Z</time></trkpt><trkpt lat="42.08027791168234" lon="13.543493447586021"><ele>745.2</ele><time>2026-05-02T12:50:29Z</time></trkpt><trkpt lat="42.0801849772485" lon="13.543491211255997"><ele>744.6</ele><time>2026-05-02T12:50:30Z</time></trkpt><trkpt lat="42.08009455506299" lon="13.543485707304438"><ele>744.0</ele><time>2026-05-02T12:50:31Z</time></trkpt><trkpt lat="42.0800181432352" lon="13.54348810156471"><ele>743.3333333333334</ele><time>2026-05-02T12:50:32Z</time></trkpt><trkpt lat="42.07990900466839" lon="13.54347248382148"><ele>742.6666666666666</ele><time>2026-05-02T12:50:34Z</time></trkpt><trkpt lat="42.07982504510417" lon="13.543467062042765"><ele>742.0</ele><time>2026-05-02T12:50:36Z</time></trkpt><trkpt lat="42.07977364375436" lon="13.54334201661664"><ele>741.3333333333333</ele><time>2026-05-02T12:50:38Z</time></trkpt><trkpt lat="42.079737400671775" lon="13.543268982419418"><ele>740.6666666666666</ele><time>2026-05-02T12:50:39Z</time></trkpt><trkpt lat="42.07971055918591" lon="13.543175094696522"><ele>740.0</ele><time>2026-05-02T12:50:40Z</time></trkpt><trkpt lat="42.079674905583836" lon="13.543081282620198"><ele>740.0</ele><time>2026-05-02T12:50:41Z</time></trkpt><trkpt lat="42.0796411333341" lon="13.543004042676497"><ele>740.0</ele><time>2026-05-02T12:50:42Z</time></trkpt><trkpt lat="42.0795969730087" lon="13.542915724043482"><ele>740.0</ele><time>2026-05-02T12:50:44Z</time></trkpt><trkpt lat="42.07950992028899" lon="13.542873757744918"><ele>740.0</ele><time>2026-05-02T12:50:52Z</time></trkpt><trkpt lat="42.079350116004534" lon="13.542844417956154"><ele>740.0</ele><time>2026-05-02T12:50:54Z</time></trkpt><trkpt lat="42.079240866624225" lon="13.542814775424427"><ele>740.2</ele><time>2026-05-02T12:50:55Z</time></trkpt><trkpt lat="42.07912963456258" lon="13.542777585346514"><ele>740.4</ele><time>2026-05-02T12:50:56Z</time></trkpt><trkpt lat="42.07903068932123" lon="13.542724712151623"><ele>740.5999999999999</ele><time>2026-05-02T12:50:57Z</time></trkpt><trkpt lat="42.07893723367882" lon="13.542657588689085"><ele>740.8</ele><time>2026-05-02T12:50:58Z</time></trkpt><trkpt lat="42.078854481140816" lon="13.54256127486844"><ele>741.0</ele><time>2026-05-02T12:50:59Z</time></trkpt><trkpt lat="42.07877618661863" lon="13.542454223422407"><ele>740.8</ele><time>2026-05-02T12:51:00Z</time></trkpt><trkpt lat="42.078702149298444" lon="13.54234433366089"><ele>740.5999999999999</ele><time>2026-05-02T12:51:01Z</time></trkpt><trkpt lat="42.07862759159044" lon="13.542242750850912"><ele>740.4</ele><time>2026-05-02T12:51:02Z</time></trkpt><trkpt lat="42.078568231852955" lon="13.542137241345074"><ele>740.2</ele><time>2026-05-02T12:51:03Z</time></trkpt><trkpt lat="42.078496359735084" lon="13.542055053729388"><ele>740.0</ele><time>2026-05-02T12:51:04Z</time></trkpt><trkpt lat="42.078421706916096" lon="13.54199567330202"><ele>740.0</ele><time>2026-05-02T12:51:05Z</time></trkpt><trkpt lat="42.07836548699204" lon="13.541917172290772"><ele>740.0</ele><time>2026-05-02T12:51:06Z</time></trkpt><trkpt lat="42.07834358586835" lon="13.541815393070474"><ele>740.0</ele><time>2026-05-02T12:51:07Z</time></trkpt><trkpt lat="42.078321087331815" lon="13.541683970103225"><ele>740.0</ele><time>2026-05-02T12:51:09Z</time></trkpt><trkpt lat="42.078463539014734" lon="13.541513253686766"><ele>740.0</ele><time>2026-05-02T12:51:11Z</time></trkpt><trkpt lat="42.078398558533124" lon="13.541423752209129"><ele>740.0</ele><time>2026-05-02T12:51:13Z</time></trkpt><trkpt lat="42.07836739490477" lon="13.541331313883239"><ele>740.0</ele><time>2026-05-02T12:51:14Z</time></trkpt><trkpt lat="42.07831621032635" lon="13.54123295205262"><ele>740.0</ele><time>2026-05-02T12:51:16Z</time></trkpt><trkpt lat="42.07826179840824" lon="13.541128388472524"><ele>740.0</ele><time>2026-05-02T12:51:20Z</time></trkpt><trkpt lat="42.07836110171416" lon="13.540957371512109"><ele>740.3333333333333</ele><time>2026-05-02T12:51:22Z</time></trkpt><trkpt lat="42.078322821824145" lon="13.540883991585742"><ele>740.6666666666666</ele><time>2026-05-02T12:51:25Z</time></trkpt><trkpt lat="42.07836439459324" lon="13.540963655953188"><ele>741.0</ele><time>2026-05-02T12:51:41Z</time></trkpt><trkpt lat="42.07840311775807" lon="13.541037559636852"><ele>741.3333333333334</ele><time>2026-05-02T12:51:44Z</time></trkpt><trkpt lat="42.07838655428243" lon="13.541171027017514"><ele>741.6666666666667</ele><time>2026-05-02T12:51:48Z</time></trkpt><trkpt lat="42.07844204274354" lon="13.541119632739564"><ele>742.0</ele><time>2026-05-02T12:51:50Z</time></trkpt><trkpt lat="42.078367393208076" lon="13.54096563758883"><ele>742.0</ele><time>2026-05-02T12:51:51Z</time></trkpt><trkpt lat="42.07831967807389" lon="13.540877961555664"><ele>742.0</ele><time>2026-05-02T12:51:52Z</time></trkpt><trkpt lat="42.07827040692216" lon="13.540783454578657"><ele>742.0</ele><time>2026-05-02T12:51:53Z</time></trkpt><trkpt lat="42.0782197749171" lon="13.540686337351946"><ele>742.0</ele><time>2026-05-02T12:51:54Z</time></trkpt><trkpt lat="42.07817128663478" lon="13.54059333201324"><ele>742.0</ele><time>2026-05-02T12:51:55Z</time></trkpt><trkpt lat="42.0781242272165" lon="13.540504239337741"><ele>742.0</ele><time>2026-05-02T12:51:56Z</time></trkpt><trkpt lat="42.078086601255" lon="13.540436045758305"><ele>740.5</ele><time>2026-05-02T12:51:57Z</time></trkpt><trkpt lat="42.078025433654645" lon="13.540325185140594"><ele>739.0</ele><time>2026-05-02T12:51:59Z</time></trkpt><trkpt lat="42.077973632301315" lon="13.540213047936767"><ele>737.5</ele><time>2026-05-02T12:52:01Z</time></trkpt><trkpt lat="42.07802183308205" lon="13.540110099968858"><ele>736.0</ele><time>2026-05-02T12:52:03Z</time></trkpt><trkpt lat="42.078070722140716" lon="13.540041720647656"><ele>734.5</ele><time>2026-05-02T12:52:04Z</time></trkpt><trkpt lat="42.07813269379066" lon="13.53998998798164"><ele>733.0</ele><time>2026-05-02T12:52:05Z</time></trkpt><trkpt lat="42.07820123716916" lon="13.539961325228969"><ele>734.6666666666667</ele><time>2026-05-02T12:52:06Z</time></trkpt><trkpt lat="42.07827514764591" lon="13.539912604036871"><ele>736.3333333333334</ele><time>2026-05-02T12:52:08Z</time></trkpt><trkpt lat="42.07834546162751" lon="13.53996768921415"><ele>738.0</ele><time>2026-05-02T12:52:12Z</time></trkpt><trkpt lat="42.0784262731279" lon="13.540022772920437"><ele>739.6666666666666</ele><time>2026-05-02T12:52:14Z</time></trkpt><trkpt lat="42.07850159504466" lon="13.539991618848562"><ele>741.3333333333333</ele><time>2026-05-02T12:52:15Z</time></trkpt><trkpt lat="42.078578503259195" lon="13.539992736359473"><ele>743.0</ele><time>2026-05-02T12:52:16Z</time></trkpt><trkpt lat="42.07865611034386" lon="13.539987916444513"><ele>743.0</ele><time>2026-05-02T12:52:17Z</time></trkpt><trkpt lat="42.0787293208406" lon="13.539987073840317"><ele>743.0</ele><time>2026-05-02T12:52:18Z</time></trkpt><trkpt lat="42.07879873150434" lon="13.539982527908261"><ele>743.0</ele><time>2026-05-02T12:52:19Z</time></trkpt><trkpt lat="42.07886416255105" lon="13.539982798646548"><ele>743.0</ele><time>2026-05-02T12:52:20Z</time></trkpt><trkpt lat="42.07897589524366" lon="13.539980012654787"><ele>743.0</ele><time>2026-05-02T12:52:22Z</time></trkpt><trkpt lat="42.07905775713498" lon="13.539981748875855"><ele>743.0</ele><time>2026-05-02T12:52:24Z</time></trkpt><trkpt lat="42.07912493524083" lon="13.540020402685245"><ele>743.4</ele><time>2026-05-02T12:52:27Z</time></trkpt><trkpt lat="42.07913460352072" lon="13.540161447456464"><ele>743.8</ele><time>2026-05-02T12:52:28Z</time></trkpt><trkpt lat="42.07915858857662" lon="13.540247160867715"><ele>744.2</ele><time>2026-05-02T12:52:29Z</time></trkpt><trkpt lat="42.0792288665318" lon="13.540358743712758"><ele>744.6</ele><time>2026-05-02T12:52:31Z</time></trkpt><trkpt lat="42.0793269218568" lon="13.540357402414157"><ele>745.0</ele><time>2026-05-02T12:52:33Z</time></trkpt><trkpt lat="42.07943942925217" lon="13.540314787333433"><ele>745.0</ele><time>2026-05-02T12:52:35Z</time></trkpt><trkpt lat="42.07951957576552" lon="13.540289551317992"><ele>745.0</ele><time>2026-05-02T12:52:38Z</time></trkpt><trkpt lat="42.07959177790414" lon="13.540314650237079"><ele>745.0</ele><time>2026-05-02T12:52:41Z</time></trkpt><trkpt lat="42.07959530912278" lon="13.540478039054658"><ele>745.0</ele><time>2026-05-02T12:52:42Z</time></trkpt><trkpt lat="42.079628213119285" lon="13.540603080102859"><ele>745.0</ele><time>2026-05-02T12:52:43Z</time></trkpt><trkpt lat="42.07967646239482" lon="13.540743161126652"><ele>744.8</ele><time>2026-05-02T12:52:44Z</time></trkpt><trkpt lat="42.079747654403036" lon="13.540853344695819"><ele>744.6</ele><time>2026-05-02T12:52:45Z</time></trkpt><trkpt lat="42.079841541539814" lon="13.540935403887156"><ele>744.4000000000001</ele><time>2026-05-02T12:52:46Z</time></trkpt><trkpt lat="42.07994674843566" lon="13.54098689384186"><ele>744.2</ele><time>2026-05-02T12:52:47Z</time></trkpt><trkpt lat="42.08004756052817" lon="13.541038300410781"><ele>744.0</ele><time>2026-05-02T12:52:48Z</time></trkpt><trkpt lat="42.080147344738805" lon="13.541047320150415"><ele>744.0</ele><time>2026-05-02T12:52:49Z</time></trkpt><trkpt lat="42.08023052835215" lon="13.54105712998739"><ele>744.0</ele><time>2026-05-02T12:52:50Z</time></trkpt><trkpt lat="42.08031019957109" lon="13.54105230264359"><ele>744.0</ele><time>2026-05-02T12:52:51Z</time></trkpt><trkpt lat="42.08039476958412" lon="13.541044786306347"><ele>744.0</ele><time>2026-05-02T12:52:52Z</time></trkpt><trkpt lat="42.080481034529406" lon="13.541038509031175"><ele>744.0</ele><time>2026-05-02T12:52:53Z</time></trkpt><trkpt lat="42.08056855569272" lon="13.5410563677805"><ele>744.0</ele><time>2026-05-02T12:52:54Z</time></trkpt><trkpt lat="42.08066224833505" lon="13.541053942197962"><ele>744.0</ele><time>2026-05-02T12:52:55Z</time></trkpt><trkpt lat="42.08075561608761" lon="13.541029292465021"><ele>744.0</ele><time>2026-05-02T12:52:56Z</time></trkpt><trkpt lat="42.0808601155603" lon="13.541049651506503"><ele>744.0</ele><time>2026-05-02T12:52:57Z</time></trkpt><trkpt lat="42.08096949703515" lon="13.541025828833487"><ele>744.0</ele><time>2026-05-02T12:52:58Z</time></trkpt><trkpt lat="42.081080864763905" lon="13.541026378809928"><ele>744.0</ele><time>2026-05-02T12:52:59Z</time></trkpt><trkpt lat="42.081195228133026" lon="13.541027947182764"><ele>744.2</ele><time>2026-05-02T12:53:00Z</time></trkpt><trkpt lat="42.081311881167956" lon="13.541042938311998"><ele>744.4000000000001</ele><time>2026-05-02T12:53:01Z</time></trkpt><trkpt lat="42.08142577574508" lon="13.541064638924052"><ele>744.6</ele><time>2026-05-02T12:53:02Z</time></trkpt><trkpt lat="42.08153045579895" lon="13.541089381670664"><ele>744.8</ele><time>2026-05-02T12:53:03Z</time></trkpt><trkpt lat="42.081625059190316" lon="13.541122156294236"><ele>745.0</ele><time>2026-05-02T12:53:04Z</time></trkpt><trkpt lat="42.08171471891954" lon="13.541151923469183"><ele>745.1666666666667</ele><time>2026-05-02T12:53:05Z</time></trkpt><trkpt lat="42.081792561627765" lon="13.541194539294702"><ele>745.3333333333334</ele><time>2026-05-02T12:53:06Z</time></trkpt><trkpt lat="42.0818649062339" lon="13.541252877580746"><ele>745.5</ele><time>2026-05-02T12:53:07Z</time></trkpt><trkpt lat="42.08192501104689" lon="13.541317084188027"><ele>745.6666666666666</ele><time>2026-05-02T12:53:08Z</time></trkpt><trkpt lat="42.08196648112598" lon="13.541392307005005"><ele>745.8333333333333</ele><time>2026-05-02T12:53:10Z</time></trkpt><trkpt lat="42.082038524481646" lon="13.54145839333563"><ele>746.0</ele><time>2026-05-02T12:53:14Z</time></trkpt><trkpt lat="42.082153575594155" lon="13.541371657814748"><ele>746.0</ele><time>2026-05-02T12:53:18Z</time></trkpt><trkpt lat="42.08222855559737" lon="13.541353807980057"><ele>746.0</ele><time>2026-05-02T12:53:21Z</time></trkpt><trkpt lat="42.082266206147786" lon="13.541424989959708"><ele>746.0</ele><time>2026-05-02T12:53:40Z</time></trkpt><trkpt lat="42.08227358419059" lon="13.541517184041195"><ele>746.0</ele><time>2026-05-02T12:57:36Z</time></trkpt><trkpt lat="42.08223221693839" lon="13.541600209632435"><ele>746.0</ele><time>2026-05-02T12:57:40Z</time></trkpt><trkpt lat="42.082191163646264" lon="13.541677612250554"><ele>746.0</ele><time>2026-05-02T12:57:42Z</time></trkpt><trkpt lat="42.08218992793105" lon="13.54178349364771"><ele>746.0</ele><time>2026-05-02T12:57:51Z</time></trkpt><trkpt lat="42.08222579918367" lon="13.541875615998933"><ele>746.0</ele><time>2026-05-02T12:57:52Z</time></trkpt><trkpt lat="42.08228052369227" lon="13.541978210426283"><ele>746.0</ele><time>2026-05-02T12:57:53Z</time></trkpt><trkpt lat="42.08233632117955" lon="13.542100872778319"><ele>746.0</ele><time>2026-05-02T12:57:54Z</time></trkpt><trkpt lat="42.08238434888648" lon="13.542224038328632"><ele>746.0</ele><time>2026-05-02T12:57:55Z</time></trkpt><trkpt lat="42.082423905039164" lon="13.542333634343613"><ele>746.0</ele><time>2026-05-02T12:57:56Z</time></trkpt><trkpt lat="42.08246159695614" lon="13.542420764780628"><ele>746.1666666666666</ele><time>2026-05-02T12:57:57Z</time></trkpt><trkpt lat="42.08249705688671" lon="13.54249277237129"><ele>746.3333333333333</ele><time>2026-05-02T12:57:58Z</time></trkpt><trkpt lat="42.082527685025504" lon="13.542608683667854"><ele>746.5</ele><time>2026-05-02T12:58:00Z</time></trkpt><trkpt lat="42.08246220624932" lon="13.542696717519032"><ele>746.6666666666666</ele><time>2026-05-02T12:58:02Z</time></trkpt><trkpt lat="42.082361178347696" lon="13.542743916964044"><ele>746.8333333333334</ele><time>2026-05-02T12:58:04Z</time></trkpt><trkpt lat="42.082349174091284" lon="13.54284008818112"><ele>747.0</ele><time>2026-05-02T12:58:05Z</time></trkpt><trkpt lat="42.08232012931775" lon="13.54295319891119"><ele>748.0</ele><time>2026-05-02T12:58:07Z</time></trkpt><trkpt lat="42.082299719327295" lon="13.543111971758576"><ele>749.0</ele><time>2026-05-02T12:58:09Z</time></trkpt><trkpt lat="42.08228506926802" lon="13.54324781387506"><ele>750.0</ele><time>2026-05-02T12:58:11Z</time></trkpt><trkpt lat="42.082452149454575" lon="13.543257290324668"><ele>751.0</ele><time>2026-05-02T12:58:15Z</time></trkpt><trkpt lat="42.08248502970913" lon="13.54318056099646"><ele>753.0</ele><time>2026-05-02T12:58:16Z</time></trkpt><trkpt lat="42.0825247943197" lon="13.543101750808031"><ele>755.0</ele><time>2026-05-02T12:58:17Z</time></trkpt><trkpt lat="42.08259611423521" lon="13.54299740919917"><ele>757.0</ele><time>2026-05-02T12:58:19Z</time></trkpt><trkpt lat="42.08268863063415" lon="13.5429743610268"><ele>759.0</ele><time>2026-05-02T12:58:21.001Z</time></trkpt><trkpt lat="42.082786354939415" lon="13.542954119421552"><ele>761.0</ele><time>2026-05-02T12:58:23.001Z</time></trkpt><trkpt lat="42.08290400014708" lon="13.543017271484135"><ele>761.0</ele><time>2026-05-02T12:58:25.001Z</time></trkpt><trkpt lat="42.08298298701017" lon="13.543048790546104"><ele>761.0</ele><time>2026-05-02T12:58:26.001Z</time></trkpt><trkpt lat="42.083083039364205" lon="13.543008788380583"><ele>761.0</ele><time>2026-05-02T12:58:27.001Z</time></trkpt><trkpt lat="42.083199070142506" lon="13.543014846202192"><ele>761.0</ele><time>2026-05-02T12:58:28.001Z</time></trkpt><trkpt lat="42.083305525528644" lon="13.54302101410277"><ele>761.0</ele><time>2026-05-02T12:58:29.001Z</time></trkpt><trkpt lat="42.08341977908225" lon="13.543032498394439"><ele>765.0</ele><time>2026-05-02T12:58:30.001Z</time></trkpt><trkpt lat="42.08353734616375" lon="13.543049794583844"><ele>769.0</ele><time>2026-05-02T12:58:31.001Z</time></trkpt><trkpt lat="42.083652833725964" lon="13.543096300414275"><ele>773.0</ele><time>2026-05-02T12:58:32.001Z</time></trkpt><trkpt lat="42.08376827154743" lon="13.543067079599306"><ele>777.0</ele><time>2026-05-02T12:58:33.001Z</time></trkpt><trkpt lat="42.08388911125935" lon="13.54305692275329"><ele>777.0</ele><time>2026-05-02T12:58:34.001Z</time></trkpt><trkpt lat="42.08400924003451" lon="13.543003384585147"><ele>777.0</ele><time>2026-05-02T12:58:35.001Z</time></trkpt><trkpt lat="42.08412101457301" lon="13.542956985301819"><ele>777.0</ele><time>2026-05-02T12:58:36.001Z</time></trkpt><trkpt lat="42.08424044667022" lon="13.54291352955187"><ele>777.0</ele><time>2026-05-02T12:58:37.001Z</time></trkpt><trkpt lat="42.084373569547374" lon="13.54291584774146"><ele>779.25</ele><time>2026-05-02T12:58:38.001Z</time></trkpt><trkpt lat="42.08451472253151" lon="13.542934779677276"><ele>781.5</ele><time>2026-05-02T12:58:39.001Z</time></trkpt><trkpt lat="42.084654596308454" lon="13.542952736719393"><ele>783.75</ele><time>2026-05-02T12:58:40.001Z</time></trkpt><trkpt lat="42.08478542591041" lon="13.54296530848101"><ele>786.0</ele><time>2026-05-02T12:58:41.001Z</time></trkpt><trkpt lat="42.084902027324816" lon="13.542973189467563"><ele>787.8</ele><time>2026-05-02T12:58:42.001Z</time></trkpt><trkpt lat="42.08500684945964" lon="13.54300536890485"><ele>789.5999999999999</ele><time>2026-05-02T12:58:43.001Z</time></trkpt><trkpt lat="42.085109185089415" lon="13.542991372763638"><ele>791.4</ele><time>2026-05-02T12:58:44.001Z</time></trkpt><trkpt lat="42.08520058885141" lon="13.543014355632181"><ele>793.2</ele><time>2026-05-02T12:58:45Z</time></trkpt><trkpt lat="42.08529178305564" lon="13.543053654139527"><ele>795.0</ele><time>2026-05-02T12:58:46Z</time></trkpt><trkpt lat="42.085388794651486" lon="13.543106887063148"><ele>795.0</ele><time>2026-05-02T12:58:47Z</time></trkpt><trkpt lat="42.08548618913311" lon="13.543161885516515"><ele>795.0</ele><time>2026-05-02T12:58:48Z</time></trkpt><trkpt lat="42.085585467754896" lon="13.543216472411423"><ele>795.0</ele><time>2026-05-02T12:58:49Z</time></trkpt><trkpt lat="42.08568828266908" lon="13.543266843273974"><ele>795.0</ele><time>2026-05-02T12:58:50Z</time></trkpt><trkpt lat="42.08579004460285" lon="13.543322276193981"><ele>795.0</ele><time>2026-05-02T12:58:51Z</time></trkpt><trkpt lat="42.08589303527411" lon="13.543373054469054"><ele>794.8</ele><time>2026-05-02T12:58:52Z</time></trkpt><trkpt lat="42.085989443988794" lon="13.543449431633585"><ele>794.6</ele><time>2026-05-02T12:58:53Z</time></trkpt><trkpt lat="42.086097867426304" lon="13.543487900438793"><ele>794.4000000000001</ele><time>2026-05-02T12:58:54Z</time></trkpt><trkpt lat="42.086209463163" lon="13.543515859247195"><ele>794.2</ele><time>2026-05-02T12:58:55Z</time></trkpt><trkpt lat="42.08631802911453" lon="13.54353959227367"><ele>794.0</ele><time>2026-05-02T12:58:56Z</time></trkpt><trkpt lat="42.086429603452125" lon="13.543523083722867"><ele>794.0</ele><time>2026-05-02T12:58:57Z</time></trkpt><trkpt lat="42.086534559108486" lon="13.543551769487259"><ele>794.0</ele><time>2026-05-02T12:58:58Z</time></trkpt><trkpt lat="42.0866388427337" lon="13.543575683364276"><ele>794.0</ele><time>2026-05-02T12:58:59Z</time></trkpt><trkpt lat="42.08674088294218" lon="13.543580724523029"><ele>794.0</ele><time>2026-05-02T12:59:00Z</time></trkpt><trkpt lat="42.08684075823947" lon="13.543569062361064"><ele>794.0</ele><time>2026-05-02T12:59:01Z</time></trkpt><trkpt lat="42.08694084381736" lon="13.543576098093578"><ele>793.6</ele><time>2026-05-02T12:59:02Z</time></trkpt><trkpt lat="42.08703301424274" lon="13.543526050967166"><ele>793.2</ele><time>2026-05-02T12:59:03Z</time></trkpt><trkpt lat="42.08712172061491" lon="13.543446955724711"><ele>792.8000000000001</ele><time>2026-05-02T12:59:04Z</time></trkpt><trkpt lat="42.087211154329296" lon="13.543355093583095"><ele>792.4000000000001</ele><time>2026-05-02T12:59:05Z</time></trkpt><trkpt lat="42.087290644276166" lon="13.543261235938228"><ele>792.0</ele><time>2026-05-02T12:59:06Z</time></trkpt><trkpt lat="42.08734649503141" lon="13.543133045788002"><ele>792.0</ele><time>2026-05-02T12:59:07Z</time></trkpt><trkpt lat="42.087401749329466" lon="13.543032965478975"><ele>792.0</ele><time>2026-05-02T12:59:08Z</time></trkpt><trkpt lat="42.08745130839654" lon="13.542940858713388"><ele>792.0</ele><time>2026-05-02T12:59:09Z</time></trkpt><trkpt lat="42.08749996685295" lon="13.542854197149603"><ele>792.0</ele><time>2026-05-02T12:59:10Z</time></trkpt><trkpt lat="42.087547720896445" lon="13.542756587133958"><ele>792.0</ele><time>2026-05-02T12:59:11Z</time></trkpt><trkpt lat="42.08758661208195" lon="13.542676546661289"><ele>792.0</ele><time>2026-05-02T12:59:12Z</time></trkpt><trkpt lat="42.08765454402941" lon="13.542567374226502"><ele>792.0</ele><time>2026-05-02T12:59:14Z</time></trkpt><trkpt lat="42.08772755562584" lon="13.542545460945304"><ele>792.0</ele><time>2026-05-02T12:59:15Z</time></trkpt><trkpt lat="42.08775959644476" lon="13.542471909412328"><ele>792.0</ele><time>2026-05-02T12:59:16Z</time></trkpt><trkpt lat="42.087809169936705" lon="13.54238515125018"><ele>792.0</ele><time>2026-05-02T12:59:17Z</time></trkpt><trkpt lat="42.08786740119502" lon="13.54227925756807"><ele>792.0</ele><time>2026-05-02T12:59:18Z</time></trkpt><trkpt lat="42.08794619074989" lon="13.542195336902097"><ele>792.0</ele><time>2026-05-02T12:59:19Z</time></trkpt><trkpt lat="42.08804349526831" lon="13.54214240651036"><ele>792.0</ele><time>2026-05-02T12:59:20Z</time></trkpt><trkpt lat="42.088141294877154" lon="13.542082418014925"><ele>792.0</ele><time>2026-05-02T12:59:21Z</time></trkpt><trkpt lat="42.08823961130664" lon="13.54202335299505"><ele>792.0</ele><time>2026-05-02T12:59:22Z</time></trkpt><trkpt lat="42.08833065342433" lon="13.54195075446364"><ele>792.0</ele><time>2026-05-02T12:59:23Z</time></trkpt><trkpt lat="42.08842042319064" lon="13.541899422228266"><ele>792.0</ele><time>2026-05-02T12:59:24Z</time></trkpt><trkpt lat="42.08850084902326" lon="13.541846489441905"><ele>792.6666666666666</ele><time>2026-05-02T12:59:25Z</time></trkpt><trkpt lat="42.08858346511882" lon="13.541812527230606"><ele>793.3333333333333</ele><time>2026-05-02T12:59:26Z</time></trkpt><trkpt lat="42.08864742667099" lon="13.541732946100948"><ele>794.0</ele><time>2026-05-02T12:59:27Z</time></trkpt><trkpt lat="42.08867175203088" lon="13.541623814431478"><ele>794.6666666666666</ele><time>2026-05-02T12:59:28Z</time></trkpt><trkpt lat="42.0886857895107" lon="13.541507975397924"><ele>795.3333333333333</ele><time>2026-05-02T12:59:29Z</time></trkpt><trkpt lat="42.08867363996713" lon="13.541387738680264"><ele>796.0</ele><time>2026-05-02T12:59:30Z</time></trkpt><trkpt lat="42.0886473278324" lon="13.541257670805285"><ele>795.8</ele><time>2026-05-02T12:59:31Z</time></trkpt><trkpt lat="42.08860850076161" lon="13.541124316794086"><ele>795.5999999999999</ele><time>2026-05-02T12:59:32Z</time></trkpt><trkpt lat="42.088555687528924" lon="13.541000162642117"><ele>795.4</ele><time>2026-05-02T12:59:33Z</time></trkpt><trkpt lat="42.088485580536606" lon="13.540886888200928"><ele>795.2</ele><time>2026-05-02T12:59:34Z</time></trkpt><trkpt lat="42.0884151678161" lon="13.54077222756943"><ele>795.0</ele><time>2026-05-02T12:59:35Z</time></trkpt><trkpt lat="42.08835457096313" lon="13.540655579298626"><ele>795.0</ele><time>2026-05-02T12:59:36Z</time></trkpt><trkpt lat="42.088314372649855" lon="13.540522838573787"><ele>795.0</ele><time>2026-05-02T12:59:37Z</time></trkpt><trkpt lat="42.08829850022078" lon="13.5403747741538"><ele>795.0</ele><time>2026-05-02T12:59:38Z</time></trkpt><trkpt lat="42.088296439984" lon="13.540219067629266"><ele>795.0</ele><time>2026-05-02T12:59:39Z</time></trkpt><trkpt lat="42.088292763301844" lon="13.540070133891073"><ele>795.0</ele><time>2026-05-02T12:59:40Z</time></trkpt><trkpt lat="42.08828611754828" lon="13.539915714675328"><ele>794.75</ele><time>2026-05-02T12:59:41Z</time></trkpt><trkpt lat="42.08828857865133" lon="13.539762421643907"><ele>794.5</ele><time>2026-05-02T12:59:42Z</time></trkpt><trkpt lat="42.08830107986464" lon="13.539610914118732"><ele>794.25</ele><time>2026-05-02T12:59:43Z</time></trkpt><trkpt lat="42.08832261205106" lon="13.539461981588861"><ele>794.0</ele><time>2026-05-02T12:59:44Z</time></trkpt><trkpt lat="42.08834220540793" lon="13.539311326264684"><ele>794.0</ele><time>2026-05-02T12:59:45Z</time></trkpt><trkpt lat="42.08835994110925" lon="13.539167981443619"><ele>794.0</ele><time>2026-05-02T12:59:46Z</time></trkpt><trkpt lat="42.088362663890265" lon="13.539038317115889"><ele>794.0</ele><time>2026-05-02T12:59:47Z</time></trkpt><trkpt lat="42.08835583400912" lon="13.538923736219978"><ele>794.0</ele><time>2026-05-02T12:59:48Z</time></trkpt><trkpt lat="42.08834675464163" lon="13.53882568983518"><ele>794.0</ele><time>2026-05-02T12:59:49Z</time></trkpt><trkpt lat="42.08832449563637" lon="13.538688545989531"><ele>794.0000000000001</ele><time>2026-05-02T12:59:51Z</time></trkpt><trkpt lat="42.088362405163444" lon="13.538595234333481"><ele>794.0</ele><time>2026-05-02T12:59:54Z</time></trkpt><trkpt lat="42.08846184862328" lon="13.538593216919272"><ele>794.0</ele><time>2026-05-02T12:59:56Z</time></trkpt><trkpt lat="42.08856280959862" lon="13.53854040224973"><ele>794.0</ele><time>2026-05-02T12:59:58Z</time></trkpt><trkpt lat="42.08863403055368" lon="13.538502131955509"><ele>794.0000000000001</ele><time>2026-05-02T12:59:59Z</time></trkpt><trkpt lat="42.08870574809438" lon="13.538463927280883"><ele>794.0</ele><time>2026-05-02T13:00:00Z</time></trkpt><trkpt lat="42.08877930847373" lon="13.53842088305284"><ele>794.0</ele><time>2026-05-02T13:00:01Z</time></trkpt><trkpt lat="42.0888501394548" lon="13.53837452561787"><ele>794.0</ele><time>2026-05-02T13:00:02Z</time></trkpt><trkpt lat="42.08890870481655" lon="13.538327892341423"><ele>794.0</ele><time>2026-05-02T13:00:03Z</time></trkpt><trkpt lat="42.08895735370334" lon="13.538256046407133"><ele>794.0</ele><time>2026-05-02T13:00:04Z</time></trkpt><trkpt lat="42.08899097301449" lon="13.5381704354375"><ele>794.0</ele><time>2026-05-02T13:00:05Z</time></trkpt><trkpt lat="42.08902532962302" lon="13.5380822226896"><ele>794.0</ele><time>2026-05-02T13:00:06Z</time></trkpt><trkpt lat="42.08906894766942" lon="13.53799152236133"><ele>794.0</ele><time>2026-05-02T13:00:07Z</time></trkpt><trkpt lat="42.08911356509193" lon="13.537898927560363"><ele>795.8000000000001</ele><time>2026-05-02T13:00:08Z</time></trkpt><trkpt lat="42.089164893376726" lon="13.537794475183018"><ele>797.6</ele><time>2026-05-02T13:00:09Z</time></trkpt><trkpt lat="42.0892279571373" lon="13.537683706989052"><ele>799.4</ele><time>2026-05-02T13:00:10Z</time></trkpt><trkpt lat="42.08930413975932" lon="13.537587192068848"><ele>801.2</ele><time>2026-05-02T13:00:11Z</time></trkpt><trkpt lat="42.08937932746792" lon="13.537503410143987"><ele>803.0</ele><time>2026-05-02T13:00:12Z</time></trkpt><trkpt lat="42.089457041965005" lon="13.537418056906569"><ele>803.0</ele><time>2026-05-02T13:00:13Z</time></trkpt><trkpt lat="42.089533957076576" lon="13.537336106790066"><ele>803.0</ele><time>2026-05-02T13:00:14Z</time></trkpt><trkpt lat="42.0896103426336" lon="13.537254734107224"><ele>803.0</ele><time>2026-05-02T13:00:15Z</time></trkpt><trkpt lat="42.08968389500952" lon="13.53717637960277"><ele>803.0</ele><time>2026-05-02T13:00:16Z</time></trkpt><trkpt lat="42.08975616184201" lon="13.53709871946808"><ele>803.0</ele><time>2026-05-02T13:00:17Z</time></trkpt><trkpt lat="42.089809910551764" lon="13.537009033751437"><ele>802.5000000000001</ele><time>2026-05-02T13:00:18Z</time></trkpt><trkpt lat="42.089878146812865" lon="13.536955199000525"><ele>802.0</ele><time>2026-05-02T13:00:19Z</time></trkpt><trkpt lat="42.08993012437967" lon="13.536888659525124"><ele>801.5</ele><time>2026-05-02T13:00:20Z</time></trkpt><trkpt lat="42.08997962414051" lon="13.536822380941068"><ele>801.0</ele><time>2026-05-02T13:00:21Z</time></trkpt><trkpt lat="42.09001439978309" lon="13.536745375410066"><ele>800.5000000000001</ele><time>2026-05-02T13:00:22Z</time></trkpt><trkpt lat="42.09008749340793" lon="13.536647857669127"><ele>800.0</ele><time>2026-05-02T13:00:24Z</time></trkpt><trkpt lat="42.09015635257609" lon="13.536588539206276"><ele>801.6</ele><time>2026-05-02T13:00:26Z</time></trkpt><trkpt lat="42.090234197359614" lon="13.536496022557406"><ele>803.2</ele><time>2026-05-02T13:00:28Z</time></trkpt><trkpt lat="42.09029433337362" lon="13.536428370094931"><ele>804.8</ele><time>2026-05-02T13:00:30Z</time></trkpt><trkpt lat="42.0903123675222" lon="13.5361996687072"><ele>806.4</ele><time>2026-05-02T13:00:32Z</time></trkpt><trkpt lat="42.09029275606826" lon="13.536077746792232"><ele>808.0</ele><time>2026-05-02T13:00:33Z</time></trkpt><trkpt lat="42.090265961826525" lon="13.535943762931005"><ele>808.0</ele><time>2026-05-02T13:00:34Z</time></trkpt><trkpt lat="42.090242512239115" lon="13.535803335940136"><ele>808.0</ele><time>2026-05-02T13:00:35Z</time></trkpt><trkpt lat="42.09022131838158" lon="13.535676417221623"><ele>808.0</ele><time>2026-05-02T13:00:36Z</time></trkpt><trkpt lat="42.090186864587054" lon="13.53556137638044"><ele>808.0</ele><time>2026-05-02T13:00:37Z</time></trkpt><trkpt lat="42.09018706967395" lon="13.535449972052097"><ele>808.0</ele><time>2026-05-02T13:00:38Z</time></trkpt><trkpt lat="42.090194930681" lon="13.535332870321596"><ele>808.0</ele><time>2026-05-02T13:00:39Z</time></trkpt><trkpt lat="42.090209152722494" lon="13.535209595181392"><ele>808.0</ele><time>2026-05-02T13:00:40Z</time></trkpt><trkpt lat="42.09022300196531" lon="13.535122720876759"><ele>808.0</ele><time>2026-05-02T13:00:41Z</time></trkpt><trkpt lat="42.09024543930374" lon="13.534985859122278"><ele>808.0</ele><time>2026-05-02T13:00:43Z</time></trkpt><trkpt lat="42.090261740690664" lon="13.534810385135305"><ele>808.0</ele><time>2026-05-02T13:00:45Z</time></trkpt><trkpt lat="42.090277582521104" lon="13.534706608430913"><ele>808.0</ele><time>2026-05-02T13:00:46Z</time></trkpt><trkpt lat="42.09030936294055" lon="13.534596918035646"><ele>808.0</ele><time>2026-05-02T13:00:47Z</time></trkpt><trkpt lat="42.09034982778575" lon="13.534497466214598"><ele>808.0</ele><time>2026-05-02T13:00:48Z</time></trkpt><trkpt lat="42.090392062683854" lon="13.53440961649566"><ele>808.0</ele><time>2026-05-02T13:00:49Z</time></trkpt><trkpt lat="42.0904582757322" lon="13.534274704472523"><ele>808.0</ele><time>2026-05-02T13:00:51Z</time></trkpt><trkpt lat="42.09053467289856" lon="13.534192612009182"><ele>808.0</ele><time>2026-05-02T13:00:52Z</time></trkpt><trkpt lat="42.09062376147073" lon="13.534045783783766"><ele>808.0</ele><time>2026-05-02T13:00:53Z</time></trkpt><trkpt lat="42.09071168048985" lon="13.533857928730148"><ele>808.0</ele><time>2026-05-02T13:00:54Z</time></trkpt><trkpt lat="42.09081573391774" lon="13.533680925597839"><ele>810.0</ele><time>2026-05-02T13:00:55Z</time></trkpt><trkpt lat="42.09092258040313" lon="13.533469603536117"><ele>812.0</ele><time>2026-05-02T13:00:56Z</time></trkpt><trkpt lat="42.09103714723084" lon="13.533279557898055"><ele>814.0</ele><time>2026-05-02T13:00:57Z</time></trkpt><trkpt lat="42.09111687227498" lon="13.533107184859222"><ele>814.0</ele><time>2026-05-02T13:00:58Z</time></trkpt><trkpt lat="42.09115771527556" lon="13.53295864971908"><ele>814.0</ele><time>2026-05-02T13:00:59Z</time></trkpt><trkpt lat="42.09120554550978" lon="13.532848125901458"><ele>814.0</ele><time>2026-05-02T13:01:00Z</time></trkpt><trkpt lat="42.091287721087596" lon="13.532772679337276"><ele>814.0</ele><time>2026-05-02T13:01:01Z</time></trkpt><trkpt lat="42.09137330379221" lon="13.532671511554218"><ele>814.0</ele><time>2026-05-02T13:01:02Z</time></trkpt><trkpt lat="42.09146175434344" lon="13.532555281873755"><ele>814.25</ele><time>2026-05-02T13:01:03Z</time></trkpt><trkpt lat="42.09155464745215" lon="13.532434133878198"><ele>814.5</ele><time>2026-05-02T13:01:04Z</time></trkpt><trkpt lat="42.0916460212664" lon="13.532308802511066"><ele>814.75</ele><time>2026-05-02T13:01:05Z</time></trkpt><trkpt lat="42.09173278682528" lon="13.532174531388158"><ele>815.0</ele><time>2026-05-02T13:01:06Z</time></trkpt><trkpt lat="42.09180612608233" lon="13.53202745297312"><ele>816.25</ele><time>2026-05-02T13:01:07Z</time></trkpt><trkpt lat="42.09187152824528" lon="13.531876569208254"><ele>817.5</ele><time>2026-05-02T13:01:08Z</time></trkpt><trkpt lat="42.091925809668794" lon="13.531721261947018"><ele>818.75</ele><time>2026-05-02T13:01:09Z</time></trkpt><trkpt lat="42.09197006872395" lon="13.53155632384846"><ele>820.0</ele><time>2026-05-02T13:01:10Z</time></trkpt><trkpt lat="42.092005758717946" lon="13.53138556843384"><ele>819.5</ele><time>2026-05-02T13:01:11Z</time></trkpt><trkpt lat="42.092043580165694" lon="13.53122216190158"><ele>819.0</ele><time>2026-05-02T13:01:12Z</time></trkpt><trkpt lat="42.09208341411917" lon="13.531062118655754"><ele>818.5</ele><time>2026-05-02T13:01:13Z</time></trkpt><trkpt lat="42.09211690194996" lon="13.53089898066707"><ele>818.0</ele><time>2026-05-02T13:01:14Z</time></trkpt><trkpt lat="42.09215750019929" lon="13.530742903023706"><ele>818.0</ele><time>2026-05-02T13:01:15Z</time></trkpt><trkpt lat="42.09220330141767" lon="13.530596533044681"><ele>818.0</ele><time>2026-05-02T13:01:16Z</time></trkpt><trkpt lat="42.09224767253075" lon="13.530460617526696"><ele>818.0</ele><time>2026-05-02T13:01:17Z</time></trkpt><trkpt lat="42.09228736881099" lon="13.530329841887824"><ele>818.0</ele><time>2026-05-02T13:01:18Z</time></trkpt><trkpt lat="42.09234605647641" lon="13.530210152019473"><ele>818.0</ele><time>2026-05-02T13:01:19Z</time></trkpt><trkpt lat="42.092379918755974" lon="13.530069862194567"><ele>819.75</ele><time>2026-05-02T13:01:20Z</time></trkpt><trkpt lat="42.09244218045905" lon="13.529924765086765"><ele>821.5</ele><time>2026-05-02T13:01:21Z</time></trkpt><trkpt lat="42.092521743758915" lon="13.52977591888523"><ele>823.25</ele><time>2026-05-02T13:01:22Z</time></trkpt><trkpt lat="42.09259026578936" lon="13.529611781777902"><ele>825.0</ele><time>2026-05-02T13:01:23Z</time></trkpt><trkpt lat="42.0926402192087" lon="13.529440335114971"><ele>825.0</ele><time>2026-05-02T13:01:24Z</time></trkpt><trkpt lat="42.092699703162026" lon="13.529289462420422"><ele>825.0</ele><time>2026-05-02T13:01:25Z</time></trkpt><trkpt lat="42.09275609853844" lon="13.529146741494765"><ele>825.0</ele><time>2026-05-02T13:01:26Z</time></trkpt><trkpt lat="42.09281236360244" lon="13.529005185003752"><ele>825.0</ele><time>2026-05-02T13:01:27Z</time></trkpt><trkpt lat="42.09284326672242" lon="13.528861167916052"><ele>825.0</ele><time>2026-05-02T13:01:28Z</time></trkpt><trkpt lat="42.09288928278183" lon="13.528726475335631"><ele>825.0</ele><time>2026-05-02T13:01:29Z</time></trkpt><trkpt lat="42.09294078987182" lon="13.528599150172168"><ele>825.0</ele><time>2026-05-02T13:01:30Z</time></trkpt><trkpt lat="42.09298859230688" lon="13.52847910203369"><ele>825.0</ele><time>2026-05-02T13:01:31Z</time></trkpt><trkpt lat="42.09302707481914" lon="13.528376534353727"><ele>825.0</ele><time>2026-05-02T13:01:32Z</time></trkpt><trkpt lat="42.09306480583235" lon="13.528289038608714"><ele>825.5</ele><time>2026-05-02T13:01:33Z</time></trkpt><trkpt lat="42.09312347114731" lon="13.528225137315689"><ele>826.0</ele><time>2026-05-02T13:01:34Z</time></trkpt><trkpt lat="42.09318189905099" lon="13.528147332824846"><ele>826.5</ele><time>2026-05-02T13:01:35Z</time></trkpt><trkpt lat="42.093232693870824" lon="13.528056025701197"><ele>827.0</ele><time>2026-05-02T13:01:36Z</time></trkpt><trkpt lat="42.093307484840544" lon="13.527999478308804"><ele>827.5</ele><time>2026-05-02T13:01:37Z</time></trkpt><trkpt lat="42.093359094402636" lon="13.527919195467422"><ele>828.0</ele><time>2026-05-02T13:01:38Z</time></trkpt><trkpt lat="42.09343443749333" lon="13.527869773935132"><ele>828.0</ele><time>2026-05-02T13:01:39Z</time></trkpt><trkpt lat="42.093500455013654" lon="13.527805605322788"><ele>828.0</ele><time>2026-05-02T13:01:40Z</time></trkpt><trkpt lat="42.0935965765343" lon="13.527718250473654"><ele>828.0</ele><time>2026-05-02T13:01:42Z</time></trkpt><trkpt lat="42.09369991959629" lon="13.527631353218567"><ele>828.0</ele><time>2026-05-02T13:01:44Z</time></trkpt><trkpt lat="42.09380463871945" lon="13.527565054719508"><ele>828.0</ele><time>2026-05-02T13:01:46Z</time></trkpt><trkpt lat="42.09387317184886" lon="13.52750915551355"><ele>828.0</ele><time>2026-05-02T13:01:48Z</time></trkpt><trkpt lat="42.093867132532964" lon="13.527264451237905"><ele>828.0</ele><time>2026-05-02T13:01:51Z</time></trkpt><trkpt lat="42.093876822407246" lon="13.5271634139071"><ele>828.0</ele><time>2026-05-02T13:01:52Z</time></trkpt><trkpt lat="42.09388460257566" lon="13.52705896448674"><ele>828.0</ele><time>2026-05-02T13:01:53Z</time></trkpt><trkpt lat="42.093908235133455" lon="13.526976323755258"><ele>828.0</ele><time>2026-05-02T13:01:54Z</time></trkpt><trkpt lat="42.09392694531744" lon="13.52681928473828"><ele>827.7142857142858</ele><time>2026-05-02T13:01:56Z</time></trkpt><trkpt lat="42.093941475745886" lon="13.526735781526837"><ele>827.4285714285714</ele><time>2026-05-02T13:01:57Z</time></trkpt><trkpt lat="42.09396070831727" lon="13.526639553705241"><ele>827.1428571428571</ele><time>2026-05-02T13:01:58Z</time></trkpt><trkpt lat="42.0939711815416" lon="13.526532007637647"><ele>826.8571428571429</ele><time>2026-05-02T13:01:59Z</time></trkpt><trkpt lat="42.093990443862936" lon="13.526426746521896"><ele>826.5714285714286</ele><time>2026-05-02T13:02:00Z</time></trkpt><trkpt lat="42.0940086241028" lon="13.526327512342373"><ele>826.2857142857143</ele><time>2026-05-02T13:02:01Z</time></trkpt><trkpt lat="42.094035282909296" lon="13.52623429027239"><ele>826.0</ele><time>2026-05-02T13:02:02Z</time></trkpt><trkpt lat="42.094030524503644" lon="13.526127390441847"><ele>826.8333333333333</ele><time>2026-05-02T13:02:03Z</time></trkpt><trkpt lat="42.09404145727354" lon="13.526037229547976"><ele>827.6666666666666</ele><time>2026-05-02T13:02:04Z</time></trkpt><trkpt lat="42.09411338372173" lon="13.525916800281887"><ele>828.5</ele><time>2026-05-02T13:02:06Z</time></trkpt><trkpt lat="42.09415986894986" lon="13.525851419393035"><ele>829.3333333333333</ele><time>2026-05-02T13:02:07Z</time></trkpt><trkpt lat="42.09418885721882" lon="13.525774208300488"><ele>830.1666666666666</ele><time>2026-05-02T13:02:08Z</time></trkpt><trkpt lat="42.0942099170104" lon="13.525678648842812"><ele>831.0</ele><time>2026-05-02T13:02:09Z</time></trkpt><trkpt lat="42.09421410519731" lon="13.525591389873266"><ele>831.0</ele><time>2026-05-02T13:02:10Z</time></trkpt><trkpt lat="42.09421085848876" lon="13.525480896230412"><ele>831.0</ele><time>2026-05-02T13:02:12Z</time></trkpt><trkpt lat="42.094214475490915" lon="13.52534170996683"><ele>831.0</ele><time>2026-05-02T13:02:14Z</time></trkpt><trkpt lat="42.09424307582304" lon="13.52526493683378"><ele>831.0</ele><time>2026-05-02T13:02:15Z</time></trkpt><trkpt lat="42.09430326171986" lon="13.525208676441629"><ele>831.0</ele><time>2026-05-02T13:02:16Z</time></trkpt><trkpt lat="42.09435339345259" lon="13.525144304362986"><ele>831.0</ele><time>2026-05-02T13:02:17Z</time></trkpt><trkpt lat="42.09441328966238" lon="13.52507169389525"><ele>828.1999999999999</ele><time>2026-05-02T13:02:18Z</time></trkpt><trkpt lat="42.09447353821453" lon="13.524999940609243"><ele>825.4</ele><time>2026-05-02T13:02:19Z</time></trkpt><trkpt lat="42.09452930215404" lon="13.52493352846125"><ele>822.6</ele><time>2026-05-02T13:02:20Z</time></trkpt><trkpt lat="42.094582320810396" lon="13.524876949448345"><ele>819.8</ele><time>2026-05-02T13:02:21Z</time></trkpt><trkpt lat="42.09467811505203" lon="13.524780931639139"><ele>817.0</ele><time>2026-05-02T13:02:23Z</time></trkpt><trkpt lat="42.09476080659383" lon="13.524680535068946"><ele>817.0</ele><time>2026-05-02T13:02:25Z</time></trkpt><trkpt lat="42.094841740435804" lon="13.524595319804977"><ele>817.0</ele><time>2026-05-02T13:02:27Z</time></trkpt><trkpt lat="42.09491318657042" lon="13.524517987966833"><ele>817.0</ele><time>2026-05-02T13:02:29Z</time></trkpt><trkpt lat="42.09500065261118" lon="13.524450892994077"><ele>817.0</ele><time>2026-05-02T13:02:31Z</time></trkpt><trkpt lat="42.09509256913875" lon="13.524359559984177"><ele>817.0</ele><time>2026-05-02T13:02:32.999Z</time></trkpt><trkpt lat="42.09515727242904" lon="13.524312628674386"><ele>817.6666666666666</ele><time>2026-05-02T13:02:33.999Z</time></trkpt><trkpt lat="42.095218335604734" lon="13.524265456913124"><ele>818.3333333333333</ele><time>2026-05-02T13:02:35Z</time></trkpt><trkpt lat="42.09527473023263" lon="13.524204718929846"><ele>819.0</ele><time>2026-05-02T13:02:36Z</time></trkpt><trkpt lat="42.09533798859746" lon="13.524143570819938"><ele>819.6666666666667</ele><time>2026-05-02T13:02:37Z</time></trkpt><trkpt lat="42.095400260279355" lon="13.52408058950549"><ele>820.3333333333334</ele><time>2026-05-02T13:02:38Z</time></trkpt><trkpt lat="42.095477868493816" lon="13.524024726803322"><ele>821.0</ele><time>2026-05-02T13:02:39Z</time></trkpt><trkpt lat="42.095548931220165" lon="13.523954010742248"><ele>821.0000000000001</ele><time>2026-05-02T13:02:40Z</time></trkpt><trkpt lat="42.09561072902713" lon="13.523895335063067"><ele>821.0</ele><time>2026-05-02T13:02:41Z</time></trkpt><trkpt lat="42.09567763383409" lon="13.523788668285478"><ele>821.0</ele><time>2026-05-02T13:02:43Z</time></trkpt><trkpt lat="42.09574801706567" lon="13.523658489051527"><ele>821.0</ele><time>2026-05-02T13:02:45Z</time></trkpt><trkpt lat="42.0957622099636" lon="13.523564008758354"><ele>821.0000000000001</ele><time>2026-05-02T13:02:46Z</time></trkpt><trkpt lat="42.095782175945516" lon="13.523483095613974"><ele>821.0</ele><time>2026-05-02T13:02:47Z</time></trkpt><trkpt lat="42.0958040698576" lon="13.523401892492478"><ele>822.5999999999999</ele><time>2026-05-02T13:02:48Z</time></trkpt><trkpt lat="42.09583213973716" lon="13.523250983638718"><ele>824.2</ele><time>2026-05-02T13:02:50Z</time></trkpt><trkpt lat="42.09589312666046" lon="13.523133890731556"><ele>825.8</ele><time>2026-05-02T13:02:52Z</time></trkpt><trkpt lat="42.09595166027316" lon="13.522973764167126"><ele>827.4000000000001</ele><time>2026-05-02T13:02:54Z</time></trkpt><trkpt lat="42.095987280231746" lon="13.522871095916175"><ele>829.0</ele><time>2026-05-02T13:02:55Z</time></trkpt><trkpt lat="42.09601739240485" lon="13.522785230144128"><ele>829.8000000000001</ele><time>2026-05-02T13:02:56Z</time></trkpt><trkpt lat="42.09607305272157" lon="13.522665730636163"><ele>830.6</ele><time>2026-05-02T13:02:58Z</time></trkpt><trkpt lat="42.096116323871584" lon="13.522556203384983"><ele>831.4</ele><time>2026-05-02T13:03:00Z</time></trkpt><trkpt lat="42.09614229889125" lon="13.522418439737928"><ele>832.2</ele><time>2026-05-02T13:03:02Z</time></trkpt><trkpt lat="42.09618479472099" lon="13.522290600645377"><ele>833.0</ele><time>2026-05-02T13:03:04Z</time></trkpt><trkpt lat="42.09621470551269" lon="13.522142658860245"><ele>833.4</ele><time>2026-05-02T13:03:06Z</time></trkpt><trkpt lat="42.096231269275485" lon="13.522060733435932"><ele>833.8</ele><time>2026-05-02T13:03:07Z</time></trkpt><trkpt lat="42.09621810137547" lon="13.521938473229092"><ele>834.2</ele><time>2026-05-02T13:03:08Z</time></trkpt><trkpt lat="42.09636912477757" lon="13.521929579315344"><ele>834.6</ele><time>2026-05-02T13:03:09Z</time></trkpt><trkpt lat="42.09642167463143" lon="13.521870708804379"><ele>835.0</ele><time>2026-05-02T13:03:11Z</time></trkpt><trkpt lat="42.09654948222929" lon="13.521843575719869"><ele>834.9999999999999</ele><time>2026-05-02T13:03:14Z</time></trkpt><trkpt lat="42.096640594565145" lon="13.521822739518962"><ele>835.0</ele><time>2026-05-02T13:03:16Z</time></trkpt><trkpt lat="42.09672906612519" lon="13.521816418938323"><ele>835.0</ele><time>2026-05-02T13:03:18Z</time></trkpt><trkpt lat="42.096666850274865" lon="13.521833049812841"><ele>835.0</ele><time>2026-05-02T13:03:51Z</time></trkpt><trkpt lat="42.09659625257145" lon="13.521834163925504"><ele>834.9999999999999</ele><time>2026-05-02T13:03:55Z</time></trkpt><trkpt lat="42.096506787545955" lon="13.521857696542986"><ele>835.0</ele><time>2026-05-02T13:03:57Z</time></trkpt><trkpt lat="42.09640942891433" lon="13.52186678375438"><ele>834.9999999999999</ele><time>2026-05-02T13:03:59Z</time></trkpt><trkpt lat="42.09634129444796" lon="13.521848945715227"><ele>835.0</ele><time>2026-05-02T13:04:02Z</time></trkpt><trkpt lat="42.09627703811274" lon="13.521811051103315"><ele>835.0</ele><time>2026-05-02T13:04:06Z</time></trkpt><trkpt lat="42.09627341933853" lon="13.521700207093108"><ele>835.0</ele><time>2026-05-02T13:04:09Z</time></trkpt><trkpt lat="42.096323413024685" lon="13.521600310837355"><ele>834.9999999999999</ele><time>2026-05-02T13:04:11Z</time></trkpt><trkpt lat="42.09635771893868" lon="13.521481727682515"><ele>835.0</ele><time>2026-05-02T13:04:13Z</time></trkpt><trkpt lat="42.09636952747581" lon="13.521344452909938"><ele>835.0</ele><time>2026-05-02T13:04:15Z</time></trkpt><trkpt lat="42.09637558626838" lon="13.521257630657512"><ele>835.0</ele><time>2026-05-02T13:04:17Z</time></trkpt><trkpt lat="42.09640104434516" lon="13.521157409019844"><ele>835.0</ele><time>2026-05-02T13:04:19Z</time></trkpt><trkpt lat="42.09646315112954" lon="13.521030547499127"><ele>835.0</ele><time>2026-05-02T13:04:22Z</time></trkpt><trkpt lat="42.09652902443248" lon="13.520924000595363"><ele>835.0</ele><time>2026-05-02T13:04:24Z</time></trkpt><trkpt lat="42.09661574504765" lon="13.520816218335279"><ele>836.1666666666666</ele><time>2026-05-02T13:04:26Z</time></trkpt><trkpt lat="42.09666548443006" lon="13.520740727196054"><ele>837.3333333333333</ele><time>2026-05-02T13:04:27Z</time></trkpt><trkpt lat="42.09670756533489" lon="13.520663798411107"><ele>838.5</ele><time>2026-05-02T13:04:28Z</time></trkpt><trkpt lat="42.0967514370426" lon="13.52059313367529"><ele>839.6666666666667</ele><time>2026-05-02T13:04:29Z</time></trkpt><trkpt lat="42.096793803230604" lon="13.520529505353558"><ele>840.8333333333334</ele><time>2026-05-02T13:04:30Z</time></trkpt><trkpt lat="42.096864366417485" lon="13.520408707750738"><ele>842.0</ele><time>2026-05-02T13:04:32Z</time></trkpt><trkpt lat="42.09694801580018" lon="13.520284815773547"><ele>842.0</ele><time>2026-05-02T13:04:34Z</time></trkpt><trkpt lat="42.09702038175119" lon="13.520209830825845"><ele>842.0</ele><time>2026-05-02T13:04:36Z</time></trkpt><trkpt lat="42.09714169251791" lon="13.520136031252312"><ele>842.0</ele><time>2026-05-02T13:04:37.999Z</time></trkpt><trkpt lat="42.097255886997296" lon="13.520083471732406"><ele>842.0</ele><time>2026-05-02T13:04:39.999Z</time></trkpt><trkpt lat="42.097355576595874" lon="13.520050043568215"><ele>842.0</ele><time>2026-05-02T13:04:41.999Z</time></trkpt><trkpt lat="42.09741170709091" lon="13.519998053261281"><ele>842.0</ele><time>2026-05-02T13:04:43.999Z</time></trkpt><trkpt lat="42.09740718305457" lon="13.519897651257368"><ele>842.0</ele><time>2026-05-02T13:04:46.999Z</time></trkpt><trkpt lat="42.09735244751711" lon="13.51976805056778"><ele>842.0</ele><time>2026-05-02T13:04:48.999Z</time></trkpt><trkpt lat="42.09730069796126" lon="13.519620169296703"><ele>842.0</ele><time>2026-05-02T13:04:50.999Z</time></trkpt><trkpt lat="42.097302516272315" lon="13.519475814314863"><ele>842.0</ele><time>2026-05-02T13:04:52.999Z</time></trkpt><trkpt lat="42.097291356210725" lon="13.519335725857804"><ele>844.6</ele><time>2026-05-02T13:04:54.999Z</time></trkpt><trkpt lat="42.09721253551302" lon="13.519210938425019"><ele>847.2</ele><time>2026-05-02T13:04:56.999Z</time></trkpt><trkpt lat="42.097166977414304" lon="13.519144240680252"><ele>849.8</ele><time>2026-05-02T13:04:57.999Z</time></trkpt><trkpt lat="42.09715432093427" lon="13.518995736367419"><ele>852.4</ele><time>2026-05-02T13:04:59.999Z</time></trkpt><trkpt lat="42.097196496698274" lon="13.518850107109524"><ele>855.0</ele><time>2026-05-02T13:05:01.999Z</time></trkpt><trkpt lat="42.09723164641965" lon="13.518743108725904"><ele>857.8</ele><time>2026-05-02T13:05:02.999Z</time></trkpt><trkpt lat="42.097275941409606" lon="13.518603012281455"><ele>860.6</ele><time>2026-05-02T13:05:03.999Z</time></trkpt><trkpt lat="42.09731311115735" lon="13.51846640102938"><ele>863.4000000000001</ele><time>2026-05-02T13:05:04.999Z</time></trkpt><trkpt lat="42.09735669537938" lon="13.518326408695328"><ele>866.2</ele><time>2026-05-02T13:05:05.999Z</time></trkpt><trkpt lat="42.09740367912852" lon="13.518213424721704"><ele>869.0</ele><time>2026-05-02T13:05:06.999Z</time></trkpt><trkpt lat="42.09745160874765" lon="13.518099415578424"><ele>870.4000000000001</ele><time>2026-05-02T13:05:07.999Z</time></trkpt><trkpt lat="42.097495396688046" lon="13.518004393508903"><ele>871.8000000000001</ele><time>2026-05-02T13:05:08.999Z</time></trkpt><trkpt lat="42.0975478512617" lon="13.517899812221502"><ele>873.1999999999999</ele><time>2026-05-02T13:05:09.999Z</time></trkpt><trkpt lat="42.0976058295933" lon="13.517786876641702"><ele>874.5999999999999</ele><time>2026-05-02T13:05:10.999Z</time></trkpt><trkpt lat="42.09766456118137" lon="13.517668020504562"><ele>876.0</ele><time>2026-05-02T13:05:11.999Z</time></trkpt><trkpt lat="42.09771849274046" lon="13.517563209765255"><ele>876.0</ele><time>2026-05-02T13:05:12.999Z</time></trkpt><trkpt lat="42.09776479302552" lon="13.517470189315578"><ele>875.9999999999999</ele><time>2026-05-02T13:05:14Z</time></trkpt><trkpt lat="42.097820601562525" lon="13.51736363152406"><ele>875.9999999999999</ele><time>2026-05-02T13:05:15Z</time></trkpt><trkpt lat="42.09785781438657" lon="13.51726834882803"><ele>876.0</ele><time>2026-05-02T13:05:16Z</time></trkpt><trkpt lat="42.097892960472585" lon="13.517165262512233"><ele>876.0</ele><time>2026-05-02T13:05:17Z</time></trkpt><trkpt lat="42.097924820315676" lon="13.5170148981985"><ele>876.0</ele><time>2026-05-02T13:05:19Z</time></trkpt><trkpt lat="42.097961771287494" lon="13.516879767790709"><ele>876.0</ele><time>2026-05-02T13:05:21Z</time></trkpt><trkpt lat="42.09797662264472" lon="13.516794591700695"><ele>876.0</ele><time>2026-05-02T13:05:22Z</time></trkpt><trkpt lat="42.09798749700656" lon="13.516698125524266"><ele>876.0</ele><time>2026-05-02T13:05:23Z</time></trkpt><trkpt lat="42.09800482353701" lon="13.516604989681076"><ele>876.0</ele><time>2026-05-02T13:05:24Z</time></trkpt><trkpt lat="42.09802540521881" lon="13.516510534586129"><ele>876.0</ele><time>2026-05-02T13:05:25Z</time></trkpt><trkpt lat="42.09805546646865" lon="13.516405915488733"><ele>876.0</ele><time>2026-05-02T13:05:26Z</time></trkpt><trkpt lat="42.098074947026454" lon="13.516305338437261"><ele>876.0</ele><time>2026-05-02T13:05:27Z</time></trkpt><trkpt lat="42.09809319173022" lon="13.516209172718971"><ele>876.0</ele><time>2026-05-02T13:05:28Z</time></trkpt><trkpt lat="42.09811475146423" lon="13.516107323467995"><ele>876.0</ele><time>2026-05-02T13:05:29Z</time></trkpt><trkpt lat="42.09814064509761" lon="13.51601339840515"><ele>876.0</ele><time>2026-05-02T13:05:30Z</time></trkpt><trkpt lat="42.098198963704725" lon="13.515860071436144"><ele>876.0</ele><time>2026-05-02T13:05:32Z</time></trkpt><trkpt lat="42.09824530054856" lon="13.51579242603941"><ele>880.0</ele><time>2026-05-02T13:05:33Z</time></trkpt><trkpt lat="42.09829646969264" lon="13.51573118001476"><ele>884.0</ele><time>2026-05-02T13:05:34Z</time></trkpt><trkpt lat="42.09834364763295" lon="13.51566517929818"><ele>888.0</ele><time>2026-05-02T13:05:35Z</time></trkpt><trkpt lat="42.098396998854604" lon="13.515590274904783"><ele>892.0</ele><time>2026-05-02T13:05:36Z</time></trkpt><trkpt lat="42.09844028350771" lon="13.515513386325418"><ele>896.0</ele><time>2026-05-02T13:05:37Z</time></trkpt><trkpt lat="42.098477626595255" lon="13.51543362002894"><ele>900.0</ele><time>2026-05-02T13:05:38Z</time></trkpt><trkpt lat="42.098541846543284" lon="13.51529361173658"><ele>900.8333333333334</ele><time>2026-05-02T13:05:40Z</time></trkpt><trkpt lat="42.098598659678906" lon="13.515184209043237"><ele>901.6666666666667</ele><time>2026-05-02T13:05:42Z</time></trkpt><trkpt lat="42.09864375826279" lon="13.51509040574158"><ele>902.5</ele><time>2026-05-02T13:05:44Z</time></trkpt><trkpt lat="42.098716077048664" lon="13.514986126526578"><ele>903.3333333333334</ele><time>2026-05-02T13:05:46Z</time></trkpt><trkpt lat="42.098753330241074" lon="13.514911492345497"><ele>904.1666666666667</ele><time>2026-05-02T13:05:47Z</time></trkpt><trkpt lat="42.09879488529428" lon="13.514818407621794"><ele>905.0</ele><time>2026-05-02T13:05:48Z</time></trkpt><trkpt lat="42.09883909132415" lon="13.514726563149706"><ele>905.0000000000001</ele><time>2026-05-02T13:05:49Z</time></trkpt><trkpt lat="42.09888130849799" lon="13.5146303148736"><ele>905.0</ele><time>2026-05-02T13:05:50Z</time></trkpt><trkpt lat="42.09891184884205" lon="13.514542047389842"><ele>905.0</ele><time>2026-05-02T13:05:51Z</time></trkpt><trkpt lat="42.09894123453278" lon="13.514451569957327"><ele>905.0</ele><time>2026-05-02T13:05:52Z</time></trkpt><trkpt lat="42.09895622229327" lon="13.514328597510806"><ele>905.0000000000001</ele><time>2026-05-02T13:05:54Z</time></trkpt><trkpt lat="42.098884455061196" lon="13.514213863563866"><ele>905.0</ele><time>2026-05-02T13:05:57Z</time></trkpt><trkpt lat="42.0988225721258" lon="13.514134431488781"><ele>906.0</ele><time>2026-05-02T13:05:58Z</time></trkpt><trkpt lat="42.098770730362034" lon="13.514030028416977"><ele>907.0</ele><time>2026-05-02T13:05:59Z</time></trkpt><trkpt lat="42.09873500209557" lon="13.513908912566711"><ele>908.0</ele><time>2026-05-02T13:06:00Z</time></trkpt><trkpt lat="42.0986939798979" lon="13.5137755267837"><ele>909.0</ele><time>2026-05-02T13:06:01Z</time></trkpt><trkpt lat="42.09864892993281" lon="13.51364174779419"><ele>910.0</ele><time>2026-05-02T13:06:02Z</time></trkpt><trkpt lat="42.09861003117806" lon="13.513529048034457"><ele>911.8333333333333</ele><time>2026-05-02T13:06:03Z</time></trkpt><trkpt lat="42.09858439802881" lon="13.513434562223216"><ele>913.6666666666666</ele><time>2026-05-02T13:06:04Z</time></trkpt><trkpt lat="42.09856272737213" lon="13.513348419553957"><ele>915.5</ele><time>2026-05-02T13:06:05Z</time></trkpt><trkpt lat="42.098540268462564" lon="13.513180476986483"><ele>917.3333333333333</ele><time>2026-05-02T13:06:07Z</time></trkpt><trkpt lat="42.098549642279984" lon="13.513087462825693"><ele>919.1666666666666</ele><time>2026-05-02T13:06:08Z</time></trkpt><trkpt lat="42.098544338320764" lon="13.512989675680686"><ele>921.0</ele><time>2026-05-02T13:06:09Z</time></trkpt><trkpt lat="42.098519718266395" lon="13.512887869628212"><ele>921.5714285714287</ele><time>2026-05-02T13:06:10Z</time></trkpt><trkpt lat="42.09848872586411" lon="13.512798601468843"><ele>922.1428571428571</ele><time>2026-05-02T13:06:11Z</time></trkpt><trkpt lat="42.09845549370415" lon="13.512719578001171"><ele>922.7142857142858</ele><time>2026-05-02T13:06:12Z</time></trkpt><trkpt lat="42.0984264494436" lon="13.512634404942455"><ele>923.2857142857143</ele><time>2026-05-02T13:06:13Z</time></trkpt><trkpt lat="42.09841180589358" lon="13.512544262257416"><ele>923.8571428571429</ele><time>2026-05-02T13:06:14Z</time></trkpt><trkpt lat="42.098406668586186" lon="13.512449935025622"><ele>924.4285714285714</ele><time>2026-05-02T13:06:15Z</time></trkpt><trkpt lat="42.098405258336854" lon="13.512338801784553"><ele>925.0</ele><time>2026-05-02T13:06:16Z</time></trkpt><trkpt lat="42.09840153124288" lon="13.512216114081282"><ele>924.9999999999999</ele><time>2026-05-02T13:06:17Z</time></trkpt><trkpt lat="42.098389947846464" lon="13.512096100933944"><ele>925.0</ele><time>2026-05-02T13:06:18Z</time></trkpt><trkpt lat="42.09838592010276" lon="13.511979325209017"><ele>925.0</ele><time>2026-05-02T13:06:19Z</time></trkpt><trkpt lat="42.0984000382457" lon="13.511864398796519"><ele>925.0</ele><time>2026-05-02T13:06:20Z</time></trkpt><trkpt lat="42.098419926983" lon="13.51175023692278"><ele>924.9999999999999</ele><time>2026-05-02T13:06:21Z</time></trkpt><trkpt lat="42.098436812917896" lon="13.51163302430196"><ele>925.0</ele><time>2026-05-02T13:06:22Z</time></trkpt><trkpt lat="42.09844455715327" lon="13.511525552600393"><ele>925.6666666666666</ele><time>2026-05-02T13:06:23Z</time></trkpt><trkpt lat="42.098440005683315" lon="13.511424538328898"><ele>926.3333333333333</ele><time>2026-05-02T13:06:24Z</time></trkpt><trkpt lat="42.098420635860364" lon="13.511338391893508"><ele>927.0</ele><time>2026-05-02T13:06:25Z</time></trkpt><trkpt lat="42.09839080145693" lon="13.511253346384885"><ele>927.6666666666667</ele><time>2026-05-02T13:06:26Z</time></trkpt><trkpt lat="42.098348677963386" lon="13.511168331167607"><ele>928.3333333333334</ele><time>2026-05-02T13:06:27Z</time></trkpt><trkpt lat="42.09828976108134" lon="13.511079765977705"><ele>929.0</ele><time>2026-05-02T13:06:28Z</time></trkpt><trkpt lat="42.098231140074965" lon="13.510995430738578"><ele>926.1666666666667</ele><time>2026-05-02T13:06:29Z</time></trkpt><trkpt lat="42.098183144623405" lon="13.510924702978542"><ele>923.3333333333334</ele><time>2026-05-02T13:06:30Z</time></trkpt><trkpt lat="42.098138021629126" lon="13.510845149782863"><ele>920.5</ele><time>2026-05-02T13:06:31Z</time></trkpt><trkpt lat="42.098106807359294" lon="13.510753058314716"><ele>917.6666666666667</ele><time>2026-05-02T13:06:32Z</time></trkpt><trkpt lat="42.098078155227675" lon="13.510652497579365"><ele>914.8333333333334</ele><time>2026-05-02T13:06:33Z</time></trkpt><trkpt lat="42.098051840625715" lon="13.510544171023016"><ele>912.0</ele><time>2026-05-02T13:06:34Z</time></trkpt><trkpt lat="42.09803348544999" lon="13.510419626666184"><ele>912.0</ele><time>2026-05-02T13:06:35Z</time></trkpt><trkpt lat="42.097986926414805" lon="13.510311736529559"><ele>912.0</ele><time>2026-05-02T13:06:36Z</time></trkpt><trkpt lat="42.097936659006166" lon="13.510209184275663"><ele>912.0</ele><time>2026-05-02T13:06:37Z</time></trkpt><trkpt lat="42.09787414453612" lon="13.510124256912125"><ele>912.0</ele><time>2026-05-02T13:06:38Z</time></trkpt><trkpt lat="42.09782749088958" lon="13.510029488860331"><ele>912.0</ele><time>2026-05-02T13:06:39Z</time></trkpt><trkpt lat="42.097786207388786" lon="13.509946756532479"><ele>912.0</ele><time>2026-05-02T13:06:40Z</time></trkpt><trkpt lat="42.09776682232334" lon="13.509864185705464"><ele>912.0</ele><time>2026-05-02T13:06:41Z</time></trkpt><trkpt lat="42.09772214113023" lon="13.509744740779615"><ele>912.0</ele><time>2026-05-02T13:06:43Z</time></trkpt><trkpt lat="42.09768657427489" lon="13.509632672674618"><ele>912.0</ele><time>2026-05-02T13:06:44.999Z</time></trkpt><trkpt lat="42.09762907415948" lon="13.50952216471896"><ele>912.0</ele><time>2026-05-02T13:06:46.999Z</time></trkpt><trkpt lat="42.097605696529065" lon="13.509412079455906"><ele>912.0</ele><time>2026-05-02T13:06:48.999Z</time></trkpt><trkpt lat="42.097629155088846" lon="13.50929265648537"><ele>912.0</ele><time>2026-05-02T13:06:50.999Z</time></trkpt><trkpt lat="42.097658614867015" lon="13.509208341451348"><ele>912.0</ele><time>2026-05-02T13:06:51.999Z</time></trkpt><trkpt lat="42.09768642558451" lon="13.509106259957184"><ele>912.0</ele><time>2026-05-02T13:06:52.999Z</time></trkpt><trkpt lat="42.0977183543859" lon="13.508981124776454"><ele>912.0</ele><time>2026-05-02T13:06:53.999Z</time></trkpt><trkpt lat="42.0977458558096" lon="13.50884903623476"><ele>912.0</ele><time>2026-05-02T13:06:54.999Z</time></trkpt><trkpt lat="42.09776911899576" lon="13.508710023382983"><ele>912.0</ele><time>2026-05-02T13:06:55.999Z</time></trkpt><trkpt lat="42.09780566631045" lon="13.508572548509015"><ele>912.0</ele><time>2026-05-02T13:06:56.999Z</time></trkpt><trkpt lat="42.09781775814334" lon="13.50842971105921"><ele>912.0</ele><time>2026-05-02T13:06:57.999Z</time></trkpt><trkpt lat="42.097821893552016" lon="13.508293249512093"><ele>912.0</ele><time>2026-05-02T13:06:58.999Z</time></trkpt><trkpt lat="42.09782386976375" lon="13.508169604185069"><ele>912.0</ele><time>2026-05-02T13:06:59.999Z</time></trkpt><trkpt lat="42.097817534198924" lon="13.508049295952924"><ele>912.0</ele><time>2026-05-02T13:07:00.999Z</time></trkpt><trkpt lat="42.097841725562965" lon="13.507929100713227"><ele>912.0</ele><time>2026-05-02T13:07:01.999Z</time></trkpt><trkpt lat="42.09786935408436" lon="13.507798405477669"><ele>912.0</ele><time>2026-05-02T13:07:02.999Z</time></trkpt><trkpt lat="42.09789191170294" lon="13.507674018278928"><ele>912.0</ele><time>2026-05-02T13:07:03.999Z</time></trkpt><trkpt lat="42.097912796675764" lon="13.507555518014074"><ele>912.0</ele><time>2026-05-02T13:07:04.999Z</time></trkpt><trkpt lat="42.097949775499664" lon="13.507466002646918"><ele>912.1666666666666</ele><time>2026-05-02T13:07:05.999Z</time></trkpt><trkpt lat="42.097983698790486" lon="13.50738212505931"><ele>912.3333333333333</ele><time>2026-05-02T13:07:06.999Z</time></trkpt><trkpt lat="42.098027321555975" lon="13.507316948393559"><ele>912.5</ele><time>2026-05-02T13:07:07.999Z</time></trkpt><trkpt lat="42.09806691878389" lon="13.507237229199731"><ele>912.6666666666666</ele><time>2026-05-02T13:07:08.999Z</time></trkpt><trkpt lat="42.09813847983228" lon="13.507168106233038"><ele>912.8333333333333</ele><time>2026-05-02T13:07:09.999Z</time></trkpt><trkpt lat="42.09822245172567" lon="13.507085148900142"><ele>913.0</ele><time>2026-05-02T13:07:10.999Z</time></trkpt><trkpt lat="42.09830694481879" lon="13.506994038894806"><ele>913.3333333333333</ele><time>2026-05-02T13:07:11.999Z</time></trkpt><trkpt lat="42.09838474246101" lon="13.506891555360149"><ele>913.6666666666666</ele><time>2026-05-02T13:07:12.999Z</time></trkpt><trkpt lat="42.098452693631316" lon="13.506793395431771"><ele>914.0</ele><time>2026-05-02T13:07:13.999Z</time></trkpt><trkpt lat="42.098506832289225" lon="13.506710699467273"><ele>914.3333333333333</ele><time>2026-05-02T13:07:14.999Z</time></trkpt><trkpt lat="42.09854435453208" lon="13.506629679476598"><ele>914.6666666666666</ele><time>2026-05-02T13:07:15.999Z</time></trkpt><trkpt lat="42.09857125722145" lon="13.506531501585886"><ele>915.0</ele><time>2026-05-02T13:07:16.999Z</time></trkpt><trkpt lat="42.098596740602176" lon="13.506396221571782"><ele>915.0</ele><time>2026-05-02T13:07:17.999Z</time></trkpt><trkpt lat="42.09862486493311" lon="13.506262633226765"><ele>915.0</ele><time>2026-05-02T13:07:18.999Z</time></trkpt><trkpt lat="42.0986861353663" lon="13.506112911478501"><ele>915.0</ele><time>2026-05-02T13:07:19.999Z</time></trkpt><trkpt lat="42.09872683962125" lon="13.50597541819493"><ele>915.0</ele><time>2026-05-02T13:07:20.999Z</time></trkpt><trkpt lat="42.09875222481478" lon="13.505854382818718"><ele>915.0</ele><time>2026-05-02T13:07:21.999Z</time></trkpt><trkpt lat="42.09878335953969" lon="13.505747443366399"><ele>915.0</ele><time>2026-05-02T13:07:23Z</time></trkpt><trkpt lat="42.09880913349022" lon="13.505663897658463"><ele>915.0</ele><time>2026-05-02T13:07:24Z</time></trkpt><trkpt lat="42.09886805983524" lon="13.505521838058225"><ele>915.0</ele><time>2026-05-02T13:07:26Z</time></trkpt><trkpt lat="42.09894223557634" lon="13.50537299381318"><ele>915.0</ele><time>2026-05-02T13:07:28Z</time></trkpt><trkpt lat="42.09899448173283" lon="13.505284273373045"><ele>915.0</ele><time>2026-05-02T13:07:29Z</time></trkpt><trkpt lat="42.09904189114208" lon="13.505175522068129"><ele>917.2</ele><time>2026-05-02T13:07:30Z</time></trkpt><trkpt lat="42.09910428502118" lon="13.505086636791562"><ele>919.4</ele><time>2026-05-02T13:07:31Z</time></trkpt><trkpt lat="42.09917229657303" lon="13.505009152427027"><ele>921.5999999999999</ele><time>2026-05-02T13:07:32Z</time></trkpt><trkpt lat="42.09924910781348" lon="13.504950744482763"><ele>923.8</ele><time>2026-05-02T13:07:33Z</time></trkpt><trkpt lat="42.099314323060455" lon="13.504867398977579"><ele>926.0</ele><time>2026-05-02T13:07:34Z</time></trkpt><trkpt lat="42.099376388514635" lon="13.504770768078995"><ele>926.0</ele><time>2026-05-02T13:07:35Z</time></trkpt><trkpt lat="42.099438391150514" lon="13.504660750046966"><ele>926.0</ele><time>2026-05-02T13:07:36Z</time></trkpt><trkpt lat="42.09949986420803" lon="13.504542883362342"><ele>926.0</ele><time>2026-05-02T13:07:37Z</time></trkpt><trkpt lat="42.09956203837404" lon="13.504417723177495"><ele>926.0</ele><time>2026-05-02T13:07:38Z</time></trkpt><trkpt lat="42.09963290288084" lon="13.50426722732964"><ele>927.25</ele><time>2026-05-02T13:07:39Z</time></trkpt><trkpt lat="42.099711080902225" lon="13.50410132848971"><ele>928.5</ele><time>2026-05-02T13:07:40Z</time></trkpt><trkpt lat="42.099791973141684" lon="13.503928084110772"><ele>929.75</ele><time>2026-05-02T13:07:41Z</time></trkpt><trkpt lat="42.09986738843848" lon="13.503761079731987"><ele>931.0</ele><time>2026-05-02T13:07:42Z</time></trkpt><trkpt lat="42.09993109304338" lon="13.503616595295622"><ele>931.5</ele><time>2026-05-02T13:07:43Z</time></trkpt><trkpt lat="42.099991412340884" lon="13.503479789490587"><ele>932.0</ele><time>2026-05-02T13:07:44Z</time></trkpt><trkpt lat="42.1000537876897" lon="13.503338319701829"><ele>932.5</ele><time>2026-05-02T13:07:45Z</time></trkpt><trkpt lat="42.100118171100625" lon="13.503192296146834"><ele>933.0</ele><time>2026-05-02T13:07:46Z</time></trkpt><trkpt lat="42.10017487084846" lon="13.503038190806548"><ele>935.5</ele><time>2026-05-02T13:07:47Z</time></trkpt><trkpt lat="42.10026050191973" lon="13.502902816228081"><ele>938.0</ele><time>2026-05-02T13:07:48Z</time></trkpt><trkpt lat="42.100338447190445" lon="13.502760226065961"><ele>940.5</ele><time>2026-05-02T13:07:49Z</time></trkpt><trkpt lat="42.100409765362464" lon="13.502632634090123"><ele>943.0</ele><time>2026-05-02T13:07:50Z</time></trkpt><trkpt lat="42.10047518489878" lon="13.502521581416769"><ele>943.0</ele><time>2026-05-02T13:07:51Z</time></trkpt><trkpt lat="42.10053457936356" lon="13.502420783803263"><ele>943.0</ele><time>2026-05-02T13:07:52Z</time></trkpt><trkpt lat="42.1005909761108" lon="13.502328316500924"><ele>943.0</ele><time>2026-05-02T13:07:53Z</time></trkpt><trkpt lat="42.10063927847945" lon="13.502221877414462"><ele>943.0</ele><time>2026-05-02T13:07:54Z</time></trkpt><trkpt lat="42.100715448544186" lon="13.50214473602186"><ele>943.0</ele><time>2026-05-02T13:07:55Z</time></trkpt><trkpt lat="42.10077526612079" lon="13.502042041506574"><ele>944.0</ele><time>2026-05-02T13:07:56Z</time></trkpt><trkpt lat="42.10085251243399" lon="13.501949139977258"><ele>945.0</ele><time>2026-05-02T13:07:57Z</time></trkpt><trkpt lat="42.100934380421485" lon="13.501860437479479"><ele>946.0</ele><time>2026-05-02T13:07:58Z</time></trkpt><trkpt lat="42.10101424036067" lon="13.50177832694959"><ele>947.0</ele><time>2026-05-02T13:07:59Z</time></trkpt><trkpt lat="42.1010848401055" lon="13.501705141687228"><ele>948.0</ele><time>2026-05-02T13:08:00Z</time></trkpt><trkpt lat="42.1011365546569" lon="13.501633075699656"><ele>948.0</ele><time>2026-05-02T13:08:01Z</time></trkpt><trkpt lat="42.10118008762804" lon="13.501555762171305"><ele>948.0</ele><time>2026-05-02T13:08:02Z</time></trkpt><trkpt lat="42.101258088964464" lon="13.50141009142402"><ele>948.0</ele><time>2026-05-02T13:08:04Z</time></trkpt><trkpt lat="42.1013148912521" lon="13.501335999707209"><ele>948.0</ele><time>2026-05-02T13:08:05Z</time></trkpt><trkpt lat="42.101340946690215" lon="13.501245527495861"><ele>948.0</ele><time>2026-05-02T13:08:06Z</time></trkpt><trkpt lat="42.10138260955347" lon="13.501169764122192"><ele>948.0</ele><time>2026-05-02T13:08:07Z</time></trkpt><trkpt lat="42.10144735927079" lon="13.501075289121353"><ele>948.0</ele><time>2026-05-02T13:08:09Z</time></trkpt><trkpt lat="42.1015194905039" lon="13.501108451739563"><ele>948.0</ele><time>2026-05-02T13:08:11Z</time></trkpt><trkpt lat="42.10155681293463" lon="13.501237262839544"><ele>948.0</ele><time>2026-05-02T13:08:13Z</time></trkpt><trkpt lat="42.10157616334181" lon="13.501322480267115"><ele>948.0</ele><time>2026-05-02T13:08:14Z</time></trkpt><trkpt lat="42.10160178012058" lon="13.501424823903003"><ele>948.0</ele><time>2026-05-02T13:08:15Z</time></trkpt><trkpt lat="42.101613540962326" lon="13.50155570909957"><ele>948.0</ele><time>2026-05-02T13:08:16Z</time></trkpt><trkpt lat="42.10165777094838" lon="13.501699271263591"><ele>947.4</ele><time>2026-05-02T13:08:17Z</time></trkpt><trkpt lat="42.101696193239434" lon="13.501842077857098"><ele>946.8</ele><time>2026-05-02T13:08:18Z</time></trkpt><trkpt lat="42.101728269558265" lon="13.501976378385448"><ele>946.2</ele><time>2026-05-02T13:08:19Z</time></trkpt><trkpt lat="42.1017655718486" lon="13.502112067839066"><ele>945.6</ele><time>2026-05-02T13:08:20Z</time></trkpt><trkpt lat="42.1018022196826" lon="13.502241516518733"><ele>945.0</ele><time>2026-05-02T13:08:21Z</time></trkpt><trkpt lat="42.10181997166896" lon="13.502370791274995"><ele>945.0</ele><time>2026-05-02T13:08:22Z</time></trkpt><trkpt lat="42.101869174994256" lon="13.502480932194452"><ele>945.0</ele><time>2026-05-02T13:08:23Z</time></trkpt><trkpt lat="42.10190136901784" lon="13.502585053570478"><ele>945.0</ele><time>2026-05-02T13:08:24Z</time></trkpt><trkpt lat="42.1019440933793" lon="13.502675882994724"><ele>945.0</ele><time>2026-05-02T13:08:25Z</time></trkpt><trkpt lat="42.10199205974271" lon="13.5027588449689"><ele>945.0</ele><time>2026-05-02T13:08:26Z</time></trkpt><trkpt lat="42.10202988377367" lon="13.502852966824628"><ele>945.0</ele><time>2026-05-02T13:08:27Z</time></trkpt><trkpt lat="42.10207561658041" lon="13.502934704965373"><ele>944.1666666666666</ele><time>2026-05-02T13:08:28Z</time></trkpt><trkpt lat="42.10212072048166" lon="13.503017784115663"><ele>943.3333333333333</ele><time>2026-05-02T13:08:29Z</time></trkpt><trkpt lat="42.10215899380517" lon="13.503089852943782"><ele>942.5</ele><time>2026-05-02T13:08:30Z</time></trkpt><trkpt lat="42.102169510800074" lon="13.503225889284797"><ele>941.6666666666666</ele><time>2026-05-02T13:08:32Z</time></trkpt><trkpt lat="42.10215647587457" lon="13.50331687718145"><ele>940.8333333333333</ele><time>2026-05-02T13:08:33Z</time></trkpt><trkpt lat="42.10211448013099" lon="13.50341912403643"><ele>940.0</ele><time>2026-05-02T13:08:34Z</time></trkpt><trkpt lat="42.10207331437636" lon="13.503536841619795"><ele>940.0</ele><time>2026-05-02T13:08:35Z</time></trkpt><trkpt lat="42.102025147239644" lon="13.50366916975813"><ele>940.0</ele><time>2026-05-02T13:08:36Z</time></trkpt><trkpt lat="42.10197061454602" lon="13.503809037756996"><ele>940.0</ele><time>2026-05-02T13:08:37Z</time></trkpt><trkpt lat="42.10191060021118" lon="13.503951549041036"><ele>940.0</ele><time>2026-05-02T13:08:38Z</time></trkpt><trkpt lat="42.10184972162242" lon="13.504089035816632"><ele>939.0</ele><time>2026-05-02T13:08:39Z</time></trkpt><trkpt lat="42.101789766112766" lon="13.504227465848913"><ele>938.0</ele><time>2026-05-02T13:08:40Z</time></trkpt><trkpt lat="42.10173268835672" lon="13.504354545167141"><ele>937.0</ele><time>2026-05-02T13:08:41Z</time></trkpt><trkpt lat="42.10167873574427" lon="13.504473570062734"><ele>936.0</ele><time>2026-05-02T13:08:42Z</time></trkpt><trkpt lat="42.10162982926319" lon="13.504588586834211"><ele>935.0</ele><time>2026-05-02T13:08:43Z</time></trkpt><trkpt lat="42.10158046968743" lon="13.50470443670352"><ele>934.0</ele><time>2026-05-02T13:08:44Z</time></trkpt><trkpt lat="42.10151269846553" lon="13.504804774087349"><ele>933.0</ele><time>2026-05-02T13:08:45Z</time></trkpt><trkpt lat="42.10145344869274" lon="13.504927428861286"><ele>932.0</ele><time>2026-05-02T13:08:46Z</time></trkpt><trkpt lat="42.10140762547343" lon="13.50507552141562"><ele>931.0</ele><time>2026-05-02T13:08:47Z</time></trkpt><trkpt lat="42.10139284369283" lon="13.50524778844985"><ele>930.5</ele><time>2026-05-02T13:08:48Z</time></trkpt><trkpt lat="42.10136335073769" lon="13.505421673842026"><ele>930.0</ele><time>2026-05-02T13:08:49Z</time></trkpt><trkpt lat="42.10131427156162" lon="13.505597820809053"><ele>929.5</ele><time>2026-05-02T13:08:49.999Z</time></trkpt><trkpt lat="42.1012798807615" lon="13.505781638838272"><ele>929.0</ele><time>2026-05-02T13:08:50.999Z</time></trkpt><trkpt lat="42.101242212169055" lon="13.505967675717358"><ele>929.0</ele><time>2026-05-02T13:08:51.999Z</time></trkpt><trkpt lat="42.10121067229094" lon="13.5061465431658"><ele>929.0</ele><time>2026-05-02T13:08:52.999Z</time></trkpt><trkpt lat="42.10120168636438" lon="13.506305835439479"><ele>929.0</ele><time>2026-05-02T13:08:53.999Z</time></trkpt><trkpt lat="42.1011860656001" lon="13.506453716494583"><ele>929.0</ele><time>2026-05-02T13:08:54.999Z</time></trkpt><trkpt lat="42.101175701165545" lon="13.506607493503628"><ele>929.5</ele><time>2026-05-02T13:08:55.999Z</time></trkpt><trkpt lat="42.10116365328537" lon="13.506765942805886"><ele>930.0</ele><time>2026-05-02T13:08:56.999Z</time></trkpt><trkpt lat="42.10115119167954" lon="13.506929027052047"><ele>930.5</ele><time>2026-05-02T13:08:57.999Z</time></trkpt><trkpt lat="42.10114355456941" lon="13.507087494960373"><ele>931.0</ele><time>2026-05-02T13:08:58.999Z</time></trkpt><trkpt lat="42.10115466921546" lon="13.507240389800637"><ele>932.5999999999999</ele><time>2026-05-02T13:08:59.999Z</time></trkpt><trkpt lat="42.10118434237854" lon="13.507390725390572"><ele>934.1999999999999</ele><time>2026-05-02T13:09:00.999Z</time></trkpt><trkpt lat="42.101170447075596" lon="13.507534973235252"><ele>935.8000000000001</ele><time>2026-05-02T13:09:01.999Z</time></trkpt><trkpt lat="42.10115861776624" lon="13.507678094627476"><ele>937.4000000000001</ele><time>2026-05-02T13:09:02.999Z</time></trkpt><trkpt lat="42.10113869632053" lon="13.507833029238835"><ele>939.0</ele><time>2026-05-02T13:09:03.999Z</time></trkpt><trkpt lat="42.10112487663641" lon="13.50800319015907"><ele>940.75</ele><time>2026-05-02T13:09:04.999Z</time></trkpt><trkpt lat="42.10110056198294" lon="13.508184027935489"><ele>942.5</ele><time>2026-05-02T13:09:05.999Z</time></trkpt><trkpt lat="42.10107877344224" lon="13.508361260170627"><ele>944.25</ele><time>2026-05-02T13:09:06.999Z</time></trkpt><trkpt lat="42.101043005451224" lon="13.508514760893448"><ele>946.0</ele><time>2026-05-02T13:09:07.999Z</time></trkpt><trkpt lat="42.10104124477592" lon="13.508663922853968"><ele>948.0</ele><time>2026-05-02T13:09:08.999Z</time></trkpt><trkpt lat="42.10102386115677" lon="13.508805337312582"><ele>949.9999999999999</ele><time>2026-05-02T13:09:09.999Z</time></trkpt><trkpt lat="42.10099848578981" lon="13.508939806852432"><ele>951.9999999999999</ele><time>2026-05-02T13:09:10.999Z</time></trkpt><trkpt lat="42.1009632939964" lon="13.509062256018568"><ele>954.0</ele><time>2026-05-02T13:09:11.999Z</time></trkpt><trkpt lat="42.10091719724956" lon="13.509182778018381"><ele>956.0</ele><time>2026-05-02T13:09:12.999Z</time></trkpt><trkpt lat="42.10086238386794" lon="13.509297894198628"><ele>956.0</ele><time>2026-05-02T13:09:13.999Z</time></trkpt><trkpt lat="42.100807595158216" lon="13.509405643662273"><ele>955.9999999999999</ele><time>2026-05-02T13:09:14.999Z</time></trkpt><trkpt lat="42.10076479547749" lon="13.509493671104194"><ele>955.9999999999999</ele><time>2026-05-02T13:09:15.999Z</time></trkpt><trkpt lat="42.10070285334137" lon="13.509607551185923"><ele>956.0</ele><time>2026-05-02T13:09:18Z</time></trkpt><trkpt lat="42.100653612397906" lon="13.50968999310819"><ele>956.0</ele><time>2026-05-02T13:09:21Z</time></trkpt><trkpt lat="42.10073965256922" lon="13.509824603645182"><ele>956.0</ele><time>2026-05-02T13:09:23Z</time></trkpt><trkpt lat="42.100828278764816" lon="13.509597386513468"><ele>956.0</ele><time>2026-05-02T13:09:25Z</time></trkpt><trkpt lat="42.10086340764843" lon="13.509479734198493"><ele>956.0</ele><time>2026-05-02T13:09:26Z</time></trkpt><trkpt lat="42.100917784571855" lon="13.50938504006936"><ele>956.0</ele><time>2026-05-02T13:09:27Z</time></trkpt><trkpt lat="42.100990570428635" lon="13.509272640296526"><ele>956.0</ele><time>2026-05-02T13:09:28Z</time></trkpt><trkpt lat="42.10107727010029" lon="13.509139821264453"><ele>956.0</ele><time>2026-05-02T13:09:29Z</time></trkpt><trkpt lat="42.10116419105115" lon="13.508999599844909"><ele>956.0</ele><time>2026-05-02T13:09:30Z</time></trkpt><trkpt lat="42.1012832425611" lon="13.508865721216582"><ele>956.0</ele><time>2026-05-02T13:09:31Z</time></trkpt><trkpt lat="42.10140057879766" lon="13.508694935032635"><ele>955.0</ele><time>2026-05-02T13:09:32Z</time></trkpt><trkpt lat="42.10152259302935" lon="13.508552886880285"><ele>954.0</ele><time>2026-05-02T13:09:33Z</time></trkpt><trkpt lat="42.101649142851535" lon="13.508397851590125"><ele>953.0</ele><time>2026-05-02T13:09:34Z</time></trkpt><trkpt lat="42.101774684751945" lon="13.508228873710445"><ele>953.0</ele><time>2026-05-02T13:09:35Z</time></trkpt><trkpt lat="42.101904223710484" lon="13.508059950912795"><ele>953.0</ele><time>2026-05-02T13:09:36Z</time></trkpt><trkpt lat="42.10203696357589" lon="13.507884322174757"><ele>953.0</ele><time>2026-05-02T13:09:37Z</time></trkpt><trkpt lat="42.102160603971555" lon="13.507697165444617"><ele>951.0</ele><time>2026-05-02T13:09:38Z</time></trkpt><trkpt lat="42.10226939038194" lon="13.507492427158345"><ele>949.0</ele><time>2026-05-02T13:09:39Z</time></trkpt><trkpt lat="42.102370411229" lon="13.507280181233238"><ele>947.0</ele><time>2026-05-02T13:09:40Z</time></trkpt><trkpt lat="42.102462930279714" lon="13.507073670548793"><ele>951.0</ele><time>2026-05-02T13:09:41Z</time></trkpt><trkpt lat="42.10254807145214" lon="13.506861539589412"><ele>955.0</ele><time>2026-05-02T13:09:42Z</time></trkpt><trkpt lat="42.10262377137603" lon="13.506653342721238"><ele>959.0</ele><time>2026-05-02T13:09:43Z</time></trkpt><trkpt lat="42.10269255416776" lon="13.506441396042359"><ele>956.3333333333334</ele><time>2026-05-02T13:09:44Z</time></trkpt><trkpt lat="42.10275630272693" lon="13.50623147827888"><ele>953.6666666666667</ele><time>2026-05-02T13:09:45Z</time></trkpt><trkpt lat="42.10281596150276" lon="13.506025291911591"><ele>951.0</ele><time>2026-05-02T13:09:46Z</time></trkpt><trkpt lat="42.10287521781475" lon="13.505819554873375"><ele>951.0</ele><time>2026-05-02T13:09:47Z</time></trkpt><trkpt lat="42.10293285639326" lon="13.505624032148086"><ele>951.0</ele><time>2026-05-02T13:09:48Z</time></trkpt><trkpt lat="42.10298988128502" lon="13.505438692421743"><ele>951.0</ele><time>2026-05-02T13:09:49Z</time></trkpt><trkpt lat="42.10305035878189" lon="13.505263928829741"><ele>951.0</ele><time>2026-05-02T13:09:50Z</time></trkpt><trkpt lat="42.103124223654" lon="13.505104593262343"><ele>949.75</ele><time>2026-05-02T13:09:51Z</time></trkpt><trkpt lat="42.103218729309965" lon="13.504976641145815"><ele>948.5</ele><time>2026-05-02T13:09:52Z</time></trkpt><trkpt lat="42.10333530177985" lon="13.504878873588895"><ele>947.25</ele><time>2026-05-02T13:09:53Z</time></trkpt><trkpt lat="42.10346470297004" lon="13.504799488981089"><ele>946.0</ele><time>2026-05-02T13:09:54Z</time></trkpt><trkpt lat="42.10359852363718" lon="13.50472615158236"><ele>948.5</ele><time>2026-05-02T13:09:55Z</time></trkpt><trkpt lat="42.10373448961445" lon="13.504647271722277"><ele>951.0</ele><time>2026-05-02T13:09:56Z</time></trkpt><trkpt lat="42.10386301388263" lon="13.504558235277946"><ele>953.5</ele><time>2026-05-02T13:09:57Z</time></trkpt><trkpt lat="42.10398391877159" lon="13.504451905222137"><ele>956.0</ele><time>2026-05-02T13:09:58Z</time></trkpt><trkpt lat="42.10409458877953" lon="13.504337875453416"><ele>959.75</ele><time>2026-05-02T13:09:59Z</time></trkpt><trkpt lat="42.104195926821376" lon="13.504216903772436"><ele>963.5</ele><time>2026-05-02T13:10:00Z</time></trkpt><trkpt lat="42.10428778668365" lon="13.504086325259193"><ele>967.25</ele><time>2026-05-02T13:10:01Z</time></trkpt><trkpt lat="42.10437144836673" lon="13.503953757089112"><ele>971.0</ele><time>2026-05-02T13:10:02Z</time></trkpt><trkpt lat="42.104445244033656" lon="13.503818381286337"><ele>970.25</ele><time>2026-05-02T13:10:03Z</time></trkpt><trkpt lat="42.104510815866746" lon="13.50367979967585"><ele>969.5</ele><time>2026-05-02T13:10:04Z</time></trkpt><trkpt lat="42.10457423474576" lon="13.503541084122803"><ele>968.75</ele><time>2026-05-02T13:10:05Z</time></trkpt><trkpt lat="42.10463720684291" lon="13.503402149729814"><ele>968.0</ele><time>2026-05-02T13:10:06Z</time></trkpt><trkpt lat="42.1046982106974" lon="13.503262118774435"><ele>968.0</ele><time>2026-05-02T13:10:07Z</time></trkpt><trkpt lat="42.10475657672893" lon="13.503121311930595"><ele>968.0</ele><time>2026-05-02T13:10:08Z</time></trkpt><trkpt lat="42.104814455562426" lon="13.502975336242477"><ele>968.0</ele><time>2026-05-02T13:10:09Z</time></trkpt><trkpt lat="42.104870077375864" lon="13.50282244005336"><ele>968.0</ele><time>2026-05-02T13:10:10Z</time></trkpt><trkpt lat="42.10492050727437" lon="13.502664138268827"><ele>972.25</ele><time>2026-05-02T13:10:11Z</time></trkpt><trkpt lat="42.104966945113304" lon="13.502500681190023"><ele>976.5</ele><time>2026-05-02T13:10:12Z</time></trkpt><trkpt lat="42.10501423745581" lon="13.502329498939117"><ele>980.75</ele><time>2026-05-02T13:10:13Z</time></trkpt><trkpt lat="42.10506118454329" lon="13.502153307149273"><ele>985.0</ele><time>2026-05-02T13:10:14Z</time></trkpt><trkpt lat="42.10510816311102" lon="13.501973813588167"><ele>985.0</ele><time>2026-05-02T13:10:15Z</time></trkpt><trkpt lat="42.10515406637656" lon="13.501789327939388"><ele>985.0</ele><time>2026-05-02T13:10:16Z</time></trkpt><trkpt lat="42.105202344161306" lon="13.501604837304969"><ele>985.0</ele><time>2026-05-02T13:10:17Z</time></trkpt><trkpt lat="42.1052494252274" lon="13.501420150274075"><ele>985.0</ele><time>2026-05-02T13:10:18Z</time></trkpt><trkpt lat="42.105290832029986" lon="13.501232300122386"><ele>984.75</ele><time>2026-05-02T13:10:19Z</time></trkpt><trkpt lat="42.10532535275232" lon="13.501048051921705"><ele>984.5</ele><time>2026-05-02T13:10:20Z</time></trkpt><trkpt lat="42.105355423886" lon="13.50085755244347"><ele>984.25</ele><time>2026-05-02T13:10:21Z</time></trkpt><trkpt lat="42.10537881623678" lon="13.50066364848891"><ele>984.0</ele><time>2026-05-02T13:10:22Z</time></trkpt><trkpt lat="42.105396049833075" lon="13.500477058356285"><ele>986.0</ele><time>2026-05-02T13:10:23Z</time></trkpt><trkpt lat="42.105410562070674" lon="13.500302310521183"><ele>988.0</ele><time>2026-05-02T13:10:24Z</time></trkpt><trkpt lat="42.10541870219196" lon="13.500132340651113"><ele>990.0</ele><time>2026-05-02T13:10:25Z</time></trkpt><trkpt lat="42.10540258269583" lon="13.499964340869772"><ele>992.0</ele><time>2026-05-02T13:10:26Z</time></trkpt><trkpt lat="42.10535279663639" lon="13.4997931237421"><ele>992.0</ele><time>2026-05-02T13:10:27Z</time></trkpt><trkpt lat="42.1052722974926" lon="13.499628568920876"><ele>992.0</ele><time>2026-05-02T13:10:28Z</time></trkpt><trkpt lat="42.105157374647725" lon="13.499476813629759"><ele>992.0</ele><time>2026-05-02T13:10:29Z</time></trkpt><trkpt lat="42.1050274851541" lon="13.499327123135737"><ele>992.0</ele><time>2026-05-02T13:10:30Z</time></trkpt><trkpt lat="42.104902609535465" lon="13.499181936853322"><ele>992.0</ele><time>2026-05-02T13:10:31Z</time></trkpt><trkpt lat="42.10479571672036" lon="13.499047808807088"><ele>992.0</ele><time>2026-05-02T13:10:32Z</time></trkpt><trkpt lat="42.104699157247374" lon="13.498915336191004"><ele>992.0</ele><time>2026-05-02T13:10:33Z</time></trkpt><trkpt lat="42.10461689988164" lon="13.498766339935756"><ele>993.5</ele><time>2026-05-02T13:10:34Z</time></trkpt><trkpt lat="42.10456515026701" lon="13.498602345508495"><ele>995.0</ele><time>2026-05-02T13:10:35Z</time></trkpt><trkpt lat="42.10453241803516" lon="13.498429076081077"><ele>996.5</ele><time>2026-05-02T13:10:36Z</time></trkpt><trkpt lat="42.104521372910824" lon="13.498254651623531"><ele>998.0</ele><time>2026-05-02T13:10:37Z</time></trkpt><trkpt lat="42.10453620153013" lon="13.498093629384792"><ele>998.0</ele><time>2026-05-02T13:10:38Z</time></trkpt><trkpt lat="42.104580613073736" lon="13.497952111047551"><ele>998.0</ele><time>2026-05-02T13:10:39Z</time></trkpt><trkpt lat="42.10465609872623" lon="13.49782503096928"><ele>998.0</ele><time>2026-05-02T13:10:40Z</time></trkpt><trkpt lat="42.10475285147883" lon="13.497707239066298"><ele>998.0</ele><time>2026-05-02T13:10:41Z</time></trkpt><trkpt lat="42.10486121852431" lon="13.497592931804625"><ele>1001.0</ele><time>2026-05-02T13:10:42Z</time></trkpt><trkpt lat="42.1049873592625" lon="13.497480023383503"><ele>1004.0</ele><time>2026-05-02T13:10:43Z</time></trkpt><trkpt lat="42.10512666128337" lon="13.497366949458293"><ele>1007.0</ele><time>2026-05-02T13:10:44Z</time></trkpt><trkpt lat="42.105271446672646" lon="13.497250458947622"><ele>1007.0</ele><time>2026-05-02T13:10:45Z</time></trkpt><trkpt lat="42.105423802212954" lon="13.497120110495118"><ele>1007.0</ele><time>2026-05-02T13:10:46Z</time></trkpt><trkpt lat="42.10558066322691" lon="13.496984201743048"><ele>1007.0</ele><time>2026-05-02T13:10:47Z</time></trkpt><trkpt lat="42.10574245138058" lon="13.496851593898814"><ele>1008.0</ele><time>2026-05-02T13:10:48Z</time></trkpt><trkpt lat="42.10590669085401" lon="13.496720619786718"><ele>1009.0</ele><time>2026-05-02T13:10:49Z</time></trkpt><trkpt lat="42.10606743731088" lon="13.49658779298958"><ele>1010.0</ele><time>2026-05-02T13:10:50Z</time></trkpt><trkpt lat="42.10621254086431" lon="13.496460213721399"><ele>1010.0</ele><time>2026-05-02T13:10:51Z</time></trkpt><trkpt lat="42.10634053124132" lon="13.496317256141909"><ele>1010.0</ele><time>2026-05-02T13:10:52Z</time></trkpt><trkpt lat="42.106452010352406" lon="13.49615156081564"><ele>1010.0</ele><time>2026-05-02T13:10:53Z</time></trkpt><trkpt lat="42.106546619237434" lon="13.495965849519513"><ele>1012.6666666666667</ele><time>2026-05-02T13:10:54Z</time></trkpt><trkpt lat="42.1066202456101" lon="13.495763785679003"><ele>1015.3333333333333</ele><time>2026-05-02T13:10:55Z</time></trkpt><trkpt lat="42.10667154114302" lon="13.495546068106169"><ele>1018.0</ele><time>2026-05-02T13:10:55.999Z</time></trkpt><trkpt lat="42.10670996636836" lon="13.495317994071739"><ele>1018.0</ele><time>2026-05-02T13:10:56.999Z</time></trkpt><trkpt lat="42.10675124391997" lon="13.495094270707588"><ele>1018.0</ele><time>2026-05-02T13:10:57.999Z</time></trkpt><trkpt lat="42.10679546055059" lon="13.494877232741445"><ele>1018.0</ele><time>2026-05-02T13:10:58.999Z</time></trkpt><trkpt lat="42.10683810708127" lon="13.494670211691696"><ele>1017.3333333333333</ele><time>2026-05-02T13:10:59.999Z</time></trkpt><trkpt lat="42.10688847794849" lon="13.494463413356817"><ele>1016.6666666666667</ele><time>2026-05-02T13:11:00.999Z</time></trkpt><trkpt lat="42.106961059362185" lon="13.494275063192616"><ele>1016.0</ele><time>2026-05-02T13:11:01.999Z</time></trkpt><trkpt lat="42.107063322584374" lon="13.49411125914097"><ele>1016.0</ele><time>2026-05-02T13:11:02.999Z</time></trkpt><trkpt lat="42.10718265368572" lon="13.493954635332653"><ele>1016.0</ele><time>2026-05-02T13:11:03.999Z</time></trkpt><trkpt lat="42.10730555990704" lon="13.493789289536956"><ele>1016.0</ele><time>2026-05-02T13:11:05Z</time></trkpt><trkpt lat="42.10742534931108" lon="13.493620232298216"><ele>1019.5</ele><time>2026-05-02T13:11:06Z</time></trkpt><trkpt lat="42.10752964950289" lon="13.493467254185443"><ele>1023.0</ele><time>2026-05-02T13:11:07Z</time></trkpt><trkpt lat="42.10761217090977" lon="13.493319444655086"><ele>1026.5</ele><time>2026-05-02T13:11:08Z</time></trkpt><trkpt lat="42.107666193177046" lon="13.493156157952088"><ele>1030.0</ele><time>2026-05-02T13:11:09Z</time></trkpt><trkpt lat="42.10767810143923" lon="13.492972743336457"><ele>1032.0</ele><time>2026-05-02T13:11:10Z</time></trkpt><trkpt lat="42.10765532859442" lon="13.492775167163158"><ele>1034.0</ele><time>2026-05-02T13:11:11Z</time></trkpt><trkpt lat="42.10760942839982" lon="13.49256735374194"><ele>1036.0</ele><time>2026-05-02T13:11:12Z</time></trkpt><trkpt lat="42.10755885756036" lon="13.492346570660283"><ele>1036.0</ele><time>2026-05-02T13:11:13Z</time></trkpt><trkpt lat="42.10751254367391" lon="13.492126139730637"><ele>1036.0</ele><time>2026-05-02T13:11:14Z</time></trkpt><trkpt lat="42.107461902461345" lon="13.491918383381119"><ele>1036.0</ele><time>2026-05-02T13:11:15Z</time></trkpt><trkpt lat="42.10738707656552" lon="13.49173053818934"><ele>1034.25</ele><time>2026-05-02T13:11:16Z</time></trkpt><trkpt lat="42.10728222785098" lon="13.491572490293539"><ele>1032.5</ele><time>2026-05-02T13:11:17Z</time></trkpt><trkpt lat="42.107181179144234" lon="13.49142227952738"><ele>1030.75</ele><time>2026-05-02T13:11:18Z</time></trkpt><trkpt lat="42.10711065060013" lon="13.491268849653864"><ele>1029.0</ele><time>2026-05-02T13:11:19Z</time></trkpt><trkpt lat="42.10707261498402" lon="13.491096688586186"><ele>1029.0</ele><time>2026-05-02T13:11:20Z</time></trkpt><trkpt lat="42.10707042081349" lon="13.490906122905944"><ele>1029.0</ele><time>2026-05-02T13:11:21Z</time></trkpt><trkpt lat="42.10708988635992" lon="13.490705153871794"><ele>1029.0</ele><time>2026-05-02T13:11:22Z</time></trkpt><trkpt lat="42.10712492246263" lon="13.490487397402754"><ele>1030.3333333333333</ele><time>2026-05-02T13:11:23Z</time></trkpt><trkpt lat="42.10717074334016" lon="13.49025830528609"><ele>1031.6666666666665</ele><time>2026-05-02T13:11:24Z</time></trkpt><trkpt lat="42.10722032939996" lon="13.49001758732538"><ele>1033.0</ele><time>2026-05-02T13:11:25Z</time></trkpt><trkpt lat="42.10726665995324" lon="13.48976922801058"><ele>1035.0</ele><time>2026-05-02T13:11:26Z</time></trkpt><trkpt lat="42.10730445218125" lon="13.489548766067474"><ele>1037.0</ele><time>2026-05-02T13:11:27Z</time></trkpt><trkpt lat="42.10734070838992" lon="13.489352717535196"><ele>1039.0</ele><time>2026-05-02T13:11:28Z</time></trkpt><trkpt lat="42.107380921855125" lon="13.489171164550692"><ele>1041.0</ele><time>2026-05-02T13:11:29Z</time></trkpt><trkpt lat="42.10742783783545" lon="13.488995675197575"><ele>1043.0</ele><time>2026-05-02T13:11:30Z</time></trkpt><trkpt lat="42.10749527614278" lon="13.488841509236066"><ele>1045.0</ele><time>2026-05-02T13:11:31Z</time></trkpt><trkpt lat="42.10759092840873" lon="13.488710503265647"><ele>1047.0</ele><time>2026-05-02T13:11:32Z</time></trkpt><trkpt lat="42.107704590609266" lon="13.48860895308285"><ele>1047.0</ele><time>2026-05-02T13:11:33Z</time></trkpt><trkpt lat="42.10784006557252" lon="13.488527945837513"><ele>1047.0</ele><time>2026-05-02T13:11:34Z</time></trkpt><trkpt lat="42.10799064803236" lon="13.48846580469899"><ele>1047.0</ele><time>2026-05-02T13:11:35Z</time></trkpt><trkpt lat="42.10815358432946" lon="13.488408791426062"><ele>1052.6666666666667</ele><time>2026-05-02T13:11:36Z</time></trkpt><trkpt lat="42.10832056095246" lon="13.488333332980927"><ele>1058.3333333333335</ele><time>2026-05-02T13:11:37Z</time></trkpt><trkpt lat="42.108485046149895" lon="13.488225326845345"><ele>1064.0</ele><time>2026-05-02T13:11:38Z</time></trkpt><trkpt lat="42.10863937449395" lon="13.488082317478428"><ele>1061.6666666666667</ele><time>2026-05-02T13:11:39Z</time></trkpt><trkpt lat="42.108780892239196" lon="13.487907811672535"><ele>1059.3333333333333</ele><time>2026-05-02T13:11:40Z</time></trkpt><trkpt lat="42.10891161399485" lon="13.487705673049298"><ele>1057.0</ele><time>2026-05-02T13:11:41Z</time></trkpt><trkpt lat="42.10903114028578" lon="13.487491429439116"><ele>1061.0</ele><time>2026-05-02T13:11:42Z</time></trkpt><trkpt lat="42.10914037958411" lon="13.487270471504932"><ele>1065.0</ele><time>2026-05-02T13:11:43Z</time></trkpt><trkpt lat="42.109246198216965" lon="13.487050672494615"><ele>1069.0</ele><time>2026-05-02T13:11:44Z</time></trkpt><trkpt lat="42.1093534576168" lon="13.486834039929695"><ele>1069.0</ele><time>2026-05-02T13:11:45Z</time></trkpt><trkpt lat="42.10945788294544" lon="13.486624072180895"><ele>1069.0</ele><time>2026-05-02T13:11:46Z</time></trkpt><trkpt lat="42.109559587119705" lon="13.48641853509047"><ele>1069.0</ele><time>2026-05-02T13:11:47Z</time></trkpt><trkpt lat="42.10965857469119" lon="13.48621396538034"><ele>1067.3333333333333</ele><time>2026-05-02T13:11:48Z</time></trkpt><trkpt lat="42.10975273699229" lon="13.486020022292347"><ele>1065.6666666666667</ele><time>2026-05-02T13:11:49Z</time></trkpt><trkpt lat="42.109840932958804" lon="13.485836137093296"><ele>1064.0</ele><time>2026-05-02T13:11:50Z</time></trkpt><trkpt lat="42.10991940970372" lon="13.485658870284174"><ele>1068.25</ele><time>2026-05-02T13:11:51Z</time></trkpt><trkpt lat="42.10997847686606" lon="13.485478129318121"><ele>1072.5</ele><time>2026-05-02T13:11:52Z</time></trkpt><trkpt lat="42.110011528858756" lon="13.485283195864982"><ele>1076.75</ele><time>2026-05-02T13:11:53Z</time></trkpt><trkpt lat="42.11001349723952" lon="13.485075361136639"><ele>1081.0</ele><time>2026-05-02T13:11:54Z</time></trkpt><trkpt lat="42.10999332223172" lon="13.48486104260146"><ele>1081.6666666666665</ele><time>2026-05-02T13:11:55Z</time></trkpt><trkpt lat="42.109969167904495" lon="13.484637298019344"><ele>1082.3333333333333</ele><time>2026-05-02T13:11:56Z</time></trkpt><trkpt lat="42.109949126100396" lon="13.484409491246733"><ele>1083.0</ele><time>2026-05-02T13:11:57Z</time></trkpt><trkpt lat="42.10993586012537" lon="13.48418156359168"><ele>1084.6666666666667</ele><time>2026-05-02T13:11:58Z</time></trkpt><trkpt lat="42.10993312839878" lon="13.483968884087627"><ele>1086.3333333333335</ele><time>2026-05-02T13:11:59Z</time></trkpt><trkpt lat="42.10995011735399" lon="13.483770490700005"><ele>1088.0</ele><time>2026-05-02T13:12:00Z</time></trkpt><trkpt lat="42.109989239201376" lon="13.48357650336678"><ele>1088.0</ele><time>2026-05-02T13:12:01Z</time></trkpt><trkpt lat="42.110050054056494" lon="13.483387386363578"><ele>1088.0</ele><time>2026-05-02T13:12:02Z</time></trkpt><trkpt lat="42.11012859859781" lon="13.483200512451752"><ele>1088.0</ele><time>2026-05-02T13:12:03Z</time></trkpt><trkpt lat="42.11022297036652" lon="13.483015898770374"><ele>1085.6666666666667</ele><time>2026-05-02T13:12:04Z</time></trkpt><trkpt lat="42.110336108605274" lon="13.482842114498178"><ele>1083.3333333333333</ele><time>2026-05-02T13:12:05Z</time></trkpt><trkpt lat="42.11046684082366" lon="13.482680069434341"><ele>1081.0</ele><time>2026-05-02T13:12:06Z</time></trkpt><trkpt lat="42.11059284489426" lon="13.482532522200014"><ele>1096.0</ele><time>2026-05-02T13:12:07Z</time></trkpt><trkpt lat="42.11115179728733" lon="13.481379882260537"><ele>1096.3333333333333</ele><time>2026-05-02T13:12:13Z</time></trkpt><trkpt lat="42.11118318347019" lon="13.481145688992571"><ele>1096.6666666666667</ele><time>2026-05-02T13:12:14Z</time></trkpt><trkpt lat="42.11122524424246" lon="13.480915734217485"><ele>1097.0</ele><time>2026-05-02T13:12:15Z</time></trkpt><trkpt lat="42.11126671746352" lon="13.480694539961736"><ele>1097.0</ele><time>2026-05-02T13:12:16Z</time></trkpt><trkpt lat="42.111297952268224" lon="13.480491020748197"><ele>1097.0</ele><time>2026-05-02T13:12:17Z</time></trkpt><trkpt lat="42.11131932694895" lon="13.480295722491405"><ele>1097.0</ele><time>2026-05-02T13:12:18Z</time></trkpt><trkpt lat="42.11133517628304" lon="13.480093941887674"><ele>1097.6666666666667</ele><time>2026-05-02T13:12:19Z</time></trkpt><trkpt lat="42.111334507557224" lon="13.479884888333304"><ele>1098.3333333333333</ele><time>2026-05-02T13:12:20Z</time></trkpt><trkpt lat="42.11130412929865" lon="13.479670410165257"><ele>1099.0</ele><time>2026-05-02T13:12:21Z</time></trkpt><trkpt lat="42.111253150588794" lon="13.479448737701144"><ele>1102.0</ele><time>2026-05-02T13:12:22Z</time></trkpt><trkpt lat="42.111193977884085" lon="13.479221480247801"><ele>1105.0</ele><time>2026-05-02T13:12:23Z</time></trkpt><trkpt lat="42.11113435763334" lon="13.478997543435943"><ele>1108.0</ele><time>2026-05-02T13:12:24Z</time></trkpt><trkpt lat="42.111075445227414" lon="13.478787457658822"><ele>1109.0</ele><time>2026-05-02T13:12:25Z</time></trkpt><trkpt lat="42.11102733764849" lon="13.47859050353363"><ele>1110.0</ele><time>2026-05-02T13:12:26Z</time></trkpt><trkpt lat="42.11099448779566" lon="13.478392681860676"><ele>1111.0</ele><time>2026-05-02T13:12:27Z</time></trkpt><trkpt lat="42.11098140162664" lon="13.478190643260621"><ele>1111.0</ele><time>2026-05-02T13:12:28Z</time></trkpt><trkpt lat="42.11097465473927" lon="13.477983328973918"><ele>1111.0</ele><time>2026-05-02T13:12:29Z</time></trkpt><trkpt lat="42.11096113139392" lon="13.477770153445915"><ele>1111.0</ele><time>2026-05-02T13:12:30Z</time></trkpt><trkpt lat="42.11093451082092" lon="13.477555131960688"><ele>1110.6666666666665</ele><time>2026-05-02T13:12:31Z</time></trkpt><trkpt lat="42.11089145790593" lon="13.477343848362496"><ele>1110.3333333333333</ele><time>2026-05-02T13:12:32Z</time></trkpt><trkpt lat="42.11082759309323" lon="13.47714311060634"><ele>1110.0</ele><time>2026-05-02T13:12:33Z</time></trkpt><trkpt lat="42.1107381780898" lon="13.476951591391662"><ele>1105.6666666666667</ele><time>2026-05-02T13:12:34Z</time></trkpt><trkpt lat="42.11063425022483" lon="13.476768401136436"><ele>1101.3333333333335</ele><time>2026-05-02T13:12:35Z</time></trkpt><trkpt lat="42.11052798185883" lon="13.476596410716416"><ele>1097.0</ele><time>2026-05-02T13:12:36Z</time></trkpt><trkpt lat="42.11043152031541" lon="13.476429119952147"><ele>1098.6666666666667</ele><time>2026-05-02T13:12:37Z</time></trkpt><trkpt lat="42.11035087286693" lon="13.476251063648617"><ele>1100.3333333333333</ele><time>2026-05-02T13:12:38Z</time></trkpt><trkpt lat="42.110283735913164" lon="13.47605250269213"><ele>1102.0</ele><time>2026-05-02T13:12:39Z</time></trkpt><trkpt lat="42.110231049399154" lon="13.475839756208732"><ele>1102.0</ele><time>2026-05-02T13:12:40Z</time></trkpt><trkpt lat="42.11018613911092" lon="13.475615218028372"><ele>1102.0</ele><time>2026-05-02T13:12:41Z</time></trkpt><trkpt lat="42.1101501062808" lon="13.47538708468412"><ele>1102.0</ele><time>2026-05-02T13:12:42Z</time></trkpt><trkpt lat="42.110112951286666" lon="13.47515517863488"><ele>1101.6666666666665</ele><time>2026-05-02T13:12:43Z</time></trkpt><trkpt lat="42.11006430693857" lon="13.47492913405752"><ele>1101.3333333333333</ele><time>2026-05-02T13:12:44Z</time></trkpt><trkpt lat="42.109994673743586" lon="13.474709922558992"><ele>1101.0</ele><time>2026-05-02T13:12:45Z</time></trkpt><trkpt lat="42.10990876173501" lon="13.474500779141742"><ele>1097.0</ele><time>2026-05-02T13:12:46Z</time></trkpt><trkpt lat="42.109818891350976" lon="13.47429179442474"><ele>1093.0</ele><time>2026-05-02T13:12:47Z</time></trkpt><trkpt lat="42.10973187639446" lon="13.474084060505369"><ele>1089.0</ele><time>2026-05-02T13:12:48Z</time></trkpt><trkpt lat="42.1096430858881" lon="13.473876574072255"><ele>1090.6666666666667</ele><time>2026-05-02T13:12:49Z</time></trkpt><trkpt lat="42.10955529727807" lon="13.473670635030812"><ele>1092.3333333333335</ele><time>2026-05-02T13:12:50Z</time></trkpt><trkpt lat="42.109467645630126" lon="13.473464278505112"><ele>1094.0</ele><time>2026-05-02T13:12:51Z</time></trkpt><trkpt lat="42.10938240849876" lon="13.473257942923423"><ele>1094.0</ele><time>2026-05-02T13:12:52Z</time></trkpt><trkpt lat="42.1092971649087" lon="13.473049920888634"><ele>1094.0</ele><time>2026-05-02T13:12:53Z</time></trkpt><trkpt lat="42.10921780151519" lon="13.472831039115173"><ele>1094.0</ele><time>2026-05-02T13:12:54Z</time></trkpt><trkpt lat="42.10915025699028" lon="13.472600666213141"><ele>1095.0</ele><time>2026-05-02T13:12:55Z</time></trkpt><trkpt lat="42.109093272687495" lon="13.47236084659482"><ele>1096.0</ele><time>2026-05-02T13:12:56Z</time></trkpt><trkpt lat="42.109035058025746" lon="13.472119007233525"><ele>1097.0</ele><time>2026-05-02T13:12:57Z</time></trkpt><trkpt lat="42.10897197400889" lon="13.471877925065215"><ele>1095.0</ele><time>2026-05-02T13:12:58Z</time></trkpt><trkpt lat="42.108914591324826" lon="13.471650470586981"><ele>1093.0</ele><time>2026-05-02T13:12:59Z</time></trkpt><trkpt lat="42.10886825367076" lon="13.471436727366068"><ele>1091.0</ele><time>2026-05-02T13:13:00Z</time></trkpt><trkpt lat="42.108838571366746" lon="13.471235289380282"><ele>1091.0</ele><time>2026-05-02T13:13:01Z</time></trkpt><trkpt lat="42.108825034153305" lon="13.471020549761208"><ele>1091.0</ele><time>2026-05-02T13:13:02Z</time></trkpt><trkpt lat="42.10882881982945" lon="13.470799196716827"><ele>1091.0</ele><time>2026-05-02T13:13:03Z</time></trkpt><trkpt lat="42.10883699995984" lon="13.470572796737201"><ele>1089.6666666666667</ele><time>2026-05-02T13:13:04Z</time></trkpt><trkpt lat="42.108839894721974" lon="13.470340677266702"><ele>1088.3333333333333</ele><time>2026-05-02T13:13:05Z</time></trkpt><trkpt lat="42.1088327888901" lon="13.470109856202905"><ele>1087.0</ele><time>2026-05-02T13:13:06Z</time></trkpt><trkpt lat="42.10880400938977" lon="13.469885225602498"><ele>1087.0</ele><time>2026-05-02T13:13:07Z</time></trkpt><trkpt lat="42.10874838821254" lon="13.469660742213215"><ele>1087.0</ele><time>2026-05-02T13:13:08Z</time></trkpt><trkpt lat="42.10867466028226" lon="13.469438460864925"><ele>1087.0</ele><time>2026-05-02T13:13:09Z</time></trkpt><trkpt lat="42.10859320147027" lon="13.469218358207437"><ele>1086.6666666666665</ele><time>2026-05-02T13:13:10Z</time></trkpt><trkpt lat="42.10851667510166" lon="13.468999361956854"><ele>1086.3333333333333</ele><time>2026-05-02T13:13:11Z</time></trkpt><trkpt lat="42.1084414950985" lon="13.468778846666062"><ele>1086.0</ele><time>2026-05-02T13:13:12Z</time></trkpt><trkpt lat="42.10836391714988" lon="13.468566124988955"><ele>1086.6666666666667</ele><time>2026-05-02T13:13:13Z</time></trkpt><trkpt lat="42.10828522814411" lon="13.468351158162784"><ele>1087.3333333333335</ele><time>2026-05-02T13:13:14Z</time></trkpt><trkpt lat="42.10820753031155" lon="13.468135373049765"><ele>1088.0</ele><time>2026-05-02T13:13:15Z</time></trkpt><trkpt lat="42.10812900376316" lon="13.467921445341252"><ele>1088.0</ele><time>2026-05-02T13:13:16Z</time></trkpt><trkpt lat="42.10805137367846" lon="13.467708583869054"><ele>1088.0</ele><time>2026-05-02T13:13:17Z</time></trkpt><trkpt lat="42.10797616724432" lon="13.467495694905777"><ele>1088.0</ele><time>2026-05-02T13:13:18Z</time></trkpt><trkpt lat="42.107903152179304" lon="13.467287618487541"><ele>1089.6666666666667</ele><time>2026-05-02T13:13:19Z</time></trkpt><trkpt lat="42.10782795348214" lon="13.467082175198223"><ele>1091.3333333333333</ele><time>2026-05-02T13:13:20Z</time></trkpt><trkpt lat="42.107753680978" lon="13.46688170259689"><ele>1093.0</ele><time>2026-05-02T13:13:21Z</time></trkpt><trkpt lat="42.107684578602765" lon="13.466686488661152"><ele>1093.0</ele><time>2026-05-02T13:13:22Z</time></trkpt><trkpt lat="42.10761571862141" lon="13.46649630219848"><ele>1093.0</ele><time>2026-05-02T13:13:23Z</time></trkpt><trkpt lat="42.10755141992027" lon="13.466319430120643"><ele>1093.0</ele><time>2026-05-02T13:13:24Z</time></trkpt><trkpt lat="42.10749138884124" lon="13.466140326243574"><ele>1093.0</ele><time>2026-05-02T13:13:25Z</time></trkpt><trkpt lat="42.10744157070905" lon="13.465955259326197"><ele>1094.0</ele><time>2026-05-02T13:13:26Z</time></trkpt><trkpt lat="42.10740225128187" lon="13.465760423255414"><ele>1095.0</ele><time>2026-05-02T13:13:27Z</time></trkpt><trkpt lat="42.10738004627657" lon="13.465558735527374"><ele>1096.0</ele><time>2026-05-02T13:13:28Z</time></trkpt><trkpt lat="42.107381120268805" lon="13.465354017257326"><ele>1096.0</ele><time>2026-05-02T13:13:29Z</time></trkpt><trkpt lat="42.10740405674449" lon="13.465147872641035"><ele>1096.0</ele><time>2026-05-02T13:13:30Z</time></trkpt><trkpt lat="42.107445631152025" lon="13.464943637459251"><ele>1096.0</ele><time>2026-05-02T13:13:31Z</time></trkpt><trkpt lat="42.10751299230909" lon="13.464744625380598"><ele>1097.0</ele><time>2026-05-02T13:13:32Z</time></trkpt><trkpt lat="42.10760745009115" lon="13.464557588302004"><ele>1098.0</ele><time>2026-05-02T13:13:33Z</time></trkpt><trkpt lat="42.10771913383999" lon="13.464366154271554"><ele>1099.0</ele><time>2026-05-02T13:13:34Z</time></trkpt><trkpt lat="42.10783150262794" lon="13.46415856006817"><ele>1099.0</ele><time>2026-05-02T13:13:35Z</time></trkpt><trkpt lat="42.107943681610244" lon="13.463949042675093"><ele>1099.0</ele><time>2026-05-02T13:13:36Z</time></trkpt><trkpt lat="42.10806209439623" lon="13.463729500332894"><ele>1099.0</ele><time>2026-05-02T13:13:37Z</time></trkpt><trkpt lat="42.108179879763455" lon="13.463510219462506"><ele>1101.6666666666665</ele><time>2026-05-02T13:13:38Z</time></trkpt><trkpt lat="42.10829216921719" lon="13.46329966716978"><ele>1104.3333333333333</ele><time>2026-05-02T13:13:39Z</time></trkpt><trkpt lat="42.10838672303742" lon="13.463100855885447"><ele>1107.0</ele><time>2026-05-02T13:13:40Z</time></trkpt><trkpt lat="42.10846450723017" lon="13.462916635320832"><ele>1108.0</ele><time>2026-05-02T13:13:41Z</time></trkpt><trkpt lat="42.10852428967722" lon="13.4627378055723"><ele>1109.0</ele><time>2026-05-02T13:13:42Z</time></trkpt><trkpt lat="42.108574978791054" lon="13.462558056942745"><ele>1110.0</ele><time>2026-05-02T13:13:43Z</time></trkpt><trkpt lat="42.108613351439544" lon="13.462394837826679"><ele>1111.0</ele><time>2026-05-02T13:13:44Z</time></trkpt><trkpt lat="42.10865001393348" lon="13.462239813076337"><ele>1111.1666666666665</ele><time>2026-05-02T13:13:45Z</time></trkpt><trkpt lat="42.10868270773485" lon="13.462108253716206"><ele>1111.3333333333333</ele><time>2026-05-02T13:13:46Z</time></trkpt><trkpt lat="42.108712296384795" lon="13.462002752621803"><ele>1111.5</ele><time>2026-05-02T13:13:47Z</time></trkpt><trkpt lat="42.10873596073869" lon="13.461920022844092"><ele>1111.6666666666667</ele><time>2026-05-02T13:13:48Z</time></trkpt><trkpt lat="42.10875856997154" lon="13.46177773550052"><ele>1111.8333333333335</ele><time>2026-05-02T13:13:50Z</time></trkpt><trkpt lat="42.10879443597566" lon="13.46168160933469"><ele>1112.0</ele><time>2026-05-02T13:13:52Z</time></trkpt><trkpt lat="42.10871477160971" lon="13.461512419378495"><ele>1112.0</ele><time>2026-05-02T13:13:55Z</time></trkpt><trkpt lat="42.10870090860212" lon="13.461393694222094"><ele>1112.0</ele><time>2026-05-02T13:13:57Z</time></trkpt><trkpt lat="42.10867457688096" lon="13.46128092580208"><ele>1112.0</ele><time>2026-05-02T13:13:59Z</time></trkpt><trkpt lat="42.10861359839304" lon="13.461185834717606"><ele>1112.0</ele><time>2026-05-02T13:14:01Z</time></trkpt><trkpt lat="42.10863819474945" lon="13.461087543722039"><ele>1112.0</ele><time>2026-05-02T13:14:02Z</time></trkpt><trkpt lat="42.10860768191102" lon="13.46094319896647"><ele>1110.6</ele><time>2026-05-02T13:14:04Z</time></trkpt><trkpt lat="42.10857425363224" lon="13.460817512971428"><ele>1109.2</ele><time>2026-05-02T13:14:06Z</time></trkpt><trkpt lat="42.1085548858054" lon="13.460684872555465"><ele>1107.8</ele><time>2026-05-02T13:14:08Z</time></trkpt><trkpt lat="42.10852816291678" lon="13.46054362272374"><ele>1106.4</ele><time>2026-05-02T13:14:10Z</time></trkpt><trkpt lat="42.10849296558806" lon="13.46040594218678"><ele>1105.0</ele><time>2026-05-02T13:14:12Z</time></trkpt><trkpt lat="42.108444653679115" lon="13.460263445138386"><ele>1103.0</ele><time>2026-05-02T13:14:14Z</time></trkpt><trkpt lat="42.108427656098385" lon="13.460138763859726"><ele>1101.0</ele><time>2026-05-02T13:14:16Z</time></trkpt><trkpt lat="42.10845724330034" lon="13.46005177328895"><ele>1099.0</ele><time>2026-05-02T13:14:18Z</time></trkpt><trkpt lat="42.108521740891895" lon="13.459968318382211"><ele>1097.0</ele><time>2026-05-02T13:14:20Z</time></trkpt><trkpt lat="42.10856741894502" lon="13.459858670161589"><ele>1095.0</ele><time>2026-05-02T13:14:22Z</time></trkpt><trkpt lat="42.10857981941745" lon="13.45974340054908"><ele>1093.0</ele><time>2026-05-02T13:14:24Z</time></trkpt><trkpt lat="42.108570353534475" lon="13.459616439677673"><ele>1090.8</ele><time>2026-05-02T13:14:26Z</time></trkpt><trkpt lat="42.108555344614665" lon="13.45948994128324"><ele>1088.6</ele><time>2026-05-02T13:14:28Z</time></trkpt><trkpt lat="42.10853802876361" lon="13.459343999586052"><ele>1086.4</ele><time>2026-05-02T13:14:30Z</time></trkpt><trkpt lat="42.10850644026777" lon="13.459204038083332"><ele>1084.2</ele><time>2026-05-02T13:14:32Z</time></trkpt><trkpt lat="42.108499927140656" lon="13.459044456457347"><ele>1082.0</ele><time>2026-05-02T13:14:34Z</time></trkpt><trkpt lat="42.10849092556321" lon="13.458896037501992"><ele>1080.7142857142858</ele><time>2026-05-02T13:14:36Z</time></trkpt><trkpt lat="42.10849890642921" lon="13.458770276102014"><ele>1079.4285714285716</ele><time>2026-05-02T13:14:38Z</time></trkpt><trkpt lat="42.10851831761245" lon="13.458672725503119"><ele>1078.142857142857</ele><time>2026-05-02T13:14:40Z</time></trkpt><trkpt lat="42.108528365004844" lon="13.45857185919887"><ele>1076.857142857143</ele><time>2026-05-02T13:14:42Z</time></trkpt><trkpt lat="42.10852803068262" lon="13.458484830916415"><ele>1075.5714285714284</ele><time>2026-05-02T13:14:44Z</time></trkpt><trkpt lat="42.10853882039894" lon="13.458398967316183"><ele>1074.2857142857142</ele><time>2026-05-02T13:14:46Z</time></trkpt><trkpt lat="42.108546815050246" lon="13.458301878920803"><ele>1073.0</ele><time>2026-05-02T13:14:48Z</time></trkpt><trkpt lat="42.108549751494344" lon="13.458181650770568"><ele>1073.0</ele><time>2026-05-02T13:14:50Z</time></trkpt><trkpt lat="42.108548983787095" lon="13.458042432606804"><ele>1073.0</ele><time>2026-05-02T13:14:52Z</time></trkpt><trkpt lat="42.10855886448965" lon="13.457905456921596"><ele>1073.0</ele><time>2026-05-02T13:14:54Z</time></trkpt><trkpt lat="42.10859129841477" lon="13.457778606895658"><ele>1073.0</ele><time>2026-05-02T13:14:56Z</time></trkpt><trkpt lat="42.10862200187698" lon="13.457695925106378"><ele>1073.0</ele><time>2026-05-02T13:14:57Z</time></trkpt><trkpt lat="42.10864861148275" lon="13.457609198539004"><ele>1073.0</ele><time>2026-05-02T13:14:58Z</time></trkpt><trkpt lat="42.10866283999681" lon="13.457525947523479"><ele>1070.75</ele><time>2026-05-02T13:14:59Z</time></trkpt><trkpt lat="42.10865299056631" lon="13.457370203961457"><ele>1068.5</ele><time>2026-05-02T13:15:01Z</time></trkpt><trkpt lat="42.108643155232585" lon="13.457203955605621"><ele>1066.25</ele><time>2026-05-02T13:15:03Z</time></trkpt><trkpt lat="42.108645231172076" lon="13.457046557841865"><ele>1064.0</ele><time>2026-05-02T13:15:05Z</time></trkpt><trkpt lat="42.10864352132677" lon="13.45691447612457"><ele>1061.5</ele><time>2026-05-02T13:15:07Z</time></trkpt><trkpt lat="42.10867139984444" lon="13.456759939491576"><ele>1059.0</ele><time>2026-05-02T13:15:09Z</time></trkpt><trkpt lat="42.10867365861925" lon="13.456610329631745"><ele>1056.5</ele><time>2026-05-02T13:15:11Z</time></trkpt><trkpt lat="42.10866487447486" lon="13.456454959852643"><ele>1054.0</ele><time>2026-05-02T13:15:13Z</time></trkpt><trkpt lat="42.10865252956205" lon="13.456311840076317"><ele>1052.6000000000001</ele><time>2026-05-02T13:15:15Z</time></trkpt><trkpt lat="42.108629540417105" lon="13.456164850763592"><ele>1051.2</ele><time>2026-05-02T13:15:17Z</time></trkpt><trkpt lat="42.10858226007698" lon="13.456023146267063"><ele>1049.8000000000002</ele><time>2026-05-02T13:15:19Z</time></trkpt><trkpt lat="42.108554319938605" lon="13.455944332899803"><ele>1048.4</ele><time>2026-05-02T13:15:20Z</time></trkpt><trkpt lat="42.1085282844149" lon="13.455810045824833"><ele>1047.0</ele><time>2026-05-02T13:15:22Z</time></trkpt><trkpt lat="42.10849533803683" lon="13.455679309848286"><ele>1047.0</ele><time>2026-05-02T13:15:24Z</time></trkpt><trkpt lat="42.108467592473495" lon="13.455566384402834"><ele>1047.0</ele><time>2026-05-02T13:15:26Z</time></trkpt><trkpt lat="42.10845083858405" lon="13.45541973235986"><ele>1047.0</ele><time>2026-05-02T13:15:28Z</time></trkpt><trkpt lat="42.108427567204785" lon="13.455287485779355"><ele>1047.0</ele><time>2026-05-02T13:15:30Z</time></trkpt><trkpt lat="42.108402552919415" lon="13.455146373550244"><ele>1047.0</ele><time>2026-05-02T13:15:32Z</time></trkpt><trkpt lat="42.10837686193616" lon="13.454984950399307"><ele>1045.8</ele><time>2026-05-02T13:15:34Z</time></trkpt><trkpt lat="42.108343071586525" lon="13.454827886187845"><ele>1044.6</ele><time>2026-05-02T13:15:36Z</time></trkpt><trkpt lat="42.10832986627257" lon="13.45467362474468"><ele>1043.3999999999999</ele><time>2026-05-02T13:15:38Z</time></trkpt><trkpt lat="42.108303422988115" lon="13.454596576433392"><ele>1042.2</ele><time>2026-05-02T13:15:39Z</time></trkpt><trkpt lat="42.108298636966936" lon="13.454507607664748"><ele>1041.0</ele><time>2026-05-02T13:15:40Z</time></trkpt><trkpt lat="42.108270556547296" lon="13.454332329771631"><ele>1040.2857142857142</ele><time>2026-05-02T13:15:42Z</time></trkpt><trkpt lat="42.10827386935494" lon="13.45424376782464"><ele>1039.5714285714287</ele><time>2026-05-02T13:15:43Z</time></trkpt><trkpt lat="42.10826919991075" lon="13.454151238206716"><ele>1038.857142857143</ele><time>2026-05-02T13:15:44Z</time></trkpt><trkpt lat="42.1082657935482" lon="13.454064943674863"><ele>1038.142857142857</ele><time>2026-05-02T13:15:45Z</time></trkpt><trkpt lat="42.10825032200494" lon="13.453981319586642"><ele>1037.4285714285716</ele><time>2026-05-02T13:15:46Z</time></trkpt><trkpt lat="42.108239873227454" lon="13.453818117236851"><ele>1036.7142857142858</ele><time>2026-05-02T13:15:48Z</time></trkpt><trkpt lat="42.10822733567546" lon="13.453732334560767"><ele>1036.0</ele><time>2026-05-02T13:15:49Z</time></trkpt><trkpt lat="42.10822070947668" lon="13.453637266568673"><ele>1033.3333333333333</ele><time>2026-05-02T13:15:50Z</time></trkpt><trkpt lat="42.10821243478765" lon="13.453547219793219"><ele>1030.6666666666665</ele><time>2026-05-02T13:15:51Z</time></trkpt><trkpt lat="42.108187434899676" lon="13.453376269703247"><ele>1028.0</ele><time>2026-05-02T13:15:53Z</time></trkpt><trkpt lat="42.10815497061534" lon="13.453288018350625"><ele>1025.3333333333333</ele><time>2026-05-02T13:15:54Z</time></trkpt><trkpt lat="42.1081336120121" lon="13.453176669560488"><ele>1022.6666666666666</ele><time>2026-05-02T13:15:55Z</time></trkpt><trkpt lat="42.108111149773706" lon="13.453092418444069"><ele>1020.0</ele><time>2026-05-02T13:15:56Z</time></trkpt><trkpt lat="42.108090256623676" lon="13.45300836581633"><ele>1019.0</ele><time>2026-05-02T13:15:57Z</time></trkpt><trkpt lat="42.108063685471144" lon="13.452849013906302"><ele>1018.0</ele><time>2026-05-02T13:15:59Z</time></trkpt><trkpt lat="42.10805552363494" lon="13.4527473578503"><ele>1017.0</ele><time>2026-05-02T13:16:00Z</time></trkpt><trkpt lat="42.1080525663733" lon="13.452647802126497"><ele>1016.0</ele><time>2026-05-02T13:16:01Z</time></trkpt><trkpt lat="42.10803502251575" lon="13.452552173112512"><ele>1015.0</ele><time>2026-05-02T13:16:02Z</time></trkpt><trkpt lat="42.10805195506995" lon="13.452466794152365"><ele>1014.0</ele><time>2026-05-02T13:16:03Z</time></trkpt><trkpt lat="42.108054281666575" lon="13.452298290427452"><ele>1014.0</ele><time>2026-05-02T13:16:05Z</time></trkpt><trkpt lat="42.108054308332" lon="13.45219562420652"><ele>1014.0</ele><time>2026-05-02T13:16:06Z</time></trkpt><trkpt lat="42.10805143404708" lon="13.452108665136878"><ele>1014.0</ele><time>2026-05-02T13:16:07Z</time></trkpt><trkpt lat="42.1080249150452" lon="13.45196018893189"><ele>1014.0</ele><time>2026-05-02T13:16:09Z</time></trkpt><trkpt lat="42.107999795208556" lon="13.451875785041842"><ele>1014.0</ele><time>2026-05-02T13:16:10Z</time></trkpt><trkpt lat="42.107986281417546" lon="13.451781456760934"><ele>1014.0</ele><time>2026-05-02T13:16:11Z</time></trkpt><trkpt lat="42.10795929313506" lon="13.45162300147291"><ele>1014.0</ele><time>2026-05-02T13:16:13Z</time></trkpt><trkpt lat="42.1079493526437" lon="13.451488990631452"><ele>1014.0</ele><time>2026-05-02T13:16:15Z</time></trkpt><trkpt lat="42.107961933180185" lon="13.451382611056603"><ele>1014.0</ele><time>2026-05-02T13:16:18Z</time></trkpt><trkpt lat="42.10796383003978" lon="13.451270700806454"><ele>1014.0</ele><time>2026-05-02T13:16:21Z</time></trkpt><trkpt lat="42.10770542920781" lon="13.450814390551734"><ele>1013.8333333333334</ele><time>2026-05-02T13:16:35Z</time></trkpt><trkpt lat="42.107657035551995" lon="13.450712649855387"><ele>1013.6666666666667</ele><time>2026-05-02T13:16:36Z</time></trkpt><trkpt lat="42.107611475686326" lon="13.450611123774381"><ele>1013.5</ele><time>2026-05-02T13:16:37Z</time></trkpt><trkpt lat="42.107568664811346" lon="13.450521894582748"><ele>1013.3333333333334</ele><time>2026-05-02T13:16:38Z</time></trkpt><trkpt lat="42.10752365315766" lon="13.450425241366089"><ele>1013.1666666666667</ele><time>2026-05-02T13:16:39Z</time></trkpt><trkpt lat="42.10748179037222" lon="13.450327462986742"><ele>1013.0</ele><time>2026-05-02T13:16:40Z</time></trkpt><trkpt lat="42.10744117566693" lon="13.45023609802698"><ele>1011.6666666666667</ele><time>2026-05-02T13:16:41Z</time></trkpt><trkpt lat="42.10738805433527" lon="13.450138745549879"><ele>1010.3333333333334</ele><time>2026-05-02T13:16:42Z</time></trkpt><trkpt lat="42.107346767404785" lon="13.45005802077979"><ele>1009.0</ele><time>2026-05-02T13:16:43Z</time></trkpt><trkpt lat="42.107310918430485" lon="13.449969679186053"><ele>1007.6666666666667</ele><time>2026-05-02T13:16:44Z</time></trkpt><trkpt lat="42.107259974335676" lon="13.449875711537084"><ele>1006.3333333333334</ele><time>2026-05-02T13:16:45Z</time></trkpt><trkpt lat="42.10721542347447" lon="13.449791106113448"><ele>1005.0</ele><time>2026-05-02T13:16:46Z</time></trkpt><trkpt lat="42.10716964373798" lon="13.449698359030439"><ele>1004.5714285714287</ele><time>2026-05-02T13:16:47Z</time></trkpt><trkpt lat="42.10712862405547" lon="13.44962311361401"><ele>1004.1428571428571</ele><time>2026-05-02T13:16:48Z</time></trkpt><trkpt lat="42.107091456650636" lon="13.449545754191766"><ele>1003.7142857142858</ele><time>2026-05-02T13:16:49Z</time></trkpt><trkpt lat="42.10705129816894" lon="13.44946620629401"><ele>1003.2857142857143</ele><time>2026-05-02T13:16:50Z</time></trkpt><trkpt lat="42.10700428521865" lon="13.449382345298993"><ele>1002.8571428571429</ele><time>2026-05-02T13:16:51Z</time></trkpt><trkpt lat="42.10695901203616" lon="13.44929334736398"><ele>1002.4285714285714</ele><time>2026-05-02T13:16:52Z</time></trkpt><trkpt lat="42.10692234109374" lon="13.449199288045305"><ele>1002.0</ele><time>2026-05-02T13:16:53Z</time></trkpt><trkpt lat="42.10688716726635" lon="13.44909940442452"><ele>1002.0</ele><time>2026-05-02T13:16:54Z</time></trkpt><trkpt lat="42.10684970864512" lon="13.44901225341975"><ele>1002.0</ele><time>2026-05-02T13:16:55Z</time></trkpt><trkpt lat="42.10681321649944" lon="13.448910179097373"><ele>1002.0</ele><time>2026-05-02T13:16:56Z</time></trkpt><trkpt lat="42.106772503082695" lon="13.44881282294551"><ele>1002.0</ele><time>2026-05-02T13:16:57Z</time></trkpt><trkpt lat="42.106738503926664" lon="13.44871035267476"><ele>1002.0</ele><time>2026-05-02T13:16:58Z</time></trkpt><trkpt lat="42.10670557084903" lon="13.44861777216994"><ele>1002.0</ele><time>2026-05-02T13:16:59Z</time></trkpt><trkpt lat="42.10667257854873" lon="13.448535461889746"><ele>1001.6666666666666</ele><time>2026-05-02T13:17:00Z</time></trkpt><trkpt lat="42.10664157792056" lon="13.448447561052575"><ele>1001.3333333333333</ele><time>2026-05-02T13:17:01Z</time></trkpt><trkpt lat="42.106585585515795" lon="13.448315850400267"><ele>1001.0</ele><time>2026-05-02T13:17:03Z</time></trkpt><trkpt lat="42.10654010180751" lon="13.448209334370867"><ele>1000.6666666666666</ele><time>2026-05-02T13:17:05Z</time></trkpt><trkpt lat="42.10646286079432" lon="13.448110518818796"><ele>1000.3333333333333</ele><time>2026-05-02T13:17:07Z</time></trkpt><trkpt lat="42.10640049857085" lon="13.448092027687844"><ele>1000.0</ele><time>2026-05-02T13:17:08Z</time></trkpt><trkpt lat="42.106333295231146" lon="13.448082074492334"><ele>998.9999999999999</ele><time>2026-05-02T13:17:09Z</time></trkpt><trkpt lat="42.10625901971268" lon="13.448063753434095"><ele>998.0</ele><time>2026-05-02T13:17:10Z</time></trkpt><trkpt lat="42.106179778383975" lon="13.448041005534652"><ele>997.0</ele><time>2026-05-02T13:17:11Z</time></trkpt><trkpt lat="42.10609968855196" lon="13.448018519998785"><ele>996.0</ele><time>2026-05-02T13:17:12Z</time></trkpt><trkpt lat="42.10603507477129" lon="13.447992390978095"><ele>994.9999999999999</ele><time>2026-05-02T13:17:13.001Z</time></trkpt><trkpt lat="42.10595066641965" lon="13.447923368599087"><ele>994.0</ele><time>2026-05-02T13:17:15.001Z</time></trkpt><trkpt lat="42.1059143453966" lon="13.447842324869944"><ele>993.6666666666666</ele><time>2026-05-02T13:17:17.001Z</time></trkpt><trkpt lat="42.1058757645938" lon="13.447740036016944"><ele>993.3333333333333</ele><time>2026-05-02T13:17:19.001Z</time></trkpt><trkpt lat="42.10584144531668" lon="13.447634393545357"><ele>993.0</ele><time>2026-05-02T13:17:21Z</time></trkpt><trkpt lat="42.105814261014466" lon="13.447546081816736"><ele>992.6666666666667</ele><time>2026-05-02T13:17:27Z</time></trkpt><trkpt lat="42.10578181854607" lon="13.447459939441163"><ele>992.3333333333334</ele><time>2026-05-02T13:17:29Z</time></trkpt><trkpt lat="42.105769260183955" lon="13.44733861108053"><ele>992.0</ele><time>2026-05-02T13:17:31Z</time></trkpt><trkpt lat="42.10575349309436" lon="13.447247582838123"><ele>991.1666666666667</ele><time>2026-05-02T13:17:32Z</time></trkpt><trkpt lat="42.10573713798259" lon="13.447149797527448"><ele>990.3333333333334</ele><time>2026-05-02T13:17:33Z</time></trkpt><trkpt lat="42.10571971982236" lon="13.447058990456302"><ele>989.5</ele><time>2026-05-02T13:17:34Z</time></trkpt><trkpt lat="42.105714027205764" lon="13.446896250295989"><ele>988.6666666666667</ele><time>2026-05-02T13:17:36Z</time></trkpt><trkpt lat="42.10572613639596" lon="13.446812971565926"><ele>987.8333333333334</ele><time>2026-05-02T13:17:37Z</time></trkpt><trkpt lat="42.1057766307814" lon="13.446664724881405"><ele>987.0</ele><time>2026-05-02T13:17:39Z</time></trkpt><trkpt lat="42.10582034255844" lon="13.446549287424082"><ele>986.8</ele><time>2026-05-02T13:17:41Z</time></trkpt><trkpt lat="42.10583149818772" lon="13.446422871853837"><ele>986.6</ele><time>2026-05-02T13:17:43Z</time></trkpt><trkpt lat="42.105793098421465" lon="13.446277762029176"><ele>986.3999999999999</ele><time>2026-05-02T13:17:45Z</time></trkpt><trkpt lat="42.105735430392755" lon="13.446176640379239"><ele>986.1999999999999</ele><time>2026-05-02T13:17:47Z</time></trkpt><trkpt lat="42.10568721099989" lon="13.44606937087971"><ele>986.0</ele><time>2026-05-02T13:17:49Z</time></trkpt><trkpt lat="42.10563347060362" lon="13.445937290202167"><ele>984.5000000000001</ele><time>2026-05-02T13:17:51Z</time></trkpt><trkpt lat="42.105583391391725" lon="13.445824862739718"><ele>983.0</ele><time>2026-05-02T13:17:53Z</time></trkpt><trkpt lat="42.10555308368456" lon="13.445747249749553"><ele>981.5</ele><time>2026-05-02T13:17:54Z</time></trkpt><trkpt lat="42.10551641509663" lon="13.445655405898732"><ele>980.0</ele><time>2026-05-02T13:17:55Z</time></trkpt><trkpt lat="42.10547362383162" lon="13.445577989406047"><ele>978.5000000000001</ele><time>2026-05-02T13:17:56Z</time></trkpt><trkpt lat="42.105413823349494" lon="13.445448798168417"><ele>977.0</ele><time>2026-05-02T13:17:58Z</time></trkpt><trkpt lat="42.10536030839172" lon="13.445286609310934"><ele>977.0</ele><time>2026-05-02T13:18:00Z</time></trkpt><trkpt lat="42.10533148876012" lon="13.445201223665856"><ele>977.0</ele><time>2026-05-02T13:18:01Z</time></trkpt><trkpt lat="42.10528065507927" lon="13.445030796952524"><ele>977.0</ele><time>2026-05-02T13:18:03Z</time></trkpt><trkpt lat="42.1052505859883" lon="13.44493017662767"><ele>977.0</ele><time>2026-05-02T13:18:04Z</time></trkpt><trkpt lat="42.105211276104384" lon="13.4448229653857"><ele>977.0</ele><time>2026-05-02T13:18:05Z</time></trkpt><trkpt lat="42.10516556022254" lon="13.444703256359455"><ele>976.6</ele><time>2026-05-02T13:18:06Z</time></trkpt><trkpt lat="42.105116138314024" lon="13.444581042492416"><ele>976.2</ele><time>2026-05-02T13:18:07Z</time></trkpt><trkpt lat="42.10506129501744" lon="13.44444848148934"><ele>975.8</ele><time>2026-05-02T13:18:08Z</time></trkpt><trkpt lat="42.10501132072306" lon="13.444314641062856"><ele>975.4</ele><time>2026-05-02T13:18:09Z</time></trkpt><trkpt lat="42.10496388983073" lon="13.444190742745645"><ele>975.0</ele><time>2026-05-02T13:18:10Z</time></trkpt><trkpt lat="42.10491588767606" lon="13.444074105446003"><ele>974.6666666666666</ele><time>2026-05-02T13:18:11Z</time></trkpt><trkpt lat="42.10487215011705" lon="13.44396666970766"><ele>974.3333333333333</ele><time>2026-05-02T13:18:12Z</time></trkpt><trkpt lat="42.104818670301036" lon="13.443860894769786"><ele>974.0</ele><time>2026-05-02T13:18:13Z</time></trkpt><trkpt lat="42.104758058940426" lon="13.443766463024605"><ele>973.6666666666666</ele><time>2026-05-02T13:18:14Z</time></trkpt><trkpt lat="42.104697503000175" lon="13.44368656866053"><ele>973.3333333333333</ele><time>2026-05-02T13:18:15Z</time></trkpt><trkpt lat="42.10465013484627" lon="13.443593643430804"><ele>973.0</ele><time>2026-05-02T13:18:16Z</time></trkpt><trkpt lat="42.10461917456559" lon="13.443487021284996"><ele>973.0</ele><time>2026-05-02T13:18:17Z</time></trkpt><trkpt lat="42.10458285903201" lon="13.4433469167948"><ele>973.0</ele><time>2026-05-02T13:18:18Z</time></trkpt><trkpt lat="42.10453464592354" lon="13.443211310252213"><ele>973.0</ele><time>2026-05-02T13:18:19Z</time></trkpt><trkpt lat="42.104469752912486" lon="13.443079274198006"><ele>973.0</ele><time>2026-05-02T13:18:20Z</time></trkpt><trkpt lat="42.10438575029765" lon="13.44295314567215"><ele>973.0</ele><time>2026-05-02T13:18:21Z</time></trkpt><trkpt lat="42.10429452452918" lon="13.442818997068464"><ele>973.0</ele><time>2026-05-02T13:18:22Z</time></trkpt><trkpt lat="42.10421977017222" lon="13.442701085890878"><ele>973.0</ele><time>2026-05-02T13:18:23Z</time></trkpt><trkpt lat="42.104161505202164" lon="13.442600177267192"><ele>973.0</ele><time>2026-05-02T13:18:24Z</time></trkpt><trkpt lat="42.104111381444945" lon="13.442496196142987"><ele>973.0</ele><time>2026-05-02T13:18:25Z</time></trkpt><trkpt lat="42.104061845550525" lon="13.442370603288675"><ele>972.25</ele><time>2026-05-02T13:18:26Z</time></trkpt><trkpt lat="42.10401299515637" lon="13.442224789005943"><ele>971.5</ele><time>2026-05-02T13:18:27Z</time></trkpt><trkpt lat="42.10395362082529" lon="13.442071593994504"><ele>970.75</ele><time>2026-05-02T13:18:28Z</time></trkpt><trkpt lat="42.103894723525386" lon="13.441914413331313"><ele>970.0</ele><time>2026-05-02T13:18:29Z</time></trkpt><trkpt lat="42.10383806425251" lon="13.441765269141607"><ele>970.0</ele><time>2026-05-02T13:18:30Z</time></trkpt><trkpt lat="42.103776959931466" lon="13.441621801515813"><ele>970.0</ele><time>2026-05-02T13:18:31Z</time></trkpt><trkpt lat="42.103711053615534" lon="13.441487527278651"><ele>970.0</ele><time>2026-05-02T13:18:32Z</time></trkpt><trkpt lat="42.10363779022757" lon="13.4413820896775"><ele>970.0</ele><time>2026-05-02T13:18:33Z</time></trkpt><trkpt lat="42.10355696687419" lon="13.441277737183368"><ele>970.4999999999999</ele><time>2026-05-02T13:18:34Z</time></trkpt><trkpt lat="42.10347933767306" lon="13.441173934375914"><ele>971.0</ele><time>2026-05-02T13:18:35Z</time></trkpt><trkpt lat="42.10341497074864" lon="13.441075244751348"><ele>971.5</ele><time>2026-05-02T13:18:36Z</time></trkpt><trkpt lat="42.103360546657285" lon="13.440978760212735"><ele>972.0</ele><time>2026-05-02T13:18:37Z</time></trkpt><trkpt lat="42.10331912780443" lon="13.440894745190846"><ele>972.4999999999999</ele><time>2026-05-02T13:18:38Z</time></trkpt><trkpt lat="42.103286767759485" lon="13.44081767219775"><ele>973.0</ele><time>2026-05-02T13:18:39Z</time></trkpt><trkpt lat="42.10324892411554" lon="13.440682763969924"><ele>972.8333333333333</ele><time>2026-05-02T13:18:41Z</time></trkpt><trkpt lat="42.103192382296974" lon="13.44058108079102"><ele>972.6666666666666</ele><time>2026-05-02T13:18:43Z</time></trkpt><trkpt lat="42.10313770696346" lon="13.44051909967679"><ele>972.5</ele><time>2026-05-02T13:18:44Z</time></trkpt><trkpt lat="42.10308690912521" lon="13.440449784126148"><ele>972.3333333333333</ele><time>2026-05-02T13:18:45Z</time></trkpt><trkpt lat="42.10303485352318" lon="13.440376418336074"><ele>972.1666666666666</ele><time>2026-05-02T13:18:46Z</time></trkpt><trkpt lat="42.10298088816061" lon="13.440302982376817"><ele>972.0</ele><time>2026-05-02T13:18:47Z</time></trkpt><trkpt lat="42.10291559203325" lon="13.440227640260181"><ele>972.0</ele><time>2026-05-02T13:18:48Z</time></trkpt><trkpt lat="42.10285062184582" lon="13.440159711710429"><ele>972.0</ele><time>2026-05-02T13:18:49Z</time></trkpt><trkpt lat="42.102775156387274" lon="13.440108083482004"><ele>972.0</ele><time>2026-05-02T13:18:50Z</time></trkpt><trkpt lat="42.102681542189934" lon="13.440063098420572"><ele>972.0</ele><time>2026-05-02T13:18:51Z</time></trkpt><trkpt lat="42.10258580034618" lon="13.440031640053617"><ele>972.0</ele><time>2026-05-02T13:18:52Z</time></trkpt><trkpt lat="42.10249690243768" lon="13.440001149501802"><ele>972.0</ele><time>2026-05-02T13:18:53Z</time></trkpt><trkpt lat="42.10242382850787" lon="13.439958159762535"><ele>972.0</ele><time>2026-05-02T13:18:54Z</time></trkpt><trkpt lat="42.102349833324794" lon="13.439891108225412"><ele>972.0</ele><time>2026-05-02T13:18:55Z</time></trkpt><trkpt lat="42.10227544789044" lon="13.439798145489561"><ele>972.0</ele><time>2026-05-02T13:18:56Z</time></trkpt><trkpt lat="42.10219070278657" lon="13.439674811662202"><ele>972.0</ele><time>2026-05-02T13:18:57Z</time></trkpt><trkpt lat="42.10210069643896" lon="13.439543243743593"><ele>973.0</ele><time>2026-05-02T13:18:58Z</time></trkpt><trkpt lat="42.10201776516509" lon="13.4394133342122"><ele>974.0</ele><time>2026-05-02T13:18:59Z</time></trkpt><trkpt lat="42.10194906804102" lon="13.439284512618592"><ele>975.0</ele><time>2026-05-02T13:19:00Z</time></trkpt><trkpt lat="42.101878321001436" lon="13.439166474009154"><ele>976.0</ele><time>2026-05-02T13:19:01Z</time></trkpt><trkpt lat="42.10179119119886" lon="13.439061325426412"><ele>976.0</ele><time>2026-05-02T13:19:02Z</time></trkpt><trkpt lat="42.10169898030874" lon="13.438964279811746"><ele>975.9999999999999</ele><time>2026-05-02T13:19:03Z</time></trkpt><trkpt lat="42.10162111547575" lon="13.438860379616667"><ele>975.9999999999999</ele><time>2026-05-02T13:19:04Z</time></trkpt><trkpt lat="42.101551559691764" lon="13.438755740892619"><ele>976.0</ele><time>2026-05-02T13:19:05Z</time></trkpt><trkpt lat="42.10148580214884" lon="13.438651451152728"><ele>976.0</ele><time>2026-05-02T13:19:06Z</time></trkpt><trkpt lat="42.10141810023041" lon="13.438537682466006"><ele>975.75</ele><time>2026-05-02T13:19:07Z</time></trkpt><trkpt lat="42.10135241811797" lon="13.438423522209261"><ele>975.5</ele><time>2026-05-02T13:19:08Z</time></trkpt><trkpt lat="42.10128992376043" lon="13.43829397380107"><ele>975.25</ele><time>2026-05-02T13:19:09Z</time></trkpt><trkpt lat="42.101229886040116" lon="13.438162671352744"><ele>975.0</ele><time>2026-05-02T13:19:10Z</time></trkpt><trkpt lat="42.10115005103519" lon="13.438035818359452"><ele>975.0</ele><time>2026-05-02T13:19:11Z</time></trkpt><trkpt lat="42.10106353035565" lon="13.437914946677445"><ele>975.0</ele><time>2026-05-02T13:19:12Z</time></trkpt><trkpt lat="42.100989541647635" lon="13.43779727694981"><ele>975.0</ele><time>2026-05-02T13:19:13Z</time></trkpt><trkpt lat="42.100924098879986" lon="13.437681566668248"><ele>975.0</ele><time>2026-05-02T13:19:14Z</time></trkpt><trkpt lat="42.10087491579009" lon="13.437588047447395"><ele>975.0</ele><time>2026-05-02T13:19:15Z</time></trkpt><trkpt lat="42.100830052392254" lon="13.437495525741715"><ele>975.0</ele><time>2026-05-02T13:19:16Z</time></trkpt><trkpt lat="42.10078702106202" lon="13.437420260886194"><ele>975.0</ele><time>2026-05-02T13:19:17Z</time></trkpt><trkpt lat="42.100724364311986" lon="13.437317862610673"><ele>975.0</ele><time>2026-05-02T13:19:19Z</time></trkpt><trkpt lat="42.10067588609026" lon="13.43722297253199"><ele>975.0</ele><time>2026-05-02T13:19:22Z</time></trkpt><trkpt lat="42.10060757674501" lon="13.437124592860624"><ele>975.0</ele><time>2026-05-02T13:19:24Z</time></trkpt><trkpt lat="42.10056221924845" lon="13.437038291878098"><ele>975.0</ele><time>2026-05-02T13:19:25Z</time></trkpt><trkpt lat="42.100501129519586" lon="13.436929273572092"><ele>974.4</ele><time>2026-05-02T13:19:26Z</time></trkpt><trkpt lat="42.10043923133174" lon="13.436809492839966"><ele>973.8</ele><time>2026-05-02T13:19:27Z</time></trkpt><trkpt lat="42.100389843133925" lon="13.436693569035294"><ele>973.2</ele><time>2026-05-02T13:19:28Z</time></trkpt><trkpt lat="42.10034175343566" lon="13.436585037595753"><ele>972.6</ele><time>2026-05-02T13:19:29Z</time></trkpt><trkpt lat="42.10028760058631" lon="13.436486521007266"><ele>972.0</ele><time>2026-05-02T13:19:30Z</time></trkpt><trkpt lat="42.10022615235209" lon="13.436383851390184"><ele>972.5</ele><time>2026-05-02T13:19:31Z</time></trkpt><trkpt lat="42.10016887580867" lon="13.436268032032109"><ele>973.0</ele><time>2026-05-02T13:19:32Z</time></trkpt><trkpt lat="42.100119404999646" lon="13.4361541351734"><ele>973.5</ele><time>2026-05-02T13:19:33Z</time></trkpt><trkpt lat="42.100080563898224" lon="13.436048176194321"><ele>974.0</ele><time>2026-05-02T13:19:34Z</time></trkpt><trkpt lat="42.10004370849894" lon="13.435959586395516"><ele>974.5</ele><time>2026-05-02T13:19:35Z</time></trkpt><trkpt lat="42.100008782986635" lon="13.435871101778865"><ele>975.0</ele><time>2026-05-02T13:19:36Z</time></trkpt><trkpt lat="42.09995409293624" lon="13.435725636614453"><ele>975.0</ele><time>2026-05-02T13:19:38Z</time></trkpt><trkpt lat="42.09992053147147" lon="13.435641128423827"><ele>975.0</ele><time>2026-05-02T13:19:39Z</time></trkpt><trkpt lat="42.0998707937504" lon="13.435500919509233"><ele>975.0</ele><time>2026-05-02T13:19:41Z</time></trkpt><trkpt lat="42.099842005286106" lon="13.435422607012937"><ele>975.0</ele><time>2026-05-02T13:19:42Z</time></trkpt><trkpt lat="42.09981124489815" lon="13.435332737215028"><ele>975.0</ele><time>2026-05-02T13:19:43Z</time></trkpt><trkpt lat="42.0997839113999" lon="13.435249463982169"><ele>975.0</ele><time>2026-05-02T13:19:44Z</time></trkpt><trkpt lat="42.09975424108096" lon="13.435159976030763"><ele>975.0</ele><time>2026-05-02T13:19:45Z</time></trkpt><trkpt lat="42.09972092966583" lon="13.435059442383391"><ele>975.0</ele><time>2026-05-02T13:19:46Z</time></trkpt><trkpt lat="42.09969267003781" lon="13.434972388214494"><ele>975.0</ele><time>2026-05-02T13:19:47Z</time></trkpt><trkpt lat="42.09965221925183" lon="13.43486323471816"><ele>975.0</ele><time>2026-05-02T13:19:48Z</time></trkpt><trkpt lat="42.099606528473544" lon="13.434744010000935"><ele>975.0</ele><time>2026-05-02T13:19:49Z</time></trkpt><trkpt lat="42.099553611703" lon="13.434621799469017"><ele>975.0</ele><time>2026-05-02T13:19:50Z</time></trkpt><trkpt lat="42.09950472145171" lon="13.434508375664707"><ele>975.0</ele><time>2026-05-02T13:19:51Z</time></trkpt><trkpt lat="42.099460805718074" lon="13.434403893454322"><ele>975.0</ele><time>2026-05-02T13:19:52Z</time></trkpt><trkpt lat="42.099430574459106" lon="13.434320297230162"><ele>975.0</ele><time>2026-05-02T13:19:53Z</time></trkpt><trkpt lat="42.09940652227446" lon="13.43423683739333"><ele>975.0</ele><time>2026-05-02T13:19:54Z</time></trkpt><trkpt lat="42.09936982512141" lon="13.434081305715358"><ele>975.0</ele><time>2026-05-02T13:19:56Z</time></trkpt><trkpt lat="42.09936211642556" lon="13.43397125191197"><ele>975.0</ele><time>2026-05-02T13:19:58Z</time></trkpt><trkpt lat="42.09931544587604" lon="13.433856592159678"><ele>974.4</ele><time>2026-05-02T13:20:01Z</time></trkpt><trkpt lat="42.099230562938885" lon="13.433763194418939"><ele>973.8</ele><time>2026-05-02T13:20:03Z</time></trkpt><trkpt lat="42.099165446046925" lon="13.433706380422635"><ele>973.2</ele><time>2026-05-02T13:20:04Z</time></trkpt><trkpt lat="42.09908340435142" lon="13.433625616862235"><ele>972.6</ele><time>2026-05-02T13:20:05Z</time></trkpt><trkpt lat="42.09899698370251" lon="13.433535949980214"><ele>972.0</ele><time>2026-05-02T13:20:06Z</time></trkpt><trkpt lat="42.098899665036804" lon="13.433438784206196"><ele>972.0</ele><time>2026-05-02T13:20:07Z</time></trkpt><trkpt lat="42.09879319233703" lon="13.433331905462294"><ele>972.0</ele><time>2026-05-02T13:20:08Z</time></trkpt><trkpt lat="42.09867755650679" lon="13.433219339894759"><ele>972.0</ele><time>2026-05-02T13:20:09Z</time></trkpt><trkpt lat="42.098558085067296" lon="13.43309733304134"><ele>972.0</ele><time>2026-05-02T13:20:10Z</time></trkpt><trkpt lat="42.098441278565495" lon="13.432981120512293"><ele>971.25</ele><time>2026-05-02T13:20:11Z</time></trkpt><trkpt lat="42.09833073013063" lon="13.432864978048334"><ele>970.5</ele><time>2026-05-02T13:20:12Z</time></trkpt><trkpt lat="42.09822333105244" lon="13.432757512508736"><ele>969.75</ele><time>2026-05-02T13:20:13Z</time></trkpt><trkpt lat="42.098124033588796" lon="13.43265644744848"><ele>969.0</ele><time>2026-05-02T13:20:14Z</time></trkpt><trkpt lat="42.09803851403023" lon="13.43256721768454"><ele>969.0</ele><time>2026-05-02T13:20:15Z</time></trkpt><trkpt lat="42.09797233552443" lon="13.432500526589191"><ele>969.0</ele><time>2026-05-02T13:20:16Z</time></trkpt><trkpt lat="42.09790568409866" lon="13.432422199770492"><ele>969.0</ele><time>2026-05-02T13:20:18Z</time></trkpt><trkpt lat="42.0980413507057" lon="13.43225650540694"><ele>969.0</ele><time>2026-05-02T13:20:25Z</time></trkpt><trkpt lat="42.09817680471545" lon="13.432332271205754"><ele>967.8000000000001</ele><time>2026-05-02T13:20:27Z</time></trkpt><trkpt lat="42.09827053137601" lon="13.43240542069317"><ele>966.6000000000001</ele><time>2026-05-02T13:20:28Z</time></trkpt><trkpt lat="42.098370065676995" lon="13.432490428633722"><ele>965.4</ele><time>2026-05-02T13:20:29Z</time></trkpt><trkpt lat="42.0984563404255" lon="13.432565935590883"><ele>964.2</ele><time>2026-05-02T13:20:30Z</time></trkpt><trkpt lat="42.09853877195501" lon="13.432636073972017"><ele>963.0</ele><time>2026-05-02T13:20:31Z</time></trkpt><trkpt lat="42.09861622262298" lon="13.432706294870187"><ele>963.0</ele><time>2026-05-02T13:20:32Z</time></trkpt><trkpt lat="42.09869094380053" lon="13.432770316027874"><ele>963.0</ele><time>2026-05-02T13:20:33Z</time></trkpt><trkpt lat="42.09876272472649" lon="13.43282998863264"><ele>963.0</ele><time>2026-05-02T13:20:34Z</time></trkpt><trkpt lat="42.09883669532228" lon="13.43287556705215"><ele>963.0</ele><time>2026-05-02T13:20:35Z</time></trkpt><trkpt lat="42.0989279333648" lon="13.43290940522858"><ele>963.0</ele><time>2026-05-02T13:20:36Z</time></trkpt><trkpt lat="42.09902451556228" lon="13.432940664897306"><ele>963.0</ele><time>2026-05-02T13:20:37Z</time></trkpt><trkpt lat="42.09911142860627" lon="13.432961247182735"><ele>964.2</ele><time>2026-05-02T13:20:38Z</time></trkpt><trkpt lat="42.09918730476298" lon="13.432978478645484"><ele>965.4</ele><time>2026-05-02T13:20:39Z</time></trkpt><trkpt lat="42.09929712383078" lon="13.43303474089881"><ele>966.6000000000001</ele><time>2026-05-02T13:20:41Z</time></trkpt><trkpt lat="42.09939016860468" lon="13.433110154819003"><ele>967.8000000000001</ele><time>2026-05-02T13:20:43Z</time></trkpt><trkpt lat="42.09948522234723" lon="13.433076576811558"><ele>969.0</ele><time>2026-05-02T13:20:45Z</time></trkpt><trkpt lat="42.09956388691109" lon="13.433007966931406"><ele>965.2</ele><time>2026-05-02T13:20:47Z</time></trkpt><trkpt lat="42.099657315937414" lon="13.432959835780297"><ele>961.4000000000001</ele><time>2026-05-02T13:20:49Z</time></trkpt><trkpt lat="42.099754278392965" lon="13.432913971456264"><ele>957.6</ele><time>2026-05-02T13:20:51Z</time></trkpt><trkpt lat="42.099842683653854" lon="13.4328695177197"><ele>953.8</ele><time>2026-05-02T13:20:53Z</time></trkpt><trkpt lat="42.099921455723674" lon="13.432809123360649"><ele>950.0</ele><time>2026-05-02T13:20:55Z</time></trkpt><trkpt lat="42.099994425941674" lon="13.432722769768217"><ele>950.0</ele><time>2026-05-02T13:20:57Z</time></trkpt><trkpt lat="42.10007096028299" lon="13.43261779186407"><ele>950.0</ele><time>2026-05-02T13:20:59Z</time></trkpt><trkpt lat="42.100141823872015" lon="13.432495635220365"><ele>950.0</ele><time>2026-05-02T13:21:01Z</time></trkpt><trkpt lat="42.10018695200294" lon="13.432348230791366"><ele>950.0</ele><time>2026-05-02T13:21:03Z</time></trkpt><trkpt lat="42.10024496498325" lon="13.43221963457647"><ele>949.3333333333334</ele><time>2026-05-02T13:21:05Z</time></trkpt><trkpt lat="42.100321470830444" lon="13.432108256087114"><ele>948.6666666666667</ele><time>2026-05-02T13:21:07Z</time></trkpt><trkpt lat="42.100370675413565" lon="13.432042650558678"><ele>948.0</ele><time>2026-05-02T13:21:09Z</time></trkpt><trkpt lat="42.10030593717501" lon="13.432068046776758"><ele>947.3333333333333</ele><time>2026-05-02T13:21:44Z</time></trkpt><trkpt lat="42.100241714651936" lon="13.43204600369032"><ele>946.6666666666666</ele><time>2026-05-02T13:21:47Z</time></trkpt><trkpt lat="42.100177793905125" lon="13.431987590793081"><ele>946.0</ele><time>2026-05-02T13:21:50Z</time></trkpt><trkpt lat="42.1001098242331" lon="13.43189262702921"><ele>945.9999999999999</ele><time>2026-05-02T13:21:53Z</time></trkpt><trkpt lat="42.10003851660981" lon="13.431886830497955"><ele>946.0</ele><time>2026-05-02T13:22:00Z</time></trkpt><trkpt lat="42.09998165314942" lon="13.43193822484167"><ele>946.0</ele><time>2026-05-02T13:22:03Z</time></trkpt><trkpt lat="42.09987837769747" lon="13.432012165102842"><ele>946.0</ele><time>2026-05-02T13:22:05Z</time></trkpt><trkpt lat="42.09976957943933" lon="13.432072531801806"><ele>945.9999999999999</ele><time>2026-05-02T13:22:07Z</time></trkpt><trkpt lat="42.09969807730918" lon="13.432096157756835"><ele>946.0</ele><time>2026-05-02T13:22:08Z</time></trkpt><trkpt lat="42.09962915768821" lon="13.432120467795198"><ele>944.5999999999999</ele><time>2026-05-02T13:22:09Z</time></trkpt><trkpt lat="42.09953648715471" lon="13.432129461332023"><ele>943.1999999999999</ele><time>2026-05-02T13:22:11Z</time></trkpt><trkpt lat="42.099444112036906" lon="13.432109527084334"><ele>941.8000000000001</ele><time>2026-05-02T13:22:13Z</time></trkpt><trkpt lat="42.099336174032466" lon="13.432029697836654"><ele>940.4000000000001</ele><time>2026-05-02T13:22:15Z</time></trkpt><trkpt lat="42.09926772054019" lon="13.431998432859423"><ele>939.0</ele><time>2026-05-02T13:22:16Z</time></trkpt><trkpt lat="42.09918827178188" lon="13.4319741504008"><ele>939.0</ele><time>2026-05-02T13:22:17Z</time></trkpt><trkpt lat="42.09910879051948" lon="13.431934872572644"><ele>939.0</ele><time>2026-05-02T13:22:18Z</time></trkpt><trkpt lat="42.09904379049593" lon="13.431878523221974"><ele>939.0</ele><time>2026-05-02T13:22:19Z</time></trkpt><trkpt lat="42.098986740858436" lon="13.431814737477836"><ele>939.0</ele><time>2026-05-02T13:22:20Z</time></trkpt><trkpt lat="42.098924106652696" lon="13.431732069031394"><ele>939.0</ele><time>2026-05-02T13:22:21Z</time></trkpt><trkpt lat="42.098857965645955" lon="13.43163995203488"><ele>939.0</ele><time>2026-05-02T13:22:22Z</time></trkpt><trkpt lat="42.09879310092553" lon="13.431553066336502"><ele>938.6666666666666</ele><time>2026-05-02T13:22:23Z</time></trkpt><trkpt lat="42.09873248952134" lon="13.431469704204892"><ele>938.3333333333333</ele><time>2026-05-02T13:22:24Z</time></trkpt><trkpt lat="42.098664885318385" lon="13.431381866146253"><ele>938.0</ele><time>2026-05-02T13:22:25Z</time></trkpt><trkpt lat="42.0986019510437" lon="13.431296927756334"><ele>937.6666666666666</ele><time>2026-05-02T13:22:26Z</time></trkpt><trkpt lat="42.09853367272123" lon="13.431211397742299"><ele>937.3333333333333</ele><time>2026-05-02T13:22:27Z</time></trkpt><trkpt lat="42.098467097334876" lon="13.43114219377861"><ele>937.0</ele><time>2026-05-02T13:22:28Z</time></trkpt><trkpt lat="42.098396499648004" lon="13.431061008121992"><ele>936.9999999999999</ele><time>2026-05-02T13:22:29Z</time></trkpt><trkpt lat="42.09832753280222" lon="13.43099464632465"><ele>937.0</ele><time>2026-05-02T13:22:30Z</time></trkpt><trkpt lat="42.098262040507265" lon="13.430919544223247"><ele>937.0</ele><time>2026-05-02T13:22:31Z</time></trkpt><trkpt lat="42.098214815923015" lon="13.430843288457828"><ele>937.0</ele><time>2026-05-02T13:22:32Z</time></trkpt><trkpt lat="42.09814919315817" lon="13.43071121592653"><ele>936.9999999999999</ele><time>2026-05-02T13:22:34Z</time></trkpt><trkpt lat="42.09809641757424" lon="13.430642575388877"><ele>937.0</ele><time>2026-05-02T13:22:35Z</time></trkpt><trkpt lat="42.09803857698297" lon="13.430563041153437"><ele>937.4999999999999</ele><time>2026-05-02T13:22:36Z</time></trkpt><trkpt lat="42.09798443500465" lon="13.430475900483732"><ele>938.0</ele><time>2026-05-02T13:22:37Z</time></trkpt><trkpt lat="42.09793769901208" lon="13.43039060534319"><ele>938.5</ele><time>2026-05-02T13:22:38Z</time></trkpt><trkpt lat="42.09789827403075" lon="13.4302892115419"><ele>939.0</ele><time>2026-05-02T13:22:39Z</time></trkpt><trkpt lat="42.09785036531439" lon="13.430182495500155"><ele>939.4999999999999</ele><time>2026-05-02T13:22:40Z</time></trkpt><trkpt lat="42.09779281371205" lon="13.430070724231173"><ele>940.0</ele><time>2026-05-02T13:22:41Z</time></trkpt><trkpt lat="42.097750398341496" lon="13.429963539821802"><ele>940.0</ele><time>2026-05-02T13:22:42Z</time></trkpt><trkpt lat="42.09771418356065" lon="13.42984860409474"><ele>940.0</ele><time>2026-05-02T13:22:43Z</time></trkpt><trkpt lat="42.09767273026215" lon="13.42972054541972"><ele>940.0</ele><time>2026-05-02T13:22:44Z</time></trkpt><trkpt lat="42.09763105150835" lon="13.429597042395406"><ele>940.0</ele><time>2026-05-02T13:22:45Z</time></trkpt><trkpt lat="42.097596566900364" lon="13.429474704589131"><ele>940.0</ele><time>2026-05-02T13:22:46Z</time></trkpt><trkpt lat="42.097573236485445" lon="13.42935839604611"><ele>938.6</ele><time>2026-05-02T13:22:47Z</time></trkpt><trkpt lat="42.09755139866204" lon="13.429229029751296"><ele>937.2</ele><time>2026-05-02T13:22:48Z</time></trkpt><trkpt lat="42.09752541090715" lon="13.429098013010703"><ele>935.8</ele><time>2026-05-02T13:22:49Z</time></trkpt><trkpt lat="42.097493061550665" lon="13.428965625992051"><ele>934.4</ele><time>2026-05-02T13:22:50Z</time></trkpt><trkpt lat="42.097460941435116" lon="13.428832842647052"><ele>933.0</ele><time>2026-05-02T13:22:51Z</time></trkpt><trkpt lat="42.09742862810357" lon="13.428699466112972"><ele>934.8333333333334</ele><time>2026-05-02T13:22:52Z</time></trkpt><trkpt lat="42.097395664614815" lon="13.428576348116387"><ele>936.6666666666667</ele><time>2026-05-02T13:22:53Z</time></trkpt><trkpt lat="42.09735925423142" lon="13.428458427803958"><ele>938.5</ele><time>2026-05-02T13:22:54Z</time></trkpt><trkpt lat="42.09732294081095" lon="13.428343305438672"><ele>940.3333333333334</ele><time>2026-05-02T13:22:55Z</time></trkpt><trkpt lat="42.097290376078064" lon="13.428235839624723"><ele>942.1666666666667</ele><time>2026-05-02T13:22:56Z</time></trkpt><trkpt lat="42.09726230933588" lon="13.428145293154373"><ele>944.0</ele><time>2026-05-02T13:22:57Z</time></trkpt><trkpt lat="42.09722647082432" lon="13.427994908747918"><ele>942.0</ele><time>2026-05-02T13:22:59Z</time></trkpt><trkpt lat="42.09718793541699" lon="13.427836005377724"><ele>940.0000000000001</ele><time>2026-05-02T13:23:01Z</time></trkpt><trkpt lat="42.09716614001825" lon="13.42774361217369"><ele>938.0000000000001</ele><time>2026-05-02T13:23:02Z</time></trkpt><trkpt lat="42.097150351448406" lon="13.427578102677002"><ele>936.0</ele><time>2026-05-02T13:23:04Z</time></trkpt><trkpt lat="42.097134978269246" lon="13.427487774554065"><ele>934.0</ele><time>2026-05-02T13:23:05Z</time></trkpt><trkpt lat="42.09710960024778" lon="13.427392694771298"><ele>934.0</ele><time>2026-05-02T13:23:06Z</time></trkpt><trkpt lat="42.0970759598268" lon="13.427265233738394"><ele>934.0000000000001</ele><time>2026-05-02T13:23:07Z</time></trkpt><trkpt lat="42.09705489311266" lon="13.427153872066752"><ele>934.0000000000001</ele><time>2026-05-02T13:23:08Z</time></trkpt><trkpt lat="42.09703260451019" lon="13.42703017614708"><ele>934.0</ele><time>2026-05-02T13:23:09Z</time></trkpt><trkpt lat="42.09701164408287" lon="13.426906646061992"><ele>934.0</ele><time>2026-05-02T13:23:10Z</time></trkpt><trkpt lat="42.09698796884157" lon="13.426778603160086"><ele>932.8333333333333</ele><time>2026-05-02T13:23:11Z</time></trkpt><trkpt lat="42.09697240799412" lon="13.426670294241152"><ele>931.6666666666666</ele><time>2026-05-02T13:23:12Z</time></trkpt><trkpt lat="42.096964421156336" lon="13.426568187967709"><ele>930.5</ele><time>2026-05-02T13:23:13Z</time></trkpt><trkpt lat="42.09694579407753" lon="13.426457188622084"><ele>929.3333333333333</ele><time>2026-05-02T13:23:14Z</time></trkpt><trkpt lat="42.09692692645519" lon="13.426342484740557"><ele>928.1666666666666</ele><time>2026-05-02T13:23:15Z</time></trkpt><trkpt lat="42.096920874954115" lon="13.426243947512997"><ele>927.0</ele><time>2026-05-02T13:23:16Z</time></trkpt><trkpt lat="42.0969080469629" lon="13.42615374021628"><ele>926.3333333333334</ele><time>2026-05-02T13:23:17Z</time></trkpt><trkpt lat="42.09687889334037" lon="13.426064458232142"><ele>925.6666666666667</ele><time>2026-05-02T13:23:18Z</time></trkpt><trkpt lat="42.09686228002408" lon="13.42596889820826"><ele>925.0</ele><time>2026-05-02T13:23:19Z</time></trkpt><trkpt lat="42.09684432633063" lon="13.425866175115031"><ele>924.3333333333334</ele><time>2026-05-02T13:23:20Z</time></trkpt><trkpt lat="42.09682584134564" lon="13.425763814660781"><ele>923.6666666666667</ele><time>2026-05-02T13:23:21Z</time></trkpt><trkpt lat="42.096808888473156" lon="13.425644978844712"><ele>923.0</ele><time>2026-05-02T13:23:22Z</time></trkpt><trkpt lat="42.096793064854744" lon="13.425536400575686"><ele>922.3333333333334</ele><time>2026-05-02T13:23:23Z</time></trkpt><trkpt lat="42.096764488306626" lon="13.4254310624752"><ele>921.6666666666667</ele><time>2026-05-02T13:23:24Z</time></trkpt><trkpt lat="42.09672450699929" lon="13.425312314301644"><ele>921.0</ele><time>2026-05-02T13:23:25Z</time></trkpt><trkpt lat="42.0966926317768" lon="13.425203634492828"><ele>920.3333333333333</ele><time>2026-05-02T13:23:26Z</time></trkpt><trkpt lat="42.096662555803825" lon="13.42507652158048"><ele>919.6666666666666</ele><time>2026-05-02T13:23:27Z</time></trkpt><trkpt lat="42.096634267697276" lon="13.424970527987188"><ele>919.0</ele><time>2026-05-02T13:23:28Z</time></trkpt><trkpt lat="42.09660485255607" lon="13.424866688356659"><ele>919.3333333333333</ele><time>2026-05-02T13:23:29Z</time></trkpt><trkpt lat="42.096564809677005" lon="13.424757130347938"><ele>919.6666666666666</ele><time>2026-05-02T13:23:30Z</time></trkpt><trkpt lat="42.096519223218465" lon="13.424660844429107"><ele>920.0</ele><time>2026-05-02T13:23:30.999Z</time></trkpt><trkpt lat="42.09647201069602" lon="13.424558001027574"><ele>920.3333333333333</ele><time>2026-05-02T13:23:31.999Z</time></trkpt><trkpt lat="42.096431020923696" lon="13.424447085374618"><ele>920.6666666666666</ele><time>2026-05-02T13:23:32.999Z</time></trkpt><trkpt lat="42.096395372699824" lon="13.424356685373946"><ele>921.0</ele><time>2026-05-02T13:23:33.999Z</time></trkpt><trkpt lat="42.09634730097895" lon="13.424266165260537"><ele>921.0</ele><time>2026-05-02T13:23:34.999Z</time></trkpt><trkpt lat="42.09629131432366" lon="13.424176190415404"><ele>921.0</ele><time>2026-05-02T13:23:35.999Z</time></trkpt><trkpt lat="42.096227749571916" lon="13.424078818799886"><ele>921.0</ele><time>2026-05-02T13:23:36.999Z</time></trkpt><trkpt lat="42.09616780237134" lon="13.423989371991407"><ele>921.0</ele><time>2026-05-02T13:23:37.999Z</time></trkpt><trkpt lat="42.096114434296325" lon="13.423898725006788"><ele>921.0</ele><time>2026-05-02T13:23:38.999Z</time></trkpt><trkpt lat="42.09606319224374" lon="13.423811582649048"><ele>921.0</ele><time>2026-05-02T13:23:39.999Z</time></trkpt><trkpt lat="42.096011003361085" lon="13.423717843776359"><ele>919.6666666666666</ele><time>2026-05-02T13:23:40.999Z</time></trkpt><trkpt lat="42.09597179076805" lon="13.42363135382094"><ele>918.3333333333333</ele><time>2026-05-02T13:23:41.999Z</time></trkpt><trkpt lat="42.0959307447287" lon="13.42353629832849"><ele>917.0</ele><time>2026-05-02T13:23:42.999Z</time></trkpt><trkpt lat="42.09588466709762" lon="13.423430286840443"><ele>915.6666666666666</ele><time>2026-05-02T13:23:43.999Z</time></trkpt><trkpt lat="42.09584638218483" lon="13.423335441098716"><ele>914.3333333333333</ele><time>2026-05-02T13:23:44.999Z</time></trkpt><trkpt lat="42.095807850956646" lon="13.42323329898382"><ele>913.0</ele><time>2026-05-02T13:23:45.999Z</time></trkpt><trkpt lat="42.09577077988275" lon="13.423130774984067"><ele>915.3333333333333</ele><time>2026-05-02T13:23:46.999Z</time></trkpt><trkpt lat="42.095739081576966" lon="13.423020258093487"><ele>917.6666666666666</ele><time>2026-05-02T13:23:47.999Z</time></trkpt><trkpt lat="42.09570735700872" lon="13.42293152659569"><ele>920.0</ele><time>2026-05-02T13:23:48.999Z</time></trkpt><trkpt lat="42.09567495811296" lon="13.422831374687602"><ele>922.3333333333333</ele><time>2026-05-02T13:23:49.999Z</time></trkpt><trkpt lat="42.095648654647036" lon="13.422733437385627"><ele>924.6666666666666</ele><time>2026-05-02T13:23:50.999Z</time></trkpt><trkpt lat="42.09563948824017" lon="13.422640457528875"><ele>927.0</ele><time>2026-05-02T13:23:51.999Z</time></trkpt><trkpt lat="42.09563261356803" lon="13.422545360162019"><ele>927.0</ele><time>2026-05-02T13:23:52.999Z</time></trkpt><trkpt lat="42.09561339323596" lon="13.422423425604771"><ele>927.0</ele><time>2026-05-02T13:23:54Z</time></trkpt><trkpt lat="42.09559974916017" lon="13.422284511102674"><ele>927.0</ele><time>2026-05-02T13:23:55Z</time></trkpt><trkpt lat="42.09559023321074" lon="13.422136975586588"><ele>927.0</ele><time>2026-05-02T13:23:56Z</time></trkpt><trkpt lat="42.09558631861465" lon="13.422009879931279"><ele>927.0</ele><time>2026-05-02T13:23:57Z</time></trkpt><trkpt lat="42.09557756111588" lon="13.421880259198804"><ele>926.0</ele><time>2026-05-02T13:23:58Z</time></trkpt><trkpt lat="42.095564779297455" lon="13.421758896165302"><ele>925.0</ele><time>2026-05-02T13:23:59Z</time></trkpt><trkpt lat="42.09556223142069" lon="13.42162330718854"><ele>924.0</ele><time>2026-05-02T13:24:00Z</time></trkpt><trkpt lat="42.09555871146896" lon="13.421474570651819"><ele>923.0</ele><time>2026-05-02T13:24:01Z</time></trkpt><trkpt lat="42.095552634048346" lon="13.421313885126647"><ele>922.0</ele><time>2026-05-02T13:24:02Z</time></trkpt><trkpt lat="42.09554308496548" lon="13.42115357166037"><ele>920.4000000000001</ele><time>2026-05-02T13:24:03Z</time></trkpt><trkpt lat="42.09553425272264" lon="13.421001872068897"><ele>918.8000000000001</ele><time>2026-05-02T13:24:04Z</time></trkpt><trkpt lat="42.0955294771897" lon="13.420854541999926"><ele>917.2</ele><time>2026-05-02T13:24:05Z</time></trkpt><trkpt lat="42.09553031175684" lon="13.420716851306167"><ele>915.6</ele><time>2026-05-02T13:24:06Z</time></trkpt><trkpt lat="42.095534332315815" lon="13.42058822748802"><ele>914.0</ele><time>2026-05-02T13:24:07Z</time></trkpt><trkpt lat="42.09553714528412" lon="13.420458143109835"><ele>913.8333333333334</ele><time>2026-05-02T13:24:08Z</time></trkpt><trkpt lat="42.095535746618886" lon="13.420334829372777"><ele>913.6666666666667</ele><time>2026-05-02T13:24:09Z</time></trkpt><trkpt lat="42.09552171709356" lon="13.420209756986782"><ele>913.5</ele><time>2026-05-02T13:24:10Z</time></trkpt><trkpt lat="42.095501098498644" lon="13.420082323372432"><ele>913.3333333333333</ele><time>2026-05-02T13:24:11Z</time></trkpt><trkpt lat="42.095481512237015" lon="13.419964788579511"><ele>913.1666666666666</ele><time>2026-05-02T13:24:12Z</time></trkpt><trkpt lat="42.095469128329796" lon="13.419867289300303"><ele>913.0</ele><time>2026-05-02T13:24:13Z</time></trkpt><trkpt lat="42.095469206548515" lon="13.41969736095784"><ele>912.3333333333333</ele><time>2026-05-02T13:24:15Z</time></trkpt><trkpt lat="42.09546721534278" lon="13.419599199364189"><ele>911.6666666666666</ele><time>2026-05-02T13:24:16Z</time></trkpt><trkpt lat="42.09546623767234" lon="13.419496056884158"><ele>911.0</ele><time>2026-05-02T13:24:17Z</time></trkpt><trkpt lat="42.09546555325308" lon="13.419399098180591"><ele>910.3333333333333</ele><time>2026-05-02T13:24:18Z</time></trkpt><trkpt lat="42.09546737976598" lon="13.419298313188028"><ele>909.6666666666666</ele><time>2026-05-02T13:24:19Z</time></trkpt><trkpt lat="42.095470635773104" lon="13.419192300420278"><ele>909.0</ele><time>2026-05-02T13:24:20Z</time></trkpt><trkpt lat="42.09546974755972" lon="13.419084134056778"><ele>909.0</ele><time>2026-05-02T13:24:21Z</time></trkpt><trkpt lat="42.095471635094036" lon="13.41897418882436"><ele>909.0</ele><time>2026-05-02T13:24:22Z</time></trkpt><trkpt lat="42.095472452854125" lon="13.418865648593071"><ele>909.0</ele><time>2026-05-02T13:24:23Z</time></trkpt><trkpt lat="42.09547147634217" lon="13.418763723834001"><ele>909.0</ele><time>2026-05-02T13:24:24Z</time></trkpt><trkpt lat="42.095474297826996" lon="13.418669172956756"><ele>909.0</ele><time>2026-05-02T13:24:25Z</time></trkpt><trkpt lat="42.09546847279136" lon="13.418510990356891"><ele>909.0</ele><time>2026-05-02T13:24:27Z</time></trkpt><trkpt lat="42.09546105524394" lon="13.418332890237728"><ele>908.2857142857142</ele><time>2026-05-02T13:24:29Z</time></trkpt><trkpt lat="42.095461490226626" lon="13.418241689873941"><ele>907.5714285714287</ele><time>2026-05-02T13:24:30Z</time></trkpt><trkpt lat="42.09546439409876" lon="13.418136787462563"><ele>906.8571428571429</ele><time>2026-05-02T13:24:31Z</time></trkpt><trkpt lat="42.09546239175306" lon="13.41803324522013"><ele>906.1428571428571</ele><time>2026-05-02T13:24:32Z</time></trkpt><trkpt lat="42.09546387015243" lon="13.41794716220583"><ele>905.4285714285713</ele><time>2026-05-02T13:24:33Z</time></trkpt><trkpt lat="42.09545978158024" lon="13.417859156508456"><ele>904.7142857142858</ele><time>2026-05-02T13:24:34Z</time></trkpt><trkpt lat="42.095446319144045" lon="13.417767901121113"><ele>904.0</ele><time>2026-05-02T13:24:35Z</time></trkpt><trkpt lat="42.09542624690624" lon="13.417668392498216"><ele>903.1666666666666</ele><time>2026-05-02T13:24:36Z</time></trkpt><trkpt lat="42.09539486910385" lon="13.417567101871681"><ele>902.3333333333333</ele><time>2026-05-02T13:24:37Z</time></trkpt><trkpt lat="42.095363813874904" lon="13.417464932104794"><ele>901.5</ele><time>2026-05-02T13:24:38Z</time></trkpt><trkpt lat="42.095342227770395" lon="13.41737773951142"><ele>900.6666666666667</ele><time>2026-05-02T13:24:39Z</time></trkpt><trkpt lat="42.095323044699434" lon="13.41728362527335"><ele>899.8333333333334</ele><time>2026-05-02T13:24:40Z</time></trkpt><trkpt lat="42.09530710874173" lon="13.41717934593415"><ele>899.0</ele><time>2026-05-02T13:24:41Z</time></trkpt><trkpt lat="42.09529281489063" lon="13.417091252115418"><ele>897.8000000000001</ele><time>2026-05-02T13:24:42Z</time></trkpt><trkpt lat="42.09526344395003" lon="13.41693841090033"><ele>896.6000000000001</ele><time>2026-05-02T13:24:44Z</time></trkpt><trkpt lat="42.09523863587553" lon="13.416778299276416"><ele>895.4</ele><time>2026-05-02T13:24:46Z</time></trkpt><trkpt lat="42.09520949072194" lon="13.416620509117628"><ele>894.2</ele><time>2026-05-02T13:24:48Z</time></trkpt><trkpt lat="42.095183255102064" lon="13.416523108812225"><ele>893.0</ele><time>2026-05-02T13:24:49.999Z</time></trkpt><trkpt lat="42.095259651568654" lon="13.41647753841986"><ele>893.0000000000001</ele><time>2026-05-02T13:24:52.999Z</time></trkpt><trkpt lat="42.09537749833973" lon="13.41644813185883"><ele>893.0</ele><time>2026-05-02T13:24:54.999Z</time></trkpt><trkpt lat="42.0954335231498" lon="13.416395599810578"><ele>893.0</ele><time>2026-05-02T13:24:55.999Z</time></trkpt><trkpt lat="42.09548890812341" lon="13.416309127210221"><ele>893.0</ele><time>2026-05-02T13:24:56.999Z</time></trkpt><trkpt lat="42.09554007008216" lon="13.416221518843335"><ele>893.0000000000001</ele><time>2026-05-02T13:24:57.999Z</time></trkpt><trkpt lat="42.09558092544512" lon="13.416142604783136"><ele>893.0</ele><time>2026-05-02T13:24:58.999Z</time></trkpt><trkpt lat="42.09561206626389" lon="13.41605969152088"><ele>892.1666666666667</ele><time>2026-05-02T13:24:59.999Z</time></trkpt><trkpt lat="42.095632660798216" lon="13.415974789862057"><ele>891.3333333333334</ele><time>2026-05-02T13:25:00.999Z</time></trkpt><trkpt lat="42.09564699893846" lon="13.415880180421054"><ele>890.5</ele><time>2026-05-02T13:25:01.999Z</time></trkpt><trkpt lat="42.095644859636046" lon="13.415791836836982"><ele>889.6666666666667</ele><time>2026-05-02T13:25:02.999Z</time></trkpt><trkpt lat="42.095643256692796" lon="13.41568951541668"><ele>888.8333333333334</ele><time>2026-05-02T13:25:03.999Z</time></trkpt><trkpt lat="42.095648782901215" lon="13.415601163578417"><ele>888.0</ele><time>2026-05-02T13:25:04.999Z</time></trkpt><trkpt lat="42.095687587637535" lon="13.415464825587259"><ele>889.4</ele><time>2026-05-02T13:25:06.999Z</time></trkpt><trkpt lat="42.095779064903" lon="13.415347891128178"><ele>890.8</ele><time>2026-05-02T13:25:08.999Z</time></trkpt><trkpt lat="42.09583365348529" lon="13.415280900032622"><ele>892.2</ele><time>2026-05-02T13:25:09.999Z</time></trkpt><trkpt lat="42.09589681742676" lon="13.415189650841265"><ele>893.6</ele><time>2026-05-02T13:25:10.999Z</time></trkpt><trkpt lat="42.09596186412255" lon="13.415092927209479"><ele>895.0</ele><time>2026-05-02T13:25:11.999Z</time></trkpt><trkpt lat="42.09601946390899" lon="13.415012586618742"><ele>894.9999999999999</ele><time>2026-05-02T13:25:12.999Z</time></trkpt><trkpt lat="42.0960687956449" lon="13.414947819441684"><ele>895.0</ele><time>2026-05-02T13:25:13.999Z</time></trkpt><trkpt lat="42.09617572053433" lon="13.41485390768045"><ele>895.0</ele><time>2026-05-02T13:25:15.999Z</time></trkpt><trkpt lat="42.09623961307895" lon="13.414806483811834"><ele>895.0</ele><time>2026-05-02T13:25:16.999Z</time></trkpt><trkpt lat="42.09631234948398" lon="13.414757543897622"><ele>894.9999999999999</ele><time>2026-05-02T13:25:17.999Z</time></trkpt><trkpt lat="42.09638190869081" lon="13.414718775646724"><ele>895.0</ele><time>2026-05-02T13:25:18.999Z</time></trkpt><trkpt lat="42.09645785419337" lon="13.414679375335542"><ele>895.6666666666666</ele><time>2026-05-02T13:25:19.999Z</time></trkpt><trkpt lat="42.09653365467876" lon="13.414631523266372"><ele>896.3333333333333</ele><time>2026-05-02T13:25:20.999Z</time></trkpt><trkpt lat="42.09661776941917" lon="13.414570772941543"><ele>897.0</ele><time>2026-05-02T13:25:21.999Z</time></trkpt><trkpt lat="42.09670795873234" lon="13.414516277919192"><ele>897.6666666666667</ele><time>2026-05-02T13:25:22.999Z</time></trkpt><trkpt lat="42.096784197535776" lon="13.414466448816624"><ele>898.3333333333334</ele><time>2026-05-02T13:25:23.999Z</time></trkpt><trkpt lat="42.09686060985853" lon="13.414423261360955"><ele>899.0</ele><time>2026-05-02T13:25:24.999Z</time></trkpt><trkpt lat="42.09693187914712" lon="13.41438962195971"><ele>899.0000000000001</ele><time>2026-05-02T13:25:25.999Z</time></trkpt><trkpt lat="42.09700934805592" lon="13.414366525302276"><ele>899.0</ele><time>2026-05-02T13:25:26.999Z</time></trkpt><trkpt lat="42.09709103643046" lon="13.414338460935921"><ele>899.0</ele><time>2026-05-02T13:25:27.999Z</time></trkpt><trkpt lat="42.09717711847704" lon="13.414295881068075"><ele>899.0</ele><time>2026-05-02T13:25:28.999Z</time></trkpt><trkpt lat="42.097253027373526" lon="13.414234456811231"><ele>899.0000000000001</ele><time>2026-05-02T13:25:29.999Z</time></trkpt><trkpt lat="42.097309813671686" lon="13.414152944268146"><ele>899.0</ele><time>2026-05-02T13:25:30.999Z</time></trkpt><trkpt lat="42.097355505491244" lon="13.414067828962963"><ele>899.0000000000001</ele><time>2026-05-02T13:25:31.999Z</time></trkpt><trkpt lat="42.097398609019194" lon="13.414003656716629"><ele>899.0</ele><time>2026-05-02T13:25:32.999Z</time></trkpt><trkpt lat="42.09745229018418" lon="13.413950809576777"><ele>899.0</ele><time>2026-05-02T13:25:33.999Z</time></trkpt><trkpt lat="42.09751016945038" lon="13.413907623085793"><ele>899.0</ele><time>2026-05-02T13:25:34.999Z</time></trkpt><trkpt lat="42.097620010764686" lon="13.413851529171506"><ele>899.0000000000001</ele><time>2026-05-02T13:25:36.999Z</time></trkpt><trkpt lat="42.09773818057418" lon="13.413806452556466"><ele>899.0</ele><time>2026-05-02T13:25:38.999Z</time></trkpt><trkpt lat="42.09784988953874" lon="13.413785877885818"><ele>898.8000000000001</ele><time>2026-05-02T13:25:40.999Z</time></trkpt><trkpt lat="42.09796946711224" lon="13.413752544171466"><ele>898.6000000000001</ele><time>2026-05-02T13:25:42.999Z</time></trkpt><trkpt lat="42.098088430030145" lon="13.413718750715026"><ele>898.4</ele><time>2026-05-02T13:25:44.999Z</time></trkpt><trkpt lat="42.09819516191078" lon="13.413733068577697"><ele>898.2</ele><time>2026-05-02T13:25:46.999Z</time></trkpt><trkpt lat="42.09825384432709" lon="13.413770076359034"><ele>898.0</ele><time>2026-05-02T13:25:47.999Z</time></trkpt><trkpt lat="42.09832446249801" lon="13.413813202461268"><ele>898.8</ele><time>2026-05-02T13:25:48.999Z</time></trkpt><trkpt lat="42.098392892182126" lon="13.413854223573363"><ele>899.5999999999999</ele><time>2026-05-02T13:25:49.999Z</time></trkpt><trkpt lat="42.0984600161329" lon="13.413898100782669"><ele>900.4000000000001</ele><time>2026-05-02T13:25:50.999Z</time></trkpt><trkpt lat="42.09857013340291" lon="13.413963667019638"><ele>901.2</ele><time>2026-05-02T13:25:52.999Z</time></trkpt><trkpt lat="42.0986836224516" lon="13.414023921814273"><ele>902.0</ele><time>2026-05-02T13:25:54.999Z</time></trkpt><trkpt lat="42.09879065020032" lon="13.414094299133312"><ele>902.0000000000001</ele><time>2026-05-02T13:25:56.999Z</time></trkpt><trkpt lat="42.09888495040993" lon="13.414158961636018"><ele>902.0</ele><time>2026-05-02T13:25:58.999Z</time></trkpt><trkpt lat="42.09895405761414" lon="13.414221935399395"><ele>902.0</ele><time>2026-05-02T13:26:00.999Z</time></trkpt><trkpt lat="42.099010666102515" lon="13.414270881010426"><ele>902.0</ele><time>2026-05-02T13:26:11.999Z</time></trkpt><trkpt lat="42.09902935360969" lon="13.414370545639008"><ele>902.0000000000001</ele><time>2026-05-02T13:26:13.999Z</time></trkpt><trkpt lat="42.0990969058414" lon="13.414414248564947"><ele>902.0</ele><time>2026-05-02T13:26:16.999Z</time></trkpt><trkpt lat="42.0990738316692" lon="13.414305145794744"><ele>902.0000000000001</ele><time>2026-05-02T13:26:19.999Z</time></trkpt><trkpt lat="42.09901778365945" lon="13.41425717486581"><ele>902.0</ele><time>2026-05-02T13:26:20.999Z</time></trkpt><trkpt lat="42.098960960093784" lon="13.414210834544532"><ele>902.0</ele><time>2026-05-02T13:26:21.999Z</time></trkpt><trkpt lat="42.09890646334636" lon="13.41415072763727"><ele>902.0</ele><time>2026-05-02T13:26:22.999Z</time></trkpt><trkpt lat="42.09884084264961" lon="13.41410158252142"><ele>902.0000000000001</ele><time>2026-05-02T13:26:23.999Z</time></trkpt><trkpt lat="42.09876318604075" lon="13.41405242469548"><ele>902.0</ele><time>2026-05-02T13:26:24.999Z</time></trkpt><trkpt lat="42.098685221861594" lon="13.413999790499757"><ele>902.0</ele><time>2026-05-02T13:26:25.999Z</time></trkpt><trkpt lat="42.098597825728035" lon="13.413945671471295"><ele>902.0</ele><time>2026-05-02T13:26:26.999Z</time></trkpt><trkpt lat="42.09851037538819" lon="13.413894710924492"><ele>902.0</ele><time>2026-05-02T13:26:27.999Z</time></trkpt><trkpt lat="42.098432810738466" lon="13.413852349339372"><ele>902.0</ele><time>2026-05-02T13:26:28.999Z</time></trkpt><trkpt lat="42.09835983392458" lon="13.413812309467811"><ele>902.0</ele><time>2026-05-02T13:26:29.999Z</time></trkpt><trkpt lat="42.09825984060034" lon="13.413752144033758"><ele>901.2</ele><time>2026-05-02T13:26:31.999Z</time></trkpt><trkpt lat="42.09822159110953" lon="13.413666002120223"><ele>900.4000000000001</ele><time>2026-05-02T13:26:33.999Z</time></trkpt><trkpt lat="42.09826658907596" lon="13.413563292960566"><ele>899.5999999999999</ele><time>2026-05-02T13:26:35.999Z</time></trkpt><trkpt lat="42.09837262869041" lon="13.413447747012032"><ele>898.8</ele><time>2026-05-02T13:26:37.999Z</time></trkpt><trkpt lat="42.098442121731225" lon="13.413400474820495"><ele>898.0</ele><time>2026-05-02T13:26:38.999Z</time></trkpt><trkpt lat="42.09851818690889" lon="13.413343067434093"><ele>898.0</ele><time>2026-05-02T13:26:39.999Z</time></trkpt><trkpt lat="42.09858202423894" lon="13.413284441086992"><ele>898.0</ele><time>2026-05-02T13:26:40.999Z</time></trkpt><trkpt lat="42.098638998114815" lon="13.413229876841054"><ele>898.0</ele><time>2026-05-02T13:26:41.999Z</time></trkpt><trkpt lat="42.09872593747831" lon="13.41312425011511"><ele>898.0</ele><time>2026-05-02T13:26:43.999Z</time></trkpt><trkpt lat="42.09881715412095" lon="13.413009201009382"><ele>898.0</ele><time>2026-05-02T13:26:45.999Z</time></trkpt><trkpt lat="42.0988756780962" lon="13.412931908873277"><ele>897.4999999999999</ele><time>2026-05-02T13:26:46.999Z</time></trkpt><trkpt lat="42.09893566070996" lon="13.41285202297308"><ele>897.0</ele><time>2026-05-02T13:26:47.999Z</time></trkpt><trkpt lat="42.098987819855765" lon="13.41278069389831"><ele>896.5</ele><time>2026-05-02T13:26:48.999Z</time></trkpt><trkpt lat="42.09904256902702" lon="13.412695375013087"><ele>896.0</ele><time>2026-05-02T13:26:49.999Z</time></trkpt><trkpt lat="42.09909828587723" lon="13.412603438201963"><ele>895.4999999999999</ele><time>2026-05-02T13:26:50.999Z</time></trkpt><trkpt lat="42.09915663759927" lon="13.412499731434707"><ele>895.0</ele><time>2026-05-02T13:26:51.999Z</time></trkpt><trkpt lat="42.099208855742646" lon="13.412399337651737"><ele>894.8333333333333</ele><time>2026-05-02T13:26:52.999Z</time></trkpt><trkpt lat="42.099251938150736" lon="13.41230633067038"><ele>894.6666666666666</ele><time>2026-05-02T13:26:53.999Z</time></trkpt><trkpt lat="42.099288102475604" lon="13.4122214217803"><ele>894.5</ele><time>2026-05-02T13:26:54.999Z</time></trkpt><trkpt lat="42.09931847849902" lon="13.412125507759823"><ele>894.3333333333333</ele><time>2026-05-02T13:26:55.999Z</time></trkpt><trkpt lat="42.099344483299355" lon="13.412024609022337"><ele>894.1666666666666</ele><time>2026-05-02T13:26:56.999Z</time></trkpt><trkpt lat="42.099386870310575" lon="13.411932403891306"><ele>894.0</ele><time>2026-05-02T13:26:57.999Z</time></trkpt><trkpt lat="42.099445458594566" lon="13.411846846722073"><ele>893.1666666666666</ele><time>2026-05-02T13:26:58.999Z</time></trkpt><trkpt lat="42.099505702715696" lon="13.411763856051154"><ele>892.3333333333333</ele><time>2026-05-02T13:26:59.999Z</time></trkpt><trkpt lat="42.09955494373669" lon="13.411680194133313"><ele>891.5</ele><time>2026-05-02T13:27:00.999Z</time></trkpt><trkpt lat="42.09960371491711" lon="13.411596329060982"><ele>890.6666666666666</ele><time>2026-05-02T13:27:01.999Z</time></trkpt><trkpt lat="42.09965178212779" lon="13.411517309189511"><ele>889.8333333333333</ele><time>2026-05-02T13:27:02.999Z</time></trkpt><trkpt lat="42.099748977901875" lon="13.41142335945974"><ele>889.0</ele><time>2026-05-02T13:27:04.999Z</time></trkpt><trkpt lat="42.09982194622642" lon="13.41141012692968"><ele>888.9999999999999</ele><time>2026-05-02T13:27:05.999Z</time></trkpt><trkpt lat="42.09989158324771" lon="13.411398152332374"><ele>889.0</ele><time>2026-05-02T13:27:06.999Z</time></trkpt><trkpt lat="42.09994934900556" lon="13.411358294427043"><ele>889.0</ele><time>2026-05-02T13:27:07.999Z</time></trkpt><trkpt lat="42.10000590425417" lon="13.41128068943322"><ele>889.0</ele><time>2026-05-02T13:27:08.999Z</time></trkpt><trkpt lat="42.100051412052636" lon="13.411193356418453"><ele>888.9999999999999</ele><time>2026-05-02T13:27:09.999Z</time></trkpt><trkpt lat="42.10010814400241" lon="13.411104123065524"><ele>889.0</ele><time>2026-05-02T13:27:10.999Z</time></trkpt><trkpt lat="42.10016413199687" lon="13.411020148888035"><ele>888.2</ele><time>2026-05-02T13:27:11.999Z</time></trkpt><trkpt lat="42.100222144093244" lon="13.410921127988779"><ele>887.4000000000001</ele><time>2026-05-02T13:27:12.999Z</time></trkpt><trkpt lat="42.10027317175853" lon="13.410820695350186"><ele>886.6</ele><time>2026-05-02T13:27:13.999Z</time></trkpt><trkpt lat="42.10032913474105" lon="13.410719307642783"><ele>885.8</ele><time>2026-05-02T13:27:14.999Z</time></trkpt><trkpt lat="42.1003908433603" lon="13.41062512686263"><ele>885.0</ele><time>2026-05-02T13:27:15.999Z</time></trkpt><trkpt lat="42.1004482303406" lon="13.410536819976677"><ele>884.2</ele><time>2026-05-02T13:27:16.999Z</time></trkpt><trkpt lat="42.100514271321934" lon="13.410426130479784"><ele>883.4</ele><time>2026-05-02T13:27:17.999Z</time></trkpt><trkpt lat="42.100575017223335" lon="13.410318821848394"><ele>882.5999999999999</ele><time>2026-05-02T13:27:18.999Z</time></trkpt><trkpt lat="42.100633889638424" lon="13.4102031488473"><ele>881.8</ele><time>2026-05-02T13:27:19.999Z</time></trkpt><trkpt lat="42.10067930849426" lon="13.410085311930157"><ele>881.0</ele><time>2026-05-02T13:27:20.999Z</time></trkpt><trkpt lat="42.10072205863967" lon="13.409956735804041"><ele>880.8</ele><time>2026-05-02T13:27:21.999Z</time></trkpt><trkpt lat="42.10076673497828" lon="13.409828043566403"><ele>880.5999999999999</ele><time>2026-05-02T13:27:22.999Z</time></trkpt><trkpt lat="42.10081280001693" lon="13.409703903435766"><ele>880.4</ele><time>2026-05-02T13:27:23.999Z</time></trkpt><trkpt lat="42.100856906856386" lon="13.409584020109131"><ele>880.2</ele><time>2026-05-02T13:27:24.999Z</time></trkpt><trkpt lat="42.10089142698557" lon="13.409454023202914"><ele>880.0</ele><time>2026-05-02T13:27:25.999Z</time></trkpt><trkpt lat="42.100933781188886" lon="13.409321748394422"><ele>879.0</ele><time>2026-05-02T13:27:26.999Z</time></trkpt><trkpt lat="42.10098493418789" lon="13.409199919353421"><ele>878.0</ele><time>2026-05-02T13:27:27.999Z</time></trkpt><trkpt lat="42.10103160199145" lon="13.409071436028439"><ele>877.0</ele><time>2026-05-02T13:27:28.999Z</time></trkpt><trkpt lat="42.10108133544804" lon="13.40894414136007"><ele>876.0</ele><time>2026-05-02T13:27:29.999Z</time></trkpt><trkpt lat="42.101134738584605" lon="13.408821289087683"><ele>875.0</ele><time>2026-05-02T13:27:30.999Z</time></trkpt><trkpt lat="42.101181999435255" lon="13.408707289585251"><ele>874.0</ele><time>2026-05-02T13:27:31.999Z</time></trkpt><trkpt lat="42.10122923964324" lon="13.408586542627143"><ele>873.0</ele><time>2026-05-02T13:27:32.999Z</time></trkpt><trkpt lat="42.101274108050575" lon="13.408454832102738"><ele>872.0</ele><time>2026-05-02T13:27:33.999Z</time></trkpt><trkpt lat="42.10130560825811" lon="13.408340993275598"><ele>871.0</ele><time>2026-05-02T13:27:34.999Z</time></trkpt><trkpt lat="42.10133826065718" lon="13.408237879492031"><ele>870.0</ele><time>2026-05-02T13:27:35.999Z</time></trkpt><trkpt lat="42.10136480061167" lon="13.40813634667383"><ele>870.0</ele><time>2026-05-02T13:27:36.999Z</time></trkpt><trkpt lat="42.10139319356639" lon="13.408027433790513"><ele>870.0</ele><time>2026-05-02T13:27:37.999Z</time></trkpt><trkpt lat="42.10140793469175" lon="13.407912898886849"><ele>870.0</ele><time>2026-05-02T13:27:38.999Z</time></trkpt><trkpt lat="42.10142735252901" lon="13.407791542528336"><ele>870.0</ele><time>2026-05-02T13:27:39.999Z</time></trkpt><trkpt lat="42.101459443294104" lon="13.407685445293216"><ele>870.0</ele><time>2026-05-02T13:27:40.999Z</time></trkpt><trkpt lat="42.101504273779604" lon="13.40758217029503"><ele>870.0</ele><time>2026-05-02T13:27:41.999Z</time></trkpt><trkpt lat="42.101554222554675" lon="13.407466599315926"><ele>869.3333333333334</ele><time>2026-05-02T13:27:42.999Z</time></trkpt><trkpt lat="42.101603208995506" lon="13.407354127797516"><ele>868.6666666666667</ele><time>2026-05-02T13:27:43.999Z</time></trkpt><trkpt lat="42.101644954574375" lon="13.407255618011787"><ele>868.0</ele><time>2026-05-02T13:27:44.999Z</time></trkpt><trkpt lat="42.101683148809165" lon="13.407168719074704"><ele>867.3333333333334</ele><time>2026-05-02T13:27:45.999Z</time></trkpt><trkpt lat="42.101718878278305" lon="13.407079398450078"><ele>866.6666666666667</ele><time>2026-05-02T13:27:46.999Z</time></trkpt><trkpt lat="42.10175522916722" lon="13.406989856056558"><ele>866.0</ele><time>2026-05-02T13:27:47.999Z</time></trkpt><trkpt lat="42.101795500597596" lon="13.406888554211138"><ele>865.0000000000001</ele><time>2026-05-02T13:27:48.999Z</time></trkpt><trkpt lat="42.101827105490486" lon="13.406810279933744"><ele>864.0</ele><time>2026-05-02T13:27:49.999Z</time></trkpt><trkpt lat="42.10186281265789" lon="13.40673807477202"><ele>863.0</ele><time>2026-05-02T13:27:50.999Z</time></trkpt><trkpt lat="42.10196366175877" lon="13.40661678027723"><ele>862.0</ele><time>2026-05-02T13:27:52.999Z</time></trkpt><trkpt lat="42.10203437203013" lon="13.406556709513557"><ele>861.0000000000001</ele><time>2026-05-02T13:27:53.999Z</time></trkpt><trkpt lat="42.102113574725344" lon="13.406480220824648"><ele>860.0</ele><time>2026-05-02T13:27:54.999Z</time></trkpt><trkpt lat="42.102196016668216" lon="13.406405014018997"><ele>860.0000000000001</ele><time>2026-05-02T13:27:55.999Z</time></trkpt><trkpt lat="42.10227414663419" lon="13.406344458229038"><ele>860.0</ele><time>2026-05-02T13:27:56.999Z</time></trkpt><trkpt lat="42.102337903197366" lon="13.406273303862005"><ele>860.0</ele><time>2026-05-02T13:27:57.999Z</time></trkpt><trkpt lat="42.10239588477078" lon="13.406180917166015"><ele>860.0</ele><time>2026-05-02T13:27:58.999Z</time></trkpt><trkpt lat="42.10245072710329" lon="13.406074034411454"><ele>860.0000000000001</ele><time>2026-05-02T13:27:59.999Z</time></trkpt><trkpt lat="42.10249661523217" lon="13.40598465291565"><ele>860.0</ele><time>2026-05-02T13:28:00.999Z</time></trkpt><trkpt lat="42.102538531826895" lon="13.405905920607614"><ele>858.8</ele><time>2026-05-02T13:28:01.999Z</time></trkpt><trkpt lat="42.10256967648542" lon="13.405831830940022"><ele>857.6</ele><time>2026-05-02T13:28:02.999Z</time></trkpt><trkpt lat="42.10260442888257" lon="13.40567732637069"><ele>856.4000000000001</ele><time>2026-05-02T13:28:04.999Z</time></trkpt><trkpt lat="42.10262513267517" lon="13.405566076232839"><ele>855.2</ele><time>2026-05-02T13:28:05.999Z</time></trkpt><trkpt lat="42.10265039529777" lon="13.405452794497497"><ele>854.0</ele><time>2026-05-02T13:28:06.999Z</time></trkpt><trkpt lat="42.10269799489394" lon="13.405317025958885"><ele>853.25</ele><time>2026-05-02T13:28:07.999Z</time></trkpt><trkpt lat="42.10275696404855" lon="13.405182880269635"><ele>852.5</ele><time>2026-05-02T13:28:08.999Z</time></trkpt><trkpt lat="42.102811756410105" lon="13.405043494673736"><ele>851.75</ele><time>2026-05-02T13:28:09.999Z</time></trkpt><trkpt lat="42.10285561370138" lon="13.40490735334926"><ele>851.0</ele><time>2026-05-02T13:28:10.999Z</time></trkpt><trkpt lat="42.1029021989614" lon="13.404771871959039"><ele>850.4</ele><time>2026-05-02T13:28:11.999Z</time></trkpt><trkpt lat="42.10294219396526" lon="13.404645778961342"><ele>849.8</ele><time>2026-05-02T13:28:12.999Z</time></trkpt><trkpt lat="42.102972269736235" lon="13.404528695163386"><ele>849.1999999999999</ele><time>2026-05-02T13:28:13.999Z</time></trkpt><trkpt lat="42.10300207215944" lon="13.40441199533522"><ele>848.5999999999999</ele><time>2026-05-02T13:28:14.999Z</time></trkpt><trkpt lat="42.103040832515674" lon="13.404295703421031"><ele>848.0</ele><time>2026-05-02T13:28:15.999Z</time></trkpt><trkpt lat="42.10308992974157" lon="13.404171200233275"><ele>848.0</ele><time>2026-05-02T13:28:16.999Z</time></trkpt><trkpt lat="42.103141706133535" lon="13.404041362830316"><ele>848.0</ele><time>2026-05-02T13:28:17.999Z</time></trkpt><trkpt lat="42.1031884718292" lon="13.403929492345883"><ele>848.0</ele><time>2026-05-02T13:28:18.999Z</time></trkpt><trkpt lat="42.10323093359418" lon="13.403826419378564"><ele>848.0</ele><time>2026-05-02T13:28:19.999Z</time></trkpt><trkpt lat="42.1032834684406" lon="13.403725382081408"><ele>848.0</ele><time>2026-05-02T13:28:20.999Z</time></trkpt><trkpt lat="42.10334175584435" lon="13.4036236291679"><ele>847.2</ele><time>2026-05-02T13:28:21.999Z</time></trkpt><trkpt lat="42.10339669984371" lon="13.40350457068474"><ele>846.4</ele><time>2026-05-02T13:28:22.999Z</time></trkpt><trkpt lat="42.103455056493495" lon="13.403380183850253"><ele>845.6</ele><time>2026-05-02T13:28:23.999Z</time></trkpt><trkpt lat="42.10350814161047" lon="13.403268497607336"><ele>844.8000000000001</ele><time>2026-05-02T13:28:24.999Z</time></trkpt><trkpt lat="42.103566626750094" lon="13.403148064608414"><ele>844.0</ele><time>2026-05-02T13:28:25.999Z</time></trkpt><trkpt lat="42.10361507363636" lon="13.403036158038166"><ele>843.2</ele><time>2026-05-02T13:28:26.999Z</time></trkpt><trkpt lat="42.10365852343861" lon="13.402929902172852"><ele>842.4000000000001</ele><time>2026-05-02T13:28:27.999Z</time></trkpt><trkpt lat="42.10370913480796" lon="13.402823367987367"><ele>841.6</ele><time>2026-05-02T13:28:28.999Z</time></trkpt><trkpt lat="42.10376340520283" lon="13.402720469613998"><ele>840.8</ele><time>2026-05-02T13:28:29.999Z</time></trkpt><trkpt lat="42.103814563519016" lon="13.402620891523656"><ele>840.0</ele><time>2026-05-02T13:28:30.999Z</time></trkpt><trkpt lat="42.1038701322429" lon="13.402524380580997"><ele>840.0</ele><time>2026-05-02T13:28:31.999Z</time></trkpt><trkpt lat="42.10393067323361" lon="13.402446861736244"><ele>840.0</ele><time>2026-05-02T13:28:32.999Z</time></trkpt><trkpt lat="42.10400010751951" lon="13.402364295428134"><ele>840.0</ele><time>2026-05-02T13:28:33.999Z</time></trkpt><trkpt lat="42.10407605007625" lon="13.402266714570448"><ele>840.0</ele><time>2026-05-02T13:28:34.999Z</time></trkpt><trkpt lat="42.1041588120497" lon="13.402166527618697"><ele>840.0</ele><time>2026-05-02T13:28:35.999Z</time></trkpt><trkpt lat="42.1042305055231" lon="13.402067745926937"><ele>839.8</ele><time>2026-05-02T13:28:36.999Z</time></trkpt><trkpt lat="42.104285212803944" lon="13.401965688375052"><ele>839.6</ele><time>2026-05-02T13:28:37.999Z</time></trkpt><trkpt lat="42.104333526565675" lon="13.401860328458802"><ele>839.4000000000001</ele><time>2026-05-02T13:28:38.999Z</time></trkpt><trkpt lat="42.10438100436006" lon="13.4017629729025"><ele>839.2</ele><time>2026-05-02T13:28:39.999Z</time></trkpt><trkpt lat="42.10443729233442" lon="13.401657060245832"><ele>839.0</ele><time>2026-05-02T13:28:40.999Z</time></trkpt><trkpt lat="42.10449289742547" lon="13.401552992532151"><ele>839.0</ele><time>2026-05-02T13:28:41.999Z</time></trkpt><trkpt lat="42.10455001382895" lon="13.401439211619929"><ele>839.0</ele><time>2026-05-02T13:28:42.999Z</time></trkpt><trkpt lat="42.10461600895677" lon="13.401322216112476"><ele>839.0</ele><time>2026-05-02T13:28:43.999Z</time></trkpt><trkpt lat="42.1046789926724" lon="13.401214140527967"><ele>839.0</ele><time>2026-05-02T13:28:44.999Z</time></trkpt><trkpt lat="42.10474311248467" lon="13.401115821526096"><ele>839.0</ele><time>2026-05-02T13:28:45.999Z</time></trkpt><trkpt lat="42.104806689092925" lon="13.40100557152259"><ele>838.8000000000001</ele><time>2026-05-02T13:28:46.999Z</time></trkpt><trkpt lat="42.104862610392956" lon="13.400901859170629"><ele>838.6</ele><time>2026-05-02T13:28:47.999Z</time></trkpt><trkpt lat="42.104918198810985" lon="13.400794051681986"><ele>838.4</ele><time>2026-05-02T13:28:48.999Z</time></trkpt><trkpt lat="42.10497174681132" lon="13.400696689356835"><ele>838.2</ele><time>2026-05-02T13:28:49.999Z</time></trkpt><trkpt lat="42.10502344259688" lon="13.400595412849219"><ele>838.0</ele><time>2026-05-02T13:28:50.999Z</time></trkpt><trkpt lat="42.10507076614298" lon="13.400488533820857"><ele>837.2</ele><time>2026-05-02T13:28:51.999Z</time></trkpt><trkpt lat="42.105120253203935" lon="13.400394259359095"><ele>836.4</ele><time>2026-05-02T13:28:52.999Z</time></trkpt><trkpt lat="42.105173514281795" lon="13.40030018541084"><ele>835.6</ele><time>2026-05-02T13:28:53.999Z</time></trkpt><trkpt lat="42.105239044083305" lon="13.400202253261686"><ele>834.8000000000001</ele><time>2026-05-02T13:28:54.999Z</time></trkpt><trkpt lat="42.105289320276015" lon="13.400117866265175"><ele>834.0</ele><time>2026-05-02T13:28:55.999Z</time></trkpt><trkpt lat="42.10535412925222" lon="13.399997845528302"><ele>834.0</ele><time>2026-05-02T13:28:56.999Z</time></trkpt><trkpt lat="42.10540392293094" lon="13.399892717827488"><ele>834.0</ele><time>2026-05-02T13:28:57.999Z</time></trkpt><trkpt lat="42.105450285912895" lon="13.399777984222458"><ele>834.0</ele><time>2026-05-02T13:28:58.999Z</time></trkpt><trkpt lat="42.1054981499003" lon="13.399662352131525"><ele>834.0</ele><time>2026-05-02T13:28:59.999Z</time></trkpt><trkpt lat="42.10553842217845" lon="13.399547966567843"><ele>834.0</ele><time>2026-05-02T13:29:00.999Z</time></trkpt><trkpt lat="42.105582435927715" lon="13.399437157615887"><ele>833.8333333333334</ele><time>2026-05-02T13:29:01.999Z</time></trkpt><trkpt lat="42.10560920254968" lon="13.39934461329667"><ele>833.6666666666667</ele><time>2026-05-02T13:29:02.999Z</time></trkpt><trkpt lat="42.105626259951364" lon="13.39923200097972"><ele>833.5</ele><time>2026-05-02T13:29:03.999Z</time></trkpt><trkpt lat="42.10562689149454" lon="13.399124252697671"><ele>833.3333333333334</ele><time>2026-05-02T13:29:04.999Z</time></trkpt><trkpt lat="42.105622288237" lon="13.399032076997157"><ele>833.1666666666667</ele><time>2026-05-02T13:29:05.999Z</time></trkpt><trkpt lat="42.105620485055304" lon="13.398941228758094"><ele>833.0</ele><time>2026-05-02T13:29:06.999Z</time></trkpt><trkpt lat="42.105643037211046" lon="13.398804361646615"><ele>833.0</ele><time>2026-05-02T13:29:08.999Z</time></trkpt><trkpt lat="42.105704096691255" lon="13.398675960265221"><ele>833.0</ele><time>2026-05-02T13:29:10.999Z</time></trkpt><trkpt lat="42.10574844756906" lon="13.398585642639457"><ele>833.0</ele><time>2026-05-02T13:29:11.999Z</time></trkpt><trkpt lat="42.105826126918494" lon="13.398518687676415"><ele>833.0</ele><time>2026-05-02T13:29:12.999Z</time></trkpt><trkpt lat="42.10592458241713" lon="13.398444324256692"><ele>833.0</ele><time>2026-05-02T13:29:13.999Z</time></trkpt><trkpt lat="42.10603727739373" lon="13.398347083609764"><ele>833.0</ele><time>2026-05-02T13:29:14.999Z</time></trkpt><trkpt lat="42.10615146412812" lon="13.398264820921193"><ele>833.0</ele><time>2026-05-02T13:29:15.999Z</time></trkpt><trkpt lat="42.10626668489588" lon="13.398179927267282"><ele>833.0</ele><time>2026-05-02T13:29:16.999Z</time></trkpt><trkpt lat="42.106375561683535" lon="13.398106010855573"><ele>833.0</ele><time>2026-05-02T13:29:17.999Z</time></trkpt><trkpt lat="42.10648380887084" lon="13.398026813038719"><ele>834.0</ele><time>2026-05-02T13:29:18.999Z</time></trkpt><trkpt lat="42.106578019866156" lon="13.39794366126306"><ele>835.0</ele><time>2026-05-02T13:29:19.999Z</time></trkpt><trkpt lat="42.10666721017949" lon="13.397842009070228"><ele>836.0</ele><time>2026-05-02T13:29:20.999Z</time></trkpt><trkpt lat="42.10676503030004" lon="13.397741425548569"><ele>837.0</ele><time>2026-05-02T13:29:21.999Z</time></trkpt><trkpt lat="42.106845004140325" lon="13.39761239892939"><ele>837.0</ele><time>2026-05-02T13:29:22.999Z</time></trkpt><trkpt lat="42.10690824772962" lon="13.397466162293602"><ele>837.0</ele><time>2026-05-02T13:29:23.999Z</time></trkpt><trkpt lat="42.10698323332037" lon="13.397335133980299"><ele>837.0</ele><time>2026-05-02T13:29:24.999Z</time></trkpt><trkpt lat="42.10704917406515" lon="13.397199371714402"><ele>837.0</ele><time>2026-05-02T13:29:25.999Z</time></trkpt><trkpt lat="42.107105697975534" lon="13.397072321759724"><ele>837.4000000000001</ele><time>2026-05-02T13:29:26.999Z</time></trkpt><trkpt lat="42.10715530794255" lon="13.396970757605144"><ele>837.8000000000001</ele><time>2026-05-02T13:29:28Z</time></trkpt><trkpt lat="42.10719361295112" lon="13.396902095234259"><ele>838.2</ele><time>2026-05-02T13:29:29Z</time></trkpt><trkpt lat="42.107240633013454" lon="13.396814115947171"><ele>838.6</ele><time>2026-05-02T13:29:31Z</time></trkpt><trkpt lat="42.10714215325894" lon="13.39666275696502"><ele>839.0</ele><time>2026-05-02T13:29:32Z</time></trkpt><trkpt lat="42.107096729299045" lon="13.396566861963622"><ele>839.0</ele><time>2026-05-02T13:29:33Z</time></trkpt><trkpt lat="42.10703494937529" lon="13.396466972894723"><ele>839.0</ele><time>2026-05-02T13:29:34Z</time></trkpt><trkpt lat="42.106982172058814" lon="13.396337674766313"><ele>839.0</ele><time>2026-05-02T13:29:35Z</time></trkpt><trkpt lat="42.1069195265289" lon="13.396202387714451"><ele>839.0</ele><time>2026-05-02T13:29:36Z</time></trkpt><trkpt lat="42.10685050782527" lon="13.396057816118669"><ele>840.0</ele><time>2026-05-02T13:29:37Z</time></trkpt><trkpt lat="42.10678108979249" lon="13.395913998463286"><ele>841.0</ele><time>2026-05-02T13:29:38Z</time></trkpt><trkpt lat="42.106713021597194" lon="13.395769092973616"><ele>842.0</ele><time>2026-05-02T13:29:39Z</time></trkpt><trkpt lat="42.106648386812516" lon="13.395623854465198"><ele>843.0</ele><time>2026-05-02T13:29:40Z</time></trkpt><trkpt lat="42.10658631952554" lon="13.395479484958718"><ele>842.75</ele><time>2026-05-02T13:29:41Z</time></trkpt><trkpt lat="42.106521923867476" lon="13.395336544779791"><ele>842.5</ele><time>2026-05-02T13:29:42Z</time></trkpt><trkpt lat="42.106459374405965" lon="13.395198965539024"><ele>842.25</ele><time>2026-05-02T13:29:43Z</time></trkpt><trkpt lat="42.1063986712866" lon="13.39506438018353"><ele>842.0</ele><time>2026-05-02T13:29:44Z</time></trkpt><trkpt lat="42.106338086156896" lon="13.394930166308047"><ele>842.0</ele><time>2026-05-02T13:29:45Z</time></trkpt><trkpt lat="42.10627838617807" lon="13.394800576142833"><ele>842.0</ele><time>2026-05-02T13:29:46Z</time></trkpt><trkpt lat="42.10622232321483" lon="13.394674476150334"><ele>842.0</ele><time>2026-05-02T13:29:47Z</time></trkpt><trkpt lat="42.10617226654314" lon="13.394558009268287"><ele>842.0</ele><time>2026-05-02T13:29:47.999Z</time></trkpt><trkpt lat="42.106124108675914" lon="13.394452179974968"><ele>842.0</ele><time>2026-05-02T13:29:48.999Z</time></trkpt><trkpt lat="42.10608582264829" lon="13.394374206374343"><ele>842.2</ele><time>2026-05-02T13:29:49.999Z</time></trkpt><trkpt lat="42.10606304801731" lon="13.3942796111526"><ele>842.4000000000001</ele><time>2026-05-02T13:29:51.999Z</time></trkpt><trkpt lat="42.10594720523735" lon="13.394164201612124"><ele>842.5999999999999</ele><time>2026-05-02T13:29:54.999Z</time></trkpt><trkpt lat="42.105873931480524" lon="13.394143879374347"><ele>842.8</ele><time>2026-05-02T13:29:55.999Z</time></trkpt><trkpt lat="42.105776530833076" lon="13.394120357302171"><ele>843.0</ele><time>2026-05-02T13:29:56.999Z</time></trkpt><trkpt lat="42.105703097665476" lon="13.394096941221656"><ele>841.5</ele><time>2026-05-02T13:29:57.999Z</time></trkpt><trkpt lat="42.10564658589892" lon="13.394043879234014"><ele>840.0</ele><time>2026-05-02T13:29:58.999Z</time></trkpt><trkpt lat="42.10558359126631" lon="13.39404686857679"><ele>838.5</ele><time>2026-05-02T13:29:59.999Z</time></trkpt><trkpt lat="42.1054946314703" lon="13.393993031429096"><ele>837.0</ele><time>2026-05-02T13:30:01.999Z</time></trkpt><trkpt lat="42.105438716700654" lon="13.393873054430824"><ele>835.5</ele><time>2026-05-02T13:30:03.999Z</time></trkpt><trkpt lat="42.10543422045926" lon="13.393777397693592"><ele>834.0</ele><time>2026-05-02T13:30:05.999Z</time></trkpt><trkpt lat="42.10549495310428" lon="13.393696434562294"><ele>833.3333333333334</ele><time>2026-05-02T13:30:06.999Z</time></trkpt><trkpt lat="42.105566240658256" lon="13.393618414930904"><ele>832.6666666666667</ele><time>2026-05-02T13:30:07.999Z</time></trkpt><trkpt lat="42.10563001911133" lon="13.39353621604961"><ele>832.0</ele><time>2026-05-02T13:30:08.999Z</time></trkpt><trkpt lat="42.10568694626945" lon="13.39346508846922"><ele>831.3333333333334</ele><time>2026-05-02T13:30:09.999Z</time></trkpt><trkpt lat="42.105744659299745" lon="13.393409371963877"><ele>830.6666666666667</ele><time>2026-05-02T13:30:10.999Z</time></trkpt><trkpt lat="42.10584550536874" lon="13.393333176133648"><ele>830.0</ele><time>2026-05-02T13:30:12.999Z</time></trkpt><trkpt lat="42.10591082113831" lon="13.393284669361904"><ele>830.0</ele><time>2026-05-02T13:30:14.999Z</time></trkpt><trkpt lat="42.10583247423876" lon="13.393329798906228"><ele>830.0</ele><time>2026-05-02T13:30:27Z</time></trkpt><trkpt lat="42.10571958514934" lon="13.393386528066964"><ele>830.0</ele><time>2026-05-02T13:30:28Z</time></trkpt><trkpt lat="42.10564467982102" lon="13.393472993285592"><ele>830.0</ele><time>2026-05-02T13:30:29Z</time></trkpt><trkpt lat="42.10557960971702" lon="13.39354957066723"><ele>830.0</ele><time>2026-05-02T13:30:30Z</time></trkpt><trkpt lat="42.1055192718038" lon="13.393629014480021"><ele>830.0000000000001</ele><time>2026-05-02T13:30:31Z</time></trkpt><trkpt lat="42.10546480081046" lon="13.393711823826159"><ele>830.0</ele><time>2026-05-02T13:30:32Z</time></trkpt><trkpt lat="42.105414105631205" lon="13.393791963902926"><ele>830.0</ele><time>2026-05-02T13:30:33Z</time></trkpt><trkpt lat="42.10535969119645" lon="13.39387082481679"><ele>830.0</ele><time>2026-05-02T13:30:34Z</time></trkpt><trkpt lat="42.10532352103185" lon="13.393982593225399"><ele>830.0000000000001</ele><time>2026-05-02T13:30:35Z</time></trkpt><trkpt lat="42.1052526558803" lon="13.3940202781568"><ele>830.0</ele><time>2026-05-02T13:30:36Z</time></trkpt><trkpt lat="42.10519570285521" lon="13.39409027751733"><ele>830.8</ele><time>2026-05-02T13:30:37Z</time></trkpt><trkpt lat="42.10514249345414" lon="13.394159056762929"><ele>831.6</ele><time>2026-05-02T13:30:38Z</time></trkpt><trkpt lat="42.10509600523131" lon="13.394225734069808"><ele>832.4000000000001</ele><time>2026-05-02T13:30:39Z</time></trkpt><trkpt lat="42.10501851173599" lon="13.394324160146931"><ele>833.2</ele><time>2026-05-02T13:30:41Z</time></trkpt><trkpt lat="42.10495065200641" lon="13.394155379168097"><ele>834.0</ele><time>2026-05-02T13:30:45Z</time></trkpt><trkpt lat="42.10494410037976" lon="13.3940395161909"><ele>834.0</ele><time>2026-05-02T13:30:46Z</time></trkpt><trkpt lat="42.1049605374978" lon="13.393907805719673"><ele>834.0</ele><time>2026-05-02T13:30:47Z</time></trkpt><trkpt lat="42.10498654591961" lon="13.393762614182359"><ele>834.0</ele><time>2026-05-02T13:30:48Z</time></trkpt><trkpt lat="42.10501130593621" lon="13.393609125299346"><ele>834.0</ele><time>2026-05-02T13:30:49Z</time></trkpt><trkpt lat="42.10505088315541" lon="13.393474607997092"><ele>834.0</ele><time>2026-05-02T13:30:50Z</time></trkpt><trkpt lat="42.105094211091846" lon="13.393333086385464"><ele>833.0</ele><time>2026-05-02T13:30:51Z</time></trkpt><trkpt lat="42.105147449860546" lon="13.393188353363733"><ele>832.0</ele><time>2026-05-02T13:30:52Z</time></trkpt><trkpt lat="42.10518691658906" lon="13.3930312860439"><ele>831.0</ele><time>2026-05-02T13:30:53Z</time></trkpt><trkpt lat="42.1052052695815" lon="13.39286888194442"><ele>830.0</ele><time>2026-05-02T13:30:54Z</time></trkpt><trkpt lat="42.105212140878685" lon="13.392713429947184"><ele>829.0</ele><time>2026-05-02T13:30:55Z</time></trkpt><trkpt lat="42.105209837178876" lon="13.392560271428733"><ele>828.0</ele><time>2026-05-02T13:30:56Z</time></trkpt><trkpt lat="42.10513911437196" lon="13.392410093234718"><ele>827.0</ele><time>2026-05-02T13:30:57Z</time></trkpt><trkpt lat="42.105090433756466" lon="13.392239187462872"><ele>826.0</ele><time>2026-05-02T13:30:58Z</time></trkpt><trkpt lat="42.10502232776542" lon="13.392082144010459"><ele>826.0</ele><time>2026-05-02T13:30:59Z</time></trkpt><trkpt lat="42.10494571225779" lon="13.391930297974762"><ele>826.0</ele><time>2026-05-02T13:31:00Z</time></trkpt><trkpt lat="42.10490032953881" lon="13.391761932952106"><ele>826.0</ele><time>2026-05-02T13:31:01Z</time></trkpt><trkpt lat="42.104845328660794" lon="13.391599653145038"><ele>826.0</ele><time>2026-05-02T13:31:02Z</time></trkpt><trkpt lat="42.104787759367774" lon="13.391450309949427"><ele>826.5</ele><time>2026-05-02T13:31:03Z</time></trkpt><trkpt lat="42.10476004703115" lon="13.391279621730853"><ele>827.0</ele><time>2026-05-02T13:31:04Z</time></trkpt><trkpt lat="42.10471933571138" lon="13.39110769652455"><ele>827.5</ele><time>2026-05-02T13:31:05Z</time></trkpt><trkpt lat="42.10466141303087" lon="13.390932114526333"><ele>828.0</ele><time>2026-05-02T13:31:06Z</time></trkpt><trkpt lat="42.104614851791446" lon="13.390736138381016"><ele>828.0</ele><time>2026-05-02T13:31:07Z</time></trkpt><trkpt lat="42.104562231003534" lon="13.39053309602327"><ele>828.0</ele><time>2026-05-02T13:31:08Z</time></trkpt><trkpt lat="42.104512716110875" lon="13.390354398660884"><ele>828.0</ele><time>2026-05-02T13:31:09Z</time></trkpt><trkpt lat="42.104478674137745" lon="13.390198046988807"><ele>828.0</ele><time>2026-05-02T13:31:10Z</time></trkpt><trkpt lat="42.104445258290504" lon="13.390049847036167"><ele>828.5999999999999</ele><time>2026-05-02T13:31:11Z</time></trkpt><trkpt lat="42.1044232493254" lon="13.389921002716953"><ele>829.1999999999999</ele><time>2026-05-02T13:31:12Z</time></trkpt><trkpt lat="42.1044266845884" lon="13.38982641755548"><ele>829.8</ele><time>2026-05-02T13:31:13Z</time></trkpt><trkpt lat="42.104457116275654" lon="13.389702090919691"><ele>830.4</ele><time>2026-05-02T13:31:15Z</time></trkpt><trkpt lat="42.104508630243004" lon="13.38950761066799"><ele>831.0</ele><time>2026-05-02T13:31:18Z</time></trkpt><trkpt lat="42.104438319332935" lon="13.389386248299113"><ele>831.5</ele><time>2026-05-02T13:31:20Z</time></trkpt><trkpt lat="42.10437668118816" lon="13.389359153571395"><ele>832.0</ele><time>2026-05-02T13:31:21Z</time></trkpt><trkpt lat="42.10400518408898" lon="13.389526535269347"><ele>831.4999999999999</ele><time>2026-05-02T13:31:22Z</time></trkpt><trkpt lat="42.103915364573616" lon="13.389510013612641"><ele>831.0</ele><time>2026-05-02T13:31:23Z</time></trkpt><trkpt lat="42.10384284096514" lon="13.389500068129763"><ele>830.5</ele><time>2026-05-02T13:31:24Z</time></trkpt><trkpt lat="42.103779772995345" lon="13.389488853125595"><ele>830.0</ele><time>2026-05-02T13:31:25Z</time></trkpt><trkpt lat="42.10367597553543" lon="13.389463075540712"><ele>829.4999999999999</ele><time>2026-05-02T13:31:27Z</time></trkpt><trkpt lat="42.103600077760916" lon="13.389380097018067"><ele>829.0</ele><time>2026-05-02T13:31:29Z</time></trkpt><trkpt lat="42.10355073496435" lon="13.389288598964562"><ele>829.0</ele><time>2026-05-02T13:31:30Z</time></trkpt><trkpt lat="42.10350246823477" lon="13.389170583236085"><ele>829.0</ele><time>2026-05-02T13:31:31Z</time></trkpt><trkpt lat="42.103454762350665" lon="13.38903468140533"><ele>829.0</ele><time>2026-05-02T13:31:32Z</time></trkpt><trkpt lat="42.103410378111846" lon="13.388905515726247"><ele>829.0</ele><time>2026-05-02T13:31:33Z</time></trkpt><trkpt lat="42.103363356392364" lon="13.388779618234235"><ele>829.0</ele><time>2026-05-02T13:31:34Z</time></trkpt><trkpt lat="42.10331783142878" lon="13.388658157438362"><ele>828.8333333333333</ele><time>2026-05-02T13:31:35Z</time></trkpt><trkpt lat="42.10327341081745" lon="13.388545043178341"><ele>828.6666666666666</ele><time>2026-05-02T13:31:36Z</time></trkpt><trkpt lat="42.103227630583746" lon="13.388451662505554"><ele>828.5</ele><time>2026-05-02T13:31:37Z</time></trkpt><trkpt lat="42.103183866662874" lon="13.388369101615815"><ele>828.3333333333333</ele><time>2026-05-02T13:31:38Z</time></trkpt><trkpt lat="42.103144087901846" lon="13.388285934398994"><ele>828.1666666666666</ele><time>2026-05-02T13:31:39Z</time></trkpt><trkpt lat="42.103109648795616" lon="13.38813945936322"><ele>828.0</ele><time>2026-05-02T13:31:41Z</time></trkpt><trkpt lat="42.10317164116052" lon="13.388039313339126"><ele>827.4</ele><time>2026-05-02T13:31:43Z</time></trkpt><trkpt lat="42.10321691714952" lon="13.387889160992598"><ele>826.8</ele><time>2026-05-02T13:31:45Z</time></trkpt><trkpt lat="42.103194318616296" lon="13.387791471923455"><ele>826.2</ele><time>2026-05-02T13:31:46Z</time></trkpt><trkpt lat="42.10314930118153" lon="13.387678955174495"><ele>825.6</ele><time>2026-05-02T13:31:47Z</time></trkpt><trkpt lat="42.10310767382001" lon="13.387583856537143"><ele>825.0</ele><time>2026-05-02T13:31:48Z</time></trkpt><trkpt lat="42.103055259891825" lon="13.387464440572638"><ele>825.0</ele><time>2026-05-02T13:31:50Z</time></trkpt><trkpt lat="42.1030032252346" lon="13.387316100621618"><ele>825.0</ele><time>2026-05-02T13:31:52Z</time></trkpt><trkpt lat="42.10295593291418" lon="13.387187802078968"><ele>825.0</ele><time>2026-05-02T13:31:54Z</time></trkpt><trkpt lat="42.102921336902504" lon="13.387048955313846"><ele>825.0</ele><time>2026-05-02T13:31:56Z</time></trkpt><trkpt lat="42.10295025343991" lon="13.386970154233063"><ele>825.0</ele><time>2026-05-02T13:31:58Z</time></trkpt><trkpt lat="42.10299023853599" lon="13.386841086693295"><ele>825.0</ele><time>2026-05-02T13:32:00Z</time></trkpt><trkpt lat="42.10297990706786" lon="13.386752372991277"><ele>825.0</ele><time>2026-05-02T13:32:01Z</time></trkpt><trkpt lat="42.10294811080944" lon="13.386663257702976"><ele>825.0</ele><time>2026-05-02T13:32:02Z</time></trkpt><trkpt lat="42.102901531907904" lon="13.386580246206645"><ele>825.0</ele><time>2026-05-02T13:32:03Z</time></trkpt><trkpt lat="42.102851863032036" lon="13.386505583901979"><ele>825.0</ele><time>2026-05-02T13:32:04Z</time></trkpt><trkpt lat="42.102808732577735" lon="13.386409293057985"><ele>825.0</ele><time>2026-05-02T13:32:05Z</time></trkpt><trkpt lat="42.102768723451916" lon="13.386302309504655"><ele>825.1666666666666</ele><time>2026-05-02T13:32:06Z</time></trkpt><trkpt lat="42.10272752568141" lon="13.386207617529688"><ele>825.3333333333333</ele><time>2026-05-02T13:32:07Z</time></trkpt><trkpt lat="42.102686665410516" lon="13.38612546805926"><ele>825.5</ele><time>2026-05-02T13:32:08Z</time></trkpt><trkpt lat="42.10264304320638" lon="13.3860368324431"><ele>825.6666666666666</ele><time>2026-05-02T13:32:09Z</time></trkpt><trkpt lat="42.102601689532264" lon="13.385946555793682"><ele>825.8333333333333</ele><time>2026-05-02T13:32:10Z</time></trkpt><trkpt lat="42.102557214015356" lon="13.385869293364097"><ele>826.0</ele><time>2026-05-02T13:32:11Z</time></trkpt><trkpt lat="42.10250727203302" lon="13.38579342757702"><ele>825.9999999999999</ele><time>2026-05-02T13:32:12Z</time></trkpt><trkpt lat="42.1024598610199" lon="13.38571783534933"><ele>826.0</ele><time>2026-05-02T13:32:13Z</time></trkpt><trkpt lat="42.102403825258676" lon="13.385619324193039"><ele>826.0</ele><time>2026-05-02T13:32:14Z</time></trkpt><trkpt lat="42.102364760329095" lon="13.385549617354606"><ele>826.0</ele><time>2026-05-02T13:32:15Z</time></trkpt><trkpt lat="42.10230298647265" lon="13.385457596168884"><ele>825.9999999999999</ele><time>2026-05-02T13:32:17Z</time></trkpt><trkpt lat="42.102305856353304" lon="13.385352022797084"><ele>826.0</ele><time>2026-05-02T13:32:21Z</time></trkpt><trkpt lat="42.10234282534681" lon="13.385209964825862"><ele>826.3333333333333</ele><time>2026-05-02T13:32:23Z</time></trkpt><trkpt lat="42.10238883204975" lon="13.38514461983148"><ele>826.6666666666666</ele><time>2026-05-02T13:32:24Z</time></trkpt><trkpt lat="42.1024400495604" lon="13.385080286527751"><ele>827.0</ele><time>2026-05-02T13:32:25Z</time></trkpt><trkpt lat="42.10249887623754" lon="13.384993992440819"><ele>827.3333333333333</ele><time>2026-05-02T13:32:26Z</time></trkpt><trkpt lat="42.102561885747456" lon="13.384906284298237"><ele>827.6666666666666</ele><time>2026-05-02T13:32:27Z</time></trkpt><trkpt lat="42.10263310579571" lon="13.384816394438657"><ele>828.0</ele><time>2026-05-02T13:32:28Z</time></trkpt><trkpt lat="42.10269235930635" lon="13.384754417560803"><ele>828.0</ele><time>2026-05-02T13:32:29Z</time></trkpt><trkpt lat="42.10274948937209" lon="13.384710252686727"><ele>828.0</ele><time>2026-05-02T13:32:30Z</time></trkpt><trkpt lat="42.10282138435454" lon="13.384676281337285"><ele>828.0</ele><time>2026-05-02T13:32:31Z</time></trkpt><trkpt lat="42.10288803093899" lon="13.384637369901847"><ele>828.0</ele><time>2026-05-02T13:32:32Z</time></trkpt><trkpt lat="42.10293568292876" lon="13.384581104570556"><ele>828.0</ele><time>2026-05-02T13:32:33Z</time></trkpt><trkpt lat="42.10299585447999" lon="13.384489135657457"><ele>828.0</ele><time>2026-05-02T13:32:34Z</time></trkpt><trkpt lat="42.10305533280916" lon="13.384406299599904"><ele>828.2</ele><time>2026-05-02T13:32:35Z</time></trkpt><trkpt lat="42.103123302341565" lon="13.384317145314075"><ele>828.4</ele><time>2026-05-02T13:32:36Z</time></trkpt><trkpt lat="42.103193663311075" lon="13.384211421078726"><ele>828.6</ele><time>2026-05-02T13:32:37Z</time></trkpt><trkpt lat="42.10326390375632" lon="13.38409785456765"><ele>828.8000000000001</ele><time>2026-05-02T13:32:38Z</time></trkpt><trkpt lat="42.10332213489228" lon="13.38399703676249"><ele>829.0</ele><time>2026-05-02T13:32:39Z</time></trkpt><trkpt lat="42.103371915436675" lon="13.383888041321024"><ele>829.9999999999999</ele><time>2026-05-02T13:32:40Z</time></trkpt><trkpt lat="42.10341846183082" lon="13.383790928586924"><ele>831.0</ele><time>2026-05-02T13:32:41Z</time></trkpt><trkpt lat="42.10345866412454" lon="13.383715825933956"><ele>832.0</ele><time>2026-05-02T13:32:42Z</time></trkpt><trkpt lat="42.10355042101302" lon="13.383624780967365"><ele>833.0</ele><time>2026-05-02T13:32:44Z</time></trkpt><trkpt lat="42.10364489106016" lon="13.383536680829787"><ele>833.9999999999999</ele><time>2026-05-02T13:32:46Z</time></trkpt><trkpt lat="42.103705891373345" lon="13.383506301529934"><ele>835.0</ele><time>2026-05-02T13:32:47Z</time></trkpt><trkpt lat="42.10376690445385" lon="13.383451073709047"><ele>834.9999999999999</ele><time>2026-05-02T13:32:48Z</time></trkpt><trkpt lat="42.103836128142646" lon="13.383380660297629"><ele>835.0</ele><time>2026-05-02T13:32:49Z</time></trkpt><trkpt lat="42.10390042201031" lon="13.38330186046643"><ele>835.0</ele><time>2026-05-02T13:32:50Z</time></trkpt><trkpt lat="42.10396973384663" lon="13.383228256074844"><ele>835.0</ele><time>2026-05-02T13:32:51Z</time></trkpt><trkpt lat="42.1040301407178" lon="13.383182180396469"><ele>834.9999999999999</ele><time>2026-05-02T13:32:52Z</time></trkpt><trkpt lat="42.104105372203605" lon="13.383155396942058"><ele>835.0</ele><time>2026-05-02T13:32:53Z</time></trkpt><trkpt lat="42.10417754265511" lon="13.383135907111994"><ele>836.8</ele><time>2026-05-02T13:32:54Z</time></trkpt><trkpt lat="42.10425779334722" lon="13.383097503631006"><ele>838.6</ele><time>2026-05-02T13:32:55Z</time></trkpt><trkpt lat="42.10434552151619" lon="13.3830314773367"><ele>840.4000000000001</ele><time>2026-05-02T13:32:56Z</time></trkpt><trkpt lat="42.104454824203124" lon="13.38296004068424"><ele>842.2</ele><time>2026-05-02T13:32:57Z</time></trkpt><trkpt lat="42.10456688987915" lon="13.382908233043722"><ele>844.0</ele><time>2026-05-02T13:32:58Z</time></trkpt><trkpt lat="42.10467024004516" lon="13.382871220030188"><ele>844.0</ele><time>2026-05-02T13:32:59Z</time></trkpt><trkpt lat="42.104771575628845" lon="13.38282572127526"><ele>844.0</ele><time>2026-05-02T13:33:00Z</time></trkpt><trkpt lat="42.10486181707572" lon="13.382779308980655"><ele>844.0</ele><time>2026-05-02T13:33:01Z</time></trkpt><trkpt lat="42.10493725323484" lon="13.382747923453879"><ele>844.0</ele><time>2026-05-02T13:33:02Z</time></trkpt><trkpt lat="42.10506009796605" lon="13.382748286803574"><ele>844.0</ele><time>2026-05-02T13:33:04Z</time></trkpt><trkpt lat="42.1051401109548" lon="13.38276123730688"><ele>844.9999999999999</ele><time>2026-05-02T13:33:05Z</time></trkpt><trkpt lat="42.1052338832622" lon="13.382773844118486"><ele>846.0</ele><time>2026-05-02T13:33:06Z</time></trkpt><trkpt lat="42.10532100701112" lon="13.382799616205318"><ele>847.0</ele><time>2026-05-02T13:33:07Z</time></trkpt><trkpt lat="42.105411348269605" lon="13.38281028793488"><ele>848.0</ele><time>2026-05-02T13:33:08Z</time></trkpt><trkpt lat="42.10550680324604" lon="13.382803266879034"><ele>848.9999999999999</ele><time>2026-05-02T13:33:09Z</time></trkpt><trkpt lat="42.10558353894239" lon="13.382797607443342"><ele>850.0</ele><time>2026-05-02T13:33:10Z</time></trkpt><trkpt lat="42.10564612699297" lon="13.38280677595517"><ele>849.9999999999999</ele><time>2026-05-02T13:33:11Z</time></trkpt><trkpt lat="42.10571543842586" lon="13.382831196842647"><ele>850.0</ele><time>2026-05-02T13:33:12Z</time></trkpt><trkpt lat="42.10580019829898" lon="13.382856618257486"><ele>850.0</ele><time>2026-05-02T13:33:13Z</time></trkpt><trkpt lat="42.10588520730302" lon="13.382855966562037"><ele>850.0</ele><time>2026-05-02T13:33:14Z</time></trkpt><trkpt lat="42.10596952701174" lon="13.38284366701625"><ele>849.9999999999999</ele><time>2026-05-02T13:33:15Z</time></trkpt><trkpt lat="42.10607175210675" lon="13.382837492315497"><ele>850.0</ele><time>2026-05-02T13:33:16Z</time></trkpt><trkpt lat="42.10617761084871" lon="13.382835494526118"><ele>851.4</ele><time>2026-05-02T13:33:17Z</time></trkpt><trkpt lat="42.106283575346396" lon="13.382829662933318"><ele>852.8</ele><time>2026-05-02T13:33:18Z</time></trkpt><trkpt lat="42.10638610924017" lon="13.382827585161683"><ele>854.2</ele><time>2026-05-02T13:33:19Z</time></trkpt><trkpt lat="42.106463919132494" lon="13.382840287185223"><ele>855.6</ele><time>2026-05-02T13:33:20Z</time></trkpt><trkpt lat="42.106575697831815" lon="13.38290708988746"><ele>857.0</ele><time>2026-05-02T13:33:22Z</time></trkpt><trkpt lat="42.10665014738356" lon="13.383045166610703"><ele>858.6</ele><time>2026-05-02T13:33:24Z</time></trkpt><trkpt lat="42.10673070880933" lon="13.383152530833929"><ele>860.2</ele><time>2026-05-02T13:33:26Z</time></trkpt><trkpt lat="42.10683969965783" lon="13.383165268004772"><ele>861.8</ele><time>2026-05-02T13:33:28Z</time></trkpt><trkpt lat="42.10689428592115" lon="13.38322997511657"><ele>863.4</ele><time>2026-05-02T13:33:34Z</time></trkpt><trkpt lat="42.10692071792293" lon="13.383352452326802"><ele>865.0</ele><time>2026-05-02T13:33:36Z</time></trkpt><trkpt lat="42.10694489822963" lon="13.383482400785159"><ele>864.9999999999999</ele><time>2026-05-02T13:33:38Z</time></trkpt><trkpt lat="42.1070091099385" lon="13.38351734982739"><ele>865.0</ele><time>2026-05-02T13:33:40Z</time></trkpt><trkpt lat="42.10705439453538" lon="13.383458283384437"><ele>865.0</ele><time>2026-05-02T13:33:42Z</time></trkpt><trkpt lat="42.10710464667882" lon="13.383350046533241"><ele>865.0</ele><time>2026-05-02T13:33:44Z</time></trkpt><trkpt lat="42.10716120238895" lon="13.383300404273669"><ele>864.9999999999999</ele><time>2026-05-02T13:33:45Z</time></trkpt><trkpt lat="42.1072343281416" lon="13.38324693301467"><ele>865.0</ele><time>2026-05-02T13:33:46Z</time></trkpt><trkpt lat="42.1073047398195" lon="13.38317451669166"><ele>864.9999999999999</ele><time>2026-05-02T13:33:47Z</time></trkpt><trkpt lat="42.107364090824625" lon="13.38310307209913"><ele>865.0</ele><time>2026-05-02T13:33:48Z</time></trkpt><trkpt lat="42.10746712343846" lon="13.383047167255038"><ele>865.0</ele><time>2026-05-02T13:33:50Z</time></trkpt><trkpt lat="42.107543842966194" lon="13.382963963296302"><ele>865.0</ele><time>2026-05-02T13:33:52Z</time></trkpt><trkpt lat="42.107598965691615" lon="13.382914071413081"><ele>864.9999999999999</ele><time>2026-05-02T13:33:53Z</time></trkpt><trkpt lat="42.10766629341224" lon="13.382896462852605"><ele>865.0</ele><time>2026-05-02T13:33:54Z</time></trkpt><trkpt lat="42.10773917018512" lon="13.382897058689762"><ele>867.0</ele><time>2026-05-02T13:33:55Z</time></trkpt><trkpt lat="42.1078247638845" lon="13.382893007526992"><ele>869.0</ele><time>2026-05-02T13:33:56Z</time></trkpt><trkpt lat="42.107933751627435" lon="13.382862976826296"><ele>871.0</ele><time>2026-05-02T13:33:57Z</time></trkpt><trkpt lat="42.10804786313688" lon="13.382820681073776"><ele>873.0</ele><time>2026-05-02T13:33:58Z</time></trkpt><trkpt lat="42.1081520407785" lon="13.382791180183428"><ele>875.0</ele><time>2026-05-02T13:33:59Z</time></trkpt><trkpt lat="42.10823829941785" lon="13.382793895281809"><ele>875.6666666666667</ele><time>2026-05-02T13:34:00Z</time></trkpt><trkpt lat="42.108323965599325" lon="13.382782034053555"><ele>876.3333333333334</ele><time>2026-05-02T13:34:01Z</time></trkpt><trkpt lat="42.10840679927579" lon="13.382749967380642"><ele>877.0</ele><time>2026-05-02T13:34:02Z</time></trkpt><trkpt lat="42.10848023422258" lon="13.38274318821824"><ele>877.6666666666667</ele><time>2026-05-02T13:34:03Z</time></trkpt><trkpt lat="42.10855273284995" lon="13.382756459699252"><ele>878.3333333333334</ele><time>2026-05-02T13:34:04Z</time></trkpt><trkpt lat="42.10862443762943" lon="13.382742988729145"><ele>879.0</ele><time>2026-05-02T13:34:05Z</time></trkpt><trkpt lat="42.10869568893812" lon="13.382696304206434"><ele>879.0</ele><time>2026-05-02T13:34:06Z</time></trkpt><trkpt lat="42.10875247233359" lon="13.382634566491511"><ele>879.0</ele><time>2026-05-02T13:34:07Z</time></trkpt><trkpt lat="42.10885871950957" lon="13.38259507295662"><ele>879.0</ele><time>2026-05-02T13:34:09Z</time></trkpt><trkpt lat="42.10893271013551" lon="13.382569413486706"><ele>879.0</ele><time>2026-05-02T13:34:10Z</time></trkpt><trkpt lat="42.10899889885342" lon="13.382513191683522"><ele>879.0</ele><time>2026-05-02T13:34:11Z</time></trkpt><trkpt lat="42.109061776042054" lon="13.382455096965792"><ele>879.0</ele><time>2026-05-02T13:34:12Z</time></trkpt><trkpt lat="42.10912446111392" lon="13.382437784043153"><ele>880.2</ele><time>2026-05-02T13:34:13Z</time></trkpt><trkpt lat="42.10921935911523" lon="13.382408223673355"><ele>881.4000000000001</ele><time>2026-05-02T13:34:14Z</time></trkpt><trkpt lat="42.109306501673586" lon="13.382356288585816"><ele>882.6</ele><time>2026-05-02T13:34:15Z</time></trkpt><trkpt lat="42.109394365646004" lon="13.382301272141225"><ele>883.8</ele><time>2026-05-02T13:34:16Z</time></trkpt><trkpt lat="42.109477930323756" lon="13.382261087169509"><ele>885.0</ele><time>2026-05-02T13:34:17Z</time></trkpt><trkpt lat="42.10955981292105" lon="13.38222042017302"><ele>885.2</ele><time>2026-05-02T13:34:18Z</time></trkpt><trkpt lat="42.10962847690924" lon="13.382174758223707"><ele>885.4</ele><time>2026-05-02T13:34:19Z</time></trkpt><trkpt lat="42.109715869926674" lon="13.382080406179323"><ele>885.5999999999999</ele><time>2026-05-02T13:34:21Z</time></trkpt><trkpt lat="42.10978633030622" lon="13.382019838233957"><ele>885.8</ele><time>2026-05-02T13:34:23Z</time></trkpt><trkpt lat="42.10988819921107" lon="13.382051879391081"><ele>886.0</ele><time>2026-05-02T13:34:26Z</time></trkpt><trkpt lat="42.10999264531371" lon="13.382122111681614"><ele>887.1999999999999</ele><time>2026-05-02T13:34:28Z</time></trkpt><trkpt lat="42.11007148179" lon="13.38213913902345"><ele>888.3999999999999</ele><time>2026-05-02T13:34:29Z</time></trkpt><trkpt lat="42.110159557305614" lon="13.382131371780552"><ele>889.6</ele><time>2026-05-02T13:34:30Z</time></trkpt><trkpt lat="42.11025535118235" lon="13.382101763716538"><ele>890.8</ele><time>2026-05-02T13:34:31Z</time></trkpt><trkpt lat="42.11036115230429" lon="13.38206836680206"><ele>892.0</ele><time>2026-05-02T13:34:32Z</time></trkpt><trkpt lat="42.110435379089246" lon="13.382039557709096"><ele>891.9999999999999</ele><time>2026-05-02T13:34:33Z</time></trkpt><trkpt lat="42.11052443497532" lon="13.38199109899167"><ele>892.0</ele><time>2026-05-02T13:34:35Z</time></trkpt><trkpt lat="42.11052980495893" lon="13.381892007854757"><ele>892.0</ele><time>2026-05-02T13:34:38Z</time></trkpt><trkpt lat="42.110515876343904" lon="13.381808305062593"><ele>892.0</ele><time>2026-05-02T13:34:39Z</time></trkpt><trkpt lat="42.11050685867403" lon="13.381702702216922"><ele>891.9999999999999</ele><time>2026-05-02T13:34:40Z</time></trkpt><trkpt lat="42.11050327586475" lon="13.381577515611577"><ele>892.0</ele><time>2026-05-02T13:34:41Z</time></trkpt><trkpt lat="42.110500445424094" lon="13.381430581555243"><ele>892.4000000000001</ele><time>2026-05-02T13:34:42Z</time></trkpt><trkpt lat="42.11050357258619" lon="13.381277875350497"><ele>892.8000000000001</ele><time>2026-05-02T13:34:43Z</time></trkpt><trkpt lat="42.11050482954307" lon="13.381130555884688"><ele>893.2</ele><time>2026-05-02T13:34:44Z</time></trkpt><trkpt lat="42.11050704041199" lon="13.380988401254625"><ele>893.6</ele><time>2026-05-02T13:34:45Z</time></trkpt><trkpt lat="42.11051203411271" lon="13.380857631155292"><ele>894.0</ele><time>2026-05-02T13:34:46Z</time></trkpt><trkpt lat="42.11051593715861" lon="13.380725996169287"><ele>894.0</ele><time>2026-05-02T13:34:47Z</time></trkpt><trkpt lat="42.11050228854603" lon="13.380592625530666"><ele>894.0</ele><time>2026-05-02T13:34:48Z</time></trkpt><trkpt lat="42.11049482140137" lon="13.380465415094157"><ele>894.0</ele><time>2026-05-02T13:34:49Z</time></trkpt><trkpt lat="42.110489937498876" lon="13.380352167334367"><ele>894.0</ele><time>2026-05-02T13:34:50Z</time></trkpt><trkpt lat="42.11048479163104" lon="13.380257275272106"><ele>894.0</ele><time>2026-05-02T13:34:51Z</time></trkpt><trkpt lat="42.110485125548344" lon="13.380133713125058"><ele>894.0</ele><time>2026-05-02T13:34:53Z</time></trkpt><trkpt lat="42.11054879355611" lon="13.380058761080555"><ele>894.2</ele><time>2026-05-02T13:34:58Z</time></trkpt><trkpt lat="42.1105866282661" lon="13.379916012106454"><ele>894.4000000000001</ele><time>2026-05-02T13:35:00Z</time></trkpt><trkpt lat="42.110567513396404" lon="13.379826941880925"><ele>894.6</ele><time>2026-05-02T13:35:01Z</time></trkpt><trkpt lat="42.110530655722854" lon="13.379733645292532"><ele>894.8</ele><time>2026-05-02T13:35:02Z</time></trkpt><trkpt lat="42.11047607006517" lon="13.3796368121514"><ele>895.0</ele><time>2026-05-02T13:35:03Z</time></trkpt><trkpt lat="42.11040390677121" lon="13.379518589866217"><ele>896.6</ele><time>2026-05-02T13:35:04Z</time></trkpt><trkpt lat="42.11032229944214" lon="13.37941138424632"><ele>898.2</ele><time>2026-05-02T13:35:05Z</time></trkpt><trkpt lat="42.11025368703924" lon="13.379329096938365"><ele>899.8</ele><time>2026-05-02T13:35:06Z</time></trkpt><trkpt lat="42.11019644620727" lon="13.379285189594697"><ele>901.4</ele><time>2026-05-02T13:35:07Z</time></trkpt><trkpt lat="42.11006129089098" lon="13.379278103875553"><ele>903.0</ele><time>2026-05-02T13:35:09Z</time></trkpt><trkpt lat="42.1099308934843" lon="13.37929371898299"><ele>901.8333333333334</ele><time>2026-05-02T13:35:11Z</time></trkpt><trkpt lat="42.10984842123243" lon="13.379291454381782"><ele>900.6666666666667</ele><time>2026-05-02T13:35:12Z</time></trkpt><trkpt lat="42.109757425937225" lon="13.379257870940897"><ele>899.5</ele><time>2026-05-02T13:35:13Z</time></trkpt><trkpt lat="42.109669692449145" lon="13.379263687482627"><ele>898.3333333333334</ele><time>2026-05-02T13:35:14Z</time></trkpt><trkpt lat="42.10958367958969" lon="13.379239464894042"><ele>897.1666666666667</ele><time>2026-05-02T13:35:15Z</time></trkpt><trkpt lat="42.10950971525813" lon="13.379216459249706"><ele>896.0</ele><time>2026-05-02T13:35:16Z</time></trkpt><trkpt lat="42.10944198715234" lon="13.379190792604417"><ele>896.0</ele><time>2026-05-02T13:35:17Z</time></trkpt><trkpt lat="42.109376972045865" lon="13.379162649288391"><ele>895.9999999999999</ele><time>2026-05-02T13:35:18Z</time></trkpt><trkpt lat="42.109277566785515" lon="13.379112868925935"><ele>895.9999999999999</ele><time>2026-05-02T13:35:20Z</time></trkpt><trkpt lat="42.10924242316608" lon="13.379013509639401"><ele>896.0</ele><time>2026-05-02T13:35:22Z</time></trkpt><trkpt lat="42.10923693730796" lon="13.378853116031356"><ele>896.0</ele><time>2026-05-02T13:35:24Z</time></trkpt><trkpt lat="42.10919820234451" lon="13.378736539821594"><ele>896.5999999999999</ele><time>2026-05-02T13:35:25Z</time></trkpt><trkpt lat="42.10915043665561" lon="13.378614640672325"><ele>897.1999999999999</ele><time>2026-05-02T13:35:26Z</time></trkpt><trkpt lat="42.10909670163339" lon="13.378489460553922"><ele>897.8000000000001</ele><time>2026-05-02T13:35:27Z</time></trkpt><trkpt lat="42.10905542213616" lon="13.3783525363866"><ele>898.4000000000001</ele><time>2026-05-02T13:35:28Z</time></trkpt><trkpt lat="42.10899636085488" lon="13.378237821893899"><ele>899.0</ele><time>2026-05-02T13:35:29Z</time></trkpt><trkpt lat="42.10892943620892" lon="13.37812774046332"><ele>899.0</ele><time>2026-05-02T13:35:30Z</time></trkpt><trkpt lat="42.108852483186084" lon="13.378019183045923"><ele>899.0</ele><time>2026-05-02T13:35:31Z</time></trkpt><trkpt lat="42.10877433849702" lon="13.377918657817803"><ele>899.0</ele><time>2026-05-02T13:35:32Z</time></trkpt><trkpt lat="42.1086794965046" lon="13.377816867151575"><ele>899.0</ele><time>2026-05-02T13:35:33Z</time></trkpt><trkpt lat="42.108570494816185" lon="13.377734532355875"><ele>901.4000000000001</ele><time>2026-05-02T13:35:34Z</time></trkpt><trkpt lat="42.10846890628778" lon="13.377684431953304"><ele>903.8000000000001</ele><time>2026-05-02T13:35:35Z</time></trkpt><trkpt lat="42.10836878281431" lon="13.37765068066721"><ele>906.1999999999999</ele><time>2026-05-02T13:35:36Z</time></trkpt><trkpt lat="42.10828248710143" lon="13.377622578772593"><ele>908.5999999999999</ele><time>2026-05-02T13:35:37Z</time></trkpt><trkpt lat="42.1082118850848" lon="13.377629099576783"><ele>911.0</ele><time>2026-05-02T13:35:38Z</time></trkpt><trkpt lat="42.10812957465276" lon="13.377604432523741"><ele>911.0</ele><time>2026-05-02T13:35:40Z</time></trkpt><trkpt lat="42.10802885044531" lon="13.377613426775664"><ele>910.9999999999999</ele><time>2026-05-02T13:35:42Z</time></trkpt><trkpt lat="42.1079293939539" lon="13.377625699563403"><ele>910.9999999999999</ele><time>2026-05-02T13:35:44Z</time></trkpt><trkpt lat="42.10780300706469" lon="13.377656343024805"><ele>911.0</ele><time>2026-05-02T13:35:46Z</time></trkpt><trkpt lat="42.10773280256861" lon="13.377636235073538"><ele>911.0</ele><time>2026-05-02T13:35:47Z</time></trkpt><trkpt lat="42.10764935813872" lon="13.377592537399698"><ele>911.0</ele><time>2026-05-02T13:35:48Z</time></trkpt><trkpt lat="42.10759273999797" lon="13.377549767373123"><ele>911.0</ele><time>2026-05-02T13:35:49Z</time></trkpt><trkpt lat="42.107469341544885" lon="13.377443910029811"><ele>911.0</ele><time>2026-05-02T13:35:51Z</time></trkpt><trkpt lat="42.10763572406786" lon="13.37723708242459"><ele>911.0</ele><time>2026-05-02T13:35:59Z</time></trkpt><trkpt lat="42.10756677327329" lon="13.377199531561015"><ele>911.0000000000001</ele><time>2026-05-02T13:36:02Z</time></trkpt><trkpt lat="42.10746984591229" lon="13.377143780006643"><ele>911.0</ele><time>2026-05-02T13:36:04Z</time></trkpt><trkpt lat="42.107381460163936" lon="13.377105167257366"><ele>911.0</ele><time>2026-05-02T13:36:06Z</time></trkpt><trkpt lat="42.107324303426736" lon="13.377050415843419"><ele>911.0</ele><time>2026-05-02T13:36:08Z</time></trkpt><trkpt lat="42.10725441346058" lon="13.377093329201175"><ele>911.0000000000001</ele><time>2026-05-02T13:36:24Z</time></trkpt><trkpt lat="42.10716839816948" lon="13.377141475333865"><ele>911.0</ele><time>2026-05-02T13:36:27Z</time></trkpt><trkpt lat="42.10711275271672" lon="13.377189158790122"><ele>910.1999999999999</ele><time>2026-05-02T13:36:28Z</time></trkpt><trkpt lat="42.107007921119624" lon="13.377131987793646"><ele>909.3999999999999</ele><time>2026-05-02T13:36:30Z</time></trkpt><trkpt lat="42.106913563427966" lon="13.377043583590849"><ele>908.6</ele><time>2026-05-02T13:36:32Z</time></trkpt><trkpt lat="42.10682650753069" lon="13.376960332583405"><ele>907.8</ele><time>2026-05-02T13:36:34Z</time></trkpt><trkpt lat="42.106748205813794" lon="13.376888303496228"><ele>907.0</ele><time>2026-05-02T13:36:36Z</time></trkpt><trkpt lat="42.10667980507293" lon="13.376825823730337"><ele>907.0</ele><time>2026-05-02T13:36:38Z</time></trkpt><trkpt lat="42.10661225001493" lon="13.3767713714677"><ele>907.0</ele><time>2026-05-02T13:36:40Z</time></trkpt><trkpt lat="42.10649772398266" lon="13.376705514697814"><ele>907.0</ele><time>2026-05-02T13:36:42Z</time></trkpt><trkpt lat="42.106434173302205" lon="13.376680746556644"><ele>907.0</ele><time>2026-05-02T13:36:43Z</time></trkpt><trkpt lat="42.10631638613937" lon="13.37663680991236"><ele>907.0</ele><time>2026-05-02T13:36:45Z</time></trkpt><trkpt lat="42.10622358456381" lon="13.376570802967148"><ele>905.3333333333333</ele><time>2026-05-02T13:36:47Z</time></trkpt><trkpt lat="42.10612446847718" lon="13.376524279932887"><ele>903.6666666666666</ele><time>2026-05-02T13:36:49Z</time></trkpt><trkpt lat="42.106030341888975" lon="13.376466000897494"><ele>902.0</ele><time>2026-05-02T13:36:51Z</time></trkpt><trkpt lat="42.10597088252018" lon="13.376399331011813"><ele>900.3333333333333</ele><time>2026-05-02T13:36:53Z</time></trkpt><trkpt lat="42.10594365990582" lon="13.376308192606336"><ele>898.6666666666666</ele><time>2026-05-02T13:36:55Z</time></trkpt><trkpt lat="42.10588885367665" lon="13.376243098459328"><ele>897.0</ele><time>2026-05-02T13:36:57Z</time></trkpt><trkpt lat="42.10581138247762" lon="13.376151412948298"><ele>895.8</ele><time>2026-05-02T13:36:59Z</time></trkpt><trkpt lat="42.105745395210285" lon="13.37603334336357"><ele>894.6</ele><time>2026-05-02T13:37:01Z</time></trkpt><trkpt lat="42.10568911582141" lon="13.37594742933526"><ele>893.3999999999999</ele><time>2026-05-02T13:37:03Z</time></trkpt><trkpt lat="42.105595065023614" lon="13.375844725105857"><ele>892.1999999999999</ele><time>2026-05-02T13:37:05Z</time></trkpt><trkpt lat="42.10551392601126" lon="13.375749473211808"><ele>891.0</ele><time>2026-05-02T13:37:07Z</time></trkpt><trkpt lat="42.10545153713831" lon="13.375661728733117"><ele>889.0</ele><time>2026-05-02T13:37:09Z</time></trkpt><trkpt lat="42.105350412299416" lon="13.375558925464238"><ele>887.0</ele><time>2026-05-02T13:37:11Z</time></trkpt><trkpt lat="42.105284391399984" lon="13.375437494575285"><ele>885.0</ele><time>2026-05-02T13:37:13Z</time></trkpt><trkpt lat="42.10519412948693" lon="13.375318831014468"><ele>883.0</ele><time>2026-05-02T13:37:15Z</time></trkpt><trkpt lat="42.10512166574072" lon="13.375233771771766"><ele>883.0</ele><time>2026-05-02T13:37:17Z</time></trkpt><trkpt lat="42.10503165635161" lon="13.37516709064937"><ele>883.0</ele><time>2026-05-02T13:37:19Z</time></trkpt><trkpt lat="42.105027913588664" lon="13.375048052244507"><ele>883.0</ele><time>2026-05-02T13:37:22Z</time></trkpt><trkpt lat="42.105012254802546" lon="13.374954732660711"><ele>883.0</ele><time>2026-05-02T13:37:24Z</time></trkpt><trkpt lat="42.10491989464986" lon="13.374838864485792"><ele>883.0</ele><time>2026-05-02T13:37:26Z</time></trkpt><trkpt lat="42.10484387442594" lon="13.374744201467964"><ele>881.1666666666666</ele><time>2026-05-02T13:37:28Z</time></trkpt><trkpt lat="42.10479476148739" lon="13.374590785639178"><ele>879.3333333333333</ele><time>2026-05-02T13:37:30Z</time></trkpt><trkpt lat="42.10477133321889" lon="13.37450407308989"><ele>877.5</ele><time>2026-05-02T13:37:31Z</time></trkpt><trkpt lat="42.10472507997805" lon="13.374364090855074"><ele>875.6666666666667</ele><time>2026-05-02T13:37:33Z</time></trkpt><trkpt lat="42.10465837932923" lon="13.37430540233945"><ele>873.8333333333334</ele><time>2026-05-02T13:37:36Z</time></trkpt><trkpt lat="42.10459532982664" lon="13.374299823299916"><ele>872.0</ele><time>2026-05-02T13:37:38Z</time></trkpt><trkpt lat="42.10453103665214" lon="13.37430490484111"><ele>872.0</ele><time>2026-05-02T13:37:40Z</time></trkpt><trkpt lat="42.10446563216251" lon="13.374185982252827"><ele>872.0</ele><time>2026-05-02T13:37:43Z</time></trkpt><trkpt lat="42.10438868719012" lon="13.37403002731656"><ele>872.0</ele><time>2026-05-02T13:37:45Z</time></trkpt><trkpt lat="42.10434076697171" lon="13.373930378490117"><ele>872.0</ele><time>2026-05-02T13:37:46Z</time></trkpt><trkpt lat="42.10428687343197" lon="13.373829562850448"><ele>872.0</ele><time>2026-05-02T13:37:47Z</time></trkpt><trkpt lat="42.104220978236015" lon="13.373732019489017"><ele>872.7142857142858</ele><time>2026-05-02T13:37:48Z</time></trkpt><trkpt lat="42.10416025830152" lon="13.373666893224545"><ele>873.4285714285714</ele><time>2026-05-02T13:37:49Z</time></trkpt><trkpt lat="42.10410817978833" lon="13.37360224450581"><ele>874.1428571428571</ele><time>2026-05-02T13:37:50Z</time></trkpt><trkpt lat="42.104058862047104" lon="13.373539505358927"><ele>874.8571428571429</ele><time>2026-05-02T13:37:51Z</time></trkpt><trkpt lat="42.10400408898716" lon="13.373470097469413"><ele>875.5714285714286</ele><time>2026-05-02T13:37:52Z</time></trkpt><trkpt lat="42.10395851143088" lon="13.373391844843333"><ele>876.2857142857143</ele><time>2026-05-02T13:37:53Z</time></trkpt><trkpt lat="42.10392790106411" lon="13.373310723299456"><ele>877.0</ele><time>2026-05-02T13:37:54Z</time></trkpt><trkpt lat="42.103884645595805" lon="13.373243112031412"><ele>877.0000000000001</ele><time>2026-05-02T13:37:55Z</time></trkpt><trkpt lat="42.10382640447014" lon="13.373187537367246"><ele>877.0</ele><time>2026-05-02T13:37:56Z</time></trkpt><trkpt lat="42.10376917183549" lon="13.373131908662767"><ele>877.0</ele><time>2026-05-02T13:37:57Z</time></trkpt><trkpt lat="42.103712082853555" lon="13.373067187688413"><ele>877.0</ele><time>2026-05-02T13:37:58Z</time></trkpt><trkpt lat="42.10364949025959" lon="13.373007239744416"><ele>877.0</ele><time>2026-05-02T13:37:59Z</time></trkpt><trkpt lat="42.1035968432358" lon="13.37293423933131"><ele>877.0000000000001</ele><time>2026-05-02T13:38:00Z</time></trkpt><trkpt lat="42.103552775142305" lon="13.372844962749163"><ele>877.0</ele><time>2026-05-02T13:38:01Z</time></trkpt><trkpt lat="42.10350639489569" lon="13.37276106770807"><ele>876.9999999999999</ele><time>2026-05-02T13:38:02Z</time></trkpt><trkpt lat="42.10344574295174" lon="13.372667987876746"><ele>877.0</ele><time>2026-05-02T13:38:04Z</time></trkpt><trkpt lat="42.10338770605712" lon="13.372596201271882"><ele>877.0</ele><time>2026-05-02T13:38:06Z</time></trkpt><trkpt lat="42.103336591683906" lon="13.372543030784607"><ele>877.0</ele><time>2026-05-02T13:38:07Z</time></trkpt><trkpt lat="42.10329544687881" lon="13.372440528888987"><ele>876.9999999999999</ele><time>2026-05-02T13:38:09Z</time></trkpt><trkpt lat="42.10330140396362" lon="13.372335410696694"><ele>877.0</ele><time>2026-05-02T13:38:11Z</time></trkpt><trkpt lat="42.10326778407949" lon="13.372229159275827"><ele>874.8</ele><time>2026-05-02T13:38:13Z</time></trkpt><trkpt lat="42.10318425014243" lon="13.372138779555495"><ele>872.6</ele><time>2026-05-02T13:38:15Z</time></trkpt><trkpt lat="42.10309868339621" lon="13.372061934270215"><ele>870.3999999999999</ele><time>2026-05-02T13:38:17Z</time></trkpt><trkpt lat="42.10304489961926" lon="13.371963225208054"><ele>868.1999999999999</ele><time>2026-05-02T13:38:19Z</time></trkpt><trkpt lat="42.10294848294903" lon="13.371900184749192"><ele>866.0</ele><time>2026-05-02T13:38:21Z</time></trkpt><trkpt lat="42.10285696425201" lon="13.371829254016372"><ele>866.0</ele><time>2026-05-02T13:38:23Z</time></trkpt><trkpt lat="42.10278328928927" lon="13.371748891539738"><ele>865.9999999999999</ele><time>2026-05-02T13:38:25Z</time></trkpt><trkpt lat="42.10271831438916" lon="13.371641065621649"><ele>865.9999999999999</ele><time>2026-05-02T13:38:27Z</time></trkpt><trkpt lat="42.102648558292664" lon="13.371528996924031"><ele>866.0</ele><time>2026-05-02T13:38:29Z</time></trkpt><trkpt lat="42.102605513216446" lon="13.371401140041685"><ele>866.0</ele><time>2026-05-02T13:38:31Z</time></trkpt><trkpt lat="42.102523831338814" lon="13.371309034458053"><ele>864.5999999999999</ele><time>2026-05-02T13:38:33Z</time></trkpt><trkpt lat="42.10246481182019" lon="13.371265731331176"><ele>863.1999999999999</ele><time>2026-05-02T13:38:34Z</time></trkpt><trkpt lat="42.10235700184505" lon="13.371179676991684"><ele>861.8000000000001</ele><time>2026-05-02T13:38:36Z</time></trkpt><trkpt lat="42.10227589435553" lon="13.371081072587954"><ele>860.4000000000001</ele><time>2026-05-02T13:38:38Z</time></trkpt><trkpt lat="42.10218900722547" lon="13.37102448605684"><ele>859.0</ele><time>2026-05-02T13:38:40Z</time></trkpt><trkpt lat="42.102101333933504" lon="13.37093765466721"><ele>857.2</ele><time>2026-05-02T13:38:42Z</time></trkpt><trkpt lat="42.102013617187694" lon="13.370878208110941"><ele>855.4000000000001</ele><time>2026-05-02T13:38:44Z</time></trkpt><trkpt lat="42.10193408276675" lon="13.370822138255107"><ele>853.6</ele><time>2026-05-02T13:38:46Z</time></trkpt><trkpt lat="42.10185106359509" lon="13.3707377019542"><ele>851.8</ele><time>2026-05-02T13:38:48Z</time></trkpt><trkpt lat="42.10177525166691" lon="13.370684576732385"><ele>850.0</ele><time>2026-05-02T13:38:50Z</time></trkpt><trkpt lat="42.101686453526646" lon="13.370648394881487"><ele>849.9999999999999</ele><time>2026-05-02T13:38:52Z</time></trkpt><trkpt lat="42.10163193635019" lon="13.370555941359948"><ele>850.0</ele><time>2026-05-02T13:38:54Z</time></trkpt><trkpt lat="42.101556014261654" lon="13.370509108815895"><ele>850.0</ele><time>2026-05-02T13:38:56Z</time></trkpt><trkpt lat="42.101487125868594" lon="13.370540105433331"><ele>850.0</ele><time>2026-05-02T13:38:58Z</time></trkpt><trkpt lat="42.10140579690515" lon="13.370546975193296"><ele>849.9999999999999</ele><time>2026-05-02T13:39:00Z</time></trkpt><trkpt lat="42.10130898979073" lon="13.370490471046699"><ele>850.0</ele><time>2026-05-02T13:39:02Z</time></trkpt><trkpt lat="42.10121615512891" lon="13.37051439612899"><ele>846.3333333333333</ele><time>2026-05-02T13:39:04Z</time></trkpt><trkpt lat="42.10114933949806" lon="13.37050155951727"><ele>842.6666666666666</ele><time>2026-05-02T13:39:06Z</time></trkpt><trkpt lat="42.10107684290906" lon="13.37057452245696"><ele>839.0</ele><time>2026-05-02T13:39:08Z</time></trkpt><trkpt lat="42.10099873940117" lon="13.3706440996734"><ele>835.3333333333333</ele><time>2026-05-02T13:39:10Z</time></trkpt><trkpt lat="42.10091847218079" lon="13.370702626169383"><ele>831.6666666666666</ele><time>2026-05-02T13:39:12Z</time></trkpt><trkpt lat="42.10085220539237" lon="13.370704610312195"><ele>828.0</ele><time>2026-05-02T13:39:14Z</time></trkpt><trkpt lat="42.10079637634771" lon="13.370651590307144"><ele>826.1666666666666</ele><time>2026-05-02T13:39:16Z</time></trkpt><trkpt lat="42.10073713029786" lon="13.370613290704297"><ele>824.3333333333333</ele><time>2026-05-02T13:39:25Z</time></trkpt><trkpt lat="42.100645778300674" lon="13.37053575151654"><ele>822.5</ele><time>2026-05-02T13:39:27Z</time></trkpt><trkpt lat="42.10054129114074" lon="13.370464417486552"><ele>820.6666666666666</ele><time>2026-05-02T13:39:29Z</time></trkpt><trkpt lat="42.10047906249231" lon="13.370434564538682"><ele>818.8333333333333</ele><time>2026-05-02T13:39:30Z</time></trkpt><trkpt lat="42.10039658965713" lon="13.370455251586158"><ele>817.0</ele><time>2026-05-02T13:39:32Z</time></trkpt><trkpt lat="42.100305417901154" lon="13.370508767647028"><ele>816.9999999999999</ele><time>2026-05-02T13:39:34Z</time></trkpt><trkpt lat="42.100255042715354" lon="13.370567287349083"><ele>817.0</ele><time>2026-05-02T13:39:36Z</time></trkpt><trkpt lat="42.100189596618044" lon="13.370551775959624"><ele>817.0</ele><time>2026-05-02T13:39:39Z</time></trkpt><trkpt lat="42.10007456439765" lon="13.370470686409456"><ele>817.0</ele><time>2026-05-02T13:39:41Z</time></trkpt><trkpt lat="42.1000146570376" lon="13.370407172769646"><ele>816.9999999999999</ele><time>2026-05-02T13:39:42Z</time></trkpt><trkpt lat="42.099941779727494" lon="13.370345046063798"><ele>817.0</ele><time>2026-05-02T13:39:43Z</time></trkpt><trkpt lat="42.09986938288714" lon="13.370293305170712"><ele>813.6</ele><time>2026-05-02T13:39:44Z</time></trkpt><trkpt lat="42.09980032293987" lon="13.37023199790001"><ele>810.2</ele><time>2026-05-02T13:39:45Z</time></trkpt><trkpt lat="42.09971944671098" lon="13.370153666036183"><ele>806.8</ele><time>2026-05-02T13:39:46Z</time></trkpt><trkpt lat="42.09965148803293" lon="13.370090694981576"><ele>803.4</ele><time>2026-05-02T13:39:47Z</time></trkpt><trkpt lat="42.099595139491655" lon="13.370042125131928"><ele>800.0</ele><time>2026-05-02T13:39:48Z</time></trkpt><trkpt lat="42.09948895506316" lon="13.369905838717958"><ele>800.0000000000001</ele><time>2026-05-02T13:39:50Z</time></trkpt><trkpt lat="42.09942597403848" lon="13.369829143422917"><ele>800.0</ele><time>2026-05-02T13:39:51Z</time></trkpt><trkpt lat="42.09936698365263" lon="13.36974384912116"><ele>800.0</ele><time>2026-05-02T13:39:52Z</time></trkpt><trkpt lat="42.099310970957355" lon="13.369660746052876"><ele>800.0</ele><time>2026-05-02T13:39:53Z</time></trkpt><trkpt lat="42.09925892290957" lon="13.369591566776771"><ele>800.0000000000001</ele><time>2026-05-02T13:39:54Z</time></trkpt><trkpt lat="42.09919944079933" lon="13.369515418119812"><ele>800.0</ele><time>2026-05-02T13:39:55Z</time></trkpt><trkpt lat="42.0991268649408" lon="13.369441565742546"><ele>798.3333333333334</ele><time>2026-05-02T13:39:56Z</time></trkpt><trkpt lat="42.09905813853572" lon="13.369372103559026"><ele>796.6666666666667</ele><time>2026-05-02T13:39:57Z</time></trkpt><trkpt lat="42.099001956138466" lon="13.36930635191551"><ele>795.0</ele><time>2026-05-02T13:39:58Z</time></trkpt><trkpt lat="42.09893905326467" lon="13.36925158298626"><ele>793.3333333333333</ele><time>2026-05-02T13:39:59Z</time></trkpt><trkpt lat="42.09887334201" lon="13.369184395191578"><ele>791.6666666666666</ele><time>2026-05-02T13:40:00Z</time></trkpt><trkpt lat="42.09881288065313" lon="13.369107711426338"><ele>790.0</ele><time>2026-05-02T13:40:01Z</time></trkpt><trkpt lat="42.09875342751287" lon="13.369035812013065"><ele>789.9999999999999</ele><time>2026-05-02T13:40:02Z</time></trkpt><trkpt lat="42.09869910774364" lon="13.368976818175863"><ele>790.0</ele><time>2026-05-02T13:40:03Z</time></trkpt><trkpt lat="42.09858672253082" lon="13.368907038594863"><ele>790.0</ele><time>2026-05-02T13:40:05Z</time></trkpt><trkpt lat="42.09852464807827" lon="13.368873000368689"><ele>790.0</ele><time>2026-05-02T13:40:06Z</time></trkpt><trkpt lat="42.098455629516174" lon="13.368829757668195"><ele>789.9999999999999</ele><time>2026-05-02T13:40:07Z</time></trkpt><trkpt lat="42.09837962890779" lon="13.368782173166181"><ele>790.0</ele><time>2026-05-02T13:40:08Z</time></trkpt><trkpt lat="42.0982940670687" lon="13.36873630381936"><ele>789.2</ele><time>2026-05-02T13:40:09Z</time></trkpt><trkpt lat="42.09822098057165" lon="13.368698828541536"><ele>788.4</ele><time>2026-05-02T13:40:10Z</time></trkpt><trkpt lat="42.098157332799516" lon="13.368665793605388"><ele>787.5999999999999</ele><time>2026-05-02T13:40:11Z</time></trkpt><trkpt lat="42.098052325949695" lon="13.368617866326474"><ele>786.8</ele><time>2026-05-02T13:40:13Z</time></trkpt><trkpt lat="42.09794494266555" lon="13.36856731200539"><ele>786.0</ele><time>2026-05-02T13:40:15Z</time></trkpt><trkpt lat="42.097827250160606" lon="13.368514483534293"><ele>786.0</ele><time>2026-05-02T13:40:17Z</time></trkpt><trkpt lat="42.09771907838726" lon="13.368461560055655"><ele>786.0</ele><time>2026-05-02T13:40:19Z</time></trkpt><trkpt lat="42.09761793396405" lon="13.368420172006196"><ele>786.0</ele><time>2026-05-02T13:40:21Z</time></trkpt><trkpt lat="42.09752130076234" lon="13.368383428076562"><ele>786.0</ele><time>2026-05-02T13:40:23Z</time></trkpt><trkpt lat="42.09740965148447" lon="13.36834778022822"><ele>786.0</ele><time>2026-05-02T13:40:25Z</time></trkpt><trkpt lat="42.09730027476961" lon="13.368319148923108"><ele>782.8</ele><time>2026-05-02T13:40:27Z</time></trkpt><trkpt lat="42.09719375673518" lon="13.368287581023347"><ele>779.5999999999999</ele><time>2026-05-02T13:40:29Z</time></trkpt><trkpt lat="42.09708971002668" lon="13.368241774898648"><ele>776.4</ele><time>2026-05-02T13:40:31Z</time></trkpt><trkpt lat="42.0969756840959" lon="13.368178837784997"><ele>773.2</ele><time>2026-05-02T13:40:33Z</time></trkpt><trkpt lat="42.09691944579173" lon="13.36813922226108"><ele>770.0</ele><time>2026-05-02T13:40:34Z</time></trkpt><trkpt lat="42.096861515024564" lon="13.368099383674103"><ele>770.0</ele><time>2026-05-02T13:40:35Z</time></trkpt><trkpt lat="42.09680476439589" lon="13.368056990084195"><ele>770.0</ele><time>2026-05-02T13:40:36Z</time></trkpt><trkpt lat="42.0967071985082" lon="13.367972631164806"><ele>770.0</ele><time>2026-05-02T13:40:38Z</time></trkpt><trkpt lat="42.0966328054442" lon="13.367888167554234"><ele>770.0</ele><time>2026-05-02T13:40:40Z</time></trkpt><trkpt lat="42.096567451556616" lon="13.367807620288431"><ele>770.0</ele><time>2026-05-02T13:40:42Z</time></trkpt><trkpt lat="42.096490220958806" lon="13.367737193009305"><ele>766.6</ele><time>2026-05-02T13:40:44Z</time></trkpt><trkpt lat="42.0964020172342" lon="13.367648164114035"><ele>763.2</ele><time>2026-05-02T13:40:46Z</time></trkpt><trkpt lat="42.09633691158764" lon="13.367533199106632"><ele>759.8</ele><time>2026-05-02T13:40:48Z</time></trkpt><trkpt lat="42.096254886099715" lon="13.36744472678753"><ele>756.4</ele><time>2026-05-02T13:40:50Z</time></trkpt><trkpt lat="42.096180614479934" lon="13.367354652765489"><ele>753.0</ele><time>2026-05-02T13:40:52Z</time></trkpt><trkpt lat="42.096101937315744" lon="13.367292493572892"><ele>753.0</ele><time>2026-05-02T13:40:54Z</time></trkpt><trkpt lat="42.09602881867618" lon="13.36723730379216"><ele>753.0</ele><time>2026-05-02T13:40:56Z</time></trkpt><trkpt lat="42.09595441363704" lon="13.367181755511606"><ele>753.0</ele><time>2026-05-02T13:40:58Z</time></trkpt><trkpt lat="42.095870780697794" lon="13.367140229705273"><ele>753.0</ele><time>2026-05-02T13:41:00Z</time></trkpt><trkpt lat="42.09574322699615" lon="13.367101068949317"><ele>753.0</ele><time>2026-05-02T13:41:02Z</time></trkpt><trkpt lat="42.09566999591413" lon="13.367075237488073"><ele>749.4</ele><time>2026-05-02T13:41:03Z</time></trkpt><trkpt lat="42.09558771453206" lon="13.367047689197879"><ele>745.8</ele><time>2026-05-02T13:41:04Z</time></trkpt><trkpt lat="42.095482392668906" lon="13.36700148709767"><ele>742.2</ele><time>2026-05-02T13:41:05Z</time></trkpt><trkpt lat="42.09536763449664" lon="13.366943398259554"><ele>738.6</ele><time>2026-05-02T13:41:06Z</time></trkpt><trkpt lat="42.09525493033833" lon="13.366883053463066"><ele>735.0</ele><time>2026-05-02T13:41:07Z</time></trkpt><trkpt lat="42.09514097218549" lon="13.366818504838516"><ele>735.0</ele><time>2026-05-02T13:41:08Z</time></trkpt><trkpt lat="42.09502443552051" lon="13.36675803873604"><ele>735.0</ele><time>2026-05-02T13:41:09Z</time></trkpt><trkpt lat="42.09491194287231" lon="13.366703441174643"><ele>735.0</ele><time>2026-05-02T13:41:10Z</time></trkpt><trkpt lat="42.09481885829999" lon="13.366676673808662"><ele>735.0</ele><time>2026-05-02T13:41:11Z</time></trkpt><trkpt lat="42.094740495671985" lon="13.3666728372993"><ele>735.0</ele><time>2026-05-02T13:41:12Z</time></trkpt><trkpt lat="42.09463207087246" lon="13.366661980717282"><ele>734.8333333333334</ele><time>2026-05-02T13:41:14Z</time></trkpt><trkpt lat="42.094544908183515" lon="13.366586925387098"><ele>734.6666666666666</ele><time>2026-05-02T13:41:16Z</time></trkpt><trkpt lat="42.09448350441264" lon="13.366529798950822"><ele>734.5</ele><time>2026-05-02T13:41:17Z</time></trkpt><trkpt lat="42.0944237096464" lon="13.36646975144896"><ele>734.3333333333333</ele><time>2026-05-02T13:41:18Z</time></trkpt><trkpt lat="42.094366113036635" lon="13.36639610482035"><ele>734.1666666666666</ele><time>2026-05-02T13:41:19Z</time></trkpt><trkpt lat="42.094328125285294" lon="13.366319775398054"><ele>734.0</ele><time>2026-05-02T13:41:20Z</time></trkpt><trkpt lat="42.094288844971594" lon="13.366213441921715"><ele>733.4000000000001</ele><time>2026-05-02T13:41:22Z</time></trkpt><trkpt lat="42.09438743699962" lon="13.366059329249456"><ele>732.8</ele><time>2026-05-02T13:41:23Z</time></trkpt><trkpt lat="42.094438931239274" lon="13.36597481802747"><ele>732.2</ele><time>2026-05-02T13:41:24Z</time></trkpt><trkpt lat="42.094502749461086" lon="13.365876492589798"><ele>731.5999999999999</ele><time>2026-05-02T13:41:25Z</time></trkpt><trkpt lat="42.09457235953884" lon="13.365777814140095"><ele>731.0</ele><time>2026-05-02T13:41:26Z</time></trkpt><trkpt lat="42.09464570767108" lon="13.36567559240699"><ele>731.0</ele><time>2026-05-02T13:41:27Z</time></trkpt><trkpt lat="42.09472293867439" lon="13.365575715671687"><ele>731.0</ele><time>2026-05-02T13:41:28Z</time></trkpt><trkpt lat="42.094799762138834" lon="13.365473640473002"><ele>731.0</ele><time>2026-05-02T13:41:29Z</time></trkpt><trkpt lat="42.09487147666576" lon="13.365366985108917"><ele>731.0</ele><time>2026-05-02T13:41:30Z</time></trkpt><trkpt lat="42.09494326492417" lon="13.365256635598179"><ele>731.0</ele><time>2026-05-02T13:41:31Z</time></trkpt><trkpt lat="42.09501654819376" lon="13.365145403820229"><ele>730.5</ele><time>2026-05-02T13:41:32Z</time></trkpt><trkpt lat="42.09509159662149" lon="13.365032213684154"><ele>730.0</ele><time>2026-05-02T13:41:33Z</time></trkpt><trkpt lat="42.095169164214454" lon="13.364917950558517"><ele>729.5</ele><time>2026-05-02T13:41:34Z</time></trkpt><trkpt lat="42.095259415735846" lon="13.364814879868849"><ele>729.0</ele><time>2026-05-02T13:41:35Z</time></trkpt><trkpt lat="42.095339377152506" lon="13.364701926352492"><ele>728.8000000000001</ele><time>2026-05-02T13:41:36Z</time></trkpt><trkpt lat="42.095409434598025" lon="13.364581324582542"><ele>728.6</ele><time>2026-05-02T13:41:37Z</time></trkpt><trkpt lat="42.09549309538486" lon="13.364493248614158"><ele>728.4</ele><time>2026-05-02T13:41:38Z</time></trkpt><trkpt lat="42.0955700169955" lon="13.364408956481284"><ele>728.2</ele><time>2026-05-02T13:41:39Z</time></trkpt><trkpt lat="42.095638286869075" lon="13.364321084591301"><ele>728.0</ele><time>2026-05-02T13:41:40Z</time></trkpt><trkpt lat="42.095707908479106" lon="13.364231033516154"><ele>727.25</ele><time>2026-05-02T13:41:41Z</time></trkpt><trkpt lat="42.09578425644111" lon="13.36415354855245"><ele>726.5</ele><time>2026-05-02T13:41:42Z</time></trkpt><trkpt lat="42.095843815749525" lon="13.36404502685937"><ele>725.75</ele><time>2026-05-02T13:41:43Z</time></trkpt><trkpt lat="42.095923425635895" lon="13.363924037878611"><ele>725.0</ele><time>2026-05-02T13:41:44Z</time></trkpt><trkpt lat="42.09601414747459" lon="13.363786405220448"><ele>724.0</ele><time>2026-05-02T13:41:45Z</time></trkpt><trkpt lat="42.09611345832568" lon="13.363634256467648"><ele>723.0</ele><time>2026-05-02T13:41:46Z</time></trkpt><trkpt lat="42.09621368781202" lon="13.363481567392373"><ele>722.0</ele><time>2026-05-02T13:41:47Z</time></trkpt><trkpt lat="42.09631800756488" lon="13.36332395553247"><ele>722.0</ele><time>2026-05-02T13:41:48Z</time></trkpt><trkpt lat="42.096425292642614" lon="13.363155243898367"><ele>722.0</ele><time>2026-05-02T13:41:49Z</time></trkpt><trkpt lat="42.09653686908347" lon="13.362977979385947"><ele>722.0</ele><time>2026-05-02T13:41:50Z</time></trkpt><trkpt lat="42.096656699866806" lon="13.362797383078666"><ele>720.0</ele><time>2026-05-02T13:41:51Z</time></trkpt><trkpt lat="42.096779805632984" lon="13.362613747581136"><ele>718.0</ele><time>2026-05-02T13:41:52Z</time></trkpt><trkpt lat="42.096900583040366" lon="13.362424776130068"><ele>716.0</ele><time>2026-05-02T13:41:53Z</time></trkpt><trkpt lat="42.09702182806091" lon="13.362232629798902"><ele>715.6666666666666</ele><time>2026-05-02T13:41:54Z</time></trkpt><trkpt lat="42.09714459823561" lon="13.362042923811297"><ele>715.3333333333334</ele><time>2026-05-02T13:41:55Z</time></trkpt><trkpt lat="42.09726716264932" lon="13.36185519054849"><ele>715.0</ele><time>2026-05-02T13:41:56Z</time></trkpt><trkpt lat="42.09738834694705" lon="13.36166957091013"><ele>714.6666666666667</ele><time>2026-05-02T13:41:57Z</time></trkpt><trkpt lat="42.09750555444006" lon="13.361493124351648"><ele>714.3333333333334</ele><time>2026-05-02T13:41:58Z</time></trkpt><trkpt lat="42.09761886418932" lon="13.361320691826732"><ele>714.0</ele><time>2026-05-02T13:41:59Z</time></trkpt><trkpt lat="42.09772419982656" lon="13.36115693810652"><ele>714.0</ele><time>2026-05-02T13:42:00Z</time></trkpt><trkpt lat="42.09783710807147" lon="13.361016820399282"><ele>714.0</ele><time>2026-05-02T13:42:01Z</time></trkpt><trkpt lat="42.09793537536249" lon="13.36087094070276"><ele>714.0</ele><time>2026-05-02T13:42:02Z</time></trkpt><trkpt lat="42.09803139125706" lon="13.360733092442338"><ele>714.0</ele><time>2026-05-02T13:42:03Z</time></trkpt><trkpt lat="42.098131629761234" lon="13.360597125060867"><ele>712.3333333333334</ele><time>2026-05-02T13:42:04Z</time></trkpt><trkpt lat="42.09823630315368" lon="13.360458324263028"><ele>710.6666666666667</ele><time>2026-05-02T13:42:05Z</time></trkpt><trkpt lat="42.09834402045914" lon="13.360317114413872"><ele>709.0</ele><time>2026-05-02T13:42:06Z</time></trkpt><trkpt lat="42.098447823210265" lon="13.360163825617056"><ele>709.0</ele><time>2026-05-02T13:42:07Z</time></trkpt><trkpt lat="42.098573998951814" lon="13.36002008929293"><ele>709.0</ele><time>2026-05-02T13:42:08Z</time></trkpt><trkpt lat="42.09871472010125" lon="13.359889812348463"><ele>709.0</ele><time>2026-05-02T13:42:09Z</time></trkpt><trkpt lat="42.09885302571886" lon="13.35974087427234"><ele>708.6666666666667</ele><time>2026-05-02T13:42:10Z</time></trkpt><trkpt lat="42.09897945824582" lon="13.359568254372974"><ele>708.3333333333334</ele><time>2026-05-02T13:42:11Z</time></trkpt><trkpt lat="42.09911907346293" lon="13.359408984986949"><ele>708.0</ele><time>2026-05-02T13:42:12Z</time></trkpt><trkpt lat="42.09925400637698" lon="13.359243418943064"><ele>708.0</ele><time>2026-05-02T13:42:13Z</time></trkpt><trkpt lat="42.09938124721578" lon="13.359082202403984"><ele>708.0</ele><time>2026-05-02T13:42:14Z</time></trkpt><trkpt lat="42.099500360881564" lon="13.358924923016776"><ele>708.0</ele><time>2026-05-02T13:42:15Z</time></trkpt><trkpt lat="42.09961155029761" lon="13.358773135683828"><ele>708.0</ele><time>2026-05-02T13:42:16Z</time></trkpt><trkpt lat="42.09972964559264" lon="13.358640315023601"><ele>708.0</ele><time>2026-05-02T13:42:17Z</time></trkpt><trkpt lat="42.09982518288131" lon="13.35847914118223"><ele>708.0</ele><time>2026-05-02T13:42:18Z</time></trkpt><trkpt lat="42.09995033158298" lon="13.358358998713143"><ele>708.3333333333334</ele><time>2026-05-02T13:42:19Z</time></trkpt><trkpt lat="42.1000712445574" lon="13.358225091159289"><ele>708.6666666666667</ele><time>2026-05-02T13:42:20Z</time></trkpt><trkpt lat="42.10018484532326" lon="13.3580715388854"><ele>709.0</ele><time>2026-05-02T13:42:21Z</time></trkpt><trkpt lat="42.100313203344896" lon="13.357936289391924"><ele>709.0</ele><time>2026-05-02T13:42:22Z</time></trkpt><trkpt lat="42.10044343177261" lon="13.357805718247914"><ele>709.0</ele><time>2026-05-02T13:42:23Z</time></trkpt><trkpt lat="42.10056557356032" lon="13.357683539243887"><ele>709.0</ele><time>2026-05-02T13:42:24Z</time></trkpt><trkpt lat="42.100677700462505" lon="13.357566103393061"><ele>709.25</ele><time>2026-05-02T13:42:25Z</time></trkpt><trkpt lat="42.1007755128075" lon="13.357449280313947"><ele>709.5</ele><time>2026-05-02T13:42:26Z</time></trkpt><trkpt lat="42.100861055548386" lon="13.357336527938608"><ele>709.75</ele><time>2026-05-02T13:42:27Z</time></trkpt><trkpt lat="42.10096256755694" lon="13.357266325223891"><ele>710.0</ele><time>2026-05-02T13:42:28Z</time></trkpt><trkpt lat="42.101057399445075" lon="13.357189239279098"><ele>710.0</ele><time>2026-05-02T13:42:29Z</time></trkpt><trkpt lat="42.101156424587934" lon="13.357110750871687"><ele>710.0</ele><time>2026-05-02T13:42:30Z</time></trkpt><trkpt lat="42.101246987544286" lon="13.35701658186161"><ele>710.0</ele><time>2026-05-02T13:42:31Z</time></trkpt><trkpt lat="42.101342083381255" lon="13.356946180675825"><ele>710.0</ele><time>2026-05-02T13:42:32Z</time></trkpt><trkpt lat="42.101427823828466" lon="13.35687903480573"><ele>710.0</ele><time>2026-05-02T13:42:33Z</time></trkpt><trkpt lat="42.1015099947159" lon="13.3568250851862"><ele>710.0</ele><time>2026-05-02T13:42:34Z</time></trkpt><trkpt lat="42.10156757232369" lon="13.356764248497583"><ele>710.0</ele><time>2026-05-02T13:42:35Z</time></trkpt><trkpt lat="42.10164554622462" lon="13.356677543570996"><ele>710.0</ele><time>2026-05-02T13:42:37Z</time></trkpt><trkpt lat="42.10169105512042" lon="13.356608635383797"><ele>710.0</ele><time>2026-05-02T13:42:39Z</time></trkpt><trkpt lat="42.10174473421078" lon="13.356543342949792"><ele>710.0</ele><time>2026-05-02T13:42:42Z</time></trkpt><trkpt lat="42.101810283876006" lon="13.356487783700977"><ele>710.0</ele><time>2026-05-02T13:42:44Z</time></trkpt><trkpt lat="42.101859620317654" lon="13.356431560783689"><ele>710.6</ele><time>2026-05-02T13:42:45Z</time></trkpt><trkpt lat="42.10192684258627" lon="13.356354955498505"><ele>711.2</ele><time>2026-05-02T13:42:46Z</time></trkpt><trkpt lat="42.10200979902737" lon="13.356258071942317"><ele>711.8</ele><time>2026-05-02T13:42:47Z</time></trkpt><trkpt lat="42.10210155467489" lon="13.356140672668873"><ele>712.4</ele><time>2026-05-02T13:42:48Z</time></trkpt><trkpt lat="42.10218708727571" lon="13.356020673577724"><ele>713.0</ele><time>2026-05-02T13:42:49Z</time></trkpt><trkpt lat="42.102281373981405" lon="13.35588462452834"><ele>713.0</ele><time>2026-05-02T13:42:50Z</time></trkpt><trkpt lat="42.10238348514861" lon="13.355738271664"><ele>713.0</ele><time>2026-05-02T13:42:51Z</time></trkpt><trkpt lat="42.10249461198137" lon="13.35558549615506"><ele>713.0</ele><time>2026-05-02T13:42:52Z</time></trkpt><trkpt lat="42.102617300303" lon="13.35543026052332"><ele>713.0</ele><time>2026-05-02T13:42:53Z</time></trkpt><trkpt lat="42.102737995786555" lon="13.355282074549088"><ele>713.0</ele><time>2026-05-02T13:42:54Z</time></trkpt><trkpt lat="42.10286043460984" lon="13.355132493671366"><ele>713.0</ele><time>2026-05-02T13:42:55Z</time></trkpt><trkpt lat="42.10298813680609" lon="13.3549734385502"><ele>713.0</ele><time>2026-05-02T13:42:56Z</time></trkpt><trkpt lat="42.10311921739987" lon="13.354808494980222"><ele>713.0</ele><time>2026-05-02T13:42:57Z</time></trkpt><trkpt lat="42.10325230417838" lon="13.35463567434692"><ele>713.0</ele><time>2026-05-02T13:42:58Z</time></trkpt><trkpt lat="42.10338215843659" lon="13.354460621747076"><ele>716.3333333333333</ele><time>2026-05-02T13:42:59Z</time></trkpt><trkpt lat="42.10351146522508" lon="13.354280219687102"><ele>719.6666666666666</ele><time>2026-05-02T13:43:00Z</time></trkpt><trkpt lat="42.103640383167196" lon="13.354099755629042"><ele>723.0</ele><time>2026-05-02T13:43:01Z</time></trkpt><trkpt lat="42.10375626694252" lon="13.353911862268667"><ele>724.6666666666666</ele><time>2026-05-02T13:43:02Z</time></trkpt><trkpt lat="42.103878966164025" lon="13.353747361052505"><ele>726.3333333333333</ele><time>2026-05-02T13:43:03Z</time></trkpt><trkpt lat="42.10399697596864" lon="13.353590308662367"><ele>728.0</ele><time>2026-05-02T13:43:04Z</time></trkpt><trkpt lat="42.10410464525641" lon="13.353456752371542"><ele>728.5</ele><time>2026-05-02T13:43:05Z</time></trkpt><trkpt lat="42.104220758211355" lon="13.353355595738606"><ele>729.0</ele><time>2026-05-02T13:43:06Z</time></trkpt><trkpt lat="42.10432894855756" lon="13.353245809568875"><ele>729.5</ele><time>2026-05-02T13:43:07Z</time></trkpt><trkpt lat="42.10443578853876" lon="13.353127479416484"><ele>730.0</ele><time>2026-05-02T13:43:08Z</time></trkpt><trkpt lat="42.104560497311454" lon="13.353030874893246"><ele>730.75</ele><time>2026-05-02T13:43:09Z</time></trkpt><trkpt lat="42.104685062661325" lon="13.352930247198577"><ele>731.5</ele><time>2026-05-02T13:43:10Z</time></trkpt><trkpt lat="42.10481236576539" lon="13.352826673271018"><ele>732.25</ele><time>2026-05-02T13:43:11Z</time></trkpt><trkpt lat="42.104943993718166" lon="13.352718446815206"><ele>733.0</ele><time>2026-05-02T13:43:12Z</time></trkpt><trkpt lat="42.10507831872365" lon="13.352609969600206"><ele>734.75</ele><time>2026-05-02T13:43:13Z</time></trkpt><trkpt lat="42.10520574105753" lon="13.352506047783935"><ele>736.5</ele><time>2026-05-02T13:43:14Z</time></trkpt><trkpt lat="42.10533654421033" lon="13.352428261051182"><ele>738.25</ele><time>2026-05-02T13:43:15Z</time></trkpt><trkpt lat="42.105457385667236" lon="13.352333882444775"><ele>740.0</ele><time>2026-05-02T13:43:16Z</time></trkpt><trkpt lat="42.10557997078816" lon="13.352234797993017"><ele>739.75</ele><time>2026-05-02T13:43:17Z</time></trkpt><trkpt lat="42.10570147406486" lon="13.352136438186934"><ele>739.5</ele><time>2026-05-02T13:43:18Z</time></trkpt><trkpt lat="42.105826758404994" lon="13.352033129841857"><ele>739.25</ele><time>2026-05-02T13:43:19Z</time></trkpt><trkpt lat="42.10595450799323" lon="13.351927232153491"><ele>739.0</ele><time>2026-05-02T13:43:20Z</time></trkpt><trkpt lat="42.10607812583862" lon="13.351822631988579"><ele>740.0</ele><time>2026-05-02T13:43:21Z</time></trkpt><trkpt lat="42.106186997861464" lon="13.351730009520612"><ele>741.0</ele><time>2026-05-02T13:43:22Z</time></trkpt><trkpt lat="42.106269614854774" lon="13.351633423004326"><ele>742.0</ele><time>2026-05-02T13:43:23Z</time></trkpt><trkpt lat="42.106343038045395" lon="13.351573471993355"><ele>743.0</ele><time>2026-05-02T13:43:24Z</time></trkpt><trkpt lat="42.10640520723271" lon="13.351523016819442"><ele>744.0</ele><time>2026-05-02T13:43:25Z</time></trkpt><trkpt lat="42.106474538302045" lon="13.351505414000794"><ele>744.0</ele><time>2026-05-02T13:43:26Z</time></trkpt><trkpt lat="42.10654457384828" lon="13.351473615626213"><ele>744.0</ele><time>2026-05-02T13:43:27Z</time></trkpt><trkpt lat="42.10662547475122" lon="13.351437267770509"><ele>744.0</ele><time>2026-05-02T13:43:28Z</time></trkpt><trkpt lat="42.10671129944806" lon="13.351397234321318"><ele>744.0</ele><time>2026-05-02T13:43:29Z</time></trkpt><trkpt lat="42.10678914707026" lon="13.351334207265696"><ele>744.0</ele><time>2026-05-02T13:43:30Z</time></trkpt><trkpt lat="42.1068612671631" lon="13.351304652311084"><ele>744.0</ele><time>2026-05-02T13:43:31Z</time></trkpt><trkpt lat="42.10694425087724" lon="13.351230904982396"><ele>744.6</ele><time>2026-05-02T13:43:33Z</time></trkpt><trkpt lat="42.106967726631325" lon="13.351072123703734"><ele>745.2</ele><time>2026-05-02T13:43:35Z</time></trkpt><trkpt lat="42.10698777173197" lon="13.350963570809968"><ele>745.8000000000001</ele><time>2026-05-02T13:43:36Z</time></trkpt><trkpt lat="42.10701382858351" lon="13.350839064969271"><ele>746.4000000000001</ele><time>2026-05-02T13:43:37Z</time></trkpt><trkpt lat="42.10703712342898" lon="13.350705376174199"><ele>747.0</ele><time>2026-05-02T13:43:38Z</time></trkpt><trkpt lat="42.107060011275905" lon="13.350574185651455"><ele>747.3333333333334</ele><time>2026-05-02T13:43:39Z</time></trkpt><trkpt lat="42.10708327805746" lon="13.350451121826993"><ele>747.6666666666666</ele><time>2026-05-02T13:43:40Z</time></trkpt><trkpt lat="42.10709734570511" lon="13.35033100436908"><ele>748.0</ele><time>2026-05-02T13:43:41Z</time></trkpt><trkpt lat="42.107115066999704" lon="13.350221743178917"><ele>748.3333333333333</ele><time>2026-05-02T13:43:42Z</time></trkpt><trkpt lat="42.1071570962018" lon="13.350139716414256"><ele>748.6666666666666</ele><time>2026-05-02T13:43:43Z</time></trkpt><trkpt lat="42.10719619824884" lon="13.350056277700638"><ele>749.0</ele><time>2026-05-02T13:43:44Z</time></trkpt><trkpt lat="42.10724635023779" lon="13.349961826534292"><ele>749.0</ele><time>2026-05-02T13:43:45Z</time></trkpt><trkpt lat="42.10729308264243" lon="13.349851840636957"><ele>749.0</ele><time>2026-05-02T13:43:46Z</time></trkpt><trkpt lat="42.10736314103119" lon="13.349751074653454"><ele>749.0</ele><time>2026-05-02T13:43:47Z</time></trkpt><trkpt lat="42.10743765783575" lon="13.349643442163377"><ele>749.0</ele><time>2026-05-02T13:43:48Z</time></trkpt><trkpt lat="42.10751791043693" lon="13.349531701475108"><ele>749.0</ele><time>2026-05-02T13:43:49Z</time></trkpt><trkpt lat="42.10759625879295" lon="13.34942887611203"><ele>749.4000000000001</ele><time>2026-05-02T13:43:50Z</time></trkpt><trkpt lat="42.10766870457371" lon="13.349340565753664"><ele>749.8</ele><time>2026-05-02T13:43:51Z</time></trkpt><trkpt lat="42.107720475565536" lon="13.349236414336797"><ele>750.2</ele><time>2026-05-02T13:43:52Z</time></trkpt><trkpt lat="42.107751850675896" lon="13.349110600773807"><ele>750.5999999999999</ele><time>2026-05-02T13:43:53Z</time></trkpt><trkpt lat="42.10777309804034" lon="13.348959471304608"><ele>751.0</ele><time>2026-05-02T13:43:54Z</time></trkpt><trkpt lat="42.1077979410012" lon="13.348800116234703"><ele>751.0</ele><time>2026-05-02T13:43:55Z</time></trkpt><trkpt lat="42.10782403557246" lon="13.34862964644274"><ele>751.0</ele><time>2026-05-02T13:43:56Z</time></trkpt><trkpt lat="42.107850449154036" lon="13.348457583614074"><ele>751.0</ele><time>2026-05-02T13:43:57Z</time></trkpt><trkpt lat="42.10787268494873" lon="13.348294472244463"><ele>751.0</ele><time>2026-05-02T13:43:58Z</time></trkpt><trkpt lat="42.10789150654018" lon="13.348143519400912"><ele>751.4</ele><time>2026-05-02T13:43:59Z</time></trkpt><trkpt lat="42.10790819508107" lon="13.348010777756633"><ele>751.8</ele><time>2026-05-02T13:44:00Z</time></trkpt><trkpt lat="42.10792083187398" lon="13.347910159471907"><ele>752.1999999999999</ele><time>2026-05-02T13:44:01Z</time></trkpt><trkpt lat="42.1079363628015" lon="13.3477942794979"><ele>752.5999999999999</ele><time>2026-05-02T13:44:03Z</time></trkpt><trkpt lat="42.1079737203956" lon="13.34770856153702"><ele>753.0</ele><time>2026-05-02T13:44:06Z</time></trkpt><trkpt lat="42.10809483714229" lon="13.347691436921894"><ele>753.0</ele><time>2026-05-02T13:44:07Z</time></trkpt><trkpt lat="42.10819484556849" lon="13.347634620416555"><ele>753.0</ele><time>2026-05-02T13:44:08Z</time></trkpt><trkpt lat="42.10831891570565" lon="13.347563384276015"><ele>753.0</ele><time>2026-05-02T13:44:09Z</time></trkpt><trkpt lat="42.1084453173328" lon="13.347500093018"><ele>753.0</ele><time>2026-05-02T13:44:10Z</time></trkpt><trkpt lat="42.1085768423607" lon="13.347442199556484"><ele>754.6666666666666</ele><time>2026-05-02T13:44:11Z</time></trkpt><trkpt lat="42.10871851301418" lon="13.347384257723691"><ele>756.3333333333333</ele><time>2026-05-02T13:44:12Z</time></trkpt><trkpt lat="42.108874511666784" lon="13.347327533488357"><ele>758.0</ele><time>2026-05-02T13:44:13Z</time></trkpt><trkpt lat="42.10904572227404" lon="13.347277391656567"><ele>760.3333333333333</ele><time>2026-05-02T13:44:14Z</time></trkpt><trkpt lat="42.10922124789672" lon="13.347233343511608"><ele>762.6666666666666</ele><time>2026-05-02T13:44:15Z</time></trkpt><trkpt lat="42.10939517645733" lon="13.34718686370167"><ele>765.0</ele><time>2026-05-02T13:44:16Z</time></trkpt><trkpt lat="42.10958139391238" lon="13.347137065339908"><ele>765.0</ele><time>2026-05-02T13:44:17Z</time></trkpt><trkpt lat="42.109771641951966" lon="13.347091407679825"><ele>765.0</ele><time>2026-05-02T13:44:18Z</time></trkpt><trkpt lat="42.10996663780454" lon="13.347045362624208"><ele>765.0</ele><time>2026-05-02T13:44:19Z</time></trkpt><trkpt lat="42.110163049902255" lon="13.346992719115343"><ele>767.6666666666667</ele><time>2026-05-02T13:44:20Z</time></trkpt><trkpt lat="42.1103602736298" lon="13.346933159118642"><ele>770.3333333333334</ele><time>2026-05-02T13:44:21Z</time></trkpt><trkpt lat="42.11055445190109" lon="13.346861419430184"><ele>773.0</ele><time>2026-05-02T13:44:22Z</time></trkpt><trkpt lat="42.110745242028514" lon="13.346778578732367"><ele>774.6666666666667</ele><time>2026-05-02T13:44:23Z</time></trkpt><trkpt lat="42.110932767907954" lon="13.346692598117125"><ele>776.3333333333333</ele><time>2026-05-02T13:44:24Z</time></trkpt><trkpt lat="42.11111791862035" lon="13.346615040230455"><ele>778.0</ele><time>2026-05-02T13:44:25Z</time></trkpt><trkpt lat="42.1112985545485" lon="13.346538074131201"><ele>778.0</ele><time>2026-05-02T13:44:26Z</time></trkpt><trkpt lat="42.11147447039538" lon="13.34645638654193"><ele>778.0</ele><time>2026-05-02T13:44:27Z</time></trkpt><trkpt lat="42.11164845753628" lon="13.346371299630212"><ele>778.0</ele><time>2026-05-02T13:44:28Z</time></trkpt><trkpt lat="42.11181975226403" lon="13.34628578122365"><ele>780.3333333333333</ele><time>2026-05-02T13:44:29Z</time></trkpt><trkpt lat="42.11199120756843" lon="13.346198838565323"><ele>782.6666666666667</ele><time>2026-05-02T13:44:30Z</time></trkpt><trkpt lat="42.112160060560626" lon="13.34610740526461"><ele>785.0</ele><time>2026-05-02T13:44:31Z</time></trkpt><trkpt lat="42.11232480348354" lon="13.346013573276988"><ele>787.6666666666667</ele><time>2026-05-02T13:44:32Z</time></trkpt><trkpt lat="42.112484170755685" lon="13.345911787836386"><ele>790.3333333333333</ele><time>2026-05-02T13:44:33Z</time></trkpt><trkpt lat="42.112638996011746" lon="13.34579990105995"><ele>793.0</ele><time>2026-05-02T13:44:34Z</time></trkpt><trkpt lat="42.11279644855565" lon="13.345686605752"><ele>793.0</ele><time>2026-05-02T13:44:35Z</time></trkpt><trkpt lat="42.112957060307934" lon="13.345574010080128"><ele>793.0</ele><time>2026-05-02T13:44:36Z</time></trkpt><trkpt lat="42.113118617241504" lon="13.345463831341693"><ele>793.0</ele><time>2026-05-02T13:44:37Z</time></trkpt><trkpt lat="42.113278530085424" lon="13.345353751028146"><ele>794.6666666666666</ele><time>2026-05-02T13:44:38Z</time></trkpt><trkpt lat="42.11343585719013" lon="13.345242136003204"><ele>796.3333333333333</ele><time>2026-05-02T13:44:39Z</time></trkpt><trkpt lat="42.11359195297543" lon="13.345129013371416"><ele>798.0</ele><time>2026-05-02T13:44:40Z</time></trkpt><trkpt lat="42.11374570472391" lon="13.345018627498739"><ele>798.0</ele><time>2026-05-02T13:44:41Z</time></trkpt><trkpt lat="42.11389828537141" lon="13.344909166308101"><ele>798.0</ele><time>2026-05-02T13:44:42Z</time></trkpt><trkpt lat="42.114050300338405" lon="13.34480415619864"><ele>798.0</ele><time>2026-05-02T13:44:43Z</time></trkpt><trkpt lat="42.114203718022175" lon="13.344712487313746"><ele>800.0</ele><time>2026-05-02T13:44:44Z</time></trkpt><trkpt lat="42.11435970345108" lon="13.344638452389763"><ele>802.0</ele><time>2026-05-02T13:44:45Z</time></trkpt><trkpt lat="42.114515469270415" lon="13.344589119404558"><ele>804.0</ele><time>2026-05-02T13:44:46Z</time></trkpt><trkpt lat="42.1146735307348" lon="13.344562384600579"><ele>804.0</ele><time>2026-05-02T13:44:47Z</time></trkpt><trkpt lat="42.114831432727414" lon="13.344545740831391"><ele>804.0</ele><time>2026-05-02T13:44:48Z</time></trkpt><trkpt lat="42.114994576883014" lon="13.344526465377148"><ele>804.0</ele><time>2026-05-02T13:44:49Z</time></trkpt><trkpt lat="42.115160061114594" lon="13.344505362411391"><ele>805.3333333333333</ele><time>2026-05-02T13:44:50Z</time></trkpt><trkpt lat="42.11533600225492" lon="13.344485975706936"><ele>806.6666666666666</ele><time>2026-05-02T13:44:51Z</time></trkpt><trkpt lat="42.115514794114304" lon="13.344465282325626"><ele>808.0</ele><time>2026-05-02T13:44:52Z</time></trkpt><trkpt lat="42.115697833864246" lon="13.344442717052164"><ele>808.6666666666666</ele><time>2026-05-02T13:44:53Z</time></trkpt><trkpt lat="42.11588499927161" lon="13.344418719643809"><ele>809.3333333333333</ele><time>2026-05-02T13:44:54Z</time></trkpt><trkpt lat="42.116073349305786" lon="13.344389996018812"><ele>810.0</ele><time>2026-05-02T13:44:55Z</time></trkpt><trkpt lat="42.116257521900394" lon="13.344359095489883"><ele>810.0</ele><time>2026-05-02T13:44:56Z</time></trkpt><trkpt lat="42.11644019337855" lon="13.344328373868718"><ele>810.0</ele><time>2026-05-02T13:44:57Z</time></trkpt><trkpt lat="42.116622759247946" lon="13.34430257985548"><ele>810.0</ele><time>2026-05-02T13:44:58Z</time></trkpt><trkpt lat="42.11680589865434" lon="13.344282168922819"><ele>813.0</ele><time>2026-05-02T13:44:59Z</time></trkpt><trkpt lat="42.116988499002844" lon="13.344261699005457"><ele>816.0</ele><time>2026-05-02T13:45:00Z</time></trkpt><trkpt lat="42.11717159058312" lon="13.344238105210572"><ele>819.0</ele><time>2026-05-02T13:45:01Z</time></trkpt><trkpt lat="42.117352773254716" lon="13.344214976242467"><ele>821.3333333333333</ele><time>2026-05-02T13:45:02Z</time></trkpt><trkpt lat="42.117533180764326" lon="13.344193949081653"><ele>823.6666666666666</ele><time>2026-05-02T13:45:03Z</time></trkpt><trkpt lat="42.117710858803626" lon="13.344173330531811"><ele>826.0</ele><time>2026-05-02T13:45:04Z</time></trkpt><trkpt lat="42.117888770544525" lon="13.344157062132615"><ele>826.0</ele><time>2026-05-02T13:45:05Z</time></trkpt><trkpt lat="42.11806634958326" lon="13.344153282344454"><ele>826.0</ele><time>2026-05-02T13:45:06Z</time></trkpt><trkpt lat="42.11824080538153" lon="13.34416430519385"><ele>826.0</ele><time>2026-05-02T13:45:07Z</time></trkpt><trkpt lat="42.118421540244654" lon="13.34419111768497"><ele>827.3333333333333</ele><time>2026-05-02T13:45:08Z</time></trkpt><trkpt lat="42.118609528647156" lon="13.344225544611579"><ele>828.6666666666667</ele><time>2026-05-02T13:45:09Z</time></trkpt><trkpt lat="42.118794624121335" lon="13.344250556940194"><ele>830.0</ele><time>2026-05-02T13:45:10Z</time></trkpt><trkpt lat="42.11896911545951" lon="13.34426743909389"><ele>833.0</ele><time>2026-05-02T13:45:11Z</time></trkpt><trkpt lat="42.11913066196542" lon="13.34428426803301"><ele>836.0</ele><time>2026-05-02T13:45:12Z</time></trkpt><trkpt lat="42.11928295026913" lon="13.344296526679257"><ele>839.0</ele><time>2026-05-02T13:45:13Z</time></trkpt><trkpt lat="42.11943380867886" lon="13.344298420021117"><ele>839.0</ele><time>2026-05-02T13:45:14Z</time></trkpt><trkpt lat="42.1195766092731" lon="13.344293000022093"><ele>839.0</ele><time>2026-05-02T13:45:15Z</time></trkpt><trkpt lat="42.11971351057907" lon="13.344285589779277"><ele>839.0</ele><time>2026-05-02T13:45:16Z</time></trkpt><trkpt lat="42.11984335823461" lon="13.34426585925921"><ele>839.0</ele><time>2026-05-02T13:45:17Z</time></trkpt><trkpt lat="42.119964646002934" lon="13.344235102822248"><ele>840.75</ele><time>2026-05-02T13:45:18Z</time></trkpt><trkpt lat="42.120082903437705" lon="13.344201196488347"><ele>842.5</ele><time>2026-05-02T13:45:19Z</time></trkpt><trkpt lat="42.12019995676112" lon="13.344166119216462"><ele>844.25</ele><time>2026-05-02T13:45:20Z</time></trkpt><trkpt lat="42.120316553305194" lon="13.344127870802968"><ele>846.0</ele><time>2026-05-02T13:45:21Z</time></trkpt><trkpt lat="42.12043254113076" lon="13.344088715931868"><ele>846.0</ele><time>2026-05-02T13:45:22Z</time></trkpt><trkpt lat="42.120547028710476" lon="13.344047458018649"><ele>846.0</ele><time>2026-05-02T13:45:23Z</time></trkpt><trkpt lat="42.120660799188585" lon="13.344001187358238"><ele>846.0</ele><time>2026-05-02T13:45:24Z</time></trkpt><trkpt lat="42.12077309154924" lon="13.343954533970967"><ele>846.0</ele><time>2026-05-02T13:45:25Z</time></trkpt><trkpt lat="42.12088631336731" lon="13.34391481670113"><ele>847.4</ele><time>2026-05-02T13:45:26Z</time></trkpt><trkpt lat="42.12099926728956" lon="13.343880681729802"><ele>848.8</ele><time>2026-05-02T13:45:27Z</time></trkpt><trkpt lat="42.12111106066588" lon="13.34384465139199"><ele>850.1999999999999</ele><time>2026-05-02T13:45:28Z</time></trkpt><trkpt lat="42.12121500884373" lon="13.343802637649313"><ele>851.5999999999999</ele><time>2026-05-02T13:45:29Z</time></trkpt><trkpt lat="42.121310235015486" lon="13.343749677025682"><ele>853.0</ele><time>2026-05-02T13:45:30Z</time></trkpt><trkpt lat="42.12140262517884" lon="13.343680549475291"><ele>853.4</ele><time>2026-05-02T13:45:31Z</time></trkpt><trkpt lat="42.121490410189075" lon="13.343598266385902"><ele>853.8</ele><time>2026-05-02T13:45:32Z</time></trkpt><trkpt lat="42.12156727892914" lon="13.343505702028594"><ele>854.2</ele><time>2026-05-02T13:45:33Z</time></trkpt><trkpt lat="42.12161973773566" lon="13.343411550247593"><ele>854.6</ele><time>2026-05-02T13:45:34Z</time></trkpt><trkpt lat="42.121652472434825" lon="13.343300978770985"><ele>855.0</ele><time>2026-05-02T13:45:35Z</time></trkpt><trkpt lat="42.12166714198754" lon="13.343172059004146"><ele>858.2</ele><time>2026-05-02T13:45:36Z</time></trkpt><trkpt lat="42.12166325630217" lon="13.343029881115369"><ele>861.4</ele><time>2026-05-02T13:45:37Z</time></trkpt><trkpt lat="42.12166472710219" lon="13.342877433849596"><ele>864.5999999999999</ele><time>2026-05-02T13:45:38Z</time></trkpt><trkpt lat="42.12164116874881" lon="13.342741272175314"><ele>867.8</ele><time>2026-05-02T13:45:39Z</time></trkpt><trkpt lat="42.121637467025735" lon="13.34259632139032"><ele>871.0</ele><time>2026-05-02T13:45:40Z</time></trkpt><trkpt lat="42.12162713253327" lon="13.342426867113225"><ele>871.0</ele><time>2026-05-02T13:45:41Z</time></trkpt><trkpt lat="42.121608692251044" lon="13.342245647665326"><ele>871.0</ele><time>2026-05-02T13:45:42Z</time></trkpt><trkpt lat="42.121569144511604" lon="13.342051450958833"><ele>871.0</ele><time>2026-05-02T13:45:43Z</time></trkpt><trkpt lat="42.12151744019431" lon="13.341859010117897"><ele>871.0</ele><time>2026-05-02T13:45:44Z</time></trkpt><trkpt lat="42.121482736030124" lon="13.341674231890742"><ele>869.5</ele><time>2026-05-02T13:45:45Z</time></trkpt><trkpt lat="42.12146644124765" lon="13.341498593819207"><ele>868.0</ele><time>2026-05-02T13:45:46Z</time></trkpt><trkpt lat="42.12146777573993" lon="13.341320988829624"><ele>866.5</ele><time>2026-05-02T13:45:47Z</time></trkpt><trkpt lat="42.12147228841138" lon="13.34114147455225"><ele>865.0</ele><time>2026-05-02T13:45:48Z</time></trkpt><trkpt lat="42.121467294133446" lon="13.34096451136415"><ele>865.0</ele><time>2026-05-02T13:45:49Z</time></trkpt><trkpt lat="42.121460263065956" lon="13.340799412948973"><ele>865.0</ele><time>2026-05-02T13:45:50Z</time></trkpt><trkpt lat="42.1214539416774" lon="13.340644539688652"><ele>865.0</ele><time>2026-05-02T13:45:51Z</time></trkpt><trkpt lat="42.12144763361993" lon="13.340497704122663"><ele>865.0</ele><time>2026-05-02T13:45:52Z</time></trkpt><trkpt lat="42.12143939845601" lon="13.340358537628127"><ele>867.0</ele><time>2026-05-02T13:45:53Z</time></trkpt><trkpt lat="42.1214295289589" lon="13.340231103304468"><ele>869.0</ele><time>2026-05-02T13:45:54Z</time></trkpt><trkpt lat="42.12142305862428" lon="13.340123072674922"><ele>871.0</ele><time>2026-05-02T13:45:55Z</time></trkpt><trkpt lat="42.121414371364864" lon="13.340032161991479"><ele>873.0</ele><time>2026-05-02T13:45:56Z</time></trkpt><trkpt lat="42.121385861972016" lon="13.339860915129197"><ele>875.0</ele><time>2026-05-02T13:45:58Z</time></trkpt><trkpt lat="42.121374081526575" lon="13.339750035465688"><ele>878.75</ele><time>2026-05-02T13:45:59Z</time></trkpt><trkpt lat="42.12133441806041" lon="13.339620031296034"><ele>882.5</ele><time>2026-05-02T13:46:00Z</time></trkpt><trkpt lat="42.1212728821374" lon="13.339477788615213"><ele>886.25</ele><time>2026-05-02T13:46:01Z</time></trkpt><trkpt lat="42.121220892612264" lon="13.339321253627146"><ele>890.0</ele><time>2026-05-02T13:46:02Z</time></trkpt><trkpt lat="42.1211641082122" lon="13.339177139117119"><ele>890.0</ele><time>2026-05-02T13:46:03Z</time></trkpt><trkpt lat="42.12110448243529" lon="13.33904376505321"><ele>890.0</ele><time>2026-05-02T13:46:04Z</time></trkpt><trkpt lat="42.1210507960417" lon="13.338918822263592"><ele>890.0</ele><time>2026-05-02T13:46:05Z</time></trkpt><trkpt lat="42.12100208278357" lon="13.33880176418549"><ele>890.0</ele><time>2026-05-02T13:46:06Z</time></trkpt><trkpt lat="42.12095975501652" lon="13.338697958657756"><ele>890.0</ele><time>2026-05-02T13:46:07Z</time></trkpt><trkpt lat="42.120914109739005" lon="13.338613341364349"><ele>891.5000000000001</ele><time>2026-05-02T13:46:08Z</time></trkpt><trkpt lat="42.12085011162231" lon="13.338560092450791"><ele>893.0</ele><time>2026-05-02T13:46:09Z</time></trkpt><trkpt lat="42.12077881617588" lon="13.338552459128936"><ele>894.5</ele><time>2026-05-02T13:46:10Z</time></trkpt><trkpt lat="42.120712622724675" lon="13.338599951071727"><ele>896.0</ele><time>2026-05-02T13:46:11Z</time></trkpt><trkpt lat="42.12065499739985" lon="13.338690912764008"><ele>897.5000000000001</ele><time>2026-05-02T13:46:12Z</time></trkpt><trkpt lat="42.12061058228834" lon="13.33880189381346"><ele>899.0</ele><time>2026-05-02T13:46:13Z</time></trkpt><trkpt lat="42.12052112561224" lon="13.338903075586517"><ele>899.0</ele><time>2026-05-02T13:46:14Z</time></trkpt><trkpt lat="42.12044004409757" lon="13.339012081962387"><ele>899.0000000000001</ele><time>2026-05-02T13:46:15Z</time></trkpt><trkpt lat="42.12035640722194" lon="13.339104036329285"><ele>899.0000000000001</ele><time>2026-05-02T13:46:16Z</time></trkpt><trkpt lat="42.12028046947221" lon="13.339182252398384"><ele>899.0</ele><time>2026-05-02T13:46:17Z</time></trkpt><trkpt lat="42.12020083625593" lon="13.339232002547659"><ele>899.0</ele><time>2026-05-02T13:46:18Z</time></trkpt><trkpt lat="42.12013442811838" lon="13.339291825101581"><ele>899.0</ele><time>2026-05-02T13:46:19Z</time></trkpt><trkpt lat="42.12005119853786" lon="13.339297965982322"><ele>899.0000000000001</ele><time>2026-05-02T13:46:20Z</time></trkpt><trkpt lat="42.11996178340883" lon="13.339276891447891"><ele>899.0000000000001</ele><time>2026-05-02T13:46:21Z</time></trkpt><trkpt lat="42.119865044929604" lon="13.339255607866342"><ele>899.0</ele><time>2026-05-02T13:46:22Z</time></trkpt><trkpt lat="42.11976283279555" lon="13.339237678123736"><ele>899.0</ele><time>2026-05-02T13:46:23Z</time></trkpt><trkpt lat="42.119656127520514" lon="13.339224853632272"><ele>899.8000000000001</ele><time>2026-05-02T13:46:24Z</time></trkpt><trkpt lat="42.11955027424892" lon="13.33920720560247"><ele>900.6000000000001</ele><time>2026-05-02T13:46:25Z</time></trkpt><trkpt lat="42.119444850019796" lon="13.339187683728086"><ele>901.4</ele><time>2026-05-02T13:46:26Z</time></trkpt><trkpt lat="42.11933778188766" lon="13.339170397566093"><ele>902.2</ele><time>2026-05-02T13:46:27Z</time></trkpt><trkpt lat="42.1192370547911" lon="13.339156233960463"><ele>903.0</ele><time>2026-05-02T13:46:28Z</time></trkpt><trkpt lat="42.119140171588874" lon="13.339149795129961"><ele>903.5999999999999</ele><time>2026-05-02T13:46:29Z</time></trkpt><trkpt lat="42.11904482234155" lon="13.339144372419677"><ele>904.1999999999999</ele><time>2026-05-02T13:46:30Z</time></trkpt><trkpt lat="42.118949049845746" lon="13.339151231332545"><ele>904.8</ele><time>2026-05-02T13:46:31Z</time></trkpt><trkpt lat="42.118856955104356" lon="13.339154865622481"><ele>905.4</ele><time>2026-05-02T13:46:32Z</time></trkpt><trkpt lat="42.118765747084275" lon="13.339155874049979"><ele>906.0</ele><time>2026-05-02T13:46:33Z</time></trkpt><trkpt lat="42.118674915069384" lon="13.33916701813357"><ele>906.0</ele><time>2026-05-02T13:46:34Z</time></trkpt><trkpt lat="42.11858569528981" lon="13.33917825948114"><ele>905.9999999999999</ele><time>2026-05-02T13:46:35Z</time></trkpt><trkpt lat="42.118506791469144" lon="13.33918714485307"><ele>905.9999999999999</ele><time>2026-05-02T13:46:36Z</time></trkpt><trkpt lat="42.11843298671041" lon="13.339168127337535"><ele>906.0</ele><time>2026-05-02T13:46:37Z</time></trkpt><trkpt lat="42.11831674134189" lon="13.339152386863988"><ele>906.0</ele><time>2026-05-02T13:46:39Z</time></trkpt><trkpt lat="42.118219635474944" lon="13.33914632761639"><ele>905.5999999999999</ele><time>2026-05-02T13:46:41Z</time></trkpt><trkpt lat="42.11811677743844" lon="13.33911904406642"><ele>905.1999999999999</ele><time>2026-05-02T13:46:43Z</time></trkpt><trkpt lat="42.11807806350125" lon="13.339024742113738"><ele>904.8000000000001</ele><time>2026-05-02T13:46:46Z</time></trkpt><trkpt lat="42.11807406509946" lon="13.338912931664359"><ele>904.4000000000001</ele><time>2026-05-02T13:46:48.999Z</time></trkpt><trkpt lat="42.118085144082215" lon="13.338803641457854"><ele>904.0</ele><time>2026-05-02T13:47:02Z</time></trkpt><trkpt lat="42.11808607066591" lon="13.33863597016865"><ele>901.8000000000001</ele><time>2026-05-02T13:47:04Z</time></trkpt><trkpt lat="42.118091336350034" lon="13.338544948621227"><ele>899.6000000000001</ele><time>2026-05-02T13:47:05Z</time></trkpt><trkpt lat="42.118090866794695" lon="13.33845766314828"><ele>897.4</ele><time>2026-05-02T13:47:06Z</time></trkpt><trkpt lat="42.118100452943146" lon="13.338303022933903"><ele>895.2</ele><time>2026-05-02T13:47:08Z</time></trkpt><trkpt lat="42.118080887313035" lon="13.338178694083291"><ele>893.0</ele><time>2026-05-02T13:47:10Z</time></trkpt><trkpt lat="42.11813402782947" lon="13.33804731277302"><ele>890.8333333333334</ele><time>2026-05-02T13:47:12Z</time></trkpt><trkpt lat="42.11819403452191" lon="13.337993766080897"><ele>888.6666666666667</ele><time>2026-05-02T13:47:13Z</time></trkpt><trkpt lat="42.118227640181" lon="13.33790502519309"><ele>886.5</ele><time>2026-05-02T13:47:14Z</time></trkpt><trkpt lat="42.11827941996096" lon="13.337826210352917"><ele>884.3333333333333</ele><time>2026-05-02T13:47:15Z</time></trkpt><trkpt lat="42.11831999773032" lon="13.337750477234893"><ele>882.1666666666666</ele><time>2026-05-02T13:47:16Z</time></trkpt><trkpt lat="42.1183695862873" lon="13.337664495486706"><ele>880.0</ele><time>2026-05-02T13:47:17Z</time></trkpt><trkpt lat="42.11842055231822" lon="13.337577810413803"><ele>882.4</ele><time>2026-05-02T13:47:18Z</time></trkpt><trkpt lat="42.118498485162995" lon="13.33750547767566"><ele>884.8</ele><time>2026-05-02T13:47:19Z</time></trkpt><trkpt lat="42.11856929461825" lon="13.337424145089575"><ele>887.2</ele><time>2026-05-02T13:47:20Z</time></trkpt><trkpt lat="42.11863986167431" lon="13.337337409813923"><ele>889.6</ele><time>2026-05-02T13:47:21Z</time></trkpt><trkpt lat="42.11871119623687" lon="13.33724973103602"><ele>892.0</ele><time>2026-05-02T13:47:22Z</time></trkpt><trkpt lat="42.118785743910934" lon="13.337165531600958"><ele>892.0</ele><time>2026-05-02T13:47:23Z</time></trkpt><trkpt lat="42.11886400684126" lon="13.337089216209346"><ele>892.0</ele><time>2026-05-02T13:47:24Z</time></trkpt><trkpt lat="42.11894277682953" lon="13.33699801663532"><ele>892.0</ele><time>2026-05-02T13:47:25Z</time></trkpt><trkpt lat="42.1190196535332" lon="13.336915468315956"><ele>892.0</ele><time>2026-05-02T13:47:26Z</time></trkpt><trkpt lat="42.11909667007765" lon="13.336825883271201"><ele>892.0</ele><time>2026-05-02T13:47:27Z</time></trkpt><trkpt lat="42.119173057884204" lon="13.336731611854708"><ele>894.6</ele><time>2026-05-02T13:47:28Z</time></trkpt><trkpt lat="42.11924598946273" lon="13.33663182488646"><ele>897.2</ele><time>2026-05-02T13:47:29Z</time></trkpt><trkpt lat="42.11931436584599" lon="13.336531148569817"><ele>899.8</ele><time>2026-05-02T13:47:30Z</time></trkpt><trkpt lat="42.11938196658974" lon="13.336452228788797"><ele>902.4</ele><time>2026-05-02T13:47:31Z</time></trkpt><trkpt lat="42.11946293728142" lon="13.336391352365101"><ele>905.0</ele><time>2026-05-02T13:47:32Z</time></trkpt><trkpt lat="42.11953821274374" lon="13.336322764075955"><ele>905.0</ele><time>2026-05-02T13:47:33Z</time></trkpt><trkpt lat="42.11962075735491" lon="13.336256368789602"><ele>905.0</ele><time>2026-05-02T13:47:34Z</time></trkpt><trkpt lat="42.11970969124261" lon="13.336180060787406"><ele>905.0</ele><time>2026-05-02T13:47:35Z</time></trkpt><trkpt lat="42.11981290116401" lon="13.336114260883488"><ele>905.0</ele><time>2026-05-02T13:47:36Z</time></trkpt><trkpt lat="42.1199179098242" lon="13.336064322756293"><ele>905.0</ele><time>2026-05-02T13:47:37Z</time></trkpt><trkpt lat="42.12001125728765" lon="13.335974359644323"><ele>910.8</ele><time>2026-05-02T13:47:38Z</time></trkpt><trkpt lat="42.120090875237764" lon="13.335861205525347"><ele>916.6</ele><time>2026-05-02T13:47:39Z</time></trkpt><trkpt lat="42.12018735015904" lon="13.335782897392887"><ele>922.4000000000001</ele><time>2026-05-02T13:47:40Z</time></trkpt><trkpt lat="42.12026955474718" lon="13.335694437085666"><ele>928.2</ele><time>2026-05-02T13:47:41Z</time></trkpt><trkpt lat="42.12035244688918" lon="13.335615335399556"><ele>934.0</ele><time>2026-05-02T13:47:42Z</time></trkpt><trkpt lat="42.1204429760676" lon="13.33555557379892"><ele>931.6</ele><time>2026-05-02T13:47:43Z</time></trkpt><trkpt lat="42.12053184999939" lon="13.335503979130209"><ele>929.2</ele><time>2026-05-02T13:47:44Z</time></trkpt><trkpt lat="42.120612423749634" lon="13.335484070714266"><ele>926.8000000000001</ele><time>2026-05-02T13:47:45Z</time></trkpt><trkpt lat="42.12066263644072" lon="13.335322621921321"><ele>924.4000000000001</ele><time>2026-05-02T13:47:46Z</time></trkpt><trkpt lat="42.12071588877862" lon="13.33521824241382"><ele>922.0</ele><time>2026-05-02T13:47:47Z</time></trkpt><trkpt lat="42.12076836267735" lon="13.335090128331943"><ele>929.0</ele><time>2026-05-02T13:47:48Z</time></trkpt><trkpt lat="42.120827194451074" lon="13.334962870467212"><ele>936.0</ele><time>2026-05-02T13:47:49Z</time></trkpt><trkpt lat="42.12088354143775" lon="13.334832400166514"><ele>943.0</ele><time>2026-05-02T13:47:50Z</time></trkpt><trkpt lat="42.12094027684747" lon="13.334705182532728"><ele>950.0</ele><time>2026-05-02T13:47:51Z</time></trkpt><trkpt lat="42.12100431246804" lon="13.334572999923466"><ele>950.0000000000001</ele><time>2026-05-02T13:47:52Z</time></trkpt><trkpt lat="42.121064198630826" lon="13.334446083751322"><ele>950.0</ele><time>2026-05-02T13:47:53Z</time></trkpt><trkpt lat="42.121117592436676" lon="13.334328294927428"><ele>950.0</ele><time>2026-05-02T13:47:54Z</time></trkpt><trkpt lat="42.121154918721295" lon="13.334221841567118"><ele>950.0</ele><time>2026-05-02T13:47:55Z</time></trkpt><trkpt lat="42.12117244316883" lon="13.334119440315947"><ele>950.0000000000001</ele><time>2026-05-02T13:47:56Z</time></trkpt><trkpt lat="42.12117842103811" lon="13.334029312012442"><ele>950.0</ele><time>2026-05-02T13:47:57Z</time></trkpt><trkpt lat="42.12115900809284" lon="13.333873213561544"><ele>952.2</ele><time>2026-05-02T13:47:59Z</time></trkpt><trkpt lat="42.12110097429045" lon="13.333727706102634"><ele>954.4</ele><time>2026-05-02T13:48:01Z</time></trkpt><trkpt lat="42.12104051678935" lon="13.333651091525219"><ele>956.5999999999999</ele><time>2026-05-02T13:48:02Z</time></trkpt><trkpt lat="42.12097909835882" lon="13.333591780772073"><ele>958.8</ele><time>2026-05-02T13:48:03Z</time></trkpt><trkpt lat="42.12092284752026" lon="13.333537057621436"><ele>961.0</ele><time>2026-05-02T13:48:04Z</time></trkpt><trkpt lat="42.12080225252819" lon="13.333488017992963"><ele>958.9999999999999</ele><time>2026-05-02T13:48:06Z</time></trkpt><trkpt lat="42.120722303412144" lon="13.33349507380428"><ele>957.0</ele><time>2026-05-02T13:48:07Z</time></trkpt><trkpt lat="42.120654270057905" lon="13.333533896090952"><ele>955.0</ele><time>2026-05-02T13:48:08Z</time></trkpt><trkpt lat="42.12058268419742" lon="13.333545608060911"><ele>953.0</ele><time>2026-05-02T13:48:09Z</time></trkpt><trkpt lat="42.12051471452987" lon="13.333575458564537"><ele>950.9999999999999</ele><time>2026-05-02T13:48:10Z</time></trkpt><trkpt lat="42.12044734271769" lon="13.333606275153299"><ele>949.0</ele><time>2026-05-02T13:48:11Z</time></trkpt><trkpt lat="42.12033516813361" lon="13.33363396480813"><ele>949.0</ele><time>2026-05-02T13:48:13Z</time></trkpt><trkpt lat="42.12027413906067" lon="13.333521605389631"><ele>949.0000000000001</ele><time>2026-05-02T13:48:15Z</time></trkpt><trkpt lat="42.12027990985295" lon="13.333428284272584"><ele>949.0000000000001</ele><time>2026-05-02T13:48:16Z</time></trkpt><trkpt lat="42.12030087244431" lon="13.333317016755656"><ele>949.0</ele><time>2026-05-02T13:48:17Z</time></trkpt><trkpt lat="42.120308612925605" lon="13.33319654033317"><ele>949.0</ele><time>2026-05-02T13:48:17.999Z</time></trkpt><trkpt lat="42.1203126560969" lon="13.333059223188501"><ele>952.2</ele><time>2026-05-02T13:48:18.999Z</time></trkpt><trkpt lat="42.12031620917577" lon="13.332912208674085"><ele>955.4000000000001</ele><time>2026-05-02T13:48:19.999Z</time></trkpt><trkpt lat="42.120318762024866" lon="13.332758901900398"><ele>958.6</ele><time>2026-05-02T13:48:20.999Z</time></trkpt><trkpt lat="42.12032069377879" lon="13.332609802824173"><ele>961.8</ele><time>2026-05-02T13:48:21.999Z</time></trkpt><trkpt lat="42.12031612628506" lon="13.332469551388638"><ele>965.0</ele><time>2026-05-02T13:48:22.999Z</time></trkpt><trkpt lat="42.12030996235375" lon="13.332335595854254"><ele>966.5000000000001</ele><time>2026-05-02T13:48:23.999Z</time></trkpt><trkpt lat="42.1202904368227" lon="13.332213608526548"><ele>968.0</ele><time>2026-05-02T13:48:24.999Z</time></trkpt><trkpt lat="42.12025715514036" lon="13.332111181363674"><ele>969.5</ele><time>2026-05-02T13:48:25.999Z</time></trkpt><trkpt lat="42.120209558612636" lon="13.332017241899822"><ele>971.0</ele><time>2026-05-02T13:48:26.999Z</time></trkpt><trkpt lat="42.12018974974196" lon="13.331911401808592"><ele>972.5000000000001</ele><time>2026-05-02T13:48:27.999Z</time></trkpt><trkpt lat="42.12015841735756" lon="13.331812207013972"><ele>974.0</ele><time>2026-05-02T13:48:28.999Z</time></trkpt><trkpt lat="42.1201360972268" lon="13.331721098980486"><ele>974.0000000000001</ele><time>2026-05-02T13:48:29.999Z</time></trkpt><trkpt lat="42.120121665173585" lon="13.331631102003703"><ele>974.0</ele><time>2026-05-02T13:48:30.999Z</time></trkpt><trkpt lat="42.120182279964375" lon="13.331510523474458"><ele>974.0</ele><time>2026-05-02T13:48:32.999Z</time></trkpt><trkpt lat="42.12028748844263" lon="13.331447532110522"><ele>974.0</ele><time>2026-05-02T13:48:34.999Z</time></trkpt><trkpt lat="42.12035768393362" lon="13.331421031496841"><ele>974.0000000000001</ele><time>2026-05-02T13:48:35.999Z</time></trkpt><trkpt lat="42.120435413184886" lon="13.331390550826386"><ele>974.0</ele><time>2026-05-02T13:48:36.999Z</time></trkpt><trkpt lat="42.12051624134755" lon="13.331357160109226"><ele>974.3333333333334</ele><time>2026-05-02T13:48:37.999Z</time></trkpt><trkpt lat="42.12060050582341" lon="13.331317931767924"><ele>974.6666666666667</ele><time>2026-05-02T13:48:38.999Z</time></trkpt><trkpt lat="42.12067534758915" lon="13.331283078985962"><ele>975.0</ele><time>2026-05-02T13:48:39.999Z</time></trkpt><trkpt lat="42.12075219189942" lon="13.331247293647428"><ele>975.3333333333333</ele><time>2026-05-02T13:48:40.999Z</time></trkpt><trkpt lat="42.12082747652203" lon="13.331212941116245"><ele>975.6666666666666</ele><time>2026-05-02T13:48:41.999Z</time></trkpt><trkpt lat="42.12089950411443" lon="13.331166170245298"><ele>976.0</ele><time>2026-05-02T13:48:42.999Z</time></trkpt><trkpt lat="42.12098070575698" lon="13.33114470206051"><ele>977.1999999999999</ele><time>2026-05-02T13:48:43.999Z</time></trkpt><trkpt lat="42.12106969285754" lon="13.331100068214269"><ele>978.3999999999999</ele><time>2026-05-02T13:48:44.999Z</time></trkpt><trkpt lat="42.12116523832102" lon="13.331049080553164"><ele>979.6</ele><time>2026-05-02T13:48:45.999Z</time></trkpt><trkpt lat="42.12126245047505" lon="13.33100336863714"><ele>980.8</ele><time>2026-05-02T13:48:46.999Z</time></trkpt><trkpt lat="42.1213499205196" lon="13.330970211910788"><ele>982.0</ele><time>2026-05-02T13:48:47.999Z</time></trkpt><trkpt lat="42.121440653511286" lon="13.330931735098176"><ele>981.9999999999999</ele><time>2026-05-02T13:48:48.999Z</time></trkpt><trkpt lat="42.121524354067816" lon="13.330902923622984"><ele>982.0</ele><time>2026-05-02T13:48:49.999Z</time></trkpt><trkpt lat="42.121604215072324" lon="13.330882496730085"><ele>982.0</ele><time>2026-05-02T13:48:50.999Z</time></trkpt><trkpt lat="42.121683081697476" lon="13.330857594064126"><ele>982.0</ele><time>2026-05-02T13:48:51.999Z</time></trkpt><trkpt lat="42.12176674743812" lon="13.330844439587999"><ele>981.9999999999999</ele><time>2026-05-02T13:48:52.999Z</time></trkpt><trkpt lat="42.1218474814416" lon="13.330836360917608"><ele>982.0</ele><time>2026-05-02T13:48:53.999Z</time></trkpt><trkpt lat="42.12193102857978" lon="13.330828590208156"><ele>983.3333333333333</ele><time>2026-05-02T13:48:54.999Z</time></trkpt><trkpt lat="42.12200982612351" lon="13.330801268974525"><ele>984.6666666666666</ele><time>2026-05-02T13:48:55.999Z</time></trkpt><trkpt lat="42.12209950399994" lon="13.330800087497828"><ele>986.0</ele><time>2026-05-02T13:48:56.999Z</time></trkpt><trkpt lat="42.12218839149177" lon="13.330791445965763"><ele>987.3333333333333</ele><time>2026-05-02T13:48:57.999Z</time></trkpt><trkpt lat="42.122275359029736" lon="13.3307724755922"><ele>988.6666666666666</ele><time>2026-05-02T13:48:58.999Z</time></trkpt><trkpt lat="42.12236590675746" lon="13.330749964533641"><ele>990.0</ele><time>2026-05-02T13:48:59.999Z</time></trkpt><trkpt lat="42.12244416844544" lon="13.330714246478449"><ele>991.6666666666666</ele><time>2026-05-02T13:49:00.999Z</time></trkpt><trkpt lat="42.12251915071425" lon="13.330655398693596"><ele>993.3333333333333</ele><time>2026-05-02T13:49:01.999Z</time></trkpt><trkpt lat="42.122582892825314" lon="13.330594253236516"><ele>995.0</ele><time>2026-05-02T13:49:02.999Z</time></trkpt><trkpt lat="42.12263736330976" lon="13.330524782038744"><ele>996.6666666666666</ele><time>2026-05-02T13:49:03.999Z</time></trkpt><trkpt lat="42.122707270132274" lon="13.330468979880532"><ele>998.3333333333333</ele><time>2026-05-02T13:49:04.999Z</time></trkpt><trkpt lat="42.1227740225479" lon="13.330403508835511"><ele>1000.0</ele><time>2026-05-02T13:49:05.999Z</time></trkpt><trkpt lat="42.122837939875566" lon="13.330315868357026"><ele>999.9999999999999</ele><time>2026-05-02T13:49:06.999Z</time></trkpt><trkpt lat="42.12290885602771" lon="13.330255888531962"><ele>1000.0</ele><time>2026-05-02T13:49:07.999Z</time></trkpt><trkpt lat="42.12299479223536" lon="13.330209015546368"><ele>1000.0</ele><time>2026-05-02T13:49:08.999Z</time></trkpt><trkpt lat="42.123064758978444" lon="13.330155191543065"><ele>1000.0</ele><time>2026-05-02T13:49:09.999Z</time></trkpt><trkpt lat="42.1231406026377" lon="13.330104464934154"><ele>999.9999999999999</ele><time>2026-05-02T13:49:10.999Z</time></trkpt><trkpt lat="42.123217263843195" lon="13.330060016058773"><ele>1000.0</ele><time>2026-05-02T13:49:11.999Z</time></trkpt><trkpt lat="42.123305839588596" lon="13.330023023712497"><ele>1001.6</ele><time>2026-05-02T13:49:12.999Z</time></trkpt><trkpt lat="42.123396227103434" lon="13.329992666041113"><ele>1003.2</ele><time>2026-05-02T13:49:13.999Z</time></trkpt><trkpt lat="42.123484514238015" lon="13.329964346505916"><ele>1004.8</ele><time>2026-05-02T13:49:14.999Z</time></trkpt><trkpt lat="42.12357022330414" lon="13.329912425144087"><ele>1006.4</ele><time>2026-05-02T13:49:15.999Z</time></trkpt><trkpt lat="42.12365499459587" lon="13.329884187078719"><ele>1008.0</ele><time>2026-05-02T13:49:16.999Z</time></trkpt><trkpt lat="42.123741694960884" lon="13.32985732672238"><ele>1008.0</ele><time>2026-05-02T13:49:17.999Z</time></trkpt><trkpt lat="42.12382867336939" lon="13.329805047660173"><ele>1008.0</ele><time>2026-05-02T13:49:18.999Z</time></trkpt><trkpt lat="42.12390930311888" lon="13.32975654480924"><ele>1008.0</ele><time>2026-05-02T13:49:19.999Z</time></trkpt><trkpt lat="42.123994997375284" lon="13.329698181281008"><ele>1008.0</ele><time>2026-05-02T13:49:20.999Z</time></trkpt><trkpt lat="42.12406595673586" lon="13.329639868991533"><ele>1008.0</ele><time>2026-05-02T13:49:21.999Z</time></trkpt><trkpt lat="42.12414348427935" lon="13.329584730238253"><ele>1009.5</ele><time>2026-05-02T13:49:22.999Z</time></trkpt><trkpt lat="42.12421479440921" lon="13.32949321256358"><ele>1011.0</ele><time>2026-05-02T13:49:23.999Z</time></trkpt><trkpt lat="42.1242769858739" lon="13.329393824463404"><ele>1012.5</ele><time>2026-05-02T13:49:24.999Z</time></trkpt><trkpt lat="42.12433562216852" lon="13.329303957733762"><ele>1014.0</ele><time>2026-05-02T13:49:25.999Z</time></trkpt><trkpt lat="42.124388609885045" lon="13.329226576420288"><ele>1015.5</ele><time>2026-05-02T13:49:26.999Z</time></trkpt><trkpt lat="42.12444126136542" lon="13.329155083510038"><ele>1017.0</ele><time>2026-05-02T13:49:27.999Z</time></trkpt><trkpt lat="42.12455170645596" lon="13.329081407872923"><ele>1017.0</ele><time>2026-05-02T13:49:29.999Z</time></trkpt><trkpt lat="42.12465112417296" lon="13.329057318894842"><ele>1016.9999999999999</ele><time>2026-05-02T13:49:31.999Z</time></trkpt><trkpt lat="42.12471506353264" lon="13.3290465937647"><ele>1017.0</ele><time>2026-05-02T13:49:32.999Z</time></trkpt><trkpt lat="42.12478415932775" lon="13.329047169036372"><ele>1017.0</ele><time>2026-05-02T13:49:33.999Z</time></trkpt><trkpt lat="42.12485423610271" lon="13.329059733730942"><ele>1016.9999999999999</ele><time>2026-05-02T13:49:34.999Z</time></trkpt><trkpt lat="42.12492077762247" lon="13.32907891046092"><ele>1017.0</ele><time>2026-05-02T13:49:35.999Z</time></trkpt><trkpt lat="42.12498785140042" lon="13.32907855740239"><ele>1017.0</ele><time>2026-05-02T13:49:36.999Z</time></trkpt><trkpt lat="42.12508436728517" lon="13.32912377907592"><ele>1019.8</ele><time>2026-05-02T13:49:38.999Z</time></trkpt><trkpt lat="42.12518254096857" lon="13.32915717063218"><ele>1022.6</ele><time>2026-05-02T13:49:40.999Z</time></trkpt><trkpt lat="42.12530038626811" lon="13.329189157710623"><ele>1025.3999999999999</ele><time>2026-05-02T13:49:42.999Z</time></trkpt><trkpt lat="42.125355997627665" lon="13.329244405047346"><ele>1028.2</ele><time>2026-05-02T13:49:43.999Z</time></trkpt><trkpt lat="42.12542011263053" lon="13.329283805041293"><ele>1031.0</ele><time>2026-05-02T13:49:44.999Z</time></trkpt><trkpt lat="42.12554089874735" lon="13.329369075259835"><ele>1031.0</ele><time>2026-05-02T13:49:46.999Z</time></trkpt><trkpt lat="42.125603360617575" lon="13.329414122147906"><ele>1031.0</ele><time>2026-05-02T13:49:47.999Z</time></trkpt><trkpt lat="42.1256592782074" lon="13.329454449345103"><ele>1031.0</ele><time>2026-05-02T13:49:48.999Z</time></trkpt><trkpt lat="42.12572273143465" lon="13.329500211303193"><ele>1031.0</ele><time>2026-05-02T13:49:49.999Z</time></trkpt><trkpt lat="42.12583435877478" lon="13.329576904254434"><ele>1031.0</ele><time>2026-05-02T13:49:51.999Z</time></trkpt><trkpt lat="42.12592699351591" lon="13.329619599536938"><ele>1031.0</ele><time>2026-05-02T13:49:53.999Z</time></trkpt><trkpt lat="42.126013397956754" lon="13.329694099796496"><ele>1033.142857142857</ele><time>2026-05-02T13:49:55.999Z</time></trkpt><trkpt lat="42.12608743248601" lon="13.329720480513997"><ele>1035.2857142857142</ele><time>2026-05-02T13:49:56.999Z</time></trkpt><trkpt lat="42.12615065023491" lon="13.329746344223615"><ele>1037.4285714285713</ele><time>2026-05-02T13:49:57.999Z</time></trkpt><trkpt lat="42.12622814246526" lon="13.329765184205895"><ele>1039.5714285714284</ele><time>2026-05-02T13:49:58.999Z</time></trkpt><trkpt lat="42.126294250803966" lon="13.32977074060144"><ele>1041.7142857142858</ele><time>2026-05-02T13:49:59.999Z</time></trkpt><trkpt lat="42.12636227881832" lon="13.32976483370842"><ele>1043.8571428571427</ele><time>2026-05-02T13:50:00.999Z</time></trkpt><trkpt lat="42.12642670096836" lon="13.329756910335641"><ele>1046.0</ele><time>2026-05-02T13:50:01.999Z</time></trkpt><trkpt lat="42.126546805662805" lon="13.32976120871703"><ele>1048.5714285714284</ele><time>2026-05-02T13:50:03.999Z</time></trkpt><trkpt lat="42.12661285756122" lon="13.329754231362053"><ele>1051.142857142857</ele><time>2026-05-02T13:50:04.999Z</time></trkpt><trkpt lat="42.126682061115886" lon="13.329772283309243"><ele>1053.7142857142858</ele><time>2026-05-02T13:50:05.999Z</time></trkpt><trkpt lat="42.126748197321454" lon="13.329804125977953"><ele>1056.2857142857142</ele><time>2026-05-02T13:50:06.999Z</time></trkpt><trkpt lat="42.12682070927305" lon="13.329825021405329"><ele>1058.857142857143</ele><time>2026-05-02T13:50:07.999Z</time></trkpt><trkpt lat="42.12688702191049" lon="13.329833831593753"><ele>1061.4285714285713</ele><time>2026-05-02T13:50:08.999Z</time></trkpt><trkpt lat="42.12695849423883" lon="13.32984865131411"><ele>1064.0</ele><time>2026-05-02T13:50:09.999Z</time></trkpt><trkpt lat="42.12703293654969" lon="13.32987477926806"><ele>1064.0</ele><time>2026-05-02T13:50:10.999Z</time></trkpt><trkpt lat="42.1271111469148" lon="13.329912639312028"><ele>1064.0</ele><time>2026-05-02T13:50:11.999Z</time></trkpt><trkpt lat="42.12719000680334" lon="13.329949162635916"><ele>1064.0</ele><time>2026-05-02T13:50:12.999Z</time></trkpt><trkpt lat="42.12726340879045" lon="13.3299830615904"><ele>1064.0</ele><time>2026-05-02T13:50:13.999Z</time></trkpt><trkpt lat="42.127334646268" lon="13.33002195562454"><ele>1064.0</ele><time>2026-05-02T13:50:14.999Z</time></trkpt><trkpt lat="42.127410782495524" lon="13.330068550838577"><ele>1064.0</ele><time>2026-05-02T13:50:15.999Z</time></trkpt><trkpt lat="42.127473713212204" lon="13.330111700740906"><ele>1065.6000000000001</ele><time>2026-05-02T13:50:16.999Z</time></trkpt><trkpt lat="42.127540966929146" lon="13.330153394205684"><ele>1067.2</ele><time>2026-05-02T13:50:17.999Z</time></trkpt><trkpt lat="42.12763034955294" lon="13.330204194335689"><ele>1068.8000000000002</ele><time>2026-05-02T13:50:19.999Z</time></trkpt><trkpt lat="42.127722267135674" lon="13.330232470544985"><ele>1070.4</ele><time>2026-05-02T13:50:30Z</time></trkpt><trkpt lat="42.12784544430699" lon="13.3302437169255"><ele>1072.0</ele><time>2026-05-02T13:50:32Z</time></trkpt><trkpt lat="42.12792131184665" lon="13.330228554976753"><ele>1072.0</ele><time>2026-05-02T13:50:33Z</time></trkpt><trkpt lat="42.12800613821573" lon="13.330207535941902"><ele>1072.0</ele><time>2026-05-02T13:50:34Z</time></trkpt><trkpt lat="42.12808297449509" lon="13.33017974862434"><ele>1072.0</ele><time>2026-05-02T13:50:35Z</time></trkpt><trkpt lat="42.128157423643174" lon="13.330150132091779"><ele>1072.0</ele><time>2026-05-02T13:50:36Z</time></trkpt><trkpt lat="42.12823590703431" lon="13.330110434389914"><ele>1072.0</ele><time>2026-05-02T13:50:37Z</time></trkpt><trkpt lat="42.12832384696217" lon="13.330084979211342"><ele>1072.0</ele><time>2026-05-02T13:50:38Z</time></trkpt><trkpt lat="42.128400519197676" lon="13.330044463602212"><ele>1071.4285714285716</ele><time>2026-05-02T13:50:39Z</time></trkpt><trkpt lat="42.12846836458515" lon="13.329987194011123"><ele>1070.857142857143</ele><time>2026-05-02T13:50:40Z</time></trkpt><trkpt lat="42.12852955285111" lon="13.329951848849925"><ele>1070.2857142857142</ele><time>2026-05-02T13:50:41Z</time></trkpt><trkpt lat="42.128593194154135" lon="13.329918655459215"><ele>1069.7142857142858</ele><time>2026-05-02T13:50:42Z</time></trkpt><trkpt lat="42.12865801018488" lon="13.329883638327019"><ele>1069.142857142857</ele><time>2026-05-02T13:50:43Z</time></trkpt><trkpt lat="42.12872149149947" lon="13.329838914240232"><ele>1068.5714285714287</ele><time>2026-05-02T13:50:44Z</time></trkpt><trkpt lat="42.12879100333932" lon="13.329787799504842"><ele>1068.0</ele><time>2026-05-02T13:50:45Z</time></trkpt><trkpt lat="42.12885283809293" lon="13.329734799249485"><ele>1068.6666666666667</ele><time>2026-05-02T13:50:46Z</time></trkpt><trkpt lat="42.1289176344079" lon="13.329675623335884"><ele>1069.3333333333333</ele><time>2026-05-02T13:50:47Z</time></trkpt><trkpt lat="42.128986750029156" lon="13.329628189076715"><ele>1070.0</ele><time>2026-05-02T13:50:48Z</time></trkpt><trkpt lat="42.129062861130095" lon="13.329572878050133"><ele>1070.6666666666665</ele><time>2026-05-02T13:50:49Z</time></trkpt><trkpt lat="42.129139331677024" lon="13.329515723350873"><ele>1071.3333333333333</ele><time>2026-05-02T13:50:50Z</time></trkpt><trkpt lat="42.12921552811128" lon="13.329474487791064"><ele>1072.0</ele><time>2026-05-02T13:50:51Z</time></trkpt><trkpt lat="42.12928580731709" lon="13.329419133131768"><ele>1070.6666666666665</ele><time>2026-05-02T13:50:52Z</time></trkpt><trkpt lat="42.12935060836984" lon="13.329357223700796"><ele>1069.3333333333333</ele><time>2026-05-02T13:50:53Z</time></trkpt><trkpt lat="42.129416248676684" lon="13.329286461621631"><ele>1068.0</ele><time>2026-05-02T13:50:54Z</time></trkpt><trkpt lat="42.12948107989146" lon="13.32922073666186"><ele>1066.6666666666667</ele><time>2026-05-02T13:50:55Z</time></trkpt><trkpt lat="42.129543688605615" lon="13.329145929963738"><ele>1065.3333333333335</ele><time>2026-05-02T13:50:56Z</time></trkpt><trkpt lat="42.129605697778906" lon="13.329075165420512"><ele>1064.0</ele><time>2026-05-02T13:50:57Z</time></trkpt><trkpt lat="42.12966862388627" lon="13.328995359259292"><ele>1064.0</ele><time>2026-05-02T13:50:58Z</time></trkpt><trkpt lat="42.12972917024631" lon="13.328913993275325"><ele>1064.0</ele><time>2026-05-02T13:50:59Z</time></trkpt><trkpt lat="42.12978198746367" lon="13.328821782872517"><ele>1064.0</ele><time>2026-05-02T13:51:00Z</time></trkpt><trkpt lat="42.12984138011903" lon="13.328734280312105"><ele>1064.0</ele><time>2026-05-02T13:51:01Z</time></trkpt><trkpt lat="42.12989201107088" lon="13.328642898507361"><ele>1064.0</ele><time>2026-05-02T13:51:02Z</time></trkpt><trkpt lat="42.12994411942801" lon="13.328556235207245"><ele>1064.0</ele><time>2026-05-02T13:51:03Z</time></trkpt><trkpt lat="42.129994936063056" lon="13.328473213415412"><ele>1063.6666666666667</ele><time>2026-05-02T13:51:04Z</time></trkpt><trkpt lat="42.13004569176758" lon="13.328394263132957"><ele>1063.3333333333335</ele><time>2026-05-02T13:51:05Z</time></trkpt><trkpt lat="42.13010204535714" lon="13.32833870445345"><ele>1063.0</ele><time>2026-05-02T13:51:06Z</time></trkpt><trkpt lat="42.130197913069516" lon="13.328273204505303"><ele>1062.6666666666667</ele><time>2026-05-02T13:51:08Z</time></trkpt><trkpt lat="42.1303041491905" lon="13.328209469482688"><ele>1062.3333333333333</ele><time>2026-05-02T13:51:10Z</time></trkpt><trkpt lat="42.13036197716343" lon="13.328174404647227"><ele>1062.0</ele><time>2026-05-02T13:51:11Z</time></trkpt><trkpt lat="42.13045191346534" lon="13.328122976113752"><ele>1063.0</ele><time>2026-05-02T13:51:13Z</time></trkpt><trkpt lat="42.13038586632312" lon="13.32760483739826"><ele>1064.0</ele><time>2026-05-02T13:51:15Z</time></trkpt><trkpt lat="42.13039914366504" lon="13.327501765695077"><ele>1064.0</ele><time>2026-05-02T13:51:16Z</time></trkpt><trkpt lat="42.13040614973276" lon="13.327415289096631"><ele>1064.0</ele><time>2026-05-02T13:51:17Z</time></trkpt><trkpt lat="42.13040473282179" lon="13.327314199541775"><ele>1064.0</ele><time>2026-05-02T13:51:18Z</time></trkpt><trkpt lat="42.130403916147515" lon="13.327204608406232"><ele>1064.0</ele><time>2026-05-02T13:51:19Z</time></trkpt><trkpt lat="42.13040900064553" lon="13.327103400219432"><ele>1064.0</ele><time>2026-05-02T13:51:20Z</time></trkpt><trkpt lat="42.13041844893229" lon="13.32698970918405"><ele>1064.0</ele><time>2026-05-02T13:51:21Z</time></trkpt><trkpt lat="42.13043734303924" lon="13.326877932636332"><ele>1065.2</ele><time>2026-05-02T13:51:22Z</time></trkpt><trkpt lat="42.13046951183604" lon="13.326765746446691"><ele>1066.4</ele><time>2026-05-02T13:51:23Z</time></trkpt><trkpt lat="42.13050270588693" lon="13.326655689317281"><ele>1067.6</ele><time>2026-05-02T13:51:24.001Z</time></trkpt><trkpt lat="42.13052179203807" lon="13.32654224652782"><ele>1068.8</ele><time>2026-05-02T13:51:25.001Z</time></trkpt><trkpt lat="42.13053085556964" lon="13.32641154421834"><ele>1070.0</ele><time>2026-05-02T13:51:26.001Z</time></trkpt><trkpt lat="42.13053961272294" lon="13.326259259630454"><ele>1071.8</ele><time>2026-05-02T13:51:27.001Z</time></trkpt><trkpt lat="42.13054692718352" lon="13.326114478883568"><ele>1073.6</ele><time>2026-05-02T13:51:28.001Z</time></trkpt><trkpt lat="42.13055220128698" lon="13.32598340126294"><ele>1075.4</ele><time>2026-05-02T13:51:29.001Z</time></trkpt><trkpt lat="42.13055526051106" lon="13.325864163222006"><ele>1077.2</ele><time>2026-05-02T13:51:30.001Z</time></trkpt><trkpt lat="42.13055345384546" lon="13.325741307865249"><ele>1079.0</ele><time>2026-05-02T13:51:31.001Z</time></trkpt><trkpt lat="42.130550493181175" lon="13.325606203547064"><ele>1079.8333333333335</ele><time>2026-05-02T13:51:32.001Z</time></trkpt><trkpt lat="42.13055706540792" lon="13.325495353340587"><ele>1080.6666666666667</ele><time>2026-05-02T13:51:33.001Z</time></trkpt><trkpt lat="42.130577513074634" lon="13.325397372780058"><ele>1081.5</ele><time>2026-05-02T13:51:34.001Z</time></trkpt><trkpt lat="42.13059481132347" lon="13.325311876019981"><ele>1082.3333333333333</ele><time>2026-05-02T13:51:35.001Z</time></trkpt><trkpt lat="42.13058335729293" lon="13.325144596857676"><ele>1083.1666666666665</ele><time>2026-05-02T13:51:37.001Z</time></trkpt><trkpt lat="42.13055992458124" lon="13.3250412366511"><ele>1084.0</ele><time>2026-05-02T13:51:38.001Z</time></trkpt><trkpt lat="42.13053118610238" lon="13.324928971416107"><ele>1084.0</ele><time>2026-05-02T13:51:39.001Z</time></trkpt><trkpt lat="42.130513137079454" lon="13.324822202604002"><ele>1084.0</ele><time>2026-05-02T13:51:40.001Z</time></trkpt><trkpt lat="42.13051077802603" lon="13.324718670573533"><ele>1084.0</ele><time>2026-05-02T13:51:41.001Z</time></trkpt><trkpt lat="42.13053264704367" lon="13.32461920447089"><ele>1084.0</ele><time>2026-05-02T13:51:42.001Z</time></trkpt><trkpt lat="42.13056078162702" lon="13.32453476135906"><ele>1084.0</ele><time>2026-05-02T13:51:43.001Z</time></trkpt><trkpt lat="42.13062389727859" lon="13.324430656996949"><ele>1084.0</ele><time>2026-05-02T13:51:45.001Z</time></trkpt><trkpt lat="42.13070918920544" lon="13.324348216066982"><ele>1084.0</ele><time>2026-05-02T13:51:47.001Z</time></trkpt><trkpt lat="42.13073312701366" lon="13.324252318770327"><ele>1084.0</ele><time>2026-05-02T13:51:49.001Z</time></trkpt><trkpt lat="42.13073397301041" lon="13.324087514179652"><ele>1084.0</ele><time>2026-05-02T13:51:51.001Z</time></trkpt><trkpt lat="42.13072311990442" lon="13.324001274455204"><ele>1084.0</ele><time>2026-05-02T13:51:52.001Z</time></trkpt><trkpt lat="42.13070368755043" lon="13.323915802789337"><ele>1084.0</ele><time>2026-05-02T13:51:53.001Z</time></trkpt><trkpt lat="42.13068959742262" lon="13.323771551756387"><ele>1084.0</ele><time>2026-05-02T13:51:55.001Z</time></trkpt><trkpt lat="42.130712125105084" lon="13.323586859441946"><ele>1082.8333333333333</ele><time>2026-05-02T13:51:57.001Z</time></trkpt><trkpt lat="42.13072950857609" lon="13.323479846692715"><ele>1081.6666666666665</ele><time>2026-05-02T13:51:58.001Z</time></trkpt><trkpt lat="42.130748476214336" lon="13.323371219932314"><ele>1080.5</ele><time>2026-05-02T13:51:59.001Z</time></trkpt><trkpt lat="42.13076711028234" lon="13.323272105608233"><ele>1079.3333333333333</ele><time>2026-05-02T13:52:00.001Z</time></trkpt><trkpt lat="42.130786167597144" lon="13.32316642904246"><ele>1078.1666666666667</ele><time>2026-05-02T13:52:01.001Z</time></trkpt><trkpt lat="42.13081266759276" lon="13.323051546513222"><ele>1077.0</ele><time>2026-05-02T13:52:02.001Z</time></trkpt><trkpt lat="42.13083997385605" lon="13.322948619418929"><ele>1077.0</ele><time>2026-05-02T13:52:03.001Z</time></trkpt><trkpt lat="42.13086459927095" lon="13.322841653529228"><ele>1077.0</ele><time>2026-05-02T13:52:04.001Z</time></trkpt><trkpt lat="42.13088365002246" lon="13.322743871103023"><ele>1077.0</ele><time>2026-05-02T13:52:05.001Z</time></trkpt><trkpt lat="42.13090312605734" lon="13.322659934223726"><ele>1077.0</ele><time>2026-05-02T13:52:06.001Z</time></trkpt><trkpt lat="42.13092756049257" lon="13.322567714721629"><ele>1077.0</ele><time>2026-05-02T13:52:07.001Z</time></trkpt><trkpt lat="42.13095075614409" lon="13.322469675013936"><ele>1077.0</ele><time>2026-05-02T13:52:08.001Z</time></trkpt><trkpt lat="42.130967799250314" lon="13.322354025019191"><ele>1077.0</ele><time>2026-05-02T13:52:09.001Z</time></trkpt><trkpt lat="42.13095943209003" lon="13.322249219554568"><ele>1077.0</ele><time>2026-05-02T13:52:10.001Z</time></trkpt><trkpt lat="42.1309450910195" lon="13.322114581979852"><ele>1077.0</ele><time>2026-05-02T13:52:11.001Z</time></trkpt><trkpt lat="42.13093230152963" lon="13.321971761235218"><ele>1077.0</ele><time>2026-05-02T13:52:12.001Z</time></trkpt><trkpt lat="42.13092316380768" lon="13.321838893965305"><ele>1077.0</ele><time>2026-05-02T13:52:13.001Z</time></trkpt><trkpt lat="42.13091381253067" lon="13.321699589110512"><ele>1077.0</ele><time>2026-05-02T13:52:14.001Z</time></trkpt><trkpt lat="42.13090711847179" lon="13.321559524119936"><ele>1077.0</ele><time>2026-05-02T13:52:15.001Z</time></trkpt><trkpt lat="42.13090418155844" lon="13.321423339821802"><ele>1077.0</ele><time>2026-05-02T13:52:16.001Z</time></trkpt><trkpt lat="42.130897580835835" lon="13.321279907114207"><ele>1077.0</ele><time>2026-05-02T13:52:17.001Z</time></trkpt><trkpt lat="42.13089218457844" lon="13.321138606039776"><ele>1077.0</ele><time>2026-05-02T13:52:18.001Z</time></trkpt><trkpt lat="42.130885220381195" lon="13.321013833191397"><ele>1076.6666666666667</ele><time>2026-05-02T13:52:19.001Z</time></trkpt><trkpt lat="42.130876342882964" lon="13.320886945942997"><ele>1076.3333333333333</ele><time>2026-05-02T13:52:20.001Z</time></trkpt><trkpt lat="42.13087094559612" lon="13.32076120875197"><ele>1076.0</ele><time>2026-05-02T13:52:21.001Z</time></trkpt><trkpt lat="42.13086364965885" lon="13.320642834227565"><ele>1075.6666666666665</ele><time>2026-05-02T13:52:22.001Z</time></trkpt><trkpt lat="42.13085373064865" lon="13.320530405024815"><ele>1075.3333333333333</ele><time>2026-05-02T13:52:23.001Z</time></trkpt><trkpt lat="42.13085302856597" lon="13.320431192824216"><ele>1075.0</ele><time>2026-05-02T13:52:24.001Z</time></trkpt><trkpt lat="42.13087507948325" lon="13.320282089440331"><ele>1075.0</ele><time>2026-05-02T13:52:26.001Z</time></trkpt><trkpt lat="42.130933813669664" lon="13.320197860980372"><ele>1075.0</ele><time>2026-05-02T13:52:28.001Z</time></trkpt><trkpt lat="42.130979572544284" lon="13.320101184653902"><ele>1075.0</ele><time>2026-05-02T13:52:31.001Z</time></trkpt><trkpt lat="42.1309641461159" lon="13.320008910776302"><ele>1075.0</ele><time>2026-05-02T13:52:34.001Z</time></trkpt><trkpt lat="42.130926783297156" lon="13.319927705221419"><ele>1075.0</ele><time>2026-05-02T13:52:36.001Z</time></trkpt><trkpt lat="42.13095202057206" lon="13.319802379426566"><ele>1075.0</ele><time>2026-05-02T13:52:38.001Z</time></trkpt><trkpt lat="42.13099140012612" lon="13.319679158871269"><ele>1075.4</ele><time>2026-05-02T13:52:40.001Z</time></trkpt><trkpt lat="42.13102892025584" lon="13.319580074461653"><ele>1075.8</ele><time>2026-05-02T13:52:42.001Z</time></trkpt><trkpt lat="42.13106226322319" lon="13.31948585527227"><ele>1076.2</ele><time>2026-05-02T13:52:44.001Z</time></trkpt><trkpt lat="42.131101003696536" lon="13.319366728308783"><ele>1076.6</ele><time>2026-05-02T13:52:46.001Z</time></trkpt><trkpt lat="42.13119316411049" lon="13.31927239492756"><ele>1077.0</ele><time>2026-05-02T13:52:48.001Z</time></trkpt><trkpt lat="42.13125788271076" lon="13.319164419099806"><ele>1077.0</ele><time>2026-05-02T13:52:50.001Z</time></trkpt><trkpt lat="42.131289995114834" lon="13.319066554615322"><ele>1077.0</ele><time>2026-05-02T13:52:51.001Z</time></trkpt><trkpt lat="42.131309132032925" lon="13.318976081092783"><ele>1077.0</ele><time>2026-05-02T13:52:52.001Z</time></trkpt><trkpt lat="42.13134821547778" lon="13.31887660245132"><ele>1077.0</ele><time>2026-05-02T13:52:53.001Z</time></trkpt><trkpt lat="42.1313768318678" lon="13.318792700541517"><ele>1077.0</ele><time>2026-05-02T13:52:54Z</time></trkpt><trkpt lat="42.13140155737104" lon="13.318713110999802"><ele>1077.0</ele><time>2026-05-02T13:52:55Z</time></trkpt><trkpt lat="42.131436588309846" lon="13.318567242034417"><ele>1075.8</ele><time>2026-05-02T13:52:57Z</time></trkpt><trkpt lat="42.131462774057084" lon="13.318488437136256"><ele>1074.6</ele><time>2026-05-02T13:52:58Z</time></trkpt><trkpt lat="42.13152799326123" lon="13.318367764414596"><ele>1073.3999999999999</ele><time>2026-05-02T13:53:00Z</time></trkpt><trkpt lat="42.131625708241074" lon="13.318260318376222"><ele>1072.2</ele><time>2026-05-02T13:53:02Z</time></trkpt><trkpt lat="42.131688943255" lon="13.318201693722981"><ele>1071.0</ele><time>2026-05-02T13:53:03Z</time></trkpt><trkpt lat="42.13175117801089" lon="13.31813687169314"><ele>1068.5</ele><time>2026-05-02T13:53:04Z</time></trkpt><trkpt lat="42.131815979530934" lon="13.318052208893876"><ele>1066.0</ele><time>2026-05-02T13:53:05Z</time></trkpt><trkpt lat="42.131868819535065" lon="13.317976756771008"><ele>1063.5</ele><time>2026-05-02T13:53:06Z</time></trkpt><trkpt lat="42.13190616960874" lon="13.317829937100475"><ele>1061.0</ele><time>2026-05-02T13:53:08Z</time></trkpt><trkpt lat="42.131912183364896" lon="13.317738073734782"><ele>1058.5</ele><time>2026-05-02T13:53:09Z</time></trkpt><trkpt lat="42.1319226311344" lon="13.317654264314372"><ele>1056.0</ele><time>2026-05-02T13:53:10Z</time></trkpt><trkpt lat="42.13197632977216" lon="13.317533232497878"><ele>1056.0</ele><time>2026-05-02T13:53:12Z</time></trkpt><trkpt lat="42.132015066698614" lon="13.31746149327472"><ele>1056.0</ele><time>2026-05-02T13:53:13Z</time></trkpt><trkpt lat="42.132053418858796" lon="13.31738227603358"><ele>1056.0</ele><time>2026-05-02T13:53:14Z</time></trkpt><trkpt lat="42.13209730995806" lon="13.31729694317344"><ele>1056.0</ele><time>2026-05-02T13:53:15Z</time></trkpt><trkpt lat="42.13215497625866" lon="13.317214184436521"><ele>1056.0</ele><time>2026-05-02T13:53:16Z</time></trkpt><trkpt lat="42.132212096212584" lon="13.317139467114806"><ele>1056.0</ele><time>2026-05-02T13:53:17Z</time></trkpt><trkpt lat="42.13226156255048" lon="13.31707487194061"><ele>1056.0</ele><time>2026-05-02T13:53:18Z</time></trkpt><trkpt lat="42.13234327064563" lon="13.316950382847562"><ele>1055.7142857142858</ele><time>2026-05-02T13:53:20Z</time></trkpt><trkpt lat="42.132386511658" lon="13.31688401603069"><ele>1055.4285714285716</ele><time>2026-05-02T13:53:21Z</time></trkpt><trkpt lat="42.13244410919021" lon="13.316821055918659"><ele>1055.1428571428573</ele><time>2026-05-02T13:53:22Z</time></trkpt><trkpt lat="42.13250739402723" lon="13.316759563071106"><ele>1054.857142857143</ele><time>2026-05-02T13:53:23Z</time></trkpt><trkpt lat="42.13255550882099" lon="13.31669493622039"><ele>1054.5714285714287</ele><time>2026-05-02T13:53:24Z</time></trkpt><trkpt lat="42.132606710076736" lon="13.316616768604979"><ele>1054.2857142857144</ele><time>2026-05-02T13:53:25Z</time></trkpt><trkpt lat="42.13265593624159" lon="13.316549980016603"><ele>1054.0</ele><time>2026-05-02T13:53:26Z</time></trkpt><trkpt lat="42.132714169826734" lon="13.316479329669086"><ele>1053.3333333333333</ele><time>2026-05-02T13:53:27Z</time></trkpt><trkpt lat="42.13276753564566" lon="13.316402775197279"><ele>1052.6666666666665</ele><time>2026-05-02T13:53:28Z</time></trkpt><trkpt lat="42.13282326147937" lon="13.31631660372089"><ele>1052.0</ele><time>2026-05-02T13:53:29Z</time></trkpt><trkpt lat="42.13287413058975" lon="13.316239032906937"><ele>1051.3333333333333</ele><time>2026-05-02T13:53:30Z</time></trkpt><trkpt lat="42.132915058302515" lon="13.316170653255444"><ele>1050.6666666666667</ele><time>2026-05-02T13:53:31Z</time></trkpt><trkpt lat="42.13297904589076" lon="13.316071638186948"><ele>1050.0</ele><time>2026-05-02T13:53:33Z</time></trkpt><trkpt lat="42.133024123264654" lon="13.316010036882512"><ele>1050.0</ele><time>2026-05-02T13:53:38Z</time></trkpt><trkpt lat="42.13308799790916" lon="13.316017531373"><ele>1050.0</ele><time>2026-05-02T13:53:50Z</time></trkpt><trkpt lat="42.13310717056083" lon="13.31610880233557"><ele>1050.0</ele><time>2026-05-02T13:53:53Z</time></trkpt><trkpt lat="42.1330418477528" lon="13.31610963608336"><ele>1050.0</ele><time>2026-05-02T13:55:29.001Z</time></trkpt><trkpt lat="42.13304039595234" lon="13.316017935898156"><ele>1050.0</ele><time>2026-05-02T14:01:08Z</time></trkpt><trkpt lat="42.13304657464079" lon="13.315901014839865"><ele>1050.0</ele><time>2026-05-02T14:01:10Z</time></trkpt><trkpt lat="42.13305881781252" lon="13.315765633208919"><ele>1050.0</ele><time>2026-05-02T14:01:12Z</time></trkpt><trkpt lat="42.133042825012225" lon="13.315650587896354"><ele>1050.0</ele><time>2026-05-02T14:01:14Z</time></trkpt><trkpt lat="42.13296504359918" lon="13.315576171722967"><ele>1050.0</ele><time>2026-05-02T14:01:16Z</time></trkpt><trkpt lat="42.132865059745235" lon="13.315528713016954"><ele>1050.0</ele><time>2026-05-02T14:01:18.001Z</time></trkpt><trkpt lat="42.13277553341954" lon="13.315479205409337"><ele>1050.0</ele><time>2026-05-02T14:01:20.001Z</time></trkpt><trkpt lat="42.132721531120175" lon="13.315425959991101"><ele>1049.6666666666667</ele><time>2026-05-02T14:01:21.001Z</time></trkpt><trkpt lat="42.13267038506732" lon="13.315350899939565"><ele>1049.3333333333333</ele><time>2026-05-02T14:01:22.001Z</time></trkpt><trkpt lat="42.13261906884522" lon="13.31526451898105"><ele>1049.0</ele><time>2026-05-02T14:01:23.001Z</time></trkpt><trkpt lat="42.13258114270994" lon="13.31517100044445"><ele>1048.6666666666665</ele><time>2026-05-02T14:01:24.001Z</time></trkpt><trkpt lat="42.132544076221535" lon="13.315060343524731"><ele>1048.3333333333333</ele><time>2026-05-02T14:01:25.001Z</time></trkpt><trkpt lat="42.13251524151226" lon="13.31495414815447"><ele>1048.0</ele><time>2026-05-02T14:01:26.001Z</time></trkpt><trkpt lat="42.132489201792865" lon="13.3148582510122"><ele>1048.0</ele><time>2026-05-02T14:01:27.001Z</time></trkpt><trkpt lat="42.132458654827694" lon="13.314766537361795"><ele>1048.0</ele><time>2026-05-02T14:01:28.001Z</time></trkpt><trkpt lat="42.13242184084876" lon="13.314669474799976"><ele>1048.0</ele><time>2026-05-02T14:01:29.001Z</time></trkpt><trkpt lat="42.132357287417946" lon="13.314539366840377"><ele>1048.0</ele><time>2026-05-02T14:01:31.001Z</time></trkpt><trkpt lat="42.132301366504706" lon="13.314471522147224"><ele>1048.0</ele><time>2026-05-02T14:01:32.001Z</time></trkpt><trkpt lat="42.13223464794165" lon="13.314398999193138"><ele>1048.0</ele><time>2026-05-02T14:01:33.001Z</time></trkpt><trkpt lat="42.13216527809688" lon="13.314322672157376"><ele>1048.2</ele><time>2026-05-02T14:01:34.001Z</time></trkpt><trkpt lat="42.132097172872875" lon="13.314239009570835"><ele>1048.4</ele><time>2026-05-02T14:01:35.001Z</time></trkpt><trkpt lat="42.13203330439942" lon="13.314152008217825"><ele>1048.6000000000001</ele><time>2026-05-02T14:01:36.001Z</time></trkpt><trkpt lat="42.13196636590297" lon="13.314063804269916"><ele>1048.8</ele><time>2026-05-02T14:01:37.001Z</time></trkpt><trkpt lat="42.1319142504066" lon="13.313994970258419"><ele>1049.0</ele><time>2026-05-02T14:01:38.001Z</time></trkpt><trkpt lat="42.131842823239246" lon="13.313869494100384"><ele>1049.4285714285713</ele><time>2026-05-02T14:01:40.001Z</time></trkpt><trkpt lat="42.131821718956786" lon="13.313786535913897"><ele>1049.857142857143</ele><time>2026-05-02T14:01:41.001Z</time></trkpt><trkpt lat="42.13181730886751" lon="13.313694534194267"><ele>1050.2857142857142</ele><time>2026-05-02T14:01:42.001Z</time></trkpt><trkpt lat="42.1318152858647" lon="13.313601882825385"><ele>1050.7142857142858</ele><time>2026-05-02T14:01:43.001Z</time></trkpt><trkpt lat="42.13181611525613" lon="13.31350840728281"><ele>1051.142857142857</ele><time>2026-05-02T14:01:44.001Z</time></trkpt><trkpt lat="42.13181923222218" lon="13.31341567030255"><ele>1051.5714285714284</ele><time>2026-05-02T14:01:45.001Z</time></trkpt><trkpt lat="42.131821408414545" lon="13.313323446713083"><ele>1052.0</ele><time>2026-05-02T14:01:46.001Z</time></trkpt><trkpt lat="42.131823897075684" lon="13.313226804885078"><ele>1052.0</ele><time>2026-05-02T14:01:47.001Z</time></trkpt><trkpt lat="42.13182241185174" lon="13.313133602489577"><ele>1052.0</ele><time>2026-05-02T14:01:48.001Z</time></trkpt><trkpt lat="42.13182361608297" lon="13.313023711931825"><ele>1052.0</ele><time>2026-05-02T14:01:49.001Z</time></trkpt><trkpt lat="42.13183259530371" lon="13.312913429493971"><ele>1052.0</ele><time>2026-05-02T14:01:50.001Z</time></trkpt><trkpt lat="42.13184397651337" lon="13.312810031796243"><ele>1052.0</ele><time>2026-05-02T14:01:51.001Z</time></trkpt><trkpt lat="42.13186223188476" lon="13.312721655236317"><ele>1052.0</ele><time>2026-05-02T14:01:52.001Z</time></trkpt><trkpt lat="42.131889382497945" lon="13.3126400666085"><ele>1052.0</ele><time>2026-05-02T14:01:53.001Z</time></trkpt><trkpt lat="42.131926732779995" lon="13.312559596628208"><ele>1052.5</ele><time>2026-05-02T14:01:54.001Z</time></trkpt><trkpt lat="42.13197231847106" lon="13.312491107863373"><ele>1053.0</ele><time>2026-05-02T14:01:55.001Z</time></trkpt><trkpt lat="42.13202336347058" lon="13.312426984688491"><ele>1053.5</ele><time>2026-05-02T14:01:56.001Z</time></trkpt><trkpt lat="42.13211597690845" lon="13.312332165152684"><ele>1054.0</ele><time>2026-05-02T14:01:58.001Z</time></trkpt><trkpt lat="42.13217253002646" lon="13.312239617098312"><ele>1054.5</ele><time>2026-05-02T14:02:00.001Z</time></trkpt><trkpt lat="42.13218564436262" lon="13.312132494352563"><ele>1055.0</ele><time>2026-05-02T14:02:02.001Z</time></trkpt><trkpt lat="42.13223074243669" lon="13.312042322953456"><ele>1057.0</ele><time>2026-05-02T14:02:04.001Z</time></trkpt><trkpt lat="42.132314404394535" lon="13.311996248398675"><ele>1059.0</ele><time>2026-05-02T14:02:06.001Z</time></trkpt><trkpt lat="42.13236151162105" lon="13.311896584244096"><ele>1061.0</ele><time>2026-05-02T14:02:08.001Z</time></trkpt><trkpt lat="42.13240498921044" lon="13.311775266950493"><ele>1063.0</ele><time>2026-05-02T14:02:10.001Z</time></trkpt><trkpt lat="42.13251427738784" lon="13.311693347343637"><ele>1065.0</ele><time>2026-05-02T14:02:12.001Z</time></trkpt><trkpt lat="42.132622361344424" lon="13.311627403048663"><ele>1061.8</ele><time>2026-05-02T14:02:14.001Z</time></trkpt><trkpt lat="42.13271325224891" lon="13.311564455307611"><ele>1058.6</ele><time>2026-05-02T14:02:16.001Z</time></trkpt><trkpt lat="42.13277057086954" lon="13.31145371190023"><ele>1055.4</ele><time>2026-05-02T14:02:18.001Z</time></trkpt><trkpt lat="42.13281623449026" lon="13.31133965898424"><ele>1052.2</ele><time>2026-05-02T14:02:20.001Z</time></trkpt><trkpt lat="42.132861595163064" lon="13.311279623324591"><ele>1049.0</ele><time>2026-05-02T14:02:21.001Z</time></trkpt><trkpt lat="42.132972092281335" lon="13.31120674587158"><ele>1049.0</ele><time>2026-05-02T14:02:23.001Z</time></trkpt><trkpt lat="42.13303274364027" lon="13.31117661936688"><ele>1049.0</ele><time>2026-05-02T14:02:24.001Z</time></trkpt><trkpt lat="42.13309798285209" lon="13.311155846727429"><ele>1049.0</ele><time>2026-05-02T14:02:25.001Z</time></trkpt><trkpt lat="42.13315908445005" lon="13.311135104839463"><ele>1049.0</ele><time>2026-05-02T14:02:26.001Z</time></trkpt><trkpt lat="42.13322465421853" lon="13.3110872789124"><ele>1049.0</ele><time>2026-05-02T14:02:28.001Z</time></trkpt><trkpt lat="42.13324333042245" lon="13.310954912195681"><ele>1049.0</ele><time>2026-05-02T14:02:30.001Z</time></trkpt><trkpt lat="42.133273141694644" lon="13.310807397106089"><ele>1047.0</ele><time>2026-05-02T14:02:32.001Z</time></trkpt><trkpt lat="42.13332763239394" lon="13.310700809373493"><ele>1045.0</ele><time>2026-05-02T14:02:34.001Z</time></trkpt><trkpt lat="42.13339156550343" lon="13.310648171451199"><ele>1043.0</ele><time>2026-05-02T14:02:36.001Z</time></trkpt><trkpt lat="42.13346320938681" lon="13.310566561048855"><ele>1041.0</ele><time>2026-05-02T14:02:38.001Z</time></trkpt><trkpt lat="42.13353930868272" lon="13.31045956119507"><ele>1039.0</ele><time>2026-05-02T14:02:40.001Z</time></trkpt><trkpt lat="42.13361189514445" lon="13.310361899388765"><ele>1039.0</ele><time>2026-05-02T14:02:42.001Z</time></trkpt><trkpt lat="42.133661365013616" lon="13.310266481083652"><ele>1039.0</ele><time>2026-05-02T14:02:44.001Z</time></trkpt><trkpt lat="42.13369473440274" lon="13.31016341491018"><ele>1039.0</ele><time>2026-05-02T14:02:46.001Z</time></trkpt><trkpt lat="42.13374872451256" lon="13.310060934289707"><ele>1039.0</ele><time>2026-05-02T14:02:48.001Z</time></trkpt><trkpt lat="42.13382138167991" lon="13.309989837631415"><ele>1039.0</ele><time>2026-05-02T14:02:51.001Z</time></trkpt><trkpt lat="42.133918482003665" lon="13.30997623736247"><ele>1039.0</ele><time>2026-05-02T14:02:53.001Z</time></trkpt><trkpt lat="42.13400922017724" lon="13.309957479245357"><ele>1039.0</ele><time>2026-05-02T14:02:55.001Z</time></trkpt><trkpt lat="42.13405860518299" lon="13.309894061031978"><ele>1039.0</ele><time>2026-05-02T14:02:57.001Z</time></trkpt><trkpt lat="42.13411323031552" lon="13.309794215892882"><ele>1039.0</ele><time>2026-05-02T14:02:59.001Z</time></trkpt><trkpt lat="42.134145852769656" lon="13.309707051118451"><ele>1039.0</ele><time>2026-05-02T14:03:01.001Z</time></trkpt><trkpt lat="42.1341372636555" lon="13.309606773146353"><ele>1039.0</ele><time>2026-05-02T14:03:03.001Z</time></trkpt><trkpt lat="42.13411254334908" lon="13.309500646762286"><ele>1034.6000000000001</ele><time>2026-05-02T14:03:05.001Z</time></trkpt><trkpt lat="42.13416646176333" lon="13.30939757871595"><ele>1030.2</ele><time>2026-05-02T14:03:07.001Z</time></trkpt><trkpt lat="42.134240763001806" lon="13.309288460091416"><ele>1025.8000000000002</ele><time>2026-05-02T14:03:09.001Z</time></trkpt><trkpt lat="42.1342975936121" lon="13.309159284052726"><ele>1021.4000000000001</ele><time>2026-05-02T14:03:11.001Z</time></trkpt><trkpt lat="42.134351067984085" lon="13.309045614038357"><ele>1017.0</ele><time>2026-05-02T14:03:13.001Z</time></trkpt><trkpt lat="42.134404898278525" lon="13.308984857102379"><ele>1017.0</ele><time>2026-05-02T14:03:15.001Z</time></trkpt><trkpt lat="42.13448543985764" lon="13.308889126818062"><ele>1017.0</ele><time>2026-05-02T14:03:17.001Z</time></trkpt><trkpt lat="42.134573969980075" lon="13.308782242107005"><ele>1017.0</ele><time>2026-05-02T14:03:19.001Z</time></trkpt><trkpt lat="42.13466071361576" lon="13.308707147787302"><ele>1017.0</ele><time>2026-05-02T14:03:21.001Z</time></trkpt><trkpt lat="42.13471243458263" lon="13.308654096335012"><ele>1017.0</ele><time>2026-05-02T14:03:23.001Z</time></trkpt><trkpt lat="42.134697897748154" lon="13.308549376636368"><ele>1017.0</ele><time>2026-05-02T14:03:25.001Z</time></trkpt><trkpt lat="42.134683967083575" lon="13.308393957085741"><ele>1017.0</ele><time>2026-05-02T14:03:27.001Z</time></trkpt><trkpt lat="42.13470290869244" lon="13.308246996999141"><ele>1017.0</ele><time>2026-05-02T14:03:29.001Z</time></trkpt><trkpt lat="42.134703074316526" lon="13.308095348725853"><ele>1017.0</ele><time>2026-05-02T14:03:31.001Z</time></trkpt><trkpt lat="42.13470850178676" lon="13.307955113848129"><ele>1017.0</ele><time>2026-05-02T14:03:33.001Z</time></trkpt><trkpt lat="42.13473206438919" lon="13.307814069045191"><ele>1015.0</ele><time>2026-05-02T14:03:35.001Z</time></trkpt><trkpt lat="42.13477463158314" lon="13.307703848389446"><ele>1013.0</ele><time>2026-05-02T14:03:37.001Z</time></trkpt><trkpt lat="42.134862144521705" lon="13.307601086853923"><ele>1011.0</ele><time>2026-05-02T14:03:39.001Z</time></trkpt><trkpt lat="42.134860526006335" lon="13.307449931481173"><ele>1009.0</ele><time>2026-05-02T14:03:41.001Z</time></trkpt><trkpt lat="42.13478261128089" lon="13.307338057475345"><ele>1007.0</ele><time>2026-05-02T14:03:43.001Z</time></trkpt><trkpt lat="42.134698055537555" lon="13.30719788430696"><ele>1004.0</ele><time>2026-05-02T14:03:45.001Z</time></trkpt><trkpt lat="42.134658088146736" lon="13.30711752065106"><ele>1001.0</ele><time>2026-05-02T14:03:46.001Z</time></trkpt><trkpt lat="42.13459060657081" lon="13.306986669805452"><ele>998.0</ele><time>2026-05-02T14:03:48.001Z</time></trkpt><trkpt lat="42.13455067312443" lon="13.306855955406816"><ele>995.0</ele><time>2026-05-02T14:03:50.001Z</time></trkpt><trkpt lat="42.13454116706643" lon="13.306717875169586"><ele>992.0</ele><time>2026-05-02T14:03:52.001Z</time></trkpt><trkpt lat="42.134532175408815" lon="13.306567786162454"><ele>992.0000000000001</ele><time>2026-05-02T14:03:54.001Z</time></trkpt><trkpt lat="42.13452889144862" lon="13.30642750460021"><ele>992.0</ele><time>2026-05-02T14:03:56.001Z</time></trkpt><trkpt lat="42.13453818324627" lon="13.306336040406956"><ele>992.0</ele><time>2026-05-02T14:03:57.001Z</time></trkpt><trkpt lat="42.13454721666426" lon="13.306251754807246"><ele>992.0</ele><time>2026-05-02T14:03:58.001Z</time></trkpt><trkpt lat="42.13451832944821" lon="13.306136845975955"><ele>992.0000000000001</ele><time>2026-05-02T14:04:00Z</time></trkpt><trkpt lat="42.134459962694066" lon="13.306077359993381"><ele>992.0</ele><time>2026-05-02T14:04:02Z</time></trkpt><trkpt lat="42.1343999743255" lon="13.305976307867171"><ele>989.8333333333334</ele><time>2026-05-02T14:04:04Z</time></trkpt><trkpt lat="42.13440067127594" lon="13.305814693366496"><ele>987.6666666666667</ele><time>2026-05-02T14:04:06Z</time></trkpt><trkpt lat="42.134398068852306" lon="13.305723624159503"><ele>985.5</ele><time>2026-05-02T14:04:07Z</time></trkpt><trkpt lat="42.13437309892182" lon="13.305568778563979"><ele>983.3333333333333</ele><time>2026-05-02T14:04:09Z</time></trkpt><trkpt lat="42.134363598525425" lon="13.30548303657828"><ele>981.1666666666666</ele><time>2026-05-02T14:04:10Z</time></trkpt><trkpt lat="42.13435756164015" lon="13.305394840600554"><ele>979.0</ele><time>2026-05-02T14:04:11Z</time></trkpt><trkpt lat="42.134351169557746" lon="13.3053034454037"><ele>977.4999999999999</ele><time>2026-05-02T14:04:12Z</time></trkpt><trkpt lat="42.13433516036046" lon="13.305211304835543"><ele>976.0</ele><time>2026-05-02T14:04:13Z</time></trkpt><trkpt lat="42.134317201646894" lon="13.305099405774664"><ele>974.5</ele><time>2026-05-02T14:04:14Z</time></trkpt><trkpt lat="42.13429988892127" lon="13.305001051838623"><ele>973.0</ele><time>2026-05-02T14:04:15Z</time></trkpt><trkpt lat="42.13427912535667" lon="13.304899261457631"><ele>971.4999999999999</ele><time>2026-05-02T14:04:16Z</time></trkpt><trkpt lat="42.13424239196805" lon="13.304758888104713"><ele>970.0</ele><time>2026-05-02T14:04:18Z</time></trkpt><trkpt lat="42.134239808256744" lon="13.304611245160952"><ele>968.4</ele><time>2026-05-02T14:04:20Z</time></trkpt><trkpt lat="42.13425725969195" lon="13.304524871638922"><ele>966.8</ele><time>2026-05-02T14:04:21Z</time></trkpt><trkpt lat="42.134253222248155" lon="13.304382708513863"><ele>965.2</ele><time>2026-05-02T14:04:23Z</time></trkpt><trkpt lat="42.134236888066695" lon="13.304239784058678"><ele>963.6</ele><time>2026-05-02T14:04:25Z</time></trkpt><trkpt lat="42.13421924657472" lon="13.30409323093001"><ele>962.0</ele><time>2026-05-02T14:04:27Z</time></trkpt><trkpt lat="42.134191542365066" lon="13.303943947663647"><ele>961.6666666666667</ele><time>2026-05-02T14:04:29Z</time></trkpt><trkpt lat="42.134173462687144" lon="13.303857638876867"><ele>961.3333333333334</ele><time>2026-05-02T14:04:30Z</time></trkpt><trkpt lat="42.13415691243017" lon="13.303765991660935"><ele>961.0</ele><time>2026-05-02T14:04:31Z</time></trkpt><trkpt lat="42.134142561402356" lon="13.30367248599314"><ele>960.6666666666667</ele><time>2026-05-02T14:04:32Z</time></trkpt><trkpt lat="42.1341327463987" lon="13.303580911541381"><ele>960.3333333333334</ele><time>2026-05-02T14:04:33Z</time></trkpt><trkpt lat="42.13415682825422" lon="13.30342266938941"><ele>960.0</ele><time>2026-05-02T14:04:35Z</time></trkpt><trkpt lat="42.1342270143617" lon="13.303272561681796"><ele>960.0</ele><time>2026-05-02T14:04:37Z</time></trkpt><trkpt lat="42.13425396398348" lon="13.303194548010909"><ele>960.0</ele><time>2026-05-02T14:04:38Z</time></trkpt><trkpt lat="42.1342871493712" lon="13.303108768015653"><ele>960.0</ele><time>2026-05-02T14:04:39Z</time></trkpt><trkpt lat="42.134323102186634" lon="13.303018380184696"><ele>960.0</ele><time>2026-05-02T14:04:40Z</time></trkpt><trkpt lat="42.134365311698886" lon="13.302928956067005"><ele>960.0</ele><time>2026-05-02T14:04:41Z</time></trkpt><trkpt lat="42.13440769190536" lon="13.302842692187868"><ele>960.0</ele><time>2026-05-02T14:04:42Z</time></trkpt><trkpt lat="42.134450087823375" lon="13.302749598225697"><ele>960.0</ele><time>2026-05-02T14:04:43Z</time></trkpt><trkpt lat="42.13448611015041" lon="13.302664829902701"><ele>960.8333333333334</ele><time>2026-05-02T14:04:44Z</time></trkpt><trkpt lat="42.134520576772736" lon="13.302561993797145"><ele>961.6666666666667</ele><time>2026-05-02T14:04:45Z</time></trkpt><trkpt lat="42.13454983906244" lon="13.302469636886425"><ele>962.5</ele><time>2026-05-02T14:04:46Z</time></trkpt><trkpt lat="42.13457332537682" lon="13.302382741579077"><ele>963.3333333333334</ele><time>2026-05-02T14:04:47Z</time></trkpt><trkpt lat="42.134577787948736" lon="13.302239901774017"><ele>964.1666666666667</ele><time>2026-05-02T14:04:49Z</time></trkpt><trkpt lat="42.134535594250146" lon="13.30217112774616"><ele>965.0</ele><time>2026-05-02T14:04:51Z</time></trkpt><trkpt lat="42.134607996489024" lon="13.302085671290255"><ele>966.2</ele><time>2026-05-02T14:04:54Z</time></trkpt><trkpt lat="42.13470044449062" lon="13.301980159375608"><ele>967.4</ele><time>2026-05-02T14:04:56Z</time></trkpt><trkpt lat="42.13475196673703" lon="13.301858781710454"><ele>968.5999999999999</ele><time>2026-05-02T14:04:58Z</time></trkpt><trkpt lat="42.13476400603944" lon="13.301731868673325"><ele>969.8</ele><time>2026-05-02T14:05:00Z</time></trkpt><trkpt lat="42.13482303325575" lon="13.301602530982517"><ele>971.0</ele><time>2026-05-02T14:05:02Z</time></trkpt><trkpt lat="42.134916788929836" lon="13.301488275297965"><ele>967.5000000000001</ele><time>2026-05-02T14:05:04Z</time></trkpt><trkpt lat="42.13497364814464" lon="13.301433434974916"><ele>964.0</ele><time>2026-05-02T14:05:05Z</time></trkpt><trkpt lat="42.13507249666095" lon="13.301327798914363"><ele>960.5</ele><time>2026-05-02T14:05:07Z</time></trkpt><trkpt lat="42.13512337826278" lon="13.301263612462906"><ele>957.0</ele><time>2026-05-02T14:05:08Z</time></trkpt><trkpt lat="42.135178768826925" lon="13.301184034437673"><ele>953.5000000000001</ele><time>2026-05-02T14:05:09Z</time></trkpt><trkpt lat="42.13522441105885" lon="13.301107246753649"><ele>950.0</ele><time>2026-05-02T14:05:10Z</time></trkpt><trkpt lat="42.13529404213065" lon="13.301014091875315"><ele>949.0</ele><time>2026-05-02T14:05:12Z</time></trkpt><trkpt lat="42.135347363093466" lon="13.300960016791514"><ele>948.0</ele><time>2026-05-02T14:05:14Z</time></trkpt><trkpt lat="42.135431821094066" lon="13.30090035949396"><ele>947.0</ele><time>2026-05-02T14:05:16Z</time></trkpt><trkpt lat="42.135546398156926" lon="13.300864465054845"><ele>946.0</ele><time>2026-05-02T14:05:18Z</time></trkpt><trkpt lat="42.13562525563641" lon="13.300801780158116"><ele>945.0</ele><time>2026-05-02T14:05:20Z</time></trkpt><trkpt lat="42.13568383972638" lon="13.300674442281895"><ele>944.8</ele><time>2026-05-02T14:05:22Z</time></trkpt><trkpt lat="42.13577153271641" lon="13.300638368194042"><ele>944.6</ele><time>2026-05-02T14:05:24Z</time></trkpt><trkpt lat="42.135876100761585" lon="13.300668303562231"><ele>944.4000000000001</ele><time>2026-05-02T14:05:26Z</time></trkpt><trkpt lat="42.135989182352546" lon="13.300664559979591"><ele>944.2</ele><time>2026-05-02T14:05:28Z</time></trkpt><trkpt lat="42.13610415520121" lon="13.300612671144867"><ele>944.0</ele><time>2026-05-02T14:05:30.001Z</time></trkpt><trkpt lat="42.13620801914533" lon="13.300549929571586"><ele>942.0000000000001</ele><time>2026-05-02T14:05:32.001Z</time></trkpt><trkpt lat="42.13625976686219" lon="13.30050024090199"><ele>940.0</ele><time>2026-05-02T14:05:33.001Z</time></trkpt><trkpt lat="42.13632095554924" lon="13.300435043104123"><ele>938.0</ele><time>2026-05-02T14:05:35.001Z</time></trkpt><trkpt lat="42.13635512900135" lon="13.300351833559532"><ele>936.0</ele><time>2026-05-02T14:05:37.001Z</time></trkpt><trkpt lat="42.13641380662287" lon="13.30024504139644"><ele>934.0000000000001</ele><time>2026-05-02T14:05:39.001Z</time></trkpt><trkpt lat="42.13648869076455" lon="13.300119928944719"><ele>932.0</ele><time>2026-05-02T14:05:41.001Z</time></trkpt><trkpt lat="42.1365424866778" lon="13.30003608371505"><ele>932.0000000000001</ele><time>2026-05-02T14:05:42.001Z</time></trkpt><trkpt lat="42.13660302739612" lon="13.299939015272447"><ele>932.0</ele><time>2026-05-02T14:05:43.001Z</time></trkpt><trkpt lat="42.13664832834545" lon="13.299857400847277"><ele>932.0</ele><time>2026-05-02T14:05:44.001Z</time></trkpt><trkpt lat="42.13668455295782" lon="13.299787147325333"><ele>932.0</ele><time>2026-05-02T14:05:45.001Z</time></trkpt><trkpt lat="42.136737289039566" lon="13.299644856134574"><ele>932.0000000000001</ele><time>2026-05-02T14:05:47.001Z</time></trkpt><trkpt lat="42.136759440162265" lon="13.299548646761743"><ele>932.0</ele><time>2026-05-02T14:05:48.001Z</time></trkpt><trkpt lat="42.13677541354934" lon="13.299440055509177"><ele>932.0000000000001</ele><time>2026-05-02T14:05:49.001Z</time></trkpt><trkpt lat="42.136792583409935" lon="13.299336243285746"><ele>932.0</ele><time>2026-05-02T14:05:50Z</time></trkpt><trkpt lat="42.13680658048485" lon="13.299245230935158"><ele>932.0</ele><time>2026-05-02T14:05:51Z</time></trkpt><trkpt lat="42.13681630214436" lon="13.29914586636172"><ele>932.0</ele><time>2026-05-02T14:05:52Z</time></trkpt><trkpt lat="42.13683445907619" lon="13.29901804256538"><ele>932.0000000000001</ele><time>2026-05-02T14:05:53Z</time></trkpt><trkpt lat="42.1368616538713" lon="13.298885358913703"><ele>932.0</ele><time>2026-05-02T14:05:54Z</time></trkpt><trkpt lat="42.13688909756996" lon="13.298743823290419"><ele>931.3333333333334</ele><time>2026-05-02T14:05:55Z</time></trkpt><trkpt lat="42.13691408405275" lon="13.298623885533674"><ele>930.6666666666667</ele><time>2026-05-02T14:05:56Z</time></trkpt><trkpt lat="42.13693551893159" lon="13.29852229599172"><ele>930.0</ele><time>2026-05-02T14:05:57Z</time></trkpt><trkpt lat="42.13696486533094" lon="13.298422089326355"><ele>929.3333333333333</ele><time>2026-05-02T14:05:58Z</time></trkpt><trkpt lat="42.136990554990014" lon="13.298339601524157"><ele>928.6666666666666</ele><time>2026-05-02T14:05:59Z</time></trkpt><trkpt lat="42.13700285433601" lon="13.298220240893368"><ele>928.0</ele><time>2026-05-02T14:06:01Z</time></trkpt><trkpt lat="42.13693073863132" lon="13.298133218288138"><ele>928.0</ele><time>2026-05-02T14:06:03Z</time></trkpt><trkpt lat="42.13681706958605" lon="13.298125714945789"><ele>928.0</ele><time>2026-05-02T14:06:05Z</time></trkpt><trkpt lat="42.136702211491404" lon="13.298124611131366"><ele>928.0</ele><time>2026-05-02T14:06:07Z</time></trkpt><trkpt lat="42.136612646913406" lon="13.298064591181712"><ele>928.0</ele><time>2026-05-02T14:06:09Z</time></trkpt><trkpt lat="42.13655163805938" lon="13.297960209555272"><ele>928.0</ele><time>2026-05-02T14:06:11Z</time></trkpt><trkpt lat="42.13653861331829" lon="13.297832264536686"><ele>928.0</ele><time>2026-05-02T14:06:13Z</time></trkpt><trkpt lat="42.13658429938964" lon="13.297687383083638"><ele>928.0</ele><time>2026-05-02T14:06:15Z</time></trkpt><trkpt lat="42.136661559066916" lon="13.297571115457233"><ele>928.0</ele><time>2026-05-02T14:06:17Z</time></trkpt><trkpt lat="42.136696109928906" lon="13.29746286261073"><ele>928.0</ele><time>2026-05-02T14:06:19Z</time></trkpt><trkpt lat="42.13670145577993" lon="13.297322181267353"><ele>928.0</ele><time>2026-05-02T14:06:21Z</time></trkpt><trkpt lat="42.13669890638571" lon="13.297176688139446"><ele>927.9999999999999</ele><time>2026-05-02T14:06:23Z</time></trkpt><trkpt lat="42.13669152414425" lon="13.297016878979457"><ele>928.0</ele><time>2026-05-02T14:06:25Z</time></trkpt><trkpt lat="42.13669210306298" lon="13.296928476656099"><ele>928.0</ele><time>2026-05-02T14:06:26Z</time></trkpt><trkpt lat="42.13669737341967" lon="13.296820030144723"><ele>928.0</ele><time>2026-05-02T14:06:27Z</time></trkpt><trkpt lat="42.13672366352956" lon="13.296707935927511"><ele>927.9999999999999</ele><time>2026-05-02T14:06:28Z</time></trkpt><trkpt lat="42.13675190993456" lon="13.296595816260982"><ele>928.0</ele><time>2026-05-02T14:06:29Z</time></trkpt><trkpt lat="42.136756691681526" lon="13.296491510061099"><ele>927.1666666666666</ele><time>2026-05-02T14:06:30Z</time></trkpt><trkpt lat="42.136736624333366" lon="13.29638935185931"><ele>926.3333333333333</ele><time>2026-05-02T14:06:31Z</time></trkpt><trkpt lat="42.13670798210321" lon="13.296285422326951"><ele>925.5</ele><time>2026-05-02T14:06:32Z</time></trkpt><trkpt lat="42.136688944914056" lon="13.296189139433023"><ele>924.6666666666667</ele><time>2026-05-02T14:06:33Z</time></trkpt><trkpt lat="42.13668285467754" lon="13.29609156335056"><ele>923.8333333333334</ele><time>2026-05-02T14:06:34Z</time></trkpt><trkpt lat="42.13668065103191" lon="13.295977186908566"><ele>923.0</ele><time>2026-05-02T14:06:35Z</time></trkpt><trkpt lat="42.13667188639585" lon="13.295856926190039"><ele>923.0000000000001</ele><time>2026-05-02T14:06:36Z</time></trkpt><trkpt lat="42.13666232920664" lon="13.295743878470187"><ele>923.0</ele><time>2026-05-02T14:06:37Z</time></trkpt><trkpt lat="42.136664072828225" lon="13.295645604000706"><ele>923.0</ele><time>2026-05-02T14:06:38Z</time></trkpt><trkpt lat="42.13667122241456" lon="13.295559029943659"><ele>923.0</ele><time>2026-05-02T14:06:39Z</time></trkpt><trkpt lat="42.13667836415063" lon="13.295455460752729"><ele>923.0000000000001</ele><time>2026-05-02T14:06:40Z</time></trkpt><trkpt lat="42.13668108059771" lon="13.295333531722852"><ele>923.0</ele><time>2026-05-02T14:06:41Z</time></trkpt><trkpt lat="42.13667702857893" lon="13.295212486507172"><ele>922.0</ele><time>2026-05-02T14:06:42Z</time></trkpt><trkpt lat="42.13665416553" lon="13.295082968491199"><ele>921.0</ele><time>2026-05-02T14:06:43Z</time></trkpt><trkpt lat="42.136629290666654" lon="13.29495984331268"><ele>920.0</ele><time>2026-05-02T14:06:44Z</time></trkpt><trkpt lat="42.13660536465143" lon="13.294846931996968"><ele>919.0</ele><time>2026-05-02T14:06:45Z</time></trkpt><trkpt lat="42.13658668248151" lon="13.294745370985234"><ele>918.0</ele><time>2026-05-02T14:06:46Z</time></trkpt><trkpt lat="42.13655849241512" lon="13.294580734699831"><ele>915.6666666666666</ele><time>2026-05-02T14:06:48Z</time></trkpt><trkpt lat="42.13654333889199" lon="13.294481781921489"><ele>913.3333333333333</ele><time>2026-05-02T14:06:49Z</time></trkpt><trkpt lat="42.136529208951025" lon="13.294394267709052"><ele>911.0</ele><time>2026-05-02T14:06:50Z</time></trkpt><trkpt lat="42.13651248862248" lon="13.294304300528616"><ele>908.6666666666666</ele><time>2026-05-02T14:06:51Z</time></trkpt><trkpt lat="42.13649433040066" lon="13.294214093339011"><ele>906.3333333333333</ele><time>2026-05-02T14:06:52Z</time></trkpt><trkpt lat="42.13649447736659" lon="13.294063501113872"><ele>904.0</ele><time>2026-05-02T14:06:54Z</time></trkpt><trkpt lat="42.13652057949839" lon="13.29392650367271"><ele>905.0</ele><time>2026-05-02T14:06:56Z</time></trkpt><trkpt lat="42.13649298175495" lon="13.293799912664474"><ele>906.0000000000001</ele><time>2026-05-02T14:06:58Z</time></trkpt><trkpt lat="42.13641975318274" lon="13.29371444048584"><ele>907.0000000000001</ele><time>2026-05-02T14:07:00Z</time></trkpt><trkpt lat="42.1363614814751" lon="13.293630810315719"><ele>908.0</ele><time>2026-05-02T14:07:02Z</time></trkpt><trkpt lat="42.13633461646042" lon="13.293497084748713"><ele>909.0</ele><time>2026-05-02T14:07:04Z</time></trkpt><trkpt lat="42.13634239841291" lon="13.293350947290206"><ele>909.0</ele><time>2026-05-02T14:07:06Z</time></trkpt><trkpt lat="42.13632522443354" lon="13.293243521797224"><ele>909.0000000000001</ele><time>2026-05-02T14:07:08Z</time></trkpt><trkpt lat="42.13627825402597" lon="13.293106528843804"><ele>909.0000000000001</ele><time>2026-05-02T14:07:10Z</time></trkpt><trkpt lat="42.136235245349226" lon="13.292982882432852"><ele>909.0</ele><time>2026-05-02T14:07:12Z</time></trkpt><trkpt lat="42.136208913694816" lon="13.292860128448687"><ele>909.0</ele><time>2026-05-02T14:07:14Z</time></trkpt><trkpt lat="42.13620112234961" lon="13.29274181116894"><ele>908.6</ele><time>2026-05-02T14:07:16Z</time></trkpt><trkpt lat="42.13622052309496" lon="13.292640746057348"><ele>908.2</ele><time>2026-05-02T14:07:19Z</time></trkpt><trkpt lat="42.13623285780673" lon="13.29247920340266"><ele>907.8000000000001</ele><time>2026-05-02T14:07:37.001Z</time></trkpt><trkpt lat="42.136238481137525" lon="13.292378278457248"><ele>907.4000000000001</ele><time>2026-05-02T14:07:38.001Z</time></trkpt><trkpt lat="42.13626263801613" lon="13.292199199665006"><ele>907.0</ele><time>2026-05-02T14:07:40.001Z</time></trkpt><trkpt lat="42.13627531824629" lon="13.292107321929173"><ele>905.4999999999999</ele><time>2026-05-02T14:07:41.001Z</time></trkpt><trkpt lat="42.136288753178746" lon="13.292013118116868"><ele>904.0</ele><time>2026-05-02T14:07:42.001Z</time></trkpt><trkpt lat="42.136297488736375" lon="13.29189308199165"><ele>902.5</ele><time>2026-05-02T14:07:43.001Z</time></trkpt><trkpt lat="42.13630628574137" lon="13.29176941250511"><ele>901.0</ele><time>2026-05-02T14:07:44.001Z</time></trkpt><trkpt lat="42.136303983108284" lon="13.29166638168616"><ele>899.4999999999999</ele><time>2026-05-02T14:07:45.001Z</time></trkpt><trkpt lat="42.13629517623194" lon="13.291581972364956"><ele>898.0</ele><time>2026-05-02T14:07:46.001Z</time></trkpt><trkpt lat="42.13629976234048" lon="13.291496581609286"><ele>895.8333333333333</ele><time>2026-05-02T14:07:48.001Z</time></trkpt><trkpt lat="42.13634987194068" lon="13.29142025915097"><ele>893.6666666666666</ele><time>2026-05-02T14:07:50.001Z</time></trkpt><trkpt lat="42.13644865904971" lon="13.29134481047971"><ele>891.5</ele><time>2026-05-02T14:07:52.001Z</time></trkpt><trkpt lat="42.1364848891917" lon="13.291261486115129"><ele>889.3333333333333</ele><time>2026-05-02T14:07:53Z</time></trkpt><trkpt lat="42.136502101805355" lon="13.291162706627802"><ele>887.1666666666666</ele><time>2026-05-02T14:07:54Z</time></trkpt><trkpt lat="42.13650434097971" lon="13.291071835698402"><ele>885.0</ele><time>2026-05-02T14:07:55Z</time></trkpt><trkpt lat="42.13651775318869" lon="13.290928698602857"><ele>886.4</ele><time>2026-05-02T14:07:57Z</time></trkpt><trkpt lat="42.13656966612012" lon="13.290814859933255"><ele>887.8</ele><time>2026-05-02T14:07:59Z</time></trkpt><trkpt lat="42.13665475214912" lon="13.290751037955749"><ele>889.2</ele><time>2026-05-02T14:08:01Z</time></trkpt><trkpt lat="42.13678752124867" lon="13.290737046123548"><ele>890.6</ele><time>2026-05-02T14:08:03Z</time></trkpt><trkpt lat="42.13687709382434" lon="13.290732853342734"><ele>892.0</ele><time>2026-05-02T14:08:04Z</time></trkpt><trkpt lat="42.1369636905919" lon="13.29073468892879"><ele>891.9999999999999</ele><time>2026-05-02T14:08:05Z</time></trkpt><trkpt lat="42.137044881768894" lon="13.290735566067687"><ele>892.0</ele><time>2026-05-02T14:08:06Z</time></trkpt><trkpt lat="42.137119932903786" lon="13.290728044868295"><ele>892.0</ele><time>2026-05-02T14:08:07Z</time></trkpt><trkpt lat="42.13720991727176" lon="13.290712303585074"><ele>892.0</ele><time>2026-05-02T14:08:09Z</time></trkpt><trkpt lat="42.13724202988624" lon="13.29062690018308"><ele>891.9999999999999</ele><time>2026-05-02T14:08:11Z</time></trkpt><trkpt lat="42.13720424623589" lon="13.29052441563874"><ele>892.0</ele><time>2026-05-02T14:08:13Z</time></trkpt><trkpt lat="42.137096726125954" lon="13.290459397691123"><ele>889.4999999999999</ele><time>2026-05-02T14:08:15Z</time></trkpt><trkpt lat="42.1370213824503" lon="13.290440839567667"><ele>887.0</ele><time>2026-05-02T14:08:16Z</time></trkpt><trkpt lat="42.13695094494461" lon="13.290410105037878"><ele>884.5</ele><time>2026-05-02T14:08:17Z</time></trkpt><trkpt lat="42.136853182840376" lon="13.290373164422963"><ele>882.0</ele><time>2026-05-02T14:08:19Z</time></trkpt><trkpt lat="42.13682793485809" lon="13.290279023379984"><ele>879.4999999999999</ele><time>2026-05-02T14:08:21Z</time></trkpt><trkpt lat="42.13689126010843" lon="13.29017861325272"><ele>877.0</ele><time>2026-05-02T14:08:23Z</time></trkpt><trkpt lat="42.13697993742222" lon="13.290058737792679"><ele>876.9999999999999</ele><time>2026-05-02T14:08:25Z</time></trkpt><trkpt lat="42.137026851058614" lon="13.289990793714884"><ele>877.0</ele><time>2026-05-02T14:08:26Z</time></trkpt><trkpt lat="42.137072227538454" lon="13.289924960928378"><ele>877.0</ele><time>2026-05-02T14:08:27Z</time></trkpt><trkpt lat="42.13714387146798" lon="13.289781157583912"><ele>877.0</ele><time>2026-05-02T14:08:29Z</time></trkpt><trkpt lat="42.137165606055234" lon="13.289696089542877"><ele>876.9999999999999</ele><time>2026-05-02T14:08:30Z</time></trkpt><trkpt lat="42.137185680510576" lon="13.289546960632451"><ele>877.0</ele><time>2026-05-02T14:08:32Z</time></trkpt><trkpt lat="42.137180862683216" lon="13.289431938581203"><ele>874.2</ele><time>2026-05-02T14:08:34Z</time></trkpt><trkpt lat="42.13712227004567" lon="13.2893302880963"><ele>871.4000000000001</ele><time>2026-05-02T14:08:36Z</time></trkpt><trkpt lat="42.13707215569573" lon="13.289215839396942"><ele>868.5999999999999</ele><time>2026-05-02T14:08:38Z</time></trkpt><trkpt lat="42.13707970671463" lon="13.289107724961214"><ele>865.8</ele><time>2026-05-02T14:08:40Z</time></trkpt><trkpt lat="42.1371425669872" lon="13.289025420705398"><ele>863.0</ele><time>2026-05-02T14:08:42Z</time></trkpt><trkpt lat="42.13722907166453" lon="13.288950615574604"><ele>861.6666666666667</ele><time>2026-05-02T14:08:44Z</time></trkpt><trkpt lat="42.137206988052604" lon="13.28881757056214"><ele>860.3333333333334</ele><time>2026-05-02T14:08:46Z</time></trkpt><trkpt lat="42.13716472760573" lon="13.288730567651154"><ele>859.0</ele><time>2026-05-02T14:08:47Z</time></trkpt><trkpt lat="42.1371226395742" lon="13.288633429697558"><ele>857.6666666666667</ele><time>2026-05-02T14:08:48Z</time></trkpt><trkpt lat="42.13709389528951" lon="13.288522612196502"><ele>856.3333333333334</ele><time>2026-05-02T14:08:49Z</time></trkpt><trkpt lat="42.137069665291804" lon="13.288397358549053"><ele>855.0</ele><time>2026-05-02T14:08:50Z</time></trkpt><trkpt lat="42.13704545028717" lon="13.288285818255542"><ele>855.0</ele><time>2026-05-02T14:08:51Z</time></trkpt><trkpt lat="42.13702473170504" lon="13.288200416736414"><ele>855.0</ele><time>2026-05-02T14:08:52Z</time></trkpt><trkpt lat="42.13703977634625" lon="13.288056714995093"><ele>855.0</ele><time>2026-05-02T14:08:54Z</time></trkpt><trkpt lat="42.137108872527314" lon="13.288008804708106"><ele>855.0</ele><time>2026-05-02T14:08:56Z</time></trkpt><trkpt lat="42.13717879077228" lon="13.288059990260463"><ele>855.0</ele><time>2026-05-02T14:08:58Z</time></trkpt><trkpt lat="42.137227525181984" lon="13.288176628358375"><ele>855.0</ele><time>2026-05-02T14:09:00Z</time></trkpt><trkpt lat="42.13729728183847" lon="13.288251780361854"><ele>855.4</ele><time>2026-05-02T14:09:02Z</time></trkpt><trkpt lat="42.13740685728969" lon="13.288337650761074"><ele>855.8</ele><time>2026-05-02T14:09:04Z</time></trkpt><trkpt lat="42.137468502889845" lon="13.288381696586567"><ele>856.2</ele><time>2026-05-02T14:09:05Z</time></trkpt><trkpt lat="42.137583219018516" lon="13.288463720542508"><ele>856.6</ele><time>2026-05-02T14:09:07Z</time></trkpt><trkpt lat="42.13764923100172" lon="13.28852140301529"><ele>857.0</ele><time>2026-05-02T14:09:08Z</time></trkpt><trkpt lat="42.137713608125004" lon="13.288567978117568"><ele>857.0</ele><time>2026-05-02T14:09:09Z</time></trkpt><trkpt lat="42.13778105124919" lon="13.288587976431417"><ele>857.0</ele><time>2026-05-02T14:09:10Z</time></trkpt><trkpt lat="42.137876003525506" lon="13.28853469876113"><ele>857.0</ele><time>2026-05-02T14:09:12Z</time></trkpt><trkpt lat="42.137913715145146" lon="13.288390491940936"><ele>857.0</ele><time>2026-05-02T14:09:14Z</time></trkpt><trkpt lat="42.13788960951232" lon="13.288231122707069"><ele>857.0</ele><time>2026-05-02T14:09:16Z</time></trkpt><trkpt lat="42.13787458127297" lon="13.288130630172814"><ele>855.6666666666667</ele><time>2026-05-02T14:09:17Z</time></trkpt><trkpt lat="42.13785785144051" lon="13.288029650612103"><ele>854.3333333333334</ele><time>2026-05-02T14:09:18Z</time></trkpt><trkpt lat="42.13783780638701" lon="13.287932958573508"><ele>853.0</ele><time>2026-05-02T14:09:19Z</time></trkpt><trkpt lat="42.13781889479433" lon="13.287831184287887"><ele>851.6666666666667</ele><time>2026-05-02T14:09:20Z</time></trkpt><trkpt lat="42.137794990931134" lon="13.287729893033369"><ele>850.3333333333334</ele><time>2026-05-02T14:09:21Z</time></trkpt><trkpt lat="42.13777278680857" lon="13.287624325898914"><ele>849.0</ele><time>2026-05-02T14:09:22Z</time></trkpt><trkpt lat="42.13775648670688" lon="13.287514413875263"><ele>849.0</ele><time>2026-05-02T14:09:23Z</time></trkpt><trkpt lat="42.13774329112566" lon="13.287415464753748"><ele>849.0</ele><time>2026-05-02T14:09:24Z</time></trkpt><trkpt lat="42.13773345959109" lon="13.287313973877675"><ele>849.0</ele><time>2026-05-02T14:09:25Z</time></trkpt><trkpt lat="42.1377205837004" lon="13.287210472930692"><ele>849.0</ele><time>2026-05-02T14:09:26Z</time></trkpt><trkpt lat="42.13771127004037" lon="13.28711220122383"><ele>849.0</ele><time>2026-05-02T14:09:27Z</time></trkpt><trkpt lat="42.13770695228373" lon="13.287025748615703"><ele>849.0</ele><time>2026-05-02T14:09:28Z</time></trkpt><trkpt lat="42.13770263087815" lon="13.286869803889706"><ele>847.4000000000001</ele><time>2026-05-02T14:09:30Z</time></trkpt><trkpt lat="42.13768747814586" lon="13.286724197958012"><ele>845.8</ele><time>2026-05-02T14:09:32Z</time></trkpt><trkpt lat="42.1376765928652" lon="13.286620051881995"><ele>844.2</ele><time>2026-05-02T14:09:33Z</time></trkpt><trkpt lat="42.13767387553747" lon="13.286494727043932"><ele>842.5999999999999</ele><time>2026-05-02T14:09:34Z</time></trkpt><trkpt lat="42.13766472734817" lon="13.286369514424827"><ele>841.0</ele><time>2026-05-02T14:09:35Z</time></trkpt><trkpt lat="42.13765286286167" lon="13.286260422613488"><ele>840.6666666666666</ele><time>2026-05-02T14:09:36Z</time></trkpt><trkpt lat="42.1376407878604" lon="13.286159476488908"><ele>840.3333333333333</ele><time>2026-05-02T14:09:37Z</time></trkpt><trkpt lat="42.13762461058961" lon="13.28607585550443"><ele>840.0</ele><time>2026-05-02T14:09:38Z</time></trkpt><trkpt lat="42.137584787273475" lon="13.285928726871534"><ele>839.6666666666667</ele><time>2026-05-02T14:09:40Z</time></trkpt><trkpt lat="42.13759268045497" lon="13.285806010930752"><ele>839.3333333333334</ele><time>2026-05-02T14:09:42Z</time></trkpt><trkpt lat="42.1376488660345" lon="13.285718880940072"><ele>839.0</ele><time>2026-05-02T14:09:45Z</time></trkpt><trkpt lat="42.137722204652654" lon="13.285726551008487"><ele>839.0</ele><time>2026-05-02T14:09:47Z</time></trkpt><trkpt lat="42.13779048550525" lon="13.285747498959655"><ele>839.0</ele><time>2026-05-02T14:09:48Z</time></trkpt><trkpt lat="42.13788438233259" lon="13.285778025035727"><ele>839.0</ele><time>2026-05-02T14:09:49Z</time></trkpt><trkpt lat="42.137995449018035" lon="13.285803250642868"><ele>839.0</ele><time>2026-05-02T14:09:50Z</time></trkpt><trkpt lat="42.13809487063947" lon="13.285824431456465"><ele>839.0</ele><time>2026-05-02T14:09:51Z</time></trkpt><trkpt lat="42.1381825419767" lon="13.28584911092925"><ele>839.1666666666667</ele><time>2026-05-02T14:09:52Z</time></trkpt><trkpt lat="42.138280310234705" lon="13.285893504185482"><ele>839.3333333333334</ele><time>2026-05-02T14:09:54Z</time></trkpt><trkpt lat="42.13835450983877" lon="13.285932592852317"><ele>839.5</ele><time>2026-05-02T14:10:03Z</time></trkpt><trkpt lat="42.13843903775748" lon="13.285883634180003"><ele>839.6666666666667</ele><time>2026-05-02T14:10:05Z</time></trkpt><trkpt lat="42.13852930075585" lon="13.285880362756519"><ele>839.8333333333334</ele><time>2026-05-02T14:10:07Z</time></trkpt><trkpt lat="42.13860497592739" lon="13.285879061006687"><ele>840.0</ele><time>2026-05-02T14:10:09Z</time></trkpt><trkpt lat="42.13867451586809" lon="13.28587419291935"><ele>840.0</ele><time>2026-05-02T14:10:11Z</time></trkpt><trkpt lat="42.138804948834085" lon="13.285848816876227"><ele>840.0</ele><time>2026-05-02T14:10:13Z</time></trkpt><trkpt lat="42.13891145912862" lon="13.285884907240098"><ele>840.0</ele><time>2026-05-02T14:10:15Z</time></trkpt><trkpt lat="42.13901147524333" lon="13.285917739344034"><ele>840.0</ele><time>2026-05-02T14:10:17Z</time></trkpt><trkpt lat="42.139126491494515" lon="13.285915090302227"><ele>839.5</ele><time>2026-05-02T14:10:19Z</time></trkpt><trkpt lat="42.139197786838" lon="13.285911637337973"><ele>839.0</ele><time>2026-05-02T14:10:20Z</time></trkpt><trkpt lat="42.13927375399058" lon="13.285904628106067"><ele>838.5</ele><time>2026-05-02T14:10:21Z</time></trkpt><trkpt lat="42.13935897722306" lon="13.285897954707272"><ele>838.0</ele><time>2026-05-02T14:10:22Z</time></trkpt><trkpt lat="42.139432403979335" lon="13.285900904561894"><ele>837.5</ele><time>2026-05-02T14:10:23Z</time></trkpt><trkpt lat="42.13950386706226" lon="13.285914405078579"><ele>837.0</ele><time>2026-05-02T14:10:24Z</time></trkpt><trkpt lat="42.13957827869676" lon="13.285927830732922"><ele>837.0</ele><time>2026-05-02T14:10:25Z</time></trkpt><trkpt lat="42.139654550732985" lon="13.285930172328005"><ele>837.0</ele><time>2026-05-02T14:10:26Z</time></trkpt><trkpt lat="42.13973036704303" lon="13.285917788060164"><ele>837.0</ele><time>2026-05-02T14:10:27Z</time></trkpt><trkpt lat="42.139802280323984" lon="13.28591113194453"><ele>837.0</ele><time>2026-05-02T14:10:28Z</time></trkpt><trkpt lat="42.13986838699682" lon="13.285911943508415"><ele>837.0</ele><time>2026-05-02T14:10:29Z</time></trkpt><trkpt lat="42.139948448618725" lon="13.285912896404074"><ele>837.0</ele><time>2026-05-02T14:10:30Z</time></trkpt><trkpt lat="42.140029610844614" lon="13.285918883255984"><ele>835.3333333333334</ele><time>2026-05-02T14:10:31Z</time></trkpt><trkpt lat="42.14010640796075" lon="13.285933927648731"><ele>833.6666666666667</ele><time>2026-05-02T14:10:32Z</time></trkpt><trkpt lat="42.14018034848154" lon="13.285949867501778"><ele>832.0</ele><time>2026-05-02T14:10:33Z</time></trkpt><trkpt lat="42.140272866462" lon="13.285958615442885"><ele>830.3333333333334</ele><time>2026-05-02T14:10:34Z</time></trkpt><trkpt lat="42.14035503075108" lon="13.285965247683329"><ele>828.6666666666667</ele><time>2026-05-02T14:10:35Z</time></trkpt><trkpt lat="42.14042210658994" lon="13.28598196546604"><ele>827.0</ele><time>2026-05-02T14:10:36Z</time></trkpt><trkpt lat="42.14048705510359" lon="13.285994934089887"><ele>827.0000000000001</ele><time>2026-05-02T14:10:37Z</time></trkpt><trkpt lat="42.14054964054627" lon="13.28600482001304"><ele>827.0</ele><time>2026-05-02T14:10:38Z</time></trkpt><trkpt lat="42.1406511967634" lon="13.28601762537175"><ele>827.0</ele><time>2026-05-02T14:10:40Z</time></trkpt><trkpt lat="42.14074671587848" lon="13.286007900318785"><ele>827.0</ele><time>2026-05-02T14:10:42Z</time></trkpt><trkpt lat="42.14083402051387" lon="13.285978887287305"><ele>827.0000000000001</ele><time>2026-05-02T14:10:44Z</time></trkpt><trkpt lat="42.14091767992614" lon="13.285959484080314"><ele>827.0</ele><time>2026-05-02T14:10:46Z</time></trkpt><trkpt lat="42.14100685314365" lon="13.286011533920892"><ele>825.0</ele><time>2026-05-02T14:10:48Z</time></trkpt><trkpt lat="42.141085556444416" lon="13.28609598450486"><ele>823.0</ele><time>2026-05-02T14:10:50Z</time></trkpt><trkpt lat="42.14120297033963" lon="13.286131153364579"><ele>821.0</ele><time>2026-05-02T14:10:52Z</time></trkpt><trkpt lat="42.14130883466876" lon="13.286104367599304"><ele>819.0</ele><time>2026-05-02T14:10:54Z</time></trkpt><trkpt lat="42.141422318343416" lon="13.286023251511692"><ele>815.0</ele><time>2026-05-02T14:10:56Z</time></trkpt><trkpt lat="42.14155892536495" lon="13.285971004289996"><ele>811.0</ele><time>2026-05-02T14:10:58Z</time></trkpt><trkpt lat="42.14163850445371" lon="13.285955305216099"><ele>807.0</ele><time>2026-05-02T14:10:59Z</time></trkpt><trkpt lat="42.14171959988729" lon="13.285958154717273"><ele>803.0</ele><time>2026-05-02T14:11:00Z</time></trkpt><trkpt lat="42.141801779058696" lon="13.285969303315488"><ele>799.0</ele><time>2026-05-02T14:11:01Z</time></trkpt><trkpt lat="42.14189441532679" lon="13.285982860310941"><ele>798.9999999999999</ele><time>2026-05-02T14:11:02Z</time></trkpt><trkpt lat="42.141978279826276" lon="13.285984025660841"><ele>799.0</ele><time>2026-05-02T14:11:03Z</time></trkpt><trkpt lat="42.14204244946596" lon="13.285982393801538"><ele>799.0</ele><time>2026-05-02T14:11:04Z</time></trkpt><trkpt lat="42.14215607600654" lon="13.285990649793751"><ele>799.0</ele><time>2026-05-02T14:11:06Z</time></trkpt><trkpt lat="42.142248145750024" lon="13.28599590162066"><ele>798.9999999999999</ele><time>2026-05-02T14:11:08Z</time></trkpt><trkpt lat="42.142321031794204" lon="13.285968251057055"><ele>799.0</ele><time>2026-05-02T14:11:10Z</time></trkpt><trkpt lat="42.142400850254575" lon="13.285911586541538"><ele>795.6666666666666</ele><time>2026-05-02T14:11:13Z</time></trkpt><trkpt lat="42.14246776817828" lon="13.285934930381204"><ele>792.3333333333333</ele><time>2026-05-02T14:11:15Z</time></trkpt><trkpt lat="42.142513742022494" lon="13.286003763566546"><ele>789.0</ele><time>2026-05-02T14:11:17Z</time></trkpt><trkpt lat="42.14254190267204" lon="13.286106892152752"><ele>785.6666666666667</ele><time>2026-05-02T14:11:19Z</time></trkpt><trkpt lat="42.14259828844134" lon="13.28621393211242"><ele>782.3333333333334</ele><time>2026-05-02T14:11:21Z</time></trkpt><trkpt lat="42.14270272684557" lon="13.286304278867735"><ele>779.0</ele><time>2026-05-02T14:11:23Z</time></trkpt><trkpt lat="42.14280911267359" lon="13.286365149863686"><ele>779.0</ele><time>2026-05-02T14:11:25Z</time></trkpt><trkpt lat="42.14291605079206" lon="13.286421524134811"><ele>779.0</ele><time>2026-05-02T14:11:27Z</time></trkpt><trkpt lat="42.143009786877826" lon="13.286528502584542"><ele>779.0</ele><time>2026-05-02T14:11:29Z</time></trkpt><trkpt lat="42.143054973695484" lon="13.28660725964541"><ele>779.0</ele><time>2026-05-02T14:11:30Z</time></trkpt><trkpt lat="42.14309730535784" lon="13.28669123126143"><ele>779.0</ele><time>2026-05-02T14:11:31Z</time></trkpt><trkpt lat="42.143138881349856" lon="13.286773833574019"><ele>779.4285714285714</ele><time>2026-05-02T14:11:32Z</time></trkpt><trkpt lat="42.14317532444805" lon="13.286856963764919"><ele>779.8571428571429</ele><time>2026-05-02T14:11:33Z</time></trkpt><trkpt lat="42.143205704837236" lon="13.286947654805715"><ele>780.2857142857142</ele><time>2026-05-02T14:11:34Z</time></trkpt><trkpt lat="42.14323205217115" lon="13.287041210187674"><ele>780.7142857142858</ele><time>2026-05-02T14:11:35Z</time></trkpt><trkpt lat="42.143249157423554" lon="13.287125285013435"><ele>781.1428571428571</ele><time>2026-05-02T14:11:36Z</time></trkpt><trkpt lat="42.14326503426679" lon="13.287214166064805"><ele>781.5714285714286</ele><time>2026-05-02T14:11:37Z</time></trkpt><trkpt lat="42.14326683824699" lon="13.287312711433323"><ele>782.0</ele><time>2026-05-02T14:11:38Z</time></trkpt><trkpt lat="42.14326204868043" lon="13.287431949678057"><ele>782.0</ele><time>2026-05-02T14:11:39Z</time></trkpt><trkpt lat="42.143258665839085" lon="13.287545302132667"><ele>782.0</ele><time>2026-05-02T14:11:40Z</time></trkpt><trkpt lat="42.143274691603466" lon="13.287682548950492"><ele>782.0</ele><time>2026-05-02T14:11:42Z</time></trkpt><trkpt lat="42.14335523506152" lon="13.28776529718943"><ele>782.0</ele><time>2026-05-02T14:11:44Z</time></trkpt><trkpt lat="42.14344128475569" lon="13.28779391902112"><ele>782.0</ele><time>2026-05-02T14:11:46Z</time></trkpt><trkpt lat="42.143542046736584" lon="13.287841347143234"><ele>782.0000000000001</ele><time>2026-05-02T14:11:48Z</time></trkpt><trkpt lat="42.14360346337083" lon="13.287865722680031"><ele>782.0</ele><time>2026-05-02T14:11:49Z</time></trkpt><trkpt lat="42.14371207317777" lon="13.287831634805984"><ele>782.0</ele><time>2026-05-02T14:11:51Z</time></trkpt><trkpt lat="42.143758839163624" lon="13.28777223525999"><ele>782.0</ele><time>2026-05-02T14:11:52Z</time></trkpt><trkpt lat="42.143794816935255" lon="13.28769055160743"><ele>782.0000000000001</ele><time>2026-05-02T14:11:53Z</time></trkpt><trkpt lat="42.14383073402329" lon="13.28761813117748"><ele>782.0</ele><time>2026-05-02T14:11:54Z</time></trkpt><trkpt lat="42.143915239917995" lon="13.287506220266204"><ele>782.0000000000001</ele><time>2026-05-02T14:11:56Z</time></trkpt><trkpt lat="42.143971724040185" lon="13.28745936761331"><ele>782.0</ele><time>2026-05-02T14:11:57Z</time></trkpt><trkpt lat="42.144034202204786" lon="13.287424184821806"><ele>782.0</ele><time>2026-05-02T14:11:58Z</time></trkpt><trkpt lat="42.14410207617547" lon="13.287410489669583"><ele>782.0</ele><time>2026-05-02T14:11:59Z</time></trkpt><trkpt lat="42.14416537555384" lon="13.287393540316279"><ele>782.0000000000001</ele><time>2026-05-02T14:12:00Z</time></trkpt><trkpt lat="42.14429796301387" lon="13.287400737675803"><ele>782.0</ele><time>2026-05-02T14:12:02Z</time></trkpt><trkpt lat="42.144365655713266" lon="13.287390733023276"><ele>783.0000000000001</ele><time>2026-05-02T14:12:03Z</time></trkpt><trkpt lat="42.14443885433077" lon="13.287403475964704"><ele>784.0</ele><time>2026-05-02T14:12:04Z</time></trkpt><trkpt lat="42.144562422307786" lon="13.287386546706436"><ele>785.0</ele><time>2026-05-02T14:12:06Z</time></trkpt><trkpt lat="42.144633435850295" lon="13.287381501150103"><ele>786.0</ele><time>2026-05-02T14:12:07Z</time></trkpt><trkpt lat="42.14470166366294" lon="13.287361076644572"><ele>787.0000000000001</ele><time>2026-05-02T14:12:08Z</time></trkpt><trkpt lat="42.14477261489678" lon="13.28738727053811"><ele>788.0</ele><time>2026-05-02T14:12:09Z</time></trkpt><trkpt lat="42.144882822744485" lon="13.287430611942856"><ele>790.0</ele><time>2026-05-02T14:12:11Z</time></trkpt><trkpt lat="42.14505842091107" lon="13.287488414318595"><ele>792.0</ele><time>2026-05-02T14:12:14Z</time></trkpt><trkpt lat="42.145046234744704" lon="13.28759031288113"><ele>794.0</ele><time>2026-05-02T14:12:15Z</time></trkpt><trkpt lat="42.14507141377547" lon="13.287717391860856"><ele>796.0</ele><time>2026-05-02T14:12:17Z</time></trkpt><trkpt lat="42.14505060110424" lon="13.287866637364823"><ele>796.0</ele><time>2026-05-02T14:12:19Z</time></trkpt><trkpt lat="42.145028335878216" lon="13.287975393452143"><ele>796.0</ele><time>2026-05-02T14:12:20Z</time></trkpt><trkpt lat="42.14500989602837" lon="13.28810943216173"><ele>796.0</ele><time>2026-05-02T14:12:21Z</time></trkpt><trkpt lat="42.144998841955385" lon="13.288231773878472"><ele>796.0</ele><time>2026-05-02T14:12:22Z</time></trkpt><trkpt lat="42.14498528424751" lon="13.28837323804675"><ele>796.0</ele><time>2026-05-02T14:12:23Z</time></trkpt><trkpt lat="42.144977246668596" lon="13.288524608361298"><ele>796.1999999999999</ele><time>2026-05-02T14:12:24Z</time></trkpt><trkpt lat="42.144971619701415" lon="13.288660989426488"><ele>796.4</ele><time>2026-05-02T14:12:25Z</time></trkpt><trkpt lat="42.14494382546811" lon="13.288771150534647"><ele>796.6</ele><time>2026-05-02T14:12:26Z</time></trkpt><trkpt lat="42.14494085461273" lon="13.288882669910391"><ele>796.8</ele><time>2026-05-02T14:12:27Z</time></trkpt><trkpt lat="42.144939286938516" lon="13.28900489624319"><ele>797.0</ele><time>2026-05-02T14:12:28Z</time></trkpt><trkpt lat="42.14495228969765" lon="13.289131271490792"><ele>797.1666666666667</ele><time>2026-05-02T14:12:29Z</time></trkpt><trkpt lat="42.144958646942804" lon="13.289247530328463"><ele>797.3333333333334</ele><time>2026-05-02T14:12:30Z</time></trkpt><trkpt lat="42.14495010575464" lon="13.289360805655823"><ele>797.5</ele><time>2026-05-02T14:12:31Z</time></trkpt><trkpt lat="42.1449598239762" lon="13.289472099587735"><ele>797.6666666666667</ele><time>2026-05-02T14:12:32Z</time></trkpt><trkpt lat="42.1449861094286" lon="13.289565538611107"><ele>797.8333333333334</ele><time>2026-05-02T14:12:33Z</time></trkpt><trkpt lat="42.144994645403166" lon="13.289671384096104"><ele>798.0</ele><time>2026-05-02T14:12:34Z</time></trkpt><trkpt lat="42.145015586348194" lon="13.289770846109167"><ele>798.0</ele><time>2026-05-02T14:12:35Z</time></trkpt><trkpt lat="42.14503876393374" lon="13.28987610307215"><ele>798.0</ele><time>2026-05-02T14:12:36Z</time></trkpt><trkpt lat="42.145072817743895" lon="13.289972269989232"><ele>798.0</ele><time>2026-05-02T14:12:37Z</time></trkpt><trkpt lat="42.14511602877435" lon="13.290079618949498"><ele>798.0</ele><time>2026-05-02T14:12:38Z</time></trkpt><trkpt lat="42.145161068946365" lon="13.290171743932813"><ele>798.0</ele><time>2026-05-02T14:12:39Z</time></trkpt><trkpt lat="42.145212981096904" lon="13.290268398660789"><ele>798.0</ele><time>2026-05-02T14:12:40Z</time></trkpt><trkpt lat="42.14526977546332" lon="13.290362008254005"><ele>798.0</ele><time>2026-05-02T14:12:41Z</time></trkpt><trkpt lat="42.14533051042503" lon="13.29045107101863"><ele>798.0</ele><time>2026-05-02T14:12:42Z</time></trkpt><trkpt lat="42.14540154371212" lon="13.29052976388371"><ele>798.0</ele><time>2026-05-02T14:12:43Z</time></trkpt><trkpt lat="42.14547525724445" lon="13.290599982063023"><ele>798.0</ele><time>2026-05-02T14:12:44Z</time></trkpt><trkpt lat="42.14556007472464" lon="13.290664208145476"><ele>798.0</ele><time>2026-05-02T14:12:45Z</time></trkpt><trkpt lat="42.145626551390194" lon="13.290743330555268"><ele>798.8333333333334</ele><time>2026-05-02T14:12:46Z</time></trkpt><trkpt lat="42.14570649491002" lon="13.290811283358352"><ele>799.6666666666667</ele><time>2026-05-02T14:12:47Z</time></trkpt><trkpt lat="42.145788149488176" lon="13.290871306560113"><ele>800.5</ele><time>2026-05-02T14:12:48Z</time></trkpt><trkpt lat="42.145852024708596" lon="13.290953828277761"><ele>801.3333333333334</ele><time>2026-05-02T14:12:49Z</time></trkpt><trkpt lat="42.14592475707416" lon="13.29102416312616"><ele>802.1666666666667</ele><time>2026-05-02T14:12:50Z</time></trkpt><trkpt lat="42.145996645987395" lon="13.291073962202784"><ele>803.0</ele><time>2026-05-02T14:12:51Z</time></trkpt><trkpt lat="42.14608018452848" lon="13.291162210286274"><ele>801.2</ele><time>2026-05-02T14:12:53Z</time></trkpt><trkpt lat="42.146123378270275" lon="13.291225185669832"><ele>799.4</ele><time>2026-05-02T14:12:55Z</time></trkpt><trkpt lat="42.146195534265495" lon="13.29135258445301"><ele>797.6</ele><time>2026-05-02T14:12:57Z</time></trkpt><trkpt lat="42.14626974129197" lon="13.291430572564648"><ele>795.8000000000001</ele><time>2026-05-02T14:12:58Z</time></trkpt><trkpt lat="42.146345437931906" lon="13.29151554450362"><ele>794.0</ele><time>2026-05-02T14:12:59Z</time></trkpt><trkpt lat="42.14641694285038" lon="13.291598198867929"><ele>794.0000000000001</ele><time>2026-05-02T14:13:00Z</time></trkpt><trkpt lat="42.14648339423653" lon="13.291685898177485"><ele>794.0</ele><time>2026-05-02T14:13:01Z</time></trkpt><trkpt lat="42.14654246306246" lon="13.291765303871165"><ele>794.0</ele><time>2026-05-02T14:13:02Z</time></trkpt><trkpt lat="42.14660288612121" lon="13.291832462716307"><ele>794.0</ele><time>2026-05-02T14:13:03Z</time></trkpt><trkpt lat="42.14664867556345" lon="13.29189160201071"><ele>794.0000000000001</ele><time>2026-05-02T14:13:04Z</time></trkpt><trkpt lat="42.14673762821367" lon="13.29193930847098"><ele>794.0</ele><time>2026-05-02T14:13:06Z</time></trkpt><trkpt lat="42.14681923164184" lon="13.291853431911242"><ele>790.5</ele><time>2026-05-02T14:13:08Z</time></trkpt><trkpt lat="42.146904379206866" lon="13.2917375986383"><ele>787.0</ele><time>2026-05-02T14:13:10Z</time></trkpt><trkpt lat="42.14699757574051" lon="13.29163006431948"><ele>783.5</ele><time>2026-05-02T14:13:12Z</time></trkpt><trkpt lat="42.1470935477661" lon="13.291557165107568"><ele>780.0</ele><time>2026-05-02T14:13:14Z</time></trkpt><trkpt lat="42.14719921234267" lon="13.291538274950394"><ele>780.0</ele><time>2026-05-02T14:13:16Z</time></trkpt><trkpt lat="42.147318572685634" lon="13.291539569908904"><ele>780.0</ele><time>2026-05-02T14:13:18Z</time></trkpt><trkpt lat="42.14743730843761" lon="13.291567307474317"><ele>780.0</ele><time>2026-05-02T14:13:20Z</time></trkpt><trkpt lat="42.14750673150583" lon="13.291636467668724"><ele>780.0</ele><time>2026-05-02T14:13:22Z</time></trkpt><trkpt lat="42.14760299049366" lon="13.291515437068702"><ele>774.2</ele><time>2026-05-02T14:13:27Z</time></trkpt><trkpt lat="42.1475403669881" lon="13.291388808783985"><ele>768.4</ele><time>2026-05-02T14:13:29Z</time></trkpt><trkpt lat="42.14746813856664" lon="13.291289187311266"><ele>762.5999999999999</ele><time>2026-05-02T14:13:31Z</time></trkpt><trkpt lat="42.14741019712054" lon="13.291172979824417"><ele>756.8</ele><time>2026-05-02T14:13:33Z</time></trkpt><trkpt lat="42.14740954850349" lon="13.291066647457082"><ele>751.0</ele><time>2026-05-02T14:13:35Z</time></trkpt><trkpt lat="42.14744072812637" lon="13.290964109943658"><ele>751.0</ele><time>2026-05-02T14:13:37Z</time></trkpt><trkpt lat="42.14748311788076" lon="13.29090056293699"><ele>751.0</ele><time>2026-05-02T14:13:38Z</time></trkpt><trkpt lat="42.14753434066965" lon="13.29080981335298"><ele>751.0</ele><time>2026-05-02T14:13:39Z</time></trkpt><trkpt lat="42.14758027173701" lon="13.290717100667795"><ele>751.0</ele><time>2026-05-02T14:13:40Z</time></trkpt><trkpt lat="42.14761968253128" lon="13.290625813547486"><ele>751.0</ele><time>2026-05-02T14:13:41Z</time></trkpt><trkpt lat="42.14765580562797" lon="13.290542870667078"><ele>751.0</ele><time>2026-05-02T14:13:42Z</time></trkpt><trkpt lat="42.1477536561026" lon="13.290424088378286"><ele>751.4</ele><time>2026-05-02T14:13:44Z</time></trkpt><trkpt lat="42.14781345231273" lon="13.29037503160527"><ele>751.8</ele><time>2026-05-02T14:13:45Z</time></trkpt><trkpt lat="42.14789020316194" lon="13.290322005526928"><ele>752.1999999999999</ele><time>2026-05-02T14:13:46Z</time></trkpt><trkpt lat="42.14798672483054" lon="13.290266862716003"><ele>752.5999999999999</ele><time>2026-05-02T14:13:47Z</time></trkpt><trkpt lat="42.14809198783083" lon="13.290204187342818"><ele>753.0</ele><time>2026-05-02T14:13:48Z</time></trkpt><trkpt lat="42.1481921311571" lon="13.29014523198405"><ele>750.2</ele><time>2026-05-02T14:13:49Z</time></trkpt><trkpt lat="42.148285830633526" lon="13.29008337506539"><ele>747.4</ele><time>2026-05-02T14:13:50Z</time></trkpt><trkpt lat="42.14837489409292" lon="13.29002235017649"><ele>744.6</ele><time>2026-05-02T14:13:51Z</time></trkpt><trkpt lat="42.148461548520466" lon="13.289951155264735"><ele>741.8000000000001</ele><time>2026-05-02T14:13:52Z</time></trkpt><trkpt lat="42.148545141468894" lon="13.289880849875397"><ele>739.0</ele><time>2026-05-02T14:13:53Z</time></trkpt><trkpt lat="42.14862765342984" lon="13.289815017253028"><ele>739.2</ele><time>2026-05-02T14:13:54Z</time></trkpt><trkpt lat="42.148717115603766" lon="13.289748712290763"><ele>739.4000000000001</ele><time>2026-05-02T14:13:55Z</time></trkpt><trkpt lat="42.14881002963375" lon="13.289678950153206"><ele>739.6</ele><time>2026-05-02T14:13:56Z</time></trkpt><trkpt lat="42.1489063432692" lon="13.289605806867273"><ele>739.8</ele><time>2026-05-02T14:13:57Z</time></trkpt><trkpt lat="42.14899108113571" lon="13.289521776564376"><ele>740.0</ele><time>2026-05-02T14:13:58Z</time></trkpt><trkpt lat="42.149057929096635" lon="13.289445982593051"><ele>740.0</ele><time>2026-05-02T14:13:59Z</time></trkpt><trkpt lat="42.14911308039918" lon="13.289356363042149"><ele>740.0</ele><time>2026-05-02T14:14:00Z</time></trkpt><trkpt lat="42.14916985193027" lon="13.289255974538642"><ele>740.0</ele><time>2026-05-02T14:14:01Z</time></trkpt><trkpt lat="42.14922446645639" lon="13.289152643671075"><ele>740.0</ele><time>2026-05-02T14:14:02Z</time></trkpt><trkpt lat="42.149272433842704" lon="13.289061121224861"><ele>740.0</ele><time>2026-05-02T14:14:03Z</time></trkpt><trkpt lat="42.149318822168205" lon="13.288986781277469"><ele>740.0</ele><time>2026-05-02T14:14:04Z</time></trkpt><trkpt lat="42.14937411541862" lon="13.2889242999348"><ele>740.5</ele><time>2026-05-02T14:14:05Z</time></trkpt><trkpt lat="42.14944308512241" lon="13.28887125056721"><ele>741.0</ele><time>2026-05-02T14:14:06Z</time></trkpt><trkpt lat="42.14951365001343" lon="13.288807764383112"><ele>741.5</ele><time>2026-05-02T14:14:07Z</time></trkpt><trkpt lat="42.14957864183031" lon="13.288737564664382"><ele>742.0</ele><time>2026-05-02T14:14:08Z</time></trkpt><trkpt lat="42.149642674442006" lon="13.28866045310878"><ele>742.5</ele><time>2026-05-02T14:14:09Z</time></trkpt><trkpt lat="42.14971164365566" lon="13.288579108624857"><ele>743.0</ele><time>2026-05-02T14:14:10Z</time></trkpt><trkpt lat="42.149781737308295" lon="13.28849250001964"><ele>743.0</ele><time>2026-05-02T14:14:11Z</time></trkpt><trkpt lat="42.149857911674296" lon="13.28838766236021"><ele>743.0</ele><time>2026-05-02T14:14:12Z</time></trkpt><trkpt lat="42.14993574198209" lon="13.288263491927033"><ele>743.0</ele><time>2026-05-02T14:14:13Z</time></trkpt><trkpt lat="42.15001427620949" lon="13.288127034016215"><ele>743.0</ele><time>2026-05-02T14:14:14Z</time></trkpt><trkpt lat="42.15008806843497" lon="13.287990242016763"><ele>741.0</ele><time>2026-05-02T14:14:15Z</time></trkpt><trkpt lat="42.150147684776314" lon="13.287878293974638"><ele>739.0</ele><time>2026-05-02T14:14:16Z</time></trkpt><trkpt lat="42.15019060683637" lon="13.287787214215214"><ele>737.0</ele><time>2026-05-02T14:14:17Z</time></trkpt><trkpt lat="42.15022717321594" lon="13.287714915565779"><ele>735.0</ele><time>2026-05-02T14:14:18Z</time></trkpt><trkpt lat="42.150301076794065" lon="13.2875912353475"><ele>733.0</ele><time>2026-05-02T14:14:20Z</time></trkpt><trkpt lat="42.15035996702912" lon="13.287448987117465"><ele>733.0</ele><time>2026-05-02T14:14:22Z</time></trkpt><trkpt lat="42.150420979404124" lon="13.287318385638413"><ele>733.0</ele><time>2026-05-02T14:14:24Z</time></trkpt><trkpt lat="42.15050579465331" lon="13.287174411686024"><ele>733.0</ele><time>2026-05-02T14:14:26Z</time></trkpt><trkpt lat="42.150555229527285" lon="13.287097751138095"><ele>733.0</ele><time>2026-05-02T14:14:27Z</time></trkpt><trkpt lat="42.15061523058238" lon="13.287022992480686"><ele>733.0</ele><time>2026-05-02T14:14:28Z</time></trkpt><trkpt lat="42.150669911643405" lon="13.286959928854886"><ele>732.5</ele><time>2026-05-02T14:14:29Z</time></trkpt><trkpt lat="42.15075136496723" lon="13.286886358690884"><ele>732.0</ele><time>2026-05-02T14:14:31Z</time></trkpt><trkpt lat="42.15082661223257" lon="13.286845496818913"><ele>731.5</ele><time>2026-05-02T14:14:33Z</time></trkpt><trkpt lat="42.15088883176653" lon="13.286801257477896"><ele>731.0</ele><time>2026-05-02T14:14:34Z</time></trkpt><trkpt lat="42.15096337346889" lon="13.286727074831042"><ele>730.5</ele><time>2026-05-02T14:14:35Z</time></trkpt><trkpt lat="42.151034564748514" lon="13.286630951151462"><ele>730.0</ele><time>2026-05-02T14:14:36Z</time></trkpt><trkpt lat="42.15110884018673" lon="13.286537057773247"><ele>730.0</ele><time>2026-05-02T14:14:37Z</time></trkpt><trkpt lat="42.151168676072075" lon="13.286464602411984"><ele>730.0</ele><time>2026-05-02T14:14:38Z</time></trkpt><trkpt lat="42.15122251511178" lon="13.286373557314263"><ele>730.0</ele><time>2026-05-02T14:14:39Z</time></trkpt><trkpt lat="42.15127630328285" lon="13.286269715113084"><ele>730.0</ele><time>2026-05-02T14:14:40Z</time></trkpt><trkpt lat="42.15133716644942" lon="13.28616777612841"><ele>730.0</ele><time>2026-05-02T14:14:41Z</time></trkpt><trkpt lat="42.15140351949387" lon="13.286062988177235"><ele>729.6666666666667</ele><time>2026-05-02T14:14:42Z</time></trkpt><trkpt lat="42.15146570284585" lon="13.285968721031068"><ele>729.3333333333334</ele><time>2026-05-02T14:14:43Z</time></trkpt><trkpt lat="42.15152648782654" lon="13.285884607337907"><ele>729.0</ele><time>2026-05-02T14:14:44Z</time></trkpt><trkpt lat="42.15159397570417" lon="13.285807049109037"><ele>728.6666666666666</ele><time>2026-05-02T14:14:45Z</time></trkpt><trkpt lat="42.151672884285425" lon="13.28574378220347"><ele>728.3333333333333</ele><time>2026-05-02T14:14:46Z</time></trkpt><trkpt lat="42.151746527749076" lon="13.285693297252443"><ele>728.0</ele><time>2026-05-02T14:14:47Z</time></trkpt><trkpt lat="42.1518240262124" lon="13.285617398570325"><ele>727.5999999999999</ele><time>2026-05-02T14:14:48Z</time></trkpt><trkpt lat="42.15190180984774" lon="13.285521550405178"><ele>727.1999999999999</ele><time>2026-05-02T14:14:49Z</time></trkpt><trkpt lat="42.1519773197912" lon="13.285423167197589"><ele>726.8</ele><time>2026-05-02T14:14:50Z</time></trkpt><trkpt lat="42.15205019307152" lon="13.285337122479993"><ele>726.4</ele><time>2026-05-02T14:14:51Z</time></trkpt><trkpt lat="42.15212725735324" lon="13.285254241102049"><ele>726.0</ele><time>2026-05-02T14:14:52Z</time></trkpt><trkpt lat="42.15221433583569" lon="13.285163713303131"><ele>726.0</ele><time>2026-05-02T14:14:53Z</time></trkpt><trkpt lat="42.152300395910984" lon="13.2850688069274"><ele>726.0</ele><time>2026-05-02T14:14:54Z</time></trkpt><trkpt lat="42.15238616825894" lon="13.28497584122176"><ele>726.0</ele><time>2026-05-02T14:14:55Z</time></trkpt><trkpt lat="42.15247306141396" lon="13.284897884135859"><ele>726.0</ele><time>2026-05-02T14:14:56Z</time></trkpt><trkpt lat="42.1525494270696" lon="13.284826357108905"><ele>726.0</ele><time>2026-05-02T14:14:57Z</time></trkpt><trkpt lat="42.152624771405115" lon="13.284742053451314"><ele>725.5999999999999</ele><time>2026-05-02T14:14:58Z</time></trkpt><trkpt lat="42.15268595400822" lon="13.284649999380118"><ele>725.2</ele><time>2026-05-02T14:14:59Z</time></trkpt><trkpt lat="42.15275910662508" lon="13.284566106445352"><ele>724.8</ele><time>2026-05-02T14:15:00Z</time></trkpt><trkpt lat="42.15283712500172" lon="13.284487292736484"><ele>724.4000000000001</ele><time>2026-05-02T14:15:01Z</time></trkpt><trkpt lat="42.15290653759255" lon="13.284386265488015"><ele>724.0</ele><time>2026-05-02T14:15:02Z</time></trkpt><trkpt lat="42.15298082797547" lon="13.284282980600087"><ele>724.0</ele><time>2026-05-02T14:15:03Z</time></trkpt><trkpt lat="42.15305149540758" lon="13.284178454550075"><ele>724.0</ele><time>2026-05-02T14:15:04Z</time></trkpt><trkpt lat="42.15311957898015" lon="13.28407510074152"><ele>724.0</ele><time>2026-05-02T14:15:05Z</time></trkpt><trkpt lat="42.15317289212567" lon="13.283978858306865"><ele>724.0</ele><time>2026-05-02T14:15:06Z</time></trkpt><trkpt lat="42.153231380487306" lon="13.28389085623548"><ele>724.0</ele><time>2026-05-02T14:15:07Z</time></trkpt><trkpt lat="42.153288972788765" lon="13.28379498841278"><ele>724.6</ele><time>2026-05-02T14:15:08Z</time></trkpt><trkpt lat="42.15335512679859" lon="13.283700367647969"><ele>725.2</ele><time>2026-05-02T14:15:09Z</time></trkpt><trkpt lat="42.15341322048467" lon="13.283593686464927"><ele>725.8000000000001</ele><time>2026-05-02T14:15:10Z</time></trkpt><trkpt lat="42.15347216069346" lon="13.283482024969446"><ele>726.4000000000001</ele><time>2026-05-02T14:15:11Z</time></trkpt><trkpt lat="42.153531912237945" lon="13.283371163642078"><ele>727.0</ele><time>2026-05-02T14:15:12Z</time></trkpt><trkpt lat="42.15359024527785" lon="13.283264924305547"><ele>727.0</ele><time>2026-05-02T14:15:13Z</time></trkpt><trkpt lat="42.15366423248393" lon="13.283180703585812"><ele>727.0</ele><time>2026-05-02T14:15:14Z</time></trkpt><trkpt lat="42.15374506809701" lon="13.283064181142475"><ele>727.0</ele><time>2026-05-02T14:15:15Z</time></trkpt><trkpt lat="42.15383865233463" lon="13.282932869499913"><ele>727.0</ele><time>2026-05-02T14:15:16Z</time></trkpt><trkpt lat="42.153935849293134" lon="13.282788200743058"><ele>727.25</ele><time>2026-05-02T14:15:17Z</time></trkpt><trkpt lat="42.1540426264062" lon="13.28265125352446"><ele>727.5</ele><time>2026-05-02T14:15:18Z</time></trkpt><trkpt lat="42.15415071996995" lon="13.282510770263036"><ele>727.75</ele><time>2026-05-02T14:15:19Z</time></trkpt><trkpt lat="42.15424854262144" lon="13.282379293869237"><ele>728.0</ele><time>2026-05-02T14:15:20Z</time></trkpt><trkpt lat="42.15434096565469" lon="13.282260159475053"><ele>728.25</ele><time>2026-05-02T14:15:21Z</time></trkpt><trkpt lat="42.154433309785766" lon="13.282148476577861"><ele>728.5</ele><time>2026-05-02T14:15:22Z</time></trkpt><trkpt lat="42.15452683936114" lon="13.282046409179523"><ele>728.75</ele><time>2026-05-02T14:15:23Z</time></trkpt><trkpt lat="42.15461821836245" lon="13.281965462925454"><ele>729.0</ele><time>2026-05-02T14:15:24Z</time></trkpt><trkpt lat="42.15470589630214" lon="13.281898943512681"><ele>729.0</ele><time>2026-05-02T14:15:25Z</time></trkpt><trkpt lat="42.154794349714756" lon="13.281839582017621"><ele>729.0</ele><time>2026-05-02T14:15:26Z</time></trkpt><trkpt lat="42.15488479326424" lon="13.281783748187927"><ele>729.0</ele><time>2026-05-02T14:15:27Z</time></trkpt><trkpt lat="42.15497609569967" lon="13.281730548272769"><ele>729.0</ele><time>2026-05-02T14:15:28Z</time></trkpt><trkpt lat="42.155060861524774" lon="13.281681196291936"><ele>729.0</ele><time>2026-05-02T14:15:29Z</time></trkpt><trkpt lat="42.1551368395035" lon="13.281617453560587"><ele>729.2</ele><time>2026-05-02T14:15:30Z</time></trkpt><trkpt lat="42.155212519998585" lon="13.28156018730082"><ele>729.4000000000001</ele><time>2026-05-02T14:15:31Z</time></trkpt><trkpt lat="42.155282155458" lon="13.281505899360628"><ele>729.6</ele><time>2026-05-02T14:15:32Z</time></trkpt><trkpt lat="42.15536146862236" lon="13.281442699479145"><ele>729.8</ele><time>2026-05-02T14:15:33Z</time></trkpt><trkpt lat="42.155438277998336" lon="13.281369312748176"><ele>730.0</ele><time>2026-05-02T14:15:34Z</time></trkpt><trkpt lat="42.15552066440321" lon="13.281279741360848"><ele>730.0</ele><time>2026-05-02T14:15:35Z</time></trkpt><trkpt lat="42.15560520186616" lon="13.281189061264817"><ele>730.0</ele><time>2026-05-02T14:15:36Z</time></trkpt><trkpt lat="42.15569853147766" lon="13.28110727455458"><ele>730.0</ele><time>2026-05-02T14:15:37Z</time></trkpt><trkpt lat="42.15579641913442" lon="13.281022577248862"><ele>730.0</ele><time>2026-05-02T14:15:38Z</time></trkpt><trkpt lat="42.15589776489679" lon="13.280938524232486"><ele>731.0</ele><time>2026-05-02T14:15:39Z</time></trkpt><trkpt lat="42.1560015021734" lon="13.280858882078975"><ele>732.0</ele><time>2026-05-02T14:15:40Z</time></trkpt><trkpt lat="42.15610302777249" lon="13.280781034003478"><ele>733.0</ele><time>2026-05-02T14:15:41Z</time></trkpt><trkpt lat="42.15620579602207" lon="13.280702968942206"><ele>734.0</ele><time>2026-05-02T14:15:42Z</time></trkpt><trkpt lat="42.156311853412966" lon="13.280617513211435"><ele>734.25</ele><time>2026-05-02T14:15:43Z</time></trkpt><trkpt lat="42.15641810750175" lon="13.28052576411628"><ele>734.5</ele><time>2026-05-02T14:15:44Z</time></trkpt><trkpt lat="42.156525406377725" lon="13.280427702497867"><ele>734.75</ele><time>2026-05-02T14:15:45Z</time></trkpt><trkpt lat="42.156625614310336" lon="13.280332037634698"><ele>735.0</ele><time>2026-05-02T14:15:46Z</time></trkpt><trkpt lat="42.15671741227378" lon="13.28024155044534"><ele>735.6</ele><time>2026-05-02T14:15:47Z</time></trkpt><trkpt lat="42.156802084983546" lon="13.280162717627018"><ele>736.2</ele><time>2026-05-02T14:15:48Z</time></trkpt><trkpt lat="42.15689251913682" lon="13.28009139932289"><ele>736.8</ele><time>2026-05-02T14:15:49Z</time></trkpt><trkpt lat="42.15698721769393" lon="13.280025074076548"><ele>737.4</ele><time>2026-05-02T14:15:50Z</time></trkpt><trkpt lat="42.15708469090441" lon="13.279959433377337"><ele>738.0</ele><time>2026-05-02T14:15:51Z</time></trkpt><trkpt lat="42.157187531034914" lon="13.279902938649977"><ele>738.0</ele><time>2026-05-02T14:15:52Z</time></trkpt><trkpt lat="42.157299176618594" lon="13.279855401887403"><ele>738.0</ele><time>2026-05-02T14:15:53Z</time></trkpt><trkpt lat="42.15741645838681" lon="13.279811674524167"><ele>738.0</ele><time>2026-05-02T14:15:54Z</time></trkpt><trkpt lat="42.157538388519505" lon="13.279765041512947"><ele>738.0</ele><time>2026-05-02T14:15:55Z</time></trkpt><trkpt lat="42.15766077984356" lon="13.279719151742569"><ele>738.25</ele><time>2026-05-02T14:15:56Z</time></trkpt><trkpt lat="42.157778970188836" lon="13.279676755889737"><ele>738.5</ele><time>2026-05-02T14:15:57Z</time></trkpt><trkpt lat="42.15789281767906" lon="13.279638357945343"><ele>738.75</ele><time>2026-05-02T14:15:58Z</time></trkpt><trkpt lat="42.15800158861596" lon="13.279604800320921"><ele>739.0</ele><time>2026-05-02T14:15:59Z</time></trkpt><trkpt lat="42.1581066417419" lon="13.279574372570357"><ele>739.8000000000001</ele><time>2026-05-02T14:16:00Z</time></trkpt><trkpt lat="42.15821583105333" lon="13.279551010055759"><ele>740.6</ele><time>2026-05-02T14:16:01Z</time></trkpt><trkpt lat="42.15832483387576" lon="13.27952817480251"><ele>741.4</ele><time>2026-05-02T14:16:02Z</time></trkpt><trkpt lat="42.158433754795745" lon="13.27951185051981"><ele>742.2</ele><time>2026-05-02T14:16:03Z</time></trkpt><trkpt lat="42.15854574624002" lon="13.279500848756875"><ele>743.0</ele><time>2026-05-02T14:16:04Z</time></trkpt><trkpt lat="42.15866280849255" lon="13.279481276907424"><ele>743.0</ele><time>2026-05-02T14:16:05Z</time></trkpt><trkpt lat="42.158776944429896" lon="13.27946462933407"><ele>743.0</ele><time>2026-05-02T14:16:06Z</time></trkpt><trkpt lat="42.15889185159163" lon="13.279446606261942"><ele>743.0</ele><time>2026-05-02T14:16:07Z</time></trkpt><trkpt lat="42.15900427622167" lon="13.279428490080244"><ele>743.0</ele><time>2026-05-02T14:16:08Z</time></trkpt><trkpt lat="42.15912278744349" lon="13.279398398846501"><ele>744.25</ele><time>2026-05-02T14:16:09Z</time></trkpt><trkpt lat="42.15923905354607" lon="13.279363839656371"><ele>745.5</ele><time>2026-05-02T14:16:10Z</time></trkpt><trkpt lat="42.15935386598404" lon="13.279328848877995"><ele>746.75</ele><time>2026-05-02T14:16:11Z</time></trkpt><trkpt lat="42.1594671925378" lon="13.279293894485656"><ele>748.0</ele><time>2026-05-02T14:16:12Z</time></trkpt><trkpt lat="42.159577040418974" lon="13.279258863060788"><ele>748.0</ele><time>2026-05-02T14:16:13Z</time></trkpt><trkpt lat="42.159691747246264" lon="13.279230193381247"><ele>748.0</ele><time>2026-05-02T14:16:14Z</time></trkpt><trkpt lat="42.15980703414191" lon="13.279206678375333"><ele>748.0</ele><time>2026-05-02T14:16:15Z</time></trkpt><trkpt lat="42.15992801610094" lon="13.279180589184213"><ele>748.0</ele><time>2026-05-02T14:16:16Z</time></trkpt><trkpt lat="42.16005320257182" lon="13.27915320402233"><ele>748.75</ele><time>2026-05-02T14:16:17Z</time></trkpt><trkpt lat="42.160182272856034" lon="13.27911756098821"><ele>749.5</ele><time>2026-05-02T14:16:18Z</time></trkpt><trkpt lat="42.16031572641629" lon="13.27908013600262"><ele>750.25</ele><time>2026-05-02T14:16:19Z</time></trkpt><trkpt lat="42.160450314406276" lon="13.279040225106254"><ele>751.0</ele><time>2026-05-02T14:16:20Z</time></trkpt><trkpt lat="42.16058345254189" lon="13.27899551832912"><ele>751.75</ele><time>2026-05-02T14:16:21Z</time></trkpt><trkpt lat="42.16071641148948" lon="13.278948289557231"><ele>752.5</ele><time>2026-05-02T14:16:22Z</time></trkpt><trkpt lat="42.16084626281066" lon="13.278900241133822"><ele>753.25</ele><time>2026-05-02T14:16:23Z</time></trkpt><trkpt lat="42.16097715066997" lon="13.27885394022958"><ele>754.0</ele><time>2026-05-02T14:16:24Z</time></trkpt><trkpt lat="42.161110067875164" lon="13.278815740691952"><ele>754.0</ele><time>2026-05-02T14:16:25Z</time></trkpt><trkpt lat="42.1612423435488" lon="13.278770779585912"><ele>754.0</ele><time>2026-05-02T14:16:26Z</time></trkpt><trkpt lat="42.1613765150039" lon="13.278734506180275"><ele>754.0</ele><time>2026-05-02T14:16:27Z</time></trkpt><trkpt lat="42.161506844119245" lon="13.278698191111285"><ele>754.0</ele><time>2026-05-02T14:16:28Z</time></trkpt><trkpt lat="42.1616347601524" lon="13.278660528676774"><ele>754.75</ele><time>2026-05-02T14:16:29Z</time></trkpt><trkpt lat="42.16176211930698" lon="13.278620239065381"><ele>755.5</ele><time>2026-05-02T14:16:30Z</time></trkpt><trkpt lat="42.16189259332144" lon="13.27857724983131"><ele>756.25</ele><time>2026-05-02T14:16:31Z</time></trkpt><trkpt lat="42.162024154851174" lon="13.278532615249482"><ele>757.0</ele><time>2026-05-02T14:16:32Z</time></trkpt><trkpt lat="42.16215029820914" lon="13.278485871456969"><ele>757.0</ele><time>2026-05-02T14:16:33Z</time></trkpt><trkpt lat="42.16227820883979" lon="13.278439459602165"><ele>757.0</ele><time>2026-05-02T14:16:34Z</time></trkpt><trkpt lat="42.162405024316776" lon="13.278388808898058"><ele>757.0</ele><time>2026-05-02T14:16:35Z</time></trkpt><trkpt lat="42.16253320654889" lon="13.278342927358617"><ele>757.0</ele><time>2026-05-02T14:16:36Z</time></trkpt><trkpt lat="42.162661153862324" lon="13.278299009563547"><ele>758.0</ele><time>2026-05-02T14:16:37Z</time></trkpt><trkpt lat="42.16278996078287" lon="13.278258695052365"><ele>759.0</ele><time>2026-05-02T14:16:38Z</time></trkpt><trkpt lat="42.16291863319608" lon="13.278221756050568"><ele>760.0</ele><time>2026-05-02T14:16:39Z</time></trkpt><trkpt lat="42.163042634686114" lon="13.27818853323149"><ele>761.0</ele><time>2026-05-02T14:16:40Z</time></trkpt><trkpt lat="42.163163192994325" lon="13.278155808355743"><ele>761.8</ele><time>2026-05-02T14:16:41Z</time></trkpt><trkpt lat="42.16327771285709" lon="13.278121599501343"><ele>762.5999999999999</ele><time>2026-05-02T14:16:42Z</time></trkpt><trkpt lat="42.163387045180805" lon="13.278082187993832"><ele>763.4</ele><time>2026-05-02T14:16:43Z</time></trkpt><trkpt lat="42.16348944490539" lon="13.278036240911606"><ele>764.2</ele><time>2026-05-02T14:16:44Z</time></trkpt><trkpt lat="42.16358728190044" lon="13.277983089574715"><ele>765.0</ele><time>2026-05-02T14:16:45Z</time></trkpt><trkpt lat="42.163684530218326" lon="13.27792115086317"><ele>765.0</ele><time>2026-05-02T14:16:46Z</time></trkpt><trkpt lat="42.16377879043888" lon="13.277850345458251"><ele>765.0</ele><time>2026-05-02T14:16:47Z</time></trkpt><trkpt lat="42.16386935248594" lon="13.27776964380827"><ele>765.0</ele><time>2026-05-02T14:16:48Z</time></trkpt><trkpt lat="42.16395299044983" lon="13.277688214398013"><ele>765.0</ele><time>2026-05-02T14:16:49Z</time></trkpt><trkpt lat="42.16403450705103" lon="13.27761575247305"><ele>765.0</ele><time>2026-05-02T14:16:50Z</time></trkpt><trkpt lat="42.16410905697106" lon="13.277560616484013"><ele>765.0</ele><time>2026-05-02T14:16:51Z</time></trkpt><trkpt lat="42.16419000791791" lon="13.27752162271609"><ele>765.0</ele><time>2026-05-02T14:16:52Z</time></trkpt><trkpt lat="42.16426615695328" lon="13.277497312456319"><ele>765.0</ele><time>2026-05-02T14:16:53Z</time></trkpt><trkpt lat="42.16433680358986" lon="13.27748134019865"><ele>765.0</ele><time>2026-05-02T14:16:54Z</time></trkpt><trkpt lat="42.164410120030944" lon="13.277468526465583"><ele>765.0</ele><time>2026-05-02T14:16:55Z</time></trkpt><trkpt lat="42.16449073703591" lon="13.277469707818643"><ele>765.0</ele><time>2026-05-02T14:16:56Z</time></trkpt><trkpt lat="42.16459077970445" lon="13.277471807782991"><ele>765.0</ele><time>2026-05-02T14:16:57Z</time></trkpt><trkpt lat="42.164694534476965" lon="13.2774777357321"><ele>765.0</ele><time>2026-05-02T14:16:58Z</time></trkpt><trkpt lat="42.164796798974926" lon="13.277486904685743"><ele>765.0</ele><time>2026-05-02T14:16:59Z</time></trkpt><trkpt lat="42.16489397930865" lon="13.277490061291434"><ele>765.0</ele><time>2026-05-02T14:17:00Z</time></trkpt><trkpt lat="42.164987087488726" lon="13.277492645809183"><ele>765.0</ele><time>2026-05-02T14:17:01Z</time></trkpt><trkpt lat="42.165081654564325" lon="13.277484868530001"><ele>764.6</ele><time>2026-05-02T14:17:02Z</time></trkpt><trkpt lat="42.1651701405359" lon="13.27747546029261"><ele>764.2</ele><time>2026-05-02T14:17:03Z</time></trkpt><trkpt lat="42.165261419467775" lon="13.277464436193082"><ele>763.8</ele><time>2026-05-02T14:17:04Z</time></trkpt><trkpt lat="42.16535864529309" lon="13.277455185866877"><ele>763.4</ele><time>2026-05-02T14:17:05Z</time></trkpt><trkpt lat="42.165455573297834" lon="13.27745359251215"><ele>763.0</ele><time>2026-05-02T14:17:06Z</time></trkpt><trkpt lat="42.16554455174831" lon="13.277451336045509"><ele>763.0</ele><time>2026-05-02T14:17:07Z</time></trkpt><trkpt lat="42.16562728390132" lon="13.277448380228753"><ele>763.0</ele><time>2026-05-02T14:17:08Z</time></trkpt><trkpt lat="42.16571690264815" lon="13.27744949200394"><ele>763.0</ele><time>2026-05-02T14:17:09Z</time></trkpt><trkpt lat="42.16582149883247" lon="13.27744480561273"><ele>763.0</ele><time>2026-05-02T14:17:10Z</time></trkpt><trkpt lat="42.165935242957126" lon="13.277409485604723"><ele>763.0</ele><time>2026-05-02T14:17:11Z</time></trkpt><trkpt lat="42.16605468048752" lon="13.277370246311488"><ele>762.5</ele><time>2026-05-02T14:17:12Z</time></trkpt><trkpt lat="42.166174497836245" lon="13.27733382260549"><ele>762.0</ele><time>2026-05-02T14:17:13Z</time></trkpt><trkpt lat="42.166290960111034" lon="13.277287890119679"><ele>761.5</ele><time>2026-05-02T14:17:14Z</time></trkpt><trkpt lat="42.16640871502476" lon="13.27723689210396"><ele>761.0</ele><time>2026-05-02T14:17:15Z</time></trkpt><trkpt lat="42.166513142920344" lon="13.27718468257689"><ele>761.8333333333333</ele><time>2026-05-02T14:17:16Z</time></trkpt><trkpt lat="42.16659834408878" lon="13.27713501377573"><ele>762.6666666666666</ele><time>2026-05-02T14:17:17Z</time></trkpt><trkpt lat="42.166670388685006" lon="13.27708852410109"><ele>763.5</ele><time>2026-05-02T14:17:18Z</time></trkpt><trkpt lat="42.16673994421407" lon="13.277035519098039"><ele>764.3333333333334</ele><time>2026-05-02T14:17:19Z</time></trkpt><trkpt lat="42.166798077200056" lon="13.27699711214332"><ele>765.1666666666667</ele><time>2026-05-02T14:17:20Z</time></trkpt><trkpt lat="42.16691369292594" lon="13.276964765878654"><ele>766.0</ele><time>2026-05-02T14:17:22Z</time></trkpt><trkpt lat="42.167048167895636" lon="13.276963083803924"><ele>766.0</ele><time>2026-05-02T14:17:24Z</time></trkpt><trkpt lat="42.16713216310489" lon="13.27696865979581"><ele>766.0</ele><time>2026-05-02T14:17:25Z</time></trkpt><trkpt lat="42.1672300531469" lon="13.27697829281587"><ele>766.0</ele><time>2026-05-02T14:17:26Z</time></trkpt><trkpt lat="42.167318811553194" lon="13.276979285170649"><ele>766.0</ele><time>2026-05-02T14:17:27Z</time></trkpt><trkpt lat="42.16742171374783" lon="13.276952295362499"><ele>766.0</ele><time>2026-05-02T14:17:29Z</time></trkpt><trkpt lat="42.16748181863553" lon="13.276836874488573"><ele>767.8333333333334</ele><time>2026-05-02T14:17:31Z</time></trkpt><trkpt lat="42.167496545540054" lon="13.276749555986667"><ele>769.6666666666667</ele><time>2026-05-02T14:17:32Z</time></trkpt><trkpt lat="42.167529319705" lon="13.27667212493455"><ele>771.5</ele><time>2026-05-02T14:17:33Z</time></trkpt><trkpt lat="42.16755466228399" lon="13.27659143397964"><ele>773.3333333333334</ele><time>2026-05-02T14:17:34Z</time></trkpt><trkpt lat="42.16761940065876" lon="13.276437100975132"><ele>775.1666666666666</ele><time>2026-05-02T14:17:36Z</time></trkpt><trkpt lat="42.16765870742854" lon="13.2763205934837"><ele>777.0</ele><time>2026-05-02T14:17:37Z</time></trkpt><trkpt lat="42.167696809418096" lon="13.276252168327279"><ele>778.0</ele><time>2026-05-02T14:17:38Z</time></trkpt><trkpt lat="42.16780225673356" lon="13.276214860522165"><ele>779.0</ele><time>2026-05-02T14:17:40Z</time></trkpt><trkpt lat="42.1679043263284" lon="13.276247511732539"><ele>780.0</ele><time>2026-05-02T14:17:42Z</time></trkpt><trkpt lat="42.168033843976794" lon="13.276281070737182"><ele>781.0</ele><time>2026-05-02T14:17:44Z</time></trkpt><trkpt lat="42.16811571465014" lon="13.276303152317462"><ele>782.0</ele><time>2026-05-02T14:17:45Z</time></trkpt><trkpt lat="42.168207516938146" lon="13.276313993890204"><ele>782.0</ele><time>2026-05-02T14:17:46Z</time></trkpt><trkpt lat="42.168305396788966" lon="13.276309689515433"><ele>782.0</ele><time>2026-05-02T14:17:47Z</time></trkpt><trkpt lat="42.168408581217264" lon="13.276290288253625"><ele>782.0</ele><time>2026-05-02T14:17:48Z</time></trkpt><trkpt lat="42.16851686439797" lon="13.276265411516897"><ele>782.0</ele><time>2026-05-02T14:17:49Z</time></trkpt><trkpt lat="42.168631355081786" lon="13.27623380379829"><ele>782.0</ele><time>2026-05-02T14:17:50Z</time></trkpt><trkpt lat="42.168749278412456" lon="13.276203927842504"><ele>782.0</ele><time>2026-05-02T14:17:51Z</time></trkpt><trkpt lat="42.16886599434924" lon="13.276168337650994"><ele>782.0</ele><time>2026-05-02T14:17:52Z</time></trkpt><trkpt lat="42.16897320575251" lon="13.276133586370758"><ele>782.0</ele><time>2026-05-02T14:17:53Z</time></trkpt><trkpt lat="42.1690796299381" lon="13.276102824277865"><ele>782.0</ele><time>2026-05-02T14:17:54Z</time></trkpt><trkpt lat="42.169209631731" lon="13.276060903976875"><ele>784.3333333333334</ele><time>2026-05-02T14:17:55Z</time></trkpt><trkpt lat="42.169365190397656" lon="13.276010862283167"><ele>786.6666666666667</ele><time>2026-05-02T14:17:56Z</time></trkpt><trkpt lat="42.169526501399005" lon="13.275961933148366"><ele>789.0</ele><time>2026-05-02T14:17:57Z</time></trkpt><trkpt lat="42.16966970438834" lon="13.27591668712221"><ele>789.0</ele><time>2026-05-02T14:17:58Z</time></trkpt><trkpt lat="42.16979662485829" lon="13.275879663311388"><ele>789.0</ele><time>2026-05-02T14:17:59Z</time></trkpt><trkpt lat="42.16991449867732" lon="13.275842041966838"><ele>789.0</ele><time>2026-05-02T14:18:00Z</time></trkpt><trkpt lat="42.17003011485499" lon="13.27580057138358"><ele>789.0</ele><time>2026-05-02T14:18:01Z</time></trkpt><trkpt lat="42.17014374137501" lon="13.275767108324205"><ele>790.0</ele><time>2026-05-02T14:18:02Z</time></trkpt><trkpt lat="42.1702508670017" lon="13.27574287789764"><ele>791.0</ele><time>2026-05-02T14:18:03Z</time></trkpt><trkpt lat="42.17034928696003" lon="13.275723813034782"><ele>792.0</ele><time>2026-05-02T14:18:04Z</time></trkpt><trkpt lat="42.17043833230287" lon="13.275711654056215"><ele>793.0</ele><time>2026-05-02T14:18:05Z</time></trkpt><trkpt lat="42.1705236105016" lon="13.275701386416491"><ele>794.0</ele><time>2026-05-02T14:18:06Z</time></trkpt><trkpt lat="42.17060331740731" lon="13.275694053513266"><ele>795.2</ele><time>2026-05-02T14:18:07Z</time></trkpt><trkpt lat="42.17071221980063" lon="13.275678386180733"><ele>796.4000000000001</ele><time>2026-05-02T14:18:09Z</time></trkpt><trkpt lat="42.17078278153029" lon="13.275639488614837"><ele>797.6</ele><time>2026-05-02T14:18:12Z</time></trkpt><trkpt lat="42.17089214856051" lon="13.275615518015087"><ele>798.8</ele><time>2026-05-02T14:18:15Z</time></trkpt><trkpt lat="42.17097275567927" lon="13.275626340146268"><ele>800.0</ele><time>2026-05-02T14:18:16Z</time></trkpt><trkpt lat="42.17108361576762" lon="13.275638081218146"><ele>800.0</ele><time>2026-05-02T14:18:17Z</time></trkpt><trkpt lat="42.171209403642884" lon="13.275654767154164"><ele>800.0</ele><time>2026-05-02T14:18:18Z</time></trkpt><trkpt lat="42.1713345823332" lon="13.275677203025564"><ele>800.0</ele><time>2026-05-02T14:18:19Z</time></trkpt><trkpt lat="42.171469554188334" lon="13.275712945358702"><ele>800.0</ele><time>2026-05-02T14:18:20Z</time></trkpt><trkpt lat="42.17160372649241" lon="13.275764019811646"><ele>800.3333333333334</ele><time>2026-05-02T14:18:21Z</time></trkpt><trkpt lat="42.1717367717024" lon="13.275851582378545"><ele>800.6666666666667</ele><time>2026-05-02T14:18:22Z</time></trkpt><trkpt lat="42.17187241748409" lon="13.275940103186764"><ele>801.0</ele><time>2026-05-02T14:18:23Z</time></trkpt><trkpt lat="42.17201803336575" lon="13.27600153060198"><ele>801.0</ele><time>2026-05-02T14:18:24Z</time></trkpt><trkpt lat="42.17215766299078" lon="13.276053960790714"><ele>801.0</ele><time>2026-05-02T14:18:25Z</time></trkpt><trkpt lat="42.172279069895296" lon="13.27610792758431"><ele>801.0</ele><time>2026-05-02T14:18:26Z</time></trkpt><trkpt lat="42.1723817577157" lon="13.276152207481752"><ele>801.0</ele><time>2026-05-02T14:18:27Z</time></trkpt><trkpt lat="42.17246424944868" lon="13.276192144191752"><ele>801.1428571428571</ele><time>2026-05-02T14:18:28Z</time></trkpt><trkpt lat="42.172537360541384" lon="13.276220948845861"><ele>801.2857142857142</ele><time>2026-05-02T14:18:29Z</time></trkpt><trkpt lat="42.17259812679612" lon="13.276255009141378"><ele>801.4285714285714</ele><time>2026-05-02T14:18:30Z</time></trkpt><trkpt lat="42.17265856251271" lon="13.276279214294433"><ele>801.5714285714286</ele><time>2026-05-02T14:18:31Z</time></trkpt><trkpt lat="42.172721120022494" lon="13.276299713512373"><ele>801.7142857142858</ele><time>2026-05-02T14:18:32Z</time></trkpt><trkpt lat="42.17279430085157" lon="13.276303803066558"><ele>801.8571428571429</ele><time>2026-05-02T14:18:33Z</time></trkpt><trkpt lat="42.172870891228705" lon="13.27632839604793"><ele>802.0</ele><time>2026-05-02T14:18:34Z</time></trkpt><trkpt lat="42.172950337793026" lon="13.27635435986369"><ele>802.0</ele><time>2026-05-02T14:18:35Z</time></trkpt><trkpt lat="42.1730379746365" lon="13.27638462813267"><ele>802.0</ele><time>2026-05-02T14:18:36Z</time></trkpt><trkpt lat="42.173123120267576" lon="13.276399648483327"><ele>802.0</ele><time>2026-05-02T14:18:37Z</time></trkpt><trkpt lat="42.17320484896609" lon="13.276401660445197"><ele>802.0</ele><time>2026-05-02T14:18:38Z</time></trkpt><trkpt lat="42.17330385556399" lon="13.276332507836624"><ele>802.0</ele><time>2026-05-02T14:18:40Z</time></trkpt><trkpt lat="42.173421873065294" lon="13.276250048171477"><ele>804.0</ele><time>2026-05-02T14:18:42Z</time></trkpt><trkpt lat="42.17350149343751" lon="13.276245652452916"><ele>806.0</ele><time>2026-05-02T14:18:43Z</time></trkpt><trkpt lat="42.17358135291241" lon="13.276208109907191"><ele>808.0</ele><time>2026-05-02T14:18:44Z</time></trkpt><trkpt lat="42.173684624569326" lon="13.27617550453004"><ele>810.0</ele><time>2026-05-02T14:18:45Z</time></trkpt><trkpt lat="42.173788866607474" lon="13.276136102905049"><ele>812.0</ele><time>2026-05-02T14:18:46Z</time></trkpt><trkpt lat="42.17387524319321" lon="13.276106594488825"><ele>812.0</ele><time>2026-05-02T14:18:47Z</time></trkpt><trkpt lat="42.1739548934892" lon="13.276113650901602"><ele>812.0</ele><time>2026-05-02T14:18:48Z</time></trkpt><trkpt lat="42.17402235576169" lon="13.276107977055968"><ele>812.0</ele><time>2026-05-02T14:18:49Z</time></trkpt><trkpt lat="42.17411683858879" lon="13.276139824367919"><ele>812.0</ele><time>2026-05-02T14:18:51Z</time></trkpt><trkpt lat="42.174187741731906" lon="13.276226016992773"><ele>812.0</ele><time>2026-05-02T14:18:54Z</time></trkpt><trkpt lat="42.174316874565505" lon="13.276305076569226"><ele>814.75</ele><time>2026-05-02T14:18:56Z</time></trkpt><trkpt lat="42.174418843154854" lon="13.276392787202349"><ele>817.5</ele><time>2026-05-02T14:18:57Z</time></trkpt><trkpt lat="42.17453155945192" lon="13.276492417222151"><ele>820.25</ele><time>2026-05-02T14:18:58Z</time></trkpt><trkpt lat="42.17464351882553" lon="13.276580361094098"><ele>823.0</ele><time>2026-05-02T14:18:59Z</time></trkpt><trkpt lat="42.17477471082503" lon="13.276614900844065"><ele>824.5</ele><time>2026-05-02T14:19:00Z</time></trkpt><trkpt lat="42.174894406372076" lon="13.276619729400783"><ele>826.0</ele><time>2026-05-02T14:19:01Z</time></trkpt><trkpt lat="42.17500330333304" lon="13.276573359709936"><ele>827.5</ele><time>2026-05-02T14:19:02Z</time></trkpt><trkpt lat="42.17510709637181" lon="13.276492745665065"><ele>829.0</ele><time>2026-05-02T14:19:03Z</time></trkpt><trkpt lat="42.175194251866394" lon="13.276383567066345"><ele>829.2</ele><time>2026-05-02T14:19:04Z</time></trkpt><trkpt lat="42.175263664502566" lon="13.276256937489233"><ele>829.4000000000001</ele><time>2026-05-02T14:19:05Z</time></trkpt><trkpt lat="42.175320173942254" lon="13.276135459555265"><ele>829.6</ele><time>2026-05-02T14:19:06Z</time></trkpt><trkpt lat="42.17537444686232" lon="13.276019939386146"><ele>829.8</ele><time>2026-05-02T14:19:07Z</time></trkpt><trkpt lat="42.17542706525887" lon="13.27590850665548"><ele>830.0</ele><time>2026-05-02T14:19:08Z</time></trkpt><trkpt lat="42.17547528473299" lon="13.275806216766725"><ele>830.0000000000001</ele><time>2026-05-02T14:19:09Z</time></trkpt><trkpt lat="42.17552032337777" lon="13.275700348616237"><ele>830.0</ele><time>2026-05-02T14:19:10Z</time></trkpt><trkpt lat="42.175565115592306" lon="13.275596334400634"><ele>830.0</ele><time>2026-05-02T14:19:11Z</time></trkpt><trkpt lat="42.17561548495188" lon="13.275506180218912"><ele>830.0</ele><time>2026-05-02T14:19:12Z</time></trkpt><trkpt lat="42.175678601103925" lon="13.275448312724313"><ele>830.0000000000001</ele><time>2026-05-02T14:19:13Z</time></trkpt><trkpt lat="42.17574634771147" lon="13.27541464253088"><ele>830.0</ele><time>2026-05-02T14:19:14Z</time></trkpt><trkpt lat="42.17581608081947" lon="13.275390639558616"><ele>830.0000000000001</ele><time>2026-05-02T14:19:15Z</time></trkpt><trkpt lat="42.175884539252735" lon="13.275369193759964"><ele>830.0</ele><time>2026-05-02T14:19:16Z</time></trkpt><trkpt lat="42.17596750547035" lon="13.275343030015334"><ele>830.0</ele><time>2026-05-02T14:19:17Z</time></trkpt><trkpt lat="42.176058811997585" lon="13.275319250618764"><ele>830.0</ele><time>2026-05-02T14:19:18Z</time></trkpt><trkpt lat="42.1761542973529" lon="13.275294737339753"><ele>830.0000000000001</ele><time>2026-05-02T14:19:19Z</time></trkpt><trkpt lat="42.17625197545589" lon="13.275267851944118"><ele>830.0</ele><time>2026-05-02T14:19:20Z</time></trkpt><trkpt lat="42.17635184589891" lon="13.275240514380672"><ele>830.0</ele><time>2026-05-02T14:19:21Z</time></trkpt><trkpt lat="42.17645275492728" lon="13.275213520160802"><ele>830.0</ele><time>2026-05-02T14:19:22Z</time></trkpt><trkpt lat="42.17655110642336" lon="13.275179418381278"><ele>830.0</ele><time>2026-05-02T14:19:23Z</time></trkpt><trkpt lat="42.17664980593913" lon="13.275146860677332"><ele>830.0</ele><time>2026-05-02T14:19:24Z</time></trkpt><trkpt lat="42.176747723231465" lon="13.275114742191269"><ele>830.0</ele><time>2026-05-02T14:19:25Z</time></trkpt><trkpt lat="42.17683936172914" lon="13.275085415268839"><ele>828.6666666666667</ele><time>2026-05-02T14:19:26Z</time></trkpt><trkpt lat="42.17692500576842" lon="13.275058135820002"><ele>827.3333333333334</ele><time>2026-05-02T14:19:27Z</time></trkpt><trkpt lat="42.177003162737805" lon="13.275034510413434"><ele>826.0</ele><time>2026-05-02T14:19:28Z</time></trkpt><trkpt lat="42.177074432557575" lon="13.275009784479314"><ele>824.6666666666667</ele><time>2026-05-02T14:19:29Z</time></trkpt><trkpt lat="42.17713870250541" lon="13.274997197317578"><ele>823.3333333333334</ele><time>2026-05-02T14:19:30Z</time></trkpt><trkpt lat="42.17725472783402" lon="13.275028635523238"><ele>822.0</ele><time>2026-05-02T14:19:32Z</time></trkpt><trkpt lat="42.177316143875565" lon="13.275048698433043"><ele>821.5</ele><time>2026-05-02T14:19:33Z</time></trkpt><trkpt lat="42.177383537601806" lon="13.275057894772447"><ele>821.0</ele><time>2026-05-02T14:19:34Z</time></trkpt><trkpt lat="42.17744826933991" lon="13.275065036507856"><ele>820.5</ele><time>2026-05-02T14:19:35Z</time></trkpt><trkpt lat="42.17753878598555" lon="13.27513542568816"><ele>820.0</ele><time>2026-05-02T14:19:37Z</time></trkpt><trkpt lat="42.177543482204136" lon="13.275289924227378"><ele>819.5</ele><time>2026-05-02T14:19:39Z</time></trkpt><trkpt lat="42.17752852810616" lon="13.275395341380234"><ele>819.0</ele><time>2026-05-02T14:19:40Z</time></trkpt><trkpt lat="42.17752896088236" lon="13.275522431726568"><ele>819.2</ele><time>2026-05-02T14:19:41Z</time></trkpt><trkpt lat="42.17753730392706" lon="13.275656354014805"><ele>819.4000000000001</ele><time>2026-05-02T14:19:42Z</time></trkpt><trkpt lat="42.177562793531635" lon="13.275790736923167"><ele>819.6</ele><time>2026-05-02T14:19:43Z</time></trkpt><trkpt lat="42.177601161522176" lon="13.27591812673159"><ele>819.8</ele><time>2026-05-02T14:19:44Z</time></trkpt><trkpt lat="42.17763360927735" lon="13.276010834396756"><ele>820.0</ele><time>2026-05-02T14:19:45Z</time></trkpt><trkpt lat="42.17770279491033" lon="13.276140359540257"><ele>820.0</ele><time>2026-05-02T14:19:47Z</time></trkpt><trkpt lat="42.177651847002046" lon="13.276252832004266"><ele>820.0</ele><time>2026-05-02T14:19:48Z</time></trkpt><trkpt lat="42.17767187568591" lon="13.27635779023527"><ele>820.0</ele><time>2026-05-02T14:19:49Z</time></trkpt><trkpt lat="42.17766327173814" lon="13.276480942329862"><ele>820.0</ele><time>2026-05-02T14:19:50Z</time></trkpt><trkpt lat="42.177639907878834" lon="13.276613045572267"><ele>820.0</ele><time>2026-05-02T14:19:51Z</time></trkpt><trkpt lat="42.17761301322694" lon="13.276741701780796"><ele>820.4</ele><time>2026-05-02T14:19:52Z</time></trkpt><trkpt lat="42.17757480936101" lon="13.276873144098303"><ele>820.8</ele><time>2026-05-02T14:19:53Z</time></trkpt><trkpt lat="42.17756207691823" lon="13.277012482806501"><ele>821.2</ele><time>2026-05-02T14:19:54Z</time></trkpt><trkpt lat="42.177553932954964" lon="13.277151982474907"><ele>821.6</ele><time>2026-05-02T14:19:55Z</time></trkpt><trkpt lat="42.17756225177429" lon="13.277290265047359"><ele>822.0</ele><time>2026-05-02T14:19:56Z</time></trkpt><trkpt lat="42.17755316062421" lon="13.27741527912999"><ele>822.3333333333334</ele><time>2026-05-02T14:19:57Z</time></trkpt><trkpt lat="42.17755309529958" lon="13.27753931358706"><ele>822.6666666666667</ele><time>2026-05-02T14:19:58Z</time></trkpt><trkpt lat="42.17755211983742" lon="13.277663036877092"><ele>823.0</ele><time>2026-05-02T14:19:59Z</time></trkpt><trkpt lat="42.177549312256964" lon="13.2777787665837"><ele>823.3333333333334</ele><time>2026-05-02T14:20:00Z</time></trkpt><trkpt lat="42.17751561322452" lon="13.27789049318813"><ele>823.6666666666667</ele><time>2026-05-02T14:20:01Z</time></trkpt><trkpt lat="42.177485767148134" lon="13.27799363424238"><ele>824.0</ele><time>2026-05-02T14:20:02Z</time></trkpt><trkpt lat="42.17746468014335" lon="13.278087414077746"><ele>824.4000000000001</ele><time>2026-05-02T14:20:03Z</time></trkpt><trkpt lat="42.17739612839474" lon="13.278224224290456"><ele>824.8</ele><time>2026-05-02T14:20:05Z</time></trkpt><trkpt lat="42.177347572117135" lon="13.278298543442729"><ele>825.2</ele><time>2026-05-02T14:20:06Z</time></trkpt><trkpt lat="42.17728213375261" lon="13.27835381309643"><ele>825.5999999999999</ele><time>2026-05-02T14:20:07Z</time></trkpt><trkpt lat="42.177218996790494" lon="13.278430345333469"><ele>826.0</ele><time>2026-05-02T14:20:08Z</time></trkpt><trkpt lat="42.17718099909825" lon="13.278550763678975"><ele>827.1666666666666</ele><time>2026-05-02T14:20:09Z</time></trkpt><trkpt lat="42.1771406075083" lon="13.278667194851671"><ele>828.3333333333333</ele><time>2026-05-02T14:20:10Z</time></trkpt><trkpt lat="42.177078593925145" lon="13.27877116405059"><ele>829.5</ele><time>2026-05-02T14:20:11Z</time></trkpt><trkpt lat="42.17703311560563" lon="13.278833784126993"><ele>830.6666666666667</ele><time>2026-05-02T14:20:12Z</time></trkpt><trkpt lat="42.17697700723778" lon="13.2788887921801"><ele>831.8333333333334</ele><time>2026-05-02T14:20:13Z</time></trkpt><trkpt lat="42.17692209892568" lon="13.278932784688585"><ele>833.0</ele><time>2026-05-02T14:20:14Z</time></trkpt><trkpt lat="42.17693413749386" lon="13.279073571672193"><ele>833.4</ele><time>2026-05-02T14:20:17Z</time></trkpt><trkpt lat="42.17700157106064" lon="13.279169348451997"><ele>833.8</ele><time>2026-05-02T14:20:19Z</time></trkpt><trkpt lat="42.17703650527637" lon="13.279297177338501"><ele>834.2</ele><time>2026-05-02T14:20:21Z</time></trkpt><trkpt lat="42.17709721205029" lon="13.27940821130745"><ele>834.6</ele><time>2026-05-02T14:20:23Z</time></trkpt><trkpt lat="42.17711162709139" lon="13.27949296071879"><ele>835.0</ele><time>2026-05-02T14:20:24Z</time></trkpt><trkpt lat="42.177163759012736" lon="13.279622789752093"><ele>835.2</ele><time>2026-05-02T14:20:26Z</time></trkpt><trkpt lat="42.17722717438115" lon="13.279767680288371"><ele>835.4</ele><time>2026-05-02T14:20:28Z</time></trkpt><trkpt lat="42.17726933032395" lon="13.279846517706323"><ele>835.5999999999999</ele><time>2026-05-02T14:20:29Z</time></trkpt><trkpt lat="42.17733315737358" lon="13.27994011365791"><ele>835.8</ele><time>2026-05-02T14:20:30Z</time></trkpt><trkpt lat="42.177396285733025" lon="13.28005724212408"><ele>836.0</ele><time>2026-05-02T14:20:31Z</time></trkpt><trkpt lat="42.17745171307658" lon="13.280168935756972"><ele>836.0</ele><time>2026-05-02T14:20:32Z</time></trkpt><trkpt lat="42.17751871444418" lon="13.280301964169665"><ele>836.0</ele><time>2026-05-02T14:20:33Z</time></trkpt><trkpt lat="42.17757142287458" lon="13.280415746058708"><ele>836.0</ele><time>2026-05-02T14:20:34Z</time></trkpt><trkpt lat="42.17763526841404" lon="13.280533131039096"><ele>836.0</ele><time>2026-05-02T14:20:35Z</time></trkpt><trkpt lat="42.177705788724474" lon="13.280651300694952"><ele>836.0</ele><time>2026-05-02T14:20:36Z</time></trkpt><trkpt lat="42.177767632965306" lon="13.2807612055772"><ele>836.5999999999999</ele><time>2026-05-02T14:20:37Z</time></trkpt><trkpt lat="42.177824394270274" lon="13.280883188917734"><ele>837.2</ele><time>2026-05-02T14:20:38Z</time></trkpt><trkpt lat="42.17788243074034" lon="13.280990149892764"><ele>837.8</ele><time>2026-05-02T14:20:39Z</time></trkpt><trkpt lat="42.177919118554215" lon="13.281100315327215"><ele>838.4000000000001</ele><time>2026-05-02T14:20:40Z</time></trkpt><trkpt lat="42.17795688159329" lon="13.281195587461424"><ele>839.0</ele><time>2026-05-02T14:20:41Z</time></trkpt><trkpt lat="42.177992945668876" lon="13.281301481135683"><ele>839.0000000000001</ele><time>2026-05-02T14:20:42Z</time></trkpt><trkpt lat="42.1780207864818" lon="13.281391799833807"><ele>839.0</ele><time>2026-05-02T14:20:43Z</time></trkpt><trkpt lat="42.17805941595345" lon="13.281535346035358"><ele>839.0</ele><time>2026-05-02T14:20:45Z</time></trkpt><trkpt lat="42.17808445826062" lon="13.281629719090736"><ele>839.0</ele><time>2026-05-02T14:20:46Z</time></trkpt><trkpt lat="42.17812349217444" lon="13.281786678133017"><ele>839.0000000000001</ele><time>2026-05-02T14:20:48Z</time></trkpt><trkpt lat="42.17814383759655" lon="13.28186768061043"><ele>839.0</ele><time>2026-05-02T14:20:49Z</time></trkpt><trkpt lat="42.17818909489555" lon="13.281969330847522"><ele>840.0</ele><time>2026-05-02T14:20:51Z</time></trkpt><trkpt lat="42.17822275016155" lon="13.282116677015118"><ele>841.0</ele><time>2026-05-02T14:20:52Z</time></trkpt><trkpt lat="42.17863374445617" lon="13.281831448564423"><ele>841.0</ele><time>2026-05-02T14:20:53Z</time></trkpt><trkpt lat="42.17873149312339" lon="13.28179760095058"><ele>841.0</ele><time>2026-05-02T14:20:55Z</time></trkpt><trkpt lat="42.178826338477634" lon="13.281730323678593"><ele>841.0</ele><time>2026-05-02T14:20:57Z</time></trkpt><trkpt lat="42.178878814848616" lon="13.281678781461975"><ele>841.0</ele><time>2026-05-02T14:20:58Z</time></trkpt><trkpt lat="42.178982782740164" lon="13.281594900557087"><ele>841.0</ele><time>2026-05-02T14:21:00Z</time></trkpt><trkpt lat="42.179065182593035" lon="13.281543533748179"><ele>839.8333333333333</ele><time>2026-05-02T14:21:02Z</time></trkpt><trkpt lat="42.17913215456633" lon="13.281575184672931"><ele>838.6666666666666</ele><time>2026-05-02T14:21:04Z</time></trkpt><trkpt lat="42.1791765236584" lon="13.28167164031783"><ele>837.5</ele><time>2026-05-02T14:21:07Z</time></trkpt><trkpt lat="42.17924120564411" lon="13.28177319170993"><ele>836.3333333333333</ele><time>2026-05-02T14:21:09Z</time></trkpt><trkpt lat="42.179300493162614" lon="13.281851597784136"><ele>835.1666666666666</ele><time>2026-05-02T14:21:11Z</time></trkpt><trkpt lat="42.17937583667225" lon="13.281808133474703"><ele>834.0</ele><time>2026-05-02T14:21:13Z</time></trkpt><trkpt lat="42.17941699704997" lon="13.281674690174201"><ele>834.0</ele><time>2026-05-02T14:21:15Z</time></trkpt><trkpt lat="42.179471351556565" lon="13.281520757454595"><ele>834.0</ele><time>2026-05-02T14:21:17Z</time></trkpt><trkpt lat="42.179515189709875" lon="13.281456510961771"><ele>834.0</ele><time>2026-05-02T14:21:18Z</time></trkpt><trkpt lat="42.17958829835109" lon="13.281388317116587"><ele>834.0</ele><time>2026-05-02T14:21:19Z</time></trkpt><trkpt lat="42.17961589041025" lon="13.281304602438977"><ele>834.0</ele><time>2026-05-02T14:21:21Z</time></trkpt><trkpt lat="42.17966700774263" lon="13.281223308906318"><ele>834.0</ele><time>2026-05-02T14:21:23Z</time></trkpt><trkpt lat="42.17976968027616" lon="13.280934021162667"><ele>833.0</ele><time>2026-05-02T14:21:24Z</time></trkpt><trkpt lat="42.17984145477084" lon="13.280783186404813"><ele>832.0</ele><time>2026-05-02T14:21:25Z</time></trkpt><trkpt lat="42.17992045420902" lon="13.280617786433035"><ele>831.0</ele><time>2026-05-02T14:21:26Z</time></trkpt><trkpt lat="42.18000796178856" lon="13.280444235831894"><ele>830.0</ele><time>2026-05-02T14:21:27Z</time></trkpt><trkpt lat="42.18009853846894" lon="13.280272318121705"><ele>828.75</ele><time>2026-05-02T14:21:28Z</time></trkpt><trkpt lat="42.18021572499785" lon="13.28014123348422"><ele>827.5</ele><time>2026-05-02T14:21:29Z</time></trkpt><trkpt lat="42.18032766806169" lon="13.28001090286828"><ele>826.25</ele><time>2026-05-02T14:21:30Z</time></trkpt><trkpt lat="42.18044314903812" lon="13.279899061544283"><ele>825.0</ele><time>2026-05-02T14:21:31Z</time></trkpt><trkpt lat="42.18055777858511" lon="13.279789341700447"><ele>824.2</ele><time>2026-05-02T14:21:32Z</time></trkpt><trkpt lat="42.18064330320954" lon="13.279668384156786"><ele>823.4</ele><time>2026-05-02T14:21:33Z</time></trkpt><trkpt lat="42.18069776664259" lon="13.279593104482997"><ele>822.5999999999999</ele><time>2026-05-02T14:21:34Z</time></trkpt><trkpt lat="42.18071916461163" lon="13.279437849481214"><ele>821.8</ele><time>2026-05-02T14:21:36Z</time></trkpt><trkpt lat="42.18068843921807" lon="13.2793188635522"><ele>821.0</ele><time>2026-05-02T14:21:37Z</time></trkpt><trkpt lat="42.18064160126655" lon="13.279195767577496"><ele>820.75</ele><time>2026-05-02T14:21:38Z</time></trkpt><trkpt lat="42.18060015012255" lon="13.279054229376262"><ele>820.5</ele><time>2026-05-02T14:21:39Z</time></trkpt><trkpt lat="42.180567399159386" lon="13.278888193245074"><ele>820.25</ele><time>2026-05-02T14:21:40Z</time></trkpt><trkpt lat="42.18057468621033" lon="13.27870945002964"><ele>820.0</ele><time>2026-05-02T14:21:41Z</time></trkpt><trkpt lat="42.180586975688335" lon="13.278509245768985"><ele>819.6666666666666</ele><time>2026-05-02T14:21:42Z</time></trkpt><trkpt lat="42.18061846712423" lon="13.278289719778709"><ele>819.3333333333333</ele><time>2026-05-02T14:21:43Z</time></trkpt><trkpt lat="42.18066242695205" lon="13.278070320717204"><ele>819.0</ele><time>2026-05-02T14:21:44Z</time></trkpt><trkpt lat="42.18069085847296" lon="13.277855072753956"><ele>817.6666666666667</ele><time>2026-05-02T14:21:45Z</time></trkpt><trkpt lat="42.18070999835444" lon="13.277644468396879"><ele>816.3333333333334</ele><time>2026-05-02T14:21:46Z</time></trkpt><trkpt lat="42.18074028614535" lon="13.277428676589635"><ele>815.0</ele><time>2026-05-02T14:21:47Z</time></trkpt><trkpt lat="42.180770320396455" lon="13.27720786472284"><ele>814.3333333333334</ele><time>2026-05-02T14:21:48Z</time></trkpt><trkpt lat="42.18080307020613" lon="13.276985273487405"><ele>813.6666666666667</ele><time>2026-05-02T14:21:49Z</time></trkpt><trkpt lat="42.18083843673183" lon="13.276763682677336"><ele>813.0</ele><time>2026-05-02T14:21:50Z</time></trkpt><trkpt lat="42.18087416404078" lon="13.276536222840297"><ele>812.3333333333333</ele><time>2026-05-02T14:21:51Z</time></trkpt><trkpt lat="42.18090853032416" lon="13.276307932556277"><ele>811.6666666666666</ele><time>2026-05-02T14:21:52Z</time></trkpt><trkpt lat="42.180944789869564" lon="13.276077644404964"><ele>811.0</ele><time>2026-05-02T14:21:53Z</time></trkpt><trkpt lat="42.1809847275592" lon="13.27585500758976"><ele>811.0</ele><time>2026-05-02T14:21:54Z</time></trkpt><trkpt lat="42.181026257829586" lon="13.275642188189428"><ele>811.0</ele><time>2026-05-02T14:21:55Z</time></trkpt><trkpt lat="42.18106591775419" lon="13.275439606761235"><ele>811.0</ele><time>2026-05-02T14:21:56Z</time></trkpt><trkpt lat="42.181108100298985" lon="13.275244365422704"><ele>810.5</ele><time>2026-05-02T14:21:57Z</time></trkpt><trkpt lat="42.18114701031442" lon="13.275056850644681"><ele>810.0</ele><time>2026-05-02T14:21:58Z</time></trkpt><trkpt lat="42.18118389271815" lon="13.274871325558102"><ele>809.5</ele><time>2026-05-02T14:21:59Z</time></trkpt><trkpt lat="42.18121922654842" lon="13.274696402565096"><ele>809.0</ele><time>2026-05-02T14:22:00Z</time></trkpt><trkpt lat="42.181258345494165" lon="13.27452915699097"><ele>808.3333333333334</ele><time>2026-05-02T14:22:01Z</time></trkpt><trkpt lat="42.18129511396878" lon="13.27437954257694"><ele>807.6666666666667</ele><time>2026-05-02T14:22:02Z</time></trkpt><trkpt lat="42.181328629876894" lon="13.274253654706552"><ele>807.0</ele><time>2026-05-02T14:22:03Z</time></trkpt><trkpt lat="42.18135741194619" lon="13.274149902530265"><ele>806.3333333333333</ele><time>2026-05-02T14:22:04Z</time></trkpt><trkpt lat="42.18137897906782" lon="13.274063632616102"><ele>805.6666666666666</ele><time>2026-05-02T14:22:05Z</time></trkpt><trkpt lat="42.18139772368781" lon="13.273962316084635"><ele>805.0</ele><time>2026-05-02T14:22:07Z</time></trkpt><trkpt lat="42.18140063183964" lon="13.273863036167521"><ele>804.6</ele><time>2026-05-02T14:22:11Z</time></trkpt><trkpt lat="42.18144444963318" lon="13.27373362775135"><ele>804.2</ele><time>2026-05-02T14:22:13Z</time></trkpt><trkpt lat="42.181554047578516" lon="13.273654926562248"><ele>803.8</ele><time>2026-05-02T14:22:15Z</time></trkpt><trkpt lat="42.18162411943068" lon="13.27360512710786"><ele>803.4</ele><time>2026-05-02T14:22:16Z</time></trkpt><trkpt lat="42.18169237975439" lon="13.273534181184646"><ele>803.0</ele><time>2026-05-02T14:22:17Z</time></trkpt><trkpt lat="42.18168635502921" lon="13.27333667007731"><ele>803.0000000000001</ele><time>2026-05-02T14:22:18Z</time></trkpt><trkpt lat="42.1817415731896" lon="13.273259855491428"><ele>803.0</ele><time>2026-05-02T14:22:19Z</time></trkpt><trkpt lat="42.18177509598286" lon="13.273178121734503"><ele>803.0</ele><time>2026-05-02T14:22:20Z</time></trkpt><trkpt lat="42.18180946589555" lon="13.273088303023803"><ele>803.0</ele><time>2026-05-02T14:22:21Z</time></trkpt><trkpt lat="42.18184093814289" lon="13.273013980085652"><ele>803.0000000000001</ele><time>2026-05-02T14:22:22Z</time></trkpt><trkpt lat="42.181896613185245" lon="13.272882501305176"><ele>803.0</ele><time>2026-05-02T14:22:24Z</time></trkpt><trkpt lat="42.18192932751" lon="13.272805245154819"><ele>802.75</ele><time>2026-05-02T14:22:25Z</time></trkpt><trkpt lat="42.18214719153741" lon="13.272844208521073"><ele>802.5</ele><time>2026-05-02T14:22:26Z</time></trkpt><trkpt lat="42.182212394777814" lon="13.272760544808095"><ele>802.25</ele><time>2026-05-02T14:22:27Z</time></trkpt><trkpt lat="42.18229504485213" lon="13.27268546765807"><ele>802.0</ele><time>2026-05-02T14:22:28Z</time></trkpt><trkpt lat="42.1823921654888" lon="13.272613885261475"><ele>802.0</ele><time>2026-05-02T14:22:29Z</time></trkpt><trkpt lat="42.182485020924375" lon="13.272534801604284"><ele>802.0</ele><time>2026-05-02T14:22:30Z</time></trkpt><trkpt lat="42.18256131968734" lon="13.272439971486444"><ele>802.0</ele><time>2026-05-02T14:22:31Z</time></trkpt><trkpt lat="42.18262830925624" lon="13.272314465255713"><ele>802.0</ele><time>2026-05-02T14:22:32Z</time></trkpt><trkpt lat="42.182706467245254" lon="13.2721789221047"><ele>802.0</ele><time>2026-05-02T14:22:33Z</time></trkpt><trkpt lat="42.18279993859891" lon="13.272056522389821"><ele>802.0</ele><time>2026-05-02T14:22:34Z</time></trkpt><trkpt lat="42.18288114398263" lon="13.271942923302369"><ele>802.0</ele><time>2026-05-02T14:22:35Z</time></trkpt><trkpt lat="42.18294273761609" lon="13.271836451205898"><ele>802.0</ele><time>2026-05-02T14:22:36Z</time></trkpt><trkpt lat="42.18299202243555" lon="13.271736351889981"><ele>802.0</ele><time>2026-05-02T14:22:37Z</time></trkpt><trkpt lat="42.18303806482832" lon="13.271637651211664"><ele>802.0</ele><time>2026-05-02T14:22:38Z</time></trkpt><trkpt lat="42.18308778844785" lon="13.271522016891167"><ele>802.0</ele><time>2026-05-02T14:22:39Z</time></trkpt><trkpt lat="42.18312872587503" lon="13.27139808203613"><ele>802.0</ele><time>2026-05-02T14:22:40Z</time></trkpt><trkpt lat="42.183172642926834" lon="13.27127324574738"><ele>802.0</ele><time>2026-05-02T14:22:41Z</time></trkpt><trkpt lat="42.183226963863646" lon="13.271168178091829"><ele>802.0</ele><time>2026-05-02T14:22:42Z</time></trkpt><trkpt lat="42.18328318767946" lon="13.271086682797868"><ele>801.6666666666666</ele><time>2026-05-02T14:22:43Z</time></trkpt><trkpt lat="42.183339526431915" lon="13.271020146971152"><ele>801.3333333333333</ele><time>2026-05-02T14:22:44Z</time></trkpt><trkpt lat="42.18344544797632" lon="13.270951523182344"><ele>801.0</ele><time>2026-05-02T14:22:46Z</time></trkpt><trkpt lat="42.183514264241765" lon="13.270940550260534"><ele>800.6666666666667</ele><time>2026-05-02T14:22:47Z</time></trkpt><trkpt lat="42.1835970183527" lon="13.27093422085268"><ele>800.3333333333334</ele><time>2026-05-02T14:22:48Z</time></trkpt><trkpt lat="42.18369017033209" lon="13.27093736758568"><ele>800.0</ele><time>2026-05-02T14:22:49Z</time></trkpt><trkpt lat="42.183793958211965" lon="13.270948198147659"><ele>800.0</ele><time>2026-05-02T14:22:50Z</time></trkpt><trkpt lat="42.18390533768827" lon="13.270943975571365"><ele>800.0</ele><time>2026-05-02T14:22:51Z</time></trkpt><trkpt lat="42.184016167594834" lon="13.270926118173263"><ele>800.0</ele><time>2026-05-02T14:22:52Z</time></trkpt><trkpt lat="42.18412172380303" lon="13.270908304932883"><ele>800.0</ele><time>2026-05-02T14:22:53Z</time></trkpt><trkpt lat="42.18421658247023" lon="13.270894890779982"><ele>800.0</ele><time>2026-05-02T14:22:54Z</time></trkpt><trkpt lat="42.18430550671779" lon="13.270873990402706"><ele>800.0</ele><time>2026-05-02T14:22:55Z</time></trkpt><trkpt lat="42.184391265985305" lon="13.270831025070567"><ele>800.0</ele><time>2026-05-02T14:22:56Z</time></trkpt><trkpt lat="42.18448686402121" lon="13.270763921201148"><ele>800.0</ele><time>2026-05-02T14:22:57Z</time></trkpt><trkpt lat="42.18458276380576" lon="13.270686533886106"><ele>800.0</ele><time>2026-05-02T14:22:58Z</time></trkpt><trkpt lat="42.18468231772398" lon="13.270599681928774"><ele>800.0</ele><time>2026-05-02T14:22:59Z</time></trkpt><trkpt lat="42.18478639723179" lon="13.270497631961817"><ele>800.5</ele><time>2026-05-02T14:23:00Z</time></trkpt><trkpt lat="42.184891091046836" lon="13.270392423866356"><ele>801.0</ele><time>2026-05-02T14:23:01Z</time></trkpt><trkpt lat="42.18498937640374" lon="13.270290438533031"><ele>801.5</ele><time>2026-05-02T14:23:02Z</time></trkpt><trkpt lat="42.185082194991146" lon="13.270198972373182"><ele>802.0</ele><time>2026-05-02T14:23:03Z</time></trkpt><trkpt lat="42.18517260551408" lon="13.270113455705697"><ele>802.0</ele><time>2026-05-02T14:23:04Z</time></trkpt><trkpt lat="42.18527161909875" lon="13.270035036195495"><ele>802.0</ele><time>2026-05-02T14:23:05Z</time></trkpt><trkpt lat="42.1853795719307" lon="13.26995665617734"><ele>802.0</ele><time>2026-05-02T14:23:06Z</time></trkpt><trkpt lat="42.185490989168215" lon="13.269879824066177"><ele>802.0</ele><time>2026-05-02T14:23:07Z</time></trkpt><trkpt lat="42.18560315742932" lon="13.26980001221519"><ele>802.25</ele><time>2026-05-02T14:23:08Z</time></trkpt><trkpt lat="42.18571403248099" lon="13.26972080975168"><ele>802.5</ele><time>2026-05-02T14:23:09Z</time></trkpt><trkpt lat="42.18582301154386" lon="13.269650711996515"><ele>802.75</ele><time>2026-05-02T14:23:10Z</time></trkpt><trkpt lat="42.18593222846694" lon="13.269581272249214"><ele>803.0</ele><time>2026-05-02T14:23:11Z</time></trkpt><trkpt lat="42.186034311674604" lon="13.269514066701923"><ele>803.0</ele><time>2026-05-02T14:23:12Z</time></trkpt><trkpt lat="42.186129217457676" lon="13.269454658019185"><ele>803.0</ele><time>2026-05-02T14:23:13Z</time></trkpt><trkpt lat="42.18621802118261" lon="13.26938427757824"><ele>803.0</ele><time>2026-05-02T14:23:14Z</time></trkpt><trkpt lat="42.18630714374369" lon="13.269333855445643"><ele>803.0</ele><time>2026-05-02T14:23:15Z</time></trkpt><trkpt lat="42.18640030588277" lon="13.269285678314583"><ele>803.0</ele><time>2026-05-02T14:23:16Z</time></trkpt><trkpt lat="42.186489697871465" lon="13.269232317261526"><ele>803.0</ele><time>2026-05-02T14:23:17Z</time></trkpt><trkpt lat="42.18658451814573" lon="13.269180056457774"><ele>803.0</ele><time>2026-05-02T14:23:18Z</time></trkpt><trkpt lat="42.18668110460438" lon="13.269128507390295"><ele>803.0</ele><time>2026-05-02T14:23:19Z</time></trkpt><trkpt lat="42.1867685863498" lon="13.26907289951661"><ele>803.0</ele><time>2026-05-02T14:23:20Z</time></trkpt><trkpt lat="42.18685679050354" lon="13.269001002448356"><ele>803.0</ele><time>2026-05-02T14:23:21Z</time></trkpt><trkpt lat="42.18694750414971" lon="13.268916483328562"><ele>802.8</ele><time>2026-05-02T14:23:22Z</time></trkpt><trkpt lat="42.18703964323859" lon="13.268829667994986"><ele>802.5999999999999</ele><time>2026-05-02T14:23:23Z</time></trkpt><trkpt lat="42.18711849037561" lon="13.26875284007555"><ele>802.4000000000001</ele><time>2026-05-02T14:23:24Z</time></trkpt><trkpt lat="42.187205982165295" lon="13.268673593836178"><ele>802.2</ele><time>2026-05-02T14:23:25Z</time></trkpt><trkpt lat="42.18729753135722" lon="13.268594335447574"><ele>802.0</ele><time>2026-05-02T14:23:26Z</time></trkpt><trkpt lat="42.18738533938504" lon="13.268530335061637"><ele>802.0</ele><time>2026-05-02T14:23:27Z</time></trkpt><trkpt lat="42.18747909994559" lon="13.26846057696726"><ele>802.0</ele><time>2026-05-02T14:23:28Z</time></trkpt><trkpt lat="42.187570041994704" lon="13.268387450099699"><ele>802.0</ele><time>2026-05-02T14:23:29Z</time></trkpt><trkpt lat="42.18765268922579" lon="13.268320917102667"><ele>802.0</ele><time>2026-05-02T14:23:30Z</time></trkpt><trkpt lat="42.1877379646405" lon="13.268250268915363"><ele>802.0</ele><time>2026-05-02T14:23:31Z</time></trkpt><trkpt lat="42.18782053751554" lon="13.268179471444142"><ele>802.0</ele><time>2026-05-02T14:23:32Z</time></trkpt><trkpt lat="42.18789650011984" lon="13.268117797546536"><ele>802.0</ele><time>2026-05-02T14:23:33Z</time></trkpt><trkpt lat="42.18795927123614" lon="13.26806162971079"><ele>802.0</ele><time>2026-05-02T14:23:34Z</time></trkpt><trkpt lat="42.18801977154911" lon="13.26801035244116"><ele>802.0</ele><time>2026-05-02T14:23:35Z</time></trkpt><trkpt lat="42.18811534701366" lon="13.267924958693879"><ele>802.0</ele><time>2026-05-02T14:23:37Z</time></trkpt><trkpt lat="42.18824065552331" lon="13.267881236713041"><ele>802.4999999999999</ele><time>2026-05-02T14:23:39Z</time></trkpt><trkpt lat="42.1883113257704" lon="13.267868298101568"><ele>803.0</ele><time>2026-05-02T14:23:40Z</time></trkpt><trkpt lat="42.18837964430825" lon="13.267850366762431"><ele>803.5</ele><time>2026-05-02T14:23:41Z</time></trkpt><trkpt lat="42.188439932661666" lon="13.26782589606259"><ele>804.0</ele><time>2026-05-02T14:23:42Z</time></trkpt><trkpt lat="42.18855460052769" lon="13.267775939199904"><ele>804.4999999999999</ele><time>2026-05-02T14:23:44Z</time></trkpt><trkpt lat="42.18866545820027" lon="13.26773181105339"><ele>805.0</ele><time>2026-05-02T14:23:46Z</time></trkpt><trkpt lat="42.188753366476504" lon="13.267697933065921"><ele>805.0</ele><time>2026-05-02T14:23:48Z</time></trkpt><trkpt lat="42.188810291723016" lon="13.26765576222573"><ele>805.0</ele><time>2026-05-02T14:23:51Z</time></trkpt><trkpt lat="42.18887120408718" lon="13.26760799767256"><ele>805.0</ele><time>2026-05-02T14:23:55Z</time></trkpt><trkpt lat="42.188940748364004" lon="13.267551118756627"><ele>805.0</ele><time>2026-05-02T14:23:57Z</time></trkpt><trkpt lat="42.1889933657315" lon="13.267502645053488"><ele>805.0</ele><time>2026-05-02T14:23:58Z</time></trkpt><trkpt lat="42.1890526084748" lon="13.267462839617547"><ele>805.0</ele><time>2026-05-02T14:23:59Z</time></trkpt><trkpt lat="42.18912645457199" lon="13.267465802737899"><ele>805.0</ele><time>2026-05-02T14:24:00Z</time></trkpt><trkpt lat="42.18919334424946" lon="13.267369360116605"><ele>805.2</ele><time>2026-05-02T14:24:01Z</time></trkpt><trkpt lat="42.18927142450491" lon="13.267317307434434"><ele>805.4</ele><time>2026-05-02T14:24:02Z</time></trkpt><trkpt lat="42.18936057446387" lon="13.267249786627389"><ele>805.5999999999999</ele><time>2026-05-02T14:24:03Z</time></trkpt><trkpt lat="42.18944779681748" lon="13.267162367048606"><ele>805.8</ele><time>2026-05-02T14:24:04Z</time></trkpt><trkpt lat="42.18953630788603" lon="13.26706924731423"><ele>806.0</ele><time>2026-05-02T14:24:05Z</time></trkpt><trkpt lat="42.18962525037058" lon="13.266974034822503"><ele>805.5999999999999</ele><time>2026-05-02T14:24:06Z</time></trkpt><trkpt lat="42.189716546131436" lon="13.26688008719679"><ele>805.2</ele><time>2026-05-02T14:24:07Z</time></trkpt><trkpt lat="42.18980847166841" lon="13.266798718547234"><ele>804.8</ele><time>2026-05-02T14:24:08Z</time></trkpt><trkpt lat="42.1898903675689" lon="13.266727162117252"><ele>804.4000000000001</ele><time>2026-05-02T14:24:09Z</time></trkpt><trkpt lat="42.18997401584671" lon="13.26666523051151"><ele>804.0</ele><time>2026-05-02T14:24:10Z</time></trkpt><trkpt lat="42.19006173805044" lon="13.266612888380791"><ele>804.3333333333334</ele><time>2026-05-02T14:24:11Z</time></trkpt><trkpt lat="42.190151585543745" lon="13.266565411434918"><ele>804.6666666666667</ele><time>2026-05-02T14:24:12Z</time></trkpt><trkpt lat="42.190233767418086" lon="13.26652795774332"><ele>805.0</ele><time>2026-05-02T14:24:13Z</time></trkpt><trkpt lat="42.19030010537022" lon="13.266492448926"><ele>805.3333333333334</ele><time>2026-05-02T14:24:14Z</time></trkpt><trkpt lat="42.19036383314991" lon="13.266437084702265"><ele>805.6666666666667</ele><time>2026-05-02T14:24:15Z</time></trkpt><trkpt lat="42.19042184968995" lon="13.266358692404815"><ele>806.0</ele><time>2026-05-02T14:24:16Z</time></trkpt><trkpt lat="42.190477528383184" lon="13.266278630697458"><ele>806.0</ele><time>2026-05-02T14:24:17Z</time></trkpt><trkpt lat="42.1905509496001" lon="13.266195063925682"><ele>806.0</ele><time>2026-05-02T14:24:18Z</time></trkpt><trkpt lat="42.190631808112414" lon="13.266122271463907"><ele>806.0</ele><time>2026-05-02T14:24:19Z</time></trkpt><trkpt lat="42.190717965645064" lon="13.266045022087528"><ele>806.0</ele><time>2026-05-02T14:24:20Z</time></trkpt><trkpt lat="42.19079295561628" lon="13.265961321046364"><ele>806.0</ele><time>2026-05-02T14:24:21Z</time></trkpt><trkpt lat="42.19086818376041" lon="13.265861290113982"><ele>806.1999999999999</ele><time>2026-05-02T14:24:22Z</time></trkpt><trkpt lat="42.19093712347917" lon="13.26576360449264"><ele>806.4</ele><time>2026-05-02T14:24:23Z</time></trkpt><trkpt lat="42.19100317628509" lon="13.265669531161858"><ele>806.6</ele><time>2026-05-02T14:24:24Z</time></trkpt><trkpt lat="42.191067320487946" lon="13.265580977580797"><ele>806.8</ele><time>2026-05-02T14:24:25Z</time></trkpt><trkpt lat="42.191135016289735" lon="13.265495306267436"><ele>807.0</ele><time>2026-05-02T14:24:26Z</time></trkpt><trkpt lat="42.191214311733894" lon="13.265413069521143"><ele>807.0</ele><time>2026-05-02T14:24:27Z</time></trkpt><trkpt lat="42.191294138096396" lon="13.26532553982498"><ele>807.0</ele><time>2026-05-02T14:24:28Z</time></trkpt><trkpt lat="42.19136900660239" lon="13.265228024013682"><ele>807.0</ele><time>2026-05-02T14:24:29Z</time></trkpt><trkpt lat="42.19143647898543" lon="13.265124747689518"><ele>807.0</ele><time>2026-05-02T14:24:30Z</time></trkpt><trkpt lat="42.19149942050299" lon="13.265011477841094"><ele>807.0</ele><time>2026-05-02T14:24:31Z</time></trkpt><trkpt lat="42.191561215629775" lon="13.264899245680473"><ele>807.3333333333334</ele><time>2026-05-02T14:24:32Z</time></trkpt><trkpt lat="42.191614701448266" lon="13.26481007479395"><ele>807.6666666666667</ele><time>2026-05-02T14:24:33Z</time></trkpt><trkpt lat="42.1916734440635" lon="13.264733310126239"><ele>808.0</ele><time>2026-05-02T14:24:34Z</time></trkpt><trkpt lat="42.19174389640466" lon="13.264662733074529"><ele>808.3333333333334</ele><time>2026-05-02T14:24:35Z</time></trkpt><trkpt lat="42.191822234350056" lon="13.264614061072539"><ele>808.6666666666667</ele><time>2026-05-02T14:24:36Z</time></trkpt><trkpt lat="42.1919074428838" lon="13.264559010476015"><ele>809.0</ele><time>2026-05-02T14:24:37Z</time></trkpt><trkpt lat="42.1919924860667" lon="13.264495611545165"><ele>809.0</ele><time>2026-05-02T14:24:38Z</time></trkpt><trkpt lat="42.19207967859761" lon="13.264429446449933"><ele>809.0</ele><time>2026-05-02T14:24:39Z</time></trkpt><trkpt lat="42.19216471162965" lon="13.264382528470305"><ele>809.0</ele><time>2026-05-02T14:24:40Z</time></trkpt><trkpt lat="42.19225439299861" lon="13.264349447814178"><ele>809.0</ele><time>2026-05-02T14:24:41Z</time></trkpt><trkpt lat="42.192342640842256" lon="13.264313545926612"><ele>809.0</ele><time>2026-05-02T14:24:42Z</time></trkpt><trkpt lat="42.192431032720705" lon="13.264269720160424"><ele>809.6666666666667</ele><time>2026-05-02T14:24:43Z</time></trkpt><trkpt lat="42.192518736806164" lon="13.264227221175172"><ele>810.3333333333334</ele><time>2026-05-02T14:24:43.999Z</time></trkpt><trkpt lat="42.19259867132674" lon="13.264175919187894"><ele>811.0</ele><time>2026-05-02T14:24:44.999Z</time></trkpt><trkpt lat="42.19267694477263" lon="13.264123050119961"><ele>811.6666666666667</ele><time>2026-05-02T14:24:45.999Z</time></trkpt><trkpt lat="42.192757033514695" lon="13.264070575564773"><ele>812.3333333333334</ele><time>2026-05-02T14:24:46.999Z</time></trkpt><trkpt lat="42.192830819664415" lon="13.264031510972444"><ele>813.0</ele><time>2026-05-02T14:24:47.999Z</time></trkpt><trkpt lat="42.192918136220385" lon="13.263984931435479"><ele>813.0</ele><time>2026-05-02T14:24:48.999Z</time></trkpt><trkpt lat="42.19300304622018" lon="13.263940474877083"><ele>813.0</ele><time>2026-05-02T14:24:49.999Z</time></trkpt><trkpt lat="42.193085007691394" lon="13.26389779343658"><ele>813.0</ele><time>2026-05-02T14:24:50.999Z</time></trkpt><trkpt lat="42.193170056442376" lon="13.26384605875705"><ele>813.0</ele><time>2026-05-02T14:24:51.999Z</time></trkpt><trkpt lat="42.19325440854801" lon="13.263783736796064"><ele>813.0</ele><time>2026-05-02T14:24:52.999Z</time></trkpt><trkpt lat="42.1933355515254" lon="13.26372124166104"><ele>813.2</ele><time>2026-05-02T14:24:53.999Z</time></trkpt><trkpt lat="42.19341898791058" lon="13.263654262795985"><ele>813.4</ele><time>2026-05-02T14:24:54.999Z</time></trkpt><trkpt lat="42.193503424306776" lon="13.263581984610603"><ele>813.6</ele><time>2026-05-02T14:24:55.999Z</time></trkpt><trkpt lat="42.19357857264005" lon="13.263515683226874"><ele>813.8000000000001</ele><time>2026-05-02T14:24:56.999Z</time></trkpt><trkpt lat="42.193668218910084" lon="13.263438794319905"><ele>814.0</ele><time>2026-05-02T14:24:57.999Z</time></trkpt><trkpt lat="42.19375206567814" lon="13.263363361583314"><ele>813.9999999999999</ele><time>2026-05-02T14:24:58.999Z</time></trkpt><trkpt lat="42.19383149620239" lon="13.263300105016732"><ele>814.0</ele><time>2026-05-02T14:24:59.999Z</time></trkpt><trkpt lat="42.19390783099138" lon="13.263242405359026"><ele>814.0</ele><time>2026-05-02T14:25:00.999Z</time></trkpt><trkpt lat="42.193983052324654" lon="13.26319215658815"><ele>814.0</ele><time>2026-05-02T14:25:01.999Z</time></trkpt><trkpt lat="42.19406058385058" lon="13.263145189704392"><ele>813.9999999999999</ele><time>2026-05-02T14:25:02.999Z</time></trkpt><trkpt lat="42.19413203918076" lon="13.263089251943095"><ele>814.0</ele><time>2026-05-02T14:25:03.999Z</time></trkpt><trkpt lat="42.1941914802299" lon="13.263033556789178"><ele>814.1666666666666</ele><time>2026-05-02T14:25:04.999Z</time></trkpt><trkpt lat="42.194252413617136" lon="13.262998049353914"><ele>814.3333333333333</ele><time>2026-05-02T14:25:05.999Z</time></trkpt><trkpt lat="42.19432172282182" lon="13.262983171510228"><ele>814.5</ele><time>2026-05-02T14:25:06.999Z</time></trkpt><trkpt lat="42.19440504575126" lon="13.262977334566369"><ele>814.6666666666667</ele><time>2026-05-02T14:25:07.999Z</time></trkpt><trkpt lat="42.19448007623033" lon="13.262975579051421"><ele>814.8333333333334</ele><time>2026-05-02T14:25:08.999Z</time></trkpt><trkpt lat="42.19455955868945" lon="13.26295492087489"><ele>815.0</ele><time>2026-05-02T14:25:09.999Z</time></trkpt><trkpt lat="42.19463666011638" lon="13.262923134906542"><ele>815.0</ele><time>2026-05-02T14:25:10.999Z</time></trkpt><trkpt lat="42.19470909974922" lon="13.262886662183696"><ele>815.0</ele><time>2026-05-02T14:25:11.999Z</time></trkpt><trkpt lat="42.194771649007556" lon="13.262861325907574"><ele>815.0</ele><time>2026-05-02T14:25:12.999Z</time></trkpt><trkpt lat="42.19484006483747" lon="13.2628438596462"><ele>815.0</ele><time>2026-05-02T14:25:13.999Z</time></trkpt><trkpt lat="42.19491173194206" lon="13.262834794125508"><ele>815.0</ele><time>2026-05-02T14:25:14.999Z</time></trkpt><trkpt lat="42.19498196203901" lon="13.262830357908555"><ele>815.0</ele><time>2026-05-02T14:25:15.999Z</time></trkpt><trkpt lat="42.19505671236802" lon="13.262846916774427"><ele>815.0</ele><time>2026-05-02T14:25:16.999Z</time></trkpt><trkpt lat="42.19512974098643" lon="13.262875181772095"><ele>815.0000000000001</ele><time>2026-05-02T14:25:17.999Z</time></trkpt><trkpt lat="42.19520523708545" lon="13.262912093357349"><ele>815.0</ele><time>2026-05-02T14:25:18.999Z</time></trkpt><trkpt lat="42.19527732267286" lon="13.262945163449027"><ele>815.0</ele><time>2026-05-02T14:25:19.999Z</time></trkpt><trkpt lat="42.19533662866898" lon="13.26297715878456"><ele>815.0</ele><time>2026-05-02T14:25:20.999Z</time></trkpt><trkpt lat="42.195415377809546" lon="13.262992868742183"><ele>815.0000000000001</ele><time>2026-05-02T14:25:22.999Z</time></trkpt><trkpt lat="42.19549955474697" lon="13.262914243178145"><ele>815.0</ele><time>2026-05-02T14:25:24.999Z</time></trkpt><trkpt lat="42.19553870759891" lon="13.262844759094545"><ele>815.0</ele><time>2026-05-02T14:25:25.999Z</time></trkpt><trkpt lat="42.19557176652752" lon="13.262756518629637"><ele>815.0</ele><time>2026-05-02T14:25:26.999Z</time></trkpt><trkpt lat="42.19561141449155" lon="13.262652085433974"><ele>815.0</ele><time>2026-05-02T14:25:27.999Z</time></trkpt><trkpt lat="42.19565306575921" lon="13.262532150376831"><ele>815.0</ele><time>2026-05-02T14:25:28.999Z</time></trkpt><trkpt lat="42.19570056679682" lon="13.262396983023542"><ele>815.0</ele><time>2026-05-02T14:25:29.999Z</time></trkpt><trkpt lat="42.19574544870853" lon="13.262266780820347"><ele>815.0</ele><time>2026-05-02T14:25:30.999Z</time></trkpt><trkpt lat="42.195797577163574" lon="13.262142346482527"><ele>815.0</ele><time>2026-05-02T14:25:31.999Z</time></trkpt><trkpt lat="42.19585249810444" lon="13.262016845409299"><ele>815.0</ele><time>2026-05-02T14:25:32.999Z</time></trkpt><trkpt lat="42.195899432132045" lon="13.261902970412336"><ele>815.0</ele><time>2026-05-02T14:25:33.999Z</time></trkpt><trkpt lat="42.19594877288537" lon="13.2617807930852"><ele>815.0</ele><time>2026-05-02T14:25:34.999Z</time></trkpt><trkpt lat="42.195978369521775" lon="13.261655559631585"><ele>815.0000000000001</ele><time>2026-05-02T14:25:35.999Z</time></trkpt><trkpt lat="42.19601260247054" lon="13.261531733960718"><ele>815.0</ele><time>2026-05-02T14:25:36.999Z</time></trkpt><trkpt lat="42.196045493984485" lon="13.261426623532435"><ele>815.0</ele><time>2026-05-02T14:25:37.999Z</time></trkpt><trkpt lat="42.196082916543254" lon="13.261321196180742"><ele>815.0</ele><time>2026-05-02T14:25:38.999Z</time></trkpt><trkpt lat="42.19612146155085" lon="13.261215452218893"><ele>815.0000000000001</ele><time>2026-05-02T14:25:39.999Z</time></trkpt><trkpt lat="42.19615269696518" lon="13.261099485628849"><ele>815.0</ele><time>2026-05-02T14:25:40.999Z</time></trkpt><trkpt lat="42.196172908942586" lon="13.260978655353645"><ele>814.8333333333334</ele><time>2026-05-02T14:25:41.999Z</time></trkpt><trkpt lat="42.19619145272477" lon="13.260856053202435"><ele>814.6666666666667</ele><time>2026-05-02T14:25:42.999Z</time></trkpt><trkpt lat="42.19620948924386" lon="13.260741870823104"><ele>814.5</ele><time>2026-05-02T14:25:43.999Z</time></trkpt><trkpt lat="42.196225532934456" lon="13.260646234246444"><ele>814.3333333333333</ele><time>2026-05-02T14:25:44.999Z</time></trkpt><trkpt lat="42.19624893058506" lon="13.260556562504448"><ele>814.1666666666666</ele><time>2026-05-02T14:25:45.999Z</time></trkpt><trkpt lat="42.19631057927729" lon="13.260450833917721"><ele>814.0</ele><time>2026-05-02T14:25:47.999Z</time></trkpt><trkpt lat="42.196394020820215" lon="13.260392793632109"><ele>813.4999999999999</ele><time>2026-05-02T14:25:49.999Z</time></trkpt><trkpt lat="42.19648895821051" lon="13.26037272347898"><ele>813.0</ele><time>2026-05-02T14:25:51.999Z</time></trkpt><trkpt lat="42.19658493000224" lon="13.26035028016381"><ele>812.5</ele><time>2026-05-02T14:25:53.999Z</time></trkpt><trkpt lat="42.19669780700185" lon="13.260355031178069"><ele>812.0</ele><time>2026-05-02T14:25:55.999Z</time></trkpt><trkpt lat="42.1967673631003" lon="13.26036398257155"><ele>811.4999999999999</ele><time>2026-05-02T14:25:56.999Z</time></trkpt><trkpt lat="42.196839860490826" lon="13.260353792259831"><ele>811.0</ele><time>2026-05-02T14:25:57.999Z</time></trkpt><trkpt lat="42.19692184808207" lon="13.260325546619757"><ele>810.9999999999999</ele><time>2026-05-02T14:25:58.999Z</time></trkpt><trkpt lat="42.19699525810224" lon="13.26029414676098"><ele>811.0</ele><time>2026-05-02T14:25:59.999Z</time></trkpt><trkpt lat="42.197076576697015" lon="13.260266499216113"><ele>811.0</ele><time>2026-05-02T14:26:00.999Z</time></trkpt><trkpt lat="42.197159985796034" lon="13.26023393185595"><ele>811.0</ele><time>2026-05-02T14:26:01.999Z</time></trkpt><trkpt lat="42.19724563400061" lon="13.260200754238417"><ele>810.9999999999999</ele><time>2026-05-02T14:26:02.999Z</time></trkpt><trkpt lat="42.19733700081097" lon="13.260164229994093"><ele>811.0</ele><time>2026-05-02T14:26:03.999Z</time></trkpt><trkpt lat="42.19741842852997" lon="13.260119267338554"><ele>811.0</ele><time>2026-05-02T14:26:04.999Z</time></trkpt><trkpt lat="42.19750986826202" lon="13.260060068129622"><ele>811.0</ele><time>2026-05-02T14:26:05.999Z</time></trkpt><trkpt lat="42.19759597038914" lon="13.259994234486816"><ele>811.0</ele><time>2026-05-02T14:26:06.999Z</time></trkpt><trkpt lat="42.19767406638343" lon="13.259923093664787"><ele>811.0</ele><time>2026-05-02T14:26:07.999Z</time></trkpt><trkpt lat="42.1977518923232" lon="13.259848946260815"><ele>811.0</ele><time>2026-05-02T14:26:08.999Z</time></trkpt><trkpt lat="42.19781778200747" lon="13.259775812608636"><ele>811.4</ele><time>2026-05-02T14:26:09.999Z</time></trkpt><trkpt lat="42.19789354590521" lon="13.259697858708579"><ele>811.8</ele><time>2026-05-02T14:26:10.999Z</time></trkpt><trkpt lat="42.197968442808694" lon="13.259624216852679"><ele>812.1999999999999</ele><time>2026-05-02T14:26:11.999Z</time></trkpt><trkpt lat="42.19803876316574" lon="13.259556413431145"><ele>812.5999999999999</ele><time>2026-05-02T14:26:12.999Z</time></trkpt><trkpt lat="42.19809693936474" lon="13.25950113378258"><ele>813.0</ele><time>2026-05-02T14:26:13.999Z</time></trkpt><trkpt lat="42.19820153413554" lon="13.259421346184407"><ele>813.0</ele><time>2026-05-02T14:26:15.999Z</time></trkpt><trkpt lat="42.198322670498534" lon="13.259403316085374"><ele>813.0</ele><time>2026-05-02T14:26:17.999Z</time></trkpt><trkpt lat="42.19839613148085" lon="13.259426822356428"><ele>813.0</ele><time>2026-05-02T14:26:18.999Z</time></trkpt><trkpt lat="42.19847880164249" lon="13.25944311314197"><ele>813.0</ele><time>2026-05-02T14:26:19.999Z</time></trkpt><trkpt lat="42.19856204397646" lon="13.259429152789863"><ele>813.0</ele><time>2026-05-02T14:26:20.999Z</time></trkpt><trkpt lat="42.19864927957164" lon="13.259392491313571"><ele>813.0</ele><time>2026-05-02T14:26:21.999Z</time></trkpt><trkpt lat="42.19873480876717" lon="13.259349384730443"><ele>813.0</ele><time>2026-05-02T14:26:22.999Z</time></trkpt><trkpt lat="42.1988015945127" lon="13.259313669814706"><ele>813.0</ele><time>2026-05-02T14:26:23.999Z</time></trkpt><trkpt lat="42.19889217100146" lon="13.259266245681742"><ele>813.0</ele><time>2026-05-02T14:26:25.999Z</time></trkpt><trkpt lat="42.1990049692137" lon="13.259184883294123"><ele>813.0</ele><time>2026-05-02T14:26:27.999Z</time></trkpt><trkpt lat="42.19909197379523" lon="13.259123851557781"><ele>813.5999999999999</ele><time>2026-05-02T14:26:28.999Z</time></trkpt><trkpt lat="42.199182134862596" lon="13.259062128973945"><ele>814.1999999999999</ele><time>2026-05-02T14:26:29.999Z</time></trkpt><trkpt lat="42.19926528373928" lon="13.259009795397237"><ele>814.8</ele><time>2026-05-02T14:26:30.999Z</time></trkpt><trkpt lat="42.199348134593386" lon="13.25898334364482"><ele>815.4</ele><time>2026-05-02T14:26:31.999Z</time></trkpt><trkpt lat="42.19943795276853" lon="13.258998075994526"><ele>816.0</ele><time>2026-05-02T14:26:32.999Z</time></trkpt><trkpt lat="42.19953552433355" lon="13.259027479832994"><ele>816.0</ele><time>2026-05-02T14:26:33.999Z</time></trkpt><trkpt lat="42.19963465322082" lon="13.259070040796809"><ele>816.0</ele><time>2026-05-02T14:26:34.999Z</time></trkpt><trkpt lat="42.19972039122584" lon="13.259126143582385"><ele>816.0</ele><time>2026-05-02T14:26:35.999Z</time></trkpt><trkpt lat="42.19978325600496" lon="13.259183983930155"><ele>816.0</ele><time>2026-05-02T14:26:37Z</time></trkpt><trkpt lat="42.19986275539682" lon="13.259270277008184"><ele>816.0</ele><time>2026-05-02T14:26:39Z</time></trkpt><trkpt lat="42.19991922327126" lon="13.259317005715694"><ele>816.0</ele><time>2026-05-02T14:26:43Z</time></trkpt><trkpt lat="42.19995699179556" lon="13.259148976163377"><ele>815.8</ele><time>2026-05-02T14:26:45Z</time></trkpt><trkpt lat="42.199901866591816" lon="13.259047093586274"><ele>815.5999999999999</ele><time>2026-05-02T14:26:46Z</time></trkpt><trkpt lat="42.19985839053389" lon="13.258935970789942"><ele>815.4</ele><time>2026-05-02T14:26:47Z</time></trkpt><trkpt lat="42.199820025029496" lon="13.258801255101185"><ele>815.2</ele><time>2026-05-02T14:26:48Z</time></trkpt><trkpt lat="42.199781228116066" lon="13.258663655373875"><ele>815.0</ele><time>2026-05-02T14:26:49Z</time></trkpt><trkpt lat="42.199743341207636" lon="13.2585271439052"><ele>815.0000000000001</ele><time>2026-05-02T14:26:50Z</time></trkpt><trkpt lat="42.199706835593425" lon="13.25839441493787"><ele>815.0</ele><time>2026-05-02T14:26:51Z</time></trkpt><trkpt lat="42.199670009111955" lon="13.258279365756255"><ele>815.0</ele><time>2026-05-02T14:26:52Z</time></trkpt><trkpt lat="42.199634404140575" lon="13.258178838781703"><ele>815.0</ele><time>2026-05-02T14:26:53Z</time></trkpt><trkpt lat="42.19960017361544" lon="13.258094458192222"><ele>815.0000000000001</ele><time>2026-05-02T14:26:54Z</time></trkpt><trkpt lat="42.19956988973433" lon="13.258015418395999"><ele>815.0</ele><time>2026-05-02T14:26:55Z</time></trkpt><trkpt lat="42.19957386504218" lon="13.257852740262761"><ele>815.3333333333334</ele><time>2026-05-02T14:26:57Z</time></trkpt><trkpt lat="42.19958879328677" lon="13.257749487001416"><ele>815.6666666666667</ele><time>2026-05-02T14:26:58Z</time></trkpt><trkpt lat="42.19961073625163" lon="13.257645568829682"><ele>816.0</ele><time>2026-05-02T14:26:59Z</time></trkpt><trkpt lat="42.19963896225338" lon="13.257550043400734"><ele>816.3333333333333</ele><time>2026-05-02T14:27:00Z</time></trkpt><trkpt lat="42.19966645233113" lon="13.257464102783123"><ele>816.6666666666666</ele><time>2026-05-02T14:27:01Z</time></trkpt><trkpt lat="42.19971467220087" lon="13.257317420684782"><ele>817.0</ele><time>2026-05-02T14:27:03Z</time></trkpt><trkpt lat="42.199804649581225" lon="13.257242919762474"><ele>818.0</ele><time>2026-05-02T14:27:05Z</time></trkpt><trkpt lat="42.199863665811854" lon="13.257192174016518"><ele>819.0</ele><time>2026-05-02T14:27:07Z</time></trkpt><trkpt lat="42.19980981995272" lon="13.257053087901811"><ele>820.0</ele><time>2026-05-02T14:27:10Z</time></trkpt><trkpt lat="42.199739317955306" lon="13.256913385780704"><ele>821.0</ele><time>2026-05-02T14:27:12Z</time></trkpt><trkpt lat="42.19969546897375" lon="13.256845066493469"><ele>822.0</ele><time>2026-05-02T14:27:13Z</time></trkpt><trkpt lat="42.19964496756028" lon="13.256741295066256"><ele>822.0</ele><time>2026-05-02T14:27:15Z</time></trkpt><trkpt lat="42.1996955546614" lon="13.256665607636034"><ele>822.0</ele><time>2026-05-02T14:27:18Z</time></trkpt><trkpt lat="42.19979304603007" lon="13.256743326776322"><ele>822.0</ele><time>2026-05-02T14:27:20Z</time></trkpt><trkpt lat="42.19988929561523" lon="13.256840704996307"><ele>822.0</ele><time>2026-05-02T14:27:22Z</time></trkpt><trkpt lat="42.20000078587841" lon="13.256910513605904"><ele>822.0</ele><time>2026-05-02T14:27:24Z</time></trkpt><trkpt lat="42.200065376692756" lon="13.256927246499"><ele>824.1428571428571</ele><time>2026-05-02T14:27:25Z</time></trkpt><trkpt lat="42.200131525149224" lon="13.256941474541865"><ele>826.2857142857142</ele><time>2026-05-02T14:27:26Z</time></trkpt><trkpt lat="42.20020216855728" lon="13.256957066942203"><ele>828.4285714285714</ele><time>2026-05-02T14:27:27Z</time></trkpt><trkpt lat="42.200272764061985" lon="13.256973705358046"><ele>830.5714285714286</ele><time>2026-05-02T14:27:28Z</time></trkpt><trkpt lat="42.200345387634066" lon="13.256986411056964"><ele>832.7142857142858</ele><time>2026-05-02T14:27:29Z</time></trkpt><trkpt lat="42.200418127920386" lon="13.256997115977889"><ele>834.8571428571429</ele><time>2026-05-02T14:27:30Z</time></trkpt><trkpt lat="42.20049626294427" lon="13.25700809817873"><ele>837.0</ele><time>2026-05-02T14:27:31Z</time></trkpt><trkpt lat="42.20057685713619" lon="13.25702192730325"><ele>837.0</ele><time>2026-05-02T14:27:32Z</time></trkpt><trkpt lat="42.2006580215062" lon="13.25703335963998"><ele>837.0</ele><time>2026-05-02T14:27:33Z</time></trkpt><trkpt lat="42.20074131895982" lon="13.25704153975156"><ele>837.0</ele><time>2026-05-02T14:27:34Z</time></trkpt><trkpt lat="42.200818123353905" lon="13.257051095605375"><ele>837.0</ele><time>2026-05-02T14:27:35Z</time></trkpt><trkpt lat="42.20088168920931" lon="13.25706325393738"><ele>837.0</ele><time>2026-05-02T14:27:36Z</time></trkpt><trkpt lat="42.20096737444124" lon="13.257111335457271"><ele>837.0</ele><time>2026-05-02T14:27:38Z</time></trkpt><trkpt lat="42.201052371463334" lon="13.257197173755985"><ele>840.2</ele><time>2026-05-02T14:27:40Z</time></trkpt><trkpt lat="42.20098624753492" lon="13.257130168487345"><ele>843.4000000000001</ele><time>2026-05-02T14:28:00Z</time></trkpt><trkpt lat="42.20091545384544" lon="13.25708630611341"><ele>846.5999999999999</ele><time>2026-05-02T14:28:04Z</time></trkpt><trkpt lat="42.20086215088669" lon="13.25703246645583"><ele>849.8</ele><time>2026-05-02T14:28:06Z</time></trkpt><trkpt lat="42.20093148164592" lon="13.257102495263164"><ele>853.0</ele><time>2026-05-02T14:28:22Z</time></trkpt><trkpt lat="42.20108702795055" lon="13.257212852757021"><ele>853.0</ele><time>2026-05-02T14:28:23Z</time></trkpt><trkpt lat="42.20115885122667" lon="13.25723262875166"><ele>853.0</ele><time>2026-05-02T14:28:24Z</time></trkpt><trkpt lat="42.20122225538568" lon="13.257251225690508"><ele>853.0</ele><time>2026-05-02T14:28:25Z</time></trkpt><trkpt lat="42.20132339872845" lon="13.25728141044098"><ele>853.0</ele><time>2026-05-02T14:28:27Z</time></trkpt><trkpt lat="42.201429863978646" lon="13.257318076132044"><ele>853.0</ele><time>2026-05-02T14:28:29Z</time></trkpt><trkpt lat="42.20160595148355" lon="13.25735679292203"><ele>851.75</ele><time>2026-05-02T14:28:30Z</time></trkpt><trkpt lat="42.20176305918024" lon="13.257362337557426"><ele>850.5</ele><time>2026-05-02T14:28:34Z</time></trkpt><trkpt lat="42.20183103613359" lon="13.25738364781379"><ele>849.25</ele><time>2026-05-02T14:28:35Z</time></trkpt><trkpt lat="42.20195968709881" lon="13.257417341896518"><ele>848.0</ele><time>2026-05-02T14:28:36Z</time></trkpt><trkpt lat="42.20210086367632" lon="13.25744352082637"><ele>877.0</ele><time>2026-05-02T14:28:37Z</time></trkpt><trkpt lat="42.20236368309831" lon="13.256788573524808"><ele>877.0</ele><time>2026-05-02T14:28:41Z</time></trkpt><trkpt lat="42.202476918508474" lon="13.256729634627616"><ele>877.0</ele><time>2026-05-02T14:28:43Z</time></trkpt><trkpt lat="42.202603391009816" lon="13.256698823936738"><ele>877.0</ele><time>2026-05-02T14:28:45Z</time></trkpt><trkpt lat="42.20266818341039" lon="13.256689992392413"><ele>877.0</ele><time>2026-05-02T14:28:46Z</time></trkpt><trkpt lat="42.202776884055524" lon="13.256637999261493"><ele>877.0</ele><time>2026-05-02T14:28:48Z</time></trkpt><trkpt lat="42.20284532864517" lon="13.256549664032583"><ele>878.8333333333333</ele><time>2026-05-02T14:28:50Z</time></trkpt><trkpt lat="42.202912819764684" lon="13.256424166508952"><ele>880.6666666666666</ele><time>2026-05-02T14:28:52Z</time></trkpt><trkpt lat="42.20295606249899" lon="13.256350623112741"><ele>882.5</ele><time>2026-05-02T14:28:53Z</time></trkpt><trkpt lat="42.20301934936959" lon="13.256209897281995"><ele>884.3333333333333</ele><time>2026-05-02T14:28:55Z</time></trkpt><trkpt lat="42.2030622259274" lon="13.256137368146002"><ele>886.1666666666666</ele><time>2026-05-02T14:28:56Z</time></trkpt><trkpt lat="42.2030955401583" lon="13.256052575712957"><ele>888.0</ele><time>2026-05-02T14:28:57Z</time></trkpt><trkpt lat="42.20314890514245" lon="13.25596847850027"><ele>887.0</ele><time>2026-05-02T14:28:58Z</time></trkpt><trkpt lat="42.203216271631334" lon="13.255878272859851"><ele>886.0</ele><time>2026-05-02T14:28:59Z</time></trkpt><trkpt lat="42.20325927279636" lon="13.25580239054522"><ele>885.0</ele><time>2026-05-02T14:29:00Z</time></trkpt><trkpt lat="42.203327625946805" lon="13.25567160326327"><ele>884.0</ele><time>2026-05-02T14:29:02Z</time></trkpt><trkpt lat="42.203363844968905" lon="13.255535064402961"><ele>883.0</ele><time>2026-05-02T14:29:04Z</time></trkpt><trkpt lat="42.20331885692302" lon="13.255445518889415"><ele>884.5714285714286</ele><time>2026-05-02T14:29:05Z</time></trkpt><trkpt lat="42.20328769356721" lon="13.25534974695322"><ele>886.1428571428571</ele><time>2026-05-02T14:29:06Z</time></trkpt><trkpt lat="42.20328382509079" lon="13.255247596609781"><ele>887.7142857142857</ele><time>2026-05-02T14:29:07Z</time></trkpt><trkpt lat="42.20327359279981" lon="13.25515626711357"><ele>889.2857142857142</ele><time>2026-05-02T14:29:08Z</time></trkpt><trkpt lat="42.203264516916825" lon="13.255070589699235"><ele>890.8571428571429</ele><time>2026-05-02T14:29:09Z</time></trkpt><trkpt lat="42.20324867919227" lon="13.254986430378308"><ele>892.4285714285713</ele><time>2026-05-02T14:29:10Z</time></trkpt><trkpt lat="42.203294883082854" lon="13.254890935126586"><ele>894.0</ele><time>2026-05-02T14:29:12Z</time></trkpt><trkpt lat="42.20336561209396" lon="13.254996518813067"><ele>894.0</ele><time>2026-05-02T14:29:15Z</time></trkpt><trkpt lat="42.20342392481901" lon="13.255070795233527"><ele>894.0000000000001</ele><time>2026-05-02T14:29:18Z</time></trkpt><trkpt lat="42.203512204620665" lon="13.255183244521147"><ele>894.0000000000001</ele><time>2026-05-02T14:29:20Z</time></trkpt><trkpt lat="42.2036210022248" lon="13.2551874125674"><ele>894.0</ele><time>2026-05-02T14:29:21Z</time></trkpt><trkpt lat="42.2036933376223" lon="13.255224645159311"><ele>894.0</ele><time>2026-05-02T14:29:22Z</time></trkpt><trkpt lat="42.20376335395362" lon="13.255289276007048"><ele>894.0</ele><time>2026-05-02T14:29:23Z</time></trkpt><trkpt lat="42.20384860232264" lon="13.255369700011327"><ele>894.0</ele><time>2026-05-02T14:29:24Z</time></trkpt><trkpt lat="42.20393857868813" lon="13.255463672577337"><ele>894.0</ele><time>2026-05-02T14:29:25Z</time></trkpt><trkpt lat="42.20402469608511" lon="13.255573946903242"><ele>894.0</ele><time>2026-05-02T14:29:26Z</time></trkpt><trkpt lat="42.20410612212606" lon="13.255700200735973"><ele>895.5</ele><time>2026-05-02T14:29:27Z</time></trkpt><trkpt lat="42.20418952769815" lon="13.255823469028593"><ele>897.0</ele><time>2026-05-02T14:29:28Z</time></trkpt><trkpt lat="42.204293541348456" lon="13.255926795497516"><ele>898.5</ele><time>2026-05-02T14:29:29Z</time></trkpt><trkpt lat="42.20440881066696" lon="13.256031769511313"><ele>900.0</ele><time>2026-05-02T14:29:30Z</time></trkpt><trkpt lat="42.20454455625191" lon="13.256115819976651"><ele>900.0</ele><time>2026-05-02T14:29:31Z</time></trkpt><trkpt lat="42.204678297152455" lon="13.256202007673073"><ele>900.0</ele><time>2026-05-02T14:29:32Z</time></trkpt><trkpt lat="42.204796847703854" lon="13.2562950554688"><ele>900.0</ele><time>2026-05-02T14:29:33Z</time></trkpt><trkpt lat="42.20489528856636" lon="13.256398167889179"><ele>900.0</ele><time>2026-05-02T14:29:34Z</time></trkpt><trkpt lat="42.20499337007044" lon="13.256511535332802"><ele>902.5</ele><time>2026-05-02T14:29:35Z</time></trkpt><trkpt lat="42.2050672346755" lon="13.256650309194617"><ele>905.0</ele><time>2026-05-02T14:29:36Z</time></trkpt><trkpt lat="42.20513913483002" lon="13.25678946663538"><ele>907.5</ele><time>2026-05-02T14:29:37Z</time></trkpt><trkpt lat="42.20520720599958" lon="13.256934092479362"><ele>910.0</ele><time>2026-05-02T14:29:38Z</time></trkpt><trkpt lat="42.20528223855318" lon="13.257072941641052"><ele>910.0</ele><time>2026-05-02T14:29:39Z</time></trkpt><trkpt lat="42.205343714866764" lon="13.257218751123492"><ele>910.0</ele><time>2026-05-02T14:29:40Z</time></trkpt><trkpt lat="42.205377574646725" lon="13.257379273134227"><ele>910.0</ele><time>2026-05-02T14:29:41Z</time></trkpt><trkpt lat="42.20544110499053" lon="13.257511597484767"><ele>910.0</ele><time>2026-05-02T14:29:42Z</time></trkpt><trkpt lat="42.20549680512921" lon="13.257636494752827"><ele>907.6</ele><time>2026-05-02T14:29:43Z</time></trkpt><trkpt lat="42.20556112341731" lon="13.257742444220701"><ele>905.2</ele><time>2026-05-02T14:29:44Z</time></trkpt><trkpt lat="42.20560910657887" lon="13.257838261309118"><ele>902.8</ele><time>2026-05-02T14:29:45Z</time></trkpt><trkpt lat="42.20568664809252" lon="13.257897891865454"><ele>900.4</ele><time>2026-05-02T14:29:46Z</time></trkpt><trkpt lat="42.2057917207374" lon="13.257913729295561"><ele>898.0</ele><time>2026-05-02T14:29:47Z</time></trkpt><trkpt lat="42.20589084467654" lon="13.257964886395488"><ele>901.8</ele><time>2026-05-02T14:29:48Z</time></trkpt><trkpt lat="42.20598994004183" lon="13.258027648018707"><ele>905.5999999999999</ele><time>2026-05-02T14:29:49Z</time></trkpt><trkpt lat="42.20607067593664" lon="13.258114956059785"><ele>909.4000000000001</ele><time>2026-05-02T14:29:50Z</time></trkpt><trkpt lat="42.20614780171344" lon="13.25816862726743"><ele>913.2</ele><time>2026-05-02T14:29:51Z</time></trkpt><trkpt lat="42.20617037605514" lon="13.25828192753608"><ele>917.0</ele><time>2026-05-02T14:29:52Z</time></trkpt><trkpt lat="42.20617683042222" lon="13.258400521248833"><ele>917.0</ele><time>2026-05-02T14:29:53Z</time></trkpt><trkpt lat="42.20616610123532" lon="13.258546899759837"><ele>917.0</ele><time>2026-05-02T14:29:54Z</time></trkpt><trkpt lat="42.20615867577417" lon="13.258708182701293"><ele>917.0</ele><time>2026-05-02T14:29:55Z</time></trkpt><trkpt lat="42.20615040764235" lon="13.258888595719554"><ele>917.0</ele><time>2026-05-02T14:29:56Z</time></trkpt><trkpt lat="42.20614158752935" lon="13.259074810308876"><ele>915.5</ele><time>2026-05-02T14:29:57Z</time></trkpt><trkpt lat="42.2061398136461" lon="13.259263450418327"><ele>914.0</ele><time>2026-05-02T14:29:58Z</time></trkpt><trkpt lat="42.20615583522084" lon="13.25943152200875"><ele>912.5</ele><time>2026-05-02T14:29:59Z</time></trkpt><trkpt lat="42.206169750625776" lon="13.259578632719577"><ele>911.0</ele><time>2026-05-02T14:30:00Z</time></trkpt><trkpt lat="42.206182672863925" lon="13.25971065368697"><ele>909.8</ele><time>2026-05-02T14:30:01Z</time></trkpt><trkpt lat="42.206244215032505" lon="13.259828943922997"><ele>908.5999999999999</ele><time>2026-05-02T14:30:02Z</time></trkpt><trkpt lat="42.20631701198506" lon="13.259939337023436"><ele>907.4</ele><time>2026-05-02T14:30:03Z</time></trkpt><trkpt lat="42.20639444578489" lon="13.260050993478208"><ele>906.2</ele><time>2026-05-02T14:30:04Z</time></trkpt><trkpt lat="42.206485211507115" lon="13.260146828939758"><ele>905.0</ele><time>2026-05-02T14:30:05Z</time></trkpt><trkpt lat="42.20656398783725" lon="13.260261655281795"><ele>909.2</ele><time>2026-05-02T14:30:06Z</time></trkpt><trkpt lat="42.206638911550954" lon="13.260370718646334"><ele>913.4</ele><time>2026-05-02T14:30:07Z</time></trkpt><trkpt lat="42.20671496223751" lon="13.26048119210558"><ele>917.5999999999999</ele><time>2026-05-02T14:30:08Z</time></trkpt><trkpt lat="42.2067772295315" lon="13.260609396809695"><ele>921.8</ele><time>2026-05-02T14:30:09Z</time></trkpt><trkpt lat="42.20684624394846" lon="13.260720546097055"><ele>926.0</ele><time>2026-05-02T14:30:10Z</time></trkpt><trkpt lat="42.206909026823126" lon="13.260824387186142"><ele>926.0</ele><time>2026-05-02T14:30:11Z</time></trkpt><trkpt lat="42.206971249080866" lon="13.260927300789417"><ele>925.9999999999999</ele><time>2026-05-02T14:30:12Z</time></trkpt><trkpt lat="42.20703326838511" lon="13.261032015414603"><ele>925.9999999999999</ele><time>2026-05-02T14:30:13Z</time></trkpt><trkpt lat="42.20709651846438" lon="13.261146861690797"><ele>926.0</ele><time>2026-05-02T14:30:14Z</time></trkpt><trkpt lat="42.20715903088851" lon="13.261271802361515"><ele>926.0</ele><time>2026-05-02T14:30:15Z</time></trkpt><trkpt lat="42.20722256885175" lon="13.261398129965611"><ele>928.8333333333334</ele><time>2026-05-02T14:30:16Z</time></trkpt><trkpt lat="42.20728275601603" lon="13.26151354633409"><ele>931.6666666666667</ele><time>2026-05-02T14:30:17Z</time></trkpt><trkpt lat="42.207336616613134" lon="13.261612820805631"><ele>934.5</ele><time>2026-05-02T14:30:18Z</time></trkpt><trkpt lat="42.20739170764153" lon="13.261703283327572"><ele>937.3333333333333</ele><time>2026-05-02T14:30:19Z</time></trkpt><trkpt lat="42.20744914655639" lon="13.261779674018658"><ele>940.1666666666666</ele><time>2026-05-02T14:30:20Z</time></trkpt><trkpt lat="42.207502785694196" lon="13.261833179373607"><ele>943.0</ele><time>2026-05-02T14:30:21Z</time></trkpt><trkpt lat="42.207590479590586" lon="13.261900111464087"><ele>942.9999999999999</ele><time>2026-05-02T14:30:23Z</time></trkpt><trkpt lat="42.207688349598534" lon="13.261908697581953"><ele>943.0</ele><time>2026-05-02T14:30:25Z</time></trkpt><trkpt lat="42.20773544123763" lon="13.26184792471813"><ele>943.0</ele><time>2026-05-02T14:30:26Z</time></trkpt><trkpt lat="42.20782661886784" lon="13.261757689051338"><ele>943.0</ele><time>2026-05-02T14:30:28Z</time></trkpt><trkpt lat="42.20787817873825" lon="13.261676963859584"><ele>942.9999999999999</ele><time>2026-05-02T14:30:30Z</time></trkpt><trkpt lat="42.20790088766062" lon="13.261567653533373"><ele>943.0</ele><time>2026-05-02T14:30:32Z</time></trkpt><trkpt lat="42.20782524537756" lon="13.261493831758502"><ele>943.0</ele><time>2026-05-02T14:30:34Z</time></trkpt><trkpt lat="42.207742648310585" lon="13.26157044214905"><ele>943.0</ele><time>2026-05-02T14:30:36Z</time></trkpt><trkpt lat="42.20767971258467" lon="13.261612326955477"><ele>943.0</ele><time>2026-05-02T14:30:38Z</time></trkpt><trkpt lat="42.207608173040896" lon="13.261529464170694"><ele>943.0</ele><time>2026-05-02T14:30:40Z</time></trkpt><trkpt lat="42.20757508694376" lon="13.2614155287782"><ele>943.0</ele><time>2026-05-02T14:30:41Z</time></trkpt><trkpt lat="42.20754456084089" lon="13.261270861634078"><ele>943.0</ele><time>2026-05-02T14:30:42Z</time></trkpt><trkpt lat="42.20750110000173" lon="13.261109858902174"><ele>943.0</ele><time>2026-05-02T14:30:43Z</time></trkpt><trkpt lat="42.207433003252376" lon="13.260955027999422"><ele>943.0</ele><time>2026-05-02T14:30:44Z</time></trkpt><trkpt lat="42.20735468153259" lon="13.260787888774471"><ele>943.0</ele><time>2026-05-02T14:30:45Z</time></trkpt><trkpt lat="42.20726713690326" lon="13.260604538729428"><ele>943.0</ele><time>2026-05-02T14:30:46Z</time></trkpt><trkpt lat="42.20717937541927" lon="13.260412720291157"><ele>943.0</ele><time>2026-05-02T14:30:47Z</time></trkpt><trkpt lat="42.20710784749289" lon="13.260226705052133"><ele>943.0</ele><time>2026-05-02T14:30:48Z</time></trkpt><trkpt lat="42.2070530910693" lon="13.260038707085466"><ele>943.0</ele><time>2026-05-02T14:30:49Z</time></trkpt><trkpt lat="42.20700950882802" lon="13.259872687327245"><ele>943.0</ele><time>2026-05-02T14:30:50Z</time></trkpt><trkpt lat="42.20697083537472" lon="13.259736379893381"><ele>943.0</ele><time>2026-05-02T14:30:51Z</time></trkpt><trkpt lat="42.20692962672207" lon="13.259613478546207"><ele>943.0</ele><time>2026-05-02T14:30:52Z</time></trkpt><trkpt lat="42.20690421563368" lon="13.2594916776871"><ele>943.0</ele><time>2026-05-02T14:30:53Z</time></trkpt><trkpt lat="42.20691749361827" lon="13.259376749313354"><ele>944.5999999999999</ele><time>2026-05-02T14:30:54Z</time></trkpt><trkpt lat="42.20696414335007" lon="13.259264706971134"><ele>946.1999999999999</ele><time>2026-05-02T14:30:55Z</time></trkpt><trkpt lat="42.207012057543636" lon="13.259140165545476"><ele>947.8</ele><time>2026-05-02T14:30:56Z</time></trkpt><trkpt lat="42.20706371121137" lon="13.259011910807825"><ele>949.4</ele><time>2026-05-02T14:30:57Z</time></trkpt><trkpt lat="42.20711714063506" lon="13.258892159770507"><ele>951.0</ele><time>2026-05-02T14:30:58Z</time></trkpt><trkpt lat="42.2071687182353" lon="13.258783482098655"><ele>951.0</ele><time>2026-05-02T14:30:59Z</time></trkpt><trkpt lat="42.2072025249806" lon="13.25866912377574"><ele>950.9999999999999</ele><time>2026-05-02T14:31:00Z</time></trkpt><trkpt lat="42.20722158595071" lon="13.258543955686408"><ele>950.9999999999999</ele><time>2026-05-02T14:31:01Z</time></trkpt><trkpt lat="42.20724691746917" lon="13.258415922748659"><ele>951.0</ele><time>2026-05-02T14:31:02Z</time></trkpt><trkpt lat="42.207268046192844" lon="13.25828466513957"><ele>951.0</ele><time>2026-05-02T14:31:03Z</time></trkpt><trkpt lat="42.207281330806765" lon="13.258155366026012"><ele>953.5</ele><time>2026-05-02T14:31:04Z</time></trkpt><trkpt lat="42.207291035971956" lon="13.25803419270721"><ele>956.0</ele><time>2026-05-02T14:31:05Z</time></trkpt><trkpt lat="42.20729508878208" lon="13.257922586235575"><ele>958.5</ele><time>2026-05-02T14:31:06Z</time></trkpt><trkpt lat="42.20728772760949" lon="13.257808191373382"><ele>961.0</ele><time>2026-05-02T14:31:07Z</time></trkpt><trkpt lat="42.20726355212459" lon="13.257690643504619"><ele>963.5</ele><time>2026-05-02T14:31:08Z</time></trkpt><trkpt lat="42.2072166199168" lon="13.257587799778092"><ele>966.0</ele><time>2026-05-02T14:31:09Z</time></trkpt><trkpt lat="42.207147197575864" lon="13.257488132721019"><ele>966.0</ele><time>2026-05-02T14:31:10Z</time></trkpt><trkpt lat="42.20706142902247" lon="13.257367558134375"><ele>966.0</ele><time>2026-05-02T14:31:11Z</time></trkpt><trkpt lat="42.20696834551384" lon="13.257239993523417"><ele>966.0</ele><time>2026-05-02T14:31:12Z</time></trkpt><trkpt lat="42.20686474519787" lon="13.257108461646427"><ele>966.0</ele><time>2026-05-02T14:31:13Z</time></trkpt><trkpt lat="42.206762809845465" lon="13.256980345694041"><ele>971.25</ele><time>2026-05-02T14:31:14Z</time></trkpt><trkpt lat="42.20668387766499" lon="13.256862810614647"><ele>976.5</ele><time>2026-05-02T14:31:15Z</time></trkpt><trkpt lat="42.20662364088572" lon="13.256723682775645"><ele>981.75</ele><time>2026-05-02T14:31:16Z</time></trkpt><trkpt lat="42.206572530056754" lon="13.256565410187353"><ele>987.0</ele><time>2026-05-02T14:31:17Z</time></trkpt><trkpt lat="42.206522037624715" lon="13.256385856531963"><ele>984.0</ele><time>2026-05-02T14:31:18Z</time></trkpt><trkpt lat="42.20648181815024" lon="13.256190951154064"><ele>981.0</ele><time>2026-05-02T14:31:19Z</time></trkpt><trkpt lat="42.206447029061486" lon="13.255990778719138"><ele>978.0</ele><time>2026-05-02T14:31:20Z</time></trkpt><trkpt lat="42.20643098742034" lon="13.255797217447078"><ele>975.0</ele><time>2026-05-02T14:31:21Z</time></trkpt><trkpt lat="42.20643809590714" lon="13.255606083873015"><ele>975.0</ele><time>2026-05-02T14:31:22Z</time></trkpt><trkpt lat="42.20645783767216" lon="13.255405974901523"><ele>975.0</ele><time>2026-05-02T14:31:23Z</time></trkpt><trkpt lat="42.20647503737367" lon="13.255202017432497"><ele>975.0</ele><time>2026-05-02T14:31:24Z</time></trkpt><trkpt lat="42.20647292726191" lon="13.254996866859694"><ele>976.0</ele><time>2026-05-02T14:31:25Z</time></trkpt><trkpt lat="42.20644844677347" lon="13.254785352970552"><ele>977.0</ele><time>2026-05-02T14:31:26Z</time></trkpt><trkpt lat="42.20642178522649" lon="13.254586108974879"><ele>978.0</ele><time>2026-05-02T14:31:27Z</time></trkpt><trkpt lat="42.20640163163562" lon="13.254415418559011"><ele>979.0</ele><time>2026-05-02T14:31:28Z</time></trkpt><trkpt lat="42.20639281918535" lon="13.25426137422717"><ele>979.0</ele><time>2026-05-02T14:31:29Z</time></trkpt><trkpt lat="42.20640263694427" lon="13.254105684881933"><ele>979.0</ele><time>2026-05-02T14:31:30Z</time></trkpt><trkpt lat="42.206424845725415" lon="13.253942492164448"><ele>979.0</ele><time>2026-05-02T14:31:31Z</time></trkpt><trkpt lat="42.206455303413094" lon="13.253777803679434"><ele>979.0</ele><time>2026-05-02T14:31:32Z</time></trkpt><trkpt lat="42.20649400313998" lon="13.253615530404831"><ele>985.0</ele><time>2026-05-02T14:31:33Z</time></trkpt><trkpt lat="42.20654673016048" lon="13.253445958943898"><ele>991.0</ele><time>2026-05-02T14:31:34Z</time></trkpt><trkpt lat="42.20661104803356" lon="13.253274057417054"><ele>997.0</ele><time>2026-05-02T14:31:35Z</time></trkpt><trkpt lat="42.20666775123398" lon="13.253114989626228"><ele>1003.0</ele><time>2026-05-02T14:31:36Z</time></trkpt><trkpt lat="42.20671132883811" lon="13.252976857586004"><ele>1002.9999999999999</ele><time>2026-05-02T14:31:37Z</time></trkpt><trkpt lat="42.20674732762507" lon="13.252854357950303"><ele>1003.0</ele><time>2026-05-02T14:31:38Z</time></trkpt><trkpt lat="42.20679355503069" lon="13.252772216300091"><ele>1003.0</ele><time>2026-05-02T14:31:39Z</time></trkpt><trkpt lat="42.20683469340441" lon="13.252660315324393"><ele>1003.0</ele><time>2026-05-02T14:31:41Z</time></trkpt><trkpt lat="42.20684641933929" lon="13.252809248221242"><ele>1002.9999999999999</ele><time>2026-05-02T14:31:45Z</time></trkpt><trkpt lat="42.20683171306224" lon="13.25289979648945"><ele>1003.0</ele><time>2026-05-02T14:31:46Z</time></trkpt><trkpt lat="42.206828306426026" lon="13.2529878904686"><ele>1002.9999999999999</ele><time>2026-05-02T14:31:47Z</time></trkpt><trkpt lat="42.206822570650026" lon="13.253085798755107"><ele>1003.0</ele><time>2026-05-02T14:31:49Z</time></trkpt><trkpt lat="42.20682097318171" lon="13.253176953893979"><ele>1003.0</ele><time>2026-05-02T14:31:51Z</time></trkpt><trkpt lat="42.20679760915357" lon="13.25330034831633"><ele>1003.0</ele><time>2026-05-02T14:31:53Z</time></trkpt><trkpt lat="42.206798592543755" lon="13.253465274714726"><ele>1002.9999999999999</ele><time>2026-05-02T14:31:55Z</time></trkpt><trkpt lat="42.206827973175834" lon="13.253553195429413"><ele>1003.0</ele><time>2026-05-02T14:31:56Z</time></trkpt><trkpt lat="42.20682949582129" lon="13.253643434531414"><ele>1003.8333333333333</ele><time>2026-05-02T14:31:57Z</time></trkpt><trkpt lat="42.20683903658998" lon="13.253731530919952"><ele>1004.6666666666666</ele><time>2026-05-02T14:31:58Z</time></trkpt><trkpt lat="42.206842551350476" lon="13.253823545226533"><ele>1005.5</ele><time>2026-05-02T14:31:59Z</time></trkpt><trkpt lat="42.20686390723714" lon="13.253916767300437"><ele>1006.3333333333333</ele><time>2026-05-02T14:32:00Z</time></trkpt><trkpt lat="42.20694464756284" lon="13.254047702953008"><ele>1007.1666666666666</ele><time>2026-05-02T14:32:02Z</time></trkpt><trkpt lat="42.20700423933902" lon="13.254173479172257"><ele>1008.0</ele><time>2026-05-02T14:32:04Z</time></trkpt><trkpt lat="42.20701680336541" lon="13.25425787314168"><ele>1007.6666666666666</ele><time>2026-05-02T14:32:05Z</time></trkpt><trkpt lat="42.207030137468585" lon="13.254342416233523"><ele>1007.3333333333333</ele><time>2026-05-02T14:32:06Z</time></trkpt><trkpt lat="42.20703843852598" lon="13.254449865294358"><ele>1007.0</ele><time>2026-05-02T14:32:07Z</time></trkpt><trkpt lat="42.20705862322553" lon="13.254569718489822"><ele>1006.6666666666666</ele><time>2026-05-02T14:32:08Z</time></trkpt><trkpt lat="42.20711039918947" lon="13.254690776361453"><ele>1006.3333333333333</ele><time>2026-05-02T14:32:09Z</time></trkpt><trkpt lat="42.207152932991185" lon="13.254825758410322"><ele>1006.0</ele><time>2026-05-02T14:32:10Z</time></trkpt><trkpt lat="42.20720038753101" lon="13.254961134905995"><ele>1006.0</ele><time>2026-05-02T14:32:11Z</time></trkpt><trkpt lat="42.207212165722524" lon="13.255105199187565"><ele>1005.9999999999999</ele><time>2026-05-02T14:32:12Z</time></trkpt><trkpt lat="42.20723206232831" lon="13.255235756081943"><ele>1005.9999999999999</ele><time>2026-05-02T14:32:13Z</time></trkpt><trkpt lat="42.20725293830101" lon="13.255363603541223"><ele>1006.0</ele><time>2026-05-02T14:32:14Z</time></trkpt><trkpt lat="42.207278419844336" lon="13.255496519826384"><ele>1006.0</ele><time>2026-05-02T14:32:15Z</time></trkpt><trkpt lat="42.20732276385852" lon="13.255629447272968"><ele>1012.1999999999999</ele><time>2026-05-02T14:32:16Z</time></trkpt><trkpt lat="42.2073395464536" lon="13.255767161169398"><ele>1018.3999999999999</ele><time>2026-05-02T14:32:17Z</time></trkpt><trkpt lat="42.20737532297825" lon="13.2559074188177"><ele>1024.6</ele><time>2026-05-02T14:32:18Z</time></trkpt><trkpt lat="42.20742427593293" lon="13.256025880479715"><ele>1030.8</ele><time>2026-05-02T14:32:19Z</time></trkpt><trkpt lat="42.20744123334341" lon="13.256149127499096"><ele>1037.0</ele><time>2026-05-02T14:32:20Z</time></trkpt><trkpt lat="42.20747967424302" lon="13.256254095971071"><ele>1037.0</ele><time>2026-05-02T14:32:21Z</time></trkpt><trkpt lat="42.20753405111305" lon="13.256323839755275"><ele>1037.0</ele><time>2026-05-02T14:32:22Z</time></trkpt><trkpt lat="42.207581182204045" lon="13.256393512684962"><ele>1037.0</ele><time>2026-05-02T14:32:23Z</time></trkpt><trkpt lat="42.20764157629214" lon="13.256458766142106"><ele>1037.0</ele><time>2026-05-02T14:32:24Z</time></trkpt><trkpt lat="42.2077121127434" lon="13.256525169970285"><ele>1037.0</ele><time>2026-05-02T14:32:25Z</time></trkpt><trkpt lat="42.20778085205918" lon="13.256596625422306"><ele>1037.0</ele><time>2026-05-02T14:32:26Z</time></trkpt><trkpt lat="42.20785765194159" lon="13.256678786350012"><ele>1034.0</ele><time>2026-05-02T14:32:27Z</time></trkpt><trkpt lat="42.20792781159532" lon="13.256759470547882"><ele>1031.0</ele><time>2026-05-02T14:32:28Z</time></trkpt><trkpt lat="42.20799829274208" lon="13.256852745881282"><ele>1028.0</ele><time>2026-05-02T14:32:29Z</time></trkpt><trkpt lat="42.20805278075099" lon="13.256967610467568"><ele>1025.0</ele><time>2026-05-02T14:32:30Z</time></trkpt><trkpt lat="42.208107946927576" lon="13.257063649320445"><ele>1022.0</ele><time>2026-05-02T14:32:31Z</time></trkpt><trkpt lat="42.20815964831008" lon="13.25715847358576"><ele>1026.0</ele><time>2026-05-02T14:32:32Z</time></trkpt><trkpt lat="42.20822373808624" lon="13.2572431469771"><ele>1030.0</ele><time>2026-05-02T14:32:33Z</time></trkpt><trkpt lat="42.20826760443996" lon="13.25733792091376"><ele>1034.0</ele><time>2026-05-02T14:32:34Z</time></trkpt><trkpt lat="42.20829363855535" lon="13.257444617696908"><ele>1038.0</ele><time>2026-05-02T14:32:35Z</time></trkpt><trkpt lat="42.20832776702162" lon="13.2575474734664"><ele>1042.0</ele><time>2026-05-02T14:32:36Z</time></trkpt><trkpt lat="42.20834698693227" lon="13.257664137622895"><ele>1046.0</ele><time>2026-05-02T14:32:37Z</time></trkpt><trkpt lat="42.20836259518464" lon="13.25778808618784"><ele>1046.0</ele><time>2026-05-02T14:32:38Z</time></trkpt><trkpt lat="42.2083745358262" lon="13.25790102513573"><ele>1046.0</ele><time>2026-05-02T14:32:39Z</time></trkpt><trkpt lat="42.208385454563434" lon="13.258029077343487"><ele>1046.0</ele><time>2026-05-02T14:32:40Z</time></trkpt><trkpt lat="42.208392121881445" lon="13.25816270521889"><ele>1046.0</ele><time>2026-05-02T14:32:41Z</time></trkpt><trkpt lat="42.208402234275965" lon="13.258294560286583"><ele>1046.0</ele><time>2026-05-02T14:32:42Z</time></trkpt><trkpt lat="42.20841373450082" lon="13.258428613762035"><ele>1044.6</ele><time>2026-05-02T14:32:43Z</time></trkpt><trkpt lat="42.208436507557856" lon="13.258557566936505"><ele>1043.1999999999998</ele><time>2026-05-02T14:32:44Z</time></trkpt><trkpt lat="42.20845894804245" lon="13.258658671593489"><ele>1041.8000000000002</ele><time>2026-05-02T14:32:45Z</time></trkpt><trkpt lat="42.20848413603676" lon="13.258754476442904"><ele>1040.4</ele><time>2026-05-02T14:32:46Z</time></trkpt><trkpt lat="42.20854563418621" lon="13.258881162623089"><ele>1039.0</ele><time>2026-05-02T14:32:48Z</time></trkpt><trkpt lat="42.20861183711871" lon="13.258992485029108"><ele>1037.25</ele><time>2026-05-02T14:32:50Z</time></trkpt><trkpt lat="42.2087213765103" lon="13.259061325655477"><ele>1035.5</ele><time>2026-05-02T14:32:52Z</time></trkpt><trkpt lat="42.208839521855985" lon="13.259089493342886"><ele>1033.75</ele><time>2026-05-02T14:32:54Z</time></trkpt><trkpt lat="42.208971335457534" lon="13.259119930896903"><ele>1032.0</ele><time>2026-05-02T14:32:56Z</time></trkpt><trkpt lat="42.20906048865078" lon="13.259140191141794"><ele>1037.6</ele><time>2026-05-02T14:32:57Z</time></trkpt><trkpt lat="42.20915525560323" lon="13.259159621601412"><ele>1043.2</ele><time>2026-05-02T14:32:58Z</time></trkpt><trkpt lat="42.20924804851586" lon="13.259184574668346"><ele>1048.8</ele><time>2026-05-02T14:32:59Z</time></trkpt><trkpt lat="42.20933390388142" lon="13.259208948411986"><ele>1054.4</ele><time>2026-05-02T14:33:00Z</time></trkpt><trkpt lat="42.20943166863142" lon="13.259230257449552"><ele>1060.0</ele><time>2026-05-02T14:33:01Z</time></trkpt><trkpt lat="42.20953467072791" lon="13.259255280497007"><ele>1060.0</ele><time>2026-05-02T14:33:02Z</time></trkpt><trkpt lat="42.20963865356631" lon="13.259280717226552"><ele>1060.0</ele><time>2026-05-02T14:33:03Z</time></trkpt><trkpt lat="42.20973151614961" lon="13.259312218433116"><ele>1060.0</ele><time>2026-05-02T14:33:04Z</time></trkpt><trkpt lat="42.209819129766224" lon="13.259346061553128"><ele>1060.0</ele><time>2026-05-02T14:33:05Z</time></trkpt><trkpt lat="42.209886432765764" lon="13.259406271786059"><ele>1060.0</ele><time>2026-05-02T14:33:06Z</time></trkpt><trkpt lat="42.209977604825184" lon="13.259439586072084"><ele>1065.0</ele><time>2026-05-02T14:33:07Z</time></trkpt><trkpt lat="42.210069505526114" lon="13.259490422472071"><ele>1070.0</ele><time>2026-05-02T14:33:08Z</time></trkpt><trkpt lat="42.21015482752406" lon="13.259555314942322"><ele>1075.0</ele><time>2026-05-02T14:33:09Z</time></trkpt><trkpt lat="42.21024075224281" lon="13.259626080258545"><ele>1080.0</ele><time>2026-05-02T14:33:10Z</time></trkpt><trkpt lat="42.210315423884225" lon="13.259701268757643"><ele>1085.0</ele><time>2026-05-02T14:33:11Z</time></trkpt><trkpt lat="42.21038361547334" lon="13.259781210332244"><ele>1086.3333333333335</ele><time>2026-05-02T14:33:12Z</time></trkpt><trkpt lat="42.21044867655447" lon="13.259866530907122"><ele>1087.6666666666667</ele><time>2026-05-02T14:33:13Z</time></trkpt><trkpt lat="42.210516110643596" lon="13.25994803527494"><ele>1089.0</ele><time>2026-05-02T14:33:14Z</time></trkpt><trkpt lat="42.21056901094629" lon="13.260016908526852"><ele>1090.3333333333333</ele><time>2026-05-02T14:33:15Z</time></trkpt><trkpt lat="42.21059576806906" lon="13.260107644429796"><ele>1091.6666666666665</ele><time>2026-05-02T14:33:16Z</time></trkpt><trkpt lat="42.2106313127334" lon="13.260182746365167"><ele>1093.0</ele><time>2026-05-02T14:33:17Z</time></trkpt><trkpt lat="42.21069144811295" lon="13.26026427989245"><ele>1093.0</ele><time>2026-05-02T14:33:18Z</time></trkpt><trkpt lat="42.210735185658706" lon="13.26034771025794"><ele>1093.0</ele><time>2026-05-02T14:33:19Z</time></trkpt><trkpt lat="42.21079364316451" lon="13.260446957088506"><ele>1093.0</ele><time>2026-05-02T14:33:20Z</time></trkpt><trkpt lat="42.21086096838333" lon="13.260538955322634"><ele>1093.0</ele><time>2026-05-02T14:33:21Z</time></trkpt><trkpt lat="42.21093250589787" lon="13.260623857280615"><ele>1093.0</ele><time>2026-05-02T14:33:22Z</time></trkpt><trkpt lat="42.21100265581628" lon="13.260694228743281"><ele>1093.0</ele><time>2026-05-02T14:33:23Z</time></trkpt><trkpt lat="42.211072922844195" lon="13.260753463322201"><ele>1094.3333333333333</ele><time>2026-05-02T14:33:24Z</time></trkpt><trkpt lat="42.21114383665422" lon="13.260804591829958"><ele>1095.6666666666665</ele><time>2026-05-02T14:33:25Z</time></trkpt><trkpt lat="42.2112265045895" lon="13.260853969302646"><ele>1097.0</ele><time>2026-05-02T14:33:26Z</time></trkpt><trkpt lat="42.21130881216616" lon="13.260893279682838"><ele>1098.3333333333333</ele><time>2026-05-02T14:33:27Z</time></trkpt><trkpt lat="42.21139019531206" lon="13.260932463841742"><ele>1099.6666666666667</ele><time>2026-05-02T14:33:28Z</time></trkpt><trkpt lat="42.21147192059319" lon="13.260953587084261"><ele>1101.0</ele><time>2026-05-02T14:33:29Z</time></trkpt><trkpt lat="42.211566936813774" lon="13.26097182301065"><ele>1101.0</ele><time>2026-05-02T14:33:30Z</time></trkpt><trkpt lat="42.211648008957845" lon="13.261014637827241"><ele>1101.0</ele><time>2026-05-02T14:33:31Z</time></trkpt><trkpt lat="42.21170488366149" lon="13.261057681665164"><ele>1101.0</ele><time>2026-05-02T14:33:32Z</time></trkpt><trkpt lat="42.21176870076625" lon="13.261105148458219"><ele>1101.0</ele><time>2026-05-02T14:33:33Z</time></trkpt><trkpt lat="42.21182601749447" lon="13.261160632743872"><ele>1101.0</ele><time>2026-05-02T14:33:34Z</time></trkpt><trkpt lat="42.21190348318054" lon="13.261211096311087"><ele>1101.0</ele><time>2026-05-02T14:33:35Z</time></trkpt><trkpt lat="42.21197147334202" lon="13.261229233317867"><ele>1101.0</ele><time>2026-05-02T14:33:36Z</time></trkpt><trkpt lat="42.21203961547016" lon="13.26125883622429"><ele>1101.0</ele><time>2026-05-02T14:33:37Z</time></trkpt><trkpt lat="42.21218176976875" lon="13.261263512987384"><ele>1101.0</ele><time>2026-05-02T14:33:39Z</time></trkpt><trkpt lat="42.21226981751466" lon="13.261258103807966"><ele>1101.0</ele><time>2026-05-02T14:33:40Z</time></trkpt><trkpt lat="42.21235105024993" lon="13.261247828546928"><ele>1101.0</ele><time>2026-05-02T14:33:41Z</time></trkpt><trkpt lat="42.21243138870697" lon="13.261227057559317"><ele>1100.6666666666667</ele><time>2026-05-02T14:33:42Z</time></trkpt><trkpt lat="42.21250963139535" lon="13.26122051433684"><ele>1100.3333333333333</ele><time>2026-05-02T14:33:43Z</time></trkpt><trkpt lat="42.21260893704872" lon="13.261305236570863"><ele>1100.0</ele><time>2026-05-02T14:33:45Z</time></trkpt><trkpt lat="42.21264326627558" lon="13.26139969236428"><ele>1099.6666666666665</ele><time>2026-05-02T14:33:46Z</time></trkpt><trkpt lat="42.21267419358255" lon="13.261497671414498"><ele>1099.3333333333333</ele><time>2026-05-02T14:33:47Z</time></trkpt><trkpt lat="42.21273063007136" lon="13.261592415920363"><ele>1099.0</ele><time>2026-05-02T14:33:48Z</time></trkpt><trkpt lat="42.21275787131902" lon="13.261690456652312"><ele>1099.0</ele><time>2026-05-02T14:33:49Z</time></trkpt><trkpt lat="42.2128205657001" lon="13.261782812668402"><ele>1099.0</ele><time>2026-05-02T14:33:51Z</time></trkpt><trkpt lat="42.21292288545576" lon="13.261888050231777"><ele>1099.0</ele><time>2026-05-02T14:33:53Z</time></trkpt><trkpt lat="42.21296743434113" lon="13.261975499765176"><ele>1099.0</ele><time>2026-05-02T14:33:54Z</time></trkpt><trkpt lat="42.21302582242913" lon="13.262054780059914"><ele>1099.0</ele><time>2026-05-02T14:33:55Z</time></trkpt><trkpt lat="42.2130979141233" lon="13.26212485958131"><ele>1099.0</ele><time>2026-05-02T14:33:56Z</time></trkpt><trkpt lat="42.213143973658525" lon="13.26219713153527"><ele>1099.0</ele><time>2026-05-02T14:33:57Z</time></trkpt><trkpt lat="42.21319531980529" lon="13.262268872455746"><ele>1099.0</ele><time>2026-05-02T14:33:58Z</time></trkpt><trkpt lat="42.21325202975815" lon="13.262340253073619"><ele>1099.0</ele><time>2026-05-02T14:33:59Z</time></trkpt><trkpt lat="42.21331025910626" lon="13.262436328568414"><ele>1099.0</ele><time>2026-05-02T14:34:00Z</time></trkpt><trkpt lat="42.21337817119964" lon="13.262511068514861"><ele>1099.0</ele><time>2026-05-02T14:34:01Z</time></trkpt><trkpt lat="42.21345006187746" lon="13.262583093008363"><ele>1100.3333333333333</ele><time>2026-05-02T14:34:02Z</time></trkpt><trkpt lat="42.21353199759589" lon="13.262639807068664"><ele>1101.6666666666665</ele><time>2026-05-02T14:34:03Z</time></trkpt><trkpt lat="42.213593070013694" lon="13.262726910603595"><ele>1103.0</ele><time>2026-05-02T14:34:04Z</time></trkpt><trkpt lat="42.21366466615436" lon="13.262774294529876"><ele>1104.3333333333333</ele><time>2026-05-02T14:34:05Z</time></trkpt><trkpt lat="42.21371750561124" lon="13.262840130213862"><ele>1105.6666666666667</ele><time>2026-05-02T14:34:06Z</time></trkpt><trkpt lat="42.21377433087689" lon="13.262884845064773"><ele>1107.0</ele><time>2026-05-02T14:34:07Z</time></trkpt><trkpt lat="42.2138294433163" lon="13.262941039393013"><ele>1107.0</ele><time>2026-05-02T14:34:08Z</time></trkpt><trkpt lat="42.21390059597666" lon="13.262985186521625"><ele>1107.0</ele><time>2026-05-02T14:34:09Z</time></trkpt><trkpt lat="42.21397176288615" lon="13.263021371360546"><ele>1107.0</ele><time>2026-05-02T14:34:10Z</time></trkpt><trkpt lat="42.21403940658634" lon="13.263055508627206"><ele>1107.0</ele><time>2026-05-02T14:34:11Z</time></trkpt><trkpt lat="42.21411972096808" lon="13.263074894140656"><ele>1107.0</ele><time>2026-05-02T14:34:12Z</time></trkpt><trkpt lat="42.214206473752476" lon="13.26312229956386"><ele>1107.0</ele><time>2026-05-02T14:34:13Z</time></trkpt><trkpt lat="42.2142957016771" lon="13.26312938287523"><ele>1107.8333333333333</ele><time>2026-05-02T14:34:14Z</time></trkpt><trkpt lat="42.21437634729991" lon="13.263142797661736"><ele>1108.6666666666667</ele><time>2026-05-02T14:34:15Z</time></trkpt><trkpt lat="42.214459466493636" lon="13.26313268891621"><ele>1109.5</ele><time>2026-05-02T14:34:16Z</time></trkpt><trkpt lat="42.21455480868366" lon="13.263130080279906"><ele>1110.3333333333335</ele><time>2026-05-02T14:34:17Z</time></trkpt><trkpt lat="42.21464842099928" lon="13.263122993115276"><ele>1111.1666666666667</ele><time>2026-05-02T14:34:18Z</time></trkpt><trkpt lat="42.21472976447974" lon="13.26310275850029"><ele>1112.0</ele><time>2026-05-02T14:34:19Z</time></trkpt><trkpt lat="42.21480717299172" lon="13.263090262315451"><ele>1110.3333333333335</ele><time>2026-05-02T14:34:20Z</time></trkpt><trkpt lat="42.214873697246134" lon="13.263089155596422"><ele>1108.6666666666667</ele><time>2026-05-02T14:34:21Z</time></trkpt><trkpt lat="42.21495809212053" lon="13.263099958581869"><ele>1107.0</ele><time>2026-05-02T14:34:22Z</time></trkpt><trkpt lat="42.21503035984471" lon="13.263115379702903"><ele>1105.3333333333333</ele><time>2026-05-02T14:34:23Z</time></trkpt><trkpt lat="42.21509358769265" lon="13.263122251599134"><ele>1103.6666666666665</ele><time>2026-05-02T14:34:24Z</time></trkpt><trkpt lat="42.21521607097686" lon="13.263188394553824"><ele>1102.0</ele><time>2026-05-02T14:34:26Z</time></trkpt><trkpt lat="42.21528363532742" lon="13.263246682827994"><ele>1101.3333333333333</ele><time>2026-05-02T14:34:27Z</time></trkpt><trkpt lat="42.215342969030274" lon="13.263317259037128"><ele>1100.6666666666665</ele><time>2026-05-02T14:34:28Z</time></trkpt><trkpt lat="42.21540490113989" lon="13.263381304413423"><ele>1100.0</ele><time>2026-05-02T14:34:29Z</time></trkpt><trkpt lat="42.2154608213623" lon="13.263445584492768"><ele>1099.3333333333333</ele><time>2026-05-02T14:34:30Z</time></trkpt><trkpt lat="42.215524258065955" lon="13.263505012018621"><ele>1098.6666666666667</ele><time>2026-05-02T14:34:31Z</time></trkpt><trkpt lat="42.21556402531014" lon="13.26363126974577"><ele>1098.0</ele><time>2026-05-02T14:34:33Z</time></trkpt><trkpt lat="42.215541009344584" lon="13.263727095661713"><ele>1098.0</ele><time>2026-05-02T14:34:36Z</time></trkpt><trkpt lat="42.21557601258933" lon="13.26380159419581"><ele>1098.0</ele><time>2026-05-02T14:34:38Z</time></trkpt><trkpt lat="42.215583176009055" lon="13.264274740887632"><ele>1098.0</ele><time>2026-05-02T14:34:40Z</time></trkpt><trkpt lat="42.21572440148143" lon="13.264297304472786"><ele>1100.5</ele><time>2026-05-02T14:34:41Z</time></trkpt><trkpt lat="42.21581702616727" lon="13.264301825526243"><ele>1103.0</ele><time>2026-05-02T14:34:49Z</time></trkpt><trkpt lat="42.21590104971061" lon="13.264316111308219"><ele>1105.5</ele><time>2026-05-02T14:34:52Z</time></trkpt><trkpt lat="42.21599298099443" lon="13.264347758694834"><ele>1108.0</ele><time>2026-05-02T14:34:54Z</time></trkpt><trkpt lat="42.21606546389719" lon="13.264386355677326"><ele>1110.5</ele><time>2026-05-02T14:35:24Z</time></trkpt><trkpt lat="42.216100070528526" lon="13.264461143865468"><ele>1113.0</ele><time>2026-05-02T14:35:26Z</time></trkpt><trkpt lat="42.216134239521786" lon="13.264534986072189"><ele>1113.0</ele><time>2026-05-02T14:35:28Z</time></trkpt><trkpt lat="42.21615888416633" lon="13.264622508054869"><ele>1113.0</ele><time>2026-05-02T14:35:32Z</time></trkpt><trkpt lat="42.21619361336855" lon="13.264728794478437"><ele>1113.0</ele><time>2026-05-02T14:35:35Z</time></trkpt><trkpt lat="42.21616161168862" lon="13.264830508282433"><ele>1113.0</ele><time>2026-05-02T14:36:36Z</time></trkpt><trkpt lat="42.216406741023256" lon="13.26551344709057"><ele>1111.0</ele><time>2026-05-02T14:36:38Z</time></trkpt><trkpt lat="42.21645377167453" lon="13.2655744692357"><ele>1109.0</ele><time>2026-05-02T14:36:42Z</time></trkpt><trkpt lat="42.21711623621742" lon="13.264926127636175"><ele>1108.9999999999998</ele><time>2026-05-02T14:36:51Z</time></trkpt><trkpt lat="42.21714389267909" lon="13.264838936254101"><ele>1109.0</ele><time>2026-05-02T14:36:56Z</time></trkpt><trkpt lat="42.21720111900866" lon="13.264789005647051"><ele>1109.0</ele><time>2026-05-02T14:37:12.001Z</time></trkpt><trkpt lat="42.217247333581" lon="13.264691618267227"><ele>1109.0</ele><time>2026-05-02T14:37:15.001Z</time></trkpt><trkpt lat="42.217295883171076" lon="13.264631599002998"><ele>1109.0</ele><time>2026-05-02T14:37:18.001Z</time></trkpt><trkpt lat="42.217236201363335" lon="13.264724072529619"><ele>1108.9999999999998</ele><time>2026-05-02T14:39:08.001Z</time></trkpt><trkpt lat="42.217194541679596" lon="13.264795167483285"><ele>1109.0</ele><time>2026-05-02T14:39:11.001Z</time></trkpt><trkpt lat="42.2171474321537" lon="13.264906319329732"><ele>1109.0</ele><time>2026-05-02T14:39:15.001Z</time></trkpt><trkpt lat="42.217095722663615" lon="13.26501164794706"><ele>1109.0</ele><time>2026-05-02T14:39:17.001Z</time></trkpt><trkpt lat="42.217024093516535" lon="13.265029197411792"><ele>1109.0</ele><time>2026-05-02T14:39:20.001Z</time></trkpt><trkpt lat="42.21693799778261" lon="13.265012739045929"><ele>1109.0</ele><time>2026-05-02T14:39:22.001Z</time></trkpt><trkpt lat="42.216884744383286" lon="13.264966251074434"><ele>1109.0</ele><time>2026-05-02T14:39:24.001Z</time></trkpt><trkpt lat="42.216829741511376" lon="13.264917138693917"><ele>1109.0</ele><time>2026-05-02T14:39:26.001Z</time></trkpt><trkpt lat="42.21679614769505" lon="13.264813425815095"><ele>1107.5</ele><time>2026-05-02T14:39:29.001Z</time></trkpt><trkpt lat="42.21674287430469" lon="13.264764316647087"><ele>1106.0</ele><time>2026-05-02T14:39:38.001Z</time></trkpt><trkpt lat="42.216737499162136" lon="13.264657456785166"><ele>1104.5</ele><time>2026-05-02T14:39:50.001Z</time></trkpt><trkpt lat="42.2166857809118" lon="13.264563052882252"><ele>1103.0</ele><time>2026-05-02T14:39:53.001Z</time></trkpt><trkpt lat="42.216628009208804" lon="13.264502401144764"><ele>1101.5</ele><time>2026-05-02T14:39:55.001Z</time></trkpt><trkpt lat="42.21657243113483" lon="13.264450108430506"><ele>1100.0</ele><time>2026-05-02T14:39:57.001Z</time></trkpt><trkpt lat="42.21649291674254" lon="13.264368825392934"><ele>1100.3333333333335</ele><time>2026-05-02T14:39:59.001Z</time></trkpt><trkpt lat="42.21642430818412" lon="13.264304540721367"><ele>1100.6666666666667</ele><time>2026-05-02T14:40:01.001Z</time></trkpt><trkpt lat="42.21636568341522" lon="13.26421897148327"><ele>1101.0</ele><time>2026-05-02T14:40:03.001Z</time></trkpt><trkpt lat="42.21632863579135" lon="13.264115541369867"><ele>1101.3333333333333</ele><time>2026-05-02T14:40:05.001Z</time></trkpt><trkpt lat="42.21628658386511" lon="13.264002009866584"><ele>1101.6666666666665</ele><time>2026-05-02T14:40:08.001Z</time></trkpt><trkpt lat="42.2162413813223" lon="13.263915951582906"><ele>1102.0</ele><time>2026-05-02T14:40:10Z</time></trkpt><trkpt lat="42.21617925165901" lon="13.263870495492764"><ele>1102.0</ele><time>2026-05-02T14:40:12Z</time></trkpt><trkpt lat="42.216090144580264" lon="13.2638244660024"><ele>1102.0</ele><time>2026-05-02T14:40:15Z</time></trkpt><trkpt lat="42.2159960562195" lon="13.263794362802791"><ele>1102.0</ele><time>2026-05-02T14:40:17Z</time></trkpt><trkpt lat="42.21591920160286" lon="13.263783631231854"><ele>1102.0</ele><time>2026-05-02T14:40:19Z</time></trkpt><trkpt lat="42.21582528398169" lon="13.263783871492565"><ele>1102.0</ele><time>2026-05-02T14:40:21Z</time></trkpt><trkpt lat="42.2157313056724" lon="13.263805985518761"><ele>1102.0</ele><time>2026-05-02T14:40:24Z</time></trkpt><trkpt lat="42.215657979687826" lon="13.263795239029587"><ele>1102.0</ele><time>2026-05-02T14:40:27Z</time></trkpt><trkpt lat="42.21560328865645" lon="13.263732777415676"><ele>1102.0</ele><time>2026-05-02T14:40:30Z</time></trkpt><trkpt lat="42.21552714366015" lon="13.263731051118516"><ele>1102.0</ele><time>2026-05-02T14:40:33Z</time></trkpt><trkpt lat="42.215463304331145" lon="13.26380815117187"><ele>1102.0</ele><time>2026-05-02T14:40:35Z</time></trkpt><trkpt lat="42.21538413055756" lon="13.263917761312516"><ele>1102.0</ele><time>2026-05-02T14:40:37Z</time></trkpt><trkpt lat="42.21538334151628" lon="13.264036937565113"><ele>1101.2</ele><time>2026-05-02T14:40:39Z</time></trkpt><trkpt lat="42.215489087165764" lon="13.264110793916581"><ele>1100.4</ele><time>2026-05-02T14:40:41Z</time></trkpt><trkpt lat="42.21556883962201" lon="13.264168232009661"><ele>1099.6</ele><time>2026-05-02T14:40:42Z</time></trkpt><trkpt lat="42.215658207382866" lon="13.264240144193842"><ele>1098.8</ele><time>2026-05-02T14:40:43Z</time></trkpt><trkpt lat="42.2157430101373" lon="13.264281268089075"><ele>1098.0</ele><time>2026-05-02T14:40:44Z</time></trkpt><trkpt lat="42.21582946613899" lon="13.264285927626311"><ele>1101.0</ele><time>2026-05-02T14:40:45Z</time></trkpt><trkpt lat="42.2159118491831" lon="13.264261360169964"><ele>1104.0</ele><time>2026-05-02T14:40:46Z</time></trkpt><trkpt lat="42.21598749865915" lon="13.264255998949476"><ele>1107.0</ele><time>2026-05-02T14:40:47Z</time></trkpt><trkpt lat="42.21608150658042" lon="13.2643222980997"><ele>1110.0</ele><time>2026-05-02T14:40:49Z</time></trkpt><trkpt lat="42.21615331028707" lon="13.264437572073026"><ele>1113.0</ele><time>2026-05-02T14:40:51Z</time></trkpt><trkpt lat="42.21617374984679" lon="13.264540952653084"><ele>1113.0</ele><time>2026-05-02T14:40:52Z</time></trkpt><trkpt lat="42.21618024267544" lon="13.264657468528206"><ele>1113.0</ele><time>2026-05-02T14:40:53Z</time></trkpt><trkpt lat="42.2161881905842" lon="13.264782314297731"><ele>1113.0</ele><time>2026-05-02T14:40:54Z</time></trkpt><trkpt lat="42.21617476953758" lon="13.264882064883649"><ele>1113.0</ele><time>2026-05-02T14:40:55Z</time></trkpt><trkpt lat="42.21615360944722" lon="13.264965974862573"><ele>1113.0</ele><time>2026-05-02T14:40:56Z</time></trkpt><trkpt lat="42.2161221490077" lon="13.26510908209308"><ele>1113.0</ele><time>2026-05-02T14:40:58Z</time></trkpt><trkpt lat="42.21613836071967" lon="13.265194564184299"><ele>1114.1666666666667</ele><time>2026-05-02T14:40:59Z</time></trkpt><trkpt lat="42.21617466608183" lon="13.265287875178108"><ele>1115.3333333333333</ele><time>2026-05-02T14:41:00Z</time></trkpt><trkpt lat="42.21623280853255" lon="13.265366583131716"><ele>1116.5</ele><time>2026-05-02T14:41:01Z</time></trkpt><trkpt lat="42.2163184443195" lon="13.265444323725793"><ele>1117.6666666666665</ele><time>2026-05-02T14:41:02Z</time></trkpt><trkpt lat="42.21640147605369" lon="13.265518563154014"><ele>1118.8333333333333</ele><time>2026-05-02T14:41:03Z</time></trkpt><trkpt lat="42.2164614497251" lon="13.265594740553329"><ele>1120.0</ele><time>2026-05-02T14:41:04Z</time></trkpt><trkpt lat="42.216500219285706" lon="13.265681723130136"><ele>1120.0</ele><time>2026-05-02T14:41:05Z</time></trkpt><trkpt lat="42.21655667710365" lon="13.265769136830148"><ele>1120.0</ele><time>2026-05-02T14:41:06Z</time></trkpt><trkpt lat="42.216632430945026" lon="13.26582570645908"><ele>1120.0</ele><time>2026-05-02T14:41:07Z</time></trkpt><trkpt lat="42.216716896391006" lon="13.265887949719085"><ele>1120.0</ele><time>2026-05-02T14:41:08Z</time></trkpt><trkpt lat="42.21679981668105" lon="13.26594869595028"><ele>1120.0</ele><time>2026-05-02T14:41:09.001Z</time></trkpt><trkpt lat="42.21688728111052" lon="13.266001937187644"><ele>1120.0</ele><time>2026-05-02T14:41:10.001Z</time></trkpt><trkpt lat="42.216978255361155" lon="13.2660466311355"><ele>1120.0</ele><time>2026-05-02T14:41:11.001Z</time></trkpt><trkpt lat="42.21707945969523" lon="13.266048024671827"><ele>1120.0</ele><time>2026-05-02T14:41:12.001Z</time></trkpt><trkpt lat="42.21718008806716" lon="13.266043155470372"><ele>1120.0</ele><time>2026-05-02T14:41:13.001Z</time></trkpt><trkpt lat="42.21727756341122" lon="13.26605999049428"><ele>1120.0</ele><time>2026-05-02T14:41:14.001Z</time></trkpt><trkpt lat="42.21735292421528" lon="13.266069707105222"><ele>1118.0</ele><time>2026-05-02T14:41:15.001Z</time></trkpt><trkpt lat="42.21746254944421" lon="13.266054696007734"><ele>1116.0</ele><time>2026-05-02T14:41:17.001Z</time></trkpt><trkpt lat="42.217526901859685" lon="13.26604225485783"><ele>1114.0</ele><time>2026-05-02T14:41:18.001Z</time></trkpt><trkpt lat="42.217599524061946" lon="13.266032029094747"><ele>1112.0</ele><time>2026-05-02T14:41:19.001Z</time></trkpt><trkpt lat="42.21770620111868" lon="13.26608739466066"><ele>1110.0</ele><time>2026-05-02T14:41:21.001Z</time></trkpt><trkpt lat="42.2177934975499" lon="13.266199666577975"><ele>1110.0</ele><time>2026-05-02T14:41:23.001Z</time></trkpt><trkpt lat="42.217857977022575" lon="13.26624579392153"><ele>1110.0</ele><time>2026-05-02T14:41:24.001Z</time></trkpt><trkpt lat="42.21792017739613" lon="13.266280309369552"><ele>1110.0</ele><time>2026-05-02T14:41:25.001Z</time></trkpt><trkpt lat="42.218039777854884" lon="13.266294931522884"><ele>1110.0</ele><time>2026-05-02T14:41:27.001Z</time></trkpt><trkpt lat="42.218105303714246" lon="13.266259831190947"><ele>1110.0</ele><time>2026-05-02T14:41:28.001Z</time></trkpt><trkpt lat="42.218164655278855" lon="13.266150391896504"><ele>1110.0</ele><time>2026-05-02T14:41:29.001Z</time></trkpt><trkpt lat="42.218198994228295" lon="13.266050337562831"><ele>1110.5</ele><time>2026-05-02T14:41:30.001Z</time></trkpt><trkpt lat="42.21823871687186" lon="13.265981969515993"><ele>1111.0</ele><time>2026-05-02T14:41:32Z</time></trkpt><trkpt lat="42.218330791475005" lon="13.265915502486648"><ele>1111.5</ele><time>2026-05-02T14:41:34Z</time></trkpt><trkpt lat="42.21841844419615" lon="13.26587851092735"><ele>1112.0</ele><time>2026-05-02T14:41:35Z</time></trkpt><trkpt lat="42.218505080036905" lon="13.265839318970118"><ele>1112.5</ele><time>2026-05-02T14:41:36Z</time></trkpt><trkpt lat="42.21859070998061" lon="13.26583315982742"><ele>1113.0</ele><time>2026-05-02T14:41:37Z</time></trkpt><trkpt lat="42.21867605155388" lon="13.26580217955667"><ele>1113.0</ele><time>2026-05-02T14:41:38Z</time></trkpt><trkpt lat="42.21876836148736" lon="13.26574033908695"><ele>1113.0</ele><time>2026-05-02T14:41:39Z</time></trkpt><trkpt lat="42.21887189037791" lon="13.265708667469132"><ele>1113.0</ele><time>2026-05-02T14:41:40Z</time></trkpt><trkpt lat="42.218978908812964" lon="13.265660466445455"><ele>1113.0</ele><time>2026-05-02T14:41:41Z</time></trkpt><trkpt lat="42.21906536092195" lon="13.265599161627408"><ele>1113.0</ele><time>2026-05-02T14:41:42Z</time></trkpt><trkpt lat="42.21913511164852" lon="13.265566100710911"><ele>1113.6</ele><time>2026-05-02T14:41:43Z</time></trkpt><trkpt lat="42.21919616580911" lon="13.265515810696533"><ele>1114.1999999999998</ele><time>2026-05-02T14:41:44Z</time></trkpt><trkpt lat="42.219267085016476" lon="13.265476109681307"><ele>1114.8</ele><time>2026-05-02T14:41:45Z</time></trkpt><trkpt lat="42.219347842413065" lon="13.26540758852008"><ele>1115.3999999999999</ele><time>2026-05-02T14:41:47Z</time></trkpt><trkpt lat="42.21945666891667" lon="13.265309200095528"><ele>1116.0</ele><time>2026-05-02T14:41:49Z</time></trkpt><trkpt lat="42.2195219540374" lon="13.265245354605467"><ele>1116.0</ele><time>2026-05-02T14:41:50Z</time></trkpt><trkpt lat="42.21958768478924" lon="13.265178780987732"><ele>1116.0</ele><time>2026-05-02T14:41:51Z</time></trkpt><trkpt lat="42.21965645073344" lon="13.265100317899153"><ele>1116.0</ele><time>2026-05-02T14:41:52Z</time></trkpt><trkpt lat="42.21970354313393" lon="13.26501264582073"><ele>1116.0</ele><time>2026-05-02T14:41:53Z</time></trkpt><trkpt lat="42.219757518950516" lon="13.26492059301778"><ele>1116.0</ele><time>2026-05-02T14:41:54Z</time></trkpt><trkpt lat="42.219831175855575" lon="13.264839140087942"><ele>1116.0</ele><time>2026-05-02T14:41:55Z</time></trkpt><trkpt lat="42.219878586744585" lon="13.264757038382758"><ele>1117.1666666666667</ele><time>2026-05-02T14:41:56Z</time></trkpt><trkpt lat="42.21991601198018" lon="13.26468838043675"><ele>1118.3333333333333</ele><time>2026-05-02T14:41:57Z</time></trkpt><trkpt lat="42.21996563431014" lon="13.264620725055083"><ele>1119.5</ele><time>2026-05-02T14:41:58Z</time></trkpt><trkpt lat="42.22002954439279" lon="13.264557494530623"><ele>1120.6666666666665</ele><time>2026-05-02T14:41:59Z</time></trkpt><trkpt lat="42.22012837708192" lon="13.26459375041154"><ele>1121.8333333333333</ele><time>2026-05-02T14:42:01Z</time></trkpt><trkpt lat="42.22019962968421" lon="13.264623547532748"><ele>1123.0</ele><time>2026-05-02T14:42:03Z</time></trkpt><trkpt lat="42.22030813366963" lon="13.264693281012587"><ele>1123.0</ele><time>2026-05-02T14:42:05Z</time></trkpt><trkpt lat="42.2203793935382" lon="13.26469869445221"><ele>1123.0</ele><time>2026-05-02T14:42:06Z</time></trkpt><trkpt lat="42.22050916293894" lon="13.26474281608213"><ele>1123.0</ele><time>2026-05-02T14:42:08Z</time></trkpt><trkpt lat="42.2206211735947" lon="13.26476591323301"><ele>1123.0</ele><time>2026-05-02T14:42:10Z</time></trkpt><trkpt lat="42.22070684398497" lon="13.264758344070922"><ele>1123.0</ele><time>2026-05-02T14:42:11Z</time></trkpt><trkpt lat="42.22078509649153" lon="13.264779323816839"><ele>1124.0</ele><time>2026-05-02T14:42:12Z</time></trkpt><trkpt lat="42.22085199379939" lon="13.264815599287079"><ele>1125.0</ele><time>2026-05-02T14:42:13Z</time></trkpt><trkpt lat="42.22097402542154" lon="13.264837001161704"><ele>1126.0</ele><time>2026-05-02T14:42:15Z</time></trkpt><trkpt lat="42.22103580529581" lon="13.264877996542102"><ele>1127.0</ele><time>2026-05-02T14:42:16Z</time></trkpt><trkpt lat="42.221111715986176" lon="13.264933809154128"><ele>1128.0</ele><time>2026-05-02T14:42:17Z</time></trkpt><trkpt lat="42.22118768766475" lon="13.26501041129222"><ele>1129.0</ele><time>2026-05-02T14:42:18Z</time></trkpt><trkpt lat="42.221235798525534" lon="13.26512887928616"><ele>1129.0</ele><time>2026-05-02T14:42:19Z</time></trkpt><trkpt lat="42.22129521314858" lon="13.265204581957581"><ele>1129.0</ele><time>2026-05-02T14:42:20Z</time></trkpt><trkpt lat="42.22135015631912" lon="13.265251860397141"><ele>1129.0</ele><time>2026-05-02T14:42:21Z</time></trkpt><trkpt lat="42.22143859527146" lon="13.265285818294512"><ele>1129.0</ele><time>2026-05-02T14:42:23Z</time></trkpt><trkpt lat="42.22148802391867" lon="13.265221505912285"><ele>1129.0</ele><time>2026-05-02T14:42:24Z</time></trkpt><trkpt lat="42.221565188697305" lon="13.265093393263854"><ele>1129.0</ele><time>2026-05-02T14:42:26Z</time></trkpt><trkpt lat="42.22162477080235" lon="13.2650164211128"><ele>1128.1666666666665</ele><time>2026-05-02T14:42:27Z</time></trkpt><trkpt lat="42.22170095157748" lon="13.26498600628656"><ele>1127.3333333333333</ele><time>2026-05-02T14:42:28Z</time></trkpt><trkpt lat="42.22176399104727" lon="13.264898566686714"><ele>1126.5</ele><time>2026-05-02T14:42:29Z</time></trkpt><trkpt lat="42.221832603343636" lon="13.264810170923928"><ele>1125.6666666666667</ele><time>2026-05-02T14:42:30Z</time></trkpt><trkpt lat="42.221896055906214" lon="13.264728515573168"><ele>1124.8333333333335</ele><time>2026-05-02T14:42:31Z</time></trkpt><trkpt lat="42.221937312881394" lon="13.26466415931296"><ele>1124.0</ele><time>2026-05-02T14:42:32Z</time></trkpt><trkpt lat="42.22199576004234" lon="13.264628956606142"><ele>1124.5</ele><time>2026-05-02T14:42:33Z</time></trkpt><trkpt lat="42.222083197851276" lon="13.264591159423963"><ele>1125.0</ele><time>2026-05-02T14:42:35Z</time></trkpt><trkpt lat="42.22218122489261" lon="13.264555536535113"><ele>1125.5</ele><time>2026-05-02T14:42:37Z</time></trkpt><trkpt lat="42.22225270001949" lon="13.264507350776341"><ele>1126.0</ele><time>2026-05-02T14:42:38Z</time></trkpt><trkpt lat="42.22231231009551" lon="13.264435391379683"><ele>1126.5</ele><time>2026-05-02T14:42:39Z</time></trkpt><trkpt lat="42.22236962234945" lon="13.264355054750357"><ele>1127.0</ele><time>2026-05-02T14:42:40Z</time></trkpt><trkpt lat="42.22242865365733" lon="13.264281957048874"><ele>1127.0</ele><time>2026-05-02T14:42:41Z</time></trkpt><trkpt lat="42.222493475348934" lon="13.26424186260689"><ele>1127.0</ele><time>2026-05-02T14:42:42Z</time></trkpt><trkpt lat="42.2225567069259" lon="13.264187869654524"><ele>1127.0</ele><time>2026-05-02T14:42:43Z</time></trkpt><trkpt lat="42.22261143743618" lon="13.264142012861495"><ele>1127.0</ele><time>2026-05-02T14:42:44Z</time></trkpt><trkpt lat="42.22269851256989" lon="13.26406137116695"><ele>1127.0</ele><time>2026-05-02T14:42:46Z</time></trkpt><trkpt lat="42.222833088166354" lon="13.26400426048205"><ele>1127.0</ele><time>2026-05-02T14:42:48Z</time></trkpt><trkpt lat="42.22291799686177" lon="13.263953958833815"><ele>1127.0</ele><time>2026-05-02T14:42:49Z</time></trkpt><trkpt lat="42.22299948862875" lon="13.263905681476585"><ele>1127.0</ele><time>2026-05-02T14:42:50Z</time></trkpt><trkpt lat="42.223075415295185" lon="13.263860700964134"><ele>1127.0</ele><time>2026-05-02T14:42:51Z</time></trkpt><trkpt lat="42.223174060805505" lon="13.263803085077564"><ele>1127.0</ele><time>2026-05-02T14:42:52Z</time></trkpt><trkpt lat="42.22326061735336" lon="13.263743467134455"><ele>1127.0</ele><time>2026-05-02T14:42:53Z</time></trkpt><trkpt lat="42.22334622045896" lon="13.263672270672615"><ele>1127.0</ele><time>2026-05-02T14:42:54Z</time></trkpt><trkpt lat="42.2233966440552" lon="13.263569955322653"><ele>1127.0</ele><time>2026-05-02T14:42:55Z</time></trkpt><trkpt lat="42.223442901536494" lon="13.263503894747737"><ele>1127.0</ele><time>2026-05-02T14:42:56Z</time></trkpt><trkpt lat="42.22350032691642" lon="13.263440147719177"><ele>1127.0</ele><time>2026-05-02T14:42:57Z</time></trkpt><trkpt lat="42.223601953073846" lon="13.263422809973122"><ele>1127.0</ele><time>2026-05-02T14:42:59Z</time></trkpt><trkpt lat="42.22369506864934" lon="13.263420722490956"><ele>1127.0</ele><time>2026-05-02T14:43:01Z</time></trkpt><trkpt lat="42.223758259375444" lon="13.263411184452929"><ele>1127.0</ele><time>2026-05-02T14:43:02Z</time></trkpt><trkpt lat="42.22382713077957" lon="13.263425251316379"><ele>1127.0</ele><time>2026-05-02T14:43:03Z</time></trkpt><trkpt lat="42.22390240527004" lon="13.26342109106717"><ele>1127.0</ele><time>2026-05-02T14:43:04Z</time></trkpt><trkpt lat="42.22397477315134" lon="13.263422507436008"><ele>1127.0</ele><time>2026-05-02T14:43:05Z</time></trkpt><trkpt lat="42.22404460417644" lon="13.263425716312144"><ele>1127.0</ele><time>2026-05-02T14:43:06Z</time></trkpt><trkpt lat="42.224156146232616" lon="13.263454647029436"><ele>1129.0</ele><time>2026-05-02T14:43:08Z</time></trkpt><trkpt lat="42.224229321822634" lon="13.263455036110583"><ele>1131.0</ele><time>2026-05-02T14:43:09Z</time></trkpt><trkpt lat="42.2243130823869" lon="13.263443975626517"><ele>1133.0</ele><time>2026-05-02T14:43:10Z</time></trkpt><trkpt lat="42.22441479630313" lon="13.263464538474398"><ele>1135.0</ele><time>2026-05-02T14:43:11Z</time></trkpt><trkpt lat="42.224511354011895" lon="13.26347415869905"><ele>1137.0</ele><time>2026-05-02T14:43:12Z</time></trkpt><trkpt lat="42.22461559143884" lon="13.26347694531799"><ele>1137.0</ele><time>2026-05-02T14:43:13Z</time></trkpt><trkpt lat="42.2247122055275" lon="13.263487954584319"><ele>1137.0</ele><time>2026-05-02T14:43:14Z</time></trkpt><trkpt lat="42.22480211359025" lon="13.263474282631162"><ele>1137.0</ele><time>2026-05-02T14:43:15Z</time></trkpt><trkpt lat="42.224884218067835" lon="13.263493758794956"><ele>1137.0</ele><time>2026-05-02T14:43:16Z</time></trkpt><trkpt lat="42.22498094593504" lon="13.263485985980969"><ele>1137.0</ele><time>2026-05-02T14:43:17Z</time></trkpt><trkpt lat="42.22506706049073" lon="13.26347031367679"><ele>1138.3333333333333</ele><time>2026-05-02T14:43:18Z</time></trkpt><trkpt lat="42.22514352821124" lon="13.263454964124428"><ele>1139.6666666666667</ele><time>2026-05-02T14:43:19Z</time></trkpt><trkpt lat="42.22521098908779" lon="13.263436860902557"><ele>1141.0</ele><time>2026-05-02T14:43:20Z</time></trkpt><trkpt lat="42.22531302866455" lon="13.263406562505441"><ele>1142.3333333333335</ele><time>2026-05-02T14:43:22Z</time></trkpt><trkpt lat="42.225390755359435" lon="13.263379229178234"><ele>1143.6666666666667</ele><time>2026-05-02T14:43:23Z</time></trkpt><trkpt lat="42.22546087487732" lon="13.263351673522097"><ele>1145.0</ele><time>2026-05-02T14:43:24Z</time></trkpt><trkpt lat="42.22553742551557" lon="13.263328120392133"><ele>1145.0</ele><time>2026-05-02T14:43:25Z</time></trkpt><trkpt lat="42.22561918409575" lon="13.263274497102685"><ele>1145.0</ele><time>2026-05-02T14:43:26Z</time></trkpt><trkpt lat="42.225690937610686" lon="13.263249029486618"><ele>1145.0</ele><time>2026-05-02T14:43:27Z</time></trkpt><trkpt lat="42.2257617037581" lon="13.263193579413002"><ele>1145.0</ele><time>2026-05-02T14:43:28Z</time></trkpt><trkpt lat="42.22582750003688" lon="13.263171050585312"><ele>1145.0</ele><time>2026-05-02T14:43:29Z</time></trkpt><trkpt lat="42.22590518995471" lon="13.263154852854864"><ele>1145.0</ele><time>2026-05-02T14:43:30Z</time></trkpt><trkpt lat="42.225978005348125" lon="13.2631475155352"><ele>1146.0000000000002</ele><time>2026-05-02T14:43:31Z</time></trkpt><trkpt lat="42.22605125199282" lon="13.263144051383097"><ele>1147.0</ele><time>2026-05-02T14:43:32Z</time></trkpt><trkpt lat="42.226116841800795" lon="13.26314511546533"><ele>1148.0</ele><time>2026-05-02T14:43:33Z</time></trkpt><trkpt lat="42.22618152677786" lon="13.263151148010103"><ele>1149.0</ele><time>2026-05-02T14:43:34Z</time></trkpt><trkpt lat="42.22625771511036" lon="13.263152567196572"><ele>1150.0</ele><time>2026-05-02T14:43:35Z</time></trkpt><trkpt lat="42.22633312051149" lon="13.263168906024827"><ele>1151.0000000000002</ele><time>2026-05-02T14:43:36Z</time></trkpt><trkpt lat="42.226401402215096" lon="13.263205634779604"><ele>1152.0</ele><time>2026-05-02T14:43:37Z</time></trkpt><trkpt lat="42.2264728402855" lon="13.263243308556252"><ele>1152.0</ele><time>2026-05-02T14:43:38Z</time></trkpt><trkpt lat="42.226531453820236" lon="13.263281489675135"><ele>1152.0</ele><time>2026-05-02T14:43:39Z</time></trkpt><trkpt lat="42.22657008077206" lon="13.263362952201632"><ele>1152.0</ele><time>2026-05-02T14:43:40Z</time></trkpt><trkpt lat="42.226616208465586" lon="13.263448705239234"><ele>1152.0</ele><time>2026-05-02T14:43:41Z</time></trkpt><trkpt lat="42.22667695004533" lon="13.263530606004869"><ele>1152.0</ele><time>2026-05-02T14:43:42Z</time></trkpt><trkpt lat="42.22671882781014" lon="13.263630242230668"><ele>1152.0</ele><time>2026-05-02T14:43:43Z</time></trkpt><trkpt lat="42.22675070272553" lon="13.263721014627897"><ele>1152.0</ele><time>2026-05-02T14:43:44Z</time></trkpt><trkpt lat="42.226761131280696" lon="13.26381864184312"><ele>1152.0</ele><time>2026-05-02T14:43:45Z</time></trkpt><trkpt lat="42.226796855827445" lon="13.263901264521968"><ele>1152.0</ele><time>2026-05-02T14:43:46Z</time></trkpt><trkpt lat="42.226811740971876" lon="13.264001208425551"><ele>1152.0</ele><time>2026-05-02T14:43:47Z</time></trkpt><trkpt lat="42.2268878179707" lon="13.264132554126382"><ele>1152.0</ele><time>2026-05-02T14:43:49Z</time></trkpt><trkpt lat="42.2269592739797" lon="13.26424749417373"><ele>1154.6</ele><time>2026-05-02T14:43:51Z</time></trkpt><trkpt lat="42.2269978076607" lon="13.264369790822597"><ele>1157.2</ele><time>2026-05-02T14:43:53Z</time></trkpt><trkpt lat="42.22703994302121" lon="13.264450902560233"><ele>1159.8</ele><time>2026-05-02T14:43:54Z</time></trkpt><trkpt lat="42.22709229860319" lon="13.2645007828389"><ele>1162.4</ele><time>2026-05-02T14:43:55Z</time></trkpt><trkpt lat="42.2271714395442" lon="13.264598012653355"><ele>1165.0</ele><time>2026-05-02T14:43:57Z</time></trkpt><trkpt lat="42.22729474205056" lon="13.264652539840675"><ele>1164.4</ele><time>2026-05-02T14:43:59Z</time></trkpt><trkpt lat="42.22743817627512" lon="13.264585490364457"><ele>1163.8</ele><time>2026-05-02T14:44:01Z</time></trkpt><trkpt lat="42.22750908820321" lon="13.264542417515878"><ele>1163.2</ele><time>2026-05-02T14:44:02Z</time></trkpt><trkpt lat="42.22757833246599" lon="13.264509143008604"><ele>1162.6</ele><time>2026-05-02T14:44:03Z</time></trkpt><trkpt lat="42.22765323392121" lon="13.264490086040903"><ele>1162.0</ele><time>2026-05-02T14:44:04Z</time></trkpt><trkpt lat="42.2277340519127" lon="13.264475976898584"><ele>1162.0</ele><time>2026-05-02T14:44:05Z</time></trkpt><trkpt lat="42.22781997024488" lon="13.264467443447938"><ele>1162.0</ele><time>2026-05-02T14:44:06Z</time></trkpt><trkpt lat="42.227897894186654" lon="13.264453615319361"><ele>1162.0</ele><time>2026-05-02T14:44:07Z</time></trkpt><trkpt lat="42.227980657539874" lon="13.264404756125167"><ele>1162.0</ele><time>2026-05-02T14:44:08Z</time></trkpt><trkpt lat="42.22806021662081" lon="13.264357435927876"><ele>1162.0</ele><time>2026-05-02T14:44:09Z</time></trkpt><trkpt lat="42.22814710323014" lon="13.264315736763942"><ele>1162.0</ele><time>2026-05-02T14:44:10Z</time></trkpt><trkpt lat="42.228232015116475" lon="13.264269133722433"><ele>1162.1666666666665</ele><time>2026-05-02T14:44:11Z</time></trkpt><trkpt lat="42.228301911014874" lon="13.264227449294898"><ele>1162.3333333333333</ele><time>2026-05-02T14:44:12Z</time></trkpt><trkpt lat="42.22836342388254" lon="13.264168875972718"><ele>1162.5</ele><time>2026-05-02T14:44:13Z</time></trkpt><trkpt lat="42.22841503469446" lon="13.264088791353242"><ele>1162.6666666666667</ele><time>2026-05-02T14:44:14Z</time></trkpt><trkpt lat="42.228460457399684" lon="13.263985147897035"><ele>1162.8333333333335</ele><time>2026-05-02T14:44:15Z</time></trkpt><trkpt lat="42.2285144631571" lon="13.263891034848013"><ele>1163.0</ele><time>2026-05-02T14:44:16Z</time></trkpt><trkpt lat="42.22857802761915" lon="13.26382189261306"><ele>1163.0</ele><time>2026-05-02T14:44:17Z</time></trkpt><trkpt lat="42.228640263372064" lon="13.263763163859993"><ele>1163.0</ele><time>2026-05-02T14:44:18Z</time></trkpt><trkpt lat="42.22870824587402" lon="13.263691607862077"><ele>1163.0</ele><time>2026-05-02T14:44:19Z</time></trkpt><trkpt lat="42.228769053222855" lon="13.263620000683709"><ele>1163.0</ele><time>2026-05-02T14:44:20Z</time></trkpt><trkpt lat="42.228824633607225" lon="13.263555246319518"><ele>1163.0</ele><time>2026-05-02T14:44:21Z</time></trkpt><trkpt lat="42.228889300092995" lon="13.263488123438867"><ele>1163.0</ele><time>2026-05-02T14:44:22Z</time></trkpt><trkpt lat="42.228955446083795" lon="13.263430724399068"><ele>1165.8333333333335</ele><time>2026-05-02T14:44:23Z</time></trkpt><trkpt lat="42.229025635482664" lon="13.26336676297132"><ele>1168.6666666666667</ele><time>2026-05-02T14:44:24Z</time></trkpt><trkpt lat="42.22909436807856" lon="13.263305556658466"><ele>1171.5</ele><time>2026-05-02T14:44:25Z</time></trkpt><trkpt lat="42.229165311476066" lon="13.26324192107405"><ele>1174.3333333333333</ele><time>2026-05-02T14:44:26Z</time></trkpt><trkpt lat="42.22924085871189" lon="13.26316852155887"><ele>1177.1666666666665</ele><time>2026-05-02T14:44:27Z</time></trkpt><trkpt lat="42.22929419975447" lon="13.263105332520354"><ele>1180.0</ele><time>2026-05-02T14:44:28Z</time></trkpt><trkpt lat="42.22939161132406" lon="13.262973058230545"><ele>1180.0000000000002</ele><time>2026-05-02T14:44:30Z</time></trkpt><trkpt lat="42.229431770042815" lon="13.262905592280493"><ele>1180.0</ele><time>2026-05-02T14:44:31Z</time></trkpt><trkpt lat="42.229444761936236" lon="13.262768158762148"><ele>1180.0</ele><time>2026-05-02T14:44:33Z</time></trkpt><trkpt lat="42.22943398633505" lon="13.262682010771792"><ele>1180.0</ele><time>2026-05-02T14:44:34Z</time></trkpt><trkpt lat="42.229399150072545" lon="13.262599709776818"><ele>1180.0</ele><time>2026-05-02T14:44:35Z</time></trkpt><trkpt lat="42.22936140851243" lon="13.262523839209248"><ele>1180.0000000000002</ele><time>2026-05-02T14:44:36Z</time></trkpt><trkpt lat="42.22932733973274" lon="13.262436853808087"><ele>1180.0</ele><time>2026-05-02T14:44:37Z</time></trkpt><trkpt lat="42.229316684535505" lon="13.26234578354371"><ele>1179.6666666666665</ele><time>2026-05-02T14:44:38Z</time></trkpt><trkpt lat="42.229340391631716" lon="13.262227108070903"><ele>1179.3333333333333</ele><time>2026-05-02T14:44:40Z</time></trkpt><trkpt lat="42.22943612775174" lon="13.262178509256026"><ele>1179.0</ele><time>2026-05-02T14:44:42Z</time></trkpt><trkpt lat="42.229486366136705" lon="13.26210838550296"><ele>1178.6666666666667</ele><time>2026-05-02T14:44:43Z</time></trkpt><trkpt lat="42.22953827939861" lon="13.26200970250578"><ele>1178.3333333333335</ele><time>2026-05-02T14:44:44Z</time></trkpt><trkpt lat="42.229589865409395" lon="13.261903937500401"><ele>1178.0</ele><time>2026-05-02T14:44:45Z</time></trkpt><trkpt lat="42.22964456651284" lon="13.26178010917522"><ele>1178.0</ele><time>2026-05-02T14:44:46Z</time></trkpt><trkpt lat="42.229686758894964" lon="13.261664287610898"><ele>1178.0</ele><time>2026-05-02T14:44:47Z</time></trkpt><trkpt lat="42.22971257867822" lon="13.261569235462751"><ele>1178.0</ele><time>2026-05-02T14:44:48Z</time></trkpt><trkpt lat="42.22972285188134" lon="13.261414562198475"><ele>1178.0</ele><time>2026-05-02T14:44:50Z</time></trkpt><trkpt lat="42.229674983440276" lon="13.261330642406964"><ele>1178.0</ele><time>2026-05-02T14:44:51Z</time></trkpt><trkpt lat="42.22963987652673" lon="13.261153460380257"><ele>1177.2</ele><time>2026-05-02T14:44:53Z</time></trkpt><trkpt lat="42.22962635729165" lon="13.261058670442056"><ele>1176.4</ele><time>2026-05-02T14:44:54Z</time></trkpt><trkpt lat="42.22968285158938" lon="13.260910819369936"><ele>1175.6000000000001</ele><time>2026-05-02T14:44:56Z</time></trkpt><trkpt lat="42.22978855955831" lon="13.260795201441066"><ele>1174.8</ele><time>2026-05-02T14:44:58Z</time></trkpt><trkpt lat="42.22986051726747" lon="13.26079987734367"><ele>1174.0</ele><time>2026-05-02T14:44:59Z</time></trkpt><trkpt lat="42.22992565735132" lon="13.260812985213809"><ele>1177.8333333333333</ele><time>2026-05-02T14:45:00Z</time></trkpt><trkpt lat="42.23000037053761" lon="13.260820043889122"><ele>1181.6666666666665</ele><time>2026-05-02T14:45:01Z</time></trkpt><trkpt lat="42.23006946918171" lon="13.26084169476517"><ele>1185.5</ele><time>2026-05-02T14:45:02Z</time></trkpt><trkpt lat="42.23014201418074" lon="13.26086286062677"><ele>1189.3333333333333</ele><time>2026-05-02T14:45:03Z</time></trkpt><trkpt lat="42.23022687486997" lon="13.260877654450262"><ele>1193.1666666666667</ele><time>2026-05-02T14:45:04Z</time></trkpt><trkpt lat="42.230305116344375" lon="13.260932648993265"><ele>1197.0</ele><time>2026-05-02T14:45:05Z</time></trkpt><trkpt lat="42.230364048582494" lon="13.260973655202367"><ele>1197.0</ele><time>2026-05-02T14:45:06Z</time></trkpt><trkpt lat="42.230469267894456" lon="13.260981975778288"><ele>1197.0</ele><time>2026-05-02T14:45:08Z</time></trkpt><trkpt lat="42.23054608166416" lon="13.260934362911724"><ele>1197.0</ele><time>2026-05-02T14:45:09Z</time></trkpt><trkpt lat="42.230601602890474" lon="13.26081881985063"><ele>1197.0</ele><time>2026-05-02T14:45:10Z</time></trkpt><trkpt lat="42.230661885987885" lon="13.260727128791622"><ele>1197.0</ele><time>2026-05-02T14:45:11Z</time></trkpt><trkpt lat="42.23072080558596" lon="13.260646089629985"><ele>1196.0</ele><time>2026-05-02T14:45:12Z</time></trkpt><trkpt lat="42.230787553641996" lon="13.26057695210546"><ele>1195.0</ele><time>2026-05-02T14:45:13Z</time></trkpt><trkpt lat="42.23084864952365" lon="13.260527446497022"><ele>1194.0</ele><time>2026-05-02T14:45:14Z</time></trkpt><trkpt lat="42.230907524303596" lon="13.260476472646285"><ele>1193.0</ele><time>2026-05-02T14:45:15Z</time></trkpt><trkpt lat="42.23096900605103" lon="13.260434062577312"><ele>1192.0</ele><time>2026-05-02T14:45:16Z</time></trkpt><trkpt lat="42.23103537383142" lon="13.26039856310364"><ele>1191.0</ele><time>2026-05-02T14:45:17Z</time></trkpt><trkpt lat="42.23111782997827" lon="13.260396350460368"><ele>1190.0</ele><time>2026-05-02T14:45:18Z</time></trkpt><trkpt lat="42.23120762866909" lon="13.260385005605865"><ele>1190.0</ele><time>2026-05-02T14:45:19Z</time></trkpt><trkpt lat="42.23129754968649" lon="13.260376389771485"><ele>1190.0</ele><time>2026-05-02T14:45:20Z</time></trkpt><trkpt lat="42.23137992805073" lon="13.260426893571486"><ele>1190.0</ele><time>2026-05-02T14:45:21Z</time></trkpt><trkpt lat="42.23150122591407" lon="13.260477286219794"><ele>1190.0</ele><time>2026-05-02T14:45:23Z</time></trkpt><trkpt lat="42.23156886161905" lon="13.260512095888444"><ele>1190.0</ele><time>2026-05-02T14:45:24Z</time></trkpt><trkpt lat="42.23164545650481" lon="13.260550341084265"><ele>1191.3333333333335</ele><time>2026-05-02T14:45:25Z</time></trkpt><trkpt lat="42.231732681130666" lon="13.260577759322661"><ele>1192.6666666666667</ele><time>2026-05-02T14:45:26Z</time></trkpt><trkpt lat="42.231797852709406" lon="13.26062843443471"><ele>1194.0</ele><time>2026-05-02T14:45:27Z</time></trkpt><trkpt lat="42.231875256545194" lon="13.260678520220926"><ele>1195.3333333333333</ele><time>2026-05-02T14:45:28Z</time></trkpt><trkpt lat="42.23195667898476" lon="13.260733150156854"><ele>1196.6666666666665</ele><time>2026-05-02T14:45:29Z</time></trkpt><trkpt lat="42.23203909301302" lon="13.26077984099447"><ele>1198.0</ele><time>2026-05-02T14:45:30Z</time></trkpt><trkpt lat="42.23213595421222" lon="13.26081500608814"><ele>1199.0</ele><time>2026-05-02T14:45:31Z</time></trkpt><trkpt lat="42.23221975476527" lon="13.26086690121735"><ele>1200.0</ele><time>2026-05-02T14:45:32Z</time></trkpt><trkpt lat="42.23229808663144" lon="13.260929175207021"><ele>1201.0</ele><time>2026-05-02T14:45:33Z</time></trkpt><trkpt lat="42.23239278225714" lon="13.260995307404697"><ele>1202.0</ele><time>2026-05-02T14:45:34Z</time></trkpt><trkpt lat="42.232494428966035" lon="13.261064157228711"><ele>1203.0</ele><time>2026-05-02T14:45:35Z</time></trkpt><trkpt lat="42.23259537829551" lon="13.26114054423724"><ele>1203.0</ele><time>2026-05-02T14:45:36Z</time></trkpt><trkpt lat="42.232692015408276" lon="13.261216649785286"><ele>1203.0</ele><time>2026-05-02T14:45:37Z</time></trkpt><trkpt lat="42.23279630887752" lon="13.26127448546908"><ele>1203.0</ele><time>2026-05-02T14:45:38Z</time></trkpt><trkpt lat="42.23288041659272" lon="13.261330291941528"><ele>1203.0</ele><time>2026-05-02T14:45:39Z</time></trkpt><trkpt lat="42.23293894375196" lon="13.26139091119488"><ele>1203.0</ele><time>2026-05-02T14:45:40Z</time></trkpt><trkpt lat="42.232996975290085" lon="13.261435893033275"><ele>1203.6</ele><time>2026-05-02T14:45:41Z</time></trkpt><trkpt lat="42.233094312507106" lon="13.261538630716325"><ele>1204.1999999999998</ele><time>2026-05-02T14:45:43Z</time></trkpt><trkpt lat="42.233149738806894" lon="13.261605433745098"><ele>1204.8</ele><time>2026-05-02T14:45:44Z</time></trkpt><trkpt lat="42.23320970455971" lon="13.261652243192689"><ele>1205.3999999999999</ele><time>2026-05-02T14:45:45Z</time></trkpt><trkpt lat="42.233301488515664" lon="13.261724810464603"><ele>1206.0</ele><time>2026-05-02T14:45:47Z</time></trkpt><trkpt lat="42.233389616886086" lon="13.261790831525897"><ele>1206.0</ele><time>2026-05-02T14:45:49Z</time></trkpt><trkpt lat="42.23344384776311" lon="13.261842464400647"><ele>1206.0</ele><time>2026-05-02T14:45:50Z</time></trkpt><trkpt lat="42.23351545764596" lon="13.261871360810233"><ele>1206.0</ele><time>2026-05-02T14:45:51Z</time></trkpt><trkpt lat="42.23357493067269" lon="13.261901660289062"><ele>1206.0</ele><time>2026-05-02T14:45:52Z</time></trkpt><trkpt lat="42.233643339393645" lon="13.261933005458555"><ele>1206.0</ele><time>2026-05-02T14:45:53Z</time></trkpt><trkpt lat="42.23370770219809" lon="13.261971243725943"><ele>1206.0</ele><time>2026-05-02T14:45:54Z</time></trkpt><trkpt lat="42.23376916106608" lon="13.262018445793814"><ele>1206.0</ele><time>2026-05-02T14:45:55Z</time></trkpt><trkpt lat="42.233825550044195" lon="13.262072273646947"><ele>1206.0</ele><time>2026-05-02T14:45:56Z</time></trkpt><trkpt lat="42.2339357546506" lon="13.262089023321755"><ele>1206.0</ele><time>2026-05-02T14:45:58Z</time></trkpt><trkpt lat="42.23405069397153" lon="13.262083763693301"><ele>1206.0</ele><time>2026-05-02T14:46:00Z</time></trkpt><trkpt lat="42.234171068642866" lon="13.262004400426774"><ele>1206.0</ele><time>2026-05-02T14:46:02Z</time></trkpt><trkpt lat="42.23423610636231" lon="13.261977752555007"><ele>1206.0</ele><time>2026-05-02T14:46:03Z</time></trkpt><trkpt lat="42.23430880068866" lon="13.261953729706445"><ele>1205.0</ele><time>2026-05-02T14:46:04Z</time></trkpt><trkpt lat="42.2343867710463" lon="13.261923017948856"><ele>1204.0</ele><time>2026-05-02T14:46:05Z</time></trkpt><trkpt lat="42.23446872188228" lon="13.261884880696503"><ele>1203.0</ele><time>2026-05-02T14:46:06Z</time></trkpt><trkpt lat="42.23455698853136" lon="13.261841183445332"><ele>1202.0</ele><time>2026-05-02T14:46:07Z</time></trkpt><trkpt lat="42.23464850815123" lon="13.261796132078675"><ele>1201.0</ele><time>2026-05-02T14:46:08Z</time></trkpt><trkpt lat="42.234733706624546" lon="13.261754326968989"><ele>1203.3333333333333</ele><time>2026-05-02T14:46:09Z</time></trkpt><trkpt lat="42.234809954030275" lon="13.261708085705958"><ele>1205.6666666666665</ele><time>2026-05-02T14:46:10Z</time></trkpt><trkpt lat="42.23488666906831" lon="13.261665691531741"><ele>1208.0</ele><time>2026-05-02T14:46:11Z</time></trkpt><trkpt lat="42.2349595946867" lon="13.261647778263658"><ele>1210.3333333333333</ele><time>2026-05-02T14:46:12Z</time></trkpt><trkpt lat="42.23502577252833" lon="13.26159644316913"><ele>1212.6666666666667</ele><time>2026-05-02T14:46:13Z</time></trkpt><trkpt lat="42.235105580840916" lon="13.261575760217614"><ele>1215.0</ele><time>2026-05-02T14:46:14Z</time></trkpt><trkpt lat="42.23525215733592" lon="13.261544054402837"><ele>1215.0</ele><time>2026-05-02T14:46:16Z</time></trkpt><trkpt lat="42.23537918291404" lon="13.261466947878706"><ele>1215.0</ele><time>2026-05-02T14:46:18Z</time></trkpt><trkpt lat="42.235439262418616" lon="13.261381457950185"><ele>1215.0</ele><time>2026-05-02T14:46:19Z</time></trkpt><trkpt lat="42.235510024684025" lon="13.261360458000029"><ele>1215.0</ele><time>2026-05-02T14:46:20Z</time></trkpt><trkpt lat="42.235591616565245" lon="13.261298253541804"><ele>1215.0</ele><time>2026-05-02T14:46:21Z</time></trkpt><trkpt lat="42.23566191702483" lon="13.261238878095776"><ele>1216.6</ele><time>2026-05-02T14:46:22Z</time></trkpt><trkpt lat="42.23573956304749" lon="13.26117329842461"><ele>1218.2</ele><time>2026-05-02T14:46:23Z</time></trkpt><trkpt lat="42.23582081559648" lon="13.261104963121984"><ele>1219.8</ele><time>2026-05-02T14:46:24Z</time></trkpt><trkpt lat="42.23590143647291" lon="13.26104264954939"><ele>1221.4</ele><time>2026-05-02T14:46:25Z</time></trkpt><trkpt lat="42.235971295967474" lon="13.26098020334683"><ele>1223.0</ele><time>2026-05-02T14:46:26Z</time></trkpt><trkpt lat="42.23605778623732" lon="13.260967442120908"><ele>1223.0</ele><time>2026-05-02T14:46:27Z</time></trkpt><trkpt lat="42.236137229954" lon="13.26095333938912"><ele>1223.0</ele><time>2026-05-02T14:46:28Z</time></trkpt><trkpt lat="42.23620702836805" lon="13.26092759583362"><ele>1223.0</ele><time>2026-05-02T14:46:29Z</time></trkpt><trkpt lat="42.23628788782026" lon="13.260892050847147"><ele>1223.0</ele><time>2026-05-02T14:46:30Z</time></trkpt><trkpt lat="42.23636395765462" lon="13.26086583878756"><ele>1223.0</ele><time>2026-05-02T14:46:31Z</time></trkpt><trkpt lat="42.23644234839883" lon="13.260850408475703"><ele>1223.0</ele><time>2026-05-02T14:46:32Z</time></trkpt><trkpt lat="42.23652514078658" lon="13.2608331420396"><ele>1223.6666666666667</ele><time>2026-05-02T14:46:33Z</time></trkpt><trkpt lat="42.23660922839408" lon="13.260790009433432"><ele>1224.3333333333335</ele><time>2026-05-02T14:46:34Z</time></trkpt><trkpt lat="42.236689879449486" lon="13.260731906779872"><ele>1225.0</ele><time>2026-05-02T14:46:35Z</time></trkpt><trkpt lat="42.23675936817048" lon="13.26066414282862"><ele>1225.6666666666667</ele><time>2026-05-02T14:46:36Z</time></trkpt><trkpt lat="42.236830953491484" lon="13.260611909430542"><ele>1226.3333333333333</ele><time>2026-05-02T14:46:37Z</time></trkpt><trkpt lat="42.23690965958916" lon="13.260584480447458"><ele>1227.0</ele><time>2026-05-02T14:46:38Z</time></trkpt><trkpt lat="42.23698535640866" lon="13.260566299750366"><ele>1227.0</ele><time>2026-05-02T14:46:39Z</time></trkpt><trkpt lat="42.23705178590395" lon="13.26056674532547"><ele>1227.0</ele><time>2026-05-02T14:46:40Z</time></trkpt><trkpt lat="42.237122596986126" lon="13.260579129841611"><ele>1227.0</ele><time>2026-05-02T14:46:41Z</time></trkpt><trkpt lat="42.23718980721384" lon="13.260606525534241"><ele>1227.0</ele><time>2026-05-02T14:46:42Z</time></trkpt><trkpt lat="42.23726914799084" lon="13.260652909522292"><ele>1227.0</ele><time>2026-05-02T14:46:43Z</time></trkpt><trkpt lat="42.237353246195575" lon="13.260683500881063"><ele>1227.0</ele><time>2026-05-02T14:46:44Z</time></trkpt><trkpt lat="42.23744279726787" lon="13.260685611114688"><ele>1226.8333333333333</ele><time>2026-05-02T14:46:45Z</time></trkpt><trkpt lat="42.23752147486682" lon="13.260656631777552"><ele>1226.6666666666667</ele><time>2026-05-02T14:46:46Z</time></trkpt><trkpt lat="42.23761141261943" lon="13.260628903345102"><ele>1226.5</ele><time>2026-05-02T14:46:47Z</time></trkpt><trkpt lat="42.23770730976823" lon="13.260627548993337"><ele>1226.3333333333335</ele><time>2026-05-02T14:46:48Z</time></trkpt><trkpt lat="42.23778923152832" lon="13.260628521587638"><ele>1226.1666666666667</ele><time>2026-05-02T14:46:49Z</time></trkpt><trkpt lat="42.23786826909525" lon="13.260606709261083"><ele>1226.0</ele><time>2026-05-02T14:46:50Z</time></trkpt><trkpt lat="42.237944392321296" lon="13.2605630816561"><ele>1225.1666666666667</ele><time>2026-05-02T14:46:51Z</time></trkpt><trkpt lat="42.23801647918787" lon="13.260512844154027"><ele>1224.3333333333335</ele><time>2026-05-02T14:46:52Z</time></trkpt><trkpt lat="42.23808001085749" lon="13.26050660981077"><ele>1223.5</ele><time>2026-05-02T14:46:53Z</time></trkpt><trkpt lat="42.23820232537575" lon="13.260464184646539"><ele>1222.6666666666667</ele><time>2026-05-02T14:46:55Z</time></trkpt><trkpt lat="42.2382774496364" lon="13.260463122544698"><ele>1221.8333333333333</ele><time>2026-05-02T14:46:56Z</time></trkpt><trkpt lat="42.23835357894358" lon="13.260449125191826"><ele>1221.0</ele><time>2026-05-02T14:46:57Z</time></trkpt><trkpt lat="42.2384272503418" lon="13.260426800856536"><ele>1220.9999999999998</ele><time>2026-05-02T14:46:58Z</time></trkpt><trkpt lat="42.2384931116676" lon="13.260389565432266"><ele>1221.0</ele><time>2026-05-02T14:46:59Z</time></trkpt><trkpt lat="42.238562453680856" lon="13.260336022228252"><ele>1221.0</ele><time>2026-05-02T14:47:00Z</time></trkpt><trkpt lat="42.2386284490799" lon="13.260299430514292"><ele>1221.0</ele><time>2026-05-02T14:47:01Z</time></trkpt><trkpt lat="42.23866807011954" lon="13.260211405132303"><ele>1221.0</ele><time>2026-05-02T14:47:02Z</time></trkpt><trkpt lat="42.238735302198634" lon="13.260159011906213"><ele>1220.9999999999998</ele><time>2026-05-02T14:47:03Z</time></trkpt><trkpt lat="42.238799246306364" lon="13.26014666506314"><ele>1221.0</ele><time>2026-05-02T14:47:04Z</time></trkpt><trkpt lat="42.23886565959991" lon="13.260143847749557"><ele>1221.0</ele><time>2026-05-02T14:47:05Z</time></trkpt><trkpt lat="42.23892609166569" lon="13.260168547528986"><ele>1221.0</ele><time>2026-05-02T14:47:06Z</time></trkpt><trkpt lat="42.23898582485607" lon="13.260223274147057"><ele>1221.0</ele><time>2026-05-02T14:47:07Z</time></trkpt><trkpt lat="42.239046393055865" lon="13.260297989088198"><ele>1221.0</ele><time>2026-05-02T14:47:08Z</time></trkpt><trkpt lat="42.23911671359085" lon="13.260391783981131"><ele>1221.0</ele><time>2026-05-02T14:47:09Z</time></trkpt><trkpt lat="42.23920381795582" lon="13.260480929364489"><ele>1221.0</ele><time>2026-05-02T14:47:10Z</time></trkpt><trkpt lat="42.239285278716096" lon="13.260546373164896"><ele>1220.1666666666667</ele><time>2026-05-02T14:47:11Z</time></trkpt><trkpt lat="42.23935289319793" lon="13.260582471985243"><ele>1219.3333333333333</ele><time>2026-05-02T14:47:12Z</time></trkpt><trkpt lat="42.239404164966764" lon="13.260642444847257"><ele>1218.5</ele><time>2026-05-02T14:47:13Z</time></trkpt><trkpt lat="42.23952578911432" lon="13.26072906733024"><ele>1217.6666666666665</ele><time>2026-05-02T14:47:15Z</time></trkpt><trkpt lat="42.23959747268815" lon="13.260772680864862"><ele>1216.8333333333333</ele><time>2026-05-02T14:47:16Z</time></trkpt><trkpt lat="42.23968620359355" lon="13.260787054510494"><ele>1216.0</ele><time>2026-05-02T14:47:17Z</time></trkpt><trkpt lat="42.23977493730145" lon="13.260809828711213"><ele>1218.1666666666665</ele><time>2026-05-02T14:47:18Z</time></trkpt><trkpt lat="42.239864178247956" lon="13.260809298264874"><ele>1220.3333333333333</ele><time>2026-05-02T14:47:19Z</time></trkpt><trkpt lat="42.23994661535657" lon="13.260800120847012"><ele>1222.5</ele><time>2026-05-02T14:47:20Z</time></trkpt><trkpt lat="42.240029922059406" lon="13.260780192687227"><ele>1224.6666666666667</ele><time>2026-05-02T14:47:21Z</time></trkpt><trkpt lat="42.240110811509766" lon="13.260749556752579"><ele>1226.8333333333335</ele><time>2026-05-02T14:47:22Z</time></trkpt><trkpt lat="42.24019853053676" lon="13.26070950700432"><ele>1229.0</ele><time>2026-05-02T14:47:23Z</time></trkpt><trkpt lat="42.24028771137341" lon="13.260673452744891"><ele>1229.0</ele><time>2026-05-02T14:47:24Z</time></trkpt><trkpt lat="42.24037503975651" lon="13.260642352667183"><ele>1229.0</ele><time>2026-05-02T14:47:25Z</time></trkpt><trkpt lat="42.24046786386892" lon="13.26061309270345"><ele>1229.0</ele><time>2026-05-02T14:47:26Z</time></trkpt><trkpt lat="42.240554673593124" lon="13.260584515974745"><ele>1229.0</ele><time>2026-05-02T14:47:27Z</time></trkpt><trkpt lat="42.240640773680965" lon="13.260575325057077"><ele>1229.0</ele><time>2026-05-02T14:47:28Z</time></trkpt><trkpt lat="42.24071783229126" lon="13.260550400819339"><ele>1229.0</ele><time>2026-05-02T14:47:29Z</time></trkpt><trkpt lat="42.24082898793957" lon="13.26051980927169"><ele>1227.0</ele><time>2026-05-02T14:47:31Z</time></trkpt><trkpt lat="42.240926682977964" lon="13.260444972447766"><ele>1225.0</ele><time>2026-05-02T14:47:33Z</time></trkpt><trkpt lat="42.24104417360887" lon="13.260428475926416"><ele>1223.0</ele><time>2026-05-02T14:47:35Z</time></trkpt><trkpt lat="42.24115580824404" lon="13.260339582101532"><ele>1221.0</ele><time>2026-05-02T14:47:37Z</time></trkpt><trkpt lat="42.24121719261351" lon="13.260295772891498"><ele>1219.0</ele><time>2026-05-02T14:47:38Z</time></trkpt><trkpt lat="42.24127195162893" lon="13.260233726450947"><ele>1219.0</ele><time>2026-05-02T14:47:39Z</time></trkpt><trkpt lat="42.241326865238726" lon="13.260161046056465"><ele>1219.0</ele><time>2026-05-02T14:47:40Z</time></trkpt><trkpt lat="42.241388560205095" lon="13.2600550449348"><ele>1219.0</ele><time>2026-05-02T14:47:42Z</time></trkpt><trkpt lat="42.24148845858203" lon="13.260012221341741"><ele>1219.0</ele><time>2026-05-02T14:47:44Z</time></trkpt><trkpt lat="42.241550672058715" lon="13.260034091283526"><ele>1219.0</ele><time>2026-05-02T14:47:45Z</time></trkpt><trkpt lat="42.24162642409452" lon="13.260042337195408"><ele>1219.0</ele><time>2026-05-02T14:47:46Z</time></trkpt><trkpt lat="42.24171317980535" lon="13.260023485470867"><ele>1221.8</ele><time>2026-05-02T14:47:47Z</time></trkpt><trkpt lat="42.24180527442135" lon="13.260030992943417"><ele>1224.6000000000001</ele><time>2026-05-02T14:47:48Z</time></trkpt><trkpt lat="42.241872590729294" lon="13.26003239056576"><ele>1227.4</ele><time>2026-05-02T14:47:49Z</time></trkpt><trkpt lat="42.24199461782496" lon="13.260002696397125"><ele>1230.2</ele><time>2026-05-02T14:47:51Z</time></trkpt><trkpt lat="42.242104526479416" lon="13.259973780629362"><ele>1233.0</ele><time>2026-05-02T14:47:53Z</time></trkpt><trkpt lat="42.242227003241204" lon="13.259935552900641"><ele>1232.0</ele><time>2026-05-02T14:47:55Z</time></trkpt><trkpt lat="42.242300164542534" lon="13.25990828572776"><ele>1231.0</ele><time>2026-05-02T14:47:56Z</time></trkpt><trkpt lat="42.24237062785935" lon="13.259878188527939"><ele>1230.0</ele><time>2026-05-02T14:47:57Z</time></trkpt><trkpt lat="42.242434851550975" lon="13.259849226297558"><ele>1229.0</ele><time>2026-05-02T14:47:58Z</time></trkpt><trkpt lat="42.2424959177028" lon="13.259820498630052"><ele>1228.0</ele><time>2026-05-02T14:47:59Z</time></trkpt><trkpt lat="42.242568511256465" lon="13.259786348026132"><ele>1227.0</ele><time>2026-05-02T14:48:00Z</time></trkpt><trkpt lat="42.24268270645596" lon="13.259730203033916"><ele>1227.0</ele><time>2026-05-02T14:48:02Z</time></trkpt><trkpt lat="42.24275533130841" lon="13.259679167182021"><ele>1227.0</ele><time>2026-05-02T14:48:03Z</time></trkpt><trkpt lat="42.24284149491106" lon="13.25967663572439"><ele>1227.0</ele><time>2026-05-02T14:48:04Z</time></trkpt><trkpt lat="42.24292783504011" lon="13.259654833913471"><ele>1227.0</ele><time>2026-05-02T14:48:05Z</time></trkpt><trkpt lat="42.243002965771446" lon="13.259620538257703"><ele>1227.0</ele><time>2026-05-02T14:48:06Z</time></trkpt><trkpt lat="42.2430662106724" lon="13.259584299337101"><ele>1227.0</ele><time>2026-05-02T14:48:07Z</time></trkpt><trkpt lat="42.24315218381838" lon="13.259485445282207"><ele>1230.4</ele><time>2026-05-02T14:48:09Z</time></trkpt><trkpt lat="42.24324861439058" lon="13.259383402881152"><ele>1233.8000000000002</ele><time>2026-05-02T14:48:11Z</time></trkpt><trkpt lat="42.24331011095037" lon="13.259344928887526"><ele>1237.2</ele><time>2026-05-02T14:48:12Z</time></trkpt><trkpt lat="42.24341083914371" lon="13.259249027331201"><ele>1240.6000000000001</ele><time>2026-05-02T14:48:14Z</time></trkpt><trkpt lat="42.2435027213353" lon="13.259144266777739"><ele>1244.0</ele><time>2026-05-02T14:48:16Z</time></trkpt><trkpt lat="42.24358240269268" lon="13.259113406839326"><ele>1244.0</ele><time>2026-05-02T14:48:17Z</time></trkpt><trkpt lat="42.24366985412379" lon="13.259080775239662"><ele>1244.0</ele><time>2026-05-02T14:48:18Z</time></trkpt><trkpt lat="42.24375508548362" lon="13.259032709065607"><ele>1244.0</ele><time>2026-05-02T14:48:19Z</time></trkpt><trkpt lat="42.243841991350706" lon="13.258983205998037"><ele>1244.0</ele><time>2026-05-02T14:48:20Z</time></trkpt><trkpt lat="42.2438997919257" lon="13.258925565437833"><ele>1244.0</ele><time>2026-05-02T14:48:21Z</time></trkpt><trkpt lat="42.24395322849557" lon="13.258856055137436"><ele>1244.0</ele><time>2026-05-02T14:48:22Z</time></trkpt><trkpt lat="42.24399288412754" lon="13.258772271674976"><ele>1245.4</ele><time>2026-05-02T14:48:23Z</time></trkpt><trkpt lat="42.24407294584541" lon="13.258660269273356"><ele>1246.8000000000002</ele><time>2026-05-02T14:48:25Z</time></trkpt><trkpt lat="42.24418028624691" lon="13.258586010827123"><ele>1248.1999999999998</ele><time>2026-05-02T14:48:27Z</time></trkpt><trkpt lat="42.24429716131125" lon="13.258546806189273"><ele>1249.6</ele><time>2026-05-02T14:48:29Z</time></trkpt><trkpt lat="42.24435992854215" lon="13.258567439697144"><ele>1251.0</ele><time>2026-05-02T14:48:30Z</time></trkpt><trkpt lat="42.24443233286153" lon="13.258570105521892"><ele>1251.0</ele><time>2026-05-02T14:48:31Z</time></trkpt><trkpt lat="42.24449664574075" lon="13.258574981060274"><ele>1251.0</ele><time>2026-05-02T14:48:32Z</time></trkpt><trkpt lat="42.244611436236745" lon="13.258609310281503"><ele>1251.0</ele><time>2026-05-02T14:48:34Z</time></trkpt><trkpt lat="42.244679605113795" lon="13.258652468241857"><ele>1251.0</ele><time>2026-05-02T14:48:35Z</time></trkpt><trkpt lat="42.244738118540496" lon="13.258696034171543"><ele>1251.0</ele><time>2026-05-02T14:48:36Z</time></trkpt><trkpt lat="42.244829190593016" lon="13.258764940781452"><ele>1251.0</ele><time>2026-05-02T14:48:38Z</time></trkpt><trkpt lat="42.244891992695905" lon="13.25883974999853"><ele>1250.5</ele><time>2026-05-02T14:48:40Z</time></trkpt><trkpt lat="42.24494500212269" lon="13.258892498589162"><ele>1250.0</ele><time>2026-05-02T14:48:41Z</time></trkpt><trkpt lat="42.245005728881424" lon="13.258951687374646"><ele>1249.5</ele><time>2026-05-02T14:48:42Z</time></trkpt><trkpt lat="42.24506943292764" lon="13.259008543027285"><ele>1249.0</ele><time>2026-05-02T14:48:43Z</time></trkpt><trkpt lat="42.24514113212777" lon="13.259069473919771"><ele>1248.5</ele><time>2026-05-02T14:48:44Z</time></trkpt><trkpt lat="42.245205106250076" lon="13.259117171586539"><ele>1248.0</ele><time>2026-05-02T14:48:45Z</time></trkpt><trkpt lat="42.245278647338594" lon="13.259163201592848"><ele>1249.0</ele><time>2026-05-02T14:48:46Z</time></trkpt><trkpt lat="42.24536626968573" lon="13.259202694627703"><ele>1250.0</ele><time>2026-05-02T14:48:47Z</time></trkpt><trkpt lat="42.245458219479644" lon="13.259216877075385"><ele>1251.0</ele><time>2026-05-02T14:48:48Z</time></trkpt><trkpt lat="42.24554595557706" lon="13.259253335674552"><ele>1252.0</ele><time>2026-05-02T14:48:49Z</time></trkpt><trkpt lat="42.245622697379474" lon="13.259279295063019"><ele>1253.0</ele><time>2026-05-02T14:48:50Z</time></trkpt><trkpt lat="42.245693854748126" lon="13.25930759702191"><ele>1254.0</ele><time>2026-05-02T14:48:51Z</time></trkpt><trkpt lat="42.245756861312934" lon="13.259349427510994"><ele>1254.0</ele><time>2026-05-02T14:48:52Z</time></trkpt><trkpt lat="42.245822696091956" lon="13.259372833368836"><ele>1254.0</ele><time>2026-05-02T14:48:53Z</time></trkpt><trkpt lat="42.24588909756563" lon="13.259396440816023"><ele>1254.0</ele><time>2026-05-02T14:48:54Z</time></trkpt><trkpt lat="42.24600274615253" lon="13.259440122930643"><ele>1254.0</ele><time>2026-05-02T14:48:56Z</time></trkpt><trkpt lat="42.246076360662556" lon="13.259475694741075"><ele>1254.0</ele><time>2026-05-02T14:48:57Z</time></trkpt><trkpt lat="42.24613546348724" lon="13.259515450233314"><ele>1254.0</ele><time>2026-05-02T14:48:58Z</time></trkpt><trkpt lat="42.246199588008906" lon="13.259609569210324"><ele>1254.0</ele><time>2026-05-02T14:49:00Z</time></trkpt><trkpt lat="42.24620190116771" lon="13.259725630999224"><ele>1254.0</ele><time>2026-05-02T14:49:02Z</time></trkpt><trkpt lat="42.246194705208694" lon="13.259886002502757"><ele>1254.0</ele><time>2026-05-02T14:49:04Z</time></trkpt><trkpt lat="42.24618854835894" lon="13.260025260663182"><ele>1254.0</ele><time>2026-05-02T14:49:06Z</time></trkpt><trkpt lat="42.24626421380224" lon="13.26011397310251"><ele>1254.0</ele><time>2026-05-02T14:49:08Z</time></trkpt><trkpt lat="42.24633977274718" lon="13.260102170647754"><ele>1257.0</ele><time>2026-05-02T14:49:09Z</time></trkpt><trkpt lat="42.24641667525493" lon="13.260132275774382"><ele>1260.0</ele><time>2026-05-02T14:49:10Z</time></trkpt><trkpt lat="42.24650384002" lon="13.260108009854315"><ele>1263.0</ele><time>2026-05-02T14:49:11Z</time></trkpt><trkpt lat="42.24659266441323" lon="13.260101453124559"><ele>1266.0</ele><time>2026-05-02T14:49:12Z</time></trkpt><trkpt lat="42.246674555914474" lon="13.260067466062985"><ele>1269.0</ele><time>2026-05-02T14:49:13Z</time></trkpt><trkpt lat="42.246743749254385" lon="13.260013410690842"><ele>1272.0</ele><time>2026-05-02T14:49:14Z</time></trkpt><trkpt lat="42.24680025458352" lon="13.259945549425286"><ele>1271.2857142857142</ele><time>2026-05-02T14:49:15Z</time></trkpt><trkpt lat="42.246848865994835" lon="13.259867380826087"><ele>1270.5714285714287</ele><time>2026-05-02T14:49:16Z</time></trkpt><trkpt lat="42.246901469004705" lon="13.259818597919521"><ele>1269.857142857143</ele><time>2026-05-02T14:49:17Z</time></trkpt><trkpt lat="42.24694659087443" lon="13.259757677621343"><ele>1269.142857142857</ele><time>2026-05-02T14:49:18Z</time></trkpt><trkpt lat="42.2470149427501" lon="13.259737927403409"><ele>1268.4285714285716</ele><time>2026-05-02T14:49:20Z</time></trkpt><trkpt lat="42.24706816202599" lon="13.259788274697701"><ele>1267.7142857142858</ele><time>2026-05-02T14:49:22Z</time></trkpt><trkpt lat="42.247081471513084" lon="13.259919898292619"><ele>1267.0</ele><time>2026-05-02T14:49:24Z</time></trkpt><trkpt lat="42.247048233099704" lon="13.26007184101408"><ele>1269.2</ele><time>2026-05-02T14:49:26Z</time></trkpt><trkpt lat="42.24701972704477" lon="13.260154651806317"><ele>1271.4</ele><time>2026-05-02T14:49:27Z</time></trkpt><trkpt lat="42.24700577304977" lon="13.260279441091395"><ele>1273.6</ele><time>2026-05-02T14:49:29Z</time></trkpt><trkpt lat="42.24708671838902" lon="13.260363723778053"><ele>1275.8</ele><time>2026-05-02T14:49:32Z</time></trkpt><trkpt lat="42.2472012382891" lon="13.260326284065684"><ele>1278.0</ele><time>2026-05-02T14:49:34Z</time></trkpt><trkpt lat="42.247339567376244" lon="13.260246060629754"><ele>1279.6</ele><time>2026-05-02T14:49:36Z</time></trkpt><trkpt lat="42.24730160601435" lon="13.260070346938567"><ele>1281.1999999999998</ele><time>2026-05-02T14:49:37Z</time></trkpt><trkpt lat="42.24732448055613" lon="13.259963704737208"><ele>1282.8</ele><time>2026-05-02T14:49:38Z</time></trkpt><trkpt lat="42.24734145421385" lon="13.259851764080752"><ele>1284.3999999999999</ele><time>2026-05-02T14:49:39Z</time></trkpt><trkpt lat="42.247373040397555" lon="13.259694231403856"><ele>1286.0</ele><time>2026-05-02T14:49:41Z</time></trkpt><trkpt lat="42.247402426312135" lon="13.259617851198248"><ele>1286.0</ele><time>2026-05-02T14:49:42Z</time></trkpt><trkpt lat="42.247458215345475" lon="13.259559893007118"><ele>1286.0</ele><time>2026-05-02T14:49:43Z</time></trkpt><trkpt lat="42.24754388837268" lon="13.259453250988168"><ele>1286.0</ele><time>2026-05-02T14:49:45Z</time></trkpt><trkpt lat="42.247646817550056" lon="13.259359442337288"><ele>1286.0</ele><time>2026-05-02T14:49:47Z</time></trkpt><trkpt lat="42.24769920822929" lon="13.259309609497212"><ele>1286.0</ele><time>2026-05-02T14:49:48Z</time></trkpt><trkpt lat="42.24773437620234" lon="13.259155441088758"><ele>1286.0</ele><time>2026-05-02T14:49:50Z</time></trkpt><trkpt lat="42.247812298362476" lon="13.259058767376263"><ele>1286.0</ele><time>2026-05-02T14:49:52Z</time></trkpt><trkpt lat="42.24791881731655" lon="13.258965090559673"><ele>1286.0</ele><time>2026-05-02T14:49:54Z</time></trkpt><trkpt lat="42.24798825303059" lon="13.258919458697758"><ele>1286.0</ele><time>2026-05-02T14:49:55Z</time></trkpt><trkpt lat="42.248046724062526" lon="13.25884349498062"><ele>1286.0</ele><time>2026-05-02T14:49:56Z</time></trkpt><trkpt lat="42.24807270829776" lon="13.258754144263778"><ele>1283.6</ele><time>2026-05-02T14:49:57Z</time></trkpt><trkpt lat="42.24810727300122" lon="13.258636590455565"><ele>1281.1999999999998</ele><time>2026-05-02T14:49:58Z</time></trkpt><trkpt lat="42.24816044165578" lon="13.258526924353456"><ele>1278.8000000000002</ele><time>2026-05-02T14:49:59Z</time></trkpt><trkpt lat="42.24820766821521" lon="13.258376482230348"><ele>1276.4</ele><time>2026-05-02T14:50:01Z</time></trkpt><trkpt lat="42.24826574956606" lon="13.25824592371134"><ele>1274.0</ele><time>2026-05-02T14:50:03Z</time></trkpt><trkpt lat="42.248305213531786" lon="13.258175963773295"><ele>1275.6666666666667</ele><time>2026-05-02T14:50:04Z</time></trkpt><trkpt lat="42.24837996964913" lon="13.258060552410257"><ele>1277.3333333333335</ele><time>2026-05-02T14:50:06Z</time></trkpt><trkpt lat="42.2484181654981" lon="13.25796811017295"><ele>1279.0</ele><time>2026-05-02T14:50:07Z</time></trkpt><trkpt lat="42.248456405965975" lon="13.25789994588519"><ele>1280.6666666666667</ele><time>2026-05-02T14:50:08Z</time></trkpt><trkpt lat="42.24848054270147" lon="13.257820585894013"><ele>1282.3333333333333</ele><time>2026-05-02T14:50:09Z</time></trkpt><trkpt lat="42.24849832507012" lon="13.257717911260634"><ele>1284.0</ele><time>2026-05-02T14:50:10Z</time></trkpt><trkpt lat="42.24852374553497" lon="13.257624164449545"><ele>1284.0</ele><time>2026-05-02T14:50:11Z</time></trkpt><trkpt lat="42.24856189662911" lon="13.257531028894148"><ele>1284.0</ele><time>2026-05-02T14:50:12Z</time></trkpt><trkpt lat="42.248601200993654" lon="13.257434202852707"><ele>1284.0</ele><time>2026-05-02T14:50:13Z</time></trkpt><trkpt lat="42.248644094966394" lon="13.257347811879097"><ele>1284.0</ele><time>2026-05-02T14:50:14Z</time></trkpt><trkpt lat="42.24868932993219" lon="13.257273651395627"><ele>1284.0</ele><time>2026-05-02T14:50:15Z</time></trkpt><trkpt lat="42.24874579434213" lon="13.25719833354789"><ele>1284.0</ele><time>2026-05-02T14:50:16Z</time></trkpt><trkpt lat="42.24880142064876" lon="13.257141596974943"><ele>1285.1666666666667</ele><time>2026-05-02T14:50:17Z</time></trkpt><trkpt lat="42.24886679827545" lon="13.257096938966372"><ele>1286.3333333333333</ele><time>2026-05-02T14:50:18Z</time></trkpt><trkpt lat="42.24895153417942" lon="13.257049147073417"><ele>1287.5</ele><time>2026-05-02T14:50:19Z</time></trkpt><trkpt lat="42.24902920595081" lon="13.257003092745064"><ele>1288.6666666666665</ele><time>2026-05-02T14:50:20Z</time></trkpt><trkpt lat="42.249120240002824" lon="13.256958934503947"><ele>1289.8333333333333</ele><time>2026-05-02T14:50:21Z</time></trkpt><trkpt lat="42.24920951778205" lon="13.256913209719533"><ele>1291.0</ele><time>2026-05-02T14:50:22Z</time></trkpt><trkpt lat="42.249302625047065" lon="13.256875002306915"><ele>1291.0</ele><time>2026-05-02T14:50:23Z</time></trkpt><trkpt lat="42.24938279894568" lon="13.256859733783873"><ele>1291.0</ele><time>2026-05-02T14:50:24Z</time></trkpt><trkpt lat="42.249457058326115" lon="13.256860769301001"><ele>1291.0</ele><time>2026-05-02T14:50:25Z</time></trkpt><trkpt lat="42.24954298398565" lon="13.256867369023297"><ele>1291.0</ele><time>2026-05-02T14:50:26Z</time></trkpt><trkpt lat="42.24962137526399" lon="13.25686642316842"><ele>1291.0</ele><time>2026-05-02T14:50:27Z</time></trkpt><trkpt lat="42.2496884703331" lon="13.256865189150814"><ele>1291.0</ele><time>2026-05-02T14:50:28Z</time></trkpt><trkpt lat="42.24980425460909" lon="13.256861918116194"><ele>1291.5</ele><time>2026-05-02T14:50:30Z</time></trkpt><trkpt lat="42.24992073770163" lon="13.256818464812977"><ele>1292.0</ele><time>2026-05-02T14:50:32Z</time></trkpt><trkpt lat="42.249980910318016" lon="13.256771178381674"><ele>1292.5</ele><time>2026-05-02T14:50:33Z</time></trkpt><trkpt lat="42.250057388489914" lon="13.256746416744008"><ele>1293.0</ele><time>2026-05-02T14:50:34Z</time></trkpt><trkpt lat="42.250128637856626" lon="13.256680151377749"><ele>1293.5</ele><time>2026-05-02T14:50:35Z</time></trkpt><trkpt lat="42.25021006271856" lon="13.256622979256802"><ele>1294.0</ele><time>2026-05-02T14:50:36Z</time></trkpt><trkpt lat="42.25028578388372" lon="13.256557122466402"><ele>1294.0</ele><time>2026-05-02T14:50:37Z</time></trkpt><trkpt lat="42.250356666160755" lon="13.256497251300798"><ele>1294.0</ele><time>2026-05-02T14:50:38Z</time></trkpt><trkpt lat="42.25042078824945" lon="13.25644913251273"><ele>1294.0</ele><time>2026-05-02T14:50:39Z</time></trkpt><trkpt lat="42.250526559997475" lon="13.256427499238523"><ele>1294.0</ele><time>2026-05-02T14:50:41Z</time></trkpt><trkpt lat="42.250650658575566" lon="13.256399250879388"><ele>1294.0</ele><time>2026-05-02T14:50:43Z</time></trkpt><trkpt lat="42.250736706053395" lon="13.25639567775353"><ele>1294.1666666666665</ele><time>2026-05-02T14:50:44Z</time></trkpt><trkpt lat="42.250828289397916" lon="13.256379307225508"><ele>1294.3333333333333</ele><time>2026-05-02T14:50:45Z</time></trkpt><trkpt lat="42.25092139175078" lon="13.256373811350745"><ele>1294.5</ele><time>2026-05-02T14:50:46Z</time></trkpt><trkpt lat="42.251011211371576" lon="13.25636142034659"><ele>1294.6666666666667</ele><time>2026-05-02T14:50:47Z</time></trkpt><trkpt lat="42.25109880982981" lon="13.25637059834552"><ele>1294.8333333333335</ele><time>2026-05-02T14:50:48Z</time></trkpt><trkpt lat="42.2511688368775" lon="13.25642414861119"><ele>1295.0</ele><time>2026-05-02T14:50:49Z</time></trkpt><trkpt lat="42.251232847660255" lon="13.256454330633941"><ele>1295.0</ele><time>2026-05-02T14:50:50Z</time></trkpt><trkpt lat="42.25131628143677" lon="13.256476658774458"><ele>1295.0</ele><time>2026-05-02T14:50:51Z</time></trkpt><trkpt lat="42.25141615602597" lon="13.256526751870524"><ele>1295.0</ele><time>2026-05-02T14:50:52Z</time></trkpt><trkpt lat="42.25152435497911" lon="13.256582280722428"><ele>1295.0</ele><time>2026-05-02T14:50:53Z</time></trkpt><trkpt lat="42.25161182379479" lon="13.256632416172474"><ele>1295.0</ele><time>2026-05-02T14:50:54Z</time></trkpt><trkpt lat="42.25167657146876" lon="13.25668954478791"><ele>1295.5</ele><time>2026-05-02T14:50:55Z</time></trkpt><trkpt lat="42.25174469839812" lon="13.256697144873023"><ele>1296.0</ele><time>2026-05-02T14:50:56Z</time></trkpt><trkpt lat="42.25181057474121" lon="13.256673164577524"><ele>1296.5</ele><time>2026-05-02T14:50:58Z</time></trkpt><trkpt lat="42.25188816445094" lon="13.256555500066495"><ele>1297.0</ele><time>2026-05-02T14:51:00Z</time></trkpt><trkpt lat="42.251941798774006" lon="13.256475130933293"><ele>1297.5</ele><time>2026-05-02T14:51:01Z</time></trkpt><trkpt lat="42.25199999081839" lon="13.256397420082347"><ele>1298.0</ele><time>2026-05-02T14:51:02Z</time></trkpt><trkpt lat="42.25204489903521" lon="13.256307084488599"><ele>1298.6000000000001</ele><time>2026-05-02T14:51:03Z</time></trkpt><trkpt lat="42.25207277454835" lon="13.256221137921301"><ele>1299.2</ele><time>2026-05-02T14:51:04Z</time></trkpt><trkpt lat="42.25212106308181" lon="13.25610880941227"><ele>1299.8</ele><time>2026-05-02T14:51:05Z</time></trkpt><trkpt lat="42.25219977426619" lon="13.256015574745106"><ele>1300.4</ele><time>2026-05-02T14:51:06Z</time></trkpt><trkpt lat="42.2522581453913" lon="13.255885570043024"><ele>1301.0</ele><time>2026-05-02T14:51:07Z</time></trkpt><trkpt lat="42.252331836534374" lon="13.255775063474617"><ele>1301.0</ele><time>2026-05-02T14:51:08Z</time></trkpt><trkpt lat="42.25239617672089" lon="13.255663954648606"><ele>1301.0</ele><time>2026-05-02T14:51:09Z</time></trkpt><trkpt lat="42.25244938544248" lon="13.25556624835098"><ele>1301.0</ele><time>2026-05-02T14:51:10Z</time></trkpt><trkpt lat="42.252493079718704" lon="13.255495038359552"><ele>1301.0</ele><time>2026-05-02T14:51:11Z</time></trkpt><trkpt lat="42.25254239247153" lon="13.255441757808194"><ele>1301.0</ele><time>2026-05-02T14:51:12Z</time></trkpt><trkpt lat="42.25260201168573" lon="13.255382846531424"><ele>1301.0</ele><time>2026-05-02T14:51:13Z</time></trkpt><trkpt lat="42.25266857085085" lon="13.255322484616507"><ele>1298.8333333333335</ele><time>2026-05-02T14:51:14Z</time></trkpt><trkpt lat="42.25275062649078" lon="13.255276926066884"><ele>1296.6666666666667</ele><time>2026-05-02T14:51:15Z</time></trkpt><trkpt lat="42.25282205388525" lon="13.255195004872508"><ele>1294.5</ele><time>2026-05-02T14:51:16Z</time></trkpt><trkpt lat="42.25290153371726" lon="13.255164860901239"><ele>1292.3333333333333</ele><time>2026-05-02T14:51:17Z</time></trkpt><trkpt lat="42.25296437852039" lon="13.25513883987422"><ele>1290.1666666666665</ele><time>2026-05-02T14:51:18Z</time></trkpt><trkpt lat="42.25302651719405" lon="13.255122396857432"><ele>1288.0</ele><time>2026-05-02T14:51:19Z</time></trkpt><trkpt lat="42.25310615633376" lon="13.255108234431138"><ele>1289.0</ele><time>2026-05-02T14:51:20Z</time></trkpt><trkpt lat="42.253195474714595" lon="13.255077416501512"><ele>1290.0</ele><time>2026-05-02T14:51:21Z</time></trkpt><trkpt lat="42.253278819752225" lon="13.25502389272511"><ele>1291.0</ele><time>2026-05-02T14:51:22Z</time></trkpt><trkpt lat="42.253370709781294" lon="13.255009488980187"><ele>1292.0</ele><time>2026-05-02T14:51:23Z</time></trkpt><trkpt lat="42.25344181082132" lon="13.254980222763377"><ele>1293.0</ele><time>2026-05-02T14:51:24Z</time></trkpt><trkpt lat="42.253504063037326" lon="13.254945879959752"><ele>1294.0</ele><time>2026-05-02T14:51:25Z</time></trkpt><trkpt lat="42.253587333388694" lon="13.254885738544603"><ele>1294.0</ele><time>2026-05-02T14:51:26Z</time></trkpt><trkpt lat="42.25365738913771" lon="13.254832052426183"><ele>1294.0</ele><time>2026-05-02T14:51:27Z</time></trkpt><trkpt lat="42.253736240535666" lon="13.254779484710125"><ele>1294.0</ele><time>2026-05-02T14:51:28Z</time></trkpt><trkpt lat="42.253815114077035" lon="13.254711144255813"><ele>1294.0</ele><time>2026-05-02T14:51:29Z</time></trkpt><trkpt lat="42.253893471633184" lon="13.254689509210012"><ele>1294.0</ele><time>2026-05-02T14:51:30Z</time></trkpt><trkpt lat="42.25397031127603" lon="13.254647324532211"><ele>1294.0</ele><time>2026-05-02T14:51:31Z</time></trkpt><trkpt lat="42.25405767610866" lon="13.254591683449453"><ele>1292.3333333333333</ele><time>2026-05-02T14:51:32Z</time></trkpt><trkpt lat="42.25412989870888" lon="13.254545600504144"><ele>1290.6666666666665</ele><time>2026-05-02T14:51:33Z</time></trkpt><trkpt lat="42.25419420918626" lon="13.254487372512784"><ele>1289.0</ele><time>2026-05-02T14:51:34Z</time></trkpt><trkpt lat="42.25427527936443" lon="13.254445856601793"><ele>1287.3333333333333</ele><time>2026-05-02T14:51:35Z</time></trkpt><trkpt lat="42.25437345487256" lon="13.254398628796638"><ele>1285.6666666666667</ele><time>2026-05-02T14:51:36Z</time></trkpt><trkpt lat="42.25445882825826" lon="13.254330897571794"><ele>1284.0</ele><time>2026-05-02T14:51:37Z</time></trkpt><trkpt lat="42.254550543596814" lon="13.25426887587852"><ele>1284.0</ele><time>2026-05-02T14:51:38Z</time></trkpt><trkpt lat="42.25464147572641" lon="13.254212709956091"><ele>1284.0</ele><time>2026-05-02T14:51:39Z</time></trkpt><trkpt lat="42.25471760432587" lon="13.254154060120268"><ele>1284.0</ele><time>2026-05-02T14:51:40Z</time></trkpt><trkpt lat="42.25479721882429" lon="13.254108142779804"><ele>1284.0</ele><time>2026-05-02T14:51:41Z</time></trkpt><trkpt lat="42.25488424355254" lon="13.254084574199688"><ele>1284.0</ele><time>2026-05-02T14:51:42Z</time></trkpt><trkpt lat="42.25497864327395" lon="13.254045515190342"><ele>1282.2</ele><time>2026-05-02T14:51:43Z</time></trkpt><trkpt lat="42.255068603210184" lon="13.253993085081431"><ele>1280.4</ele><time>2026-05-02T14:51:44Z</time></trkpt><trkpt lat="42.25515866531833" lon="13.253963763333257"><ele>1278.6</ele><time>2026-05-02T14:51:45Z</time></trkpt><trkpt lat="42.25525057211463" lon="13.253930032500731"><ele>1276.8</ele><time>2026-05-02T14:51:46Z</time></trkpt><trkpt lat="42.25533686084556" lon="13.253874952774508"><ele>1275.0</ele><time>2026-05-02T14:51:47Z</time></trkpt><trkpt lat="42.25542533490628" lon="13.25381768358365"><ele>1275.0</ele><time>2026-05-02T14:51:48Z</time></trkpt><trkpt lat="42.25550692030274" lon="13.25374844937602"><ele>1275.0</ele><time>2026-05-02T14:51:49Z</time></trkpt><trkpt lat="42.25558774438832" lon="13.253680905763975"><ele>1275.0</ele><time>2026-05-02T14:51:50Z</time></trkpt><trkpt lat="42.255650782655295" lon="13.253635013850056"><ele>1275.0</ele><time>2026-05-02T14:51:51Z</time></trkpt><trkpt lat="42.255707333331735" lon="13.253580303774743"><ele>1275.0</ele><time>2026-05-02T14:51:52Z</time></trkpt><trkpt lat="42.255752945082925" lon="13.253521250062386"><ele>1275.0</ele><time>2026-05-02T14:51:53Z</time></trkpt><trkpt lat="42.255784453881006" lon="13.253437101727537"><ele>1277.0</ele><time>2026-05-02T14:51:54Z</time></trkpt><trkpt lat="42.255806178069456" lon="13.253335084228901"><ele>1279.0</ele><time>2026-05-02T14:51:55Z</time></trkpt><trkpt lat="42.25582062502862" lon="13.25322993999848"><ele>1281.0</ele><time>2026-05-02T14:51:56Z</time></trkpt><trkpt lat="42.25582848472937" lon="13.253113600734189"><ele>1283.0</ele><time>2026-05-02T14:51:57Z</time></trkpt><trkpt lat="42.25582424627219" lon="13.252990076358271"><ele>1285.0</ele><time>2026-05-02T14:51:58Z</time></trkpt><trkpt lat="42.25582770942309" lon="13.252854811362669"><ele>1287.0</ele><time>2026-05-02T14:51:59Z</time></trkpt><trkpt lat="42.255838825746466" lon="13.252721121469857"><ele>1287.0</ele><time>2026-05-02T14:52:00Z</time></trkpt><trkpt lat="42.25588215457176" lon="13.252606205060035"><ele>1287.0</ele><time>2026-05-02T14:52:01Z</time></trkpt><trkpt lat="42.25590352363804" lon="13.252460594779292"><ele>1287.0</ele><time>2026-05-02T14:52:02Z</time></trkpt><trkpt lat="42.25593669898516" lon="13.252352456966973"><ele>1287.0</ele><time>2026-05-02T14:52:03Z</time></trkpt><trkpt lat="42.25597004229788" lon="13.252264308079887"><ele>1287.0</ele><time>2026-05-02T14:52:04Z</time></trkpt><trkpt lat="42.25601799808393" lon="13.252181402554578"><ele>1287.0</ele><time>2026-05-02T14:52:05Z</time></trkpt><trkpt lat="42.256075050799836" lon="13.252127492585634"><ele>1286.3333333333333</ele><time>2026-05-02T14:52:06Z</time></trkpt><trkpt lat="42.25613400572959" lon="13.252086076564073"><ele>1285.6666666666667</ele><time>2026-05-02T14:52:07Z</time></trkpt><trkpt lat="42.25620595312448" lon="13.25202756827717"><ele>1285.0</ele><time>2026-05-02T14:52:08Z</time></trkpt><trkpt lat="42.25627641959136" lon="13.251964070089766"><ele>1284.3333333333335</ele><time>2026-05-02T14:52:09Z</time></trkpt><trkpt lat="42.256342994723326" lon="13.251880450132012"><ele>1283.6666666666667</ele><time>2026-05-02T14:52:10Z</time></trkpt><trkpt lat="42.256413283579974" lon="13.251813917074085"><ele>1283.0</ele><time>2026-05-02T14:52:11Z</time></trkpt><trkpt lat="42.256467231623354" lon="13.251755393394824"><ele>1285.3333333333335</ele><time>2026-05-02T14:52:12Z</time></trkpt><trkpt lat="42.25656131967522" lon="13.251658906950682"><ele>1287.6666666666667</ele><time>2026-05-02T14:52:14Z</time></trkpt><trkpt lat="42.25663359903849" lon="13.251649334223975"><ele>1290.0</ele><time>2026-05-02T14:52:15Z</time></trkpt><trkpt lat="42.256711403528804" lon="13.251626068666734"><ele>1292.3333333333333</ele><time>2026-05-02T14:52:16Z</time></trkpt><trkpt lat="42.25678575609855" lon="13.251602223953489"><ele>1294.6666666666665</ele><time>2026-05-02T14:52:17Z</time></trkpt><trkpt lat="42.25685755190084" lon="13.251578532806654"><ele>1297.0</ele><time>2026-05-02T14:52:18Z</time></trkpt><trkpt lat="42.256927395587816" lon="13.25155622945519"><ele>1297.0</ele><time>2026-05-02T14:52:19Z</time></trkpt><trkpt lat="42.25701194988567" lon="13.251521665191197"><ele>1297.0</ele><time>2026-05-02T14:52:21Z</time></trkpt><trkpt lat="42.257073173831586" lon="13.251555109637147"><ele>1297.0</ele><time>2026-05-02T14:52:23Z</time></trkpt><trkpt lat="42.25705529661238" lon="13.251646582400292"><ele>1297.0</ele><time>2026-05-02T14:52:24Z</time></trkpt><trkpt lat="42.25706998144355" lon="13.251813548884817"><ele>1297.0</ele><time>2026-05-02T14:52:26Z</time></trkpt><trkpt lat="42.257080389496885" lon="13.25189754324705"><ele>1297.0</ele><time>2026-05-02T14:52:27Z</time></trkpt><trkpt lat="42.25710236950291" lon="13.252055356531566"><ele>1297.0</ele><time>2026-05-02T14:52:29Z</time></trkpt><trkpt lat="42.25712379688839" lon="13.252218696185782"><ele>1297.0</ele><time>2026-05-02T14:52:31Z</time></trkpt><trkpt lat="42.25714443571617" lon="13.252365658073685"><ele>1297.0</ele><time>2026-05-02T14:52:33Z</time></trkpt><trkpt lat="42.25716851800313" lon="13.25251565251916"><ele>1297.0</ele><time>2026-05-02T14:52:35Z</time></trkpt><trkpt lat="42.257228548329195" lon="13.252643387823762"><ele>1295.25</ele><time>2026-05-02T14:52:37Z</time></trkpt><trkpt lat="42.25730355308006" lon="13.252729989024246"><ele>1293.5</ele><time>2026-05-02T14:52:39Z</time></trkpt><trkpt lat="42.25741154016208" lon="13.25264120852845"><ele>1291.75</ele><time>2026-05-02T14:52:41Z</time></trkpt><trkpt lat="42.25752137797592" lon="13.25257882993006"><ele>1290.0</ele><time>2026-05-02T14:52:43Z</time></trkpt><trkpt lat="42.25763996075192" lon="13.252572477002474"><ele>1290.0</ele><time>2026-05-02T14:52:45Z</time></trkpt><trkpt lat="42.25772213653902" lon="13.252563507225032"><ele>1290.0</ele><time>2026-05-02T14:52:46Z</time></trkpt><trkpt lat="42.25781299814063" lon="13.25256928201328"><ele>1290.0</ele><time>2026-05-02T14:52:47Z</time></trkpt><trkpt lat="42.25790922343292" lon="13.252576056748746"><ele>1290.0</ele><time>2026-05-02T14:52:48Z</time></trkpt><trkpt lat="42.25800435466043" lon="13.25256982052843"><ele>1290.0</ele><time>2026-05-02T14:52:49Z</time></trkpt><trkpt lat="42.2580874700336" lon="13.252548618658675"><ele>1290.0</ele><time>2026-05-02T14:52:50Z</time></trkpt><trkpt lat="42.2581696902734" lon="13.252538423767463"><ele>1290.0</ele><time>2026-05-02T14:52:51Z</time></trkpt><trkpt lat="42.25825523531226" lon="13.252476998116068"><ele>1290.0</ele><time>2026-05-02T14:52:52Z</time></trkpt><trkpt lat="42.25834654347924" lon="13.25242142781939"><ele>1290.0</ele><time>2026-05-02T14:52:53Z</time></trkpt><trkpt lat="42.258422886589784" lon="13.252353359377468"><ele>1290.0</ele><time>2026-05-02T14:52:54Z</time></trkpt><trkpt lat="42.258486986507734" lon="13.252289748612778"><ele>1287.8333333333333</ele><time>2026-05-02T14:52:55Z</time></trkpt><trkpt lat="42.25853525260783" lon="13.252230736220852"><ele>1285.6666666666667</ele><time>2026-05-02T14:52:56Z</time></trkpt><trkpt lat="42.2585830639771" lon="13.252158292518939"><ele>1283.5</ele><time>2026-05-02T14:52:57Z</time></trkpt><trkpt lat="42.25861779026177" lon="13.252067757865719"><ele>1281.3333333333335</ele><time>2026-05-02T14:52:58Z</time></trkpt><trkpt lat="42.25864400591783" lon="13.251971910095316"><ele>1279.1666666666667</ele><time>2026-05-02T14:52:59Z</time></trkpt><trkpt lat="42.25867739427671" lon="13.251875785317255"><ele>1277.0</ele><time>2026-05-02T14:53:00Z</time></trkpt><trkpt lat="42.25873127619835" lon="13.251788476395708"><ele>1277.0</ele><time>2026-05-02T14:53:01Z</time></trkpt><trkpt lat="42.25878580043573" lon="13.251719797324627"><ele>1277.0</ele><time>2026-05-02T14:53:02Z</time></trkpt><trkpt lat="42.25884947982141" lon="13.251643741695458"><ele>1277.0</ele><time>2026-05-02T14:53:03Z</time></trkpt><trkpt lat="42.258913880136724" lon="13.251561917998407"><ele>1277.0</ele><time>2026-05-02T14:53:04Z</time></trkpt><trkpt lat="42.25896548113883" lon="13.251494723287976"><ele>1277.0</ele><time>2026-05-02T14:53:05Z</time></trkpt><trkpt lat="42.259035662832474" lon="13.25146409926904"><ele>1277.0</ele><time>2026-05-02T14:53:06Z</time></trkpt><trkpt lat="42.259105895001596" lon="13.251421767467832"><ele>1275.2</ele><time>2026-05-02T14:53:07Z</time></trkpt><trkpt lat="42.25922765848513" lon="13.251365867748676"><ele>1273.4</ele><time>2026-05-02T14:53:09Z</time></trkpt><trkpt lat="42.25933454789502" lon="13.251304167872267"><ele>1271.6</ele><time>2026-05-02T14:53:11Z</time></trkpt><trkpt lat="42.259403629876424" lon="13.25127681237757"><ele>1269.8</ele><time>2026-05-02T14:53:12Z</time></trkpt><trkpt lat="42.25946706413099" lon="13.251232569097464"><ele>1268.0</ele><time>2026-05-02T14:53:13Z</time></trkpt><trkpt lat="42.25953364517658" lon="13.251210724893179"><ele>1268.0</ele><time>2026-05-02T14:53:14Z</time></trkpt><trkpt lat="42.25959153656154" lon="13.251148536110513"><ele>1268.0</ele><time>2026-05-02T14:53:15Z</time></trkpt><trkpt lat="42.259630305001664" lon="13.251068068759807"><ele>1268.0</ele><time>2026-05-02T14:53:16Z</time></trkpt><trkpt lat="42.259668298116615" lon="13.250990293575093"><ele>1268.0</ele><time>2026-05-02T14:53:17Z</time></trkpt><trkpt lat="42.259698493770465" lon="13.250899392172292"><ele>1268.0</ele><time>2026-05-02T14:53:18Z</time></trkpt><trkpt lat="42.2597524244693" lon="13.2507986386788"><ele>1268.0</ele><time>2026-05-02T14:53:19Z</time></trkpt><trkpt lat="42.25979460968565" lon="13.250687952461554"><ele>1268.6666666666667</ele><time>2026-05-02T14:53:20Z</time></trkpt><trkpt lat="42.259821156016386" lon="13.250559698654401"><ele>1269.3333333333335</ele><time>2026-05-02T14:53:21Z</time></trkpt><trkpt lat="42.259851105523474" lon="13.250441722247546"><ele>1270.0</ele><time>2026-05-02T14:53:22Z</time></trkpt><trkpt lat="42.25987495761643" lon="13.250346035680698"><ele>1270.6666666666667</ele><time>2026-05-02T14:53:23Z</time></trkpt><trkpt lat="42.259892102806916" lon="13.25024649888149"><ele>1271.3333333333333</ele><time>2026-05-02T14:53:24Z</time></trkpt><trkpt lat="42.259900350080834" lon="13.25015564420877"><ele>1272.0</ele><time>2026-05-02T14:53:25Z</time></trkpt><trkpt lat="42.25990106377903" lon="13.25006587753159"><ele>1272.0</ele><time>2026-05-02T14:53:26Z</time></trkpt><trkpt lat="42.259920668569094" lon="13.249976287080262"><ele>1272.0</ele><time>2026-05-02T14:53:27Z</time></trkpt><trkpt lat="42.25993188548361" lon="13.249888008026357"><ele>1272.0</ele><time>2026-05-02T14:53:28Z</time></trkpt><trkpt lat="42.25994532573101" lon="13.249792269405335"><ele>1272.0</ele><time>2026-05-02T14:53:29Z</time></trkpt><trkpt lat="42.25996291349185" lon="13.249700761629244"><ele>1272.0</ele><time>2026-05-02T14:53:30Z</time></trkpt><trkpt lat="42.25998915370883" lon="13.249604252064684"><ele>1272.0</ele><time>2026-05-02T14:53:31Z</time></trkpt><trkpt lat="42.260018545707574" lon="13.249509593283555"><ele>1272.0</ele><time>2026-05-02T14:53:32Z</time></trkpt><trkpt lat="42.260050965182934" lon="13.24940339204686"><ele>1270.4</ele><time>2026-05-02T14:53:33Z</time></trkpt><trkpt lat="42.260077862295624" lon="13.249298379050837"><ele>1268.8000000000002</ele><time>2026-05-02T14:53:34Z</time></trkpt><trkpt lat="42.26010763990922" lon="13.249177311580226"><ele>1267.2</ele><time>2026-05-02T14:53:35Z</time></trkpt><trkpt lat="42.26012976864411" lon="13.2490683458391"><ele>1265.6000000000001</ele><time>2026-05-02T14:53:36Z</time></trkpt><trkpt lat="42.26015268717993" lon="13.248947114035403"><ele>1264.0</ele><time>2026-05-02T14:53:37Z</time></trkpt><trkpt lat="42.26017521257824" lon="13.248814147240388"><ele>1263.0</ele><time>2026-05-02T14:53:38Z</time></trkpt><trkpt lat="42.26019599596339" lon="13.248676120751938"><ele>1262.0</ele><time>2026-05-02T14:53:39Z</time></trkpt><trkpt lat="42.26021507168446" lon="13.248547075558212"><ele>1261.0</ele><time>2026-05-02T14:53:40Z</time></trkpt><trkpt lat="42.26021771131874" lon="13.248410354472494"><ele>1260.0</ele><time>2026-05-02T14:53:41Z</time></trkpt><trkpt lat="42.26025231612266" lon="13.248282659306119"><ele>1259.0</ele><time>2026-05-02T14:53:42Z</time></trkpt><trkpt lat="42.26027124022166" lon="13.248148307974066"><ele>1258.0</ele><time>2026-05-02T14:53:43Z</time></trkpt><trkpt lat="42.26028694612804" lon="13.248036803887029"><ele>1257.0</ele><time>2026-05-02T14:53:44Z</time></trkpt><trkpt lat="42.26029785140217" lon="13.247952789117742"><ele>1256.0</ele><time>2026-05-02T14:53:45Z</time></trkpt><trkpt lat="42.26030277290649" lon="13.247807933902134"><ele>1255.0</ele><time>2026-05-02T14:53:47Z</time></trkpt><trkpt lat="42.26032665273059" lon="13.24766342064229"><ele>1254.0</ele><time>2026-05-02T14:53:49Z</time></trkpt><trkpt lat="42.26034130073389" lon="13.247570721844266"><ele>1253.0</ele><time>2026-05-02T14:53:50Z</time></trkpt><trkpt lat="42.26035664540027" lon="13.247486192868148"><ele>1253.0</ele><time>2026-05-02T14:53:51Z</time></trkpt><trkpt lat="42.26040532387594" lon="13.247359060843742"><ele>1253.0</ele><time>2026-05-02T14:53:53Z</time></trkpt><trkpt lat="42.26047994700426" lon="13.247231430940998"><ele>1253.0</ele><time>2026-05-02T14:53:55Z</time></trkpt><trkpt lat="42.260535615672154" lon="13.247154286506074"><ele>1253.0</ele><time>2026-05-02T14:53:56Z</time></trkpt><trkpt lat="42.26058128173086" lon="13.247062438700832"><ele>1253.0</ele><time>2026-05-02T14:53:57Z</time></trkpt><trkpt lat="42.26064906911926" lon="13.246972400452323"><ele>1252.6666666666667</ele><time>2026-05-02T14:53:58Z</time></trkpt><trkpt lat="42.26070729453692" lon="13.246875697963278"><ele>1252.3333333333335</ele><time>2026-05-02T14:53:59Z</time></trkpt><trkpt lat="42.26076435708577" lon="13.246769130934672"><ele>1252.0</ele><time>2026-05-02T14:54:00Z</time></trkpt><trkpt lat="42.26082169902778" lon="13.24666766918473"><ele>1251.6666666666667</ele><time>2026-05-02T14:54:01Z</time></trkpt><trkpt lat="42.260869528755066" lon="13.246568872813544"><ele>1251.3333333333333</ele><time>2026-05-02T14:54:02Z</time></trkpt><trkpt lat="42.260916159159606" lon="13.246492082257529"><ele>1251.0</ele><time>2026-05-02T14:54:03Z</time></trkpt><trkpt lat="42.26096022216187" lon="13.246401175234716"><ele>1251.0</ele><time>2026-05-02T14:54:04Z</time></trkpt><trkpt lat="42.26100443865958" lon="13.246319548115986"><ele>1251.0</ele><time>2026-05-02T14:54:05Z</time></trkpt><trkpt lat="42.26104055426816" lon="13.246240649250689"><ele>1251.0</ele><time>2026-05-02T14:54:06Z</time></trkpt><trkpt lat="42.26107599568389" lon="13.246154833163446"><ele>1251.0</ele><time>2026-05-02T14:54:07Z</time></trkpt><trkpt lat="42.26111821668164" lon="13.246074223706957"><ele>1251.0</ele><time>2026-05-02T14:54:08Z</time></trkpt><trkpt lat="42.26116074416303" lon="13.24600179191738"><ele>1251.0</ele><time>2026-05-02T14:54:09Z</time></trkpt><trkpt lat="42.261204742052506" lon="13.245916671235221"><ele>1251.0</ele><time>2026-05-02T14:54:10Z</time></trkpt><trkpt lat="42.26124606649718" lon="13.24583071808082"><ele>1251.0</ele><time>2026-05-02T14:54:11Z</time></trkpt><trkpt lat="42.261289173518485" lon="13.245745794813049"><ele>1251.0</ele><time>2026-05-02T14:54:12Z</time></trkpt><trkpt lat="42.26133783765235" lon="13.245670010495251"><ele>1251.0</ele><time>2026-05-02T14:54:13Z</time></trkpt><trkpt lat="42.26138238999682" lon="13.245593294002783"><ele>1251.0</ele><time>2026-05-02T14:54:14Z</time></trkpt><trkpt lat="42.26142192023369" lon="13.245513550817247"><ele>1251.0</ele><time>2026-05-02T14:54:15Z</time></trkpt><trkpt lat="42.261462137735315" lon="13.245431369281164"><ele>1251.0</ele><time>2026-05-02T14:54:16Z</time></trkpt><trkpt lat="42.26150022817331" lon="13.245353424845286"><ele>1251.0</ele><time>2026-05-02T14:54:17Z</time></trkpt><trkpt lat="42.261538225579145" lon="13.245270754488883"><ele>1251.2857142857142</ele><time>2026-05-02T14:54:18Z</time></trkpt><trkpt lat="42.26157508571896" lon="13.245191972289168"><ele>1251.5714285714287</ele><time>2026-05-02T14:54:19Z</time></trkpt><trkpt lat="42.261606455220985" lon="13.245117972950956"><ele>1251.857142857143</ele><time>2026-05-02T14:54:20Z</time></trkpt><trkpt lat="42.26163639626662" lon="13.24503713406617"><ele>1252.142857142857</ele><time>2026-05-02T14:54:22Z</time></trkpt><trkpt lat="42.26165795320891" lon="13.244927436427295"><ele>1252.4285714285716</ele><time>2026-05-02T14:54:38Z</time></trkpt><trkpt lat="42.26167692851992" lon="13.244844550762384"><ele>1252.7142857142858</ele><time>2026-05-02T14:54:39Z</time></trkpt><trkpt lat="42.26169756715608" lon="13.244739484942723"><ele>1253.0</ele><time>2026-05-02T14:54:40Z</time></trkpt><trkpt lat="42.26171839114435" lon="13.24461949898753"><ele>1253.0</ele><time>2026-05-02T14:54:41Z</time></trkpt><trkpt lat="42.26173414350805" lon="13.244494565347182"><ele>1253.0</ele><time>2026-05-02T14:54:42Z</time></trkpt><trkpt lat="42.2617444338241" lon="13.24437366968473"><ele>1253.0</ele><time>2026-05-02T14:54:43Z</time></trkpt><trkpt lat="42.26175143950842" lon="13.244240631471305"><ele>1253.0</ele><time>2026-05-02T14:54:44Z</time></trkpt><trkpt lat="42.26172053937641" lon="13.244110700001022"><ele>1253.0</ele><time>2026-05-02T14:54:45Z</time></trkpt><trkpt lat="42.261678454219506" lon="13.243986043418781"><ele>1253.0</ele><time>2026-05-02T14:54:46Z</time></trkpt><trkpt lat="42.261618280878864" lon="13.243868394097692"><ele>1253.0</ele><time>2026-05-02T14:54:47Z</time></trkpt><trkpt lat="42.26154088019548" lon="13.243766074527112"><ele>1253.0</ele><time>2026-05-02T14:54:48Z</time></trkpt><trkpt lat="42.261448405999786" lon="13.24366454320445"><ele>1253.0</ele><time>2026-05-02T14:54:49Z</time></trkpt><trkpt lat="42.261340980326786" lon="13.24357028837565"><ele>1253.0</ele><time>2026-05-02T14:54:50Z</time></trkpt><trkpt lat="42.26123757160762" lon="13.243480662970464"><ele>1253.0</ele><time>2026-05-02T14:54:51Z</time></trkpt><trkpt lat="42.2611508333379" lon="13.243399683902362"><ele>1253.0</ele><time>2026-05-02T14:54:52Z</time></trkpt><trkpt lat="42.26107643932136" lon="13.243334716508976"><ele>1253.0</ele><time>2026-05-02T14:54:53Z</time></trkpt><trkpt lat="42.26100556705665" lon="13.243278321124327"><ele>1253.0</ele><time>2026-05-02T14:54:54Z</time></trkpt><trkpt lat="42.26093438477687" lon="13.243218596809111"><ele>1253.0</ele><time>2026-05-02T14:54:55Z</time></trkpt><trkpt lat="42.26087698284766" lon="13.243144907205352"><ele>1253.0</ele><time>2026-05-02T14:54:56Z</time></trkpt><trkpt lat="42.26084833230104" lon="13.24303919389845"><ele>1253.0</ele><time>2026-05-02T14:54:57Z</time></trkpt><trkpt lat="42.26083091036725" lon="13.24293865462091"><ele>1253.0</ele><time>2026-05-02T14:54:58Z</time></trkpt><trkpt lat="42.26080635608294" lon="13.242818774382279"><ele>1253.0</ele><time>2026-05-02T14:54:59Z</time></trkpt><trkpt lat="42.26080890154304" lon="13.242671909911467"><ele>1253.0</ele><time>2026-05-02T14:55:00Z</time></trkpt><trkpt lat="42.2608091401808" lon="13.242512725539333"><ele>1253.0</ele><time>2026-05-02T14:55:01Z</time></trkpt><trkpt lat="42.260791375440164" lon="13.242361210088323"><ele>1253.0</ele><time>2026-05-02T14:55:02Z</time></trkpt><trkpt lat="42.26075521734895" lon="13.242221586651434"><ele>1253.0</ele><time>2026-05-02T14:55:03Z</time></trkpt><trkpt lat="42.26069838634278" lon="13.242093621856785"><ele>1253.0</ele><time>2026-05-02T14:55:04Z</time></trkpt><trkpt lat="42.26063910622338" lon="13.241971845646042"><ele>1253.0</ele><time>2026-05-02T14:55:05Z</time></trkpt><trkpt lat="42.260599164918304" lon="13.241856793689772"><ele>1249.8</ele><time>2026-05-02T14:55:06Z</time></trkpt><trkpt lat="42.260577712574346" lon="13.24173278252598"><ele>1246.6</ele><time>2026-05-02T14:55:07Z</time></trkpt><trkpt lat="42.26056841229282" lon="13.241591353113835"><ele>1243.4</ele><time>2026-05-02T14:55:08Z</time></trkpt><trkpt lat="42.260574577747434" lon="13.241451605978831"><ele>1240.2</ele><time>2026-05-02T14:55:09Z</time></trkpt><trkpt lat="42.26058968039856" lon="13.241327132664573"><ele>1237.0</ele><time>2026-05-02T14:55:10Z</time></trkpt><trkpt lat="42.26060773132748" lon="13.241219404953716"><ele>1238.2</ele><time>2026-05-02T14:55:11Z</time></trkpt><trkpt lat="42.26064327573444" lon="13.241059654971709"><ele>1239.4</ele><time>2026-05-02T14:55:13Z</time></trkpt><trkpt lat="42.260713093496385" lon="13.240961862941187"><ele>1240.6</ele><time>2026-05-02T14:55:15Z</time></trkpt><trkpt lat="42.26076337344101" lon="13.240899266385476"><ele>1241.8</ele><time>2026-05-02T14:55:16Z</time></trkpt><trkpt lat="42.26084971530792" lon="13.240846410859321"><ele>1243.0</ele><time>2026-05-02T14:55:17Z</time></trkpt><trkpt lat="42.260943302858465" lon="13.240776963164075"><ele>1243.0</ele><time>2026-05-02T14:55:18Z</time></trkpt><trkpt lat="42.261037560541304" lon="13.240716601773611"><ele>1243.0</ele><time>2026-05-02T14:55:19Z</time></trkpt><trkpt lat="42.261120201415594" lon="13.240662725798238"><ele>1243.0</ele><time>2026-05-02T14:55:20Z</time></trkpt><trkpt lat="42.2612030325437" lon="13.240608103408194"><ele>1243.0</ele><time>2026-05-02T14:55:21Z</time></trkpt><trkpt lat="42.26127975190389" lon="13.240554464044452"><ele>1243.0</ele><time>2026-05-02T14:55:22Z</time></trkpt><trkpt lat="42.261355129339464" lon="13.24050889302787"><ele>1241.8333333333333</ele><time>2026-05-02T14:55:23Z</time></trkpt><trkpt lat="42.26143170487831" lon="13.240474892891584"><ele>1240.6666666666665</ele><time>2026-05-02T14:55:24Z</time></trkpt><trkpt lat="42.2615116965972" lon="13.24042683059973"><ele>1239.5</ele><time>2026-05-02T14:55:25Z</time></trkpt><trkpt lat="42.26157642166243" lon="13.24036011339088"><ele>1238.3333333333333</ele><time>2026-05-02T14:55:26Z</time></trkpt><trkpt lat="42.26162879015355" lon="13.240284160662524"><ele>1237.1666666666667</ele><time>2026-05-02T14:55:27Z</time></trkpt><trkpt lat="42.26168472950056" lon="13.240219319913239"><ele>1236.0</ele><time>2026-05-02T14:55:28Z</time></trkpt><trkpt lat="42.261737316530485" lon="13.240161320521885"><ele>1236.0000000000002</ele><time>2026-05-02T14:55:29Z</time></trkpt><trkpt lat="42.26179726943565" lon="13.240128419095283"><ele>1236.0</ele><time>2026-05-02T14:55:30Z</time></trkpt><trkpt lat="42.26185875982575" lon="13.240080816678221"><ele>1236.0</ele><time>2026-05-02T14:55:31Z</time></trkpt><trkpt lat="42.26191950738511" lon="13.240036917204405"><ele>1236.0</ele><time>2026-05-02T14:55:32Z</time></trkpt><trkpt lat="42.26198811351538" lon="13.239990946667225"><ele>1236.0</ele><time>2026-05-02T14:55:33Z</time></trkpt><trkpt lat="42.26207235750956" lon="13.239943446515786"><ele>1236.0000000000002</ele><time>2026-05-02T14:55:34Z</time></trkpt><trkpt lat="42.26214141993718" lon="13.239916097632712"><ele>1236.0</ele><time>2026-05-02T14:55:35Z</time></trkpt><trkpt lat="42.262221199497105" lon="13.239890657557488"><ele>1237.0</ele><time>2026-05-02T14:55:36Z</time></trkpt><trkpt lat="42.262297506224506" lon="13.239871608717484"><ele>1238.0</ele><time>2026-05-02T14:55:37Z</time></trkpt><trkpt lat="42.26238520403519" lon="13.239852899694107"><ele>1239.0</ele><time>2026-05-02T14:55:38Z</time></trkpt><trkpt lat="42.262474974787175" lon="13.239836587437146"><ele>1240.0</ele><time>2026-05-02T14:55:39Z</time></trkpt><trkpt lat="42.26255407880589" lon="13.239823108378713"><ele>1241.0</ele><time>2026-05-02T14:55:40Z</time></trkpt><trkpt lat="42.262632322370074" lon="13.239809347680852"><ele>1242.0</ele><time>2026-05-02T14:55:41Z</time></trkpt><trkpt lat="42.26270492331016" lon="13.239794966266546"><ele>1239.3333333333333</ele><time>2026-05-02T14:55:42Z</time></trkpt><trkpt lat="42.26278654427571" lon="13.239780695337808"><ele>1236.6666666666667</ele><time>2026-05-02T14:55:43Z</time></trkpt><trkpt lat="42.262855835902116" lon="13.239753266925673"><ele>1234.0</ele><time>2026-05-02T14:55:44Z</time></trkpt><trkpt lat="42.26293163638295" lon="13.23976042261477"><ele>1231.3333333333335</ele><time>2026-05-02T14:55:45Z</time></trkpt><trkpt lat="42.26300158785036" lon="13.239743788291229"><ele>1228.6666666666667</ele><time>2026-05-02T14:55:46Z</time></trkpt><trkpt lat="42.26306305195344" lon="13.239717153301193"><ele>1226.0</ele><time>2026-05-02T14:55:47Z</time></trkpt><trkpt lat="42.26316642568228" lon="13.239631059254753"><ele>1226.0</ele><time>2026-05-02T14:55:49Z</time></trkpt><trkpt lat="42.26320621125456" lon="13.239563404113952"><ele>1226.0</ele><time>2026-05-02T14:55:50.001Z</time></trkpt><trkpt lat="42.26323941612316" lon="13.239407709876886"><ele>1226.0</ele><time>2026-05-02T14:55:52.001Z</time></trkpt><trkpt lat="42.26324623063462" lon="13.239321019974298"><ele>1226.0</ele><time>2026-05-02T14:55:53.001Z</time></trkpt><trkpt lat="42.26325132390669" lon="13.239207888406217"><ele>1226.0</ele><time>2026-05-02T14:55:54.001Z</time></trkpt><trkpt lat="42.26326234337512" lon="13.239089099341037"><ele>1226.0</ele><time>2026-05-02T14:55:55.001Z</time></trkpt><trkpt lat="42.26326871535586" lon="13.238948394579262"><ele>1223.8</ele><time>2026-05-02T14:55:56.001Z</time></trkpt><trkpt lat="42.26327294614556" lon="13.238817164241416"><ele>1221.6</ele><time>2026-05-02T14:55:57.001Z</time></trkpt><trkpt lat="42.263277681349145" lon="13.23870876595814"><ele>1219.4</ele><time>2026-05-02T14:55:58.001Z</time></trkpt><trkpt lat="42.263308891789144" lon="13.238613025990146"><ele>1217.2</ele><time>2026-05-02T14:55:59.001Z</time></trkpt><trkpt lat="42.26334338918706" lon="13.238479848269922"><ele>1215.0</ele><time>2026-05-02T14:56:01.001Z</time></trkpt><trkpt lat="42.26339372506055" lon="13.238363463417361"><ele>1215.0</ele><time>2026-05-02T14:56:03.001Z</time></trkpt><trkpt lat="42.26342845627325" lon="13.238289748919394"><ele>1215.0</ele><time>2026-05-02T14:56:04.001Z</time></trkpt><trkpt lat="42.26346195405759" lon="13.238204332781422"><ele>1215.0</ele><time>2026-05-02T14:56:05Z</time></trkpt><trkpt lat="42.263505948545244" lon="13.238126748272137"><ele>1215.0</ele><time>2026-05-02T14:56:06Z</time></trkpt><trkpt lat="42.26355997487175" lon="13.238047596583137"><ele>1215.0</ele><time>2026-05-02T14:56:07Z</time></trkpt><trkpt lat="42.26362145037602" lon="13.237984979393921"><ele>1215.0</ele><time>2026-05-02T14:56:08Z</time></trkpt><trkpt lat="42.26369667271456" lon="13.237867149080426"><ele>1214.4</ele><time>2026-05-02T14:56:10Z</time></trkpt><trkpt lat="42.26375918924641" lon="13.237760620296847"><ele>1213.8</ele><time>2026-05-02T14:56:12Z</time></trkpt><trkpt lat="42.26380283320274" lon="13.237672559299675"><ele>1213.2</ele><time>2026-05-02T14:56:14Z</time></trkpt><trkpt lat="42.26388163869487" lon="13.237700249530295"><ele>1212.6</ele><time>2026-05-02T14:56:26Z</time></trkpt><trkpt lat="42.263963333125226" lon="13.237666046621738"><ele>1212.0</ele><time>2026-05-02T14:56:29Z</time></trkpt><trkpt lat="42.26408274160963" lon="13.237573976156458"><ele>1212.0</ele><time>2026-05-02T14:56:31Z</time></trkpt><trkpt lat="42.264172101964164" lon="13.23750604949304"><ele>1212.0</ele><time>2026-05-02T14:56:32Z</time></trkpt><trkpt lat="42.264280040926074" lon="13.237447588841142"><ele>1212.0</ele><time>2026-05-02T14:56:33Z</time></trkpt><trkpt lat="42.26438854871554" lon="13.237405295931064"><ele>1212.0</ele><time>2026-05-02T14:56:34Z</time></trkpt><trkpt lat="42.26448902881851" lon="13.23738620809716"><ele>1212.0</ele><time>2026-05-02T14:56:35Z</time></trkpt><trkpt lat="42.26456742195399" lon="13.237386331966027"><ele>1212.0</ele><time>2026-05-02T14:56:36Z</time></trkpt><trkpt lat="42.264640380623995" lon="13.23740281400158"><ele>1212.0</ele><time>2026-05-02T14:56:37Z</time></trkpt><trkpt lat="42.26470646163007" lon="13.237458673389066"><ele>1212.0</ele><time>2026-05-02T14:56:38Z</time></trkpt><trkpt lat="42.26477528463205" lon="13.2375328294984"><ele>1212.0</ele><time>2026-05-02T14:56:39Z</time></trkpt><trkpt lat="42.26482496493612" lon="13.23765308286967"><ele>1212.0</ele><time>2026-05-02T14:56:40Z</time></trkpt><trkpt lat="42.26489803728254" lon="13.237752664315403"><ele>1212.0</ele><time>2026-05-02T14:56:41Z</time></trkpt><trkpt lat="42.26498973522672" lon="13.237850182792448"><ele>1212.75</ele><time>2026-05-02T14:56:42Z</time></trkpt><trkpt lat="42.26510144341051" lon="13.23791565924457"><ele>1213.5</ele><time>2026-05-02T14:56:43Z</time></trkpt><trkpt lat="42.26519607947146" lon="13.238005232074338"><ele>1214.25</ele><time>2026-05-02T14:56:44Z</time></trkpt><trkpt lat="42.26527157222466" lon="13.238114144577725"><ele>1215.0</ele><time>2026-05-02T14:56:45Z</time></trkpt><trkpt lat="42.26530480252029" lon="13.23828005304448"><ele>1213.0</ele><time>2026-05-02T14:56:46Z</time></trkpt><trkpt lat="42.26537133720953" lon="13.238440964471764"><ele>1211.0</ele><time>2026-05-02T14:56:47Z</time></trkpt><trkpt lat="42.265444294543855" lon="13.238601938807966"><ele>1209.0</ele><time>2026-05-02T14:56:48Z</time></trkpt><trkpt lat="42.265517515776345" lon="13.238744827907508"><ele>1207.0</ele><time>2026-05-02T14:56:49Z</time></trkpt><trkpt lat="42.265583314665854" lon="13.238866009195052"><ele>1206.3333333333333</ele><time>2026-05-02T14:56:50Z</time></trkpt><trkpt lat="42.26563787264498" lon="13.238966446669714"><ele>1205.6666666666665</ele><time>2026-05-02T14:56:51Z</time></trkpt><trkpt lat="42.2656816395912" lon="13.239056621244517"><ele>1205.0</ele><time>2026-05-02T14:56:52Z</time></trkpt><trkpt lat="42.265714697605745" lon="13.239151003115976"><ele>1204.3333333333333</ele><time>2026-05-02T14:56:53Z</time></trkpt><trkpt lat="42.26573602008901" lon="13.239266188498625"><ele>1203.6666666666667</ele><time>2026-05-02T14:56:54Z</time></trkpt><trkpt lat="42.26576742900239" lon="13.239401208031907"><ele>1203.0</ele><time>2026-05-02T14:56:55Z</time></trkpt><trkpt lat="42.26581172950294" lon="13.239537215649761"><ele>1203.0</ele><time>2026-05-02T14:56:56Z</time></trkpt><trkpt lat="42.26588912733698" lon="13.239661450305123"><ele>1203.0</ele><time>2026-05-02T14:56:57Z</time></trkpt><trkpt lat="42.265956964339026" lon="13.239796313265401"><ele>1203.0</ele><time>2026-05-02T14:56:58Z</time></trkpt><trkpt lat="42.266050314421186" lon="13.239926568591446"><ele>1203.0</ele><time>2026-05-02T14:56:59Z</time></trkpt><trkpt lat="42.266147584003384" lon="13.24006093801413"><ele>1201.5</ele><time>2026-05-02T14:57:00Z</time></trkpt><trkpt lat="42.266242333090865" lon="13.240191825605294"><ele>1200.0</ele><time>2026-05-02T14:57:01Z</time></trkpt><trkpt lat="42.26634076447757" lon="13.240314760393913"><ele>1198.5</ele><time>2026-05-02T14:57:02Z</time></trkpt><trkpt lat="42.26645012148674" lon="13.240400775874548"><ele>1197.0</ele><time>2026-05-02T14:57:03Z</time></trkpt><trkpt lat="42.266553646242265" lon="13.24048951827352"><ele>1197.0</ele><time>2026-05-02T14:57:04Z</time></trkpt><trkpt lat="42.26665439309953" lon="13.240584502342253"><ele>1197.0</ele><time>2026-05-02T14:57:05Z</time></trkpt><trkpt lat="42.26676488026905" lon="13.240655300348267"><ele>1197.0</ele><time>2026-05-02T14:57:06Z</time></trkpt><trkpt lat="42.266878629338784" lon="13.240716375626684"><ele>1197.0</ele><time>2026-05-02T14:57:07Z</time></trkpt><trkpt lat="42.26699683824031" lon="13.240764821337638"><ele>1194.0</ele><time>2026-05-02T14:57:08Z</time></trkpt><trkpt lat="42.26711690663711" lon="13.240791063350704"><ele>1191.0</ele><time>2026-05-02T14:57:09Z</time></trkpt><trkpt lat="42.267236118095894" lon="13.240822708107592"><ele>1188.0</ele><time>2026-05-02T14:57:10Z</time></trkpt><trkpt lat="42.26735515406797" lon="13.240855240430713"><ele>1185.0</ele><time>2026-05-02T14:57:11Z</time></trkpt><trkpt lat="42.267468884629984" lon="13.240910835433784"><ele>1184.8</ele><time>2026-05-02T14:57:12Z</time></trkpt><trkpt lat="42.267576626059935" lon="13.240957805513913"><ele>1184.6</ele><time>2026-05-02T14:57:13Z</time></trkpt><trkpt lat="42.26767107393828" lon="13.241017764187648"><ele>1184.4</ele><time>2026-05-02T14:57:14Z</time></trkpt><trkpt lat="42.26775435219794" lon="13.241081957168838"><ele>1184.2</ele><time>2026-05-02T14:57:15Z</time></trkpt><trkpt lat="42.267829897993536" lon="13.24114741933476"><ele>1184.0</ele><time>2026-05-02T14:57:16Z</time></trkpt><trkpt lat="42.2678924143928" lon="13.241219362167033"><ele>1184.0</ele><time>2026-05-02T14:57:17Z</time></trkpt><trkpt lat="42.267947000469405" lon="13.241290990534681"><ele>1184.0</ele><time>2026-05-02T14:57:18Z</time></trkpt><trkpt lat="42.267939414369295" lon="13.241410793121426"><ele>1184.0</ele><time>2026-05-02T14:57:19Z</time></trkpt><trkpt lat="42.26793934716951" lon="13.241537654349399"><ele>1184.0</ele><time>2026-05-02T14:57:20Z</time></trkpt><trkpt lat="42.26793488844145" lon="13.241671269854693"><ele>1184.0</ele><time>2026-05-02T14:57:21Z</time></trkpt><trkpt lat="42.267933048193115" lon="13.241821013387563"><ele>1184.2</ele><time>2026-05-02T14:57:22Z</time></trkpt><trkpt lat="42.26793620734841" lon="13.241960206982561"><ele>1184.4</ele><time>2026-05-02T14:57:23Z</time></trkpt><trkpt lat="42.267954423806145" lon="13.242102914755806"><ele>1184.6</ele><time>2026-05-02T14:57:24Z</time></trkpt><trkpt lat="42.26797963076211" lon="13.242247045923074"><ele>1184.8</ele><time>2026-05-02T14:57:25Z</time></trkpt><trkpt lat="42.26801321130436" lon="13.24239077792858"><ele>1185.0</ele><time>2026-05-02T14:57:26Z</time></trkpt><trkpt lat="42.26805260735989" lon="13.242538967600112"><ele>1185.0</ele><time>2026-05-02T14:57:27Z</time></trkpt><trkpt lat="42.26809244528097" lon="13.242680062843625"><ele>1185.0</ele><time>2026-05-02T14:57:28Z</time></trkpt><trkpt lat="42.26813833174198" lon="13.242807003143598"><ele>1185.0</ele><time>2026-05-02T14:57:29Z</time></trkpt><trkpt lat="42.26818697595125" lon="13.242910979672537"><ele>1185.0</ele><time>2026-05-02T14:57:30Z</time></trkpt><trkpt lat="42.26826228781283" lon="13.242989544984058"><ele>1185.0</ele><time>2026-05-02T14:57:31Z</time></trkpt><trkpt lat="42.26835850221865" lon="13.243010238072001"><ele>1183.8</ele><time>2026-05-02T14:57:32Z</time></trkpt><trkpt lat="42.268454083056646" lon="13.243022366846157"><ele>1182.6</ele><time>2026-05-02T14:57:33Z</time></trkpt><trkpt lat="42.268565414151176" lon="13.243015380448641"><ele>1181.4</ele><time>2026-05-02T14:57:34Z</time></trkpt><trkpt lat="42.268683020883316" lon="13.243002836833437"><ele>1180.2</ele><time>2026-05-02T14:57:35Z</time></trkpt><trkpt lat="42.26880617501908" lon="13.243005072969808"><ele>1179.0</ele><time>2026-05-02T14:57:36Z</time></trkpt><trkpt lat="42.26892708408742" lon="13.243046033605097"><ele>1180.25</ele><time>2026-05-02T14:57:37Z</time></trkpt><trkpt lat="42.26903458916113" lon="13.243123569470558"><ele>1181.5</ele><time>2026-05-02T14:57:38Z</time></trkpt><trkpt lat="42.269148716919645" lon="13.243189239559934"><ele>1182.75</ele><time>2026-05-02T14:57:39Z</time></trkpt><trkpt lat="42.26925404192919" lon="13.243254732263251"><ele>1184.0</ele><time>2026-05-02T14:57:40Z</time></trkpt><trkpt lat="42.26934951577308" lon="13.243302818547708"><ele>1184.6000000000001</ele><time>2026-05-02T14:57:41Z</time></trkpt><trkpt lat="42.269450154545574" lon="13.243341094230107"><ele>1185.2</ele><time>2026-05-02T14:57:42Z</time></trkpt><trkpt lat="42.26955300305608" lon="13.24334706366751"><ele>1185.8000000000002</ele><time>2026-05-02T14:57:43Z</time></trkpt><trkpt lat="42.26964393523116" lon="13.243370136660998"><ele>1186.4</ele><time>2026-05-02T14:57:44Z</time></trkpt><trkpt lat="42.26973725135083" lon="13.243383834473201"><ele>1187.0</ele><time>2026-05-02T14:57:45Z</time></trkpt><trkpt lat="42.26982352223536" lon="13.243377892133784"><ele>1188.2</ele><time>2026-05-02T14:57:46Z</time></trkpt><trkpt lat="42.26991305317974" lon="13.24338032777024"><ele>1189.4</ele><time>2026-05-02T14:57:47Z</time></trkpt><trkpt lat="42.27000569348744" lon="13.24333931880882"><ele>1190.6</ele><time>2026-05-02T14:57:48Z</time></trkpt><trkpt lat="42.27007554531695" lon="13.24326680503296"><ele>1191.8</ele><time>2026-05-02T14:57:49Z</time></trkpt><trkpt lat="42.270149409420625" lon="13.243197099909613"><ele>1193.0</ele><time>2026-05-02T14:57:50Z</time></trkpt><trkpt lat="42.270219123782724" lon="13.243106578767314"><ele>1193.4</ele><time>2026-05-02T14:57:51Z</time></trkpt><trkpt lat="42.27028727522908" lon="13.243008090014923"><ele>1193.8</ele><time>2026-05-02T14:57:52Z</time></trkpt><trkpt lat="42.270359731630684" lon="13.242916734726002"><ele>1194.2</ele><time>2026-05-02T14:57:53Z</time></trkpt><trkpt lat="42.27044813781071" lon="13.242834350292583"><ele>1194.6</ele><time>2026-05-02T14:57:54Z</time></trkpt><trkpt lat="42.27054718686736" lon="13.242766133306036"><ele>1195.0</ele><time>2026-05-02T14:57:55Z</time></trkpt><trkpt lat="42.27065799106529" lon="13.242712286593848"><ele>1193.75</ele><time>2026-05-02T14:57:56.001Z</time></trkpt><trkpt lat="42.27076844662339" lon="13.242645632972366"><ele>1192.5</ele><time>2026-05-02T14:57:57.001Z</time></trkpt><trkpt lat="42.27088021530095" lon="13.242573760635022"><ele>1191.25</ele><time>2026-05-02T14:57:58.001Z</time></trkpt><trkpt lat="42.27098363840053" lon="13.24249437211441"><ele>1190.0</ele><time>2026-05-02T14:57:59.001Z</time></trkpt><trkpt lat="42.271093469348244" lon="13.242418959360759"><ele>1190.0</ele><time>2026-05-02T14:58:00.001Z</time></trkpt><trkpt lat="42.27120462688143" lon="13.242362356299397"><ele>1190.0</ele><time>2026-05-02T14:58:01.001Z</time></trkpt><trkpt lat="42.271297364245214" lon="13.242278353640152"><ele>1190.0</ele><time>2026-05-02T14:58:02.001Z</time></trkpt><trkpt lat="42.2713855600234" lon="13.242225283402078"><ele>1190.0</ele><time>2026-05-02T14:58:03.001Z</time></trkpt><trkpt lat="42.271472933943606" lon="13.242171093476165"><ele>1190.0</ele><time>2026-05-02T14:58:04.001Z</time></trkpt><trkpt lat="42.27155935102399" lon="13.24210887324568"><ele>1189.4</ele><time>2026-05-02T14:58:05.001Z</time></trkpt><trkpt lat="42.27165020899983" lon="13.242039348384193"><ele>1188.8</ele><time>2026-05-02T14:58:06.001Z</time></trkpt><trkpt lat="42.271724435031366" lon="13.241940238197644"><ele>1188.2</ele><time>2026-05-02T14:58:07.001Z</time></trkpt><trkpt lat="42.27179535162523" lon="13.241848484376675"><ele>1187.6</ele><time>2026-05-02T14:58:08.001Z</time></trkpt><trkpt lat="42.271864700192225" lon="13.241769961463453"><ele>1187.0</ele><time>2026-05-02T14:58:09.001Z</time></trkpt><trkpt lat="42.27193119462479" lon="13.241693213689288"><ele>1187.0</ele><time>2026-05-02T14:58:10.001Z</time></trkpt><trkpt lat="42.2719932714447" lon="13.241626806743879"><ele>1187.0</ele><time>2026-05-02T14:58:11.001Z</time></trkpt><trkpt lat="42.27206320886813" lon="13.241572610784102"><ele>1187.0</ele><time>2026-05-02T14:58:12.001Z</time></trkpt><trkpt lat="42.2721342348781" lon="13.241533214145683"><ele>1187.0</ele><time>2026-05-02T14:58:13.001Z</time></trkpt><trkpt lat="42.272211301751085" lon="13.241535038293097"><ele>1187.0</ele><time>2026-05-02T14:58:14.001Z</time></trkpt><trkpt lat="42.27229197680485" lon="13.241500979354809"><ele>1187.0</ele><time>2026-05-02T14:58:15.001Z</time></trkpt><trkpt lat="42.27237995829287" lon="13.241505803870554"><ele>1186.0</ele><time>2026-05-02T14:58:16.001Z</time></trkpt><trkpt lat="42.27247374617024" lon="13.241528366771655"><ele>1185.0</ele><time>2026-05-02T14:58:17.001Z</time></trkpt><trkpt lat="42.27257955300384" lon="13.2415535793221"><ele>1184.0</ele><time>2026-05-02T14:58:18.001Z</time></trkpt><trkpt lat="42.272693216518945" lon="13.241579074584841"><ele>1183.0</ele><time>2026-05-02T14:58:19Z</time></trkpt><trkpt lat="42.27280919003777" lon="13.241613261165536"><ele>1182.0</ele><time>2026-05-02T14:58:20Z</time></trkpt><trkpt lat="42.27293231119955" lon="13.241639246906926"><ele>1182.0</ele><time>2026-05-02T14:58:21Z</time></trkpt><trkpt lat="42.27306080847133" lon="13.241654440192157"><ele>1182.0</ele><time>2026-05-02T14:58:22Z</time></trkpt><trkpt lat="42.273186110622554" lon="13.241679109817582"><ele>1182.0</ele><time>2026-05-02T14:58:23Z</time></trkpt><trkpt lat="42.2732967950008" lon="13.241679218287937"><ele>1182.0</ele><time>2026-05-02T14:58:24Z</time></trkpt><trkpt lat="42.27339126303259" lon="13.24168283131647"><ele>1181.5</ele><time>2026-05-02T14:58:25Z</time></trkpt><trkpt lat="42.273464465042096" lon="13.241685371763554"><ele>1181.0</ele><time>2026-05-02T14:58:26Z</time></trkpt><trkpt lat="42.27353304043329" lon="13.241711122878232"><ele>1180.5</ele><time>2026-05-02T14:58:27Z</time></trkpt><trkpt lat="42.27360105681253" lon="13.241767894034071"><ele>1180.0</ele><time>2026-05-02T14:58:28Z</time></trkpt><trkpt lat="42.27366384893541" lon="13.241875253142107"><ele>1179.5</ele><time>2026-05-02T14:58:29Z</time></trkpt><trkpt lat="42.27375531969184" lon="13.241958808310306"><ele>1179.0</ele><time>2026-05-02T14:58:30Z</time></trkpt><trkpt lat="42.273834615309546" lon="13.242054362900964"><ele>1179.0</ele><time>2026-05-02T14:58:31Z</time></trkpt><trkpt lat="42.273905835071396" lon="13.242127176610744"><ele>1179.0</ele><time>2026-05-02T14:58:32Z</time></trkpt><trkpt lat="42.2739621398623" lon="13.242179097092606"><ele>1179.0</ele><time>2026-05-02T14:58:33Z</time></trkpt><trkpt lat="42.27404453762434" lon="13.24224697699865"><ele>1179.0</ele><time>2026-05-02T14:58:35Z</time></trkpt><trkpt lat="42.27411368249208" lon="13.242298613350938"><ele>1179.0</ele><time>2026-05-02T14:58:37Z</time></trkpt><trkpt lat="42.27416896852103" lon="13.242411236672249"><ele>1179.0</ele><time>2026-05-02T14:58:39Z</time></trkpt><trkpt lat="42.27419543883009" lon="13.242533388503555"><ele>1180.8</ele><time>2026-05-02T14:58:41Z</time></trkpt><trkpt lat="42.27421213192865" lon="13.242673001756764"><ele>1182.6000000000001</ele><time>2026-05-02T14:58:43Z</time></trkpt><trkpt lat="42.27422417714882" lon="13.242787018816056"><ele>1184.4</ele><time>2026-05-02T14:58:45Z</time></trkpt><trkpt lat="42.274231276933186" lon="13.242910995464937"><ele>1186.2</ele><time>2026-05-02T14:58:49Z</time></trkpt><trkpt lat="42.27427900615796" lon="13.243054997614639"><ele>1188.0</ele><time>2026-05-02T14:58:51Z</time></trkpt><trkpt lat="42.2743127664997" lon="13.243144279969362"><ele>1188.0</ele><time>2026-05-02T14:58:52Z</time></trkpt><trkpt lat="42.27436313405499" lon="13.24322844697234"><ele>1188.0</ele><time>2026-05-02T14:58:53Z</time></trkpt><trkpt lat="42.27442441901821" lon="13.243303112396575"><ele>1188.0</ele><time>2026-05-02T14:58:54Z</time></trkpt><trkpt lat="42.27449704667731" lon="13.243370144262638"><ele>1188.0</ele><time>2026-05-02T14:58:55Z</time></trkpt><trkpt lat="42.274583720347906" lon="13.243437738167916"><ele>1188.0</ele><time>2026-05-02T14:58:56Z</time></trkpt><trkpt lat="42.27468419480368" lon="13.243507162586578"><ele>1191.75</ele><time>2026-05-02T14:58:57Z</time></trkpt><trkpt lat="42.27477900007321" lon="13.24357016466169"><ele>1195.5</ele><time>2026-05-02T14:58:58Z</time></trkpt><trkpt lat="42.27488396525082" lon="13.243651387525999"><ele>1199.25</ele><time>2026-05-02T14:58:59Z</time></trkpt><trkpt lat="42.2749910473487" lon="13.243743870207782"><ele>1203.0</ele><time>2026-05-02T14:59:00Z</time></trkpt><trkpt lat="42.27510304634707" lon="13.24383187408952"><ele>1203.0</ele><time>2026-05-02T14:59:01Z</time></trkpt><trkpt lat="42.27523259562687" lon="13.243933500048383"><ele>1203.0</ele><time>2026-05-02T14:59:02Z</time></trkpt><trkpt lat="42.2753664245724" lon="13.244030477583404"><ele>1203.0</ele><time>2026-05-02T14:59:03Z</time></trkpt><trkpt lat="42.275474222190056" lon="13.244103093014688"><ele>1203.0</ele><time>2026-05-02T14:59:04Z</time></trkpt><trkpt lat="42.27555944721019" lon="13.244171212988736"><ele>1204.2</ele><time>2026-05-02T14:59:05Z</time></trkpt><trkpt lat="42.275642258376905" lon="13.244248715867448"><ele>1205.4</ele><time>2026-05-02T14:59:06Z</time></trkpt><trkpt lat="42.27569608585123" lon="13.24437361496794"><ele>1206.6000000000001</ele><time>2026-05-02T14:59:07Z</time></trkpt><trkpt lat="42.27577811400467" lon="13.244448750909084"><ele>1207.8</ele><time>2026-05-02T14:59:08Z</time></trkpt><trkpt lat="42.275876668330696" lon="13.244484471646066"><ele>1209.0</ele><time>2026-05-02T14:59:09Z</time></trkpt><trkpt lat="42.27597381417978" lon="13.244509295872739"><ele>1209.0</ele><time>2026-05-02T14:59:10Z</time></trkpt><trkpt lat="42.27605566776289" lon="13.244530425179244"><ele>1209.0</ele><time>2026-05-02T14:59:11Z</time></trkpt><trkpt lat="42.27613365069939" lon="13.244550840253563"><ele>1209.0</ele><time>2026-05-02T14:59:12Z</time></trkpt><trkpt lat="42.27620057613498" lon="13.24456638339361"><ele>1209.0</ele><time>2026-05-02T14:59:13Z</time></trkpt><trkpt lat="42.27626421333472" lon="13.244581162843708"><ele>1209.0</ele><time>2026-05-02T14:59:14Z</time></trkpt><trkpt lat="42.27632676278453" lon="13.244634913411272"><ele>1209.0</ele><time>2026-05-02T14:59:18Z</time></trkpt><trkpt lat="42.27644231541239" lon="13.244749522510222"><ele>1209.6666666666667</ele><time>2026-05-02T14:59:20Z</time></trkpt><trkpt lat="42.27652707937346" lon="13.24483626399327"><ele>1210.3333333333333</ele><time>2026-05-02T14:59:21Z</time></trkpt><trkpt lat="42.27661361881675" lon="13.244928968104396"><ele>1211.0</ele><time>2026-05-02T14:59:22Z</time></trkpt><trkpt lat="42.27668556370918" lon="13.245005937575181"><ele>1211.6666666666665</ele><time>2026-05-02T14:59:23Z</time></trkpt><trkpt lat="42.27674298591739" lon="13.245063762047177"><ele>1212.3333333333333</ele><time>2026-05-02T14:59:24Z</time></trkpt><trkpt lat="42.27679579601824" lon="13.245116896897091"><ele>1213.0</ele><time>2026-05-02T14:59:25Z</time></trkpt><trkpt lat="42.276867567830266" lon="13.245171298705783"><ele>1213.0</ele><time>2026-05-02T14:59:26Z</time></trkpt><trkpt lat="42.27695617819682" lon="13.245231671048572"><ele>1213.0</ele><time>2026-05-02T14:59:27Z</time></trkpt><trkpt lat="42.277044984705945" lon="13.245284585941576"><ele>1213.0</ele><time>2026-05-02T14:59:28Z</time></trkpt><trkpt lat="42.27713413029584" lon="13.24532972308213"><ele>1213.0</ele><time>2026-05-02T14:59:29Z</time></trkpt><trkpt lat="42.27719730668915" lon="13.245356731789943"><ele>1213.0</ele><time>2026-05-02T14:59:30Z</time></trkpt><trkpt lat="42.27730186449479" lon="13.245453452549409"><ele>1211.6666666666665</ele><time>2026-05-02T14:59:32Z</time></trkpt><trkpt lat="42.277304088405074" lon="13.245561632331317"><ele>1210.3333333333333</ele><time>2026-05-02T14:59:33Z</time></trkpt><trkpt lat="42.27735025134197" lon="13.245639678893362"><ele>1209.0</ele><time>2026-05-02T14:59:34Z</time></trkpt><trkpt lat="42.27740092556693" lon="13.245722120732694"><ele>1207.6666666666667</ele><time>2026-05-02T14:59:35Z</time></trkpt><trkpt lat="42.27746214176839" lon="13.245783181706612"><ele>1206.3333333333335</ele><time>2026-05-02T14:59:36Z</time></trkpt><trkpt lat="42.27752912144075" lon="13.245826377140272"><ele>1205.0</ele><time>2026-05-02T14:59:37Z</time></trkpt><trkpt lat="42.27760406822442" lon="13.245833402923356"><ele>1205.0</ele><time>2026-05-02T14:59:38Z</time></trkpt><trkpt lat="42.277692549456056" lon="13.245847463917617"><ele>1205.0</ele><time>2026-05-02T14:59:39Z</time></trkpt><trkpt lat="42.277782319103096" lon="13.245882359062733"><ele>1205.0</ele><time>2026-05-02T14:59:40Z</time></trkpt><trkpt lat="42.27788687212301" lon="13.245897924498186"><ele>1205.0</ele><time>2026-05-02T14:59:41Z</time></trkpt><trkpt lat="42.27798998914484" lon="13.24591335668127"><ele>1205.0</ele><time>2026-05-02T14:59:42Z</time></trkpt><trkpt lat="42.27809216546388" lon="13.245926600194041"><ele>1202.6</ele><time>2026-05-02T14:59:43Z</time></trkpt><trkpt lat="42.27818790346195" lon="13.245917672301486"><ele>1200.2</ele><time>2026-05-02T14:59:44Z</time></trkpt><trkpt lat="42.278279130518754" lon="13.245925826729348"><ele>1197.8</ele><time>2026-05-02T14:59:45Z</time></trkpt><trkpt lat="42.27836494083316" lon="13.245926117778463"><ele>1195.4</ele><time>2026-05-02T14:59:46Z</time></trkpt><trkpt lat="42.278447710050166" lon="13.245911409710118"><ele>1193.0</ele><time>2026-05-02T14:59:47Z</time></trkpt><trkpt lat="42.27854260994975" lon="13.245880854296152"><ele>1193.0</ele><time>2026-05-02T14:59:48Z</time></trkpt><trkpt lat="42.27864681361105" lon="13.245835476267002"><ele>1193.0</ele><time>2026-05-02T14:59:49Z</time></trkpt><trkpt lat="42.278744302902574" lon="13.245773938369597"><ele>1193.0</ele><time>2026-05-02T14:59:50Z</time></trkpt><trkpt lat="42.278847131400134" lon="13.245719658508383"><ele>1193.0</ele><time>2026-05-02T14:59:51Z</time></trkpt><trkpt lat="42.27895094635648" lon="13.245674749726945"><ele>1193.0</ele><time>2026-05-02T14:59:52Z</time></trkpt><trkpt lat="42.27906031959282" lon="13.245634384742772"><ele>1194.25</ele><time>2026-05-02T14:59:53Z</time></trkpt><trkpt lat="42.279173290768036" lon="13.245604341601345"><ele>1195.5</ele><time>2026-05-02T14:59:54Z</time></trkpt><trkpt lat="42.27928371395092" lon="13.245579623756337"><ele>1196.75</ele><time>2026-05-02T14:59:55Z</time></trkpt><trkpt lat="42.27939800212629" lon="13.245545247845575"><ele>1198.0</ele><time>2026-05-02T14:59:56Z</time></trkpt><trkpt lat="42.27949767886881" lon="13.245498771707897"><ele>1198.0</ele><time>2026-05-02T14:59:57Z</time></trkpt><trkpt lat="42.27959224227238" lon="13.245453709952887"><ele>1198.0</ele><time>2026-05-02T14:59:58Z</time></trkpt><trkpt lat="42.27967949275796" lon="13.245405855802478"><ele>1198.0</ele><time>2026-05-02T14:59:59Z</time></trkpt><trkpt lat="42.2797605924506" lon="13.24536078739553"><ele>1198.0</ele><time>2026-05-02T15:00:00Z</time></trkpt><trkpt lat="42.279832939324784" lon="13.245320286321926"><ele>1198.0</ele><time>2026-05-02T15:00:01.001Z</time></trkpt><trkpt lat="42.27990009901873" lon="13.245284797439005"><ele>1198.0</ele><time>2026-05-02T15:00:02.001Z</time></trkpt><trkpt lat="42.27997326429516" lon="13.245246715404745"><ele>1196.8</ele><time>2026-05-02T15:00:03.001Z</time></trkpt><trkpt lat="42.280036900950876" lon="13.24521507918621"><ele>1195.6</ele><time>2026-05-02T15:00:04.001Z</time></trkpt><trkpt lat="42.280113157222345" lon="13.245163955427664"><ele>1194.4</ele><time>2026-05-02T15:00:05.001Z</time></trkpt><trkpt lat="42.280197066426055" lon="13.245087614192633"><ele>1193.2</ele><time>2026-05-02T15:00:06.001Z</time></trkpt><trkpt lat="42.280287904607036" lon="13.2450014764299"><ele>1192.0</ele><time>2026-05-02T15:00:07.001Z</time></trkpt><trkpt lat="42.28037825366343" lon="13.24491796168027"><ele>1192.0</ele><time>2026-05-02T15:00:08.001Z</time></trkpt><trkpt lat="42.280475650080696" lon="13.24484392961982"><ele>1192.0</ele><time>2026-05-02T15:00:09Z</time></trkpt><trkpt lat="42.28057994517489" lon="13.244777810927927"><ele>1192.0</ele><time>2026-05-02T15:00:10Z</time></trkpt><trkpt lat="42.28069016340773" lon="13.244720773999505"><ele>1192.0</ele><time>2026-05-02T15:00:11Z</time></trkpt><trkpt lat="42.28080870239575" lon="13.244671499243589"><ele>1192.6</ele><time>2026-05-02T15:00:12Z</time></trkpt><trkpt lat="42.280925922334255" lon="13.244624033573253"><ele>1193.2</ele><time>2026-05-02T15:00:13Z</time></trkpt><trkpt lat="42.281029634408036" lon="13.244579363031962"><ele>1193.8</ele><time>2026-05-02T15:00:14Z</time></trkpt><trkpt lat="42.281119340785054" lon="13.244537870190547"><ele>1194.4</ele><time>2026-05-02T15:00:15Z</time></trkpt><trkpt lat="42.28119885762124" lon="13.244505818520427"><ele>1195.0</ele><time>2026-05-02T15:00:16Z</time></trkpt><trkpt lat="42.28126620704719" lon="13.244490762150258"><ele>1195.0</ele><time>2026-05-02T15:00:17Z</time></trkpt><trkpt lat="42.281344256295704" lon="13.244484283583601"><ele>1195.0</ele><time>2026-05-02T15:00:18Z</time></trkpt><trkpt lat="42.28143739189501" lon="13.244494013904776"><ele>1195.0</ele><time>2026-05-02T15:00:19Z</time></trkpt><trkpt lat="42.28153638533207" lon="13.244524596472202"><ele>1195.0</ele><time>2026-05-02T15:00:20Z</time></trkpt><trkpt lat="42.2816472455746" lon="13.244567201918482"><ele>1195.0</ele><time>2026-05-02T15:00:21Z</time></trkpt><trkpt lat="42.28176935438636" lon="13.244606754853757"><ele>1193.4</ele><time>2026-05-02T15:00:22Z</time></trkpt><trkpt lat="42.28188295112928" lon="13.244641633499446"><ele>1191.8</ele><time>2026-05-02T15:00:23Z</time></trkpt><trkpt lat="42.28197853317923" lon="13.24466940232954"><ele>1190.2</ele><time>2026-05-02T15:00:24Z</time></trkpt><trkpt lat="42.28206262924898" lon="13.244685993303055"><ele>1188.6</ele><time>2026-05-02T15:00:25Z</time></trkpt><trkpt lat="42.28213495048265" lon="13.244683861631339"><ele>1187.0</ele><time>2026-05-02T15:00:26Z</time></trkpt><trkpt lat="42.28223784620908" lon="13.244649317550031"><ele>1185.8</ele><time>2026-05-02T15:00:28Z</time></trkpt><trkpt lat="42.28229930009147" lon="13.24452598424274"><ele>1184.6</ele><time>2026-05-02T15:00:30Z</time></trkpt><trkpt lat="42.28231531179681" lon="13.244427999455105"><ele>1183.3999999999999</ele><time>2026-05-02T15:00:31Z</time></trkpt><trkpt lat="42.28233310146908" lon="13.24430158736779"><ele>1182.2</ele><time>2026-05-02T15:00:32Z</time></trkpt><trkpt lat="42.282368972763386" lon="13.244181428050126"><ele>1181.0</ele><time>2026-05-02T15:00:33Z</time></trkpt><trkpt lat="42.28242870241692" lon="13.244079719007983"><ele>1181.0</ele><time>2026-05-02T15:00:34Z</time></trkpt><trkpt lat="42.28250776631179" lon="13.243971419853699"><ele>1181.0</ele><time>2026-05-02T15:00:35Z</time></trkpt><trkpt lat="42.28258832071502" lon="13.24386553524672"><ele>1181.0</ele><time>2026-05-02T15:00:36Z</time></trkpt><trkpt lat="42.28266996012656" lon="13.243766683442278"><ele>1181.0</ele><time>2026-05-02T15:00:37Z</time></trkpt><trkpt lat="42.28274922560892" lon="13.243678527076396"><ele>1181.0</ele><time>2026-05-02T15:00:38Z</time></trkpt><trkpt lat="42.28282133219316" lon="13.243601446688574"><ele>1181.1666666666667</ele><time>2026-05-02T15:00:39Z</time></trkpt><trkpt lat="42.28288975623126" lon="13.243521079411128"><ele>1181.3333333333335</ele><time>2026-05-02T15:00:40Z</time></trkpt><trkpt lat="42.282938453065555" lon="13.243434281056784"><ele>1181.5</ele><time>2026-05-02T15:00:41Z</time></trkpt><trkpt lat="42.282972296544905" lon="13.243325002510804"><ele>1181.6666666666667</ele><time>2026-05-02T15:00:42Z</time></trkpt><trkpt lat="42.28299077014053" lon="13.243212047417494"><ele>1181.8333333333333</ele><time>2026-05-02T15:00:43Z</time></trkpt><trkpt lat="42.283001281488" lon="13.24309063667964"><ele>1182.0</ele><time>2026-05-02T15:00:44Z</time></trkpt><trkpt lat="42.28299719557504" lon="13.24296965976678"><ele>1182.0</ele><time>2026-05-02T15:00:45Z</time></trkpt><trkpt lat="42.282979942601166" lon="13.242835864776286"><ele>1182.0</ele><time>2026-05-02T15:00:46Z</time></trkpt><trkpt lat="42.28294890380956" lon="13.242708617889518"><ele>1182.0</ele><time>2026-05-02T15:00:47Z</time></trkpt><trkpt lat="42.2829122998855" lon="13.242579070907162"><ele>1182.0</ele><time>2026-05-02T15:00:48Z</time></trkpt><trkpt lat="42.28286945411287" lon="13.242430405284244"><ele>1182.0</ele><time>2026-05-02T15:00:49Z</time></trkpt><trkpt lat="42.2828429879738" lon="13.24230328841458"><ele>1181.0</ele><time>2026-05-02T15:00:50Z</time></trkpt><trkpt lat="42.282829508827405" lon="13.242190008776504"><ele>1180.0</ele><time>2026-05-02T15:00:51Z</time></trkpt><trkpt lat="42.282820107937546" lon="13.242069157857573"><ele>1179.0</ele><time>2026-05-02T15:00:52Z</time></trkpt><trkpt lat="42.282825814222896" lon="13.241928617066195"><ele>1178.0</ele><time>2026-05-02T15:00:54Z</time></trkpt><trkpt lat="42.28287831138789" lon="13.2418260268918"><ele>1177.0</ele><time>2026-05-02T15:00:56Z</time></trkpt><trkpt lat="42.282985909662855" lon="13.241809975506072"><ele>1177.0</ele><time>2026-05-02T15:00:58Z</time></trkpt><trkpt lat="42.28306583475543" lon="13.241822467164834"><ele>1177.0</ele><time>2026-05-02T15:00:59Z</time></trkpt><trkpt lat="42.28315328991614" lon="13.241836580957058"><ele>1177.0</ele><time>2026-05-02T15:01:00Z</time></trkpt><trkpt lat="42.28326193593934" lon="13.241847775895145"><ele>1177.0</ele><time>2026-05-02T15:01:01Z</time></trkpt><trkpt lat="42.28337139220626" lon="13.241860032186997"><ele>1177.0</ele><time>2026-05-02T15:01:02Z</time></trkpt><trkpt lat="42.28347963599876" lon="13.24187723070565"><ele>1178.3333333333333</ele><time>2026-05-02T15:01:03Z</time></trkpt><trkpt lat="42.28357930491022" lon="13.241896257954538"><ele>1179.6666666666665</ele><time>2026-05-02T15:01:04Z</time></trkpt><trkpt lat="42.283670046862674" lon="13.241900787345484"><ele>1181.0</ele><time>2026-05-02T15:01:05Z</time></trkpt><trkpt lat="42.283753978278774" lon="13.241886008710042"><ele>1182.3333333333333</ele><time>2026-05-02T15:01:06Z</time></trkpt><trkpt lat="42.283833428448595" lon="13.241847415932657"><ele>1183.6666666666667</ele><time>2026-05-02T15:01:07Z</time></trkpt><trkpt lat="42.28390946468965" lon="13.24179335738895"><ele>1185.0</ele><time>2026-05-02T15:01:08Z</time></trkpt><trkpt lat="42.283989241763734" lon="13.241722530540205"><ele>1186.0</ele><time>2026-05-02T15:01:09Z</time></trkpt><trkpt lat="42.284069937686404" lon="13.241638409616106"><ele>1187.0</ele><time>2026-05-02T15:01:10Z</time></trkpt><trkpt lat="42.28416326757368" lon="13.241549924875013"><ele>1188.0</ele><time>2026-05-02T15:01:11Z</time></trkpt><trkpt lat="42.28428202555682" lon="13.241459127462777"><ele>1189.0</ele><time>2026-05-02T15:01:12Z</time></trkpt><trkpt lat="42.28442074565719" lon="13.241357172850599"><ele>1189.6666666666665</ele><time>2026-05-02T15:01:13Z</time></trkpt><trkpt lat="42.28455707510876" lon="13.24125350124902"><ele>1190.3333333333333</ele><time>2026-05-02T15:01:14Z</time></trkpt><trkpt lat="42.28468398935947" lon="13.241141873814648"><ele>1191.0</ele><time>2026-05-02T15:01:15Z</time></trkpt><trkpt lat="42.28480419961839" lon="13.240996477468197"><ele>1191.0</ele><time>2026-05-02T15:01:16Z</time></trkpt><trkpt lat="42.28491526764163" lon="13.240822458424574"><ele>1191.0</ele><time>2026-05-02T15:01:17Z</time></trkpt><trkpt lat="42.28503832119231" lon="13.240647851238792"><ele>1191.0</ele><time>2026-05-02T15:01:18Z</time></trkpt><trkpt lat="42.28517021157772" lon="13.240497143050295"><ele>1196.6666666666667</ele><time>2026-05-02T15:01:19Z</time></trkpt><trkpt lat="42.28530555328504" lon="13.240381695580936"><ele>1202.3333333333335</ele><time>2026-05-02T15:01:20Z</time></trkpt><trkpt lat="42.28545715536694" lon="13.240298296875416"><ele>1208.0</ele><time>2026-05-02T15:01:21Z</time></trkpt><trkpt lat="42.28561953961531" lon="13.240228865517073"><ele>1208.0</ele><time>2026-05-02T15:01:22Z</time></trkpt><trkpt lat="42.28578002592952" lon="13.24012940823446"><ele>1208.0</ele><time>2026-05-02T15:01:23Z</time></trkpt><trkpt lat="42.28591862120153" lon="13.240019618910116"><ele>1208.0</ele><time>2026-05-02T15:01:24Z</time></trkpt><trkpt lat="42.28606168179133" lon="13.239934054744337"><ele>1208.0</ele><time>2026-05-02T15:01:25Z</time></trkpt><trkpt lat="42.28620801649153" lon="13.239871209160734"><ele>1208.0</ele><time>2026-05-02T15:01:26Z</time></trkpt><trkpt lat="42.286348116623216" lon="13.239803273694076"><ele>1208.0</ele><time>2026-05-02T15:01:27Z</time></trkpt><trkpt lat="42.2864799623439" lon="13.239716786347678"><ele>1208.0</ele><time>2026-05-02T15:01:28Z</time></trkpt><trkpt lat="42.28661031422677" lon="13.23963894182973"><ele>1213.25</ele><time>2026-05-02T15:01:29Z</time></trkpt><trkpt lat="42.28673536667313" lon="13.239603718219232"><ele>1218.5</ele><time>2026-05-02T15:01:30Z</time></trkpt><trkpt lat="42.28686361215248" lon="13.239614470589569"><ele>1223.75</ele><time>2026-05-02T15:01:31Z</time></trkpt><trkpt lat="42.286989498751076" lon="13.239648140863151"><ele>1229.0</ele><time>2026-05-02T15:01:32Z</time></trkpt><trkpt lat="42.28711846270137" lon="13.23965827721263"><ele>1229.0</ele><time>2026-05-02T15:01:33Z</time></trkpt><trkpt lat="42.28725601075585" lon="13.23962928132284"><ele>1229.0</ele><time>2026-05-02T15:01:34Z</time></trkpt><trkpt lat="42.28738374486299" lon="13.239610854241398"><ele>1229.0</ele><time>2026-05-02T15:01:35Z</time></trkpt><trkpt lat="42.28749588098206" lon="13.239625400722842"><ele>1229.0</ele><time>2026-05-02T15:01:36Z</time></trkpt><trkpt lat="42.28759824735416" lon="13.239677455606136"><ele>1228.0</ele><time>2026-05-02T15:01:37Z</time></trkpt><trkpt lat="42.28767929892215" lon="13.239772346186811"><ele>1227.0</ele><time>2026-05-02T15:01:38Z</time></trkpt><trkpt lat="42.28775886792948" lon="13.239859920962308"><ele>1226.0</ele><time>2026-05-02T15:01:39Z</time></trkpt><trkpt lat="42.287859168020155" lon="13.239885640902063"><ele>1225.0</ele><time>2026-05-02T15:01:40Z</time></trkpt><trkpt lat="42.28796956159073" lon="13.239853385968232"><ele>1224.0</ele><time>2026-05-02T15:01:41Z</time></trkpt><trkpt lat="42.288082885262746" lon="13.239777803305026"><ele>1225.5</ele><time>2026-05-02T15:01:42Z</time></trkpt><trkpt lat="42.28819875310301" lon="13.239692693774481"><ele>1227.0</ele><time>2026-05-02T15:01:43Z</time></trkpt><trkpt lat="42.28832126949819" lon="13.239618573079039"><ele>1228.5</ele><time>2026-05-02T15:01:44Z</time></trkpt><trkpt lat="42.28845743839794" lon="13.23955769500382"><ele>1230.0</ele><time>2026-05-02T15:01:45Z</time></trkpt><trkpt lat="42.28860862289843" lon="13.239499039369763"><ele>1230.0</ele><time>2026-05-02T15:01:46Z</time></trkpt><trkpt lat="42.28877079051309" lon="13.239437725714955"><ele>1230.0</ele><time>2026-05-02T15:01:47Z</time></trkpt><trkpt lat="42.288927906078655" lon="13.239373485960837"><ele>1230.0</ele><time>2026-05-02T15:01:48Z</time></trkpt><trkpt lat="42.28907522627004" lon="13.239314900474739"><ele>1229.5</ele><time>2026-05-02T15:01:49Z</time></trkpt><trkpt lat="42.289222512247" lon="13.239278262119253"><ele>1229.0</ele><time>2026-05-02T15:01:50Z</time></trkpt><trkpt lat="42.289367191099245" lon="13.23927947480754"><ele>1228.5</ele><time>2026-05-02T15:01:51Z</time></trkpt><trkpt lat="42.289500541729254" lon="13.239308975056966"><ele>1228.0</ele><time>2026-05-02T15:01:52Z</time></trkpt><trkpt lat="42.289625507647585" lon="13.239328359955854"><ele>1228.0</ele><time>2026-05-02T15:01:53Z</time></trkpt><trkpt lat="42.289750568015755" lon="13.239297317391431"><ele>1228.0</ele><time>2026-05-02T15:01:54Z</time></trkpt><trkpt lat="42.28987647827235" lon="13.239230804934687"><ele>1228.0</ele><time>2026-05-02T15:01:55Z</time></trkpt><trkpt lat="42.290002731566744" lon="13.239168079780377"><ele>1228.0</ele><time>2026-05-02T15:01:56Z</time></trkpt><trkpt lat="42.29013029575451" lon="13.23914290833699"><ele>1229.0</ele><time>2026-05-02T15:01:57Z</time></trkpt><trkpt lat="42.29025897130314" lon="13.239159341671975"><ele>1230.0</ele><time>2026-05-02T15:01:58Z</time></trkpt><trkpt lat="42.29037936874174" lon="13.239212014869292"><ele>1231.0</ele><time>2026-05-02T15:01:59Z</time></trkpt><trkpt lat="42.29049307121087" lon="13.239266870251527"><ele>1232.0</ele><time>2026-05-02T15:02:00Z</time></trkpt><trkpt lat="42.290607150567595" lon="13.23928637595219"><ele>1232.25</ele><time>2026-05-02T15:02:01Z</time></trkpt><trkpt lat="42.29073343449564" lon="13.23926335242814"><ele>1232.5</ele><time>2026-05-02T15:02:02Z</time></trkpt><trkpt lat="42.2908651469634" lon="13.239200049785444"><ele>1232.75</ele><time>2026-05-02T15:02:03Z</time></trkpt><trkpt lat="42.290997001059125" lon="13.239106904783947"><ele>1233.0</ele><time>2026-05-02T15:02:04Z</time></trkpt><trkpt lat="42.29113135235882" lon="13.239022895270303"><ele>1243.3333333333333</ele><time>2026-05-02T15:02:05Z</time></trkpt><trkpt lat="42.29128134777587" lon="13.238964366556901"><ele>1253.6666666666665</ele><time>2026-05-02T15:02:06Z</time></trkpt><trkpt lat="42.29144685690562" lon="13.2389328959116"><ele>1264.0</ele><time>2026-05-02T15:02:07Z</time></trkpt><trkpt lat="42.29162258039314" lon="13.238907228018135"><ele>1264.0</ele><time>2026-05-02T15:02:08Z</time></trkpt><trkpt lat="42.29180540805405" lon="13.238858972315773"><ele>1264.0</ele><time>2026-05-02T15:02:09Z</time></trkpt><trkpt lat="42.29198706831424" lon="13.238781811360063"><ele>1264.0</ele><time>2026-05-02T15:02:10Z</time></trkpt><trkpt lat="42.292168270843796" lon="13.238716653798457"><ele>1262.3333333333333</ele><time>2026-05-02T15:02:11Z</time></trkpt><trkpt lat="42.292346222703095" lon="13.238681794392892"><ele>1260.6666666666667</ele><time>2026-05-02T15:02:12Z</time></trkpt><trkpt lat="42.29251897936791" lon="13.238665912715541"><ele>1259.0</ele><time>2026-05-02T15:02:13Z</time></trkpt><trkpt lat="42.292684607897414" lon="13.238647885995084"><ele>1259.0</ele><time>2026-05-02T15:02:14Z</time></trkpt><trkpt lat="42.292844180158845" lon="13.238605868954494"><ele>1259.0</ele><time>2026-05-02T15:02:15Z</time></trkpt><trkpt lat="42.29299673429139" lon="13.238525744228859"><ele>1259.0</ele><time>2026-05-02T15:02:16Z</time></trkpt><trkpt lat="42.293145816134945" lon="13.238410893642643"><ele>1255.3333333333335</ele><time>2026-05-02T15:02:17Z</time></trkpt><trkpt lat="42.29330172341578" lon="13.238289347479247"><ele>1251.6666666666667</ele><time>2026-05-02T15:02:18Z</time></trkpt><trkpt lat="42.29347007885025" lon="13.238189710529163"><ele>1248.0</ele><time>2026-05-02T15:02:19Z</time></trkpt><trkpt lat="42.29364307822392" lon="13.238096693703175"><ele>1254.6666666666667</ele><time>2026-05-02T15:02:20Z</time></trkpt><trkpt lat="42.2938207822877" lon="13.238001037040094"><ele>1261.3333333333335</ele><time>2026-05-02T15:02:21Z</time></trkpt><trkpt lat="42.29399765913716" lon="13.237902446355864"><ele>1268.0</ele><time>2026-05-02T15:02:22Z</time></trkpt><trkpt lat="42.29416897732525" lon="13.237802770515389"><ele>1268.0</ele><time>2026-05-02T15:02:23Z</time></trkpt><trkpt lat="42.29432827631733" lon="13.237699518614619"><ele>1268.0</ele><time>2026-05-02T15:02:24Z</time></trkpt><trkpt lat="42.29447146273654" lon="13.237601897605538"><ele>1268.0</ele><time>2026-05-02T15:02:25Z</time></trkpt><trkpt lat="42.29460647876407" lon="13.237517314171955"><ele>1268.0</ele><time>2026-05-02T15:02:26Z</time></trkpt><trkpt lat="42.29474318273603" lon="13.237459703196501"><ele>1268.0</ele><time>2026-05-02T15:02:27Z</time></trkpt><trkpt lat="42.29488617032655" lon="13.23742170889332"><ele>1268.0</ele><time>2026-05-02T15:02:28Z</time></trkpt><trkpt lat="42.295039286924506" lon="13.237390179285129"><ele>1268.0</ele><time>2026-05-02T15:02:29Z</time></trkpt><trkpt lat="42.295199433328506" lon="13.237354830461527"><ele>1265.0</ele><time>2026-05-02T15:02:30Z</time></trkpt><trkpt lat="42.29536488004735" lon="13.23731407077433"><ele>1262.0</ele><time>2026-05-02T15:02:31Z</time></trkpt><trkpt lat="42.29553894382525" lon="13.237299298371932"><ele>1259.0</ele><time>2026-05-02T15:02:32Z</time></trkpt><trkpt lat="42.295716080940664" lon="13.23726244248237"><ele>1271.0</ele><time>2026-05-02T15:02:33Z</time></trkpt><trkpt lat="42.29589243008513" lon="13.237227188855858"><ele>1283.0</ele><time>2026-05-02T15:02:34Z</time></trkpt><trkpt lat="42.296065284712995" lon="13.237194629880342"><ele>1295.0</ele><time>2026-05-02T15:02:35Z</time></trkpt><trkpt lat="42.29623597144396" lon="13.23716516833516"><ele>1295.0</ele><time>2026-05-02T15:02:36Z</time></trkpt><trkpt lat="42.29640778572835" lon="13.237142954766382"><ele>1295.0</ele><time>2026-05-02T15:02:37Z</time></trkpt><trkpt lat="42.29658092941593" lon="13.23712773834984"><ele>1295.0</ele><time>2026-05-02T15:02:38Z</time></trkpt><trkpt lat="42.29675219173814" lon="13.237124728172143"><ele>1294.6666666666667</ele><time>2026-05-02T15:02:39Z</time></trkpt><trkpt lat="42.29691755344256" lon="13.237157892557919"><ele>1294.3333333333333</ele><time>2026-05-02T15:02:40Z</time></trkpt><trkpt lat="42.29708880810933" lon="13.237202079867672"><ele>1294.0</ele><time>2026-05-02T15:02:41Z</time></trkpt><trkpt lat="42.297263049775715" lon="13.237242180449833"><ele>1294.0</ele><time>2026-05-02T15:02:42Z</time></trkpt><trkpt lat="42.29744183227476" lon="13.237270634655513"><ele>1294.0</ele><time>2026-05-02T15:02:43Z</time></trkpt><trkpt lat="42.29761747117929" lon="13.237302682474638"><ele>1294.0</ele><time>2026-05-02T15:02:44Z</time></trkpt><trkpt lat="42.29778102599078" lon="13.237359485204674"><ele>1289.75</ele><time>2026-05-02T15:02:45Z</time></trkpt><trkpt lat="42.29792672895241" lon="13.237416225682978"><ele>1285.5</ele><time>2026-05-02T15:02:46Z</time></trkpt><trkpt lat="42.298067488790814" lon="13.23745611573495"><ele>1281.25</ele><time>2026-05-02T15:02:47Z</time></trkpt><trkpt lat="42.29819357299262" lon="13.237523345226391"><ele>1277.0</ele><time>2026-05-02T15:02:48Z</time></trkpt><trkpt lat="42.29829036744735" lon="13.23764368184543"><ele>1277.0</ele><time>2026-05-02T15:02:49Z</time></trkpt><trkpt lat="42.298387578291944" lon="13.237754542833608"><ele>1277.0</ele><time>2026-05-02T15:02:50Z</time></trkpt><trkpt lat="42.298496911495604" lon="13.237843537830805"><ele>1277.0</ele><time>2026-05-02T15:02:51Z</time></trkpt><trkpt lat="42.298586212744176" lon="13.237948790527971"><ele>1277.0</ele><time>2026-05-02T15:02:52Z</time></trkpt><trkpt lat="42.29868451128713" lon="13.238006880950449"><ele>1277.0</ele><time>2026-05-02T15:02:53Z</time></trkpt><trkpt lat="42.29876341363703" lon="13.238015834130376"><ele>1277.0</ele><time>2026-05-02T15:02:54Z</time></trkpt><trkpt lat="42.298833287273894" lon="13.238045546216751"><ele>1277.0</ele><time>2026-05-02T15:02:56Z</time></trkpt><trkpt lat="42.29892271646326" lon="13.238013379618703"><ele>1277.0</ele><time>2026-05-02T15:04:04Z</time></trkpt><trkpt lat="42.2989786761562" lon="13.23796960665757"><ele>1277.0</ele><time>2026-05-02T15:04:05Z</time></trkpt><trkpt lat="42.29905732817232" lon="13.237910309548946"><ele>1277.0</ele><time>2026-05-02T15:04:06Z</time></trkpt><trkpt lat="42.29916520296005" lon="13.237870573656105"><ele>1277.75</ele><time>2026-05-02T15:04:07Z</time></trkpt><trkpt lat="42.29928893064415" lon="13.237828893553456"><ele>1278.5</ele><time>2026-05-02T15:04:08Z</time></trkpt><trkpt lat="42.29942268067294" lon="13.237803256452166"><ele>1279.25</ele><time>2026-05-02T15:04:09Z</time></trkpt><trkpt lat="42.29955795447986" lon="13.237799128821848"><ele>1280.0</ele><time>2026-05-02T15:04:10Z</time></trkpt><trkpt lat="42.299696202313925" lon="13.237837428186777"><ele>1279.0</ele><time>2026-05-02T15:04:11Z</time></trkpt><trkpt lat="42.29982878492847" lon="13.237913341962317"><ele>1278.0</ele><time>2026-05-02T15:04:12Z</time></trkpt><trkpt lat="42.299975805825035" lon="13.23795210856243"><ele>1277.0</ele><time>2026-05-02T15:04:13Z</time></trkpt><trkpt lat="42.300117563407944" lon="13.237991567303288"><ele>1276.0</ele><time>2026-05-02T15:04:14Z</time></trkpt><trkpt lat="42.30026894503936" lon="13.237981191551818"><ele>1276.0</ele><time>2026-05-02T15:04:15Z</time></trkpt><trkpt lat="42.30041930241687" lon="13.237935571942284"><ele>1276.0</ele><time>2026-05-02T15:04:16Z</time></trkpt><trkpt lat="42.300565320483805" lon="13.237869042031665"><ele>1276.0</ele><time>2026-05-02T15:04:17Z</time></trkpt><trkpt lat="42.300704851672506" lon="13.237793995403006"><ele>1276.25</ele><time>2026-05-02T15:04:18Z</time></trkpt><trkpt lat="42.30083273469439" lon="13.237709555738759"><ele>1276.5</ele><time>2026-05-02T15:04:19Z</time></trkpt><trkpt lat="42.30097768918669" lon="13.23771221882672"><ele>1276.75</ele><time>2026-05-02T15:04:20Z</time></trkpt><trkpt lat="42.30112650889709" lon="13.237719052759976"><ele>1277.0</ele><time>2026-05-02T15:04:21Z</time></trkpt><trkpt lat="42.30128847467665" lon="13.237737324247732"><ele>1275.3333333333335</ele><time>2026-05-02T15:04:22Z</time></trkpt><trkpt lat="42.30145397276883" lon="13.237751746676194"><ele>1273.6666666666667</ele><time>2026-05-02T15:04:23Z</time></trkpt><trkpt lat="42.30161711462302" lon="13.23776526410169"><ele>1272.0</ele><time>2026-05-02T15:04:24Z</time></trkpt><trkpt lat="42.30177917271354" lon="13.23776942627773"><ele>1272.0</ele><time>2026-05-02T15:04:25Z</time></trkpt><trkpt lat="42.30192754381161" lon="13.237765944170972"><ele>1272.0</ele><time>2026-05-02T15:04:26Z</time></trkpt><trkpt lat="42.30203874099088" lon="13.23775661862418"><ele>1272.0</ele><time>2026-05-02T15:04:27Z</time></trkpt><trkpt lat="42.30211577829078" lon="13.237728749465825"><ele>1272.0</ele><time>2026-05-02T15:04:28Z</time></trkpt><trkpt lat="42.30220825594831" lon="13.237746795710931"><ele>1272.0</ele><time>2026-05-02T15:04:30Z</time></trkpt><trkpt lat="42.30228489872792" lon="13.237733421776243"><ele>1272.1666666666667</ele><time>2026-05-02T15:04:33Z</time></trkpt><trkpt lat="42.30232801627339" lon="13.237853159764715"><ele>1272.3333333333333</ele><time>2026-05-02T15:04:34Z</time></trkpt><trkpt lat="42.302388753080024" lon="13.237907473158826"><ele>1272.5</ele><time>2026-05-02T15:04:36Z</time></trkpt><trkpt lat="42.30244686232896" lon="13.238003134347336"><ele>1272.6666666666665</ele><time>2026-05-02T15:04:39Z</time></trkpt><trkpt lat="42.302465110986795" lon="13.238110430571782"><ele>1272.8333333333333</ele><time>2026-05-02T15:04:41Z</time></trkpt><trkpt lat="42.30248195067188" lon="13.23819923578401"><ele>1273.0</ele><time>2026-05-02T15:04:42Z</time></trkpt><trkpt lat="42.30250459430778" lon="13.238280864882247"><ele>1272.0</ele><time>2026-05-02T15:04:43Z</time></trkpt><trkpt lat="42.30254661700563" lon="13.238368330337522"><ele>1271.0</ele><time>2026-05-02T15:04:44Z</time></trkpt><trkpt lat="42.3026037816359" lon="13.238448472564196"><ele>1270.0</ele><time>2026-05-02T15:04:45Z</time></trkpt><trkpt lat="42.30267530671331" lon="13.238495185626956"><ele>1269.0</ele><time>2026-05-02T15:04:46Z</time></trkpt><trkpt lat="42.302735340043185" lon="13.23854170192644"><ele>1268.0</ele><time>2026-05-02T15:04:47Z</time></trkpt><trkpt lat="42.30279605585085" lon="13.238594802778282"><ele>1267.0</ele><time>2026-05-02T15:04:48Z</time></trkpt><trkpt lat="42.302868001615956" lon="13.238646456216093"><ele>1267.0</ele><time>2026-05-02T15:04:49Z</time></trkpt><trkpt lat="42.30295730571178" lon="13.23870462930696"><ele>1267.0</ele><time>2026-05-02T15:04:50Z</time></trkpt><trkpt lat="42.303047524137895" lon="13.238751331684071"><ele>1267.0</ele><time>2026-05-02T15:04:51Z</time></trkpt><trkpt lat="42.30311405564117" lon="13.23881052330939"><ele>1267.0</ele><time>2026-05-02T15:04:52Z</time></trkpt><trkpt lat="42.303179297758355" lon="13.238830691479613"><ele>1267.0</ele><time>2026-05-02T15:04:53Z</time></trkpt><trkpt lat="42.303226410510185" lon="13.238904910600965"><ele>1267.0</ele><time>2026-05-02T15:04:54Z</time></trkpt><trkpt lat="42.30328605560922" lon="13.238973116220361"><ele>1268.6666666666665</ele><time>2026-05-02T15:04:55Z</time></trkpt><trkpt lat="42.30334993902256" lon="13.239047291611133"><ele>1270.3333333333333</ele><time>2026-05-02T15:04:56Z</time></trkpt><trkpt lat="42.303417328150935" lon="13.239124140009034"><ele>1272.0</ele><time>2026-05-02T15:04:57Z</time></trkpt><trkpt lat="42.303501600779946" lon="13.239186186202593"><ele>1273.6666666666667</ele><time>2026-05-02T15:04:58Z</time></trkpt><trkpt lat="42.303566978638884" lon="13.239252325193291"><ele>1275.3333333333335</ele><time>2026-05-02T15:04:59Z</time></trkpt><trkpt lat="42.30363128910008" lon="13.239314833320218"><ele>1277.0</ele><time>2026-05-02T15:05:00Z</time></trkpt><trkpt lat="42.30368835139199" lon="13.239364144655582"><ele>1277.0</ele><time>2026-05-02T15:05:01Z</time></trkpt><trkpt lat="42.30377764606565" lon="13.239453551826456"><ele>1277.0</ele><time>2026-05-02T15:05:03Z</time></trkpt><trkpt lat="42.30386257357777" lon="13.239564158638387"><ele>1277.0</ele><time>2026-05-02T15:05:05Z</time></trkpt><trkpt lat="42.30393252582528" lon="13.239709498550186"><ele>1277.0</ele><time>2026-05-02T15:05:07Z</time></trkpt><trkpt lat="42.303921951362426" lon="13.239814057594844"><ele>1277.0</ele><time>2026-05-02T15:05:08Z</time></trkpt><trkpt lat="42.3039314586314" lon="13.23992095607374"><ele>1277.1666666666667</ele><time>2026-05-02T15:05:09Z</time></trkpt><trkpt lat="42.30395485566333" lon="13.240024764304593"><ele>1277.3333333333335</ele><time>2026-05-02T15:05:10Z</time></trkpt><trkpt lat="42.30395814837153" lon="13.240135436082936"><ele>1277.5</ele><time>2026-05-02T15:05:11Z</time></trkpt><trkpt lat="42.30397362385107" lon="13.24024215224476"><ele>1277.6666666666667</ele><time>2026-05-02T15:05:12Z</time></trkpt><trkpt lat="42.30399413346253" lon="13.240373037074276"><ele>1277.8333333333333</ele><time>2026-05-02T15:05:13Z</time></trkpt><trkpt lat="42.30401574603328" lon="13.240510474738766"><ele>1278.0</ele><time>2026-05-02T15:05:14Z</time></trkpt><trkpt lat="42.304035466797" lon="13.240635884852562"><ele>1278.0</ele><time>2026-05-02T15:05:15Z</time></trkpt><trkpt lat="42.304054806200554" lon="13.240758869989332"><ele>1278.0</ele><time>2026-05-02T15:05:16Z</time></trkpt><trkpt lat="42.30407097575828" lon="13.24086169710755"><ele>1278.0</ele><time>2026-05-02T15:05:17Z</time></trkpt><trkpt lat="42.30410382845918" lon="13.240966087572144"><ele>1278.0</ele><time>2026-05-02T15:05:18Z</time></trkpt><trkpt lat="42.30410691369952" lon="13.241080567653352"><ele>1278.0</ele><time>2026-05-02T15:05:19Z</time></trkpt><trkpt lat="42.30412982478994" lon="13.241178590968284"><ele>1278.0</ele><time>2026-05-02T15:05:20Z</time></trkpt><trkpt lat="42.30409109823598" lon="13.241279820204106"><ele>1278.0</ele><time>2026-05-02T15:05:21Z</time></trkpt><trkpt lat="42.304067776752426" lon="13.241365347980437"><ele>1278.0</ele><time>2026-05-02T15:05:22Z</time></trkpt><trkpt lat="42.304038802454" lon="13.241443342027118"><ele>1278.0</ele><time>2026-05-02T15:05:23Z</time></trkpt><trkpt lat="42.30400374659078" lon="13.241540633594093"><ele>1278.0</ele><time>2026-05-02T15:05:24Z</time></trkpt><trkpt lat="42.303965688492504" lon="13.241707827799607"><ele>1278.0</ele><time>2026-05-02T15:05:26Z</time></trkpt><trkpt lat="42.30394422225617" lon="13.241789472514442"><ele>1278.0</ele><time>2026-05-02T15:05:27Z</time></trkpt><trkpt lat="42.30391457283934" lon="13.241875811196595"><ele>1281.3333333333333</ele><time>2026-05-02T15:05:28Z</time></trkpt><trkpt lat="42.30388057987117" lon="13.241954465853574"><ele>1284.6666666666667</ele><time>2026-05-02T15:05:29Z</time></trkpt><trkpt lat="42.30384601484494" lon="13.242031290627152"><ele>1288.0</ele><time>2026-05-02T15:05:30Z</time></trkpt><trkpt lat="42.30380417692323" lon="13.242111785160992"><ele>1291.3333333333335</ele><time>2026-05-02T15:05:31Z</time></trkpt><trkpt lat="42.303758059854616" lon="13.242212720626256"><ele>1294.6666666666667</ele><time>2026-05-02T15:05:32Z</time></trkpt><trkpt lat="42.30370448217168" lon="13.242329647332006"><ele>1298.0</ele><time>2026-05-02T15:05:33Z</time></trkpt><trkpt lat="42.30366957081467" lon="13.242460186774046"><ele>1298.0</ele><time>2026-05-02T15:05:34Z</time></trkpt><trkpt lat="42.30364273201881" lon="13.242607061735402"><ele>1298.0</ele><time>2026-05-02T15:05:35Z</time></trkpt><trkpt lat="42.303614792101534" lon="13.24274283612394"><ele>1298.0</ele><time>2026-05-02T15:05:36Z</time></trkpt><trkpt lat="42.30359687463297" lon="13.242853135521317"><ele>1298.0</ele><time>2026-05-02T15:05:37Z</time></trkpt><trkpt lat="42.303593102003774" lon="13.242958619004195"><ele>1298.0</ele><time>2026-05-02T15:05:38Z</time></trkpt><trkpt lat="42.30358859882652" lon="13.243070558071238"><ele>1298.0</ele><time>2026-05-02T15:05:39Z</time></trkpt><trkpt lat="42.30358300112719" lon="13.243188856620753"><ele>1298.0</ele><time>2026-05-02T15:05:40Z</time></trkpt><trkpt lat="42.30358004973267" lon="13.243313100490512"><ele>1298.0</ele><time>2026-05-02T15:05:41Z</time></trkpt><trkpt lat="42.30357271799801" lon="13.243421309213716"><ele>1298.0</ele><time>2026-05-02T15:05:42Z</time></trkpt><trkpt lat="42.30357117601552" lon="13.243528833843756"><ele>1298.0</ele><time>2026-05-02T15:05:43Z</time></trkpt><trkpt lat="42.303583953092705" lon="13.243629764837841"><ele>1298.0</ele><time>2026-05-02T15:05:44Z</time></trkpt><trkpt lat="42.30359495075112" lon="13.24373787489057"><ele>1298.0</ele><time>2026-05-02T15:05:45Z</time></trkpt><trkpt lat="42.303613883413504" lon="13.243854254906267"><ele>1298.0</ele><time>2026-05-02T15:05:46Z</time></trkpt><trkpt lat="42.30362587143173" lon="13.243969356657985"><ele>1298.0</ele><time>2026-05-02T15:05:47Z</time></trkpt><trkpt lat="42.30362651103409" lon="13.244082674568098"><ele>1298.0</ele><time>2026-05-02T15:05:48Z</time></trkpt><trkpt lat="42.303614561558234" lon="13.244197539926839"><ele>1298.0</ele><time>2026-05-02T15:05:49Z</time></trkpt><trkpt lat="42.3035923295244" lon="13.244295830020501"><ele>1298.0</ele><time>2026-05-02T15:05:50Z</time></trkpt><trkpt lat="42.303565908581824" lon="13.244391751671658"><ele>1299.0</ele><time>2026-05-02T15:05:51Z</time></trkpt><trkpt lat="42.30353822058404" lon="13.244468838378083"><ele>1300.0</ele><time>2026-05-02T15:05:52Z</time></trkpt><trkpt lat="42.30348756310302" lon="13.24461127476333"><ele>1301.0</ele><time>2026-05-02T15:05:54Z</time></trkpt><trkpt lat="42.303445413332234" lon="13.244695410213078"><ele>1302.0</ele><time>2026-05-02T15:05:55Z</time></trkpt><trkpt lat="42.303403580153905" lon="13.244796267363814"><ele>1303.0</ele><time>2026-05-02T15:05:56Z</time></trkpt><trkpt lat="42.30336053715039" lon="13.244908957807626"><ele>1304.0</ele><time>2026-05-02T15:05:57Z</time></trkpt><trkpt lat="42.30331835850204" lon="13.24501678810462"><ele>1304.8333333333335</ele><time>2026-05-02T15:05:58Z</time></trkpt><trkpt lat="42.30327214579755" lon="13.245111575962378"><ele>1305.6666666666667</ele><time>2026-05-02T15:05:59Z</time></trkpt><trkpt lat="42.303233610135756" lon="13.24518911829608"><ele>1306.5</ele><time>2026-05-02T15:06:00Z</time></trkpt><trkpt lat="42.30319690362238" lon="13.24532456106945"><ele>1307.3333333333333</ele><time>2026-05-02T15:06:02Z</time></trkpt><trkpt lat="42.30317567698256" lon="13.24547829447504"><ele>1308.1666666666665</ele><time>2026-05-02T15:06:04Z</time></trkpt><trkpt lat="42.303173869905535" lon="13.245570080959352"><ele>1309.0</ele><time>2026-05-02T15:06:05Z</time></trkpt><trkpt lat="42.30316183032009" lon="13.245657053440468"><ele>1310.1666666666665</ele><time>2026-05-02T15:06:06Z</time></trkpt><trkpt lat="42.30313580998768" lon="13.245748780756083"><ele>1311.3333333333333</ele><time>2026-05-02T15:06:06.999Z</time></trkpt><trkpt lat="42.303099794588576" lon="13.245829119328766"><ele>1312.5</ele><time>2026-05-02T15:06:07.999Z</time></trkpt><trkpt lat="42.30305357886593" lon="13.245895001519553"><ele>1313.6666666666667</ele><time>2026-05-02T15:06:08.999Z</time></trkpt><trkpt lat="42.30300110811698" lon="13.246039633323912"><ele>1314.8333333333335</ele><time>2026-05-02T15:06:10.999Z</time></trkpt><trkpt lat="42.302992068211985" lon="13.246191890942379"><ele>1316.0</ele><time>2026-05-02T15:06:12.999Z</time></trkpt><trkpt lat="42.30292990363838" lon="13.24629189541092"><ele>1316.0</ele><time>2026-05-02T15:06:14.999Z</time></trkpt><trkpt lat="42.302852599174344" lon="13.246400100465761"><ele>1316.0</ele><time>2026-05-02T15:06:16.999Z</time></trkpt><trkpt lat="42.30280987361933" lon="13.246490739025836"><ele>1316.0</ele><time>2026-05-02T15:06:17.999Z</time></trkpt><trkpt lat="42.30277035974829" lon="13.24657907613327"><ele>1316.0</ele><time>2026-05-02T15:06:19Z</time></trkpt><trkpt lat="42.30273976561685" lon="13.246669941124576"><ele>1316.0</ele><time>2026-05-02T15:06:20Z</time></trkpt><trkpt lat="42.302710955463276" lon="13.246768474919131"><ele>1316.0</ele><time>2026-05-02T15:06:21Z</time></trkpt><trkpt lat="42.30267525107505" lon="13.246863986054308"><ele>1317.8</ele><time>2026-05-02T15:06:22Z</time></trkpt><trkpt lat="42.30262707210072" lon="13.246956120036804"><ele>1319.6</ele><time>2026-05-02T15:06:23Z</time></trkpt><trkpt lat="42.302572586382425" lon="13.247038460941477"><ele>1321.4</ele><time>2026-05-02T15:06:24Z</time></trkpt><trkpt lat="42.302517199805" lon="13.247111057986286"><ele>1323.2</ele><time>2026-05-02T15:06:25Z</time></trkpt><trkpt lat="42.30244785185962" lon="13.247237210873903"><ele>1325.0</ele><time>2026-05-02T15:06:27Z</time></trkpt><trkpt lat="42.302393636223314" lon="13.247386615823332"><ele>1328.2</ele><time>2026-05-02T15:06:29Z</time></trkpt><trkpt lat="42.30233768081644" lon="13.247477149442627"><ele>1331.4</ele><time>2026-05-02T15:06:30Z</time></trkpt><trkpt lat="42.30227629869223" lon="13.247580108095645"><ele>1334.6</ele><time>2026-05-02T15:06:31Z</time></trkpt><trkpt lat="42.30221724025059" lon="13.247663614872577"><ele>1337.8</ele><time>2026-05-02T15:06:32Z</time></trkpt><trkpt lat="42.30214901008965" lon="13.2477522219777"><ele>1341.0</ele><time>2026-05-02T15:06:33Z</time></trkpt><trkpt lat="42.30208780978415" lon="13.247841773771437"><ele>1342.0</ele><time>2026-05-02T15:06:34Z</time></trkpt><trkpt lat="42.30204310829389" lon="13.247922741765386"><ele>1343.0</ele><time>2026-05-02T15:06:35Z</time></trkpt><trkpt lat="42.30198053559431" lon="13.248054267058947"><ele>1344.0</ele><time>2026-05-02T15:06:37Z</time></trkpt><trkpt lat="42.3019056422381" lon="13.248180055916006"><ele>1345.0</ele><time>2026-05-02T15:06:39Z</time></trkpt><trkpt lat="42.301854542295644" lon="13.24824573402711"><ele>1346.0</ele><time>2026-05-02T15:06:40Z</time></trkpt><trkpt lat="42.30181105779749" lon="13.248309335975573"><ele>1347.0</ele><time>2026-05-02T15:06:41Z</time></trkpt><trkpt lat="42.30173885107307" lon="13.248436412583231"><ele>1347.8</ele><time>2026-05-02T15:06:43Z</time></trkpt><trkpt lat="42.301671474635086" lon="13.248542673182067"><ele>1348.6</ele><time>2026-05-02T15:06:45Z</time></trkpt><trkpt lat="42.30159168875819" lon="13.248629473262408"><ele>1349.3999999999999</ele><time>2026-05-02T15:06:47Z</time></trkpt><trkpt lat="42.30156691981063" lon="13.248723606501631"><ele>1350.1999999999998</ele><time>2026-05-02T15:06:49Z</time></trkpt><trkpt lat="42.3015549952328" lon="13.248886714322197"><ele>1351.0</ele><time>2026-05-02T15:06:51Z</time></trkpt><trkpt lat="42.30155406799563" lon="13.248994573899148"><ele>1352.4</ele><time>2026-05-02T15:06:53Z</time></trkpt><trkpt lat="42.30152486711904" lon="13.249081841881388"><ele>1353.8</ele><time>2026-05-02T15:06:55Z</time></trkpt><trkpt lat="42.30150519644747" lon="13.249241716184931"><ele>1355.2</ele><time>2026-05-02T15:06:57Z</time></trkpt><trkpt lat="42.30148473334777" lon="13.24938905931877"><ele>1356.6000000000001</ele><time>2026-05-02T15:06:58Z</time></trkpt><trkpt lat="42.301463344394946" lon="13.249576114787944"><ele>1358.0</ele><time>2026-05-02T15:06:59Z</time></trkpt><trkpt lat="42.3014230122784" lon="13.249766430615395"><ele>1358.0</ele><time>2026-05-02T15:07:00Z</time></trkpt><trkpt lat="42.30142266926028" lon="13.249962234476829"><ele>1358.0</ele><time>2026-05-02T15:07:01Z</time></trkpt><trkpt lat="42.301434898639926" lon="13.250136902373383"><ele>1358.0</ele><time>2026-05-02T15:07:02Z</time></trkpt><trkpt lat="42.30145811656381" lon="13.250314781030808"><ele>1358.0</ele><time>2026-05-02T15:07:03Z</time></trkpt><trkpt lat="42.30151081276045" lon="13.25048762769181"><ele>1354.25</ele><time>2026-05-02T15:07:04Z</time></trkpt><trkpt lat="42.30158082850997" lon="13.250654454652484"><ele>1350.5</ele><time>2026-05-02T15:07:05Z</time></trkpt><trkpt lat="42.301646379554604" lon="13.250822242888628"><ele>1346.75</ele><time>2026-05-02T15:07:06Z</time></trkpt><trkpt lat="42.30170859977677" lon="13.250978253017303"><ele>1343.0</ele><time>2026-05-02T15:07:07Z</time></trkpt><trkpt lat="42.301767232665334" lon="13.251122550190109"><ele>1343.0</ele><time>2026-05-02T15:07:08Z</time></trkpt><trkpt lat="42.30182422692232" lon="13.251259136497607"><ele>1343.0</ele><time>2026-05-02T15:07:09Z</time></trkpt><trkpt lat="42.301893155750484" lon="13.251395196278315"><ele>1343.0</ele><time>2026-05-02T15:07:10Z</time></trkpt><trkpt lat="42.30198464831542" lon="13.251527447558574"><ele>1343.0</ele><time>2026-05-02T15:07:11Z</time></trkpt><trkpt lat="42.30209131677318" lon="13.251647070975709"><ele>1343.25</ele><time>2026-05-02T15:07:12Z</time></trkpt><trkpt lat="42.30220718917806" lon="13.251750557854033"><ele>1343.5</ele><time>2026-05-02T15:07:13Z</time></trkpt><trkpt lat="42.302324949883804" lon="13.251836608702481"><ele>1343.75</ele><time>2026-05-02T15:07:14Z</time></trkpt><trkpt lat="42.30244730103519" lon="13.25188531739416"><ele>1344.0</ele><time>2026-05-02T15:07:15Z</time></trkpt><trkpt lat="42.3025791297202" lon="13.25189630715654"><ele>1344.0</ele><time>2026-05-02T15:07:16Z</time></trkpt><trkpt lat="42.302714520204056" lon="13.251848008007554"><ele>1344.0</ele><time>2026-05-02T15:07:17Z</time></trkpt><trkpt lat="42.302853714418106" lon="13.251843560674306"><ele>1344.0</ele><time>2026-05-02T15:07:18Z</time></trkpt><trkpt lat="42.30298500336336" lon="13.251832836943365"><ele>1344.0</ele><time>2026-05-02T15:07:19Z</time></trkpt><trkpt lat="42.30311427028618" lon="13.251836453729268"><ele>1345.5</ele><time>2026-05-02T15:07:20Z</time></trkpt><trkpt lat="42.30324653860089" lon="13.251848337278659"><ele>1347.0</ele><time>2026-05-02T15:07:21Z</time></trkpt><trkpt lat="42.30337058716034" lon="13.25183158779974"><ele>1348.5</ele><time>2026-05-02T15:07:22Z</time></trkpt><trkpt lat="42.30348536334079" lon="13.251862499739481"><ele>1350.0</ele><time>2026-05-02T15:07:23Z</time></trkpt><trkpt lat="42.30359102353034" lon="13.251887832758955"><ele>1350.0</ele><time>2026-05-02T15:07:24Z</time></trkpt><trkpt lat="42.303700352925325" lon="13.251905250748443"><ele>1350.0</ele><time>2026-05-02T15:07:25Z</time></trkpt><trkpt lat="42.303803502544454" lon="13.251965253019526"><ele>1350.0</ele><time>2026-05-02T15:07:26Z</time></trkpt><trkpt lat="42.30390115805902" lon="13.252038393858195"><ele>1350.0</ele><time>2026-05-02T15:07:27Z</time></trkpt><trkpt lat="42.30398359129809" lon="13.252132983135018"><ele>1350.0</ele><time>2026-05-02T15:07:28Z</time></trkpt><trkpt lat="42.30403733936121" lon="13.25226377858523"><ele>1347.25</ele><time>2026-05-02T15:07:29Z</time></trkpt><trkpt lat="42.30408711344467" lon="13.252412046472415"><ele>1344.5</ele><time>2026-05-02T15:07:30Z</time></trkpt><trkpt lat="42.304133353484076" lon="13.252581006255246"><ele>1341.75</ele><time>2026-05-02T15:07:31Z</time></trkpt><trkpt lat="42.30418879869914" lon="13.252765103843684"><ele>1339.0</ele><time>2026-05-02T15:07:32Z</time></trkpt><trkpt lat="42.30426675580964" lon="13.252949305966357"><ele>1331.0</ele><time>2026-05-02T15:07:33Z</time></trkpt><trkpt lat="42.30432075291305" lon="13.253157513144968"><ele>1323.0</ele><time>2026-05-02T15:07:34Z</time></trkpt><trkpt lat="42.304371321049075" lon="13.253366278575372"><ele>1315.0</ele><time>2026-05-02T15:07:35Z</time></trkpt><trkpt lat="42.304431263967686" lon="13.253561537807414"><ele>1315.0</ele><time>2026-05-02T15:07:36Z</time></trkpt><trkpt lat="42.30449662174973" lon="13.253744795024792"><ele>1315.0</ele><time>2026-05-02T15:07:37Z</time></trkpt><trkpt lat="42.304562407826616" lon="13.253920541352816"><ele>1315.0</ele><time>2026-05-02T15:07:38Z</time></trkpt><trkpt lat="42.30462447048572" lon="13.254087400850045"><ele>1315.0</ele><time>2026-05-02T15:07:39Z</time></trkpt><trkpt lat="42.304678560135436" lon="13.254230321398575"><ele>1317.6666666666665</ele><time>2026-05-02T15:07:40Z</time></trkpt><trkpt lat="42.3047245940224" lon="13.254347393607835"><ele>1320.3333333333333</ele><time>2026-05-02T15:07:41Z</time></trkpt><trkpt lat="42.304764901072296" lon="13.254449214371865"><ele>1323.0</ele><time>2026-05-02T15:07:42Z</time></trkpt><trkpt lat="42.304809170004134" lon="13.254541138066845"><ele>1325.6666666666667</ele><time>2026-05-02T15:07:43Z</time></trkpt><trkpt lat="42.30487383864894" lon="13.254609686349664"><ele>1328.3333333333335</ele><time>2026-05-02T15:07:44Z</time></trkpt><trkpt lat="42.30496984807732" lon="13.254617531440342"><ele>1331.0</ele><time>2026-05-02T15:07:45Z</time></trkpt><trkpt lat="42.30507389640555" lon="13.254605167581927"><ele>1331.0</ele><time>2026-05-02T15:07:45.999Z</time></trkpt><trkpt lat="42.30518242320207" lon="13.254565982477532"><ele>1331.0</ele><time>2026-05-02T15:07:46.999Z</time></trkpt><trkpt lat="42.30530116567061" lon="13.254508711051287"><ele>1331.0</ele><time>2026-05-02T15:07:47.999Z</time></trkpt><trkpt lat="42.305421677728084" lon="13.254427583933301"><ele>1331.0</ele><time>2026-05-02T15:07:48.999Z</time></trkpt><trkpt lat="42.30555575508152" lon="13.25438469915821"><ele>1329.0</ele><time>2026-05-02T15:07:49.999Z</time></trkpt><trkpt lat="42.305669467571775" lon="13.254279475670423"><ele>1327.0</ele><time>2026-05-02T15:07:50.999Z</time></trkpt><trkpt lat="42.30577818587933" lon="13.254193803707455"><ele>1325.0</ele><time>2026-05-02T15:07:51.999Z</time></trkpt><trkpt lat="42.30588625427949" lon="13.254130931415453"><ele>1323.0</ele><time>2026-05-02T15:07:52.999Z</time></trkpt><trkpt lat="42.30600032534785" lon="13.254117966863468"><ele>1323.0</ele><time>2026-05-02T15:07:53.999Z</time></trkpt><trkpt lat="42.30612568139869" lon="13.25410523104428"><ele>1323.0</ele><time>2026-05-02T15:07:54.999Z</time></trkpt><trkpt lat="42.306264925623225" lon="13.254081643164689"><ele>1323.0</ele><time>2026-05-02T15:07:55.999Z</time></trkpt><trkpt lat="42.30639909316447" lon="13.254020274551518"><ele>1323.0</ele><time>2026-05-02T15:07:56.999Z</time></trkpt><trkpt lat="42.30653574006096" lon="13.253974263816255"><ele>1331.25</ele><time>2026-05-02T15:07:57.999Z</time></trkpt><trkpt lat="42.306668643944256" lon="13.253945726555974"><ele>1339.5</ele><time>2026-05-02T15:07:58.999Z</time></trkpt><trkpt lat="42.30680108155002" lon="13.253926557265698"><ele>1347.75</ele><time>2026-05-02T15:07:59.999Z</time></trkpt><trkpt lat="42.30693364610964" lon="13.253914657787687"><ele>1356.0</ele><time>2026-05-02T15:08:00.999Z</time></trkpt><trkpt lat="42.30705896061919" lon="13.253859067763871"><ele>1356.0</ele><time>2026-05-02T15:08:01.999Z</time></trkpt><trkpt lat="42.30717616411448" lon="13.253807982689388"><ele>1356.0</ele><time>2026-05-02T15:08:02.999Z</time></trkpt><trkpt lat="42.307291536160555" lon="13.253771766220456"><ele>1356.0</ele><time>2026-05-02T15:08:03.999Z</time></trkpt><trkpt lat="42.30740756960754" lon="13.253737661444939"><ele>1356.0</ele><time>2026-05-02T15:08:04.999Z</time></trkpt><trkpt lat="42.30753484049669" lon="13.253710339603959"><ele>1351.0</ele><time>2026-05-02T15:08:05.999Z</time></trkpt><trkpt lat="42.30766334318053" lon="13.253738789844716"><ele>1346.0</ele><time>2026-05-02T15:08:06.999Z</time></trkpt><trkpt lat="42.3078019765501" lon="13.253732462305969"><ele>1341.0</ele><time>2026-05-02T15:08:07.999Z</time></trkpt><trkpt lat="42.30794481601653" lon="13.253749125700628"><ele>1336.0</ele><time>2026-05-02T15:08:08.999Z</time></trkpt><trkpt lat="42.30809137700237" lon="13.253754900203793"><ele>1332.6666666666665</ele><time>2026-05-02T15:08:09.999Z</time></trkpt><trkpt lat="42.308241096921805" lon="13.253762101153544"><ele>1329.3333333333333</ele><time>2026-05-02T15:08:10.999Z</time></trkpt><trkpt lat="42.30839274747113" lon="13.253777443212382"><ele>1326.0</ele><time>2026-05-02T15:08:11.999Z</time></trkpt><trkpt lat="42.308537345212244" lon="13.253833018345345"><ele>1326.0</ele><time>2026-05-02T15:08:12.999Z</time></trkpt><trkpt lat="42.308684473712866" lon="13.253866399318783"><ele>1326.0</ele><time>2026-05-02T15:08:13.999Z</time></trkpt><trkpt lat="42.30882067614431" lon="13.253932087624356"><ele>1326.0</ele><time>2026-05-02T15:08:14.999Z</time></trkpt><trkpt lat="42.30895119960403" lon="13.253980869293596"><ele>1326.0</ele><time>2026-05-02T15:08:15.999Z</time></trkpt><trkpt lat="42.30906778680344" lon="13.254027645547886"><ele>1325.4</ele><time>2026-05-02T15:08:16.999Z</time></trkpt><trkpt lat="42.30917618432807" lon="13.254057994998004"><ele>1324.8</ele><time>2026-05-02T15:08:17.999Z</time></trkpt><trkpt lat="42.30927741318763" lon="13.254053184730688"><ele>1324.2</ele><time>2026-05-02T15:08:18.999Z</time></trkpt><trkpt lat="42.30938329745805" lon="13.254005480354147"><ele>1323.6000000000001</ele><time>2026-05-02T15:08:19.999Z</time></trkpt><trkpt lat="42.30948883266187" lon="13.253922743492527"><ele>1323.0</ele><time>2026-05-02T15:08:20.999Z</time></trkpt><trkpt lat="42.30959692485426" lon="13.2538284203226"><ele>1323.0</ele><time>2026-05-02T15:08:21.999Z</time></trkpt><trkpt lat="42.309716424172855" lon="13.25373236753404"><ele>1323.0</ele><time>2026-05-02T15:08:22.999Z</time></trkpt><trkpt lat="42.309841304746584" lon="13.25364099676704"><ele>1323.0</ele><time>2026-05-02T15:08:24Z</time></trkpt><trkpt lat="42.30996529199252" lon="13.25354937848304"><ele>1323.0</ele><time>2026-05-02T15:08:25Z</time></trkpt><trkpt lat="42.31007899917787" lon="13.253464681467555"><ele>1325.4</ele><time>2026-05-02T15:08:26Z</time></trkpt><trkpt lat="42.31018410431447" lon="13.25338272838292"><ele>1327.8000000000002</ele><time>2026-05-02T15:08:27Z</time></trkpt><trkpt lat="42.31028237515374" lon="13.253302612947227"><ele>1330.2</ele><time>2026-05-02T15:08:28Z</time></trkpt><trkpt lat="42.31037576306989" lon="13.25322906499368"><ele>1332.6</ele><time>2026-05-02T15:08:29Z</time></trkpt><trkpt lat="42.31046356335694" lon="13.253162685642103"><ele>1335.0</ele><time>2026-05-02T15:08:30Z</time></trkpt><trkpt lat="42.31055488235122" lon="13.253102628127522"><ele>1330.0</ele><time>2026-05-02T15:08:31Z</time></trkpt><trkpt lat="42.310657137872994" lon="13.253037144247156"><ele>1325.0</ele><time>2026-05-02T15:08:32Z</time></trkpt><trkpt lat="42.31076748361119" lon="13.252976211945413"><ele>1320.0</ele><time>2026-05-02T15:08:33Z</time></trkpt><trkpt lat="42.310886071994766" lon="13.252933969093466"><ele>1315.0</ele><time>2026-05-02T15:08:34Z</time></trkpt><trkpt lat="42.311010343926384" lon="13.252919747001348"><ele>1315.0</ele><time>2026-05-02T15:08:35Z</time></trkpt><trkpt lat="42.31114089422912" lon="13.252918216211379"><ele>1315.0</ele><time>2026-05-02T15:08:36Z</time></trkpt><trkpt lat="42.31127402198686" lon="13.252909558128307"><ele>1315.0</ele><time>2026-05-02T15:08:37Z</time></trkpt><trkpt lat="42.31140780095474" lon="13.252880864040014"><ele>1315.0</ele><time>2026-05-02T15:08:38Z</time></trkpt><trkpt lat="42.31153833858755" lon="13.252836383349724"><ele>1312.5</ele><time>2026-05-02T15:08:39Z</time></trkpt><trkpt lat="42.311666512790495" lon="13.252803876302202"><ele>1310.0</ele><time>2026-05-02T15:08:40Z</time></trkpt><trkpt lat="42.311792081783054" lon="13.252794953814979"><ele>1307.5</ele><time>2026-05-02T15:08:41Z</time></trkpt><trkpt lat="42.311914701550954" lon="13.252803904529737"><ele>1305.0</ele><time>2026-05-02T15:08:42Z</time></trkpt><trkpt lat="42.31201898404691" lon="13.252866695832429"><ele>1305.0</ele><time>2026-05-02T15:08:43Z</time></trkpt><trkpt lat="42.31211589610765" lon="13.252906037396038"><ele>1305.0</ele><time>2026-05-02T15:08:44Z</time></trkpt><trkpt lat="42.31220240796855" lon="13.252936567306735"><ele>1305.0</ele><time>2026-05-02T15:08:45Z</time></trkpt><trkpt lat="42.31229094715667" lon="13.252929545093163"><ele>1305.0</ele><time>2026-05-02T15:08:46Z</time></trkpt><trkpt lat="42.31237211602006" lon="13.252850078718964"><ele>1305.0</ele><time>2026-05-02T15:08:47Z</time></trkpt><trkpt lat="42.31245389056592" lon="13.25275594876548"><ele>1302.0</ele><time>2026-05-02T15:08:48Z</time></trkpt><trkpt lat="42.312542872552584" lon="13.252660528186842"><ele>1299.0</ele><time>2026-05-02T15:08:49Z</time></trkpt><trkpt lat="42.312637212364294" lon="13.252590389372665"><ele>1296.0</ele><time>2026-05-02T15:08:50Z</time></trkpt><trkpt lat="42.312726599855864" lon="13.252539318365038"><ele>1293.0</ele><time>2026-05-02T15:08:51Z</time></trkpt><trkpt lat="42.31280354685161" lon="13.252473732321528"><ele>1290.0</ele><time>2026-05-02T15:08:52Z</time></trkpt><trkpt lat="42.31286355315639" lon="13.252362156618966"><ele>1288.8</ele><time>2026-05-02T15:08:53Z</time></trkpt><trkpt lat="42.31290520223854" lon="13.252214505021364"><ele>1287.6</ele><time>2026-05-02T15:08:54Z</time></trkpt><trkpt lat="42.3129531723728" lon="13.252070616229146"><ele>1286.4</ele><time>2026-05-02T15:08:55Z</time></trkpt><trkpt lat="42.31301873089373" lon="13.25195256121139"><ele>1285.2</ele><time>2026-05-02T15:08:56Z</time></trkpt><trkpt lat="42.31310983070405" lon="13.251887874793661"><ele>1284.0</ele><time>2026-05-02T15:08:57Z</time></trkpt><trkpt lat="42.3132045488712" lon="13.251842461291275"><ele>1284.0</ele><time>2026-05-02T15:08:58Z</time></trkpt><trkpt lat="42.31331151251499" lon="13.251784431747138"><ele>1284.0</ele><time>2026-05-02T15:08:59Z</time></trkpt><trkpt lat="42.313416733387214" lon="13.251737320625672"><ele>1284.0</ele><time>2026-05-02T15:09:00Z</time></trkpt><trkpt lat="42.313510915111124" lon="13.251672533972862"><ele>1284.0</ele><time>2026-05-02T15:09:01Z</time></trkpt><trkpt lat="42.313569320630215" lon="13.251530548485754"><ele>1286.4</ele><time>2026-05-02T15:09:02Z</time></trkpt><trkpt lat="42.313632210938415" lon="13.25140798706254"><ele>1288.8000000000002</ele><time>2026-05-02T15:09:03Z</time></trkpt><trkpt lat="42.31371470962262" lon="13.251332392003265"><ele>1291.1999999999998</ele><time>2026-05-02T15:09:04Z</time></trkpt><trkpt lat="42.31382042985351" lon="13.251326391910501"><ele>1293.6</ele><time>2026-05-02T15:09:05Z</time></trkpt><trkpt lat="42.313929224261166" lon="13.251288106694266"><ele>1296.0</ele><time>2026-05-02T15:09:06Z</time></trkpt><trkpt lat="42.31404586493132" lon="13.25126010036813"><ele>1296.0</ele><time>2026-05-02T15:09:07Z</time></trkpt><trkpt lat="42.31416177726084" lon="13.251191398828325"><ele>1296.0</ele><time>2026-05-02T15:09:08Z</time></trkpt><trkpt lat="42.31427098548321" lon="13.2511221120658"><ele>1296.0</ele><time>2026-05-02T15:09:09Z</time></trkpt><trkpt lat="42.31437219972441" lon="13.251083790219386"><ele>1296.0</ele><time>2026-05-02T15:09:10Z</time></trkpt><trkpt lat="42.314464179467805" lon="13.251075839554327"><ele>1296.0</ele><time>2026-05-02T15:09:11Z</time></trkpt><trkpt lat="42.31454813367318" lon="13.251111586841485"><ele>1296.0</ele><time>2026-05-02T15:09:12Z</time></trkpt><trkpt lat="42.314628142397844" lon="13.251190274087492"><ele>1296.0</ele><time>2026-05-02T15:09:13Z</time></trkpt><trkpt lat="42.31471549971944" lon="13.251286264082589"><ele>1296.0</ele><time>2026-05-02T15:09:14Z</time></trkpt><trkpt lat="42.31481622236581" lon="13.251385562299026"><ele>1296.0</ele><time>2026-05-02T15:09:15Z</time></trkpt><trkpt lat="42.31492515483505" lon="13.251494918306257"><ele>1290.25</ele><time>2026-05-02T15:09:16Z</time></trkpt><trkpt lat="42.3150293452242" lon="13.251609644130932"><ele>1284.5</ele><time>2026-05-02T15:09:17Z</time></trkpt><trkpt lat="42.31512617960646" lon="13.251720979307736"><ele>1278.75</ele><time>2026-05-02T15:09:18Z</time></trkpt><trkpt lat="42.31519928564765" lon="13.251847521206932"><ele>1273.0</ele><time>2026-05-02T15:09:19Z</time></trkpt><trkpt lat="42.3152829697496" lon="13.251942339644843"><ele>1273.0</ele><time>2026-05-02T15:09:20Z</time></trkpt><trkpt lat="42.31534317492422" lon="13.252046871867414"><ele>1273.0</ele><time>2026-05-02T15:09:21Z</time></trkpt><trkpt lat="42.315400744312306" lon="13.252145977283591"><ele>1273.0</ele><time>2026-05-02T15:09:22Z</time></trkpt><trkpt lat="42.315494718207894" lon="13.252205253103485"><ele>1273.0</ele><time>2026-05-02T15:09:23Z</time></trkpt><trkpt lat="42.31560666449073" lon="13.252231690721047"><ele>1273.0</ele><time>2026-05-02T15:09:24Z</time></trkpt><trkpt lat="42.315728101971224" lon="13.252231435167529"><ele>1278.5</ele><time>2026-05-02T15:09:25Z</time></trkpt><trkpt lat="42.31585175546229" lon="13.252186936072961"><ele>1284.0</ele><time>2026-05-02T15:09:26Z</time></trkpt><trkpt lat="42.31597543761979" lon="13.252151822485226"><ele>1289.5</ele><time>2026-05-02T15:09:27Z</time></trkpt><trkpt lat="42.31609193276728" lon="13.252109078031934"><ele>1295.0</ele><time>2026-05-02T15:09:28Z</time></trkpt><trkpt lat="42.31619891569007" lon="13.252066854005378"><ele>1295.0</ele><time>2026-05-02T15:09:29Z</time></trkpt><trkpt lat="42.316295506824844" lon="13.252032125563064"><ele>1295.0</ele><time>2026-05-02T15:09:30Z</time></trkpt><trkpt lat="42.31637658513322" lon="13.252002478972004"><ele>1295.0</ele><time>2026-05-02T15:09:31Z</time></trkpt><trkpt lat="42.31644980910803" lon="13.25199380262355"><ele>1295.0</ele><time>2026-05-02T15:09:32Z</time></trkpt><trkpt lat="42.316515780890754" lon="13.252014709121479"><ele>1295.0</ele><time>2026-05-02T15:09:33Z</time></trkpt><trkpt lat="42.316622518182385" lon="13.252121502241714"><ele>1294.3333333333335</ele><time>2026-05-02T15:09:35Z</time></trkpt><trkpt lat="42.31663644940886" lon="13.252223074067976"><ele>1293.6666666666667</ele><time>2026-05-02T15:09:36Z</time></trkpt><trkpt lat="42.31665717674174" lon="13.252314144183805"><ele>1293.0</ele><time>2026-05-02T15:09:37Z</time></trkpt><trkpt lat="42.316641594314724" lon="13.252420350189917"><ele>1292.3333333333333</ele><time>2026-05-02T15:09:38Z</time></trkpt><trkpt lat="42.316606592617255" lon="13.25251868601233"><ele>1291.6666666666665</ele><time>2026-05-02T15:09:39Z</time></trkpt><trkpt lat="42.31654046589314" lon="13.252590855227739"><ele>1291.0</ele><time>2026-05-02T15:09:40Z</time></trkpt><trkpt lat="42.31649572576053" lon="13.252684615524826"><ele>1288.5714285714284</ele><time>2026-05-02T15:09:41Z</time></trkpt><trkpt lat="42.316447565012496" lon="13.252765992266813"><ele>1286.142857142857</ele><time>2026-05-02T15:09:42Z</time></trkpt><trkpt lat="42.31641478195917" lon="13.25285044551717"><ele>1283.7142857142858</ele><time>2026-05-02T15:09:43Z</time></trkpt><trkpt lat="42.31640314577843" lon="13.25293759964647"><ele>1281.2857142857142</ele><time>2026-05-02T15:09:44Z</time></trkpt><trkpt lat="42.31642495216522" lon="13.253017760226632"><ele>1278.857142857143</ele><time>2026-05-02T15:09:45Z</time></trkpt><trkpt lat="42.3164655250684" lon="13.253092277661692"><ele>1276.4285714285713</ele><time>2026-05-02T15:09:46Z</time></trkpt><trkpt lat="42.316547215024904" lon="13.25311709671187"><ele>1274.0</ele><time>2026-05-02T15:09:47Z</time></trkpt><trkpt lat="42.316634758069576" lon="13.253072898471109"><ele>1274.0</ele><time>2026-05-02T15:09:48Z</time></trkpt><trkpt lat="42.31672590111742" lon="13.253037420710951"><ele>1274.0</ele><time>2026-05-02T15:09:49Z</time></trkpt><trkpt lat="42.316827501609374" lon="13.252999667817463"><ele>1274.0</ele><time>2026-05-02T15:09:50Z</time></trkpt><trkpt lat="42.31694138458921" lon="13.252961473956285"><ele>1274.0</ele><time>2026-05-02T15:09:51Z</time></trkpt><trkpt lat="42.31706579197387" lon="13.252914289269128"><ele>1274.0</ele><time>2026-05-02T15:09:52Z</time></trkpt><trkpt lat="42.3171998472904" lon="13.252859057723182"><ele>1274.5</ele><time>2026-05-02T15:09:53Z</time></trkpt><trkpt lat="42.31734116570953" lon="13.252802922629098"><ele>1275.0</ele><time>2026-05-02T15:09:54Z</time></trkpt><trkpt lat="42.31748615575387" lon="13.252745782508615"><ele>1275.5</ele><time>2026-05-02T15:09:55Z</time></trkpt><trkpt lat="42.317629979411045" lon="13.252700008669288"><ele>1276.0</ele><time>2026-05-02T15:09:56Z</time></trkpt><trkpt lat="42.31777265655859" lon="13.252652106307163"><ele>1276.0</ele><time>2026-05-02T15:09:57Z</time></trkpt><trkpt lat="42.3179166787935" lon="13.252607252315375"><ele>1276.0</ele><time>2026-05-02T15:09:58Z</time></trkpt><trkpt lat="42.31806358703108" lon="13.252602476903569"><ele>1276.0</ele><time>2026-05-02T15:09:59Z</time></trkpt><trkpt lat="42.318207466820084" lon="13.252585522976554"><ele>1276.0</ele><time>2026-05-02T15:10:00Z</time></trkpt><trkpt lat="42.31835303360372" lon="13.252575226885693"><ele>1274.5</ele><time>2026-05-02T15:10:01Z</time></trkpt><trkpt lat="42.31849823048075" lon="13.252544627654414"><ele>1273.0</ele><time>2026-05-02T15:10:02Z</time></trkpt><trkpt lat="42.31864461433541" lon="13.252530910547415"><ele>1271.5</ele><time>2026-05-02T15:10:03Z</time></trkpt><trkpt lat="42.31878904515322" lon="13.252504860179277"><ele>1270.0</ele><time>2026-05-02T15:10:04Z</time></trkpt><trkpt lat="42.318935088228706" lon="13.252496945591025"><ele>1268.75</ele><time>2026-05-02T15:10:04.999Z</time></trkpt><trkpt lat="42.319078925272336" lon="13.252459473429154"><ele>1267.5</ele><time>2026-05-02T15:10:05.999Z</time></trkpt><trkpt lat="42.31921445063287" lon="13.252405174829146"><ele>1266.25</ele><time>2026-05-02T15:10:06.999Z</time></trkpt><trkpt lat="42.31934961019326" lon="13.252379151155775"><ele>1265.0</ele><time>2026-05-02T15:10:07.999Z</time></trkpt><trkpt lat="42.31947494337984" lon="13.252359572471525"><ele>1265.0</ele><time>2026-05-02T15:10:08.999Z</time></trkpt><trkpt lat="42.31959056244501" lon="13.252340613072343"><ele>1265.0</ele><time>2026-05-02T15:10:09.999Z</time></trkpt><trkpt lat="42.31969742674733" lon="13.252310816538186"><ele>1265.0</ele><time>2026-05-02T15:10:10.999Z</time></trkpt><trkpt lat="42.31979050806884" lon="13.252247870720948"><ele>1265.0</ele><time>2026-05-02T15:10:11.999Z</time></trkpt><trkpt lat="42.31987051767417" lon="13.252139608531614"><ele>1265.0</ele><time>2026-05-02T15:10:12.999Z</time></trkpt><trkpt lat="42.31995016555708" lon="13.252022435150579"><ele>1269.0</ele><time>2026-05-02T15:10:13.999Z</time></trkpt><trkpt lat="42.32002706428186" lon="13.251895340756892"><ele>1273.0</ele><time>2026-05-02T15:10:14.999Z</time></trkpt><trkpt lat="42.32010050461912" lon="13.25175995150788"><ele>1277.0</ele><time>2026-05-02T15:10:15.999Z</time></trkpt><trkpt lat="42.32018418376106" lon="13.25163020868089"><ele>1281.0</ele><time>2026-05-02T15:10:16.999Z</time></trkpt><trkpt lat="42.32024950694418" lon="13.251478805762272"><ele>1284.0</ele><time>2026-05-02T15:10:17.999Z</time></trkpt><trkpt lat="42.32030191728733" lon="13.251314577946484"><ele>1287.0</ele><time>2026-05-02T15:10:18.999Z</time></trkpt><trkpt lat="42.32037703273835" lon="13.251180750039302"><ele>1290.0</ele><time>2026-05-02T15:10:19.999Z</time></trkpt><trkpt lat="42.320424138011866" lon="13.251039900483827"><ele>1293.0</ele><time>2026-05-02T15:10:20.999Z</time></trkpt><trkpt lat="42.32048229005572" lon="13.250915175533223"><ele>1293.0</ele><time>2026-05-02T15:10:21.999Z</time></trkpt><trkpt lat="42.32048119217394" lon="13.250769529629949"><ele>1293.0</ele><time>2026-05-02T15:10:22.999Z</time></trkpt><trkpt lat="42.320495415406164" lon="13.250641449145983"><ele>1293.0</ele><time>2026-05-02T15:10:23.999Z</time></trkpt><trkpt lat="42.32052571628057" lon="13.250540098759595"><ele>1293.0</ele><time>2026-05-02T15:10:24.999Z</time></trkpt><trkpt lat="42.32057452387502" lon="13.250462324926719"><ele>1293.0</ele><time>2026-05-02T15:10:25.999Z</time></trkpt><trkpt lat="42.32064662378426" lon="13.250401828585447"><ele>1293.0</ele><time>2026-05-02T15:10:26.999Z</time></trkpt><trkpt lat="42.32073500077325" lon="13.25035962551673"><ele>1289.2</ele><time>2026-05-02T15:10:27.999Z</time></trkpt><trkpt lat="42.320839016351314" lon="13.25034283554242"><ele>1285.4</ele><time>2026-05-02T15:10:28.999Z</time></trkpt><trkpt lat="42.32094501521931" lon="13.250381412857184"><ele>1281.6000000000001</ele><time>2026-05-02T15:10:30Z</time></trkpt><trkpt lat="42.321053346529375" lon="13.250417573712825"><ele>1277.8000000000002</ele><time>2026-05-02T15:10:31Z</time></trkpt><trkpt lat="42.32116073593642" lon="13.250482997462498"><ele>1274.0</ele><time>2026-05-02T15:10:32Z</time></trkpt><trkpt lat="42.321279181360396" lon="13.25054967322232"><ele>1269.0</ele><time>2026-05-02T15:10:33Z</time></trkpt><trkpt lat="42.3214086209999" lon="13.250600587798397"><ele>1264.0</ele><time>2026-05-02T15:10:34Z</time></trkpt><trkpt lat="42.32152536880549" lon="13.25068514396545"><ele>1259.0</ele><time>2026-05-02T15:10:35Z</time></trkpt><trkpt lat="42.32165055393508" lon="13.250734395432058"><ele>1254.0</ele><time>2026-05-02T15:10:36Z</time></trkpt><trkpt lat="42.321760990165984" lon="13.250811627851364"><ele>1253.0</ele><time>2026-05-02T15:10:37Z</time></trkpt><trkpt lat="42.32186285774863" lon="13.250880657822925"><ele>1252.0</ele><time>2026-05-02T15:10:38Z</time></trkpt><trkpt lat="42.32194699027611" lon="13.250956392166778"><ele>1251.0</ele><time>2026-05-02T15:10:39Z</time></trkpt><trkpt lat="42.32200600158384" lon="13.251021802523303"><ele>1250.0</ele><time>2026-05-02T15:10:40Z</time></trkpt><trkpt lat="42.32205015947437" lon="13.251164469518868"><ele>1249.0</ele><time>2026-05-02T15:10:42Z</time></trkpt><trkpt lat="42.32200084966166" lon="13.251287155442325"><ele>1249.0</ele><time>2026-05-02T15:10:44Z</time></trkpt><trkpt lat="42.32193733107304" lon="13.25130894688629"><ele>1249.0</ele><time>2026-05-02T15:10:45Z</time></trkpt><trkpt lat="42.32185473604552" lon="13.251302787643366"><ele>1249.0</ele><time>2026-05-02T15:10:46Z</time></trkpt><trkpt lat="42.32175877616427" lon="13.25128424555865"><ele>1249.0</ele><time>2026-05-02T15:10:47Z</time></trkpt><trkpt lat="42.32165690932407" lon="13.251262674553494"><ele>1249.0</ele><time>2026-05-02T15:10:48Z</time></trkpt><trkpt lat="42.32156135733028" lon="13.25121697300239"><ele>1249.0</ele><time>2026-05-02T15:10:49Z</time></trkpt><trkpt lat="42.321479527209554" lon="13.251123749712928"><ele>1249.0</ele><time>2026-05-02T15:10:50Z</time></trkpt><trkpt lat="42.321402638170376" lon="13.250996578884227"><ele>1249.0</ele><time>2026-05-02T15:10:51Z</time></trkpt><trkpt lat="42.32132307096992" lon="13.25087193748353"><ele>1249.0</ele><time>2026-05-02T15:10:52Z</time></trkpt><trkpt lat="42.321239354195626" lon="13.250775439155952"><ele>1249.3333333333333</ele><time>2026-05-02T15:10:53Z</time></trkpt><trkpt lat="42.32115451999563" lon="13.250697923360175"><ele>1249.6666666666665</ele><time>2026-05-02T15:10:54Z</time></trkpt><trkpt lat="42.32106717123725" lon="13.250643640124132"><ele>1250.0</ele><time>2026-05-02T15:10:55Z</time></trkpt><trkpt lat="42.32098055433646" lon="13.250614592674857"><ele>1250.3333333333333</ele><time>2026-05-02T15:10:56Z</time></trkpt><trkpt lat="42.32090270452354" lon="13.250599252808213"><ele>1250.6666666666667</ele><time>2026-05-02T15:10:57Z</time></trkpt><trkpt lat="42.320839233450684" lon="13.250630767781617"><ele>1251.0</ele><time>2026-05-02T15:10:58Z</time></trkpt><trkpt lat="42.320779995212945" lon="13.250738725468345"><ele>1251.0</ele><time>2026-05-02T15:11:00Z</time></trkpt><trkpt lat="42.32073178647485" lon="13.250901600394133"><ele>1251.0</ele><time>2026-05-02T15:11:02Z</time></trkpt><trkpt lat="42.32068734116414" lon="13.25101015763118"><ele>1251.0</ele><time>2026-05-02T15:11:03Z</time></trkpt><trkpt lat="42.32063819960423" lon="13.251127115450167"><ele>1251.0</ele><time>2026-05-02T15:11:04Z</time></trkpt><trkpt lat="42.32057374066138" lon="13.251256170985618"><ele>1251.0</ele><time>2026-05-02T15:11:05Z</time></trkpt><trkpt lat="42.320520019003375" lon="13.251416709742642"><ele>1258.5</ele><time>2026-05-02T15:11:06Z</time></trkpt><trkpt lat="42.32044662131426" lon="13.251576437589266"><ele>1266.0</ele><time>2026-05-02T15:11:07Z</time></trkpt><trkpt lat="42.3203986104243" lon="13.251748217806403"><ele>1273.5</ele><time>2026-05-02T15:11:08Z</time></trkpt><trkpt lat="42.32033718957972" lon="13.251900903432517"><ele>1281.0</ele><time>2026-05-02T15:11:09Z</time></trkpt><trkpt lat="42.32027534178204" lon="13.252054747815047"><ele>1281.0</ele><time>2026-05-02T15:11:10Z</time></trkpt><trkpt lat="42.32019704210083" lon="13.252195620396964"><ele>1281.0</ele><time>2026-05-02T15:11:11Z</time></trkpt><trkpt lat="42.320136824889474" lon="13.252340413428856"><ele>1281.0</ele><time>2026-05-02T15:11:12Z</time></trkpt><trkpt lat="42.32006925860329" lon="13.25247240742653"><ele>1281.0</ele><time>2026-05-02T15:11:13Z</time></trkpt><trkpt lat="42.32003251866396" lon="13.252615766654904"><ele>1277.0</ele><time>2026-05-02T15:11:14Z</time></trkpt><trkpt lat="42.31996321536323" lon="13.25272654486392"><ele>1273.0</ele><time>2026-05-02T15:11:15Z</time></trkpt><trkpt lat="42.31986763082935" lon="13.252811283345455"><ele>1269.0</ele><time>2026-05-02T15:11:16Z</time></trkpt><trkpt lat="42.31975527914132" lon="13.252878079048823"><ele>1265.0</ele><time>2026-05-02T15:11:17Z</time></trkpt><trkpt lat="42.319629557072176" lon="13.25292291156846"><ele>1265.0</ele><time>2026-05-02T15:11:18Z</time></trkpt><trkpt lat="42.31949559938324" lon="13.25296023358633"><ele>1265.0</ele><time>2026-05-02T15:11:19Z</time></trkpt><trkpt lat="42.3193562282025" lon="13.25300492156242"><ele>1265.0</ele><time>2026-05-02T15:11:20Z</time></trkpt><trkpt lat="42.31922303290329" lon="13.253051002110006"><ele>1265.0</ele><time>2026-05-02T15:11:21Z</time></trkpt><trkpt lat="42.3190948184085" lon="13.253099573080572"><ele>1257.25</ele><time>2026-05-02T15:11:22Z</time></trkpt><trkpt lat="42.31897129726481" lon="13.25315623917081"><ele>1249.5</ele><time>2026-05-02T15:11:23Z</time></trkpt><trkpt lat="42.31885021093682" lon="13.253216577212239"><ele>1241.75</ele><time>2026-05-02T15:11:24Z</time></trkpt><trkpt lat="42.31871397100785" lon="13.253255786397256"><ele>1234.0</ele><time>2026-05-02T15:11:25Z</time></trkpt><trkpt lat="42.31856517561359" lon="13.253261095589803"><ele>1234.0</ele><time>2026-05-02T15:11:26Z</time></trkpt><trkpt lat="42.31841369272251" lon="13.253267635905036"><ele>1234.0</ele><time>2026-05-02T15:11:27Z</time></trkpt><trkpt lat="42.31826168980576" lon="13.253316263161418"><ele>1234.0</ele><time>2026-05-02T15:11:28Z</time></trkpt><trkpt lat="42.31810703992735" lon="13.25339319213114"><ele>1236.6666666666665</ele><time>2026-05-02T15:11:29Z</time></trkpt><trkpt lat="42.31795129553467" lon="13.253467354369294"><ele>1239.3333333333333</ele><time>2026-05-02T15:11:30Z</time></trkpt><trkpt lat="42.31779352951812" lon="13.25352489593276"><ele>1242.0</ele><time>2026-05-02T15:11:31Z</time></trkpt><trkpt lat="42.31764051239687" lon="13.253571355087582"><ele>1242.0</ele><time>2026-05-02T15:11:32Z</time></trkpt><trkpt lat="42.31749478177668" lon="13.253613662327716"><ele>1242.0</ele><time>2026-05-02T15:11:33Z</time></trkpt><trkpt lat="42.31735648694222" lon="13.253664562399184"><ele>1242.0</ele><time>2026-05-02T15:11:34Z</time></trkpt><trkpt lat="42.31722556594674" lon="13.253727069546457"><ele>1242.0</ele><time>2026-05-02T15:11:35Z</time></trkpt><trkpt lat="42.317102664894186" lon="13.253794057914568"><ele>1244.5</ele><time>2026-05-02T15:11:36Z</time></trkpt><trkpt lat="42.31698512242827" lon="13.253858264403755"><ele>1247.0</ele><time>2026-05-02T15:11:37Z</time></trkpt><trkpt lat="42.316870214942824" lon="13.253924359629377"><ele>1249.5</ele><time>2026-05-02T15:11:38Z</time></trkpt><trkpt lat="42.3167618416175" lon="13.253985806266689"><ele>1252.0</ele><time>2026-05-02T15:11:39Z</time></trkpt><trkpt lat="42.31665568975229" lon="13.25404642584798"><ele>1243.6</ele><time>2026-05-02T15:11:40Z</time></trkpt><trkpt lat="42.31655192052265" lon="13.25409856151966"><ele>1235.2</ele><time>2026-05-02T15:11:41Z</time></trkpt><trkpt lat="42.31644915589802" lon="13.254146676632251"><ele>1226.8</ele><time>2026-05-02T15:11:42Z</time></trkpt><trkpt lat="42.316347427816744" lon="13.254177611070054"><ele>1218.4</ele><time>2026-05-02T15:11:43Z</time></trkpt><trkpt lat="42.316245476042326" lon="13.254176387936756"><ele>1210.0</ele><time>2026-05-02T15:11:44Z</time></trkpt><trkpt lat="42.316149911924555" lon="13.254133299467945"><ele>1208.75</ele><time>2026-05-02T15:11:45Z</time></trkpt><trkpt lat="42.31605693260466" lon="13.254061830410794"><ele>1207.5</ele><time>2026-05-02T15:11:46Z</time></trkpt><trkpt lat="42.31596039929043" lon="13.253988880823343"><ele>1206.25</ele><time>2026-05-02T15:11:47Z</time></trkpt><trkpt lat="42.31585313719235" lon="13.253930334614266"><ele>1205.0</ele><time>2026-05-02T15:11:48Z</time></trkpt><trkpt lat="42.31573832904647" lon="13.253884521863721"><ele>1205.6</ele><time>2026-05-02T15:11:49Z</time></trkpt><trkpt lat="42.315629485010604" lon="13.253851716120302"><ele>1206.2</ele><time>2026-05-02T15:11:50Z</time></trkpt><trkpt lat="42.31552972339014" lon="13.253817808516489"><ele>1206.8</ele><time>2026-05-02T15:11:51Z</time></trkpt><trkpt lat="42.31544038874951" lon="13.253760857364952"><ele>1207.4</ele><time>2026-05-02T15:11:52Z</time></trkpt><trkpt lat="42.31537001662654" lon="13.253658158820008"><ele>1208.0</ele><time>2026-05-02T15:11:53Z</time></trkpt><trkpt lat="42.31532733144237" lon="13.2535176512349"><ele>1208.0</ele><time>2026-05-02T15:11:54Z</time></trkpt><trkpt lat="42.315270169635205" lon="13.253390211110483"><ele>1208.0</ele><time>2026-05-02T15:11:55Z</time></trkpt><trkpt lat="42.31518553336113" lon="13.253314737963828"><ele>1208.0</ele><time>2026-05-02T15:11:56Z</time></trkpt><trkpt lat="42.31507829052939" lon="13.253277470425148"><ele>1208.0</ele><time>2026-05-02T15:11:57Z</time></trkpt><trkpt lat="42.3149627277243" lon="13.253245189444872"><ele>1208.0</ele><time>2026-05-02T15:11:58Z</time></trkpt><trkpt lat="42.31485319658754" lon="13.253178992520128"><ele>1212.4</ele><time>2026-05-02T15:11:59Z</time></trkpt><trkpt lat="42.314759618533344" lon="13.253086235966398"><ele>1216.8</ele><time>2026-05-02T15:12:00Z</time></trkpt><trkpt lat="42.3146933623331" lon="13.253003739466457"><ele>1221.2</ele><time>2026-05-02T15:12:01Z</time></trkpt><trkpt lat="42.314633265551436" lon="13.252945636938616"><ele>1225.6</ele><time>2026-05-02T15:12:02Z</time></trkpt><trkpt lat="42.314552253031025" lon="13.252921629336791"><ele>1230.0</ele><time>2026-05-02T15:12:03Z</time></trkpt><trkpt lat="42.31445590773003" lon="13.252944654278199"><ele>1230.0</ele><time>2026-05-02T15:12:04Z</time></trkpt><trkpt lat="42.31435664763837" lon="13.252996272262452"><ele>1230.0</ele><time>2026-05-02T15:12:05Z</time></trkpt><trkpt lat="42.3142534467104" lon="13.25304405635637"><ele>1230.0</ele><time>2026-05-02T15:12:06Z</time></trkpt><trkpt lat="42.31416330110694" lon="13.25310077401139"><ele>1230.0</ele><time>2026-05-02T15:12:07Z</time></trkpt><trkpt lat="42.31408703669589" lon="13.253165221153562"><ele>1230.0</ele><time>2026-05-02T15:12:08Z</time></trkpt><trkpt lat="42.31402327703321" lon="13.253236283531349"><ele>1232.8</ele><time>2026-05-02T15:12:09Z</time></trkpt><trkpt lat="42.31397569846483" lon="13.253319653742809"><ele>1235.6</ele><time>2026-05-02T15:12:10Z</time></trkpt><trkpt lat="42.31393885650864" lon="13.253417928791517"><ele>1238.4</ele><time>2026-05-02T15:12:11Z</time></trkpt><trkpt lat="42.31390350391898" lon="13.253523079704907"><ele>1241.2</ele><time>2026-05-02T15:12:12Z</time></trkpt><trkpt lat="42.31385351766872" lon="13.253628396085416"><ele>1244.0</ele><time>2026-05-02T15:12:13Z</time></trkpt><trkpt lat="42.31377705332531" lon="13.253742769705793"><ele>1244.0</ele><time>2026-05-02T15:12:14Z</time></trkpt><trkpt lat="42.31369673432113" lon="13.253874982682616"><ele>1244.0</ele><time>2026-05-02T15:12:15Z</time></trkpt><trkpt lat="42.313609138989584" lon="13.254006290627904"><ele>1244.0</ele><time>2026-05-02T15:12:16Z</time></trkpt><trkpt lat="42.31359379810732" lon="13.254204298271697"><ele>1244.0</ele><time>2026-05-02T15:12:17Z</time></trkpt><trkpt lat="42.31355212680521" lon="13.254409247923308"><ele>1239.75</ele><time>2026-05-02T15:12:18Z</time></trkpt><trkpt lat="42.31352697392647" lon="13.254623439846192"><ele>1235.5</ele><time>2026-05-02T15:12:19Z</time></trkpt><trkpt lat="42.31349218889877" lon="13.254816955865035"><ele>1231.25</ele><time>2026-05-02T15:12:20Z</time></trkpt><trkpt lat="42.31345178478323" lon="13.254982539927633"><ele>1227.0</ele><time>2026-05-02T15:12:21Z</time></trkpt><trkpt lat="42.31342323714831" lon="13.255123509513451"><ele>1226.2</ele><time>2026-05-02T15:12:22Z</time></trkpt><trkpt lat="42.31335984909567" lon="13.25523473819908"><ele>1225.4</ele><time>2026-05-02T15:12:23Z</time></trkpt><trkpt lat="42.31328555907725" lon="13.255301111536324"><ele>1224.6</ele><time>2026-05-02T15:12:24Z</time></trkpt><trkpt lat="42.31320662605041" lon="13.255326462208865"><ele>1223.8</ele><time>2026-05-02T15:12:25Z</time></trkpt><trkpt lat="42.31311447510894" lon="13.255310518578012"><ele>1223.0</ele><time>2026-05-02T15:12:26Z</time></trkpt><trkpt lat="42.313013045125224" lon="13.2552618980693"><ele>1223.0</ele><time>2026-05-02T15:12:27Z</time></trkpt><trkpt lat="42.312897967046815" lon="13.255211415043252"><ele>1223.0</ele><time>2026-05-02T15:12:28Z</time></trkpt><trkpt lat="42.31277753962086" lon="13.25516773257249"><ele>1223.0</ele><time>2026-05-02T15:12:29Z</time></trkpt><trkpt lat="42.3126618715349" lon="13.255131152719215"><ele>1223.0</ele><time>2026-05-02T15:12:30Z</time></trkpt><trkpt lat="42.31255592535803" lon="13.255119823070299"><ele>1223.0</ele><time>2026-05-02T15:12:31Z</time></trkpt><trkpt lat="42.312457098183785" lon="13.25514891922736"><ele>1223.0</ele><time>2026-05-02T15:12:32Z</time></trkpt><trkpt lat="42.3123715690907" lon="13.255226879687134"><ele>1223.0</ele><time>2026-05-02T15:12:33Z</time></trkpt><trkpt lat="42.31228529512558" lon="13.255314982894035"><ele>1223.0</ele><time>2026-05-02T15:12:34Z</time></trkpt><trkpt lat="42.31223888471979" lon="13.255458781465135"><ele>1223.0</ele><time>2026-05-02T15:12:35Z</time></trkpt><trkpt lat="42.31225033342562" lon="13.255636394359573"><ele>1217.8</ele><time>2026-05-02T15:12:36Z</time></trkpt><trkpt lat="42.3122608517779" lon="13.255804226825221"><ele>1212.6</ele><time>2026-05-02T15:12:37Z</time></trkpt><trkpt lat="42.31227264700281" lon="13.255960341243"><ele>1207.4</ele><time>2026-05-02T15:12:38Z</time></trkpt><trkpt lat="42.31227769712652" lon="13.25610385532923"><ele>1202.2</ele><time>2026-05-02T15:12:39Z</time></trkpt><trkpt lat="42.312278115593706" lon="13.256233403860895"><ele>1197.0</ele><time>2026-05-02T15:12:40Z</time></trkpt><trkpt lat="42.31227182508299" lon="13.256357953045637"><ele>1196.2</ele><time>2026-05-02T15:12:41Z</time></trkpt><trkpt lat="42.31221037484094" lon="13.25647587601856"><ele>1195.4</ele><time>2026-05-02T15:12:42Z</time></trkpt><trkpt lat="42.31212505012185" lon="13.256575976535894"><ele>1194.6</ele><time>2026-05-02T15:12:43Z</time></trkpt><trkpt lat="42.31203384883675" lon="13.256646617417058"><ele>1193.8</ele><time>2026-05-02T15:12:44Z</time></trkpt><trkpt lat="42.311942891546295" lon="13.256693293172466"><ele>1193.0</ele><time>2026-05-02T15:12:45Z</time></trkpt><trkpt lat="42.311843229896496" lon="13.256690531828388"><ele>1193.0</ele><time>2026-05-02T15:12:46Z</time></trkpt><trkpt lat="42.31173552567834" lon="13.256646574652722"><ele>1193.0</ele><time>2026-05-02T15:12:47Z</time></trkpt><trkpt lat="42.31162783491178" lon="13.256585955480077"><ele>1193.0</ele><time>2026-05-02T15:12:48Z</time></trkpt><trkpt lat="42.311520313422804" lon="13.256526172540845"><ele>1193.0</ele><time>2026-05-02T15:12:49Z</time></trkpt><trkpt lat="42.311417885683596" lon="13.256497846202757"><ele>1197.25</ele><time>2026-05-02T15:12:50Z</time></trkpt><trkpt lat="42.31131500188052" lon="13.2565058343864"><ele>1201.5</ele><time>2026-05-02T15:12:51Z</time></trkpt><trkpt lat="42.311213071759845" lon="13.256560697121872"><ele>1205.75</ele><time>2026-05-02T15:12:52Z</time></trkpt><trkpt lat="42.31112572644106" lon="13.256665740730524"><ele>1210.0</ele><time>2026-05-02T15:12:53Z</time></trkpt><trkpt lat="42.31104087736807" lon="13.256795392624603"><ele>1210.0</ele><time>2026-05-02T15:12:54Z</time></trkpt><trkpt lat="42.310971291514655" lon="13.256951642268689"><ele>1210.0</ele><time>2026-05-02T15:12:55Z</time></trkpt><trkpt lat="42.31091158054992" lon="13.257124170672302"><ele>1210.0</ele><time>2026-05-02T15:12:56Z</time></trkpt><trkpt lat="42.31085286730347" lon="13.257300050995818"><ele>1210.0</ele><time>2026-05-02T15:12:57Z</time></trkpt><trkpt lat="42.310797076860034" lon="13.257459167774194"><ele>1209.25</ele><time>2026-05-02T15:12:58Z</time></trkpt><trkpt lat="42.310732222051705" lon="13.257596990819037"><ele>1208.5</ele><time>2026-05-02T15:12:59Z</time></trkpt><trkpt lat="42.31067070234097" lon="13.257742066343665"><ele>1207.75</ele><time>2026-05-02T15:13:00Z</time></trkpt><trkpt lat="42.31058063424109" lon="13.257845098434007"><ele>1207.0</ele><time>2026-05-02T15:13:01Z</time></trkpt><trkpt lat="42.31048378765664" lon="13.257923762681093"><ele>1207.0</ele><time>2026-05-02T15:13:02Z</time></trkpt><trkpt lat="42.310374649692264" lon="13.257973149558294"><ele>1207.0</ele><time>2026-05-02T15:13:03Z</time></trkpt><trkpt lat="42.3102501878736" lon="13.257978854886124"><ele>1207.0</ele><time>2026-05-02T15:13:04Z</time></trkpt><trkpt lat="42.31013174809789" lon="13.257966429753493"><ele>1207.0</ele><time>2026-05-02T15:13:05Z</time></trkpt><trkpt lat="42.310021009899735" lon="13.257990119237528"><ele>1207.0</ele><time>2026-05-02T15:13:06Z</time></trkpt><trkpt lat="42.309909210653515" lon="13.258036893443387"><ele>1207.0</ele><time>2026-05-02T15:13:07Z</time></trkpt><trkpt lat="42.30982362632188" lon="13.258172077544542"><ele>1207.0</ele><time>2026-05-02T15:13:08Z</time></trkpt><trkpt lat="42.30973114291227" lon="13.258313825182652"><ele>1207.0</ele><time>2026-05-02T15:13:09Z</time></trkpt><trkpt lat="42.30965412592201" lon="13.258473608487975"><ele>1204.5</ele><time>2026-05-02T15:13:10Z</time></trkpt><trkpt lat="42.30957584157137" lon="13.258629272510863"><ele>1202.0</ele><time>2026-05-02T15:13:11Z</time></trkpt><trkpt lat="42.309494864173914" lon="13.258770760990329"><ele>1199.5</ele><time>2026-05-02T15:13:12Z</time></trkpt><trkpt lat="42.30940925810648" lon="13.258905925013476"><ele>1197.0</ele><time>2026-05-02T15:13:13Z</time></trkpt><trkpt lat="42.30930559542538" lon="13.258997738105107"><ele>1192.25</ele><time>2026-05-02T15:13:14Z</time></trkpt><trkpt lat="42.309194363829626" lon="13.259062762870913"><ele>1187.5</ele><time>2026-05-02T15:13:15Z</time></trkpt><trkpt lat="42.3090649761611" lon="13.259103758914556"><ele>1182.75</ele><time>2026-05-02T15:13:16Z</time></trkpt><trkpt lat="42.30892476090745" lon="13.259134542264038"><ele>1178.0</ele><time>2026-05-02T15:13:17Z</time></trkpt><trkpt lat="42.308783437222665" lon="13.259202309741895"><ele>1178.0</ele><time>2026-05-02T15:13:18Z</time></trkpt><trkpt lat="42.30863996641926" lon="13.259302514628184"><ele>1178.0</ele><time>2026-05-02T15:13:19Z</time></trkpt><trkpt lat="42.308499613378046" lon="13.259403596495266"><ele>1178.0</ele><time>2026-05-02T15:13:20Z</time></trkpt><trkpt lat="42.30836182040733" lon="13.259501372736414"><ele>1178.0</ele><time>2026-05-02T15:13:21Z</time></trkpt><trkpt lat="42.308230617249386" lon="13.259600094707004"><ele>1178.0</ele><time>2026-05-02T15:13:22Z</time></trkpt><trkpt lat="42.308107454141854" lon="13.259701229115574"><ele>1178.0</ele><time>2026-05-02T15:13:23Z</time></trkpt><trkpt lat="42.30799155899104" lon="13.259795332445233"><ele>1178.0</ele><time>2026-05-02T15:13:24Z</time></trkpt><trkpt lat="42.30787853906871" lon="13.2598774938053"><ele>1172.5</ele><time>2026-05-02T15:13:25Z</time></trkpt><trkpt lat="42.307762450600514" lon="13.259941251290535"><ele>1167.0</ele><time>2026-05-02T15:13:26Z</time></trkpt><trkpt lat="42.30763712171733" lon="13.259980873950708"><ele>1161.5</ele><time>2026-05-02T15:13:27Z</time></trkpt><trkpt lat="42.30751134239833" lon="13.25998859249545"><ele>1156.0</ele><time>2026-05-02T15:13:28Z</time></trkpt><trkpt lat="42.307402129671836" lon="13.259956369785165"><ele>1156.0</ele><time>2026-05-02T15:13:29Z</time></trkpt><trkpt lat="42.30730870595624" lon="13.259886271336297"><ele>1156.0</ele><time>2026-05-02T15:13:30Z</time></trkpt><trkpt lat="42.307225593687484" lon="13.259772137534494"><ele>1156.0</ele><time>2026-05-02T15:13:31Z</time></trkpt><trkpt lat="42.30714299710109" lon="13.259638270393628"><ele>1156.0</ele><time>2026-05-02T15:13:32Z</time></trkpt><trkpt lat="42.307052208128745" lon="13.259501485309327"><ele>1155.75</ele><time>2026-05-02T15:13:33Z</time></trkpt><trkpt lat="42.3069671914868" lon="13.259371745162754"><ele>1155.5</ele><time>2026-05-02T15:13:34Z</time></trkpt><trkpt lat="42.306896391416586" lon="13.259235069565989"><ele>1155.25</ele><time>2026-05-02T15:13:35Z</time></trkpt><trkpt lat="42.306838139444075" lon="13.259075255216437"><ele>1155.0</ele><time>2026-05-02T15:13:36Z</time></trkpt><trkpt lat="42.30678939237977" lon="13.258899096889685"><ele>1155.0</ele><time>2026-05-02T15:13:37Z</time></trkpt><trkpt lat="42.30673716192391" lon="13.258715748148294"><ele>1155.0</ele><time>2026-05-02T15:13:38Z</time></trkpt><trkpt lat="42.30668046611847" lon="13.258536506871275"><ele>1155.0</ele><time>2026-05-02T15:13:39Z</time></trkpt><trkpt lat="42.30661586317434" lon="13.25836482150561"><ele>1155.0</ele><time>2026-05-02T15:13:40Z</time></trkpt><trkpt lat="42.3065382093806" lon="13.25820650183765"><ele>1157.0</ele><time>2026-05-02T15:13:41Z</time></trkpt><trkpt lat="42.30644763100464" lon="13.25806800762844"><ele>1159.0</ele><time>2026-05-02T15:13:42Z</time></trkpt><trkpt lat="42.30634976386073" lon="13.257951755248929"><ele>1161.0</ele><time>2026-05-02T15:13:43Z</time></trkpt><trkpt lat="42.306244228476984" lon="13.257860898077938"><ele>1163.0</ele><time>2026-05-02T15:13:44Z</time></trkpt><trkpt lat="42.30613042738172" lon="13.257802277650192"><ele>1163.0</ele><time>2026-05-02T15:13:45Z</time></trkpt><trkpt lat="42.30599936107312" lon="13.257780493336753"><ele>1163.0</ele><time>2026-05-02T15:13:46Z</time></trkpt><trkpt lat="42.305855546612875" lon="13.257786301538905"><ele>1163.0</ele><time>2026-05-02T15:13:47Z</time></trkpt><trkpt lat="42.30570817931836" lon="13.257803382764102"><ele>1163.0</ele><time>2026-05-02T15:13:48Z</time></trkpt><trkpt lat="42.30556628814666" lon="13.257831618907307"><ele>1161.75</ele><time>2026-05-02T15:13:49Z</time></trkpt><trkpt lat="42.305431548691764" lon="13.257868077815555"><ele>1160.5</ele><time>2026-05-02T15:13:50Z</time></trkpt><trkpt lat="42.30530380482428" lon="13.257903185459519"><ele>1159.25</ele><time>2026-05-02T15:13:51Z</time></trkpt><trkpt lat="42.305175829109054" lon="13.257921299450803"><ele>1158.0</ele><time>2026-05-02T15:13:52Z</time></trkpt><trkpt lat="42.30504400632873" lon="13.25790546077292"><ele>1158.0</ele><time>2026-05-02T15:13:53Z</time></trkpt><trkpt lat="42.30491064954269" lon="13.257865357267063"><ele>1158.0</ele><time>2026-05-02T15:13:54Z</time></trkpt><trkpt lat="42.304770637034935" lon="13.257843898510826"><ele>1158.0</ele><time>2026-05-02T15:13:55Z</time></trkpt><trkpt lat="42.30462302283953" lon="13.257857624189974"><ele>1158.0</ele><time>2026-05-02T15:13:56Z</time></trkpt><trkpt lat="42.30447432875688" lon="13.257903315773984"><ele>1160.0</ele><time>2026-05-02T15:13:57Z</time></trkpt><trkpt lat="42.304322298712535" lon="13.25796021328337"><ele>1162.0</ele><time>2026-05-02T15:13:58Z</time></trkpt><trkpt lat="42.30417053673657" lon="13.258017217361964"><ele>1164.0</ele><time>2026-05-02T15:13:59Z</time></trkpt><trkpt lat="42.30402189316381" lon="13.258068679690536"><ele>1155.25</ele><time>2026-05-02T15:14:00Z</time></trkpt><trkpt lat="42.30387754223307" lon="13.258121778518628"><ele>1146.5</ele><time>2026-05-02T15:14:01Z</time></trkpt><trkpt lat="42.3037431277792" lon="13.258175025934976"><ele>1137.75</ele><time>2026-05-02T15:14:02Z</time></trkpt><trkpt lat="42.30361514885947" lon="13.258228611155376"><ele>1129.0</ele><time>2026-05-02T15:14:03Z</time></trkpt><trkpt lat="42.303495731252525" lon="13.258277542764684"><ele>1129.0</ele><time>2026-05-02T15:14:04Z</time></trkpt><trkpt lat="42.30339291671245" lon="13.258316138726602"><ele>1129.0</ele><time>2026-05-02T15:14:05Z</time></trkpt><trkpt lat="42.30329643729716" lon="13.258335603520642"><ele>1129.0</ele><time>2026-05-02T15:14:06Z</time></trkpt><trkpt lat="42.30320249083784" lon="13.258330760156689"><ele>1129.0</ele><time>2026-05-02T15:14:07Z</time></trkpt><trkpt lat="42.30311192139097" lon="13.258281679899307"><ele>1129.0</ele><time>2026-05-02T15:14:08Z</time></trkpt><trkpt lat="42.303028047797454" lon="13.258182567025804"><ele>1130.0</ele><time>2026-05-02T15:14:09Z</time></trkpt><trkpt lat="42.30295143326786" lon="13.25805337200484"><ele>1131.0</ele><time>2026-05-02T15:14:10Z</time></trkpt><trkpt lat="42.30284456479861" lon="13.257949655056068"><ele>1132.0</ele><time>2026-05-02T15:14:11Z</time></trkpt><trkpt lat="42.30275740665563" lon="13.257820254085479"><ele>1133.0</ele><time>2026-05-02T15:14:12Z</time></trkpt><trkpt lat="42.30264725428666" lon="13.25771853209749"><ele>1133.0</ele><time>2026-05-02T15:14:13Z</time></trkpt><trkpt lat="42.302543779167074" lon="13.257592858975855"><ele>1133.0</ele><time>2026-05-02T15:14:14Z</time></trkpt><trkpt lat="42.30244155902448" lon="13.257471043080425"><ele>1133.0</ele><time>2026-05-02T15:14:15Z</time></trkpt><trkpt lat="42.302341014179724" lon="13.257352582949093"><ele>1133.0</ele><time>2026-05-02T15:14:16Z</time></trkpt><trkpt lat="42.302232446848265" lon="13.25724804608499"><ele>1132.25</ele><time>2026-05-02T15:14:17Z</time></trkpt><trkpt lat="42.30211253103862" lon="13.257159828949572"><ele>1131.5</ele><time>2026-05-02T15:14:18Z</time></trkpt><trkpt lat="42.301988484025266" lon="13.257075370017741"><ele>1130.75</ele><time>2026-05-02T15:14:19Z</time></trkpt><trkpt lat="42.30186713775351" lon="13.256992984702839"><ele>1130.0</ele><time>2026-05-02T15:14:20Z</time></trkpt><trkpt lat="42.30175797961252" lon="13.256915985038278"><ele>1130.0</ele><time>2026-05-02T15:14:21Z</time></trkpt><trkpt lat="42.301658389536264" lon="13.256851427256832"><ele>1130.0</ele><time>2026-05-02T15:14:22Z</time></trkpt><trkpt lat="42.30156920539579" lon="13.256802332471961"><ele>1130.0</ele><time>2026-05-02T15:14:23Z</time></trkpt><trkpt lat="42.301486762053166" lon="13.256782237749393"><ele>1130.0</ele><time>2026-05-02T15:14:24Z</time></trkpt><trkpt lat="42.30140939613582" lon="13.256807850573272"><ele>1130.0</ele><time>2026-05-02T15:14:25Z</time></trkpt><trkpt lat="42.30133106425535" lon="13.256855369200764"><ele>1134.2</ele><time>2026-05-02T15:14:26Z</time></trkpt><trkpt lat="42.30126912797176" lon="13.25696147717779"><ele>1138.4</ele><time>2026-05-02T15:14:27Z</time></trkpt><trkpt lat="42.3012310922057" lon="13.257085975574746"><ele>1142.6</ele><time>2026-05-02T15:14:28Z</time></trkpt><trkpt lat="42.30117292547618" lon="13.257223209981992"><ele>1146.8</ele><time>2026-05-02T15:14:29Z</time></trkpt><trkpt lat="42.30113124038676" lon="13.257388854047853"><ele>1151.0</ele><time>2026-05-02T15:14:30Z</time></trkpt><trkpt lat="42.30109944453148" lon="13.257556505905992"><ele>1151.0</ele><time>2026-05-02T15:14:31Z</time></trkpt><trkpt lat="42.30107323163382" lon="13.257739009924727"><ele>1151.0</ele><time>2026-05-02T15:14:32Z</time></trkpt><trkpt lat="42.301050245223934" lon="13.257927243262477"><ele>1151.0</ele><time>2026-05-02T15:14:33Z</time></trkpt><trkpt lat="42.30102757091616" lon="13.258117972325133"><ele>1151.0</ele><time>2026-05-02T15:14:34Z</time></trkpt><trkpt lat="42.30100438048502" lon="13.258298385482458"><ele>1148.0</ele><time>2026-05-02T15:14:35Z</time></trkpt><trkpt lat="42.300981432447614" lon="13.25847025932427"><ele>1145.0</ele><time>2026-05-02T15:14:36Z</time></trkpt><trkpt lat="42.30096314767833" lon="13.258638323838397"><ele>1142.0</ele><time>2026-05-02T15:14:37Z</time></trkpt><trkpt lat="42.30095190672446" lon="13.258802885728391"><ele>1139.0</ele><time>2026-05-02T15:14:38Z</time></trkpt><trkpt lat="42.30094854812915" lon="13.258978179773944"><ele>1138.0</ele><time>2026-05-02T15:14:39Z</time></trkpt><trkpt lat="42.300949233877446" lon="13.259165370086128"><ele>1137.0</ele><time>2026-05-02T15:14:40Z</time></trkpt><trkpt lat="42.30095413763628" lon="13.25935702526433"><ele>1136.0</ele><time>2026-05-02T15:14:41Z</time></trkpt><trkpt lat="42.300966311334506" lon="13.259543308090727"><ele>1135.0</ele><time>2026-05-02T15:14:42Z</time></trkpt><trkpt lat="42.30099819483878" lon="13.259728352484624"><ele>1134.25</ele><time>2026-05-02T15:14:43Z</time></trkpt><trkpt lat="42.30100926125522" lon="13.259925391476878"><ele>1133.5</ele><time>2026-05-02T15:14:44Z</time></trkpt><trkpt lat="42.30104140009543" lon="13.260113698500694"><ele>1132.75</ele><time>2026-05-02T15:14:45Z</time></trkpt><trkpt lat="42.30107490336468" lon="13.26029113340342"><ele>1132.0</ele><time>2026-05-02T15:14:46Z</time></trkpt><trkpt lat="42.301106203168224" lon="13.26045834177576"><ele>1132.0</ele><time>2026-05-02T15:14:47Z</time></trkpt><trkpt lat="42.30113547015653" lon="13.260615083769135"><ele>1132.0</ele><time>2026-05-02T15:14:48Z</time></trkpt><trkpt lat="42.30115665022349" lon="13.260751323875008"><ele>1132.0</ele><time>2026-05-02T15:14:49Z</time></trkpt><trkpt lat="42.30117909685538" lon="13.260872852008015"><ele>1132.0</ele><time>2026-05-02T15:14:50Z</time></trkpt><trkpt lat="42.30115112849645" lon="13.260977315684709"><ele>1132.0</ele><time>2026-05-02T15:14:51Z</time></trkpt><trkpt lat="42.301106617021944" lon="13.26106627787919"><ele>1129.4</ele><time>2026-05-02T15:14:52Z</time></trkpt><trkpt lat="42.30103962721998" lon="13.261143151559713"><ele>1126.8000000000002</ele><time>2026-05-02T15:14:53Z</time></trkpt><trkpt lat="42.30095164476794" lon="13.26121993919771"><ele>1124.2</ele><time>2026-05-02T15:14:54Z</time></trkpt><trkpt lat="42.30085374333635" lon="13.261301317277471"><ele>1121.6000000000001</ele><time>2026-05-02T15:14:55Z</time></trkpt><trkpt lat="42.30074611367923" lon="13.261386605203873"><ele>1119.0</ele><time>2026-05-02T15:14:56Z</time></trkpt><trkpt lat="42.300624280073755" lon="13.261443388656916"><ele>1117.6000000000001</ele><time>2026-05-02T15:14:57Z</time></trkpt><trkpt lat="42.30050919474023" lon="13.261484854477228"><ele>1116.2</ele><time>2026-05-02T15:14:58Z</time></trkpt><trkpt lat="42.30041373726389" lon="13.261547051297411"><ele>1114.8000000000002</ele><time>2026-05-02T15:14:59Z</time></trkpt><trkpt lat="42.30032522111917" lon="13.261623353513052"><ele>1113.4</ele><time>2026-05-02T15:15:00Z</time></trkpt><trkpt lat="42.30026689374666" lon="13.261758487833564"><ele>1112.0</ele><time>2026-05-02T15:15:01Z</time></trkpt><trkpt lat="42.3002307881059" lon="13.261912888124536"><ele>1112.0</ele><time>2026-05-02T15:15:02Z</time></trkpt><trkpt lat="42.30018412533494" lon="13.262046532808405"><ele>1112.0</ele><time>2026-05-02T15:15:03Z</time></trkpt><trkpt lat="42.30013483189954" lon="13.2621585303579"><ele>1112.0</ele><time>2026-05-02T15:15:04Z</time></trkpt><trkpt lat="42.300058697525095" lon="13.262241922482561"><ele>1112.0</ele><time>2026-05-02T15:15:05Z</time></trkpt><trkpt lat="42.29995386340565" lon="13.262296240262206"><ele>1112.0</ele><time>2026-05-02T15:15:06Z</time></trkpt><trkpt lat="42.29984279011737" lon="13.262348221112928"><ele>1106.0</ele><time>2026-05-02T15:15:07Z</time></trkpt><trkpt lat="42.29974152935618" lon="13.262426445341656"><ele>1100.0</ele><time>2026-05-02T15:15:08Z</time></trkpt><trkpt lat="42.29965805165786" lon="13.262513616449354"><ele>1094.0</ele><time>2026-05-02T15:15:09Z</time></trkpt><trkpt lat="42.299589131773445" lon="13.262588239217267"><ele>1088.0</ele><time>2026-05-02T15:15:10Z</time></trkpt><trkpt lat="42.299521558298025" lon="13.262646889054006"><ele>1082.0</ele><time>2026-05-02T15:15:11Z</time></trkpt><trkpt lat="42.29944431773685" lon="13.262675533429471"><ele>1082.0</ele><time>2026-05-02T15:15:12Z</time></trkpt><trkpt lat="42.299365939692784" lon="13.262655129743331"><ele>1082.0</ele><time>2026-05-02T15:15:13Z</time></trkpt><trkpt lat="42.29929016954763" lon="13.262587149706912"><ele>1082.0</ele><time>2026-05-02T15:15:14Z</time></trkpt><trkpt lat="42.29922617229885" lon="13.262488233939207"><ele>1082.0</ele><time>2026-05-02T15:15:15Z</time></trkpt><trkpt lat="42.2991740948878" lon="13.26236376229762"><ele>1082.0</ele><time>2026-05-02T15:15:16Z</time></trkpt><trkpt lat="42.29913439814348" lon="13.262212956437326"><ele>1085.2</ele><time>2026-05-02T15:15:17Z</time></trkpt><trkpt lat="42.29909777604218" lon="13.262049850862013"><ele>1088.4</ele><time>2026-05-02T15:15:18Z</time></trkpt><trkpt lat="42.29905765896386" lon="13.261901531316878"><ele>1091.6</ele><time>2026-05-02T15:15:19Z</time></trkpt><trkpt lat="42.299019684013004" lon="13.261765013286379"><ele>1094.8</ele><time>2026-05-02T15:15:20Z</time></trkpt><trkpt lat="42.298986152525494" lon="13.261646789201514"><ele>1098.0</ele><time>2026-05-02T15:15:21Z</time></trkpt><trkpt lat="42.29894417308883" lon="13.261547362949495"><ele>1097.8333333333333</ele><time>2026-05-02T15:15:22Z</time></trkpt><trkpt lat="42.29888029921343" lon="13.261488716568104"><ele>1097.6666666666667</ele><time>2026-05-02T15:15:23Z</time></trkpt><trkpt lat="42.29880231792896" lon="13.261478922850365"><ele>1097.5</ele><time>2026-05-02T15:15:24Z</time></trkpt><trkpt lat="42.29872228157294" lon="13.26151647665241"><ele>1097.3333333333335</ele><time>2026-05-02T15:15:25Z</time></trkpt><trkpt lat="42.298650070702244" lon="13.26159549442779"><ele>1097.1666666666667</ele><time>2026-05-02T15:15:26Z</time></trkpt><trkpt lat="42.29857960981765" lon="13.261697737620644"><ele>1097.0</ele><time>2026-05-02T15:15:27Z</time></trkpt><trkpt lat="42.29849453474148" lon="13.261804781638572"><ele>1097.0</ele><time>2026-05-02T15:15:28Z</time></trkpt><trkpt lat="42.29839480257026" lon="13.261892411223913"><ele>1097.0</ele><time>2026-05-02T15:15:29Z</time></trkpt><trkpt lat="42.29829270312323" lon="13.261951979202935"><ele>1097.0</ele><time>2026-05-02T15:15:30Z</time></trkpt><trkpt lat="42.29818236214029" lon="13.261975163817205"><ele>1097.0</ele><time>2026-05-02T15:15:31Z</time></trkpt><trkpt lat="42.29807504464318" lon="13.261999591914355"><ele>1096.6</ele><time>2026-05-02T15:15:32Z</time></trkpt><trkpt lat="42.29798150317881" lon="13.262066650541609"><ele>1096.2</ele><time>2026-05-02T15:15:33Z</time></trkpt><trkpt lat="42.297898603752444" lon="13.262141301953765"><ele>1095.8</ele><time>2026-05-02T15:15:34Z</time></trkpt><trkpt lat="42.29786986476478" lon="13.26227005210116"><ele>1095.4</ele><time>2026-05-02T15:15:35Z</time></trkpt><trkpt lat="42.29784931727045" lon="13.262400484218226"><ele>1095.0</ele><time>2026-05-02T15:15:36Z</time></trkpt><trkpt lat="42.297882990836996" lon="13.262551741836548"><ele>1095.0</ele><time>2026-05-02T15:15:37Z</time></trkpt><trkpt lat="42.297855141113715" lon="13.262705138520946"><ele>1095.0</ele><time>2026-05-02T15:15:38Z</time></trkpt><trkpt lat="42.29782760692689" lon="13.262862152644178"><ele>1095.0</ele><time>2026-05-02T15:15:39Z</time></trkpt><trkpt lat="42.297797970814436" lon="13.262994840257832"><ele>1095.0</ele><time>2026-05-02T15:15:40Z</time></trkpt><trkpt lat="42.29774777792449" lon="13.263102133824304"><ele>1095.0</ele><time>2026-05-02T15:15:41Z</time></trkpt><trkpt lat="42.297686342091524" lon="13.263181228408476"><ele>1093.4</ele><time>2026-05-02T15:15:42Z</time></trkpt><trkpt lat="42.29760074284231" lon="13.263228280792532"><ele>1091.8</ele><time>2026-05-02T15:15:43Z</time></trkpt><trkpt lat="42.297495073246964" lon="13.263248850452076"><ele>1090.2</ele><time>2026-05-02T15:15:44Z</time></trkpt><trkpt lat="42.29737790816478" lon="13.263237620148331"><ele>1088.6</ele><time>2026-05-02T15:15:45Z</time></trkpt><trkpt lat="42.29726383554607" lon="13.263203139685807"><ele>1087.0</ele><time>2026-05-02T15:15:46Z</time></trkpt><trkpt lat="42.29716707279075" lon="13.26315850299555"><ele>1087.0</ele><time>2026-05-02T15:15:47Z</time></trkpt><trkpt lat="42.2970810426756" lon="13.263149763167366"><ele>1087.0</ele><time>2026-05-02T15:15:48Z</time></trkpt><trkpt lat="42.29699129109603" lon="13.263182406225773"><ele>1087.0</ele><time>2026-05-02T15:15:49Z</time></trkpt><trkpt lat="42.29690252429961" lon="13.263254778144082"><ele>1087.0</ele><time>2026-05-02T15:15:50Z</time></trkpt><trkpt lat="42.296825588858" lon="13.263365936546267"><ele>1087.0</ele><time>2026-05-02T15:15:51Z</time></trkpt><trkpt lat="42.296765629775095" lon="13.263493326326362"><ele>1087.0</ele><time>2026-05-02T15:15:52Z</time></trkpt><trkpt lat="42.296739911322405" lon="13.263631613201946"><ele>1087.0</ele><time>2026-05-02T15:15:53Z</time></trkpt><trkpt lat="42.29674912372325" lon="13.263776470249628"><ele>1087.0</ele><time>2026-05-02T15:15:54Z</time></trkpt><trkpt lat="42.29675832863741" lon="13.263935438816803"><ele>1087.0</ele><time>2026-05-02T15:15:55Z</time></trkpt><trkpt lat="42.29677684197511" lon="13.264072634730374"><ele>1087.0</ele><time>2026-05-02T15:15:56Z</time></trkpt><trkpt lat="42.296745104197505" lon="13.26419806321263"><ele>1083.8</ele><time>2026-05-02T15:15:57Z</time></trkpt><trkpt lat="42.29668389040562" lon="13.264307071990434"><ele>1080.6</ele><time>2026-05-02T15:15:58Z</time></trkpt><trkpt lat="42.29660169472862" lon="13.264401202004413"><ele>1077.3999999999999</ele><time>2026-05-02T15:15:59Z</time></trkpt><trkpt lat="42.296522070920204" lon="13.264496725589671"><ele>1074.2</ele><time>2026-05-02T15:16:00Z</time></trkpt><trkpt lat="42.296457411655794" lon="13.264611432096459"><ele>1071.0</ele><time>2026-05-02T15:16:01Z</time></trkpt><trkpt lat="42.29645018492917" lon="13.264775532648557"><ele>1068.0</ele><time>2026-05-02T15:16:02Z</time></trkpt><trkpt lat="42.29646239368278" lon="13.264918022818199"><ele>1065.0</ele><time>2026-05-02T15:16:03Z</time></trkpt><trkpt lat="42.29646722825323" lon="13.265024628652704"><ele>1062.0</ele><time>2026-05-02T15:16:04Z</time></trkpt><trkpt lat="42.296461594306905" lon="13.265112439903444"><ele>1059.0</ele><time>2026-05-02T15:16:05Z</time></trkpt><trkpt lat="42.29641901514029" lon="13.265258916981967"><ele>1056.0</ele><time>2026-05-02T15:16:07Z</time></trkpt><trkpt lat="42.29647496295306" lon="13.265385051570982"><ele>1056.0</ele><time>2026-05-02T15:16:08Z</time></trkpt><trkpt lat="42.296456135702144" lon="13.265483221417435"><ele>1056.0</ele><time>2026-05-02T15:16:09Z</time></trkpt><trkpt lat="42.29642534060197" lon="13.265597843880332"><ele>1056.0</ele><time>2026-05-02T15:16:10Z</time></trkpt><trkpt lat="42.29638997374742" lon="13.265720333451021"><ele>1056.0</ele><time>2026-05-02T15:16:11Z</time></trkpt><trkpt lat="42.29635398176068" lon="13.265836885454604"><ele>1056.0</ele><time>2026-05-02T15:16:12Z</time></trkpt><trkpt lat="42.296323759047816" lon="13.265938422907862"><ele>1056.0</ele><time>2026-05-02T15:16:13Z</time></trkpt><trkpt lat="42.29630066299843" lon="13.266076832967245"><ele>1054.3333333333333</ele><time>2026-05-02T15:16:15Z</time></trkpt><trkpt lat="42.29636186122604" lon="13.266180853002457"><ele>1052.6666666666667</ele><time>2026-05-02T15:16:17Z</time></trkpt><trkpt lat="42.2964306933472" lon="13.266132671702415"><ele>1051.0</ele><time>2026-05-02T15:16:18Z</time></trkpt><trkpt lat="42.2964975388027" lon="13.266083196792017"><ele>1049.3333333333335</ele><time>2026-05-02T15:16:19Z</time></trkpt><trkpt lat="42.29657693053775" lon="13.26602768937016"><ele>1047.6666666666667</ele><time>2026-05-02T15:16:20Z</time></trkpt><trkpt lat="42.29666716502557" lon="13.26598511919216"><ele>1046.0</ele><time>2026-05-02T15:16:21Z</time></trkpt><trkpt lat="42.296759389227866" lon="13.265951018011979"><ele>1046.0</ele><time>2026-05-02T15:16:22Z</time></trkpt><trkpt lat="42.29685309240651" lon="13.265953588157847"><ele>1046.0</ele><time>2026-05-02T15:16:23Z</time></trkpt><trkpt lat="42.29693426352825" lon="13.26592763570699"><ele>1046.0</ele><time>2026-05-02T15:16:24Z</time></trkpt><trkpt lat="42.29701832201692" lon="13.265943122646178"><ele>1046.0</ele><time>2026-05-02T15:16:25Z</time></trkpt><trkpt lat="42.29708089485172" lon="13.266018270559902"><ele>1046.0</ele><time>2026-05-02T15:16:26Z</time></trkpt><trkpt lat="42.29713585864328" lon="13.266092701350328"><ele>1046.0</ele><time>2026-05-02T15:16:27Z</time></trkpt><trkpt lat="42.297193145742575" lon="13.266162447077143"><ele>1046.0</ele><time>2026-05-02T15:16:28Z</time></trkpt><trkpt lat="42.29720833387341" lon="13.266253498817203"><ele>1046.0</ele><time>2026-05-02T15:16:29Z</time></trkpt><trkpt lat="42.297179191136095" lon="13.266335448874441"><ele>1046.0</ele><time>2026-05-02T15:16:30Z</time></trkpt><trkpt lat="42.29711440704172" lon="13.266379507128741"><ele>1046.0</ele><time>2026-05-02T15:16:31Z</time></trkpt><trkpt lat="42.297028590944244" lon="13.26638518558017"><ele>1046.0</ele><time>2026-05-02T15:16:32Z</time></trkpt><trkpt lat="42.29694433697961" lon="13.266402847299505"><ele>1046.0</ele><time>2026-05-02T15:16:33Z</time></trkpt><trkpt lat="42.29686261637394" lon="13.266435334204054"><ele>1043.0</ele><time>2026-05-02T15:16:34Z</time></trkpt><trkpt lat="42.296809497569136" lon="13.266555165012907"><ele>1040.0</ele><time>2026-05-02T15:16:35Z</time></trkpt><trkpt lat="42.29676036925357" lon="13.266667883957206"><ele>1037.0</ele><time>2026-05-02T15:16:36Z</time></trkpt><trkpt lat="42.29669843081497" lon="13.266780920940379"><ele>1034.0</ele><time>2026-05-02T15:16:37Z</time></trkpt><trkpt lat="42.29666355807434" lon="13.266910701543283"><ele>1031.0</ele><time>2026-05-02T15:16:38Z</time></trkpt><trkpt lat="42.29661154479992" lon="13.267032976022213"><ele>1031.0</ele><time>2026-05-02T15:16:39Z</time></trkpt><trkpt lat="42.296559173715586" lon="13.267150928107164"><ele>1031.0</ele><time>2026-05-02T15:16:40Z</time></trkpt><trkpt lat="42.296510562658426" lon="13.267271499515703"><ele>1031.0</ele><time>2026-05-02T15:16:41Z</time></trkpt><trkpt lat="42.29646346174017" lon="13.267392724605685"><ele>1031.0</ele><time>2026-05-02T15:16:42Z</time></trkpt><trkpt lat="42.29642213857469" lon="13.267516768746498"><ele>1031.0</ele><time>2026-05-02T15:16:43Z</time></trkpt><trkpt lat="42.29638728713171" lon="13.267644270434596"><ele>1033.2</ele><time>2026-05-02T15:16:44Z</time></trkpt><trkpt lat="42.29635965983272" lon="13.26777883480583"><ele>1035.3999999999999</ele><time>2026-05-02T15:16:45Z</time></trkpt><trkpt lat="42.296340447848124" lon="13.267915059066016"><ele>1037.6</ele><time>2026-05-02T15:16:46Z</time></trkpt><trkpt lat="42.296325727554965" lon="13.26805442706567"><ele>1039.8</ele><time>2026-05-02T15:16:47Z</time></trkpt><trkpt lat="42.29631692916766" lon="13.268199573103864"><ele>1042.0</ele><time>2026-05-02T15:16:48Z</time></trkpt><trkpt lat="42.29631223978277" lon="13.26834190145299"><ele>1037.4</ele><time>2026-05-02T15:16:49Z</time></trkpt><trkpt lat="42.296277027291474" lon="13.26847532694232"><ele>1032.8000000000002</ele><time>2026-05-02T15:16:50Z</time></trkpt><trkpt lat="42.29624831352528" lon="13.268609613863267"><ele>1028.2</ele><time>2026-05-02T15:16:51Z</time></trkpt><trkpt lat="42.296225791733406" lon="13.268744583142508"><ele>1023.6</ele><time>2026-05-02T15:16:52Z</time></trkpt><trkpt lat="42.29617560162052" lon="13.268873563764295"><ele>1019.0</ele><time>2026-05-02T15:16:53Z</time></trkpt><trkpt lat="42.29612326691583" lon="13.269001826884763"><ele>1016.1666666666667</ele><time>2026-05-02T15:16:54Z</time></trkpt><trkpt lat="42.29607499562611" lon="13.269116940892378"><ele>1013.3333333333334</ele><time>2026-05-02T15:16:55Z</time></trkpt><trkpt lat="42.29602842757568" lon="13.26922775009711"><ele>1010.5</ele><time>2026-05-02T15:16:56Z</time></trkpt><trkpt lat="42.29598261963776" lon="13.26931902368419"><ele>1007.6666666666667</ele><time>2026-05-02T15:16:57Z</time></trkpt><trkpt lat="42.295942977380825" lon="13.269395324745673"><ele>1004.8333333333334</ele><time>2026-05-02T15:16:58Z</time></trkpt><trkpt lat="42.295943238356976" lon="13.269536265505998"><ele>1002.0</ele><time>2026-05-02T15:17:00Z</time></trkpt><trkpt lat="42.29607191344842" lon="13.269566298494405"><ele>1002.0</ele><time>2026-05-02T15:17:02Z</time></trkpt><trkpt lat="42.29614199958831" lon="13.269519770158233"><ele>1002.0</ele><time>2026-05-02T15:17:03Z</time></trkpt><trkpt lat="42.296225760124315" lon="13.269458446570738"><ele>1002.0</ele><time>2026-05-02T15:17:04Z</time></trkpt><trkpt lat="42.29630046597973" lon="13.269372918203493"><ele>1002.0</ele><time>2026-05-02T15:17:05Z</time></trkpt><trkpt lat="42.29639433945266" lon="13.269307981491155"><ele>1002.0</ele><time>2026-05-02T15:17:06Z</time></trkpt><trkpt lat="42.29648557007997" lon="13.269254140201491"><ele>998.3333333333334</ele><time>2026-05-02T15:17:07Z</time></trkpt><trkpt lat="42.29657360310218" lon="13.269203389036154"><ele>994.6666666666667</ele><time>2026-05-02T15:17:08Z</time></trkpt><trkpt lat="42.29665945636768" lon="13.269169119350462"><ele>991.0</ele><time>2026-05-02T15:17:09Z</time></trkpt><trkpt lat="42.29673031496841" lon="13.269174478536815"><ele>987.3333333333334</ele><time>2026-05-02T15:17:10Z</time></trkpt><trkpt lat="42.296835045852276" lon="13.2692099141812"><ele>983.6666666666667</ele><time>2026-05-02T15:17:12Z</time></trkpt><trkpt lat="42.29685187743267" lon="13.269310052445373"><ele>980.0</ele><time>2026-05-02T15:17:13Z</time></trkpt><trkpt lat="42.296892699357414" lon="13.269414520010182"><ele>980.0</ele><time>2026-05-02T15:17:14Z</time></trkpt><trkpt lat="42.296922756355144" lon="13.269538309267652"><ele>980.0</ele><time>2026-05-02T15:17:15Z</time></trkpt><trkpt lat="42.296946668195" lon="13.269683173100125"><ele>980.0</ele><time>2026-05-02T15:17:16Z</time></trkpt><trkpt lat="42.296966740600986" lon="13.269834802553348"><ele>980.0</ele><time>2026-05-02T15:17:17Z</time></trkpt><trkpt lat="42.29696931842647" lon="13.269994442710065"><ele>980.0</ele><time>2026-05-02T15:17:18Z</time></trkpt><trkpt lat="42.29698685057028" lon="13.270154590973624"><ele>978.75</ele><time>2026-05-02T15:17:19Z</time></trkpt><trkpt lat="42.297019278468355" lon="13.270308576243558"><ele>977.5</ele><time>2026-05-02T15:17:20Z</time></trkpt><trkpt lat="42.297041865735714" lon="13.270467002539236"><ele>976.25</ele><time>2026-05-02T15:17:21Z</time></trkpt><trkpt lat="42.297072111885434" lon="13.270625191253478"><ele>975.0</ele><time>2026-05-02T15:17:22Z</time></trkpt><trkpt lat="42.29711294933588" lon="13.270779731592487"><ele>972.25</ele><time>2026-05-02T15:17:23Z</time></trkpt><trkpt lat="42.29716163851904" lon="13.27092881538603"><ele>969.5</ele><time>2026-05-02T15:17:24Z</time></trkpt><trkpt lat="42.29721429949075" lon="13.271077005333808"><ele>966.75</ele><time>2026-05-02T15:17:25Z</time></trkpt><trkpt lat="42.297250949345106" lon="13.271226995146694"><ele>964.0</ele><time>2026-05-02T15:17:26Z</time></trkpt><trkpt lat="42.29730624170334" lon="13.271350394469149"><ele>960.8000000000001</ele><time>2026-05-02T15:17:27Z</time></trkpt><trkpt lat="42.297378409557645" lon="13.271469075259517"><ele>957.6000000000001</ele><time>2026-05-02T15:17:28Z</time></trkpt><trkpt lat="42.29747685759442" lon="13.271555785776204"><ele>954.4</ele><time>2026-05-02T15:17:29Z</time></trkpt><trkpt lat="42.2975501430425" lon="13.271670362498178"><ele>951.2</ele><time>2026-05-02T15:17:30Z</time></trkpt><trkpt lat="42.29762471317119" lon="13.271754067365768"><ele>948.0</ele><time>2026-05-02T15:17:31Z</time></trkpt><trkpt lat="42.297684716187376" lon="13.2718213747882"><ele>948.0</ele><time>2026-05-02T15:17:32Z</time></trkpt><trkpt lat="42.29774668844229" lon="13.271881776353824"><ele>948.0</ele><time>2026-05-02T15:17:33Z</time></trkpt><trkpt lat="42.297805086521834" lon="13.271922017360415"><ele>948.0</ele><time>2026-05-02T15:17:34Z</time></trkpt><trkpt lat="42.2978702838284" lon="13.271912259988419"><ele>948.0</ele><time>2026-05-02T15:17:35Z</time></trkpt><trkpt lat="42.29798022546042" lon="13.271851849749172"><ele>948.0</ele><time>2026-05-02T15:17:37Z</time></trkpt><trkpt lat="42.29802767836681" lon="13.271748684665283"><ele>948.0</ele><time>2026-05-02T15:17:38Z</time></trkpt><trkpt lat="42.29807743595911" lon="13.271633200929665"><ele>944.4</ele><time>2026-05-02T15:17:39Z</time></trkpt><trkpt lat="42.298102450401295" lon="13.271509785655638"><ele>940.8</ele><time>2026-05-02T15:17:40Z</time></trkpt><trkpt lat="42.29814227096889" lon="13.271405620735795"><ele>937.2</ele><time>2026-05-02T15:17:41Z</time></trkpt><trkpt lat="42.29817845888916" lon="13.271326296760355"><ele>933.6</ele><time>2026-05-02T15:17:42Z</time></trkpt><trkpt lat="42.29826919170176" lon="13.271210066383762"><ele>930.0</ele><time>2026-05-02T15:17:44Z</time></trkpt><trkpt lat="42.298370540919976" lon="13.271231443440385"><ele>930.0</ele><time>2026-05-02T15:17:45Z</time></trkpt><trkpt lat="42.29842395991842" lon="13.271404404498671"><ele>930.0</ele><time>2026-05-02T15:17:46Z</time></trkpt><trkpt lat="42.29849915437926" lon="13.271509962490606"><ele>930.0</ele><time>2026-05-02T15:17:47Z</time></trkpt><trkpt lat="42.29857060876077" lon="13.271628868609817"><ele>930.0</ele><time>2026-05-02T15:17:48Z</time></trkpt><trkpt lat="42.29861630831251" lon="13.271766626881323"><ele>930.0</ele><time>2026-05-02T15:17:49Z</time></trkpt><trkpt lat="42.29867326964112" lon="13.271892491114741"><ele>930.0</ele><time>2026-05-02T15:17:50Z</time></trkpt><trkpt lat="42.29873064640648" lon="13.272012909634979"><ele>930.0</ele><time>2026-05-02T15:17:51Z</time></trkpt><trkpt lat="42.29879705209875" lon="13.272099650505092"><ele>930.0</ele><time>2026-05-02T15:17:52Z</time></trkpt><trkpt lat="42.298848426639914" lon="13.272199415338815"><ele>930.0</ele><time>2026-05-02T15:17:53Z</time></trkpt><trkpt lat="42.298932562474555" lon="13.27223885730032"><ele>926.6</ele><time>2026-05-02T15:17:54Z</time></trkpt><trkpt lat="42.29900996059464" lon="13.272298034669436"><ele>923.2</ele><time>2026-05-02T15:17:55Z</time></trkpt><trkpt lat="42.29910634402268" lon="13.272289748119498"><ele>919.8</ele><time>2026-05-02T15:17:56Z</time></trkpt><trkpt lat="42.29920325601125" lon="13.272296979473644"><ele>916.4</ele><time>2026-05-02T15:17:57Z</time></trkpt><trkpt lat="42.29930237728846" lon="13.272332084780427"><ele>913.0</ele><time>2026-05-02T15:17:58Z</time></trkpt><trkpt lat="42.29940551555016" lon="13.27235113405167"><ele>913.0</ele><time>2026-05-02T15:17:59Z</time></trkpt><trkpt lat="42.29950978625821" lon="13.27238121853563"><ele>913.0</ele><time>2026-05-02T15:18:00Z</time></trkpt><trkpt lat="42.29961269530064" lon="13.272419093225826"><ele>913.0</ele><time>2026-05-02T15:18:01Z</time></trkpt><trkpt lat="42.2997159597681" lon="13.272460028014487"><ele>913.0</ele><time>2026-05-02T15:18:02Z</time></trkpt><trkpt lat="42.299822865850444" lon="13.272481544557007"><ele>913.0</ele><time>2026-05-02T15:18:03Z</time></trkpt><trkpt lat="42.29992302598938" lon="13.272522573943371"><ele>910.0</ele><time>2026-05-02T15:18:04Z</time></trkpt><trkpt lat="42.300015722382625" lon="13.272587690132841"><ele>907.0</ele><time>2026-05-02T15:18:05Z</time></trkpt><trkpt lat="42.30011229074958" lon="13.272633473221081"><ele>904.0</ele><time>2026-05-02T15:18:06Z</time></trkpt><trkpt lat="42.30019763060421" lon="13.272685943370519"><ele>901.0</ele><time>2026-05-02T15:18:07Z</time></trkpt><trkpt lat="42.30025019356472" lon="13.272732999722656"><ele>898.0</ele><time>2026-05-02T15:18:08Z</time></trkpt><trkpt lat="42.300321946912845" lon="13.27284454180442"><ele>897.9999999999999</ele><time>2026-05-02T15:18:10Z</time></trkpt><trkpt lat="42.30030674951947" lon="13.272937893263814"><ele>898.0</ele><time>2026-05-02T15:18:11Z</time></trkpt><trkpt lat="42.300249483344636" lon="13.273021202818812"><ele>898.0</ele><time>2026-05-02T15:18:12Z</time></trkpt><trkpt lat="42.30023668269901" lon="13.273119848487474"><ele>898.0</ele><time>2026-05-02T15:18:13Z</time></trkpt><trkpt lat="42.300240259400105" lon="13.273222636609333"><ele>897.9999999999999</ele><time>2026-05-02T15:18:14Z</time></trkpt><trkpt lat="42.30028227424446" lon="13.273326420648175"><ele>898.0</ele><time>2026-05-02T15:18:15Z</time></trkpt><trkpt lat="42.30032195084935" lon="13.273437328024025"><ele>896.8</ele><time>2026-05-02T15:18:16Z</time></trkpt><trkpt lat="42.30036790717639" lon="13.273543673376194"><ele>895.5999999999999</ele><time>2026-05-02T15:18:17Z</time></trkpt><trkpt lat="42.30041225939407" lon="13.27365783141073"><ele>894.4000000000001</ele><time>2026-05-02T15:18:18Z</time></trkpt><trkpt lat="42.300456770369266" lon="13.27377239802237"><ele>893.2</ele><time>2026-05-02T15:18:19Z</time></trkpt><trkpt lat="42.300501423171774" lon="13.27389150878276"><ele>892.0</ele><time>2026-05-02T15:18:20Z</time></trkpt><trkpt lat="42.300560903096375" lon="13.27400151816462"><ele>890.2</ele><time>2026-05-02T15:18:21Z</time></trkpt><trkpt lat="42.30060799950257" lon="13.274127013722573"><ele>888.4000000000001</ele><time>2026-05-02T15:18:22Z</time></trkpt><trkpt lat="42.30063998826833" lon="13.27426256706794"><ele>886.5999999999999</ele><time>2026-05-02T15:18:23Z</time></trkpt><trkpt lat="42.30068989507074" lon="13.274387162213328"><ele>884.8</ele><time>2026-05-02T15:18:24Z</time></trkpt><trkpt lat="42.30074246552709" lon="13.274516297734484"><ele>883.0</ele><time>2026-05-02T15:18:25Z</time></trkpt><trkpt lat="42.30080973891445" lon="13.27463360821918"><ele>882.9999999999999</ele><time>2026-05-02T15:18:26Z</time></trkpt><trkpt lat="42.300860079958255" lon="13.274752207921543"><ele>883.0</ele><time>2026-05-02T15:18:27Z</time></trkpt><trkpt lat="42.30091054422661" lon="13.274855411857072"><ele>883.0</ele><time>2026-05-02T15:18:28Z</time></trkpt><trkpt lat="42.300960416451346" lon="13.274938842027048"><ele>883.0</ele><time>2026-05-02T15:18:29Z</time></trkpt><trkpt lat="42.30099730567513" lon="13.27503183370877"><ele>882.9999999999999</ele><time>2026-05-02T15:18:30Z</time></trkpt><trkpt lat="42.30104322020215" lon="13.275101176567635"><ele>883.0</ele><time>2026-05-02T15:18:31Z</time></trkpt><trkpt lat="42.30109632513337" lon="13.275157714961388"><ele>880.0</ele><time>2026-05-02T15:18:32Z</time></trkpt><trkpt lat="42.30113342082211" lon="13.27523575841497"><ele>877.0</ele><time>2026-05-02T15:18:33Z</time></trkpt><trkpt lat="42.30119594920215" lon="13.275366036882527"><ele>874.0</ele><time>2026-05-02T15:18:35Z</time></trkpt><trkpt lat="42.30124245809539" lon="13.2754775063746"><ele>871.0</ele><time>2026-05-02T15:18:37Z</time></trkpt><trkpt lat="42.30128846531585" lon="13.275560016775172"><ele>868.0</ele><time>2026-05-02T15:18:39Z</time></trkpt><trkpt lat="42.30134234522683" lon="13.275668056587001"><ele>866.1666666666666</ele><time>2026-05-02T15:18:41Z</time></trkpt><trkpt lat="42.30141312873099" lon="13.275755474087974"><ele>864.3333333333333</ele><time>2026-05-02T15:18:43Z</time></trkpt><trkpt lat="42.30145784347048" lon="13.275829689835843"><ele>862.5</ele><time>2026-05-02T15:18:45Z</time></trkpt><trkpt lat="42.301564759794346" lon="13.275765442226644"><ele>860.6666666666667</ele><time>2026-05-02T15:18:48Z</time></trkpt><trkpt lat="42.30161338729842" lon="13.275677335443735"><ele>858.8333333333334</ele><time>2026-05-02T15:18:49Z</time></trkpt><trkpt lat="42.301651861045066" lon="13.2756043553606"><ele>857.0</ele><time>2026-05-02T15:18:50Z</time></trkpt><trkpt lat="42.30169073432017" lon="13.275524092434136"><ele>857.0000000000001</ele><time>2026-05-02T15:18:51Z</time></trkpt><trkpt lat="42.30172742549295" lon="13.275437731286733"><ele>857.0</ele><time>2026-05-02T15:18:52Z</time></trkpt><trkpt lat="42.301759384196366" lon="13.275360466718743"><ele>857.0</ele><time>2026-05-02T15:18:53Z</time></trkpt><trkpt lat="42.30179619945282" lon="13.275230218406195"><ele>857.0</ele><time>2026-05-02T15:18:55Z</time></trkpt><trkpt lat="42.301867471490034" lon="13.275217541682961"><ele>857.0000000000001</ele><time>2026-05-02T15:18:57Z</time></trkpt><trkpt lat="42.30190132943276" lon="13.275340016702993"><ele>857.0</ele><time>2026-05-02T15:18:59Z</time></trkpt><trkpt lat="42.30193089938968" lon="13.275424217963122"><ele>857.0000000000001</ele><time>2026-05-02T15:19:00Z</time></trkpt><trkpt lat="42.30195908657158" lon="13.275521631674414"><ele>857.0</ele><time>2026-05-02T15:19:01Z</time></trkpt><trkpt lat="42.30200183195774" lon="13.275622497846234"><ele>857.0</ele><time>2026-05-02T15:19:02Z</time></trkpt><trkpt lat="42.30204344562683" lon="13.275727308695798"><ele>857.0</ele><time>2026-05-02T15:19:03Z</time></trkpt><trkpt lat="42.302074750470986" lon="13.275831133026452"><ele>857.0000000000001</ele><time>2026-05-02T15:19:04Z</time></trkpt><trkpt lat="42.30210083708178" lon="13.275935368488756"><ele>857.0</ele><time>2026-05-02T15:19:05Z</time></trkpt><trkpt lat="42.30212675359619" lon="13.27603139222974"><ele>856.0000000000001</ele><time>2026-05-02T15:19:06Z</time></trkpt><trkpt lat="42.3021517095966" lon="13.276124769733658"><ele>855.0</ele><time>2026-05-02T15:19:07Z</time></trkpt><trkpt lat="42.30217824514182" lon="13.276212923053842"><ele>854.0</ele><time>2026-05-02T15:19:08Z</time></trkpt><trkpt lat="42.302202459958416" lon="13.276296952319655"><ele>853.0</ele><time>2026-05-02T15:19:09Z</time></trkpt><trkpt lat="42.30220867697932" lon="13.276439701271443"><ele>852.0000000000001</ele><time>2026-05-02T15:19:11Z</time></trkpt><trkpt lat="42.302224687053204" lon="13.276565948134595"><ele>851.0</ele><time>2026-05-02T15:19:13Z</time></trkpt><trkpt lat="42.30219791027056" lon="13.276701392296575"><ele>850.1999999999999</ele><time>2026-05-02T15:19:15Z</time></trkpt><trkpt lat="42.3021554574425" lon="13.276823287539749"><ele>849.4</ele><time>2026-05-02T15:19:17Z</time></trkpt><trkpt lat="42.302117210345585" lon="13.276969299955494"><ele>848.6</ele><time>2026-05-02T15:19:19Z</time></trkpt><trkpt lat="42.302058102197854" lon="13.277099541037442"><ele>847.8</ele><time>2026-05-02T15:19:21Z</time></trkpt><trkpt lat="42.302038523946905" lon="13.277262261904923"><ele>847.0</ele><time>2026-05-02T15:19:23Z</time></trkpt><trkpt lat="42.30203374738719" lon="13.277421317669331"><ele>845.0</ele><time>2026-05-02T15:19:25Z</time></trkpt><trkpt lat="42.3020486672182" lon="13.277506618459629"><ele>843.0</ele><time>2026-05-02T15:19:26Z</time></trkpt><trkpt lat="42.302080801298864" lon="13.27765878459637"><ele>841.0</ele><time>2026-05-02T15:19:28Z</time></trkpt><trkpt lat="42.30212556996516" lon="13.277732862482882"><ele>839.0</ele><time>2026-05-02T15:19:29Z</time></trkpt><trkpt lat="42.30220457898685" lon="13.277856622536104"><ele>837.0</ele><time>2026-05-02T15:19:31Z</time></trkpt><trkpt lat="42.302280631974185" lon="13.277951133439219"><ele>836.8333333333334</ele><time>2026-05-02T15:19:33Z</time></trkpt><trkpt lat="42.302320849151215" lon="13.278038069805755"><ele>836.6666666666667</ele><time>2026-05-02T15:19:37Z</time></trkpt><trkpt lat="42.30223114001973" lon="13.278159470566127"><ele>836.5</ele><time>2026-05-02T15:19:39Z</time></trkpt><trkpt lat="42.30219987315581" lon="13.27824584082185"><ele>836.3333333333334</ele><time>2026-05-02T15:19:40Z</time></trkpt><trkpt lat="42.30214775509175" lon="13.278308470268232"><ele>836.1666666666667</ele><time>2026-05-02T15:19:41Z</time></trkpt><trkpt lat="42.30207969422691" lon="13.278350328403526"><ele>836.0</ele><time>2026-05-02T15:19:42Z</time></trkpt><trkpt lat="42.30197527420817" lon="13.278355004189859"><ele>834.4</ele><time>2026-05-02T15:19:43Z</time></trkpt><trkpt lat="42.30186568176905" lon="13.278346016379254"><ele>832.8</ele><time>2026-05-02T15:19:44Z</time></trkpt><trkpt lat="42.301768858854466" lon="13.278338466741644"><ele>831.1999999999999</ele><time>2026-05-02T15:19:45Z</time></trkpt><trkpt lat="42.301686576237486" lon="13.278309042809953"><ele>829.5999999999999</ele><time>2026-05-02T15:19:46Z</time></trkpt><trkpt lat="42.30161669549844" lon="13.27823817414749"><ele>828.0</ele><time>2026-05-02T15:19:47Z</time></trkpt><trkpt lat="42.30155673473289" lon="13.278142362838187"><ele>827.5</ele><time>2026-05-02T15:19:48Z</time></trkpt><trkpt lat="42.30150636587849" lon="13.278040245090068"><ele>827.0</ele><time>2026-05-02T15:19:49Z</time></trkpt><trkpt lat="42.30146159497664" lon="13.27793816828651"><ele>826.5</ele><time>2026-05-02T15:19:50Z</time></trkpt><trkpt lat="42.30141448439561" lon="13.277842726877104"><ele>826.0</ele><time>2026-05-02T15:19:51Z</time></trkpt><trkpt lat="42.30134696303342" lon="13.277768113420619"><ele>825.5</ele><time>2026-05-02T15:19:52Z</time></trkpt><trkpt lat="42.30126384258366" lon="13.277707054513549"><ele>825.0</ele><time>2026-05-02T15:19:53Z</time></trkpt><trkpt lat="42.30117379201791" lon="13.277640340313498"><ele>825.0</ele><time>2026-05-02T15:19:54Z</time></trkpt><trkpt lat="42.30108227847151" lon="13.277584508210563"><ele>825.0</ele><time>2026-05-02T15:19:55Z</time></trkpt><trkpt lat="42.300987735718806" lon="13.277538056410679"><ele>825.0</ele><time>2026-05-02T15:19:56Z</time></trkpt><trkpt lat="42.300888746609104" lon="13.277494658541244"><ele>825.0</ele><time>2026-05-02T15:19:57Z</time></trkpt><trkpt lat="42.30079249736377" lon="13.277469468136335"><ele>825.0</ele><time>2026-05-02T15:19:58Z</time></trkpt><trkpt lat="42.300696377308306" lon="13.277461865938651"><ele>825.0</ele><time>2026-05-02T15:19:59Z</time></trkpt><trkpt lat="42.300594005675215" lon="13.277477387389528"><ele>825.0</ele><time>2026-05-02T15:20:00Z</time></trkpt><trkpt lat="42.30049291313638" lon="13.277518411554363"><ele>825.0</ele><time>2026-05-02T15:20:01Z</time></trkpt><trkpt lat="42.30039386119005" lon="13.277568366283605"><ele>825.0</ele><time>2026-05-02T15:20:02Z</time></trkpt><trkpt lat="42.30029680001295" lon="13.277609849272235"><ele>825.0</ele><time>2026-05-02T15:20:03Z</time></trkpt><trkpt lat="42.300196998560814" lon="13.27762099206294"><ele>825.5</ele><time>2026-05-02T15:20:04Z</time></trkpt><trkpt lat="42.30009511377704" lon="13.27763012375271"><ele>826.0</ele><time>2026-05-02T15:20:05Z</time></trkpt><trkpt lat="42.29998648699462" lon="13.277630432476444"><ele>826.5</ele><time>2026-05-02T15:20:06Z</time></trkpt><trkpt lat="42.299870112754526" lon="13.277634161716609"><ele>827.0</ele><time>2026-05-02T15:20:07Z</time></trkpt><trkpt lat="42.29974251165324" lon="13.277623985212543"><ele>827.0</ele><time>2026-05-02T15:20:08Z</time></trkpt><trkpt lat="42.299600560629514" lon="13.277625036812301"><ele>827.0</ele><time>2026-05-02T15:20:09Z</time></trkpt><trkpt lat="42.29945954586785" lon="13.27762120894827"><ele>827.0</ele><time>2026-05-02T15:20:10Z</time></trkpt><trkpt lat="42.29933523892788" lon="13.27761258577062"><ele>827.0</ele><time>2026-05-02T15:20:11Z</time></trkpt><trkpt lat="42.2992217278768" lon="13.277636084915468"><ele>827.0</ele><time>2026-05-02T15:20:12Z</time></trkpt><trkpt lat="42.29912232742459" lon="13.277671196880783"><ele>827.0</ele><time>2026-05-02T15:20:13Z</time></trkpt><trkpt lat="42.29902734065385" lon="13.277734954782556"><ele>827.0</ele><time>2026-05-02T15:20:14Z</time></trkpt><trkpt lat="42.29894301019582" lon="13.277824622699626"><ele>827.0</ele><time>2026-05-02T15:20:15Z</time></trkpt><trkpt lat="42.29888680825255" lon="13.277952451718559"><ele>827.0</ele><time>2026-05-02T15:20:16Z</time></trkpt><trkpt lat="42.29886279867684" lon="13.2781088054612"><ele>828.2</ele><time>2026-05-02T15:20:17Z</time></trkpt><trkpt lat="42.298817078086834" lon="13.27825562739644"><ele>829.4000000000001</ele><time>2026-05-02T15:20:18Z</time></trkpt><trkpt lat="42.29876768609198" lon="13.278377749409836"><ele>830.5999999999999</ele><time>2026-05-02T15:20:19Z</time></trkpt><trkpt lat="42.298702516722756" lon="13.278461425184865"><ele>831.8</ele><time>2026-05-02T15:20:20Z</time></trkpt><trkpt lat="42.29861812261424" lon="13.278526755142805"><ele>833.0</ele><time>2026-05-02T15:20:21Z</time></trkpt><trkpt lat="42.29851116315542" lon="13.278581018945557"><ele>833.0</ele><time>2026-05-02T15:20:22Z</time></trkpt><trkpt lat="42.298397663791754" lon="13.27865432448323"><ele>833.0</ele><time>2026-05-02T15:20:23Z</time></trkpt><trkpt lat="42.29826831805829" lon="13.278719593029443"><ele>833.0</ele><time>2026-05-02T15:20:24Z</time></trkpt><trkpt lat="42.29813814373602" lon="13.278802413426721"><ele>833.0</ele><time>2026-05-02T15:20:25Z</time></trkpt><trkpt lat="42.29801828902285" lon="13.278916548453635"><ele>835.75</ele><time>2026-05-02T15:20:26Z</time></trkpt><trkpt lat="42.29791526202221" lon="13.279065931473918"><ele>838.5</ele><time>2026-05-02T15:20:27Z</time></trkpt><trkpt lat="42.29781820254687" lon="13.27922245739783"><ele>841.25</ele><time>2026-05-02T15:20:28Z</time></trkpt><trkpt lat="42.29774581523006" lon="13.279375927198627"><ele>844.0</ele><time>2026-05-02T15:20:29Z</time></trkpt><trkpt lat="42.29767186752144" lon="13.27949686778549"><ele>844.0</ele><time>2026-05-02T15:20:30Z</time></trkpt><trkpt lat="42.297631463219226" lon="13.279626381931784"><ele>844.0</ele><time>2026-05-02T15:20:31Z</time></trkpt><trkpt lat="42.297624531022386" lon="13.279767204869463"><ele>844.0</ele><time>2026-05-02T15:20:32Z</time></trkpt><trkpt lat="42.29762569066614" lon="13.279927042990057"><ele>844.0</ele><time>2026-05-02T15:20:33Z</time></trkpt><trkpt lat="42.297661714954806" lon="13.280090219040622"><ele>841.75</ele><time>2026-05-02T15:20:34Z</time></trkpt><trkpt lat="42.29771366766203" lon="13.280242597701603"><ele>839.5</ele><time>2026-05-02T15:20:35Z</time></trkpt><trkpt lat="42.2977933497521" lon="13.28036823741785"><ele>837.25</ele><time>2026-05-02T15:20:36Z</time></trkpt><trkpt lat="42.29789258263195" lon="13.28046521158836"><ele>835.0</ele><time>2026-05-02T15:20:37Z</time></trkpt><trkpt lat="42.298018411330354" lon="13.280516885409574"><ele>832.25</ele><time>2026-05-02T15:20:38Z</time></trkpt><trkpt lat="42.298145317953676" lon="13.280537388000273"><ele>829.5</ele><time>2026-05-02T15:20:39Z</time></trkpt><trkpt lat="42.29827300335309" lon="13.280521106759757"><ele>826.75</ele><time>2026-05-02T15:20:40Z</time></trkpt><trkpt lat="42.298395871718505" lon="13.280489898362715"><ele>824.0</ele><time>2026-05-02T15:20:40.999Z</time></trkpt><trkpt lat="42.29851181875378" lon="13.280462905241668"><ele>824.0</ele><time>2026-05-02T15:20:41.999Z</time></trkpt><trkpt lat="42.29862179118151" lon="13.280431403329708"><ele>824.0</ele><time>2026-05-02T15:20:42.999Z</time></trkpt><trkpt lat="42.2987174029497" lon="13.280479524350445"><ele>824.0</ele><time>2026-05-02T15:20:43.999Z</time></trkpt><trkpt lat="42.29880765390061" lon="13.280539193465874"><ele>824.0</ele><time>2026-05-02T15:20:44.999Z</time></trkpt><trkpt lat="42.29891457345136" lon="13.280597845069153"><ele>824.0</ele><time>2026-05-02T15:20:45.999Z</time></trkpt><trkpt lat="42.29902453072084" lon="13.280689256297379"><ele>827.6666666666667</ele><time>2026-05-02T15:20:46.999Z</time></trkpt><trkpt lat="42.29913710578366" lon="13.280800947192683"><ele>831.3333333333333</ele><time>2026-05-02T15:20:47.999Z</time></trkpt><trkpt lat="42.29927549869647" lon="13.280887170782211"><ele>835.0</ele><time>2026-05-02T15:20:48.999Z</time></trkpt><trkpt lat="42.29941317102477" lon="13.281001670962546"><ele>835.0</ele><time>2026-05-02T15:20:49.999Z</time></trkpt><trkpt lat="42.29954791170167" lon="13.28110730324681"><ele>835.0</ele><time>2026-05-02T15:20:50.999Z</time></trkpt><trkpt lat="42.29968660177546" lon="13.28121343849201"><ele>835.0</ele><time>2026-05-02T15:20:51.999Z</time></trkpt><trkpt lat="42.299819165871995" lon="13.281345483133189"><ele>835.75</ele><time>2026-05-02T15:20:52.999Z</time></trkpt><trkpt lat="42.29995415894744" lon="13.28145357829813"><ele>836.5</ele><time>2026-05-02T15:20:53.999Z</time></trkpt><trkpt lat="42.30008143785746" lon="13.281555570371527"><ele>837.25</ele><time>2026-05-02T15:20:54.999Z</time></trkpt><trkpt lat="42.300201214602644" lon="13.28165376380947"><ele>838.0</ele><time>2026-05-02T15:20:55.999Z</time></trkpt><trkpt lat="42.30031471087743" lon="13.281750543976475"><ele>838.0</ele><time>2026-05-02T15:20:56.999Z</time></trkpt><trkpt lat="42.30042258342617" lon="13.281834494151122"><ele>838.0</ele><time>2026-05-02T15:20:57.999Z</time></trkpt><trkpt lat="42.30049539966088" lon="13.281953722312716"><ele>838.0</ele><time>2026-05-02T15:20:59Z</time></trkpt><trkpt lat="42.30054364353183" lon="13.282081622769795"><ele>838.0</ele><time>2026-05-02T15:21:00Z</time></trkpt><trkpt lat="42.30056796809105" lon="13.28221599658805"><ele>838.0</ele><time>2026-05-02T15:21:01Z</time></trkpt><trkpt lat="42.30056830706805" lon="13.282350575511765"><ele>838.75</ele><time>2026-05-02T15:21:02Z</time></trkpt><trkpt lat="42.30055568569707" lon="13.282490544446286"><ele>839.5</ele><time>2026-05-02T15:21:03Z</time></trkpt><trkpt lat="42.30054042818102" lon="13.282640935192866"><ele>840.25</ele><time>2026-05-02T15:21:04Z</time></trkpt><trkpt lat="42.3005286787865" lon="13.28279811700398"><ele>841.0</ele><time>2026-05-02T15:21:05Z</time></trkpt><trkpt lat="42.30050223477223" lon="13.282951574042213"><ele>840.9999999999999</ele><time>2026-05-02T15:21:06Z</time></trkpt><trkpt lat="42.30049621417072" lon="13.283092074934425"><ele>841.0</ele><time>2026-05-02T15:21:07Z</time></trkpt><trkpt lat="42.300504008977114" lon="13.283210598464569"><ele>841.0</ele><time>2026-05-02T15:21:08Z</time></trkpt><trkpt lat="42.30049864181976" lon="13.283295910541177"><ele>841.0</ele><time>2026-05-02T15:21:09Z</time></trkpt><trkpt lat="42.30044070468834" lon="13.28341099566842"><ele>840.9999999999999</ele><time>2026-05-02T15:21:11Z</time></trkpt><trkpt lat="42.300364174540334" lon="13.283424608291227"><ele>841.0</ele><time>2026-05-02T15:21:12Z</time></trkpt><trkpt lat="42.30026928793897" lon="13.283426680628544"><ele>838.5</ele><time>2026-05-02T15:21:13Z</time></trkpt><trkpt lat="42.30016263612676" lon="13.283439051074364"><ele>836.0</ele><time>2026-05-02T15:21:14Z</time></trkpt><trkpt lat="42.300046996225674" lon="13.28345750137502"><ele>833.5</ele><time>2026-05-02T15:21:15Z</time></trkpt><trkpt lat="42.29992842642296" lon="13.283493542181104"><ele>831.0</ele><time>2026-05-02T15:21:16Z</time></trkpt><trkpt lat="42.29980822105018" lon="13.28354838011495"><ele>831.5</ele><time>2026-05-02T15:21:17Z</time></trkpt><trkpt lat="42.29969220913829" lon="13.283616754703727"><ele>832.0</ele><time>2026-05-02T15:21:18Z</time></trkpt><trkpt lat="42.29958049087859" lon="13.283696839062625"><ele>832.5</ele><time>2026-05-02T15:21:19Z</time></trkpt><trkpt lat="42.29947228336184" lon="13.283784793571796"><ele>833.0</ele><time>2026-05-02T15:21:20Z</time></trkpt><trkpt lat="42.29936689561688" lon="13.283872007946668"><ele>830.4</ele><time>2026-05-02T15:21:21Z</time></trkpt><trkpt lat="42.29926192028868" lon="13.28395581627646"><ele>827.8</ele><time>2026-05-02T15:21:22Z</time></trkpt><trkpt lat="42.29916234756247" lon="13.284021784577952"><ele>825.2</ele><time>2026-05-02T15:21:23Z</time></trkpt><trkpt lat="42.299064013699066" lon="13.284059391784728"><ele>822.6</ele><time>2026-05-02T15:21:24Z</time></trkpt><trkpt lat="42.29896749415648" lon="13.284069639923313"><ele>820.0</ele><time>2026-05-02T15:21:25Z</time></trkpt><trkpt lat="42.29888031735099" lon="13.28405293744093"><ele>819.4</ele><time>2026-05-02T15:21:26Z</time></trkpt><trkpt lat="42.2987955034939" lon="13.284006079156232"><ele>818.8</ele><time>2026-05-02T15:21:27Z</time></trkpt><trkpt lat="42.29871286729337" lon="13.28393628961031"><ele>818.2</ele><time>2026-05-02T15:21:28Z</time></trkpt><trkpt lat="42.29862084628112" lon="13.283865414012253"><ele>817.6</ele><time>2026-05-02T15:21:29Z</time></trkpt><trkpt lat="42.29852087002362" lon="13.283809768508203"><ele>817.0</ele><time>2026-05-02T15:21:30Z</time></trkpt><trkpt lat="42.29842747721445" lon="13.283772689594354"><ele>818.1666666666666</ele><time>2026-05-02T15:21:31Z</time></trkpt><trkpt lat="42.29833903353009" lon="13.283754844624788"><ele>819.3333333333333</ele><time>2026-05-02T15:21:32Z</time></trkpt><trkpt lat="42.29825443889539" lon="13.283766591647918"><ele>820.5</ele><time>2026-05-02T15:21:33Z</time></trkpt><trkpt lat="42.29817557820052" lon="13.283801661062826"><ele>821.6666666666667</ele><time>2026-05-02T15:21:34Z</time></trkpt><trkpt lat="42.29810321449658" lon="13.28384768536434"><ele>822.8333333333334</ele><time>2026-05-02T15:21:35Z</time></trkpt><trkpt lat="42.298033036511804" lon="13.28389467536587"><ele>824.0</ele><time>2026-05-02T15:21:36Z</time></trkpt><trkpt lat="42.29796935963275" lon="13.283947281716003"><ele>824.0</ele><time>2026-05-02T15:21:37Z</time></trkpt><trkpt lat="42.29786914734287" lon="13.283993650911055"><ele>824.0</ele><time>2026-05-02T15:21:39Z</time></trkpt><trkpt lat="42.29800081229065" lon="13.284193122344996"><ele>824.0</ele><time>2026-05-02T15:21:43Z</time></trkpt><trkpt lat="42.29807423407052" lon="13.284176580937817"><ele>824.0</ele><time>2026-05-02T15:21:44Z</time></trkpt><trkpt lat="42.29814720850433" lon="13.284206531104184"><ele>822.6</ele><time>2026-05-02T15:21:45Z</time></trkpt><trkpt lat="42.29823243761899" lon="13.2842090078989"><ele>821.2</ele><time>2026-05-02T15:21:46Z</time></trkpt><trkpt lat="42.29832145297824" lon="13.284232880197703"><ele>819.8000000000001</ele><time>2026-05-02T15:21:47Z</time></trkpt><trkpt lat="42.29841474464306" lon="13.284272298939934"><ele>818.4000000000001</ele><time>2026-05-02T15:21:48Z</time></trkpt><trkpt lat="42.29850922641766" lon="13.284302345439654"><ele>817.0</ele><time>2026-05-02T15:21:49Z</time></trkpt><trkpt lat="42.29859920110415" lon="13.284341177497053"><ele>817.0</ele><time>2026-05-02T15:21:50Z</time></trkpt><trkpt lat="42.29869284369537" lon="13.284383394274073"><ele>817.0</ele><time>2026-05-02T15:21:51Z</time></trkpt><trkpt lat="42.29877927184659" lon="13.284465613631966"><ele>817.0</ele><time>2026-05-02T15:21:52Z</time></trkpt><trkpt lat="42.298848082315914" lon="13.284584059049111"><ele>817.0</ele><time>2026-05-02T15:21:53Z</time></trkpt><trkpt lat="42.29892552362979" lon="13.284694196328443"><ele>817.0</ele><time>2026-05-02T15:21:54Z</time></trkpt><trkpt lat="42.299012790715686" lon="13.284797752890118"><ele>815.8</ele><time>2026-05-02T15:21:55Z</time></trkpt><trkpt lat="42.29906962827949" lon="13.28493220489331"><ele>814.6</ele><time>2026-05-02T15:21:56Z</time></trkpt><trkpt lat="42.299132532279046" lon="13.28505288907468"><ele>813.4</ele><time>2026-05-02T15:21:57Z</time></trkpt><trkpt lat="42.2991892073937" lon="13.285177886533669"><ele>812.1999999999999</ele><time>2026-05-02T15:21:58Z</time></trkpt><trkpt lat="42.29923966143598" lon="13.285308614004789"><ele>811.0</ele><time>2026-05-02T15:21:59Z</time></trkpt><trkpt lat="42.29928449596733" lon="13.285442681357893"><ele>811.0</ele><time>2026-05-02T15:22:00Z</time></trkpt><trkpt lat="42.29932331715377" lon="13.285587910982239"><ele>811.0</ele><time>2026-05-02T15:22:01Z</time></trkpt><trkpt lat="42.299358244719336" lon="13.285748361742282"><ele>811.0</ele><time>2026-05-02T15:22:02Z</time></trkpt><trkpt lat="42.299403885353556" lon="13.285920285913393"><ele>811.0</ele><time>2026-05-02T15:22:03Z</time></trkpt><trkpt lat="42.299408913094254" lon="13.286106553444522"><ele>809.75</ele><time>2026-05-02T15:22:04Z</time></trkpt><trkpt lat="42.299422215606654" lon="13.286290383375237"><ele>808.5</ele><time>2026-05-02T15:22:05Z</time></trkpt><trkpt lat="42.29944434336512" lon="13.286485451068087"><ele>807.25</ele><time>2026-05-02T15:22:06Z</time></trkpt><trkpt lat="42.29945151327201" lon="13.286680713776928"><ele>806.0</ele><time>2026-05-02T15:22:07Z</time></trkpt><trkpt lat="42.299461447463585" lon="13.286864486867959"><ele>804.5</ele><time>2026-05-02T15:22:08Z</time></trkpt><trkpt lat="42.29947179589688" lon="13.287040699182805"><ele>803.0</ele><time>2026-05-02T15:22:09Z</time></trkpt><trkpt lat="42.299490285578635" lon="13.28720384811185"><ele>801.5</ele><time>2026-05-02T15:22:10Z</time></trkpt><trkpt lat="42.299521883269705" lon="13.287353211719457"><ele>800.0</ele><time>2026-05-02T15:22:11Z</time></trkpt><trkpt lat="42.29957714429653" lon="13.287486725579992"><ele>800.4</ele><time>2026-05-02T15:22:12Z</time></trkpt><trkpt lat="42.29965009437935" lon="13.287597197176725"><ele>800.8</ele><time>2026-05-02T15:22:13Z</time></trkpt><trkpt lat="42.299726216064435" lon="13.287702622782282"><ele>801.2</ele><time>2026-05-02T15:22:14Z</time></trkpt><trkpt lat="42.2998428626163" lon="13.287734003843083"><ele>801.6</ele><time>2026-05-02T15:22:15Z</time></trkpt><trkpt lat="42.29995353965188" lon="13.287740451366316"><ele>802.0</ele><time>2026-05-02T15:22:16Z</time></trkpt><trkpt lat="42.300075774532765" lon="13.287705569021336"><ele>802.0</ele><time>2026-05-02T15:22:17Z</time></trkpt><trkpt lat="42.300211836452824" lon="13.287662028819243"><ele>802.0</ele><time>2026-05-02T15:22:18Z</time></trkpt><trkpt lat="42.30036341242183" lon="13.287668715076409"><ele>802.0</ele><time>2026-05-02T15:22:19Z</time></trkpt><trkpt lat="42.3005229009522" lon="13.287642952400908"><ele>800.3333333333333</ele><time>2026-05-02T15:22:20Z</time></trkpt><trkpt lat="42.300692030499825" lon="13.287643196969762"><ele>798.6666666666667</ele><time>2026-05-02T15:22:21Z</time></trkpt><trkpt lat="42.3008529863914" lon="13.287641622236286"><ele>797.0</ele><time>2026-05-02T15:22:21.999Z</time></trkpt><trkpt lat="42.3010080687803" lon="13.287639460433253"><ele>797.0</ele><time>2026-05-02T15:22:22.999Z</time></trkpt><trkpt lat="42.301155241186144" lon="13.287623501607268"><ele>797.0</ele><time>2026-05-02T15:22:23.999Z</time></trkpt><trkpt lat="42.30129199708956" lon="13.287576048574422"><ele>797.0</ele><time>2026-05-02T15:22:24.999Z</time></trkpt><trkpt lat="42.301414544785885" lon="13.287500070082846"><ele>797.0</ele><time>2026-05-02T15:22:25.999Z</time></trkpt><trkpt lat="42.30152824163983" lon="13.287417599023003"><ele>793.8</ele><time>2026-05-02T15:22:26.999Z</time></trkpt><trkpt lat="42.30164674225244" lon="13.28736893943609"><ele>790.6</ele><time>2026-05-02T15:22:27.999Z</time></trkpt><trkpt lat="42.30174957975654" lon="13.287307435347023"><ele>787.4</ele><time>2026-05-02T15:22:28.999Z</time></trkpt><trkpt lat="42.30183726842103" lon="13.287294835162346"><ele>784.1999999999999</ele><time>2026-05-02T15:22:29.999Z</time></trkpt><trkpt lat="42.3019123631109" lon="13.287296739628893"><ele>781.0</ele><time>2026-05-02T15:22:30.999Z</time></trkpt><trkpt lat="42.301978188376246" lon="13.287304845479266"><ele>781.0</ele><time>2026-05-02T15:22:31.999Z</time></trkpt><trkpt lat="42.302082215734416" lon="13.287330453963467"><ele>781.0</ele><time>2026-05-02T15:22:33.999Z</time></trkpt><trkpt lat="42.302075668102034" lon="13.287547546750305"><ele>781.0</ele><time>2026-05-02T15:22:40.999Z</time></trkpt><trkpt lat="42.302063041668106" lon="13.287702237687345"><ele>781.0</ele><time>2026-05-02T15:22:42.999Z</time></trkpt><trkpt lat="42.30206704730591" lon="13.287788222004318"><ele>781.0</ele><time>2026-05-02T15:22:43.999Z</time></trkpt><trkpt lat="42.3020721578037" lon="13.287874593435951"><ele>780.9999999999999</ele><time>2026-05-02T15:22:44.999Z</time></trkpt><trkpt lat="42.30207357074425" lon="13.287985511450534"><ele>781.0</ele><time>2026-05-02T15:22:45.999Z</time></trkpt><trkpt lat="42.30207265819961" lon="13.288103831799654"><ele>781.0</ele><time>2026-05-02T15:22:46.999Z</time></trkpt><trkpt lat="42.302065271757684" lon="13.28823250442491"><ele>781.0</ele><time>2026-05-02T15:22:47.999Z</time></trkpt><trkpt lat="42.302059163014185" lon="13.288365367234961"><ele>780.9999999999999</ele><time>2026-05-02T15:22:48.999Z</time></trkpt><trkpt lat="42.302059128055845" lon="13.288474728371355"><ele>781.0</ele><time>2026-05-02T15:22:49.999Z</time></trkpt><trkpt lat="42.30206469245511" lon="13.288595216858628"><ele>780.6666666666666</ele><time>2026-05-02T15:22:50.999Z</time></trkpt><trkpt lat="42.30207183284254" lon="13.288716555266136"><ele>780.3333333333333</ele><time>2026-05-02T15:22:51.999Z</time></trkpt><trkpt lat="42.30209240453023" lon="13.288803599810256"><ele>780.0</ele><time>2026-05-02T15:22:53.999Z</time></trkpt><trkpt lat="42.302149841970916" lon="13.288846428224012"><ele>779.6666666666667</ele><time>2026-05-02T15:22:55.999Z</time></trkpt><trkpt lat="42.30223394983645" lon="13.288903000894754"><ele>779.3333333333334</ele><time>2026-05-02T15:22:57.999Z</time></trkpt><trkpt lat="42.30235739383547" lon="13.288951675383426"><ele>779.0</ele><time>2026-05-02T15:22:59.999Z</time></trkpt><trkpt lat="42.302423070249496" lon="13.288973350065538"><ele>779.0000000000001</ele><time>2026-05-02T15:23:00.999Z</time></trkpt><trkpt lat="42.30248558408571" lon="13.288990985737337"><ele>779.0</ele><time>2026-05-02T15:23:01.999Z</time></trkpt><trkpt lat="42.30256007915377" lon="13.28899427577345"><ele>779.0</ele><time>2026-05-02T15:23:02.999Z</time></trkpt><trkpt lat="42.30264469221151" lon="13.288983334414308"><ele>779.0</ele><time>2026-05-02T15:23:03.999Z</time></trkpt><trkpt lat="42.302745199646516" lon="13.288975625491812"><ele>779.0000000000001</ele><time>2026-05-02T15:23:05Z</time></trkpt><trkpt lat="42.30284867619338" lon="13.288965166158489"><ele>779.0</ele><time>2026-05-02T15:23:06Z</time></trkpt><trkpt lat="42.30295126446271" lon="13.288956606789835"><ele>779.0</ele><time>2026-05-02T15:23:07Z</time></trkpt><trkpt lat="42.30304472224263" lon="13.28893501131366"><ele>779.0</ele><time>2026-05-02T15:23:08Z</time></trkpt><trkpt lat="42.30312876325053" lon="13.288907383002753"><ele>779.0</ele><time>2026-05-02T15:23:09Z</time></trkpt><trkpt lat="42.30322823106379" lon="13.288876770907061"><ele>779.0</ele><time>2026-05-02T15:23:10Z</time></trkpt><trkpt lat="42.303321260570215" lon="13.288843134959606"><ele>779.0</ele><time>2026-05-02T15:23:11Z</time></trkpt><trkpt lat="42.30341232505138" lon="13.28881389776092"><ele>777.3333333333334</ele><time>2026-05-02T15:23:12Z</time></trkpt><trkpt lat="42.30349275965083" lon="13.28878353324936"><ele>775.6666666666667</ele><time>2026-05-02T15:23:13Z</time></trkpt><trkpt lat="42.30358000012849" lon="13.28875747194089"><ele>774.0</ele><time>2026-05-02T15:23:14Z</time></trkpt><trkpt lat="42.303666478724125" lon="13.288739534435386"><ele>772.3333333333333</ele><time>2026-05-02T15:23:15Z</time></trkpt><trkpt lat="42.30375647298071" lon="13.288738018347741"><ele>770.6666666666666</ele><time>2026-05-02T15:23:16Z</time></trkpt><trkpt lat="42.303841237449575" lon="13.288738219790133"><ele>769.0</ele><time>2026-05-02T15:23:17Z</time></trkpt><trkpt lat="42.30392431059872" lon="13.288720835454424"><ele>768.9999999999999</ele><time>2026-05-02T15:23:18Z</time></trkpt><trkpt lat="42.30400085643245" lon="13.288684042959579"><ele>769.0</ele><time>2026-05-02T15:23:19Z</time></trkpt><trkpt lat="42.304077681157544" lon="13.288673983041834"><ele>769.0</ele><time>2026-05-02T15:23:20Z</time></trkpt><trkpt lat="42.30415628937642" lon="13.28865346086211"><ele>769.0</ele><time>2026-05-02T15:23:21Z</time></trkpt><trkpt lat="42.3042395577629" lon="13.288634859396598"><ele>768.9999999999999</ele><time>2026-05-02T15:23:22Z</time></trkpt><trkpt lat="42.3043297218691" lon="13.28861528145401"><ele>769.0</ele><time>2026-05-02T15:23:23Z</time></trkpt><trkpt lat="42.30441018527989" lon="13.288588287820522"><ele>769.0</ele><time>2026-05-02T15:23:24Z</time></trkpt><trkpt lat="42.30449017043205" lon="13.288555742534676"><ele>769.0</ele><time>2026-05-02T15:23:25Z</time></trkpt><trkpt lat="42.30461001267492" lon="13.288501795123056"><ele>769.0</ele><time>2026-05-02T15:23:27Z</time></trkpt><trkpt lat="42.3047318572747" lon="13.288457503160068"><ele>769.0</ele><time>2026-05-02T15:23:29Z</time></trkpt><trkpt lat="42.30480524272437" lon="13.288431859966073"><ele>769.0</ele><time>2026-05-02T15:23:30Z</time></trkpt><trkpt lat="42.3048913273525" lon="13.288402446542749"><ele>768.8571428571428</ele><time>2026-05-02T15:23:31Z</time></trkpt><trkpt lat="42.30495853756543" lon="13.288370677454566"><ele>768.7142857142858</ele><time>2026-05-02T15:23:32Z</time></trkpt><trkpt lat="42.305025920476545" lon="13.288338131638952"><ele>768.5714285714286</ele><time>2026-05-02T15:23:33Z</time></trkpt><trkpt lat="42.30509206396046" lon="13.288317870381242"><ele>768.4285714285713</ele><time>2026-05-02T15:23:34Z</time></trkpt><trkpt lat="42.305161242713275" lon="13.288311274625586"><ele>768.2857142857142</ele><time>2026-05-02T15:23:35Z</time></trkpt><trkpt lat="42.30523297386256" lon="13.288308215414869"><ele>768.1428571428571</ele><time>2026-05-02T15:23:36Z</time></trkpt><trkpt lat="42.30532105872244" lon="13.288305248799864"><ele>768.0</ele><time>2026-05-02T15:23:37Z</time></trkpt><trkpt lat="42.305405810130715" lon="13.288310188267904"><ele>768.0</ele><time>2026-05-02T15:23:38Z</time></trkpt><trkpt lat="42.30549549247833" lon="13.288316438429076"><ele>768.0</ele><time>2026-05-02T15:23:39Z</time></trkpt><trkpt lat="42.305570251049765" lon="13.288332495267447"><ele>768.0</ele><time>2026-05-02T15:23:40Z</time></trkpt><trkpt lat="42.30564546923831" lon="13.288335210895108"><ele>768.0</ele><time>2026-05-02T15:23:41Z</time></trkpt><trkpt lat="42.30571066707198" lon="13.288331422979702"><ele>768.0</ele><time>2026-05-02T15:23:42Z</time></trkpt><trkpt lat="42.30581531964091" lon="13.288284325126726"><ele>768.0</ele><time>2026-05-02T15:23:44Z</time></trkpt><trkpt lat="42.30587541427537" lon="13.288257112954362"><ele>767.8333333333334</ele><time>2026-05-02T15:23:45Z</time></trkpt><trkpt lat="42.30594089816391" lon="13.288229166001559"><ele>767.6666666666666</ele><time>2026-05-02T15:23:46Z</time></trkpt><trkpt lat="42.30600313110531" lon="13.288194415408201"><ele>767.5</ele><time>2026-05-02T15:23:47Z</time></trkpt><trkpt lat="42.30607160965425" lon="13.288150023118211"><ele>767.3333333333333</ele><time>2026-05-02T15:23:48Z</time></trkpt><trkpt lat="42.306141305258855" lon="13.288113359976084"><ele>767.1666666666666</ele><time>2026-05-02T15:23:49Z</time></trkpt><trkpt lat="42.30622665972291" lon="13.288072492022893"><ele>767.0</ele><time>2026-05-02T15:23:50Z</time></trkpt><trkpt lat="42.30631788845483" lon="13.288026843048808"><ele>766.6</ele><time>2026-05-02T15:23:51Z</time></trkpt><trkpt lat="42.3064010282618" lon="13.287975372336993"><ele>766.2</ele><time>2026-05-02T15:23:52Z</time></trkpt><trkpt lat="42.306486320288144" lon="13.287928550166853"><ele>765.8</ele><time>2026-05-02T15:23:53Z</time></trkpt><trkpt lat="42.30657216819106" lon="13.287875226828161"><ele>765.4</ele><time>2026-05-02T15:23:54Z</time></trkpt><trkpt lat="42.306644824881324" lon="13.287847217411379"><ele>765.0</ele><time>2026-05-02T15:23:55Z</time></trkpt><trkpt lat="42.30674133454228" lon="13.287820102362586"><ele>765.0</ele><time>2026-05-02T15:23:57Z</time></trkpt><trkpt lat="42.306826923206856" lon="13.287799805259846"><ele>765.0</ele><time>2026-05-02T15:23:59Z</time></trkpt><trkpt lat="42.30694128002308" lon="13.287838875107619"><ele>765.0</ele><time>2026-05-02T15:24:01Z</time></trkpt><trkpt lat="42.30698889829644" lon="13.287773510076292"><ele>765.0</ele><time>2026-05-02T15:24:04Z</time></trkpt><trkpt lat="42.30705292408321" lon="13.287664100284909"><ele>765.0</ele><time>2026-05-02T15:24:06Z</time></trkpt><trkpt lat="42.307101495527164" lon="13.287599669817046"><ele>765.0</ele><time>2026-05-02T15:24:07Z</time></trkpt><trkpt lat="42.307147319766806" lon="13.287536177721805"><ele>765.0</ele><time>2026-05-02T15:24:08Z</time></trkpt><trkpt lat="42.30723051774204" lon="13.28743340908154"><ele>765.0</ele><time>2026-05-02T15:24:10Z</time></trkpt><trkpt lat="42.307286559411516" lon="13.287350122137603"><ele>765.0</ele><time>2026-05-02T15:24:11Z</time></trkpt><trkpt lat="42.30735542136918" lon="13.2872522579018"><ele>765.0</ele><time>2026-05-02T15:24:11.999Z</time></trkpt><trkpt lat="42.30742944552103" lon="13.287152894319386"><ele>765.0</ele><time>2026-05-02T15:24:12.999Z</time></trkpt><trkpt lat="42.30750329026797" lon="13.2870504011435"><ele>764.5</ele><time>2026-05-02T15:24:13.999Z</time></trkpt><trkpt lat="42.307585431167325" lon="13.2869457109955"><ele>764.0</ele><time>2026-05-02T15:24:14.999Z</time></trkpt><trkpt lat="42.30767252752492" lon="13.286841784783803"><ele>763.5</ele><time>2026-05-02T15:24:15.999Z</time></trkpt><trkpt lat="42.30776180938291" lon="13.286745218106805"><ele>763.0</ele><time>2026-05-02T15:24:16.999Z</time></trkpt><trkpt lat="42.307854160949596" lon="13.286661163809201"><ele>763.0</ele><time>2026-05-02T15:24:17.999Z</time></trkpt><trkpt lat="42.30795305372953" lon="13.286589247884258"><ele>763.0</ele><time>2026-05-02T15:24:18.999Z</time></trkpt><trkpt lat="42.30805469856956" lon="13.286523494960154"><ele>763.0</ele><time>2026-05-02T15:24:19.999Z</time></trkpt><trkpt lat="42.308158365802996" lon="13.286456395723402"><ele>763.0</ele><time>2026-05-02T15:24:20.999Z</time></trkpt><trkpt lat="42.30826418974863" lon="13.286387659112053"><ele>761.5</ele><time>2026-05-02T15:24:21.999Z</time></trkpt><trkpt lat="42.308376017453895" lon="13.286313993814266"><ele>760.0</ele><time>2026-05-02T15:24:22.999Z</time></trkpt><trkpt lat="42.30849127038673" lon="13.286240097346749"><ele>758.5</ele><time>2026-05-02T15:24:23.999Z</time></trkpt><trkpt lat="42.30860504129416" lon="13.286166529043644"><ele>757.0</ele><time>2026-05-02T15:24:24.999Z</time></trkpt><trkpt lat="42.30871805146312" lon="13.286095654027962"><ele>757.0</ele><time>2026-05-02T15:24:25.999Z</time></trkpt><trkpt lat="42.308824650256966" lon="13.286033766027199"><ele>757.0</ele><time>2026-05-02T15:24:26.999Z</time></trkpt><trkpt lat="42.308928882149885" lon="13.285984301594828"><ele>757.0</ele><time>2026-05-02T15:24:27.999Z</time></trkpt><trkpt lat="42.30903622059356" lon="13.285945527105127"><ele>757.0</ele><time>2026-05-02T15:24:28.999Z</time></trkpt><trkpt lat="42.30914703309512" lon="13.285918299429685"><ele>757.0</ele><time>2026-05-02T15:24:29.999Z</time></trkpt><trkpt lat="42.30925619942092" lon="13.28590171051236"><ele>757.0</ele><time>2026-05-02T15:24:30.999Z</time></trkpt><trkpt lat="42.30935459618007" lon="13.285893361252937"><ele>757.0</ele><time>2026-05-02T15:24:31.999Z</time></trkpt><trkpt lat="42.309447234748916" lon="13.285886433213502"><ele>757.0</ele><time>2026-05-02T15:24:32.999Z</time></trkpt><trkpt lat="42.309532419432735" lon="13.28587617160281"><ele>757.0</ele><time>2026-05-02T15:24:33.999Z</time></trkpt><trkpt lat="42.30959852506767" lon="13.285868383406726"><ele>757.0</ele><time>2026-05-02T15:24:34.999Z</time></trkpt><trkpt lat="42.309679329632836" lon="13.285864452521151"><ele>757.0</ele><time>2026-05-02T15:24:36.999Z</time></trkpt><trkpt lat="42.30958989431284" lon="13.285940988418467"><ele>757.0</ele><time>2026-05-02T15:24:41.999Z</time></trkpt><trkpt lat="42.30951239918421" lon="13.285961566701236"><ele>757.0</ele><time>2026-05-02T15:24:42.999Z</time></trkpt><trkpt lat="42.30943625649015" lon="13.285954537981869"><ele>757.0</ele><time>2026-05-02T15:24:43.999Z</time></trkpt><trkpt lat="42.309345170450435" lon="13.285957916694402"><ele>757.0</ele><time>2026-05-02T15:24:44.999Z</time></trkpt><trkpt lat="42.30925174275043" lon="13.28597164898641"><ele>757.0</ele><time>2026-05-02T15:24:45.999Z</time></trkpt><trkpt lat="42.30916260007882" lon="13.286004782383229"><ele>757.0</ele><time>2026-05-02T15:24:46.999Z</time></trkpt><trkpt lat="42.309077480532075" lon="13.286050673267846"><ele>757.0</ele><time>2026-05-02T15:24:47.999Z</time></trkpt><trkpt lat="42.30899286851103" lon="13.28608884664393"><ele>757.0</ele><time>2026-05-02T15:24:48.999Z</time></trkpt><trkpt lat="42.308913367834116" lon="13.286124460427784"><ele>757.0</ele><time>2026-05-02T15:24:49.999Z</time></trkpt><trkpt lat="42.308843552183724" lon="13.286173370637881"><ele>757.0</ele><time>2026-05-02T15:24:50.999Z</time></trkpt><trkpt lat="42.30877255777635" lon="13.286216619531796"><ele>757.0</ele><time>2026-05-02T15:24:51.999Z</time></trkpt><trkpt lat="42.30869407830483" lon="13.286252280155649"><ele>757.0</ele><time>2026-05-02T15:24:52.999Z</time></trkpt><trkpt lat="42.308620019300854" lon="13.286295747805918"><ele>757.0</ele><time>2026-05-02T15:24:53.999Z</time></trkpt><trkpt lat="42.30854811287667" lon="13.28633597973385"><ele>757.0</ele><time>2026-05-02T15:24:54.999Z</time></trkpt><trkpt lat="42.30848944210124" lon="13.286379792276145"><ele>757.0</ele><time>2026-05-02T15:24:55.999Z</time></trkpt><trkpt lat="42.30845349992142" lon="13.286531453763208"><ele>757.0</ele><time>2026-05-02T15:24:57.999Z</time></trkpt><trkpt lat="42.308492851326555" lon="13.286606674861636"><ele>759.0</ele><time>2026-05-02T15:24:58.999Z</time></trkpt><trkpt lat="42.30855562033877" lon="13.286644495557319"><ele>761.0</ele><time>2026-05-02T15:24:59.999Z</time></trkpt><trkpt lat="42.30863603496243" lon="13.286639410582467"><ele>763.0</ele><time>2026-05-02T15:25:00.999Z</time></trkpt><trkpt lat="42.30873978096834" lon="13.286611221962646"><ele>765.0</ele><time>2026-05-02T15:25:01.999Z</time></trkpt><trkpt lat="42.30886835148862" lon="13.286588955601982"><ele>767.0</ele><time>2026-05-02T15:25:02.999Z</time></trkpt><trkpt lat="42.30899721491017" lon="13.28657820214496"><ele>769.0</ele><time>2026-05-02T15:25:03.999Z</time></trkpt><trkpt lat="42.309137841292035" lon="13.286566767913971"><ele>771.0</ele><time>2026-05-02T15:25:04.999Z</time></trkpt><trkpt lat="42.30929359237042" lon="13.28654923028196"><ele>773.0</ele><time>2026-05-02T15:25:05.999Z</time></trkpt><trkpt lat="42.30945708268535" lon="13.286532786045083"><ele>773.0</ele><time>2026-05-02T15:25:06.999Z</time></trkpt><trkpt lat="42.30962652510506" lon="13.286512507775491"><ele>773.0</ele><time>2026-05-02T15:25:07.999Z</time></trkpt><trkpt lat="42.30979382407199" lon="13.286485059940816"><ele>773.0</ele><time>2026-05-02T15:25:08.999Z</time></trkpt><trkpt lat="42.309959869236216" lon="13.286472506801669"><ele>769.6666666666667</ele><time>2026-05-02T15:25:09.999Z</time></trkpt><trkpt lat="42.310138173798954" lon="13.286444661575082"><ele>766.3333333333334</ele><time>2026-05-02T15:25:11Z</time></trkpt><trkpt lat="42.31031306520256" lon="13.286415139109925"><ele>763.0</ele><time>2026-05-02T15:25:12Z</time></trkpt><trkpt lat="42.31047652407433" lon="13.286367873866727"><ele>766.3333333333334</ele><time>2026-05-02T15:25:13Z</time></trkpt><trkpt lat="42.310630312189936" lon="13.286350369087387"><ele>769.6666666666667</ele><time>2026-05-02T15:25:14Z</time></trkpt><trkpt lat="42.31078443431595" lon="13.286348018111745"><ele>773.0</ele><time>2026-05-02T15:25:15Z</time></trkpt><trkpt lat="42.31093388004161" lon="13.286358123106622"><ele>773.0</ele><time>2026-05-02T15:25:16Z</time></trkpt><trkpt lat="42.311072037843594" lon="13.286384134749312"><ele>773.0</ele><time>2026-05-02T15:25:17Z</time></trkpt><trkpt lat="42.31119659174231" lon="13.286329262039663"><ele>773.0</ele><time>2026-05-02T15:25:18Z</time></trkpt><trkpt lat="42.31130131286191" lon="13.286269900532078"><ele>773.0</ele><time>2026-05-02T15:25:19Z</time></trkpt><trkpt lat="42.31139280542011" lon="13.286190458786377"><ele>775.4</ele><time>2026-05-02T15:25:20Z</time></trkpt><trkpt lat="42.311472853522254" lon="13.286091196635402"><ele>777.8</ele><time>2026-05-02T15:25:20.999Z</time></trkpt><trkpt lat="42.31154233901655" lon="13.286018111437096"><ele>780.2</ele><time>2026-05-02T15:25:21.999Z</time></trkpt><trkpt lat="42.31163300031586" lon="13.286056991946369"><ele>782.6</ele><time>2026-05-02T15:25:23.999Z</time></trkpt><trkpt lat="42.31164691769067" lon="13.286194353866554"><ele>785.0</ele><time>2026-05-02T15:25:25.999Z</time></trkpt><trkpt lat="42.31159743902129" lon="13.286303689851081"><ele>786.5</ele><time>2026-05-02T15:25:26.999Z</time></trkpt><trkpt lat="42.311533668785756" lon="13.28643080753198"><ele>788.0</ele><time>2026-05-02T15:25:27.999Z</time></trkpt><trkpt lat="42.31146437164951" lon="13.286585253437835"><ele>789.5</ele><time>2026-05-02T15:25:28.999Z</time></trkpt><trkpt lat="42.31140314678529" lon="13.286740078647952"><ele>791.0</ele><time>2026-05-02T15:25:30Z</time></trkpt><trkpt lat="42.31133261893609" lon="13.286902752634038"><ele>791.0</ele><time>2026-05-02T15:25:31Z</time></trkpt><trkpt lat="42.31125247755691" lon="13.287064005150539"><ele>791.0</ele><time>2026-05-02T15:25:32Z</time></trkpt><trkpt lat="42.31116840134468" lon="13.28721861992687"><ele>791.0</ele><time>2026-05-02T15:25:33Z</time></trkpt><trkpt lat="42.311077558634736" lon="13.28736125484205"><ele>791.0</ele><time>2026-05-02T15:25:34Z</time></trkpt><trkpt lat="42.31097773892225" lon="13.287489144767024"><ele>792.25</ele><time>2026-05-02T15:25:35Z</time></trkpt><trkpt lat="42.31086704262788" lon="13.287604068053076"><ele>793.5</ele><time>2026-05-02T15:25:36Z</time></trkpt><trkpt lat="42.31074706675804" lon="13.287715987189253"><ele>794.75</ele><time>2026-05-02T15:25:37Z</time></trkpt><trkpt lat="42.31061971243597" lon="13.287845284027314"><ele>796.0</ele><time>2026-05-02T15:25:38Z</time></trkpt><trkpt lat="42.3104905319438" lon="13.287977224572508"><ele>796.6666666666666</ele><time>2026-05-02T15:25:39Z</time></trkpt><trkpt lat="42.310365520948565" lon="13.288109341348983"><ele>797.3333333333333</ele><time>2026-05-02T15:25:40Z</time></trkpt><trkpt lat="42.31023360619826" lon="13.288246104237956"><ele>798.0</ele><time>2026-05-02T15:25:41Z</time></trkpt><trkpt lat="42.310108808987074" lon="13.288383931351273"><ele>798.0</ele><time>2026-05-02T15:25:42Z</time></trkpt><trkpt lat="42.30999333570771" lon="13.28851869325431"><ele>798.0</ele><time>2026-05-02T15:25:43Z</time></trkpt><trkpt lat="42.30987347832201" lon="13.288655252523109"><ele>798.0</ele><time>2026-05-02T15:25:44Z</time></trkpt><trkpt lat="42.30975124671687" lon="13.288793289903964"><ele>798.0</ele><time>2026-05-02T15:25:45Z</time></trkpt><trkpt lat="42.309628730926256" lon="13.288937273517151"><ele>798.0</ele><time>2026-05-02T15:25:46Z</time></trkpt><trkpt lat="42.309512959725055" lon="13.289075684083874"><ele>798.0</ele><time>2026-05-02T15:25:47Z</time></trkpt><trkpt lat="42.309398515347304" lon="13.289201021131971"><ele>798.0</ele><time>2026-05-02T15:25:48Z</time></trkpt><trkpt lat="42.309294614776626" lon="13.289312980261979"><ele>798.0</ele><time>2026-05-02T15:25:49Z</time></trkpt><trkpt lat="42.309197903303534" lon="13.289419708265902"><ele>798.0</ele><time>2026-05-02T15:25:50Z</time></trkpt><trkpt lat="42.309107773397386" lon="13.289519299396366"><ele>798.0</ele><time>2026-05-02T15:25:51Z</time></trkpt><trkpt lat="42.30902709959035" lon="13.289608450438232"><ele>798.0</ele><time>2026-05-02T15:25:52Z</time></trkpt><trkpt lat="42.30895336612324" lon="13.28969197494994"><ele>798.0</ele><time>2026-05-02T15:25:53Z</time></trkpt><trkpt lat="42.30888144265477" lon="13.289742144959135"><ele>798.0</ele><time>2026-05-02T15:25:54Z</time></trkpt><trkpt lat="42.30882990633041" lon="13.289793523866553"><ele>798.0</ele><time>2026-05-02T15:25:55Z</time></trkpt><trkpt lat="42.30876058202522" lon="13.289862636353032"><ele>798.0</ele><time>2026-05-02T15:25:57Z</time></trkpt><trkpt lat="42.30879985644115" lon="13.290065763191938"><ele>798.5714285714286</ele><time>2026-05-02T15:25:59Z</time></trkpt><trkpt lat="42.30883760269061" lon="13.290136017097067"><ele>799.1428571428571</ele><time>2026-05-02T15:26:00Z</time></trkpt><trkpt lat="42.30888025739381" lon="13.290219495819882"><ele>799.7142857142858</ele><time>2026-05-02T15:26:01Z</time></trkpt><trkpt lat="42.308924765350206" lon="13.290304833135885"><ele>800.2857142857142</ele><time>2026-05-02T15:26:02Z</time></trkpt><trkpt lat="42.308968301488" lon="13.290388183246174"><ele>800.8571428571429</ele><time>2026-05-02T15:26:03Z</time></trkpt><trkpt lat="42.30900735386326" lon="13.290464307053577"><ele>801.4285714285714</ele><time>2026-05-02T15:26:04Z</time></trkpt><trkpt lat="42.30905802411322" lon="13.290517866015813"><ele>802.0</ele><time>2026-05-02T15:26:05Z</time></trkpt><trkpt lat="42.309119209925335" lon="13.290636425835615"><ele>802.0</ele><time>2026-05-02T15:26:07Z</time></trkpt><trkpt lat="42.309146875259735" lon="13.290736275317673"><ele>802.0</ele><time>2026-05-02T15:26:09Z</time></trkpt><trkpt lat="42.3091220843453" lon="13.290841440076825"><ele>802.0</ele><time>2026-05-02T15:26:10.999Z</time></trkpt><trkpt lat="42.30916528551524" lon="13.291005751403816"><ele>802.0</ele><time>2026-05-02T15:26:12.999Z</time></trkpt><trkpt lat="42.30919461748083" lon="13.291084188574033"><ele>802.0</ele><time>2026-05-02T15:26:13.999Z</time></trkpt><trkpt lat="42.30924762838361" lon="13.291242106012582"><ele>802.0</ele><time>2026-05-02T15:26:15.999Z</time></trkpt><trkpt lat="42.3092660972308" lon="13.291347686879828"><ele>802.0</ele><time>2026-05-02T15:26:16.999Z</time></trkpt><trkpt lat="42.30929891464708" lon="13.291435963849239"><ele>802.0</ele><time>2026-05-02T15:26:17.999Z</time></trkpt><trkpt lat="42.3092984954023" lon="13.291528429999385"><ele>802.0</ele><time>2026-05-02T15:26:18.999Z</time></trkpt><trkpt lat="42.309322271440685" lon="13.291678511080681"><ele>802.0</ele><time>2026-05-02T15:26:20.999Z</time></trkpt><trkpt lat="42.309342879933276" lon="13.291830673679565"><ele>801.6</ele><time>2026-05-02T15:26:22.999Z</time></trkpt><trkpt lat="42.30936022769505" lon="13.291959416596427"><ele>801.2</ele><time>2026-05-02T15:26:24.999Z</time></trkpt><trkpt lat="42.309377104515384" lon="13.29208466454175"><ele>800.8</ele><time>2026-05-02T15:26:26.999Z</time></trkpt><trkpt lat="42.30940293156448" lon="13.292202771470475"><ele>800.4</ele><time>2026-05-02T15:26:28.999Z</time></trkpt><trkpt lat="42.30942331864213" lon="13.292326710775354"><ele>800.0</ele><time>2026-05-02T15:26:30.999Z</time></trkpt><trkpt lat="42.30943977125873" lon="13.292462642036265"><ele>799.6666666666667</ele><time>2026-05-02T15:26:32.999Z</time></trkpt><trkpt lat="42.30949187983166" lon="13.292610930667145"><ele>799.3333333333334</ele><time>2026-05-02T15:26:34.999Z</time></trkpt><trkpt lat="42.30951415183367" lon="13.292692263869307"><ele>799.0</ele><time>2026-05-02T15:26:35.999Z</time></trkpt><trkpt lat="42.30952832982146" lon="13.292792964878592"><ele>798.6666666666667</ele><time>2026-05-02T15:26:36.999Z</time></trkpt><trkpt lat="42.30954153698825" lon="13.29290716507602"><ele>798.3333333333334</ele><time>2026-05-02T15:26:37.999Z</time></trkpt><trkpt lat="42.30954594686432" lon="13.293018731288363"><ele>798.0</ele><time>2026-05-02T15:26:38.999Z</time></trkpt><trkpt lat="42.30955104279717" lon="13.293121227842084"><ele>797.0</ele><time>2026-05-02T15:26:39.999Z</time></trkpt><trkpt lat="42.309557368986596" lon="13.293220742483548"><ele>796.0</ele><time>2026-05-02T15:26:40.999Z</time></trkpt><trkpt lat="42.309575253274666" lon="13.293392846608226"><ele>795.0</ele><time>2026-05-02T15:26:42.999Z</time></trkpt><trkpt lat="42.3095788897675" lon="13.2935348996592"><ele>794.0</ele><time>2026-05-02T15:26:44.999Z</time></trkpt><trkpt lat="42.30961035220556" lon="13.29362389394867"><ele>793.0</ele><time>2026-05-02T15:26:46.999Z</time></trkpt><trkpt lat="42.30968897011146" lon="13.293649589325657"><ele>790.8</ele><time>2026-05-02T15:26:48.999Z</time></trkpt><trkpt lat="42.30977870052223" lon="13.293590151515764"><ele>788.5999999999999</ele><time>2026-05-02T15:26:50.999Z</time></trkpt><trkpt lat="42.309876658576705" lon="13.293512701924504"><ele>786.4000000000001</ele><time>2026-05-02T15:26:52.999Z</time></trkpt><trkpt lat="42.30996751507381" lon="13.2935309877049"><ele>784.2</ele><time>2026-05-02T15:26:54.999Z</time></trkpt><trkpt lat="42.31004298391174" lon="13.29360549201459"><ele>782.0</ele><time>2026-05-02T15:26:56.999Z</time></trkpt><trkpt lat="42.310071167394085" lon="13.293681670571136"><ele>782.0</ele><time>2026-05-02T15:26:57.999Z</time></trkpt><trkpt lat="42.31009594613536" lon="13.293837169758943"><ele>782.0</ele><time>2026-05-02T15:26:59.999Z</time></trkpt><trkpt lat="42.31005971720276" lon="13.293952670682184"><ele>782.0</ele><time>2026-05-02T15:27:01.999Z</time></trkpt><trkpt lat="42.309986497113584" lon="13.29403316558479"><ele>782.0</ele><time>2026-05-02T15:27:03.999Z</time></trkpt><trkpt lat="42.30987689910862" lon="13.29409170180102"><ele>782.0</ele><time>2026-05-02T15:27:05.999Z</time></trkpt><trkpt lat="42.3098068109574" lon="13.294113771248663"><ele>782.1666666666667</ele><time>2026-05-02T15:27:06.999Z</time></trkpt><trkpt lat="42.30973288370396" lon="13.294141636351311"><ele>782.3333333333334</ele><time>2026-05-02T15:27:07.999Z</time></trkpt><trkpt lat="42.309652820476536" lon="13.294160599198113"><ele>782.5</ele><time>2026-05-02T15:27:08.999Z</time></trkpt><trkpt lat="42.30958769202977" lon="13.294172871310721"><ele>782.6666666666667</ele><time>2026-05-02T15:27:09.999Z</time></trkpt><trkpt lat="42.30949929793918" lon="13.294219969841016"><ele>782.8333333333334</ele><time>2026-05-02T15:27:11.999Z</time></trkpt><trkpt lat="42.30944474026892" lon="13.294369952841812"><ele>783.0</ele><time>2026-05-02T15:27:13.999Z</time></trkpt><trkpt lat="42.30945060589044" lon="13.294517827513035"><ele>783.0</ele><time>2026-05-02T15:27:15.999Z</time></trkpt><trkpt lat="42.30947984714991" lon="13.294640286347848"><ele>783.0</ele><time>2026-05-02T15:27:17.999Z</time></trkpt><trkpt lat="42.309508577660445" lon="13.294733995950914"><ele>783.0</ele><time>2026-05-02T15:27:19.999Z</time></trkpt><trkpt lat="42.30949391111586" lon="13.294856052713618"><ele>783.0</ele><time>2026-05-02T15:27:21.999Z</time></trkpt><trkpt lat="42.30945131809603" lon="13.295007678298965"><ele>783.0</ele><time>2026-05-02T15:27:23.999Z</time></trkpt><trkpt lat="42.309416841153876" lon="13.29508730809259"><ele>782.1666666666666</ele><time>2026-05-02T15:27:24.999Z</time></trkpt><trkpt lat="42.30937604419195" lon="13.295185437339903"><ele>781.3333333333333</ele><time>2026-05-02T15:27:25.999Z</time></trkpt><trkpt lat="42.30932880557585" lon="13.295292408611497"><ele>780.5</ele><time>2026-05-02T15:27:26.999Z</time></trkpt><trkpt lat="42.309281717401596" lon="13.295404767480024"><ele>779.6666666666666</ele><time>2026-05-02T15:27:27.999Z</time></trkpt><trkpt lat="42.309243978830615" lon="13.295518054968932"><ele>778.8333333333333</ele><time>2026-05-02T15:27:28.999Z</time></trkpt><trkpt lat="42.30921752453513" lon="13.29560972525549"><ele>778.0</ele><time>2026-05-02T15:27:29.999Z</time></trkpt><trkpt lat="42.30918888776061" lon="13.295688414547934"><ele>776.5999999999999</ele><time>2026-05-02T15:27:30.999Z</time></trkpt><trkpt lat="42.30913235536415" lon="13.295841238948753"><ele>775.1999999999999</ele><time>2026-05-02T15:27:32.999Z</time></trkpt><trkpt lat="42.309097507039056" lon="13.295923744602188"><ele>773.8</ele><time>2026-05-02T15:27:33.999Z</time></trkpt><trkpt lat="42.30905695774172" lon="13.296001434452098"><ele>772.4</ele><time>2026-05-02T15:27:34.999Z</time></trkpt><trkpt lat="42.309003678587885" lon="13.296094273042465"><ele>771.0</ele><time>2026-05-02T15:27:35.999Z</time></trkpt><trkpt lat="42.30894444883409" lon="13.29619688115828"><ele>771.5999999999999</ele><time>2026-05-02T15:27:36.999Z</time></trkpt><trkpt lat="42.30888769718016" lon="13.296311294631224"><ele>772.2</ele><time>2026-05-02T15:27:37.999Z</time></trkpt><trkpt lat="42.30882996724482" lon="13.296434977851108"><ele>772.8</ele><time>2026-05-02T15:27:38.999Z</time></trkpt><trkpt lat="42.30878001325494" lon="13.296535782409485"><ele>773.4000000000001</ele><time>2026-05-02T15:27:39.999Z</time></trkpt><trkpt lat="42.30873535649622" lon="13.296660767744884"><ele>774.0</ele><time>2026-05-02T15:27:40.999Z</time></trkpt><trkpt lat="42.30869924308727" lon="13.29677830246121"><ele>774.0</ele><time>2026-05-02T15:27:41.999Z</time></trkpt><trkpt lat="42.30866733208937" lon="13.296879498012444"><ele>774.0</ele><time>2026-05-02T15:27:42.999Z</time></trkpt><trkpt lat="42.30864300239382" lon="13.296962364784164"><ele>774.0</ele><time>2026-05-02T15:27:43.999Z</time></trkpt><trkpt lat="42.308607221813375" lon="13.297062655423188"><ele>774.0</ele><time>2026-05-02T15:27:44.999Z</time></trkpt><trkpt lat="42.30855691359139" lon="13.297158605869155"><ele>774.0</ele><time>2026-05-02T15:27:45.999Z</time></trkpt><trkpt lat="42.30850322716082" lon="13.297259463332278"><ele>774.0</ele><time>2026-05-02T15:27:46.999Z</time></trkpt><trkpt lat="42.308453694766776" lon="13.297341497507192"><ele>773.5</ele><time>2026-05-02T15:27:47.999Z</time></trkpt><trkpt lat="42.30837307666184" lon="13.29746455212785"><ele>773.0</ele><time>2026-05-02T15:27:49.999Z</time></trkpt><trkpt lat="42.30833656895254" lon="13.29760468157037"><ele>772.5</ele><time>2026-05-02T15:27:51.999Z</time></trkpt><trkpt lat="42.30833718784788" lon="13.29769752482182"><ele>772.0</ele><time>2026-05-02T15:27:52.999Z</time></trkpt><trkpt lat="42.308344096880994" lon="13.297795314922245"><ele>771.5</ele><time>2026-05-02T15:27:53.999Z</time></trkpt><trkpt lat="42.3083520692638" lon="13.297890806208864"><ele>771.0</ele><time>2026-05-02T15:27:54.999Z</time></trkpt><trkpt lat="42.308361179361995" lon="13.297986277110915"><ele>770.4</ele><time>2026-05-02T15:27:55.999Z</time></trkpt><trkpt lat="42.30838219518103" lon="13.298132240169503"><ele>769.8</ele><time>2026-05-02T15:27:57.999Z</time></trkpt><trkpt lat="42.30838838732613" lon="13.298271847274982"><ele>769.1999999999999</ele><time>2026-05-02T15:27:59.999Z</time></trkpt><trkpt lat="42.30831278441239" lon="13.29837297861546"><ele>768.5999999999999</ele><time>2026-05-02T15:28:01.999Z</time></trkpt><trkpt lat="42.30824969808895" lon="13.298416754006116"><ele>768.0</ele><time>2026-05-02T15:28:02.999Z</time></trkpt><trkpt lat="42.308188849822415" lon="13.298474140042789"><ele>768.0</ele><time>2026-05-02T15:28:03.999Z</time></trkpt><trkpt lat="42.30812888461297" lon="13.298536300853348"><ele>768.0</ele><time>2026-05-02T15:28:04.999Z</time></trkpt><trkpt lat="42.30806438591494" lon="13.298573668935976"><ele>768.0</ele><time>2026-05-02T15:28:05.999Z</time></trkpt><trkpt lat="42.30799277662786" lon="13.298580869792204"><ele>768.0</ele><time>2026-05-02T15:28:06.999Z</time></trkpt><trkpt lat="42.30790997496741" lon="13.298588152038619"><ele>768.0</ele><time>2026-05-02T15:28:07.999Z</time></trkpt><trkpt lat="42.30782776458321" lon="13.29859049070271"><ele>768.0</ele><time>2026-05-02T15:28:08.999Z</time></trkpt><trkpt lat="42.307758076667" lon="13.298601409194422"><ele>769.4</ele><time>2026-05-02T15:28:09.999Z</time></trkpt><trkpt lat="42.307641650046826" lon="13.298667494675865"><ele>770.8</ele><time>2026-05-02T15:28:11.999Z</time></trkpt><trkpt lat="42.30758470225937" lon="13.298737948690892"><ele>772.2</ele><time>2026-05-02T15:28:12.999Z</time></trkpt><trkpt lat="42.30749900764517" lon="13.298854051154896"><ele>773.6</ele><time>2026-05-02T15:28:14.999Z</time></trkpt><trkpt lat="42.30747488550697" lon="13.29901399966707"><ele>775.0</ele><time>2026-05-02T15:28:16.999Z</time></trkpt><trkpt lat="42.30746818246339" lon="13.299109351674907"><ele>775.2</ele><time>2026-05-02T15:28:17.999Z</time></trkpt><trkpt lat="42.307448136016255" lon="13.299192485326346"><ele>775.4</ele><time>2026-05-02T15:28:18.999Z</time></trkpt><trkpt lat="42.30736530202812" lon="13.2992741175595"><ele>775.5999999999999</ele><time>2026-05-02T15:28:20.999Z</time></trkpt><trkpt lat="42.30724891180917" lon="13.299270899301382"><ele>775.8</ele><time>2026-05-02T15:28:22.999Z</time></trkpt><trkpt lat="42.307182234805225" lon="13.29928255709526"><ele>776.0</ele><time>2026-05-02T15:28:23.999Z</time></trkpt><trkpt lat="42.30706288527769" lon="13.299281994273642"><ele>776.0000000000001</ele><time>2026-05-02T15:28:25.999Z</time></trkpt><trkpt lat="42.306971172179345" lon="13.299236637334825"><ele>776.0</ele><time>2026-05-02T15:28:27.999Z</time></trkpt><trkpt lat="42.30690188123836" lon="13.299285343389828"><ele>776.0</ele><time>2026-05-02T15:28:29.999Z</time></trkpt><trkpt lat="42.30687146791021" lon="13.299366443844487"><ele>776.0</ele><time>2026-05-02T15:28:31.999Z</time></trkpt><trkpt lat="42.30682347856859" lon="13.299457784517674"><ele>776.0000000000001</ele><time>2026-05-02T15:28:34.999Z</time></trkpt><trkpt lat="42.3067395781234" lon="13.299464197985275"><ele>776.0</ele><time>2026-05-02T15:28:36.999Z</time></trkpt><trkpt lat="42.30665200475727" lon="13.299419036044302"><ele>776.0000000000001</ele><time>2026-05-02T15:28:38.999Z</time></trkpt><trkpt lat="42.306593167979024" lon="13.29947619760877"><ele>776.0</ele><time>2026-05-02T15:28:40.999Z</time></trkpt><trkpt lat="42.306560500585846" lon="13.299599123108285"><ele>776.0</ele><time>2026-05-02T15:28:42.999Z</time></trkpt><trkpt lat="42.306538190364044" lon="13.2996859743827"><ele>776.0</ele><time>2026-05-02T15:28:43.999Z</time></trkpt><trkpt lat="42.30649141543194" lon="13.299777089398178"><ele>776.0000000000001</ele><time>2026-05-02T15:28:45.999Z</time></trkpt><trkpt lat="42.306413843012635" lon="13.299833901726352"><ele>776.0</ele><time>2026-05-02T15:28:47.999Z</time></trkpt><trkpt lat="42.306316729014085" lon="13.299855971836962"><ele>776.1999999999999</ele><time>2026-05-02T15:28:49.999Z</time></trkpt><trkpt lat="42.30623782378734" lon="13.29996336544744"><ele>776.4</ele><time>2026-05-02T15:28:51.999Z</time></trkpt><trkpt lat="42.306159664522504" lon="13.300032008947339"><ele>776.6</ele><time>2026-05-02T15:28:53.999Z</time></trkpt><trkpt lat="42.306084455788955" lon="13.300033339754473"><ele>776.8</ele><time>2026-05-02T15:28:55.999Z</time></trkpt><trkpt lat="42.30598408228631" lon="13.299986488663821"><ele>777.0</ele><time>2026-05-02T15:28:57.999Z</time></trkpt><trkpt lat="42.30589035582448" lon="13.30001094166398"><ele>777.0</ele><time>2026-05-02T15:28:59.999Z</time></trkpt><trkpt lat="42.30580532488803" lon="13.30008602366953"><ele>777.0</ele><time>2026-05-02T15:29:01.999Z</time></trkpt><trkpt lat="42.305754532240826" lon="13.300136800521434"><ele>777.0</ele><time>2026-05-02T15:29:02.999Z</time></trkpt><trkpt lat="42.30568513766698" lon="13.30018647276426"><ele>777.0</ele><time>2026-05-02T15:29:03.999Z</time></trkpt><trkpt lat="42.305618338112154" lon="13.300235078998643"><ele>777.0</ele><time>2026-05-02T15:29:04.999Z</time></trkpt><trkpt lat="42.3055569603372" lon="13.300272239257538"><ele>777.0</ele><time>2026-05-02T15:29:05.999Z</time></trkpt><trkpt lat="42.30549935965589" lon="13.30032391474562"><ele>777.3333333333334</ele><time>2026-05-02T15:29:06.999Z</time></trkpt><trkpt lat="42.305424307083875" lon="13.300437685659501"><ele>777.6666666666667</ele><time>2026-05-02T15:29:08.999Z</time></trkpt><trkpt lat="42.305329979590006" lon="13.300445777801517"><ele>778.0</ele><time>2026-05-02T15:29:10.999Z</time></trkpt><trkpt lat="42.30526162900485" lon="13.30044889687162"><ele>778.3333333333334</ele><time>2026-05-02T15:29:11.999Z</time></trkpt><trkpt lat="42.30520369218232" lon="13.300487699790278"><ele>778.6666666666667</ele><time>2026-05-02T15:29:12.999Z</time></trkpt><trkpt lat="42.305152557035555" lon="13.300551191565706"><ele>779.0</ele><time>2026-05-02T15:29:13.999Z</time></trkpt><trkpt lat="42.305069121405346" lon="13.300663783926252"><ele>779.0000000000001</ele><time>2026-05-02T15:29:15.999Z</time></trkpt><trkpt lat="42.305008992808474" lon="13.3006955534837"><ele>779.0</ele><time>2026-05-02T15:29:16.999Z</time></trkpt><trkpt lat="42.30494281235473" lon="13.300732105308331"><ele>779.0</ele><time>2026-05-02T15:29:17.999Z</time></trkpt><trkpt lat="42.30487634992286" lon="13.30077677643258"><ele>779.0</ele><time>2026-05-02T15:29:18.999Z</time></trkpt><trkpt lat="42.30481028858398" lon="13.300836827349194"><ele>779.0000000000001</ele><time>2026-05-02T15:29:19.999Z</time></trkpt><trkpt lat="42.3047338671002" lon="13.300892927295548"><ele>779.0</ele><time>2026-05-02T15:29:20.999Z</time></trkpt><trkpt lat="42.30466290895478" lon="13.300924962358517"><ele>779.2</ele><time>2026-05-02T15:29:21.999Z</time></trkpt><trkpt lat="42.30456325241443" lon="13.300952129992172"><ele>779.4000000000001</ele><time>2026-05-02T15:29:23.998Z</time></trkpt><trkpt lat="42.30447725772617" lon="13.300907277852144"><ele>779.6</ele><time>2026-05-02T15:29:25.998Z</time></trkpt><trkpt lat="42.30435610776352" lon="13.300885674799343"><ele>779.8</ele><time>2026-05-02T15:29:27.998Z</time></trkpt><trkpt lat="42.30423165171228" lon="13.300926560369847"><ele>780.0</ele><time>2026-05-02T15:29:29.999Z</time></trkpt><trkpt lat="42.30418035103427" lon="13.3009791469863"><ele>780.0</ele><time>2026-05-02T15:29:30.999Z</time></trkpt><trkpt lat="42.30413610864438" lon="13.301049332254275"><ele>780.0</ele><time>2026-05-02T15:29:31.999Z</time></trkpt><trkpt lat="42.30408980423518" lon="13.301133562625237"><ele>780.0</ele><time>2026-05-02T15:29:32.999Z</time></trkpt><trkpt lat="42.304036147092376" lon="13.301211071413615"><ele>780.0</ele><time>2026-05-02T15:29:33.999Z</time></trkpt><trkpt lat="42.303977889342924" lon="13.301288490230455"><ele>780.0</ele><time>2026-05-02T15:29:34.999Z</time></trkpt><trkpt lat="42.303915738198214" lon="13.301348667525293"><ele>780.0</ele><time>2026-05-02T15:29:35.999Z</time></trkpt><trkpt lat="42.303856682674606" lon="13.301407811928744"><ele>781.0</ele><time>2026-05-02T15:29:36.999Z</time></trkpt><trkpt lat="42.30376384516167" lon="13.30143782077452"><ele>782.0</ele><time>2026-05-02T15:29:38.999Z</time></trkpt><trkpt lat="42.30367360057952" lon="13.30138922403448"><ele>783.0</ele><time>2026-05-02T15:29:40.999Z</time></trkpt><trkpt lat="42.30357436166629" lon="13.301344087587557"><ele>784.0</ele><time>2026-05-02T15:29:42.999Z</time></trkpt><trkpt lat="42.3034694121272" lon="13.301415349331865"><ele>785.0</ele><time>2026-05-02T15:29:44.999Z</time></trkpt><trkpt lat="42.303411444687235" lon="13.301487296542023"><ele>785.0000000000001</ele><time>2026-05-02T15:29:45.999Z</time></trkpt><trkpt lat="42.30335322444659" lon="13.301537305076698"><ele>785.0</ele><time>2026-05-02T15:29:46.999Z</time></trkpt><trkpt lat="42.30325549250808" lon="13.301561821943066"><ele>785.0</ele><time>2026-05-02T15:29:48.999Z</time></trkpt><trkpt lat="42.30316675341387" lon="13.301516222802261"><ele>785.0</ele><time>2026-05-02T15:29:50.999Z</time></trkpt><trkpt lat="42.30308528406147" lon="13.301507149890107"><ele>785.0000000000001</ele><time>2026-05-02T15:29:51.999Z</time></trkpt><trkpt lat="42.30301337780906" lon="13.30152461840961"><ele>785.0</ele><time>2026-05-02T15:29:52.999Z</time></trkpt><trkpt lat="42.30294425410187" lon="13.301547077325452"><ele>785.3333333333334</ele><time>2026-05-02T15:29:53.999Z</time></trkpt><trkpt lat="42.30287738970266" lon="13.30157161095937"><ele>785.6666666666667</ele><time>2026-05-02T15:29:54.999Z</time></trkpt><trkpt lat="42.30280621941292" lon="13.301601836895266"><ele>786.0</ele><time>2026-05-02T15:29:55.999Z</time></trkpt><trkpt lat="42.302730759834375" lon="13.301632818330877"><ele>786.3333333333333</ele><time>2026-05-02T15:29:56.999Z</time></trkpt><trkpt lat="42.302623501430446" lon="13.301671802588235"><ele>786.6666666666666</ele><time>2026-05-02T15:29:58.999Z</time></trkpt><trkpt lat="42.30254893564423" lon="13.301658471451208"><ele>787.0</ele><time>2026-05-02T15:29:59.999Z</time></trkpt><trkpt lat="42.302472198850865" lon="13.301621212676993"><ele>786.9999999999999</ele><time>2026-05-02T15:30:00.999Z</time></trkpt><trkpt lat="42.30240969131215" lon="13.301607815297832"><ele>787.0</ele><time>2026-05-02T15:30:01.999Z</time></trkpt><trkpt lat="42.302329630516134" lon="13.301661543187418"><ele>787.0</ele><time>2026-05-02T15:30:03.999Z</time></trkpt><trkpt lat="42.30227328705744" lon="13.30173439537621"><ele>787.0</ele><time>2026-05-02T15:30:04.999Z</time></trkpt><trkpt lat="42.30220748370603" lon="13.301794607091466"><ele>786.9999999999999</ele><time>2026-05-02T15:30:05.999Z</time></trkpt><trkpt lat="42.302148385028225" lon="13.301827499754452"><ele>787.0</ele><time>2026-05-02T15:30:06.999Z</time></trkpt><trkpt lat="42.3020442118954" lon="13.301845697482998"><ele>787.0</ele><time>2026-05-02T15:30:08.999Z</time></trkpt><trkpt lat="42.301971840770754" lon="13.30188298140769"><ele>787.0</ele><time>2026-05-02T15:30:10.999Z</time></trkpt><trkpt lat="42.30192147521207" lon="13.302002596190965"><ele>787.0</ele><time>2026-05-02T15:30:12.999Z</time></trkpt><trkpt lat="42.3018432267689" lon="13.302113461964167"><ele>787.0</ele><time>2026-05-02T15:30:14.999Z</time></trkpt><trkpt lat="42.301778587399966" lon="13.302245544583787"><ele>787.0</ele><time>2026-05-02T15:30:16.999Z</time></trkpt><trkpt lat="42.301755548925975" lon="13.302336493556536"><ele>788.6</ele><time>2026-05-02T15:30:19.999Z</time></trkpt><trkpt lat="42.301884957908634" lon="13.302312241129176"><ele>790.2</ele><time>2026-05-02T15:30:22.999Z</time></trkpt><trkpt lat="42.301973017228775" lon="13.302358864544063"><ele>791.8</ele><time>2026-05-02T15:30:24.999Z</time></trkpt><trkpt lat="42.30200809344195" lon="13.302454409430991"><ele>793.4</ele><time>2026-05-02T15:30:25.999Z</time></trkpt><trkpt lat="42.302056600542144" lon="13.30253614179991"><ele>795.0</ele><time>2026-05-02T15:30:26.999Z</time></trkpt><trkpt lat="42.30211372790377" lon="13.302611071960104"><ele>795.0</ele><time>2026-05-02T15:30:27.999Z</time></trkpt><trkpt lat="42.3022299298027" lon="13.302701265761817"><ele>795.0</ele><time>2026-05-02T15:30:29.999Z</time></trkpt><trkpt lat="42.302317054896626" lon="13.302690452005208"><ele>795.0</ele><time>2026-05-02T15:30:30.999Z</time></trkpt><trkpt lat="42.302396653390616" lon="13.30273484274958"><ele>795.0</ele><time>2026-05-02T15:30:31.999Z</time></trkpt><trkpt lat="42.3024709207845" lon="13.302773510613667"><ele>795.0</ele><time>2026-05-02T15:30:32.999Z</time></trkpt><trkpt lat="42.30255605419911" lon="13.302818502275978"><ele>794.6</ele><time>2026-05-02T15:30:33.999Z</time></trkpt><trkpt lat="42.30264885356464" lon="13.302863840852895"><ele>794.2</ele><time>2026-05-02T15:30:34.999Z</time></trkpt><trkpt lat="42.30275582977795" lon="13.30290016586287"><ele>793.8</ele><time>2026-05-02T15:30:35.999Z</time></trkpt><trkpt lat="42.30287316418249" lon="13.30289286202655"><ele>793.4</ele><time>2026-05-02T15:30:36.999Z</time></trkpt><trkpt lat="42.30298512520544" lon="13.30286922100068"><ele>793.0</ele><time>2026-05-02T15:30:37.999Z</time></trkpt><trkpt lat="42.30310059708941" lon="13.302839097769414"><ele>793.0</ele><time>2026-05-02T15:30:38.999Z</time></trkpt><trkpt lat="42.30321603778656" lon="13.302785575403533"><ele>793.0</ele><time>2026-05-02T15:30:39.999Z</time></trkpt><trkpt lat="42.30333637425589" lon="13.302769138154611"><ele>793.0</ele><time>2026-05-02T15:30:40.999Z</time></trkpt><trkpt lat="42.303462934861564" lon="13.30275644291467"><ele>793.0</ele><time>2026-05-02T15:30:41.999Z</time></trkpt><trkpt lat="42.30360513436969" lon="13.302732564984407"><ele>793.0</ele><time>2026-05-02T15:30:42.999Z</time></trkpt><trkpt lat="42.303763333065426" lon="13.30271853043589"><ele>793.0</ele><time>2026-05-02T15:30:43.999Z</time></trkpt><trkpt lat="42.30391696686798" lon="13.302726810389863"><ele>793.0</ele><time>2026-05-02T15:30:44.999Z</time></trkpt><trkpt lat="42.30406721081087" lon="13.302750580732253"><ele>794.0</ele><time>2026-05-02T15:30:45.999Z</time></trkpt><trkpt lat="42.30421313573292" lon="13.302779357684537"><ele>795.0</ele><time>2026-05-02T15:30:46.999Z</time></trkpt><trkpt lat="42.3043549479771" lon="13.302803128891185"><ele>796.0</ele><time>2026-05-02T15:30:47.999Z</time></trkpt><trkpt lat="42.30450504307794" lon="13.302778490453997"><ele>797.0</ele><time>2026-05-02T15:30:48.999Z</time></trkpt><trkpt lat="42.30466670422908" lon="13.302730305574833"><ele>799.3333333333334</ele><time>2026-05-02T15:30:49.999Z</time></trkpt><trkpt lat="42.304828572340895" lon="13.302674334688547"><ele>801.6666666666667</ele><time>2026-05-02T15:30:50.999Z</time></trkpt><trkpt lat="42.3049721911558" lon="13.302610236260593"><ele>804.0</ele><time>2026-05-02T15:30:51.999Z</time></trkpt><trkpt lat="42.30511079462434" lon="13.30256043057434"><ele>804.0</ele><time>2026-05-02T15:30:52.999Z</time></trkpt><trkpt lat="42.30524434611521" lon="13.302517950241416"><ele>804.0</ele><time>2026-05-02T15:30:53.999Z</time></trkpt><trkpt lat="42.30538109303317" lon="13.302478830657014"><ele>804.0</ele><time>2026-05-02T15:30:54.999Z</time></trkpt><trkpt lat="42.30551867502987" lon="13.302443279244862"><ele>804.0</ele><time>2026-05-02T15:30:55.999Z</time></trkpt><trkpt lat="42.30566283581125" lon="13.302406027865405"><ele>804.6666666666667</ele><time>2026-05-02T15:30:56.999Z</time></trkpt><trkpt lat="42.305812399477475" lon="13.302367380372118"><ele>805.3333333333334</ele><time>2026-05-02T15:30:57.999Z</time></trkpt><trkpt lat="42.30595965267849" lon="13.302304441453362"><ele>806.0</ele><time>2026-05-02T15:30:58.999Z</time></trkpt><trkpt lat="42.3061130983046" lon="13.302262297928163"><ele>803.0</ele><time>2026-05-02T15:30:59.999Z</time></trkpt><trkpt lat="42.30626372344023" lon="13.302211597455413"><ele>800.0</ele><time>2026-05-02T15:31:00.999Z</time></trkpt><trkpt lat="42.3064117006948" lon="13.30214982845034"><ele>797.0</ele><time>2026-05-02T15:31:01.999Z</time></trkpt><trkpt lat="42.30656421031794" lon="13.30210449452368"><ele>797.0</ele><time>2026-05-02T15:31:02.999Z</time></trkpt><trkpt lat="42.30670393941605" lon="13.302015821787284"><ele>797.0</ele><time>2026-05-02T15:31:03.999Z</time></trkpt><trkpt lat="42.306845747107566" lon="13.301948951153463"><ele>797.0</ele><time>2026-05-02T15:31:04.999Z</time></trkpt><trkpt lat="42.30699058222932" lon="13.301917822872026"><ele>797.0</ele><time>2026-05-02T15:31:05.999Z</time></trkpt><trkpt lat="42.30713049085296" lon="13.301876770654548"><ele>797.0</ele><time>2026-05-02T15:31:06.999Z</time></trkpt><trkpt lat="42.307269523496856" lon="13.301836493950796"><ele>797.0</ele><time>2026-05-02T15:31:07.999Z</time></trkpt><trkpt lat="42.307406093779925" lon="13.301780967585634"><ele>797.0</ele><time>2026-05-02T15:31:08.999Z</time></trkpt><trkpt lat="42.30754377151544" lon="13.301743040506402"><ele>797.75</ele><time>2026-05-02T15:31:09.999Z</time></trkpt><trkpt lat="42.30767943251922" lon="13.30170085940595"><ele>798.5</ele><time>2026-05-02T15:31:10.999Z</time></trkpt><trkpt lat="42.3078118288031" lon="13.30165447604248"><ele>799.25</ele><time>2026-05-02T15:31:11.999Z</time></trkpt><trkpt lat="42.30794033995429" lon="13.301600686393908"><ele>800.0</ele><time>2026-05-02T15:31:12.999Z</time></trkpt><trkpt lat="42.30805879020776" lon="13.301525968682316"><ele>799.25</ele><time>2026-05-02T15:31:13.999Z</time></trkpt><trkpt lat="42.308167609225464" lon="13.30141558281879"><ele>798.5</ele><time>2026-05-02T15:31:14.999Z</time></trkpt><trkpt lat="42.30826604838519" lon="13.301280828574724"><ele>797.75</ele><time>2026-05-02T15:31:15.999Z</time></trkpt><trkpt lat="42.30835214350708" lon="13.30115358004254"><ele>797.0</ele><time>2026-05-02T15:31:16.999Z</time></trkpt><trkpt lat="42.308452492637784" lon="13.301049161547844"><ele>797.0</ele><time>2026-05-02T15:31:17.999Z</time></trkpt><trkpt lat="42.308550730980464" lon="13.3009278661701"><ele>797.0</ele><time>2026-05-02T15:31:18.999Z</time></trkpt><trkpt lat="42.308653824670664" lon="13.300810224012327"><ele>797.0</ele><time>2026-05-02T15:31:19.999Z</time></trkpt><trkpt lat="42.3087562352068" lon="13.300687881343762"><ele>797.0</ele><time>2026-05-02T15:31:20.999Z</time></trkpt><trkpt lat="42.30887777609422" lon="13.300612973052228"><ele>796.5</ele><time>2026-05-02T15:31:21.999Z</time></trkpt><trkpt lat="42.30900577997555" lon="13.300531066113535"><ele>796.0</ele><time>2026-05-02T15:31:22.999Z</time></trkpt><trkpt lat="42.30913834846098" lon="13.300450489643959"><ele>795.5</ele><time>2026-05-02T15:31:23.999Z</time></trkpt><trkpt lat="42.30927505212248" lon="13.300383047944454"><ele>795.0</ele><time>2026-05-02T15:31:24.999Z</time></trkpt><trkpt lat="42.309409584399226" lon="13.300328973047263"><ele>795.0</ele><time>2026-05-02T15:31:25.999Z</time></trkpt><trkpt lat="42.30953760235543" lon="13.300287771231377"><ele>795.0</ele><time>2026-05-02T15:31:26.999Z</time></trkpt><trkpt lat="42.30966238180167" lon="13.3002306798781"><ele>795.0</ele><time>2026-05-02T15:31:27.999Z</time></trkpt><trkpt lat="42.30978055830512" lon="13.300201168900758"><ele>795.0</ele><time>2026-05-02T15:31:28.999Z</time></trkpt><trkpt lat="42.30989190109208" lon="13.300155076371968"><ele>798.25</ele><time>2026-05-02T15:31:29.999Z</time></trkpt><trkpt lat="42.30999906194392" lon="13.300101238558875"><ele>801.5</ele><time>2026-05-02T15:31:30.999Z</time></trkpt><trkpt lat="42.310098245519264" lon="13.300037926384594"><ele>804.75</ele><time>2026-05-02T15:31:31.999Z</time></trkpt><trkpt lat="42.31017195790037" lon="13.299910684867436"><ele>808.0</ele><time>2026-05-02T15:31:32.999Z</time></trkpt><trkpt lat="42.31022241325545" lon="13.299759166067785"><ele>807.0</ele><time>2026-05-02T15:31:33.999Z</time></trkpt><trkpt lat="42.31029529827247" lon="13.29962510068664"><ele>806.0</ele><time>2026-05-02T15:31:34.999Z</time></trkpt><trkpt lat="42.31036076880413" lon="13.299489973683867"><ele>805.0</ele><time>2026-05-02T15:31:35.999Z</time></trkpt><trkpt lat="42.31044344232998" lon="13.299382175623876"><ele>804.0</ele><time>2026-05-02T15:31:36.999Z</time></trkpt><trkpt lat="42.31054629253362" lon="13.299279595218325"><ele>805.5</ele><time>2026-05-02T15:31:37.999Z</time></trkpt><trkpt lat="42.31065833232171" lon="13.299182554443833"><ele>807.0</ele><time>2026-05-02T15:31:38.999Z</time></trkpt><trkpt lat="42.310765902666574" lon="13.299096641242492"><ele>808.5</ele><time>2026-05-02T15:31:39.999Z</time></trkpt><trkpt lat="42.31085970349945" lon="13.29902216168589"><ele>810.0</ele><time>2026-05-02T15:31:40.999Z</time></trkpt><trkpt lat="42.31094308889522" lon="13.298955952181101"><ele>810.0</ele><time>2026-05-02T15:31:41.999Z</time></trkpt><trkpt lat="42.31101857247598" lon="13.298896011971172"><ele>810.0</ele><time>2026-05-02T15:31:42.999Z</time></trkpt><trkpt lat="42.31108910841789" lon="13.298839278042168"><ele>810.0</ele><time>2026-05-02T15:31:43.999Z</time></trkpt><trkpt lat="42.31116733069556" lon="13.298776361798936"><ele>810.0</ele><time>2026-05-02T15:31:44.999Z</time></trkpt><trkpt lat="42.31126685201191" lon="13.298699185622016"><ele>810.0</ele><time>2026-05-02T15:31:45.999Z</time></trkpt><trkpt lat="42.3113916055518" lon="13.298606704495683"><ele>810.5</ele><time>2026-05-02T15:31:46.999Z</time></trkpt><trkpt lat="42.31151835763276" lon="13.298519298603606"><ele>811.0</ele><time>2026-05-02T15:31:47.999Z</time></trkpt><trkpt lat="42.311634539776094" lon="13.298433341075551"><ele>811.5</ele><time>2026-05-02T15:31:48.999Z</time></trkpt><trkpt lat="42.311748727317074" lon="13.29836848799264"><ele>812.0</ele><time>2026-05-02T15:31:49.999Z</time></trkpt><trkpt lat="42.31185480779283" lon="13.298314144926652"><ele>812.0</ele><time>2026-05-02T15:31:50.999Z</time></trkpt><trkpt lat="42.311955486212" lon="13.298286267776136"><ele>812.0</ele><time>2026-05-02T15:31:51.999Z</time></trkpt><trkpt lat="42.312047908816744" lon="13.29825309461242"><ele>812.0</ele><time>2026-05-02T15:31:52.999Z</time></trkpt><trkpt lat="42.31215152963841" lon="13.298228162287248"><ele>812.0</ele><time>2026-05-02T15:31:53.999Z</time></trkpt><trkpt lat="42.31225732769705" lon="13.29821195058577"><ele>812.0</ele><time>2026-05-02T15:31:54.999Z</time></trkpt><trkpt lat="42.312365354503406" lon="13.298173972027747"><ele>811.8</ele><time>2026-05-02T15:31:55.999Z</time></trkpt><trkpt lat="42.31247555180353" lon="13.298164307491573"><ele>811.6</ele><time>2026-05-02T15:31:56.999Z</time></trkpt><trkpt lat="42.312578390435526" lon="13.298140290201234"><ele>811.4</ele><time>2026-05-02T15:31:57.999Z</time></trkpt><trkpt lat="42.31267309193033" lon="13.298154519902344"><ele>811.1999999999999</ele><time>2026-05-02T15:31:58.999Z</time></trkpt><trkpt lat="42.31275534856399" lon="13.298149402556332"><ele>811.0</ele><time>2026-05-02T15:31:59.999Z</time></trkpt><trkpt lat="42.31281938671082" lon="13.298145095901429"><ele>811.0</ele><time>2026-05-02T15:32:00.999Z</time></trkpt><trkpt lat="42.312921979663486" lon="13.29813741709838"><ele>811.0</ele><time>2026-05-02T15:32:03Z</time></trkpt><trkpt lat="42.312988605503456" lon="13.298132430333737"><ele>811.0</ele><time>2026-05-02T15:32:04Z</time></trkpt><trkpt lat="42.31311435974188" lon="13.298104481631967"><ele>811.0</ele><time>2026-05-02T15:32:06Z</time></trkpt><trkpt lat="42.313177716618235" lon="13.29807740213362"><ele>811.0</ele><time>2026-05-02T15:32:07Z</time></trkpt><trkpt lat="42.313292621010895" lon="13.29802621992863"><ele>810.4</ele><time>2026-05-02T15:32:09Z</time></trkpt><trkpt lat="42.31337521808205" lon="13.297988215061938"><ele>809.8</ele><time>2026-05-02T15:32:11Z</time></trkpt><trkpt lat="42.313463887353066" lon="13.297933484105496"><ele>809.1999999999999</ele><time>2026-05-02T15:32:14Z</time></trkpt><trkpt lat="42.31356368045025" lon="13.297853878856374"><ele>808.5999999999999</ele><time>2026-05-02T15:32:16Z</time></trkpt><trkpt lat="42.31365137488188" lon="13.297788521693105"><ele>808.0</ele><time>2026-05-02T15:32:19Z</time></trkpt><trkpt lat="42.31373358615817" lon="13.297740060210256"><ele>808.0</ele><time>2026-05-02T15:32:21Z</time></trkpt><trkpt lat="42.313828815113574" lon="13.297692200637156"><ele>808.0</ele><time>2026-05-02T15:32:23Z</time></trkpt><trkpt lat="42.31394590270047" lon="13.297649818640418"><ele>808.0</ele><time>2026-05-02T15:32:25Z</time></trkpt><trkpt lat="42.31403102933092" lon="13.297641764259774"><ele>808.0</ele><time>2026-05-02T15:32:27Z</time></trkpt><trkpt lat="42.31410470666154" lon="13.297710509771571"><ele>808.0</ele><time>2026-05-02T15:32:29.999Z</time></trkpt><trkpt lat="42.314087877096746" lon="13.297798339351978"><ele>807.4</ele><time>2026-05-02T15:32:30.999Z</time></trkpt><trkpt lat="42.31409966546403" lon="13.297908463083333"><ele>806.8</ele><time>2026-05-02T15:32:31.999Z</time></trkpt><trkpt lat="42.31411501666428" lon="13.298037153194569"><ele>806.2</ele><time>2026-05-02T15:32:32.999Z</time></trkpt><trkpt lat="42.3141357257587" lon="13.298181461529568"><ele>805.6</ele><time>2026-05-02T15:32:33.999Z</time></trkpt><trkpt lat="42.31416036011902" lon="13.298317789937196"><ele>805.0</ele><time>2026-05-02T15:32:34.999Z</time></trkpt><trkpt lat="42.31418661781516" lon="13.298448769923827"><ele>804.9999999999999</ele><time>2026-05-02T15:32:35.999Z</time></trkpt><trkpt lat="42.31421305200379" lon="13.29856815287713"><ele>805.0</ele><time>2026-05-02T15:32:36.999Z</time></trkpt><trkpt lat="42.3142386856161" lon="13.298679375143815"><ele>805.0</ele><time>2026-05-02T15:32:37.999Z</time></trkpt><trkpt lat="42.31426330035264" lon="13.29878621047063"><ele>805.0</ele><time>2026-05-02T15:32:38.999Z</time></trkpt><trkpt lat="42.31428509520232" lon="13.298891361083005"><ele>804.9999999999999</ele><time>2026-05-02T15:32:39.999Z</time></trkpt><trkpt lat="42.314307279934255" lon="13.298998392596046"><ele>805.0</ele><time>2026-05-02T15:32:40.999Z</time></trkpt><trkpt lat="42.31434520293738" lon="13.299096652735736"><ele>804.0</ele><time>2026-05-02T15:32:41.999Z</time></trkpt><trkpt lat="42.3143643151829" lon="13.299203060310417"><ele>803.0</ele><time>2026-05-02T15:32:42.999Z</time></trkpt><trkpt lat="42.31441531085372" lon="13.29928179276324"><ele>802.0</ele><time>2026-05-02T15:32:43.999Z</time></trkpt><trkpt lat="42.31450471008812" lon="13.299342439846193"><ele>801.0</ele><time>2026-05-02T15:32:44.999Z</time></trkpt><trkpt lat="42.31461317168697" lon="13.299380446903115"><ele>800.0</ele><time>2026-05-02T15:32:45.999Z</time></trkpt><trkpt lat="42.31473684374693" lon="13.299409656495827"><ele>798.0</ele><time>2026-05-02T15:32:46.999Z</time></trkpt><trkpt lat="42.31486033352798" lon="13.299430303145522"><ele>796.0</ele><time>2026-05-02T15:32:47.999Z</time></trkpt><trkpt lat="42.3149764524895" lon="13.299445738363804"><ele>794.0</ele><time>2026-05-02T15:32:48.999Z</time></trkpt><trkpt lat="42.315086848272166" lon="13.299456064679969"><ele>792.0</ele><time>2026-05-02T15:32:49.999Z</time></trkpt><trkpt lat="42.31519687782955" lon="13.299461491727719"><ele>792.0</ele><time>2026-05-02T15:32:50.999Z</time></trkpt><trkpt lat="42.31530574422636" lon="13.299462361079687"><ele>792.0</ele><time>2026-05-02T15:32:51.999Z</time></trkpt><trkpt lat="42.31541126551267" lon="13.29946389730953"><ele>792.0</ele><time>2026-05-02T15:32:52.999Z</time></trkpt><trkpt lat="42.31551413024067" lon="13.299452026961827"><ele>792.0</ele><time>2026-05-02T15:32:53.999Z</time></trkpt><trkpt lat="42.31561921545227" lon="13.299489593928554"><ele>792.0</ele><time>2026-05-02T15:32:54.999Z</time></trkpt><trkpt lat="42.31569616709407" lon="13.299585590637713"><ele>791.0</ele><time>2026-05-02T15:32:55.999Z</time></trkpt><trkpt lat="42.3157803999189" lon="13.299680329060498"><ele>790.0</ele><time>2026-05-02T15:32:56.999Z</time></trkpt><trkpt lat="42.315885558305325" lon="13.299758841249943"><ele>789.0</ele><time>2026-05-02T15:32:57.999Z</time></trkpt><trkpt lat="42.31598840841784" lon="13.299849684690003"><ele>788.0</ele><time>2026-05-02T15:32:58.999Z</time></trkpt><trkpt lat="42.31611394391279" lon="13.299925150140272"><ele>788.0</ele><time>2026-05-02T15:32:59.999Z</time></trkpt><trkpt lat="42.31625991174932" lon="13.29996427177246"><ele>788.0</ele><time>2026-05-02T15:33:00.999Z</time></trkpt><trkpt lat="42.316421730186015" lon="13.299965174572263"><ele>788.0</ele><time>2026-05-02T15:33:01.999Z</time></trkpt><trkpt lat="42.31658681528485" lon="13.299946944112177"><ele>789.0</ele><time>2026-05-02T15:33:02.999Z</time></trkpt><trkpt lat="42.31676481891074" lon="13.299933563658655"><ele>790.0</ele><time>2026-05-02T15:33:03.999Z</time></trkpt><trkpt lat="42.31694926721875" lon="13.299931478144744"><ele>791.0</ele><time>2026-05-02T15:33:04.999Z</time></trkpt><trkpt lat="42.31712400638038" lon="13.299939226331718"><ele>791.6666666666667</ele><time>2026-05-02T15:33:05.999Z</time></trkpt><trkpt lat="42.31729624794866" lon="13.299954116473515"><ele>792.3333333333333</ele><time>2026-05-02T15:33:06.999Z</time></trkpt><trkpt lat="42.31746143813651" lon="13.299968091253737"><ele>793.0</ele><time>2026-05-02T15:33:07.999Z</time></trkpt><trkpt lat="42.317609759848516" lon="13.299982164014482"><ele>793.0</ele><time>2026-05-02T15:33:08.999Z</time></trkpt><trkpt lat="42.31773719608571" lon="13.300001402404003"><ele>793.0</ele><time>2026-05-02T15:33:09.999Z</time></trkpt><trkpt lat="42.31783575726608" lon="13.300038369978996"><ele>793.0</ele><time>2026-05-02T15:33:10.999Z</time></trkpt><trkpt lat="42.31790036639381" lon="13.30012085200546"><ele>793.0</ele><time>2026-05-02T15:33:11.999Z</time></trkpt><trkpt lat="42.31797302750353" lon="13.300244874990442"><ele>793.0</ele><time>2026-05-02T15:33:12.999Z</time></trkpt><trkpt lat="42.3180514051437" lon="13.300378231741945"><ele>791.6666666666666</ele><time>2026-05-02T15:33:13.999Z</time></trkpt><trkpt lat="42.31813916722034" lon="13.300524794660427"><ele>790.3333333333333</ele><time>2026-05-02T15:33:14.999Z</time></trkpt><trkpt lat="42.318242303743155" lon="13.30067497720638"><ele>789.0</ele><time>2026-05-02T15:33:15.999Z</time></trkpt><trkpt lat="42.31836071416322" lon="13.300819005950517"><ele>793.0</ele><time>2026-05-02T15:33:16.999Z</time></trkpt><trkpt lat="42.31849350330263" lon="13.300939982967172"><ele>797.0</ele><time>2026-05-02T15:33:17.999Z</time></trkpt><trkpt lat="42.318609584734105" lon="13.301027578898246"><ele>801.0</ele><time>2026-05-02T15:33:18.999Z</time></trkpt><trkpt lat="42.318707897493105" lon="13.301083087906637"><ele>805.0</ele><time>2026-05-02T15:33:19.999Z</time></trkpt><trkpt lat="42.318784423528584" lon="13.301118252086047"><ele>805.0</ele><time>2026-05-02T15:33:20.999Z</time></trkpt><trkpt lat="42.318871412379686" lon="13.301184746832826"><ele>805.0</ele><time>2026-05-02T15:33:22.999Z</time></trkpt><trkpt lat="42.3188848473359" lon="13.301301857202073"><ele>805.0</ele><time>2026-05-02T15:33:24.999Z</time></trkpt><trkpt lat="42.31884099346669" lon="13.301435550886392"><ele>805.0</ele><time>2026-05-02T15:33:26.999Z</time></trkpt><trkpt lat="42.31879772201419" lon="13.301520325888022"><ele>805.0</ele><time>2026-05-02T15:33:27.999Z</time></trkpt><trkpt lat="42.3187513112707" lon="13.30160980677744"><ele>806.1666666666666</ele><time>2026-05-02T15:33:28.999Z</time></trkpt><trkpt lat="42.31870546495073" lon="13.301696029420022"><ele>807.3333333333333</ele><time>2026-05-02T15:33:29.999Z</time></trkpt><trkpt lat="42.31866824652756" lon="13.301787647815592"><ele>808.5</ele><time>2026-05-02T15:33:30.999Z</time></trkpt><trkpt lat="42.31862990392057" lon="13.301893812023422"><ele>809.6666666666667</ele><time>2026-05-02T15:33:31.999Z</time></trkpt><trkpt lat="42.31858692292773" lon="13.302013465870978"><ele>810.8333333333334</ele><time>2026-05-02T15:33:32.999Z</time></trkpt><trkpt lat="42.318541353907804" lon="13.302119055518009"><ele>812.0</ele><time>2026-05-02T15:33:33.999Z</time></trkpt><trkpt lat="42.31850007019715" lon="13.30221441110063"><ele>811.0</ele><time>2026-05-02T15:33:35Z</time></trkpt><trkpt lat="42.31843926370959" lon="13.302312062310245"><ele>810.0</ele><time>2026-05-02T15:33:36Z</time></trkpt><trkpt lat="42.31840291642567" lon="13.30243509453365"><ele>809.0</ele><time>2026-05-02T15:33:37Z</time></trkpt><trkpt lat="42.31833720314918" lon="13.30255358089797"><ele>808.0</ele><time>2026-05-02T15:33:38Z</time></trkpt><trkpt lat="42.31828199325553" lon="13.302684382057102"><ele>807.0</ele><time>2026-05-02T15:33:39Z</time></trkpt><trkpt lat="42.31824071063548" lon="13.302828083029235"><ele>807.0</ele><time>2026-05-02T15:33:40Z</time></trkpt><trkpt lat="42.31819601272791" lon="13.30297095567922"><ele>807.0</ele><time>2026-05-02T15:33:41Z</time></trkpt><trkpt lat="42.3181596901078" lon="13.30312245532834"><ele>807.0</ele><time>2026-05-02T15:33:42Z</time></trkpt><trkpt lat="42.31811714955034" lon="13.303265050974526"><ele>807.0</ele><time>2026-05-02T15:33:43Z</time></trkpt><trkpt lat="42.31807686807262" lon="13.303405011756352"><ele>809.4000000000001</ele><time>2026-05-02T15:33:44Z</time></trkpt><trkpt lat="42.31803932505679" lon="13.30353309290536"><ele>811.8000000000001</ele><time>2026-05-02T15:33:45Z</time></trkpt><trkpt lat="42.31798754413284" lon="13.303653883958175"><ele>814.2</ele><time>2026-05-02T15:33:46Z</time></trkpt><trkpt lat="42.31794204649363" lon="13.303779241870405"><ele>816.6</ele><time>2026-05-02T15:33:47Z</time></trkpt><trkpt lat="42.31790456059521" lon="13.303918156972061"><ele>819.0</ele><time>2026-05-02T15:33:48Z</time></trkpt><trkpt lat="42.3178671907058" lon="13.30405973337737"><ele>819.0</ele><time>2026-05-02T15:33:49Z</time></trkpt><trkpt lat="42.317803155744606" lon="13.304194772485257"><ele>819.0</ele><time>2026-05-02T15:33:50Z</time></trkpt><trkpt lat="42.31774788322506" lon="13.3043423491261"><ele>819.0</ele><time>2026-05-02T15:33:51Z</time></trkpt><trkpt lat="42.317688217583935" lon="13.304495445729861"><ele>819.0</ele><time>2026-05-02T15:33:52Z</time></trkpt><trkpt lat="42.317627072285234" lon="13.304646820156835"><ele>818.2</ele><time>2026-05-02T15:33:53Z</time></trkpt><trkpt lat="42.31756275586516" lon="13.30478950647757"><ele>817.4000000000001</ele><time>2026-05-02T15:33:54Z</time></trkpt><trkpt lat="42.3175043732468" lon="13.30490799432678"><ele>816.6</ele><time>2026-05-02T15:33:55Z</time></trkpt><trkpt lat="42.31744836866151" lon="13.30501203483629"><ele>815.8</ele><time>2026-05-02T15:33:56Z</time></trkpt><trkpt lat="42.31738903732445" lon="13.305120454059871"><ele>815.0</ele><time>2026-05-02T15:33:57Z</time></trkpt><trkpt lat="42.31734135895195" lon="13.305250466031222"><ele>815.0</ele><time>2026-05-02T15:33:58Z</time></trkpt><trkpt lat="42.31727522621331" lon="13.305347772206758"><ele>815.0</ele><time>2026-05-02T15:33:59Z</time></trkpt><trkpt lat="42.31722539670881" lon="13.3054564651278"><ele>815.0</ele><time>2026-05-02T15:34:00Z</time></trkpt><trkpt lat="42.31719505995554" lon="13.305569630234164"><ele>815.0</ele><time>2026-05-02T15:34:01Z</time></trkpt><trkpt lat="42.3171721071818" lon="13.305688625081482"><ele>815.0</ele><time>2026-05-02T15:34:02Z</time></trkpt><trkpt lat="42.31716065666242" lon="13.305826966229427"><ele>816.0</ele><time>2026-05-02T15:34:03Z</time></trkpt><trkpt lat="42.31715035113977" lon="13.305969781516401"><ele>817.0</ele><time>2026-05-02T15:34:04Z</time></trkpt><trkpt lat="42.317129185787465" lon="13.306097840418325"><ele>818.0</ele><time>2026-05-02T15:34:05Z</time></trkpt><trkpt lat="42.31713120522837" lon="13.306236591094486"><ele>819.0</ele><time>2026-05-02T15:34:06Z</time></trkpt><trkpt lat="42.31711672647379" lon="13.306373136702973"><ele>820.0</ele><time>2026-05-02T15:34:07Z</time></trkpt><trkpt lat="42.31710150417165" lon="13.306522253881434"><ele>820.0</ele><time>2026-05-02T15:34:08Z</time></trkpt><trkpt lat="42.31709008693197" lon="13.306667547549374"><ele>820.0</ele><time>2026-05-02T15:34:09Z</time></trkpt><trkpt lat="42.31708157352342" lon="13.306794735241429"><ele>820.0</ele><time>2026-05-02T15:34:10Z</time></trkpt><trkpt lat="42.31705031548492" lon="13.306917970227218"><ele>820.0</ele><time>2026-05-02T15:34:11Z</time></trkpt><trkpt lat="42.317031091868124" lon="13.307045187354499"><ele>820.0</ele><time>2026-05-02T15:34:12Z</time></trkpt><trkpt lat="42.31701130349146" lon="13.307175730573267"><ele>820.6</ele><time>2026-05-02T15:34:13Z</time></trkpt><trkpt lat="42.316991243959684" lon="13.307302485409307"><ele>821.2</ele><time>2026-05-02T15:34:14Z</time></trkpt><trkpt lat="42.31697130654589" lon="13.307428468476253"><ele>821.8</ele><time>2026-05-02T15:34:15Z</time></trkpt><trkpt lat="42.31695077415708" lon="13.30755185174469"><ele>822.4</ele><time>2026-05-02T15:34:16Z</time></trkpt><trkpt lat="42.31693108163869" lon="13.307666133634585"><ele>823.0</ele><time>2026-05-02T15:34:17Z</time></trkpt><trkpt lat="42.316909339345514" lon="13.30778930037424"><ele>823.0</ele><time>2026-05-02T15:34:18Z</time></trkpt><trkpt lat="42.31689599166799" lon="13.30791004456053"><ele>823.0</ele><time>2026-05-02T15:34:19Z</time></trkpt><trkpt lat="42.31683383975124" lon="13.30800981746662"><ele>823.0</ele><time>2026-05-02T15:34:20Z</time></trkpt><trkpt lat="42.31676740992096" lon="13.308124146843111"><ele>823.0</ele><time>2026-05-02T15:34:21Z</time></trkpt><trkpt lat="42.316687216190616" lon="13.30825644904818"><ele>823.0</ele><time>2026-05-02T15:34:22Z</time></trkpt><trkpt lat="42.31660876825379" lon="13.30837921899385"><ele>822.5999999999999</ele><time>2026-05-02T15:34:23Z</time></trkpt><trkpt lat="42.316547216105675" lon="13.308475547263852"><ele>822.1999999999999</ele><time>2026-05-02T15:34:24Z</time></trkpt><trkpt lat="42.316496317346775" lon="13.308563602887416"><ele>821.8</ele><time>2026-05-02T15:34:25Z</time></trkpt><trkpt lat="42.31646879276514" lon="13.308673999777378"><ele>821.4</ele><time>2026-05-02T15:34:26Z</time></trkpt><trkpt lat="42.31643509020035" lon="13.308791637855572"><ele>821.0</ele><time>2026-05-02T15:34:27Z</time></trkpt><trkpt lat="42.31639089288734" lon="13.308902895260069"><ele>821.4</ele><time>2026-05-02T15:34:28Z</time></trkpt><trkpt lat="42.316342907923605" lon="13.309004904920199"><ele>821.8</ele><time>2026-05-02T15:34:29Z</time></trkpt><trkpt lat="42.31628317871321" lon="13.309107388617381"><ele>822.1999999999999</ele><time>2026-05-02T15:34:30Z</time></trkpt><trkpt lat="42.31621341253187" lon="13.309214815273549"><ele>822.5999999999999</ele><time>2026-05-02T15:34:31Z</time></trkpt><trkpt lat="42.31613683837589" lon="13.309330936362114"><ele>823.0</ele><time>2026-05-02T15:34:32Z</time></trkpt><trkpt lat="42.31606402092067" lon="13.309443512739046"><ele>823.0</ele><time>2026-05-02T15:34:33Z</time></trkpt><trkpt lat="42.315987782322225" lon="13.309566834600954"><ele>823.0</ele><time>2026-05-02T15:34:34Z</time></trkpt><trkpt lat="42.31593129248464" lon="13.309700326922599"><ele>823.0</ele><time>2026-05-02T15:34:35Z</time></trkpt><trkpt lat="42.315863077388705" lon="13.30981983945637"><ele>823.0</ele><time>2026-05-02T15:34:36Z</time></trkpt><trkpt lat="42.315786766184964" lon="13.30993036797709"><ele>824.0</ele><time>2026-05-02T15:34:37Z</time></trkpt><trkpt lat="42.31572213839675" lon="13.310051287181762"><ele>825.0</ele><time>2026-05-02T15:34:38Z</time></trkpt><trkpt lat="42.315670664357604" lon="13.31017414871679"><ele>826.0</ele><time>2026-05-02T15:34:39Z</time></trkpt><trkpt lat="42.31560620367876" lon="13.310274621803645"><ele>827.0</ele><time>2026-05-02T15:34:40Z</time></trkpt><trkpt lat="42.31555041127425" lon="13.310393184088417"><ele>828.0</ele><time>2026-05-02T15:34:41Z</time></trkpt><trkpt lat="42.315484717902784" lon="13.310516788786972"><ele>829.1666666666666</ele><time>2026-05-02T15:34:42Z</time></trkpt><trkpt lat="42.315423071023226" lon="13.310602843920865"><ele>830.3333333333333</ele><time>2026-05-02T15:34:43Z</time></trkpt><trkpt lat="42.31537293685878" lon="13.31068751482469"><ele>831.5</ele><time>2026-05-02T15:34:44Z</time></trkpt><trkpt lat="42.315308579578726" lon="13.310757913159236"><ele>832.6666666666666</ele><time>2026-05-02T15:34:45Z</time></trkpt><trkpt lat="42.31526377240109" lon="13.310819148031992"><ele>833.8333333333333</ele><time>2026-05-02T15:34:46Z</time></trkpt><trkpt lat="42.31520959034426" lon="13.310890006170425"><ele>835.0</ele><time>2026-05-02T15:34:47Z</time></trkpt><trkpt lat="42.31515291986481" lon="13.31095293115585"><ele>834.9999999999999</ele><time>2026-05-02T15:34:48Z</time></trkpt><trkpt lat="42.31508863615397" lon="13.31101489829623"><ele>835.0</ele><time>2026-05-02T15:34:49Z</time></trkpt><trkpt lat="42.31502140822851" lon="13.311074370380135"><ele>835.0</ele><time>2026-05-02T15:34:50Z</time></trkpt><trkpt lat="42.314954726134694" lon="13.311122048785169"><ele>835.0</ele><time>2026-05-02T15:34:51Z</time></trkpt><trkpt lat="42.31484956643774" lon="13.311180983315474"><ele>834.9999999999999</ele><time>2026-05-02T15:34:53Z</time></trkpt><trkpt lat="42.31478948802413" lon="13.311251106152833"><ele>835.0</ele><time>2026-05-02T15:34:58Z</time></trkpt><trkpt lat="42.31483429954658" lon="13.311413261216027"><ele>833.6</ele><time>2026-05-02T15:34:59Z</time></trkpt><trkpt lat="42.31485926071555" lon="13.311525870309216"><ele>832.2</ele><time>2026-05-02T15:35:01Z</time></trkpt><trkpt lat="42.314931038906465" lon="13.311581806145997"><ele>830.8</ele><time>2026-05-02T15:35:03Z</time></trkpt><trkpt lat="42.31503657251814" lon="13.311661404921605"><ele>829.4</ele><time>2026-05-02T15:35:05Z</time></trkpt><trkpt lat="42.3151298145631" lon="13.311770345700253"><ele>828.0</ele><time>2026-05-02T15:35:07Z</time></trkpt><trkpt lat="42.315200131095665" lon="13.311893045413289"><ele>828.0</ele><time>2026-05-02T15:35:09Z</time></trkpt><trkpt lat="42.31527388317644" lon="13.312024207977139"><ele>828.0</ele><time>2026-05-02T15:35:11Z</time></trkpt><trkpt lat="42.31532860237224" lon="13.312103533420494"><ele>828.0</ele><time>2026-05-02T15:35:12Z</time></trkpt><trkpt lat="42.31537656256789" lon="13.312198670082797"><ele>828.0</ele><time>2026-05-02T15:35:13Z</time></trkpt><trkpt lat="42.3154361166394" lon="13.312295119235962"><ele>828.0</ele><time>2026-05-02T15:35:14Z</time></trkpt><trkpt lat="42.315495282184166" lon="13.312375845764032"><ele>828.3333333333334</ele><time>2026-05-02T15:35:15Z</time></trkpt><trkpt lat="42.31554494893724" lon="13.312454164500545"><ele>828.6666666666667</ele><time>2026-05-02T15:35:16Z</time></trkpt><trkpt lat="42.31561267511776" lon="13.312536759369557"><ele>829.0</ele><time>2026-05-02T15:35:18Z</time></trkpt><trkpt lat="42.31571855395282" lon="13.312538250806005"><ele>829.3333333333334</ele><time>2026-05-02T15:35:20Z</time></trkpt><trkpt lat="42.315786036063464" lon="13.312510199683274"><ele>829.6666666666667</ele><time>2026-05-02T15:35:21Z</time></trkpt><trkpt lat="42.31585467443603" lon="13.312494857418164"><ele>830.0</ele><time>2026-05-02T15:35:22Z</time></trkpt><trkpt lat="42.315953511955854" lon="13.312546838239127"><ele>830.3333333333334</ele><time>2026-05-02T15:35:24Z</time></trkpt><trkpt lat="42.31606385398832" lon="13.312623614612178"><ele>830.6666666666667</ele><time>2026-05-02T15:35:26Z</time></trkpt><trkpt lat="42.31612665288539" lon="13.31266614862915"><ele>831.0</ele><time>2026-05-02T15:35:27Z</time></trkpt><trkpt lat="42.316201914577015" lon="13.312707598037607"><ele>831.3333333333333</ele><time>2026-05-02T15:35:28Z</time></trkpt><trkpt lat="42.316266014348486" lon="13.31273847470234"><ele>831.6666666666666</ele><time>2026-05-02T15:35:29Z</time></trkpt><trkpt lat="42.316344240369226" lon="13.312793865388803"><ele>832.0</ele><time>2026-05-02T15:35:30Z</time></trkpt><trkpt lat="42.31643163156728" lon="13.312866696525955"><ele>834.0</ele><time>2026-05-02T15:35:31Z</time></trkpt><trkpt lat="42.316518798652694" lon="13.312928797814271"><ele>836.0</ele><time>2026-05-02T15:35:32Z</time></trkpt><trkpt lat="42.316602763443896" lon="13.31296162752063"><ele>838.0</ele><time>2026-05-02T15:35:33Z</time></trkpt><trkpt lat="42.316687287535444" lon="13.313009385669435"><ele>840.0</ele><time>2026-05-02T15:35:34Z</time></trkpt><trkpt lat="42.31677298951663" lon="13.313073307455374"><ele>842.0</ele><time>2026-05-02T15:35:35Z</time></trkpt><trkpt lat="42.31685981646512" lon="13.313131167116602"><ele>843.0000000000001</ele><time>2026-05-02T15:35:36Z</time></trkpt><trkpt lat="42.31693435238228" lon="13.313161908553605"><ele>844.0</ele><time>2026-05-02T15:35:37Z</time></trkpt><trkpt lat="42.31700767202924" lon="13.31318225628179"><ele>845.0</ele><time>2026-05-02T15:35:38Z</time></trkpt><trkpt lat="42.31707204274117" lon="13.313171660654978"><ele>846.0</ele><time>2026-05-02T15:35:39Z</time></trkpt><trkpt lat="42.31713709857742" lon="13.313139886619993"><ele>847.0000000000001</ele><time>2026-05-02T15:35:40Z</time></trkpt><trkpt lat="42.31720178052778" lon="13.313135224742352"><ele>848.0</ele><time>2026-05-02T15:35:41Z</time></trkpt><trkpt lat="42.31731304414165" lon="13.31319591480141"><ele>849.0</ele><time>2026-05-02T15:35:43Z</time></trkpt><trkpt lat="42.317378537802526" lon="13.313264200723992"><ele>850.0</ele><time>2026-05-02T15:35:44Z</time></trkpt><trkpt lat="42.317483620039575" lon="13.313389667259708"><ele>851.0</ele><time>2026-05-02T15:35:46Z</time></trkpt><trkpt lat="42.317550240951185" lon="13.313470438659863"><ele>852.0</ele><time>2026-05-02T15:35:47Z</time></trkpt><trkpt lat="42.31761228758326" lon="13.313533982635393"><ele>853.0</ele><time>2026-05-02T15:35:48Z</time></trkpt><trkpt lat="42.31767511700523" lon="13.31360441698518"><ele>852.9999999999999</ele><time>2026-05-02T15:35:49Z</time></trkpt><trkpt lat="42.317743670227955" lon="13.313679020265624"><ele>853.0</ele><time>2026-05-02T15:35:50Z</time></trkpt><trkpt lat="42.31780585203337" lon="13.313740269675305"><ele>853.0</ele><time>2026-05-02T15:35:51Z</time></trkpt><trkpt lat="42.31786844419284" lon="13.313804167109106"><ele>853.0</ele><time>2026-05-02T15:35:52Z</time></trkpt><trkpt lat="42.317932427338" lon="13.313874122444464"><ele>852.9999999999999</ele><time>2026-05-02T15:35:53Z</time></trkpt><trkpt lat="42.31800305814572" lon="13.313944483571564"><ele>853.0</ele><time>2026-05-02T15:35:54Z</time></trkpt><trkpt lat="42.31807443283542" lon="13.31400358176832"><ele>853.4999999999999</ele><time>2026-05-02T15:35:55Z</time></trkpt><trkpt lat="42.31813809486983" lon="13.314035560086374"><ele>854.0</ele><time>2026-05-02T15:35:56Z</time></trkpt><trkpt lat="42.31825244133881" lon="13.314070920218581"><ele>854.5</ele><time>2026-05-02T15:35:58Z</time></trkpt><trkpt lat="42.31828401118943" lon="13.314156362818578"><ele>855.0</ele><time>2026-05-02T15:35:59Z</time></trkpt><trkpt lat="42.31834977280775" lon="13.314150836656745"><ele>855.4999999999999</ele><time>2026-05-02T15:36:05Z</time></trkpt><trkpt lat="42.31845026970145" lon="13.314073026775326"><ele>856.0</ele><time>2026-05-02T15:36:07Z</time></trkpt><trkpt lat="42.31847377656953" lon="13.313977526133703"><ele>855.1999999999999</ele><time>2026-05-02T15:36:08Z</time></trkpt><trkpt lat="42.31851948825143" lon="13.313894076191596"><ele>854.3999999999999</ele><time>2026-05-02T15:36:09Z</time></trkpt><trkpt lat="42.31857109841426" lon="13.313806460051909"><ele>853.6</ele><time>2026-05-02T15:36:10Z</time></trkpt><trkpt lat="42.31861874360481" lon="13.313749572217972"><ele>852.8</ele><time>2026-05-02T15:36:11Z</time></trkpt><trkpt lat="42.31872451906742" lon="13.313716040552336"><ele>852.0</ele><time>2026-05-02T15:36:13Z</time></trkpt><trkpt lat="42.31884325236061" lon="13.313787258823176"><ele>851.0</ele><time>2026-05-02T15:36:15Z</time></trkpt><trkpt lat="42.31892561593294" lon="13.31385053594128"><ele>850.0</ele><time>2026-05-02T15:36:16Z</time></trkpt><trkpt lat="42.31901640960809" lon="13.313922396411346"><ele>849.0</ele><time>2026-05-02T15:36:17Z</time></trkpt><trkpt lat="42.319113765363035" lon="13.31400067570497"><ele>848.0</ele><time>2026-05-02T15:36:18Z</time></trkpt><trkpt lat="42.319211574442726" lon="13.314080916489877"><ele>847.0</ele><time>2026-05-02T15:36:19Z</time></trkpt><trkpt lat="42.31930661193493" lon="13.314158603560369"><ele>847.0</ele><time>2026-05-02T15:36:20Z</time></trkpt><trkpt lat="42.319398566023345" lon="13.314234776521285"><ele>847.0</ele><time>2026-05-02T15:36:21Z</time></trkpt><trkpt lat="42.31948930510274" lon="13.314307007065498"><ele>847.0</ele><time>2026-05-02T15:36:22Z</time></trkpt><trkpt lat="42.31958126050435" lon="13.314379719961604"><ele>847.0</ele><time>2026-05-02T15:36:23Z</time></trkpt><trkpt lat="42.31967295707587" lon="13.314451793469981"><ele>847.0</ele><time>2026-05-02T15:36:24Z</time></trkpt><trkpt lat="42.31975567852167" lon="13.314545902530234"><ele>845.8</ele><time>2026-05-02T15:36:25Z</time></trkpt><trkpt lat="42.31984406463554" lon="13.314630152384222"><ele>844.6</ele><time>2026-05-02T15:36:26Z</time></trkpt><trkpt lat="42.319932025960405" lon="13.314713791715265"><ele>843.4</ele><time>2026-05-02T15:36:27Z</time></trkpt><trkpt lat="42.32002337392104" lon="13.314795034085245"><ele>842.1999999999999</ele><time>2026-05-02T15:36:28Z</time></trkpt><trkpt lat="42.320115839478" lon="13.314867918082216"><ele>841.0</ele><time>2026-05-02T15:36:29Z</time></trkpt><trkpt lat="42.3202062165223" lon="13.314933934703644"><ele>840.4999999999999</ele><time>2026-05-02T15:36:30Z</time></trkpt><trkpt lat="42.32028798765567" lon="13.31499420154443"><ele>840.0</ele><time>2026-05-02T15:36:31Z</time></trkpt><trkpt lat="42.32034849445494" lon="13.31504760431633"><ele>839.5</ele><time>2026-05-02T15:36:32Z</time></trkpt><trkpt lat="42.32043111464927" lon="13.315159571836405"><ele>839.0</ele><time>2026-05-02T15:36:34Z</time></trkpt><trkpt lat="42.320423564881764" lon="13.315259418457158"><ele>838.4999999999999</ele><time>2026-05-02T15:36:35Z</time></trkpt><trkpt lat="42.32040765060519" lon="13.315359089468334"><ele>838.0</ele><time>2026-05-02T15:36:36Z</time></trkpt><trkpt lat="42.320370210446214" lon="13.315482080370103"><ele>837.9999999999999</ele><time>2026-05-02T15:36:38Z</time></trkpt><trkpt lat="42.32029930278399" lon="13.315508216900554"><ele>838.0</ele><time>2026-05-02T15:36:40Z</time></trkpt><trkpt lat="42.320259302329454" lon="13.315623388495277"><ele>838.0</ele><time>2026-05-02T15:36:42Z</time></trkpt><trkpt lat="42.32024583101347" lon="13.315726268199297"><ele>838.0</ele><time>2026-05-02T15:36:46Z</time></trkpt><trkpt lat="42.32026041113399" lon="13.31563185750993"><ele>837.9999999999999</ele><time>2026-05-02T15:37:03Z</time></trkpt><trkpt lat="42.320284574530525" lon="13.31553430531144"><ele>838.0</ele><time>2026-05-02T15:37:05Z</time></trkpt><trkpt lat="42.3205260053849" lon="13.315640679401687"><ele>836.2</ele><time>2026-05-02T15:37:08Z</time></trkpt><trkpt lat="42.32059777330504" lon="13.315693265724683"><ele>834.4</ele><time>2026-05-02T15:37:09Z</time></trkpt><trkpt lat="42.320698063696575" lon="13.315738461338661"><ele>832.6</ele><time>2026-05-02T15:37:11Z</time></trkpt><trkpt lat="42.320736835197096" lon="13.31580686173221"><ele>830.8000000000001</ele><time>2026-05-02T15:37:13Z</time></trkpt><trkpt lat="42.32069609384703" lon="13.315947504655421"><ele>829.0</ele><time>2026-05-02T15:37:15Z</time></trkpt><trkpt lat="42.32079258039618" lon="13.316020950382123"><ele>829.0</ele><time>2026-05-02T15:37:16Z</time></trkpt><trkpt lat="42.320857414600354" lon="13.31608171588258"><ele>829.0</ele><time>2026-05-02T15:37:17Z</time></trkpt><trkpt lat="42.32068736993086" lon="13.316049505392632"><ele>829.0</ele><time>2026-05-02T15:37:18Z</time></trkpt><trkpt lat="42.32091466463393" lon="13.31613302949574"><ele>829.0</ele><time>2026-05-02T15:37:19Z</time></trkpt><trkpt lat="42.32104785484473" lon="13.315926621413272"><ele>829.0</ele><time>2026-05-02T15:37:20Z</time></trkpt><trkpt lat="42.321179784286485" lon="13.315905678146004"><ele>829.0</ele><time>2026-05-02T15:37:22Z</time></trkpt><trkpt lat="42.32123890645842" lon="13.316025253999355"><ele>829.0</ele><time>2026-05-02T15:37:23Z</time></trkpt><trkpt lat="42.32130225545853" lon="13.316077600298096"><ele>829.0</ele><time>2026-05-02T15:37:24Z</time></trkpt><trkpt lat="42.32136530127662" lon="13.316099882430164"><ele>829.0</ele><time>2026-05-02T15:37:25Z</time></trkpt><trkpt lat="42.32146547869473" lon="13.316165344575904"><ele>829.0</ele><time>2026-05-02T15:37:27Z</time></trkpt><trkpt lat="42.321548220689635" lon="13.316190257182"><ele>829.0</ele><time>2026-05-02T15:37:29Z</time></trkpt><trkpt lat="42.32164359296493" lon="13.316197347639639"><ele>829.0</ele><time>2026-05-02T15:37:31Z</time></trkpt><trkpt lat="42.32173818151869" lon="13.31619080280508"><ele>828.0</ele><time>2026-05-02T15:37:33Z</time></trkpt><trkpt lat="42.321818365557306" lon="13.316193703284751"><ele>827.0</ele><time>2026-05-02T15:37:34Z</time></trkpt><trkpt lat="42.321907868109705" lon="13.31621324423722"><ele>826.0</ele><time>2026-05-02T15:37:35Z</time></trkpt><trkpt lat="42.32199302637655" lon="13.316236801598192"><ele>825.0</ele><time>2026-05-02T15:37:36Z</time></trkpt><trkpt lat="42.322105627602404" lon="13.316128008846368"><ele>824.0</ele><time>2026-05-02T15:37:37Z</time></trkpt><trkpt lat="42.32215113355838" lon="13.316284271585072"><ele>823.1666666666667</ele><time>2026-05-02T15:37:38Z</time></trkpt><trkpt lat="42.322243635391146" lon="13.316324634088817"><ele>822.3333333333334</ele><time>2026-05-02T15:37:39Z</time></trkpt><trkpt lat="42.322320688515575" lon="13.316362443188982"><ele>821.5</ele><time>2026-05-02T15:37:40Z</time></trkpt><trkpt lat="42.32238476828527" lon="13.316397212776064"><ele>820.6666666666667</ele><time>2026-05-02T15:37:41Z</time></trkpt><trkpt lat="42.32244688442384" lon="13.316425586510904"><ele>819.8333333333334</ele><time>2026-05-02T15:37:42Z</time></trkpt><trkpt lat="42.32257281463903" lon="13.316483830657024"><ele>819.0</ele><time>2026-05-02T15:37:44Z</time></trkpt><trkpt lat="42.32263079215095" lon="13.316522004594784"><ele>819.0</ele><time>2026-05-02T15:37:45Z</time></trkpt><trkpt lat="42.32273131034956" lon="13.316588825933154"><ele>819.0</ele><time>2026-05-02T15:37:47Z</time></trkpt><trkpt lat="42.32279708336385" lon="13.316599738448037"><ele>819.0</ele><time>2026-05-02T15:37:48Z</time></trkpt><trkpt lat="42.322863218211666" lon="13.316606993592018"><ele>819.0</ele><time>2026-05-02T15:37:49Z</time></trkpt><trkpt lat="42.32293859865393" lon="13.31662921185361"><ele>819.0</ele><time>2026-05-02T15:37:51Z</time></trkpt><trkpt lat="42.32300268206936" lon="13.31653820710889"><ele>819.0</ele><time>2026-05-02T15:37:52Z</time></trkpt><trkpt lat="42.32309494204518" lon="13.316573884353565"><ele>819.0</ele><time>2026-05-02T15:37:54Z</time></trkpt><trkpt lat="42.32315950434206" lon="13.31659694001548"><ele>819.0</ele><time>2026-05-02T15:37:56Z</time></trkpt><trkpt lat="42.323088117666806" lon="13.316571245379816"><ele>819.0</ele><time>2026-05-02T15:38:22Z</time></trkpt><trkpt lat="42.322989830036974" lon="13.316533237172536"><ele>819.0</ele><time>2026-05-02T15:38:24Z</time></trkpt><trkpt lat="42.32292665121463" lon="13.31650842504062"><ele>819.0</ele><time>2026-05-02T15:38:25Z</time></trkpt><trkpt lat="42.322828658763505" lon="13.316468192835973"><ele>819.0</ele><time>2026-05-02T15:38:27Z</time></trkpt><trkpt lat="42.322807534293254" lon="13.316379170606593"><ele>818.1666666666666</ele><time>2026-05-02T15:39:15Z</time></trkpt><trkpt lat="42.32282825166609" lon="13.31628459063189"><ele>817.3333333333333</ele><time>2026-05-02T15:39:16Z</time></trkpt><trkpt lat="42.32284800265511" lon="13.31619067694307"><ele>816.5</ele><time>2026-05-02T15:39:17Z</time></trkpt><trkpt lat="42.32286360187029" lon="13.316049636624566"><ele>815.6666666666666</ele><time>2026-05-02T15:39:19Z</time></trkpt><trkpt lat="42.32292911450502" lon="13.315986990993972"><ele>814.8333333333333</ele><time>2026-05-02T15:39:21Z</time></trkpt><trkpt lat="42.323006389137554" lon="13.315991270796923"><ele>814.0</ele><time>2026-05-02T15:39:23Z</time></trkpt><trkpt lat="42.32314142538104" lon="13.316042431956818"><ele>812.4000000000001</ele><time>2026-05-02T15:39:25Z</time></trkpt><trkpt lat="42.32323712164957" lon="13.316075587680112"><ele>810.8</ele><time>2026-05-02T15:39:26Z</time></trkpt><trkpt lat="42.32333311148928" lon="13.316104906591788"><ele>809.2</ele><time>2026-05-02T15:39:27Z</time></trkpt><trkpt lat="42.32343115171616" lon="13.316133792480613"><ele>807.5999999999999</ele><time>2026-05-02T15:39:28Z</time></trkpt><trkpt lat="42.323530361348" lon="13.316154462957334"><ele>806.0</ele><time>2026-05-02T15:39:29Z</time></trkpt><trkpt lat="42.32363074219831" lon="13.316172337313871"><ele>806.0000000000001</ele><time>2026-05-02T15:39:30Z</time></trkpt><trkpt lat="42.323710574242575" lon="13.316189741559594"><ele>806.0</ele><time>2026-05-02T15:39:31Z</time></trkpt><trkpt lat="42.32378405546852" lon="13.316214885800067"><ele>806.0</ele><time>2026-05-02T15:39:32Z</time></trkpt><trkpt lat="42.32385662828584" lon="13.31623831628695"><ele>806.0</ele><time>2026-05-02T15:39:33Z</time></trkpt><trkpt lat="42.323948548973554" lon="13.316279600212988"><ele>806.0000000000001</ele><time>2026-05-02T15:39:34Z</time></trkpt><trkpt lat="42.324026756024004" lon="13.316312472201453"><ele>806.0</ele><time>2026-05-02T15:39:35Z</time></trkpt><trkpt lat="42.324093600502465" lon="13.316343113821233"><ele>806.6666666666667</ele><time>2026-05-02T15:39:36Z</time></trkpt><trkpt lat="42.324156988383365" lon="13.31637241052465"><ele>807.3333333333334</ele><time>2026-05-02T15:39:37Z</time></trkpt><trkpt lat="42.32421932628064" lon="13.31639774402019"><ele>808.0</ele><time>2026-05-02T15:39:38Z</time></trkpt><trkpt lat="42.324288510565204" lon="13.316421596179737"><ele>808.6666666666667</ele><time>2026-05-02T15:39:39Z</time></trkpt><trkpt lat="42.324355796053915" lon="13.316447642595902"><ele>809.3333333333334</ele><time>2026-05-02T15:39:40Z</time></trkpt><trkpt lat="42.3244148631858" lon="13.316478546454174"><ele>810.0</ele><time>2026-05-02T15:39:41Z</time></trkpt><trkpt lat="42.32453501392057" lon="13.316516690693016"><ele>809.9999999999999</ele><time>2026-05-02T15:39:43Z</time></trkpt><trkpt lat="42.32460332393538" lon="13.31651755821774"><ele>810.0</ele><time>2026-05-02T15:39:44Z</time></trkpt><trkpt lat="42.32467169108453" lon="13.31651898697457"><ele>810.0</ele><time>2026-05-02T15:39:45Z</time></trkpt><trkpt lat="42.32474313160463" lon="13.316529935618668"><ele>810.0</ele><time>2026-05-02T15:39:46Z</time></trkpt><trkpt lat="42.32481637361063" lon="13.316543791160367"><ele>810.0</ele><time>2026-05-02T15:39:47Z</time></trkpt><trkpt lat="42.3248946858103" lon="13.3165536351477"><ele>809.9999999999999</ele><time>2026-05-02T15:39:48Z</time></trkpt><trkpt lat="42.324971231099916" lon="13.316563165169677"><ele>810.0</ele><time>2026-05-02T15:39:49Z</time></trkpt><trkpt lat="42.325043539758056" lon="13.316565030203854"><ele>809.4</ele><time>2026-05-02T15:39:50Z</time></trkpt><trkpt lat="42.3251217637574" lon="13.316557173796891"><ele>808.8</ele><time>2026-05-02T15:39:51Z</time></trkpt><trkpt lat="42.325200253557306" lon="13.316553022007461"><ele>808.2</ele><time>2026-05-02T15:39:52Z</time></trkpt><trkpt lat="42.32526355917159" lon="13.316552301684563"><ele>807.6</ele><time>2026-05-02T15:39:53Z</time></trkpt><trkpt lat="42.325369866404294" lon="13.316521463452089"><ele>807.0</ele><time>2026-05-02T15:39:55Z</time></trkpt><trkpt lat="42.32547792777637" lon="13.3164383495058"><ele>805.0</ele><time>2026-05-02T15:39:57Z</time></trkpt><trkpt lat="42.32553362134806" lon="13.316394706249955"><ele>803.0</ele><time>2026-05-02T15:39:58Z</time></trkpt><trkpt lat="42.32563441056803" lon="13.316297696925085"><ele>801.0</ele><time>2026-05-02T15:40:00Z</time></trkpt><trkpt lat="42.32569836500565" lon="13.316256604868915"><ele>799.0</ele><time>2026-05-02T15:40:01Z</time></trkpt><trkpt lat="42.32575975415904" lon="13.316215269349122"><ele>797.0</ele><time>2026-05-02T15:40:02Z</time></trkpt><trkpt lat="42.32582201063957" lon="13.316181585379374"><ele>795.0</ele><time>2026-05-02T15:40:03Z</time></trkpt><trkpt lat="42.325882664308445" lon="13.316145221135317"><ele>795.0</ele><time>2026-05-02T15:40:04Z</time></trkpt><trkpt lat="42.32594081206125" lon="13.316108752277724"><ele>795.0</ele><time>2026-05-02T15:40:05Z</time></trkpt><trkpt lat="42.32606422286898" lon="13.316060591144138"><ele>795.0</ele><time>2026-05-02T15:40:07Z</time></trkpt><trkpt lat="42.32613564510705" lon="13.316051973437292"><ele>795.0</ele><time>2026-05-02T15:40:08Z</time></trkpt><trkpt lat="42.32621288002789" lon="13.316052035161622"><ele>795.0</ele><time>2026-05-02T15:40:09Z</time></trkpt><trkpt lat="42.32628438206441" lon="13.316051644114884"><ele>795.0</ele><time>2026-05-02T15:40:10Z</time></trkpt><trkpt lat="42.326392645435725" lon="13.316035038258033"><ele>795.0</ele><time>2026-05-02T15:40:12Z</time></trkpt><trkpt lat="42.32650473824839" lon="13.315979844093931"><ele>795.0</ele><time>2026-05-02T15:40:14Z</time></trkpt><trkpt lat="42.3265826719029" lon="13.31590737940665"><ele>795.0</ele><time>2026-05-02T15:40:16Z</time></trkpt><trkpt lat="42.32664273735389" lon="13.315881084168275"><ele>795.0</ele><time>2026-05-02T15:40:17Z</time></trkpt><trkpt lat="42.32677891592388" lon="13.315892456256345"><ele>795.0</ele><time>2026-05-02T15:40:19Z</time></trkpt><trkpt lat="42.32684833017495" lon="13.315909883864284"><ele>795.0</ele><time>2026-05-02T15:40:20Z</time></trkpt><trkpt lat="42.32692605195701" lon="13.31592975246336"><ele>795.0</ele><time>2026-05-02T15:40:21Z</time></trkpt><trkpt lat="42.327014025664084" lon="13.315934437771718"><ele>795.0</ele><time>2026-05-02T15:40:22Z</time></trkpt><trkpt lat="42.32710848577273" lon="13.315933260018546"><ele>795.0</ele><time>2026-05-02T15:40:23Z</time></trkpt><trkpt lat="42.32719680599289" lon="13.315929478599033"><ele>795.0</ele><time>2026-05-02T15:40:24Z</time></trkpt><trkpt lat="42.32728140068734" lon="13.315934313941963"><ele>795.0</ele><time>2026-05-02T15:40:25Z</time></trkpt><trkpt lat="42.32736024518944" lon="13.31594871924858"><ele>794.3333333333334</ele><time>2026-05-02T15:40:26Z</time></trkpt><trkpt lat="42.32744452475564" lon="13.315967453088668"><ele>793.6666666666667</ele><time>2026-05-02T15:40:27Z</time></trkpt><trkpt lat="42.32751763548417" lon="13.315987024460885"><ele>793.0</ele><time>2026-05-02T15:40:28Z</time></trkpt><trkpt lat="42.327597234419606" lon="13.315987543070738"><ele>792.3333333333334</ele><time>2026-05-02T15:40:29Z</time></trkpt><trkpt lat="42.32768517657737" lon="13.315979534783471"><ele>791.6666666666667</ele><time>2026-05-02T15:40:30Z</time></trkpt><trkpt lat="42.32776051904922" lon="13.315976105029241"><ele>791.0</ele><time>2026-05-02T15:40:31Z</time></trkpt><trkpt lat="42.32784989857297" lon="13.315991821938509"><ele>791.0</ele><time>2026-05-02T15:40:32Z</time></trkpt><trkpt lat="42.32794732796718" lon="13.316020866148586"><ele>791.0</ele><time>2026-05-02T15:40:33Z</time></trkpt><trkpt lat="42.3280463811372" lon="13.31605729375788"><ele>791.0</ele><time>2026-05-02T15:40:34Z</time></trkpt><trkpt lat="42.32813852701041" lon="13.316099039298841"><ele>791.0</ele><time>2026-05-02T15:40:35Z</time></trkpt><trkpt lat="42.328230033211305" lon="13.316137757985981"><ele>791.0</ele><time>2026-05-02T15:40:36Z</time></trkpt><trkpt lat="42.328314063050705" lon="13.316177788358166"><ele>791.5999999999999</ele><time>2026-05-02T15:40:37Z</time></trkpt><trkpt lat="42.32840050683668" lon="13.316226514483546"><ele>792.2</ele><time>2026-05-02T15:40:38Z</time></trkpt><trkpt lat="42.32847882911288" lon="13.316282798398172"><ele>792.8</ele><time>2026-05-02T15:40:39Z</time></trkpt><trkpt lat="42.3285575381094" lon="13.316346420330232"><ele>793.4000000000001</ele><time>2026-05-02T15:40:40Z</time></trkpt><trkpt lat="42.32861958713317" lon="13.316388504269982"><ele>794.0</ele><time>2026-05-02T15:40:41Z</time></trkpt><trkpt lat="42.3287218976712" lon="13.316444138202034"><ele>794.0</ele><time>2026-05-02T15:40:43Z</time></trkpt><trkpt lat="42.32883665512435" lon="13.316509124579223"><ele>794.0</ele><time>2026-05-02T15:40:45Z</time></trkpt><trkpt lat="42.328917936566675" lon="13.316508646899344"><ele>794.0</ele><time>2026-05-02T15:40:46Z</time></trkpt><trkpt lat="42.32900122577219" lon="13.316750565852981"><ele>794.0</ele><time>2026-05-02T15:40:47Z</time></trkpt><trkpt lat="42.32920516714538" lon="13.316744848045492"><ele>793.5000000000001</ele><time>2026-05-02T15:40:50Z</time></trkpt><trkpt lat="42.32929269926975" lon="13.316742393954925"><ele>793.0</ele><time>2026-05-02T15:40:51Z</time></trkpt><trkpt lat="42.32938012293005" lon="13.31673994290305"><ele>792.5</ele><time>2026-05-02T15:40:52Z</time></trkpt><trkpt lat="42.32946354367074" lon="13.316737604076481"><ele>792.0</ele><time>2026-05-02T15:40:53Z</time></trkpt><trkpt lat="42.329537957301355" lon="13.316735517786315"><ele>791.5000000000001</ele><time>2026-05-02T15:40:54Z</time></trkpt><trkpt lat="42.32962930017909" lon="13.31673295684941"><ele>791.0</ele><time>2026-05-02T15:40:55Z</time></trkpt><trkpt lat="42.329697984174004" lon="13.316731031197055"><ele>790.3333333333334</ele><time>2026-05-02T15:40:56Z</time></trkpt><trkpt lat="42.32978015740762" lon="13.316728727348423"><ele>789.6666666666667</ele><time>2026-05-02T15:40:57Z</time></trkpt><trkpt lat="42.329845515414426" lon="13.316726894940887"><ele>789.0</ele><time>2026-05-02T15:40:58Z</time></trkpt><trkpt lat="42.329914447845816" lon="13.316725244877807"><ele>788.3333333333333</ele><time>2026-05-02T15:40:59Z</time></trkpt><trkpt lat="42.329992585158976" lon="13.316723382105907"><ele>787.6666666666666</ele><time>2026-05-02T15:41:00Z</time></trkpt><trkpt lat="42.330071414685804" lon="13.316721502824635"><ele>787.0</ele><time>2026-05-02T15:41:01Z</time></trkpt><trkpt lat="42.33015720654151" lon="13.316719457560707"><ele>786.9999999999999</ele><time>2026-05-02T15:41:02Z</time></trkpt><trkpt lat="42.33023461064059" lon="13.316717612263506"><ele>787.0</ele><time>2026-05-02T15:41:03Z</time></trkpt><trkpt lat="42.33030796820688" lon="13.316715863440379"><ele>787.0</ele><time>2026-05-02T15:41:04Z</time></trkpt><trkpt lat="42.33038153017297" lon="13.316714109736425"><ele>787.0</ele><time>2026-05-02T15:41:05Z</time></trkpt><trkpt lat="42.33046653900987" lon="13.316712083148605"><ele>786.9999999999999</ele><time>2026-05-02T15:41:06Z</time></trkpt><trkpt lat="42.33055496806718" lon="13.316709975021869"><ele>787.0</ele><time>2026-05-02T15:41:07Z</time></trkpt><trkpt lat="42.330627872758676" lon="13.316708236995826"><ele>786.8571428571429</ele><time>2026-05-02T15:41:08Z</time></trkpt><trkpt lat="42.33069118945954" lon="13.316706727548144"><ele>786.7142857142857</ele><time>2026-05-02T15:41:09Z</time></trkpt><trkpt lat="42.330761610549445" lon="13.316705048724083"><ele>786.5714285714287</ele><time>2026-05-02T15:41:10Z</time></trkpt><trkpt lat="42.33083127671104" lon="13.31670338790073"><ele>786.4285714285714</ele><time>2026-05-02T15:41:11Z</time></trkpt><trkpt lat="42.33089879975299" lon="13.316701778171145"><ele>786.2857142857143</ele><time>2026-05-02T15:41:12Z</time></trkpt><trkpt lat="42.330974302767956" lon="13.316699971268841"><ele>786.1428571428572</ele><time>2026-05-02T15:41:13Z</time></trkpt><trkpt lat="42.33104338388701" lon="13.316698234685482"><ele>786.0</ele><time>2026-05-02T15:41:14Z</time></trkpt><trkpt lat="42.331160356280876" lon="13.316694664513117"><ele>786.0</ele><time>2026-05-02T15:41:16Z</time></trkpt><trkpt lat="42.33123241934197" lon="13.316692465050338"><ele>786.0</ele><time>2026-05-02T15:41:17Z</time></trkpt><trkpt lat="42.33130719730883" lon="13.316690182717823"><ele>786.0</ele><time>2026-05-02T15:41:18Z</time></trkpt><trkpt lat="42.33137120275398" lon="13.316688229168205"><ele>786.0</ele><time>2026-05-02T15:41:19Z</time></trkpt><trkpt lat="42.33150383899727" lon="13.316684180923577"><ele>786.0</ele><time>2026-05-02T15:41:21Z</time></trkpt><trkpt lat="42.331618536237805" lon="13.31668094204765"><ele>785.1666666666666</ele><time>2026-05-02T15:41:23Z</time></trkpt><trkpt lat="42.331732908076106" lon="13.316677941093765"><ele>784.3333333333333</ele><time>2026-05-02T15:41:25Z</time></trkpt><trkpt lat="42.33179866083514" lon="13.316676215833308"><ele>783.5</ele><time>2026-05-02T15:41:26Z</time></trkpt><trkpt lat="42.33187336633952" lon="13.316674255672991"><ele>782.6666666666666</ele><time>2026-05-02T15:41:27Z</time></trkpt><trkpt lat="42.331948780952274" lon="13.316672276904288"><ele>781.8333333333333</ele><time>2026-05-02T15:41:28Z</time></trkpt><trkpt lat="42.33201580133708" lon="13.31667051839366"><ele>781.0</ele><time>2026-05-02T15:41:29Z</time></trkpt><trkpt lat="42.33208480581434" lon="13.316668754369186"><ele>780.9999999999999</ele><time>2026-05-02T15:41:30Z</time></trkpt><trkpt lat="42.332164995484845" lon="13.316666876144684"><ele>781.0</ele><time>2026-05-02T15:41:31Z</time></trkpt><trkpt lat="42.33224576252728" lon="13.316664984384346"><ele>781.0</ele><time>2026-05-02T15:41:32Z</time></trkpt><trkpt lat="42.33233017798741" lon="13.316663007170403"><ele>781.0</ele><time>2026-05-02T15:41:33Z</time></trkpt><trkpt lat="42.33241336701717" lon="13.316661058678378"><ele>780.9999999999999</ele><time>2026-05-02T15:41:34Z</time></trkpt><trkpt lat="42.33249006646276" lon="13.316659262199282"><ele>781.0</ele><time>2026-05-02T15:41:35Z</time></trkpt><trkpt lat="42.33257171706482" lon="13.316657349746466"><ele>780.2857142857143</ele><time>2026-05-02T15:41:36Z</time></trkpt><trkpt lat="42.33264237791123" lon="13.316655694701751"><ele>779.5714285714287</ele><time>2026-05-02T15:41:37Z</time></trkpt><trkpt lat="42.332715760198695" lon="13.316653975900914"><ele>778.8571428571429</ele><time>2026-05-02T15:41:38Z</time></trkpt><trkpt lat="42.33278318875544" lon="13.3166523965499"><ele>778.1428571428571</ele><time>2026-05-02T15:41:39Z</time></trkpt><trkpt lat="42.33285820548305" lon="13.316650639467486"><ele>777.4285714285714</ele><time>2026-05-02T15:41:40Z</time></trkpt><trkpt lat="42.3329343977836" lon="13.316648854860004"><ele>776.7142857142857</ele><time>2026-05-02T15:41:41Z</time></trkpt><trkpt lat="42.333015800655595" lon="13.316646948200285"><ele>776.0</ele><time>2026-05-02T15:41:42Z</time></trkpt><trkpt lat="42.33310452738228" lon="13.316644869981333"><ele>775.8571428571428</ele><time>2026-05-02T15:41:43Z</time></trkpt><trkpt lat="42.33317278775624" lon="13.316643258323111"><ele>775.7142857142858</ele><time>2026-05-02T15:41:44Z</time></trkpt><trkpt lat="42.333240633072684" lon="13.316641614008525"><ele>775.5714285714286</ele><time>2026-05-02T15:41:45Z</time></trkpt><trkpt lat="42.333308172845555" lon="13.31663997710012"><ele>775.4285714285713</ele><time>2026-05-02T15:41:46Z</time></trkpt><trkpt lat="42.33338650343352" lon="13.316638078661738"><ele>775.2857142857142</ele><time>2026-05-02T15:41:47Z</time></trkpt><trkpt lat="42.33346997847083" lon="13.316636055534921"><ele>775.1428571428571</ele><time>2026-05-02T15:41:48Z</time></trkpt><trkpt lat="42.3335504566315" lon="13.316634105051646"><ele>775.0</ele><time>2026-05-02T15:41:49Z</time></trkpt><trkpt lat="42.333646636652276" lon="13.316631774013977"><ele>774.9999999999999</ele><time>2026-05-02T15:41:50Z</time></trkpt><trkpt lat="42.33372524732695" lon="13.316629868797296"><ele>775.0</ele><time>2026-05-02T15:41:51Z</time></trkpt><trkpt lat="42.33381647795005" lon="13.316627657715502"><ele>775.0</ele><time>2026-05-02T15:41:52Z</time></trkpt><trkpt lat="42.333890548732704" lon="13.316626009946715"><ele>775.0</ele><time>2026-05-02T15:41:53Z</time></trkpt><trkpt lat="42.33398031628298" lon="13.316624025582392"><ele>774.9999999999999</ele><time>2026-05-02T15:41:54Z</time></trkpt><trkpt lat="42.33407750007071" lon="13.31662187727334"><ele>775.0</ele><time>2026-05-02T15:41:55Z</time></trkpt><trkpt lat="42.33416887759326" lon="13.316619857316121"><ele>773.9999999999999</ele><time>2026-05-02T15:41:56Z</time></trkpt><trkpt lat="42.334246529782845" lon="13.316617977263185"><ele>773.0</ele><time>2026-05-02T15:41:57Z</time></trkpt><trkpt lat="42.33431750212897" lon="13.31661622501359"><ele>772.0</ele><time>2026-05-02T15:41:58Z</time></trkpt><trkpt lat="42.334382417831435" lon="13.31661462229293"><ele>771.0</ele><time>2026-05-02T15:41:59Z</time></trkpt><trkpt lat="42.33445729039868" lon="13.316612773748137"><ele>769.9999999999999</ele><time>2026-05-02T15:42:00Z</time></trkpt><trkpt lat="42.33453666621403" lon="13.316610814028248"><ele>769.0</ele><time>2026-05-02T15:42:01Z</time></trkpt><trkpt lat="42.33462096210033" lon="13.316608732820995"><ele>769.0</ele><time>2026-05-02T15:42:02Z</time></trkpt><trkpt lat="42.334701154177566" lon="13.31660675293918"><ele>769.0</ele><time>2026-05-02T15:42:03Z</time></trkpt><trkpt lat="42.334782362754325" lon="13.316604747959202"><ele>769.0</ele><time>2026-05-02T15:42:04Z</time></trkpt><trkpt lat="42.33484755323613" lon="13.316603138459534"><ele>769.0</ele><time>2026-05-02T15:42:05Z</time></trkpt><trkpt lat="42.33492336081521" lon="13.31660126682806"><ele>769.0</ele><time>2026-05-02T15:42:06Z</time></trkpt><trkpt lat="42.33499582935996" lon="13.31659947762904"><ele>769.0</ele><time>2026-05-02T15:42:07Z</time></trkpt><trkpt lat="42.33506545364589" lon="13.31659775866025"><ele>769.0</ele><time>2026-05-02T15:42:08Z</time></trkpt><trkpt lat="42.33514215832631" lon="13.316595864883247"><ele>768.9999999999999</ele><time>2026-05-02T15:42:09Z</time></trkpt><trkpt lat="42.335222959374775" lon="13.316593869969736"><ele>769.0</ele><time>2026-05-02T15:42:10Z</time></trkpt><trkpt lat="42.33530957863909" lon="13.316591731410671"><ele>769.0</ele><time>2026-05-02T15:42:11Z</time></trkpt><trkpt lat="42.33539817991951" lon="13.316588132484362"><ele>769.0</ele><time>2026-05-02T15:42:12Z</time></trkpt><trkpt lat="42.335489430595054" lon="13.316584121904844"><ele>768.9999999999999</ele><time>2026-05-02T15:42:13Z</time></trkpt><trkpt lat="42.335564948629546" lon="13.31658080280439"><ele>769.0</ele><time>2026-05-02T15:42:14Z</time></trkpt><trkpt lat="42.33565443471003" lon="13.31657686978896"><ele>768.6666666666666</ele><time>2026-05-02T15:42:15Z</time></trkpt><trkpt lat="42.33573586374407" lon="13.316573290889979"><ele>768.3333333333333</ele><time>2026-05-02T15:42:16Z</time></trkpt><trkpt lat="42.33581178335252" lon="13.316569947332463"><ele>768.0</ele><time>2026-05-02T15:42:17Z</time></trkpt><trkpt lat="42.33589127445576" lon="13.31656645360668"><ele>767.6666666666666</ele><time>2026-05-02T15:42:18Z</time></trkpt><trkpt lat="42.33597909021553" lon="13.31656259400843"><ele>767.3333333333333</ele><time>2026-05-02T15:42:19Z</time></trkpt><trkpt lat="42.33607009845011" lon="13.31655997640788"><ele>767.0</ele><time>2026-05-02T15:42:20Z</time></trkpt><trkpt lat="42.336166705105" lon="13.31655753483453"><ele>767.0</ele><time>2026-05-02T15:42:21Z</time></trkpt><trkpt lat="42.33626105145237" lon="13.316555150404229"><ele>767.0</ele><time>2026-05-02T15:42:22Z</time></trkpt><trkpt lat="42.33634990454199" lon="13.316552904788585"><ele>767.0</ele><time>2026-05-02T15:42:23Z</time></trkpt><trkpt lat="42.33642669355757" lon="13.316550964076312"><ele>767.0</ele><time>2026-05-02T15:42:24Z</time></trkpt><trkpt lat="42.33650098900747" lon="13.316549086393604"><ele>767.0</ele><time>2026-05-02T15:42:25Z</time></trkpt><trkpt lat="42.33657624800204" lon="13.316547184353476"><ele>767.0</ele><time>2026-05-02T15:42:26Z</time></trkpt><trkpt lat="42.33666468651594" lon="13.31654494921428"><ele>766.0</ele><time>2026-05-02T15:42:27Z</time></trkpt><trkpt lat="42.33675256574936" lon="13.316542728220766"><ele>765.0</ele><time>2026-05-02T15:42:28Z</time></trkpt><trkpt lat="42.33683050276907" lon="13.316540758493167"><ele>764.0</ele><time>2026-05-02T15:42:29Z</time></trkpt><trkpt lat="42.33690641773932" lon="13.316538834013011"><ele>763.0</ele><time>2026-05-02T15:42:30Z</time></trkpt><trkpt lat="42.33698576145423" lon="13.316536820865728"><ele>762.0</ele><time>2026-05-02T15:42:31Z</time></trkpt><trkpt lat="42.33707393216381" lon="13.316534583766016"><ele>761.0</ele><time>2026-05-02T15:42:32Z</time></trkpt><trkpt lat="42.33716459250635" lon="13.316532283495723"><ele>760.0</ele><time>2026-05-02T15:42:33Z</time></trkpt><trkpt lat="42.33725976930336" lon="13.316529868626604"><ele>759.0</ele><time>2026-05-02T15:42:34Z</time></trkpt><trkpt lat="42.33736150872285" lon="13.31652728725533"><ele>758.0</ele><time>2026-05-02T15:42:35Z</time></trkpt><trkpt lat="42.337468871245925" lon="13.316524563207276"><ele>757.0</ele><time>2026-05-02T15:42:36Z</time></trkpt><trkpt lat="42.33756766090394" lon="13.316522056683906"><ele>756.0</ele><time>2026-05-02T15:42:37Z</time></trkpt><trkpt lat="42.3376755854347" lon="13.31651870571406"><ele>756.0</ele><time>2026-05-02T15:42:38Z</time></trkpt><trkpt lat="42.337769440864136" lon="13.316514751246833"><ele>756.0</ele><time>2026-05-02T15:42:39Z</time></trkpt><trkpt lat="42.33785431203978" lon="13.316511175304006"><ele>756.0</ele><time>2026-05-02T15:42:40Z</time></trkpt><trkpt lat="42.33793830864659" lon="13.316508535385607"><ele>756.0</ele><time>2026-05-02T15:42:41Z</time></trkpt><trkpt lat="42.33803678258459" lon="13.316506008195665"><ele>756.0</ele><time>2026-05-02T15:42:42Z</time></trkpt><trkpt lat="42.33814038206975" lon="13.3165039910822"><ele>755.4</ele><time>2026-05-02T15:42:43Z</time></trkpt><trkpt lat="42.338245751896544" lon="13.316501939498623"><ele>754.8</ele><time>2026-05-02T15:42:44Z</time></trkpt><trkpt lat="42.338341164110446" lon="13.316500081791702"><ele>754.1999999999999</ele><time>2026-05-02T15:42:45Z</time></trkpt><trkpt lat="42.338433013202405" lon="13.316498293459869"><ele>753.5999999999999</ele><time>2026-05-02T15:42:46Z</time></trkpt><trkpt lat="42.338521675070865" lon="13.31649656718376"><ele>753.0</ele><time>2026-05-02T15:42:47Z</time></trkpt><trkpt lat="42.33862343705005" lon="13.316494585851945"><ele>753.0</ele><time>2026-05-02T15:42:48Z</time></trkpt><trkpt lat="42.338719759881734" lon="13.316492710412096"><ele>753.0</ele><time>2026-05-02T15:42:49Z</time></trkpt><trkpt lat="42.33880626028582" lon="13.316491026219168"><ele>753.0</ele><time>2026-05-02T15:42:50Z</time></trkpt><trkpt lat="42.33888478944703" lon="13.316490719385412"><ele>753.0</ele><time>2026-05-02T15:42:51Z</time></trkpt><trkpt lat="42.338960279894266" lon="13.316490719387815"><ele>753.0</ele><time>2026-05-02T15:42:52Z</time></trkpt><trkpt lat="42.339027035597155" lon="13.316491165096231"><ele>753.0</ele><time>2026-05-02T15:42:53Z</time></trkpt><trkpt lat="42.33911386994047" lon="13.316494300556743"><ele>752.5</ele><time>2026-05-02T15:42:54Z</time></trkpt><trkpt lat="42.33920032304342" lon="13.316497422250986"><ele>752.0</ele><time>2026-05-02T15:42:55Z</time></trkpt><trkpt lat="42.339278094805636" lon="13.316500230480239"><ele>751.5</ele><time>2026-05-02T15:42:56Z</time></trkpt><trkpt lat="42.33934884864794" lon="13.316502755432694"><ele>751.0</ele><time>2026-05-02T15:42:57Z</time></trkpt><trkpt lat="42.33947590038802" lon="13.316509088762524"><ele>750.5</ele><time>2026-05-02T15:42:59Z</time></trkpt><trkpt lat="42.339550573233694" lon="13.316512811102987"><ele>750.0</ele><time>2026-05-02T15:43:00Z</time></trkpt><trkpt lat="42.339637794694" lon="13.316517158959787"><ele>749.4</ele><time>2026-05-02T15:43:01Z</time></trkpt><trkpt lat="42.339724080967926" lon="13.31652146020753"><ele>748.8</ele><time>2026-05-02T15:43:02Z</time></trkpt><trkpt lat="42.33980178517527" lon="13.31652533361505"><ele>748.2</ele><time>2026-05-02T15:43:03Z</time></trkpt><trkpt lat="42.33992795301668" lon="13.316536162332396"><ele>747.6</ele><time>2026-05-02T15:43:05Z</time></trkpt><trkpt lat="42.34004753157298" lon="13.316549245634528"><ele>747.0</ele><time>2026-05-02T15:43:07Z</time></trkpt><trkpt lat="42.340118374659276" lon="13.31655707892282"><ele>747.0</ele><time>2026-05-02T15:43:08Z</time></trkpt><trkpt lat="42.34025108374279" lon="13.316575676495107"><ele>747.0</ele><time>2026-05-02T15:43:10Z</time></trkpt><trkpt lat="42.34033218392567" lon="13.316587519143196"><ele>747.0</ele><time>2026-05-02T15:43:11Z</time></trkpt><trkpt lat="42.3404111744149" lon="13.316599540834561"><ele>747.0</ele><time>2026-05-02T15:43:12Z</time></trkpt><trkpt lat="42.3404899413996" lon="13.316612300252546"><ele>747.0</ele><time>2026-05-02T15:43:13Z</time></trkpt><trkpt lat="42.34055408416322" lon="13.316622690680349"><ele>747.0</ele><time>2026-05-02T15:43:14Z</time></trkpt><trkpt lat="42.34065726574674" lon="13.31663919815508"><ele>746.6</ele><time>2026-05-02T15:43:16Z</time></trkpt><trkpt lat="42.34078411940969" lon="13.316664042550178"><ele>746.2</ele><time>2026-05-02T15:43:18Z</time></trkpt><trkpt lat="42.340850842783375" lon="13.316678775766299"><ele>745.8</ele><time>2026-05-02T15:43:19Z</time></trkpt><trkpt lat="42.34093038289914" lon="13.316697052596554"><ele>745.4</ele><time>2026-05-02T15:43:20Z</time></trkpt><trkpt lat="42.34099961459498" lon="13.316712960724736"><ele>745.0</ele><time>2026-05-02T15:43:21Z</time></trkpt><trkpt lat="42.34111557921494" lon="13.316744497542677"><ele>745.0</ele><time>2026-05-02T15:43:23Z</time></trkpt><trkpt lat="42.3411833265612" lon="13.31676332413175"><ele>745.0</ele><time>2026-05-02T15:43:24Z</time></trkpt><trkpt lat="42.34129960671605" lon="13.316800900221955"><ele>745.0</ele><time>2026-05-02T15:43:26Z</time></trkpt><trkpt lat="42.34153555208038" lon="13.31598921632616"><ele>744.1666666666667</ele><time>2026-05-02T15:43:27Z</time></trkpt><trkpt lat="42.341626675726374" lon="13.315984019230738"><ele>743.3333333333334</ele><time>2026-05-02T15:43:28Z</time></trkpt><trkpt lat="42.341709225130955" lon="13.315975100707341"><ele>742.5</ele><time>2026-05-02T15:43:29Z</time></trkpt><trkpt lat="42.34179517945876" lon="13.315962917217757"><ele>741.6666666666666</ele><time>2026-05-02T15:43:30Z</time></trkpt><trkpt lat="42.34188096424755" lon="13.315966879215908"><ele>740.8333333333333</ele><time>2026-05-02T15:43:31Z</time></trkpt><trkpt lat="42.34195734187873" lon="13.315970668252222"><ele>740.0</ele><time>2026-05-02T15:43:32Z</time></trkpt><trkpt lat="42.34202045428552" lon="13.315966607553042"><ele>739.9999999999999</ele><time>2026-05-02T15:43:33Z</time></trkpt><trkpt lat="42.34208751723507" lon="13.315972117577509"><ele>740.0</ele><time>2026-05-02T15:43:34Z</time></trkpt><trkpt lat="42.342154040834615" lon="13.315984725608175"><ele>740.0</ele><time>2026-05-02T15:43:35Z</time></trkpt><trkpt lat="42.34222501184698" lon="13.316011044767569"><ele>740.0</ele><time>2026-05-02T15:43:36Z</time></trkpt><trkpt lat="42.34229876956383" lon="13.316036554888994"><ele>740.0</ele><time>2026-05-02T15:43:37Z</time></trkpt><trkpt lat="42.342366822447985" lon="13.31603963576038"><ele>739.9999999999999</ele><time>2026-05-02T15:43:38Z</time></trkpt><trkpt lat="42.342435895273034" lon="13.316017824617285"><ele>740.0</ele><time>2026-05-02T15:43:39Z</time></trkpt><trkpt lat="42.342514299298955" lon="13.315953001891284"><ele>739.5</ele><time>2026-05-02T15:43:40Z</time></trkpt><trkpt lat="42.3425760676555" lon="13.315867567235186"><ele>739.0</ele><time>2026-05-02T15:43:41Z</time></trkpt><trkpt lat="42.34262399603755" lon="13.315794222506078"><ele>738.5</ele><time>2026-05-02T15:43:42Z</time></trkpt><trkpt lat="42.34267683615676" lon="13.315732453790751"><ele>738.0</ele><time>2026-05-02T15:43:43Z</time></trkpt><trkpt lat="42.34274846175574" lon="13.315678595925425"><ele>737.5</ele><time>2026-05-02T15:43:44Z</time></trkpt><trkpt lat="42.34282840190206" lon="13.315624723089268"><ele>737.0</ele><time>2026-05-02T15:43:45Z</time></trkpt><trkpt lat="42.342904569240055" lon="13.315568866275736"><ele>735.6666666666666</ele><time>2026-05-02T15:43:46Z</time></trkpt><trkpt lat="42.34296821257439" lon="13.315503908766825"><ele>734.3333333333333</ele><time>2026-05-02T15:43:47Z</time></trkpt><trkpt lat="42.34303094643408" lon="13.31545770257156"><ele>733.0</ele><time>2026-05-02T15:43:47.999Z</time></trkpt><trkpt lat="42.343100841767836" lon="13.315417260571419"><ele>731.6666666666666</ele><time>2026-05-02T15:43:48.999Z</time></trkpt><trkpt lat="42.343174581681495" lon="13.315389461735421"><ele>730.3333333333334</ele><time>2026-05-02T15:43:49.999Z</time></trkpt><trkpt lat="42.343288766006594" lon="13.315439957285006"><ele>729.0</ele><time>2026-05-02T15:43:51.999Z</time></trkpt><trkpt lat="42.34338572040584" lon="13.315369252965958"><ele>729.0</ele><time>2026-05-02T15:43:52.999Z</time></trkpt><trkpt lat="42.3434747189492" lon="13.315415116912812"><ele>729.0</ele><time>2026-05-02T15:43:53.999Z</time></trkpt><trkpt lat="42.343559074645896" lon="13.315441250874665"><ele>729.0</ele><time>2026-05-02T15:43:54.999Z</time></trkpt><trkpt lat="42.343640677054815" lon="13.31546760668969"><ele>729.0</ele><time>2026-05-02T15:43:55.999Z</time></trkpt><trkpt lat="42.343711948745565" lon="13.315506115993664"><ele>729.0</ele><time>2026-05-02T15:43:56.999Z</time></trkpt><trkpt lat="42.343782082081404" lon="13.315539069319676"><ele>729.0</ele><time>2026-05-02T15:43:57.999Z</time></trkpt><trkpt lat="42.34385705606652" lon="13.3155415153804"><ele>727.6</ele><time>2026-05-02T15:43:58.999Z</time></trkpt><trkpt lat="42.343940879804094" lon="13.315542555047774"><ele>726.2</ele><time>2026-05-02T15:43:59.999Z</time></trkpt><trkpt lat="42.34404019107189" lon="13.315545054858319"><ele>724.8000000000001</ele><time>2026-05-02T15:44:00.999Z</time></trkpt><trkpt lat="42.344147751483824" lon="13.31554894310979"><ele>723.4000000000001</ele><time>2026-05-02T15:44:01.999Z</time></trkpt><trkpt lat="42.3442500081677" lon="13.315541259803428"><ele>722.0</ele><time>2026-05-02T15:44:02.999Z</time></trkpt><trkpt lat="42.34435345450431" lon="13.315530895177478"><ele>722.0</ele><time>2026-05-02T15:44:04Z</time></trkpt><trkpt lat="42.34445492601413" lon="13.315528785584899"><ele>722.0</ele><time>2026-05-02T15:44:05Z</time></trkpt><trkpt lat="42.344551528823736" lon="13.315527389156161"><ele>722.0</ele><time>2026-05-02T15:44:06Z</time></trkpt><trkpt lat="42.34463990163454" lon="13.31552320173081"><ele>722.0</ele><time>2026-05-02T15:44:07Z</time></trkpt><trkpt lat="42.3447149577654" lon="13.315513996666605"><ele>722.0</ele><time>2026-05-02T15:44:08Z</time></trkpt><trkpt lat="42.34478696239432" lon="13.315510154574266"><ele>722.0</ele><time>2026-05-02T15:44:09Z</time></trkpt><trkpt lat="42.344863465769826" lon="13.315501935443287"><ele>721.0</ele><time>2026-05-02T15:44:10Z</time></trkpt><trkpt lat="42.34493636077596" lon="13.315480344849096"><ele>720.0</ele><time>2026-05-02T15:44:11Z</time></trkpt><trkpt lat="42.34501288268611" lon="13.315443924138634"><ele>719.0</ele><time>2026-05-02T15:44:12Z</time></trkpt><trkpt lat="42.34509257223559" lon="13.315415989778948"><ele>718.0</ele><time>2026-05-02T15:44:13Z</time></trkpt><trkpt lat="42.34517957902685" lon="13.315399852023752"><ele>717.0</ele><time>2026-05-02T15:44:14Z</time></trkpt><trkpt lat="42.34527353689819" lon="13.315390081144486"><ele>716.0</ele><time>2026-05-02T15:44:15Z</time></trkpt><trkpt lat="42.34534418890711" lon="13.3153724167913"><ele>716.0</ele><time>2026-05-02T15:44:16Z</time></trkpt><trkpt lat="42.34541147378105" lon="13.31535715840618"><ele>716.0</ele><time>2026-05-02T15:44:17Z</time></trkpt><trkpt lat="42.345529870367194" lon="13.315416758564261"><ele>716.0</ele><time>2026-05-02T15:44:19Z</time></trkpt><trkpt lat="42.34560268331313" lon="13.31545781487853"><ele>716.0</ele><time>2026-05-02T15:44:20Z</time></trkpt><trkpt lat="42.3456895735897" lon="13.315484920297783"><ele>716.0</ele><time>2026-05-02T15:44:21Z</time></trkpt><trkpt lat="42.3457746879963" lon="13.315524576822266"><ele>715.5999999999999</ele><time>2026-05-02T15:44:22Z</time></trkpt><trkpt lat="42.34586641769494" lon="13.315549103214185"><ele>715.2</ele><time>2026-05-02T15:44:23Z</time></trkpt><trkpt lat="42.345961932196126" lon="13.315563470878017"><ele>714.8</ele><time>2026-05-02T15:44:24Z</time></trkpt><trkpt lat="42.34606906299262" lon="13.31558938714129"><ele>714.4000000000001</ele><time>2026-05-02T15:44:25Z</time></trkpt><trkpt lat="42.34618291522256" lon="13.315633228661738"><ele>714.0</ele><time>2026-05-02T15:44:26Z</time></trkpt><trkpt lat="42.346298682481084" lon="13.315644484384393"><ele>715.6</ele><time>2026-05-02T15:44:27Z</time></trkpt><trkpt lat="42.34641854422565" lon="13.31568410747223"><ele>717.2</ele><time>2026-05-02T15:44:28Z</time></trkpt><trkpt lat="42.346532327563224" lon="13.315706256829884"><ele>718.8000000000001</ele><time>2026-05-02T15:44:29Z</time></trkpt><trkpt lat="42.346624584501065" lon="13.315728339106212"><ele>720.4000000000001</ele><time>2026-05-02T15:44:30Z</time></trkpt><trkpt lat="42.346693100001126" lon="13.315748900426307"><ele>722.0</ele><time>2026-05-02T15:44:31Z</time></trkpt><trkpt lat="42.346761629967055" lon="13.315778271849794"><ele>722.0</ele><time>2026-05-02T15:44:32Z</time></trkpt><trkpt lat="42.34683271901975" lon="13.315820725437895"><ele>722.0</ele><time>2026-05-02T15:44:33Z</time></trkpt><trkpt lat="42.34690174173197" lon="13.315879796262836"><ele>722.0</ele><time>2026-05-02T15:44:34Z</time></trkpt><trkpt lat="42.3469836904959" lon="13.31595950814293"><ele>722.0</ele><time>2026-05-02T15:44:35Z</time></trkpt><trkpt lat="42.347063586772094" lon="13.316049475410342"><ele>722.0</ele><time>2026-05-02T15:44:36Z</time></trkpt><trkpt lat="42.3471416367847" lon="13.316139652475547"><ele>721.4000000000001</ele><time>2026-05-02T15:44:37Z</time></trkpt><trkpt lat="42.34722184200505" lon="13.316224626036227"><ele>720.8000000000001</ele><time>2026-05-02T15:44:38Z</time></trkpt><trkpt lat="42.34730584749677" lon="13.316290259881203"><ele>720.2</ele><time>2026-05-02T15:44:39Z</time></trkpt><trkpt lat="42.34738563942683" lon="13.316349622535618"><ele>719.6</ele><time>2026-05-02T15:44:40Z</time></trkpt><trkpt lat="42.34747312164848" lon="13.316400296543197"><ele>719.0</ele><time>2026-05-02T15:44:41Z</time></trkpt><trkpt lat="42.347549910765615" lon="13.316436747844413"><ele>719.0</ele><time>2026-05-02T15:44:42Z</time></trkpt><trkpt lat="42.34763361479847" lon="13.316474478896371"><ele>719.0</ele><time>2026-05-02T15:44:43Z</time></trkpt><trkpt lat="42.34771817145648" lon="13.316493618375876"><ele>719.0</ele><time>2026-05-02T15:44:44Z</time></trkpt><trkpt lat="42.34779144116662" lon="13.316497459913924"><ele>719.0</ele><time>2026-05-02T15:44:45Z</time></trkpt><trkpt lat="42.34785075623737" lon="13.316549744446052"><ele>719.0</ele><time>2026-05-02T15:44:46Z</time></trkpt><trkpt lat="42.34792738292678" lon="13.316579494214484"><ele>719.0</ele><time>2026-05-02T15:44:47Z</time></trkpt><trkpt lat="42.34799842825139" lon="13.316645375857522"><ele>718.6666666666666</ele><time>2026-05-02T15:44:48Z</time></trkpt><trkpt lat="42.348067322198645" lon="13.316707680617327"><ele>718.3333333333333</ele><time>2026-05-02T15:44:49Z</time></trkpt><trkpt lat="42.348133825965675" lon="13.316743722352548"><ele>718.0</ele><time>2026-05-02T15:44:50Z</time></trkpt><trkpt lat="42.34819997557871" lon="13.316793610442371"><ele>717.6666666666666</ele><time>2026-05-02T15:44:51Z</time></trkpt><trkpt lat="42.348269522543845" lon="13.316859759508132"><ele>717.3333333333334</ele><time>2026-05-02T15:44:52Z</time></trkpt><trkpt lat="42.34833597698471" lon="13.31689653254435"><ele>717.0</ele><time>2026-05-02T15:44:53Z</time></trkpt><trkpt lat="42.34840724337984" lon="13.316906312785706"><ele>717.0</ele><time>2026-05-02T15:44:54Z</time></trkpt><trkpt lat="42.34847672517647" lon="13.316927895565028"><ele>717.0</ele><time>2026-05-02T15:44:55Z</time></trkpt><trkpt lat="42.348563018450925" lon="13.316957678936246"><ele>717.0</ele><time>2026-05-02T15:44:56Z</time></trkpt><trkpt lat="42.34864375779379" lon="13.316965598840952"><ele>717.0</ele><time>2026-05-02T15:44:57Z</time></trkpt><trkpt lat="42.34872285153631" lon="13.31695348529508"><ele>717.0</ele><time>2026-05-02T15:44:58Z</time></trkpt><trkpt lat="42.348785803129445" lon="13.316945216575176"><ele>717.0</ele><time>2026-05-02T15:44:59Z</time></trkpt><trkpt lat="42.348889413766" lon="13.316945997986513"><ele>714.6</ele><time>2026-05-02T15:45:01Z</time></trkpt><trkpt lat="42.348959137868704" lon="13.31695406391114"><ele>712.2</ele><time>2026-05-02T15:45:05Z</time></trkpt><trkpt lat="42.34900975209404" lon="13.316859395492108"><ele>709.8</ele><time>2026-05-02T15:45:12Z</time></trkpt><trkpt lat="42.3489721029257" lon="13.316698367969558"><ele>707.4</ele><time>2026-05-02T15:45:14Z</time></trkpt><trkpt lat="42.34910345955727" lon="13.316812505184128"><ele>705.0</ele><time>2026-05-02T15:45:18Z</time></trkpt><trkpt lat="42.34918864332502" lon="13.31690354414679"><ele>705.0</ele><time>2026-05-02T15:45:19Z</time></trkpt><trkpt lat="42.349301432117265" lon="13.316975719226953"><ele>705.0</ele><time>2026-05-02T15:45:19.999Z</time></trkpt><trkpt lat="42.349420556062626" lon="13.317058962790608"><ele>705.0</ele><time>2026-05-02T15:45:20.999Z</time></trkpt><trkpt lat="42.34954820079061" lon="13.317133311540559"><ele>705.0</ele><time>2026-05-02T15:45:21.999Z</time></trkpt><trkpt lat="42.34967694969892" lon="13.317222226802265"><ele>702.0</ele><time>2026-05-02T15:45:22.999Z</time></trkpt><trkpt lat="42.34978925678147" lon="13.31735442349304"><ele>699.0</ele><time>2026-05-02T15:45:23.999Z</time></trkpt><trkpt lat="42.349901749931014" lon="13.317488029911917"><ele>696.0</ele><time>2026-05-02T15:45:24.999Z</time></trkpt><trkpt lat="42.3500107906062" lon="13.317632060110942"><ele>696.0</ele><time>2026-05-02T15:45:25.999Z</time></trkpt><trkpt lat="42.350129488528985" lon="13.317768902322157"><ele>696.0</ele><time>2026-05-02T15:45:26.999Z</time></trkpt><trkpt lat="42.35024421982825" lon="13.317934594971808"><ele>696.0</ele><time>2026-05-02T15:45:27.999Z</time></trkpt><trkpt lat="42.35035848654917" lon="13.318105237848163"><ele>696.3333333333334</ele><time>2026-05-02T15:45:28.999Z</time></trkpt><trkpt lat="42.350469921354" lon="13.318267088085474"><ele>696.6666666666667</ele><time>2026-05-02T15:45:29.999Z</time></trkpt><trkpt lat="42.35057016256714" lon="13.318432323315392"><ele>697.0</ele><time>2026-05-02T15:45:30.999Z</time></trkpt><trkpt lat="42.35069010532252" lon="13.318564838292142"><ele>694.25</ele><time>2026-05-02T15:45:31.999Z</time></trkpt><trkpt lat="42.35079252959539" lon="13.318712154177117"><ele>691.5</ele><time>2026-05-02T15:45:32.999Z</time></trkpt><trkpt lat="42.35089404269373" lon="13.318857627362789"><ele>688.75</ele><time>2026-05-02T15:45:33.999Z</time></trkpt><trkpt lat="42.350994251763716" lon="13.318991710145463"><ele>686.0</ele><time>2026-05-02T15:45:34.999Z</time></trkpt><trkpt lat="42.35109151657092" lon="13.319124118810473"><ele>685.25</ele><time>2026-05-02T15:45:35.999Z</time></trkpt><trkpt lat="42.35116878379301" lon="13.319270417106601"><ele>684.5</ele><time>2026-05-02T15:45:36.999Z</time></trkpt><trkpt lat="42.351258061071" lon="13.3193975387672"><ele>683.75</ele><time>2026-05-02T15:45:37.999Z</time></trkpt><trkpt lat="42.35136652249911" lon="13.319502332214526"><ele>683.0</ele><time>2026-05-02T15:45:38.999Z</time></trkpt><trkpt lat="42.35147713735288" lon="13.319618629648508"><ele>683.0</ele><time>2026-05-02T15:45:39.999Z</time></trkpt><trkpt lat="42.3516051428642" lon="13.319705714359623"><ele>683.0</ele><time>2026-05-02T15:45:40.999Z</time></trkpt><trkpt lat="42.35172030969403" lon="13.319814807764166"><ele>683.0</ele><time>2026-05-02T15:45:41.999Z</time></trkpt><trkpt lat="42.3518330880059" lon="13.319906603904297"><ele>683.0</ele><time>2026-05-02T15:45:42.999Z</time></trkpt><trkpt lat="42.35194716697596" lon="13.31997934242095"><ele>683.0</ele><time>2026-05-02T15:45:43.999Z</time></trkpt><trkpt lat="42.352037542096554" lon="13.320085164691553"><ele>683.0</ele><time>2026-05-02T15:45:44.999Z</time></trkpt><trkpt lat="42.35214166787184" lon="13.320159427058378"><ele>683.0</ele><time>2026-05-02T15:45:45.999Z</time></trkpt><trkpt lat="42.3522327901887" lon="13.320241648098374"><ele>683.0</ele><time>2026-05-02T15:45:46.999Z</time></trkpt><trkpt lat="42.352321560698336" lon="13.320325863518626"><ele>681.5999999999999</ele><time>2026-05-02T15:45:47.999Z</time></trkpt><trkpt lat="42.35241193868245" lon="13.320415901252703"><ele>680.1999999999999</ele><time>2026-05-02T15:45:48.999Z</time></trkpt><trkpt lat="42.352505613767576" lon="13.320501671410645"><ele>678.8</ele><time>2026-05-02T15:45:49.999Z</time></trkpt><trkpt lat="42.35259165292707" lon="13.320578182987795"><ele>677.4</ele><time>2026-05-02T15:45:50.999Z</time></trkpt><trkpt lat="42.3526662711276" lon="13.32064876607189"><ele>676.0</ele><time>2026-05-02T15:45:51.999Z</time></trkpt><trkpt lat="42.352723859242545" lon="13.320692758576657"><ele>676.0</ele><time>2026-05-02T15:45:52.999Z</time></trkpt><trkpt lat="42.35280145916843" lon="13.32076109575499"><ele>676.0</ele><time>2026-05-02T15:45:54.999Z</time></trkpt><trkpt lat="42.352859190928065" lon="13.32088644362508"><ele>676.0</ele><time>2026-05-02T15:45:56.999Z</time></trkpt><trkpt lat="42.35286413534013" lon="13.320986679233819"><ele>676.0</ele><time>2026-05-02T15:45:57.999Z</time></trkpt><trkpt lat="42.35285895043109" lon="13.321127845519598"><ele>676.0</ele><time>2026-05-02T15:45:58.999Z</time></trkpt><trkpt lat="42.35285813041975" lon="13.321295067228093"><ele>674.5</ele><time>2026-05-02T15:45:59.999Z</time></trkpt><trkpt lat="42.35286474055934" lon="13.321469213820047"><ele>673.0</ele><time>2026-05-02T15:46:00.999Z</time></trkpt><trkpt lat="42.35288368171467" lon="13.321647955069654"><ele>671.5</ele><time>2026-05-02T15:46:01.999Z</time></trkpt><trkpt lat="42.35291471478967" lon="13.321822622770794"><ele>670.0</ele><time>2026-05-02T15:46:02.999Z</time></trkpt><trkpt lat="42.35297066505193" lon="13.321991532602999"><ele>670.0</ele><time>2026-05-02T15:46:03.999Z</time></trkpt><trkpt lat="42.35303256169655" lon="13.322143181081676"><ele>670.0</ele><time>2026-05-02T15:46:04.999Z</time></trkpt><trkpt lat="42.35307557240337" lon="13.322299848664372"><ele>670.0</ele><time>2026-05-02T15:46:05.999Z</time></trkpt><trkpt lat="42.35312400056242" lon="13.32242828732788"><ele>670.0</ele><time>2026-05-02T15:46:06.999Z</time></trkpt><trkpt lat="42.353162937591776" lon="13.322531554164367"><ele>670.0</ele><time>2026-05-02T15:46:07.999Z</time></trkpt><trkpt lat="42.353207783586925" lon="13.322606605302605"><ele>669.1666666666667</ele><time>2026-05-02T15:46:08.999Z</time></trkpt><trkpt lat="42.35321936358671" lon="13.322692971904766"><ele>668.3333333333334</ele><time>2026-05-02T15:46:10Z</time></trkpt><trkpt lat="42.35322283333197" lon="13.322781958881404"><ele>667.5</ele><time>2026-05-02T15:46:11Z</time></trkpt><trkpt lat="42.3532422813361" lon="13.322941540488545"><ele>666.6666666666666</ele><time>2026-05-02T15:46:13Z</time></trkpt><trkpt lat="42.35329462527291" lon="13.323012554253392"><ele>665.8333333333333</ele><time>2026-05-02T15:46:14Z</time></trkpt><trkpt lat="42.35336849109953" lon="13.323074345329525"><ele>665.0</ele><time>2026-05-02T15:46:15Z</time></trkpt><trkpt lat="42.353414115860495" lon="13.323176596730708"><ele>664.4</ele><time>2026-05-02T15:46:16Z</time></trkpt><trkpt lat="42.35347543640428" lon="13.323277321932133"><ele>663.8</ele><time>2026-05-02T15:46:17Z</time></trkpt><trkpt lat="42.35351860046211" lon="13.323395076095068"><ele>663.2</ele><time>2026-05-02T15:46:18Z</time></trkpt><trkpt lat="42.35356951099807" lon="13.32351493151461"><ele>662.6</ele><time>2026-05-02T15:46:19Z</time></trkpt><trkpt lat="42.353625040944586" lon="13.323631389199324"><ele>662.0</ele><time>2026-05-02T15:46:20Z</time></trkpt><trkpt lat="42.353678265841324" lon="13.32374099671178"><ele>662.0</ele><time>2026-05-02T15:46:21Z</time></trkpt><trkpt lat="42.35371780079401" lon="13.32387098974942"><ele>662.0</ele><time>2026-05-02T15:46:22Z</time></trkpt><trkpt lat="42.353774335422685" lon="13.323997987824331"><ele>662.0</ele><time>2026-05-02T15:46:23Z</time></trkpt><trkpt lat="42.35383571624003" lon="13.324130947333066"><ele>662.0</ele><time>2026-05-02T15:46:24Z</time></trkpt><trkpt lat="42.35390032172833" lon="13.324269262888029"><ele>661.6666666666666</ele><time>2026-05-02T15:46:25Z</time></trkpt><trkpt lat="42.35397678799709" lon="13.324416866112996"><ele>661.3333333333334</ele><time>2026-05-02T15:46:26Z</time></trkpt><trkpt lat="42.35406160555439" lon="13.324588204109228"><ele>661.0</ele><time>2026-05-02T15:46:27Z</time></trkpt><trkpt lat="42.354157023985856" lon="13.324786754116918"><ele>659.6666666666667</ele><time>2026-05-02T15:46:28Z</time></trkpt><trkpt lat="42.354255463016436" lon="13.324995531840887"><ele>658.3333333333334</ele><time>2026-05-02T15:46:29Z</time></trkpt><trkpt lat="42.35435994686446" lon="13.325211305999334"><ele>657.0</ele><time>2026-05-02T15:46:30Z</time></trkpt><trkpt lat="42.35448059887174" lon="13.325433843159825"><ele>656.3333333333334</ele><time>2026-05-02T15:46:31Z</time></trkpt><trkpt lat="42.35459147543306" lon="13.325626675506774"><ele>655.6666666666667</ele><time>2026-05-02T15:46:32Z</time></trkpt><trkpt lat="42.35468457210871" lon="13.325785993660086"><ele>655.0</ele><time>2026-05-02T15:46:33Z</time></trkpt><trkpt lat="42.354760326172745" lon="13.32593362163272"><ele>655.0</ele><time>2026-05-02T15:46:34Z</time></trkpt><trkpt lat="42.35482703812344" lon="13.326081962962833"><ele>655.0</ele><time>2026-05-02T15:46:35Z</time></trkpt><trkpt lat="42.354885717659386" lon="13.326217947013003"><ele>655.0</ele><time>2026-05-02T15:46:36Z</time></trkpt><trkpt lat="42.35493489058951" lon="13.326316105662462"><ele>655.0</ele><time>2026-05-02T15:46:37Z</time></trkpt><trkpt lat="42.35497385646218" lon="13.326430487999682"><ele>655.0</ele><time>2026-05-02T15:46:38Z</time></trkpt><trkpt lat="42.35504761804705" lon="13.326530449539137"><ele>655.0</ele><time>2026-05-02T15:46:39Z</time></trkpt><trkpt lat="42.35510466588118" lon="13.326658155540425"><ele>655.0</ele><time>2026-05-02T15:46:40Z</time></trkpt><trkpt lat="42.3551847546189" lon="13.326777978082735"><ele>655.0</ele><time>2026-05-02T15:46:41Z</time></trkpt><trkpt lat="42.35527913344033" lon="13.326919180152707"><ele>655.0</ele><time>2026-05-02T15:46:42Z</time></trkpt><trkpt lat="42.355393540480414" lon="13.32706965515807"><ele>654.6666666666667</ele><time>2026-05-02T15:46:43Z</time></trkpt><trkpt lat="42.35550063566492" lon="13.327264957065719"><ele>654.3333333333334</ele><time>2026-05-02T15:46:44Z</time></trkpt><trkpt lat="42.355612103730095" lon="13.327474596395087"><ele>654.0</ele><time>2026-05-02T15:46:45Z</time></trkpt><trkpt lat="42.35573129522625" lon="13.327693410340421"><ele>653.6666666666666</ele><time>2026-05-02T15:46:46Z</time></trkpt><trkpt lat="42.35584902162725" lon="13.327909667337478"><ele>653.3333333333333</ele><time>2026-05-02T15:46:47Z</time></trkpt><trkpt lat="42.3559576644788" lon="13.328115340091037"><ele>653.0</ele><time>2026-05-02T15:46:48Z</time></trkpt><trkpt lat="42.356055485771805" lon="13.32830863365288"><ele>652.75</ele><time>2026-05-02T15:46:49Z</time></trkpt><trkpt lat="42.35614191555947" lon="13.328482743280837"><ele>652.5</ele><time>2026-05-02T15:46:50Z</time></trkpt><trkpt lat="42.35621592367595" lon="13.328649895895314"><ele>652.25</ele><time>2026-05-02T15:46:51Z</time></trkpt><trkpt lat="42.35625374335032" lon="13.328815037196835"><ele>652.0</ele><time>2026-05-02T15:46:52Z</time></trkpt><trkpt lat="42.35626008693923" lon="13.329000314966432"><ele>651.3333333333334</ele><time>2026-05-02T15:46:53Z</time></trkpt><trkpt lat="42.3562373175334" lon="13.329199302002099"><ele>650.6666666666666</ele><time>2026-05-02T15:46:54Z</time></trkpt><trkpt lat="42.356193766737285" lon="13.329421416850467"><ele>650.0</ele><time>2026-05-02T15:46:55Z</time></trkpt><trkpt lat="42.35614135891527" lon="13.329664713662748"><ele>650.6666666666666</ele><time>2026-05-02T15:46:56Z</time></trkpt><trkpt lat="42.35608796112632" lon="13.329926289078724"><ele>651.3333333333334</ele><time>2026-05-02T15:46:57Z</time></trkpt><trkpt lat="42.35603186922243" lon="13.330202923451553"><ele>652.0</ele><time>2026-05-02T15:46:58Z</time></trkpt><trkpt lat="42.35597480719606" lon="13.330470057234775"><ele>652.3333333333334</ele><time>2026-05-02T15:46:58.999Z</time></trkpt><trkpt lat="42.35592268362959" lon="13.330720017191078"><ele>652.6666666666666</ele><time>2026-05-02T15:46:59.999Z</time></trkpt><trkpt lat="42.355882327117314" lon="13.330965005350176"><ele>653.0</ele><time>2026-05-02T15:47:00.999Z</time></trkpt><trkpt lat="42.35585734280112" lon="13.331222286864724"><ele>652.6666666666666</ele><time>2026-05-02T15:47:01.999Z</time></trkpt><trkpt lat="42.35584293957554" lon="13.331486585928447"><ele>652.3333333333334</ele><time>2026-05-02T15:47:02.999Z</time></trkpt><trkpt lat="42.35582864905418" lon="13.331755347621355"><ele>652.0</ele><time>2026-05-02T15:47:03.999Z</time></trkpt><trkpt lat="42.35581522445843" lon="13.33201746188211"><ele>650.6666666666667</ele><time>2026-05-02T15:47:04.999Z</time></trkpt><trkpt lat="42.35579914366051" lon="13.33227072580052"><ele>649.3333333333334</ele><time>2026-05-02T15:47:05.999Z</time></trkpt><trkpt lat="42.35578178078027" lon="13.332519052463928"><ele>648.0</ele><time>2026-05-02T15:47:06.999Z</time></trkpt><trkpt lat="42.355763666348345" lon="13.332762894932188"><ele>648.0</ele><time>2026-05-02T15:47:07.999Z</time></trkpt><trkpt lat="42.35574652015923" lon="13.333000989499842"><ele>648.0</ele><time>2026-05-02T15:47:08.999Z</time></trkpt><trkpt lat="42.35573150933566" lon="13.333234689626122"><ele>648.0</ele><time>2026-05-02T15:47:09.999Z</time></trkpt><trkpt lat="42.35571818396608" lon="13.333467094635083"><ele>647.6666666666666</ele><time>2026-05-02T15:47:10.999Z</time></trkpt><trkpt lat="42.35570368743938" lon="13.33369580494295"><ele>647.3333333333333</ele><time>2026-05-02T15:47:11.999Z</time></trkpt><trkpt lat="42.355689235010864" lon="13.333921487397792"><ele>647.0</ele><time>2026-05-02T15:47:12.999Z</time></trkpt><trkpt lat="42.355674616360105" lon="13.334142554874964"><ele>646.75</ele><time>2026-05-02T15:47:13.999Z</time></trkpt><trkpt lat="42.35566331285981" lon="13.334345923071714"><ele>646.5</ele><time>2026-05-02T15:47:14.999Z</time></trkpt><trkpt lat="42.355667259317464" lon="13.334538847188988"><ele>646.25</ele><time>2026-05-02T15:47:15.999Z</time></trkpt><trkpt lat="42.355700156226526" lon="13.334728620332339"><ele>646.0</ele><time>2026-05-02T15:47:16.999Z</time></trkpt><trkpt lat="42.35574435185962" lon="13.334898754210677"><ele>645.1999999999999</ele><time>2026-05-02T15:47:17.999Z</time></trkpt><trkpt lat="42.35577640574336" lon="13.335027417367076"><ele>644.4</ele><time>2026-05-02T15:47:18.999Z</time></trkpt><trkpt lat="42.355796973531824" lon="13.335118853092368"><ele>643.6</ele><time>2026-05-02T15:47:19.999Z</time></trkpt><trkpt lat="42.35583482727629" lon="13.335258314273341"><ele>642.8</ele><time>2026-05-02T15:47:21.999Z</time></trkpt><trkpt lat="42.3558480042262" lon="13.335361038104985"><ele>642.0</ele><time>2026-05-02T15:47:22.999Z</time></trkpt><trkpt lat="42.35595817087272" lon="13.335396715836838"><ele>642.0</ele><time>2026-05-02T15:47:23.999Z</time></trkpt><trkpt lat="42.35605467825897" lon="13.33546351546812"><ele>642.0</ele><time>2026-05-02T15:47:24.999Z</time></trkpt><trkpt lat="42.35616433221356" lon="13.335561913901378"><ele>642.0</ele><time>2026-05-02T15:47:25.999Z</time></trkpt><trkpt lat="42.35629003968741" lon="13.33567739552198"><ele>642.0</ele><time>2026-05-02T15:47:26.999Z</time></trkpt><trkpt lat="42.35642371308648" lon="13.335801903553367"><ele>641.0</ele><time>2026-05-02T15:47:27.999Z</time></trkpt><trkpt lat="42.356552951288755" lon="13.335923388514036"><ele>640.0</ele><time>2026-05-02T15:47:28.999Z</time></trkpt><trkpt lat="42.35667732323802" lon="13.33603608169949"><ele>639.0</ele><time>2026-05-02T15:47:29.999Z</time></trkpt><trkpt lat="42.35679249919339" lon="13.336139888124643"><ele>638.0</ele><time>2026-05-02T15:47:30.999Z</time></trkpt><trkpt lat="42.35688131856998" lon="13.33625289097709"><ele>638.0</ele><time>2026-05-02T15:47:31.999Z</time></trkpt><trkpt lat="42.356967876675846" lon="13.336310810462678"><ele>638.0</ele><time>2026-05-02T15:47:32.999Z</time></trkpt><trkpt lat="42.3570200947711" lon="13.336376078800374"><ele>638.0</ele><time>2026-05-02T15:47:33.999Z</time></trkpt><trkpt lat="42.3570690494402" lon="13.336516767076983"><ele>638.0</ele><time>2026-05-02T15:47:35.999Z</time></trkpt><trkpt lat="42.35703982590473" lon="13.336682556792223"><ele>638.0</ele><time>2026-05-02T15:47:37.999Z</time></trkpt><trkpt lat="42.35701772054992" lon="13.336778343183113"><ele>638.75</ele><time>2026-05-02T15:47:38.999Z</time></trkpt><trkpt lat="42.35699236482381" lon="13.336903716837808"><ele>639.5</ele><time>2026-05-02T15:47:39.999Z</time></trkpt><trkpt lat="42.35696220824701" lon="13.337055579150102"><ele>640.25</ele><time>2026-05-02T15:47:40.999Z</time></trkpt><trkpt lat="42.356928551727975" lon="13.337233018853109"><ele>641.0</ele><time>2026-05-02T15:47:41.999Z</time></trkpt><trkpt lat="42.356893790978134" lon="13.337418014855022"><ele>641.3333333333333</ele><time>2026-05-02T15:47:42.999Z</time></trkpt><trkpt lat="42.35685826595647" lon="13.337610915392922"><ele>641.6666666666666</ele><time>2026-05-02T15:47:43.999Z</time></trkpt><trkpt lat="42.35681694391844" lon="13.337827006066698"><ele>642.0</ele><time>2026-05-02T15:47:44.999Z</time></trkpt><trkpt lat="42.35677225358222" lon="13.338056128378739"><ele>642.6666666666666</ele><time>2026-05-02T15:47:45.999Z</time></trkpt><trkpt lat="42.35672561397784" lon="13.338284578898744"><ele>643.3333333333333</ele><time>2026-05-02T15:47:46.999Z</time></trkpt><trkpt lat="42.35668192306664" lon="13.338510522597574"><ele>644.0</ele><time>2026-05-02T15:47:47.999Z</time></trkpt><trkpt lat="42.35663739635331" lon="13.33874552299433"><ele>643.6666666666666</ele><time>2026-05-02T15:47:48.999Z</time></trkpt><trkpt lat="42.356592057617426" lon="13.338985602360129"><ele>643.3333333333334</ele><time>2026-05-02T15:47:49.999Z</time></trkpt><trkpt lat="42.3565448226187" lon="13.339231525858105"><ele>643.0</ele><time>2026-05-02T15:47:50.999Z</time></trkpt><trkpt lat="42.35649357981639" lon="13.33948283147659"><ele>643.3333333333334</ele><time>2026-05-02T15:47:51.999Z</time></trkpt><trkpt lat="42.356443181941266" lon="13.33973554270784"><ele>643.6666666666666</ele><time>2026-05-02T15:47:52.999Z</time></trkpt><trkpt lat="42.356378836528" lon="13.339988319441488"><ele>644.0</ele><time>2026-05-02T15:47:53.999Z</time></trkpt><trkpt lat="42.356329957632724" lon="13.340247824234977"><ele>642.3333333333333</ele><time>2026-05-02T15:47:54.999Z</time></trkpt><trkpt lat="42.35627905407556" lon="13.340507641323427"><ele>640.6666666666666</ele><time>2026-05-02T15:47:55.999Z</time></trkpt><trkpt lat="42.35622830406194" lon="13.340765333577155"><ele>639.0</ele><time>2026-05-02T15:47:56.999Z</time></trkpt><trkpt lat="42.356178206632485" lon="13.341023548831275"><ele>639.0</ele><time>2026-05-02T15:47:57.999Z</time></trkpt><trkpt lat="42.35614472630934" lon="13.341285090904655"><ele>639.0</ele><time>2026-05-02T15:47:58.999Z</time></trkpt><trkpt lat="42.35609577516412" lon="13.341535810088825"><ele>639.0</ele><time>2026-05-02T15:47:59.999Z</time></trkpt><trkpt lat="42.356047939900506" lon="13.3417834453749"><ele>639.0</ele><time>2026-05-02T15:48:00.999Z</time></trkpt><trkpt lat="42.35600263730019" lon="13.342027993532435"><ele>639.0</ele><time>2026-05-02T15:48:01.999Z</time></trkpt><trkpt lat="42.35594122053944" lon="13.342264683156472"><ele>639.0</ele><time>2026-05-02T15:48:02.999Z</time></trkpt><trkpt lat="42.35591050526499" lon="13.342507680353684"><ele>638.6666666666666</ele><time>2026-05-02T15:48:03.999Z</time></trkpt><trkpt lat="42.35586487568185" lon="13.342735231590307"><ele>638.3333333333333</ele><time>2026-05-02T15:48:04.999Z</time></trkpt><trkpt lat="42.3558223778964" lon="13.342959169652675"><ele>638.0</ele><time>2026-05-02T15:48:05.999Z</time></trkpt><trkpt lat="42.35578514950419" lon="13.343177303439472"><ele>638.0</ele><time>2026-05-02T15:48:06.999Z</time></trkpt><trkpt lat="42.3557550501422" lon="13.343401830738951"><ele>638.0</ele><time>2026-05-02T15:48:07.999Z</time></trkpt><trkpt lat="42.35574649671886" lon="13.343637059236695"><ele>638.0</ele><time>2026-05-02T15:48:08.999Z</time></trkpt><trkpt lat="42.35575872475066" lon="13.343883108593566"><ele>637.0</ele><time>2026-05-02T15:48:09.999Z</time></trkpt><trkpt lat="42.35579011985579" lon="13.344132487984872"><ele>636.0</ele><time>2026-05-02T15:48:10.999Z</time></trkpt><trkpt lat="42.355839243917195" lon="13.344384285295146"><ele>635.0</ele><time>2026-05-02T15:48:11.999Z</time></trkpt><trkpt lat="42.35589642815052" lon="13.34463962710053"><ele>634.0</ele><time>2026-05-02T15:48:12.999Z</time></trkpt><trkpt lat="42.35595780410436" lon="13.344897684753175"><ele>633.0</ele><time>2026-05-02T15:48:13.999Z</time></trkpt><trkpt lat="42.356019423752834" lon="13.345153525171584"><ele>632.0</ele><time>2026-05-02T15:48:14.999Z</time></trkpt><trkpt lat="42.356079233480614" lon="13.345411067742647"><ele>632.0</ele><time>2026-05-02T15:48:15.999Z</time></trkpt><trkpt lat="42.35613807784692" lon="13.345666675410785"><ele>632.0</ele><time>2026-05-02T15:48:16.999Z</time></trkpt><trkpt lat="42.35619537505181" lon="13.345920197671017"><ele>632.0</ele><time>2026-05-02T15:48:17.999Z</time></trkpt><trkpt lat="42.35625102016997" lon="13.34616471072636"><ele>632.0</ele><time>2026-05-02T15:48:18.999Z</time></trkpt><trkpt lat="42.356310248544574" lon="13.346413596506816"><ele>632.0</ele><time>2026-05-02T15:48:19.999Z</time></trkpt><trkpt lat="42.35636835208738" lon="13.346657354227347"><ele>632.0</ele><time>2026-05-02T15:48:20.999Z</time></trkpt><trkpt lat="42.35642668027167" lon="13.346898304268379"><ele>633.6666666666666</ele><time>2026-05-02T15:48:21.999Z</time></trkpt><trkpt lat="42.356484422444616" lon="13.347136809711575"><ele>635.3333333333334</ele><time>2026-05-02T15:48:22.999Z</time></trkpt><trkpt lat="42.356539917797015" lon="13.34737153115984"><ele>637.0</ele><time>2026-05-02T15:48:23.999Z</time></trkpt><trkpt lat="42.35659184899507" lon="13.347600554895424"><ele>637.0</ele><time>2026-05-02T15:48:24.999Z</time></trkpt><trkpt lat="42.35664404472577" lon="13.347822598779027"><ele>637.0</ele><time>2026-05-02T15:48:25.999Z</time></trkpt><trkpt lat="42.356699701992014" lon="13.348037327308965"><ele>637.0</ele><time>2026-05-02T15:48:26.999Z</time></trkpt><trkpt lat="42.35675303823707" lon="13.348243620355316"><ele>636.25</ele><time>2026-05-02T15:48:27.999Z</time></trkpt><trkpt lat="42.356803875025975" lon="13.348442515245706"><ele>635.5</ele><time>2026-05-02T15:48:28.999Z</time></trkpt><trkpt lat="42.356853196143156" lon="13.348629865127155"><ele>634.75</ele><time>2026-05-02T15:48:29.999Z</time></trkpt><trkpt lat="42.35689710373411" lon="13.348806314691025"><ele>634.0</ele><time>2026-05-02T15:48:30.999Z</time></trkpt><trkpt lat="42.35692907260333" lon="13.34896543244744"><ele>633.8</ele><time>2026-05-02T15:48:31.999Z</time></trkpt><trkpt lat="42.35695377907216" lon="13.349106360616748"><ele>633.5999999999999</ele><time>2026-05-02T15:48:32.999Z</time></trkpt><trkpt lat="42.35697151276526" lon="13.349239154156983"><ele>633.4</ele><time>2026-05-02T15:48:33.999Z</time></trkpt><trkpt lat="42.356980637736775" lon="13.3493624405965"><ele>633.1999999999999</ele><time>2026-05-02T15:48:34.999Z</time></trkpt><trkpt lat="42.356968927506585" lon="13.349479062743917"><ele>633.0</ele><time>2026-05-02T15:48:35.999Z</time></trkpt><trkpt lat="42.3569329868567" lon="13.349588775233322"><ele>633.0</ele><time>2026-05-02T15:48:36.999Z</time></trkpt><trkpt lat="42.356896033460416" lon="13.349700997849748"><ele>633.0</ele><time>2026-05-02T15:48:37.999Z</time></trkpt><trkpt lat="42.35687883429592" lon="13.349824702012164"><ele>633.0</ele><time>2026-05-02T15:48:38.999Z</time></trkpt><trkpt lat="42.356889021082644" lon="13.349949627832599"><ele>633.0</ele><time>2026-05-02T15:48:39.999Z</time></trkpt><trkpt lat="42.35693112505786" lon="13.350068761083277"><ele>633.0</ele><time>2026-05-02T15:48:40.999Z</time></trkpt><trkpt lat="42.35699705541416" lon="13.350165988451744"><ele>633.1999999999999</ele><time>2026-05-02T15:48:41.999Z</time></trkpt><trkpt lat="42.35707837435788" lon="13.350231692149636"><ele>633.4</ele><time>2026-05-02T15:48:42.999Z</time></trkpt><trkpt lat="42.35717669434073" lon="13.350268131314905"><ele>633.5999999999999</ele><time>2026-05-02T15:48:43.999Z</time></trkpt><trkpt lat="42.35728703344735" lon="13.350291112410108"><ele>633.8</ele><time>2026-05-02T15:48:44.999Z</time></trkpt><trkpt lat="42.357406796895155" lon="13.3503061510157"><ele>634.0</ele><time>2026-05-02T15:48:45.999Z</time></trkpt><trkpt lat="42.35753166196038" lon="13.350336655295678"><ele>634.0</ele><time>2026-05-02T15:48:46.999Z</time></trkpt><trkpt lat="42.357649570050526" lon="13.350411283818527"><ele>634.0</ele><time>2026-05-02T15:48:47.999Z</time></trkpt><trkpt lat="42.35776473953678" lon="13.35052553484649"><ele>634.0</ele><time>2026-05-02T15:48:48.999Z</time></trkpt><trkpt lat="42.35788006275201" lon="13.350665897168286"><ele>634.0</ele><time>2026-05-02T15:48:49.999Z</time></trkpt><trkpt lat="42.35798225057167" lon="13.350808461906281"><ele>632.75</ele><time>2026-05-02T15:48:50.999Z</time></trkpt><trkpt lat="42.358077393368866" lon="13.350944540590499"><ele>631.5</ele><time>2026-05-02T15:48:51.999Z</time></trkpt><trkpt lat="42.35816692992899" lon="13.351079184773331"><ele>630.25</ele><time>2026-05-02T15:48:52.999Z</time></trkpt><trkpt lat="42.35825124420564" lon="13.351216857025337"><ele>629.0</ele><time>2026-05-02T15:48:53.999Z</time></trkpt><trkpt lat="42.358329622472645" lon="13.351358333425933"><ele>628.8</ele><time>2026-05-02T15:48:54.999Z</time></trkpt><trkpt lat="42.358402035995" lon="13.351499806361584"><ele>628.5999999999999</ele><time>2026-05-02T15:48:55.999Z</time></trkpt><trkpt lat="42.35846934284693" lon="13.35163345187467"><ele>628.4</ele><time>2026-05-02T15:48:56.999Z</time></trkpt><trkpt lat="42.35852980074127" lon="13.351754235457456"><ele>628.1999999999999</ele><time>2026-05-02T15:48:57.999Z</time></trkpt><trkpt lat="42.358582437899386" lon="13.351859319463445"><ele>628.0</ele><time>2026-05-02T15:48:58.999Z</time></trkpt><trkpt lat="42.35862128568935" lon="13.351945721829455"><ele>628.0</ele><time>2026-05-02T15:48:59.999Z</time></trkpt><trkpt lat="42.35866729996703" lon="13.352056148645143"><ele>628.0</ele><time>2026-05-02T15:49:01.999Z</time></trkpt><trkpt lat="42.358694182900585" lon="13.352168635466857"><ele>628.0</ele><time>2026-05-02T15:49:03.999Z</time></trkpt><trkpt lat="42.3586903666683" lon="13.352257066765388"><ele>628.0</ele><time>2026-05-02T15:49:04.999Z</time></trkpt><trkpt lat="42.358679743479" lon="13.352352850704772"><ele>628.0</ele><time>2026-05-02T15:49:05.999Z</time></trkpt><trkpt lat="42.35868566402536" lon="13.352451554951273"><ele>628.0</ele><time>2026-05-02T15:49:06.999Z</time></trkpt><trkpt lat="42.358707509786136" lon="13.352543785270967"><ele>628.0</ele><time>2026-05-02T15:49:07.999Z</time></trkpt><trkpt lat="42.358751035315365" lon="13.352635948783224"><ele>628.0</ele><time>2026-05-02T15:49:08.999Z</time></trkpt><trkpt lat="42.35881267741145" lon="13.352734611675908"><ele>628.0</ele><time>2026-05-02T15:49:09.999Z</time></trkpt><trkpt lat="42.35887154643261" lon="13.352838683689681"><ele>628.0</ele><time>2026-05-02T15:49:10.999Z</time></trkpt><trkpt lat="42.35891945922883" lon="13.35296067813165"><ele>628.0</ele><time>2026-05-02T15:49:11.999Z</time></trkpt><trkpt lat="42.3589625690388" lon="13.353102537701254"><ele>628.5</ele><time>2026-05-02T15:49:12.999Z</time></trkpt><trkpt lat="42.358999920801544" lon="13.353242597822685"><ele>629.0</ele><time>2026-05-02T15:49:13.999Z</time></trkpt><trkpt lat="42.35903947451907" lon="13.353386765620044"><ele>629.5</ele><time>2026-05-02T15:49:14.999Z</time></trkpt><trkpt lat="42.359079987355734" lon="13.353536250239848"><ele>630.0</ele><time>2026-05-02T15:49:15.999Z</time></trkpt><trkpt lat="42.35912361710143" lon="13.353691380945978"><ele>630.0</ele><time>2026-05-02T15:49:16.999Z</time></trkpt><trkpt lat="42.35916736291393" lon="13.353851443064203"><ele>630.0</ele><time>2026-05-02T15:49:17.999Z</time></trkpt><trkpt lat="42.35921348194059" lon="13.35401636884233"><ele>630.0</ele><time>2026-05-02T15:49:18.999Z</time></trkpt><trkpt lat="42.35926097946015" lon="13.354186805145488"><ele>630.0</ele><time>2026-05-02T15:49:19.999Z</time></trkpt><trkpt lat="42.359309689596" lon="13.354360515147965"><ele>629.5</ele><time>2026-05-02T15:49:20.999Z</time></trkpt><trkpt lat="42.359359824882105" lon="13.354537677445673"><ele>629.0</ele><time>2026-05-02T15:49:21.999Z</time></trkpt><trkpt lat="42.35940872841715" lon="13.354720227040822"><ele>628.5</ele><time>2026-05-02T15:49:22.999Z</time></trkpt><trkpt lat="42.35945757419396" lon="13.354906390089337"><ele>628.0</ele><time>2026-05-02T15:49:23.999Z</time></trkpt><trkpt lat="42.359507168422255" lon="13.355088589610562"><ele>628.0</ele><time>2026-05-02T15:49:24.999Z</time></trkpt><trkpt lat="42.359557890503346" lon="13.355265325909485"><ele>628.0</ele><time>2026-05-02T15:49:25.999Z</time></trkpt><trkpt lat="42.359608263002954" lon="13.355440215286315"><ele>628.0</ele><time>2026-05-02T15:49:26.999Z</time></trkpt><trkpt lat="42.35965563060973" lon="13.355612081650762"><ele>628.0</ele><time>2026-05-02T15:49:27.999Z</time></trkpt><trkpt lat="42.359701567990776" lon="13.355782599604145"><ele>627.5</ele><time>2026-05-02T15:49:28.999Z</time></trkpt><trkpt lat="42.35974677817106" lon="13.355952192983684"><ele>627.0</ele><time>2026-05-02T15:49:29.999Z</time></trkpt><trkpt lat="42.359789616318345" lon="13.356117488701086"><ele>626.5</ele><time>2026-05-02T15:49:30.999Z</time></trkpt><trkpt lat="42.3598316453539" lon="13.356284862383601"><ele>626.0</ele><time>2026-05-02T15:49:31.999Z</time></trkpt><trkpt lat="42.35987278549855" lon="13.356455765974111"><ele>626.0</ele><time>2026-05-02T15:49:32.999Z</time></trkpt><trkpt lat="42.35991450420729" lon="13.35663102187714"><ele>626.0</ele><time>2026-05-02T15:49:33.999Z</time></trkpt><trkpt lat="42.35995249096248" lon="13.35679807405397"><ele>626.0</ele><time>2026-05-02T15:49:34.999Z</time></trkpt><trkpt lat="42.359987222136674" lon="13.356959924319433"><ele>626.0</ele><time>2026-05-02T15:49:35.999Z</time></trkpt><trkpt lat="42.36001302779084" lon="13.357127126015408"><ele>626.25</ele><time>2026-05-02T15:49:36.999Z</time></trkpt><trkpt lat="42.360026590639826" lon="13.357299983451519"><ele>626.5</ele><time>2026-05-02T15:49:37.999Z</time></trkpt><trkpt lat="42.36002651500335" lon="13.357473585487707"><ele>626.75</ele><time>2026-05-02T15:49:38.999Z</time></trkpt><trkpt lat="42.36002203155722" lon="13.357652067093778"><ele>627.0</ele><time>2026-05-02T15:49:39.999Z</time></trkpt><trkpt lat="42.36001538896365" lon="13.357828479426328"><ele>627.0</ele><time>2026-05-02T15:49:40.999Z</time></trkpt><trkpt lat="42.36000415472461" lon="13.358007866784567"><ele>627.0</ele><time>2026-05-02T15:49:41.999Z</time></trkpt><trkpt lat="42.3599879872842" lon="13.358183829787878"><ele>627.0</ele><time>2026-05-02T15:49:42.999Z</time></trkpt><trkpt lat="42.35996976241882" lon="13.358344126176426"><ele>627.0</ele><time>2026-05-02T15:49:43.999Z</time></trkpt><trkpt lat="42.35994503201652" lon="13.358499567600399"><ele>626.75</ele><time>2026-05-02T15:49:44.999Z</time></trkpt><trkpt lat="42.35991261033479" lon="13.358653502711778"><ele>626.5</ele><time>2026-05-02T15:49:45.999Z</time></trkpt><trkpt lat="42.35987257107174" lon="13.358811041379576"><ele>626.25</ele><time>2026-05-02T15:49:46.999Z</time></trkpt><trkpt lat="42.3598278797974" lon="13.35897155117658"><ele>626.0</ele><time>2026-05-02T15:49:47.999Z</time></trkpt><trkpt lat="42.359780825271045" lon="13.359133180914313"><ele>626.25</ele><time>2026-05-02T15:49:48.999Z</time></trkpt><trkpt lat="42.35973496562164" lon="13.359297947728928"><ele>626.5</ele><time>2026-05-02T15:49:49.999Z</time></trkpt><trkpt lat="42.35969089465399" lon="13.359466859127144"><ele>626.75</ele><time>2026-05-02T15:49:50.999Z</time></trkpt><trkpt lat="42.35962340549736" lon="13.3596546733679"><ele>627.0</ele><time>2026-05-02T15:49:51.999Z</time></trkpt><trkpt lat="42.359561890041235" lon="13.35987968016245"><ele>627.0</ele><time>2026-05-02T15:49:52.999Z</time></trkpt><trkpt lat="42.35950993966574" lon="13.360128733019785"><ele>627.0</ele><time>2026-05-02T15:49:53.999Z</time></trkpt><trkpt lat="42.35943518161399" lon="13.360361263109525"><ele>627.0</ele><time>2026-05-02T15:49:54.999Z</time></trkpt><trkpt lat="42.35935929840143" lon="13.360597228629981"><ele>627.3333333333334</ele><time>2026-05-02T15:49:55.999Z</time></trkpt><trkpt lat="42.359288197470505" lon="13.360831693810677"><ele>627.6666666666667</ele><time>2026-05-02T15:49:56.999Z</time></trkpt><trkpt lat="42.359220691094244" lon="13.361068643029293"><ele>628.0</ele><time>2026-05-02T15:49:57.999Z</time></trkpt><trkpt lat="42.35915751614139" lon="13.361294307038143"><ele>630.0</ele><time>2026-05-02T15:49:58.999Z</time></trkpt><trkpt lat="42.35909751415574" lon="13.36150841625368"><ele>632.0</ele><time>2026-05-02T15:49:59.999Z</time></trkpt><trkpt lat="42.35904089074464" lon="13.361708116226962"><ele>634.0</ele><time>2026-05-02T15:50:00.999Z</time></trkpt><trkpt lat="42.358990283340155" lon="13.361883580896523"><ele>634.0</ele><time>2026-05-02T15:50:01.999Z</time></trkpt><trkpt lat="42.35892505198323" lon="13.362049746309477"><ele>634.0</ele><time>2026-05-02T15:50:02.999Z</time></trkpt><trkpt lat="42.358871174750604" lon="13.36224030627786"><ele>634.0</ele><time>2026-05-02T15:50:03.999Z</time></trkpt><trkpt lat="42.35882516977864" lon="13.362458804547959"><ele>632.0</ele><time>2026-05-02T15:50:04.999Z</time></trkpt><trkpt lat="42.3587563515696" lon="13.362669156690457"><ele>630.0</ele><time>2026-05-02T15:50:05.999Z</time></trkpt><trkpt lat="42.358685105780516" lon="13.362878690595863"><ele>628.0</ele><time>2026-05-02T15:50:06.999Z</time></trkpt><trkpt lat="42.358612132948366" lon="13.363095454895616"><ele>628.0</ele><time>2026-05-02T15:50:07.999Z</time></trkpt><trkpt lat="42.35854301112491" lon="13.363315677491132"><ele>628.0</ele><time>2026-05-02T15:50:08.999Z</time></trkpt><trkpt lat="42.358479258411144" lon="13.363540798638336"><ele>628.0</ele><time>2026-05-02T15:50:09.999Z</time></trkpt><trkpt lat="42.35842164637755" lon="13.363771080156964"><ele>628.6666666666667</ele><time>2026-05-02T15:50:10.999Z</time></trkpt><trkpt lat="42.3583660656539" lon="13.364001888541797"><ele>629.3333333333334</ele><time>2026-05-02T15:50:11.999Z</time></trkpt><trkpt lat="42.35831045156346" lon="13.364234114809665"><ele>630.0</ele><time>2026-05-02T15:50:12.999Z</time></trkpt><trkpt lat="42.358261127112804" lon="13.364469573497429"><ele>629.6666666666666</ele><time>2026-05-02T15:50:13.999Z</time></trkpt><trkpt lat="42.35822486823083" lon="13.364705921221965"><ele>629.3333333333333</ele><time>2026-05-02T15:50:14.999Z</time></trkpt><trkpt lat="42.35820172961243" lon="13.364939022115802"><ele>629.0</ele><time>2026-05-02T15:50:15.999Z</time></trkpt><trkpt lat="42.35818858723216" lon="13.365174038410855"><ele>629.0</ele><time>2026-05-02T15:50:16.999Z</time></trkpt><trkpt lat="42.35818909360773" lon="13.365399066330871"><ele>629.0</ele><time>2026-05-02T15:50:17.999Z</time></trkpt><trkpt lat="42.35820280426783" lon="13.365615206692024"><ele>629.0</ele><time>2026-05-02T15:50:18.999Z</time></trkpt><trkpt lat="42.358231303611134" lon="13.365813715555067"><ele>628.6666666666666</ele><time>2026-05-02T15:50:19.999Z</time></trkpt><trkpt lat="42.3582757710216" lon="13.366009780514277"><ele>628.3333333333334</ele><time>2026-05-02T15:50:20.999Z</time></trkpt><trkpt lat="42.35833369157841" lon="13.366199457464578"><ele>628.0</ele><time>2026-05-02T15:50:21.998Z</time></trkpt><trkpt lat="42.358400997581036" lon="13.36638087565562"><ele>628.0</ele><time>2026-05-02T15:50:22.998Z</time></trkpt><trkpt lat="42.3584756146665" lon="13.366552922435854"><ele>628.0</ele><time>2026-05-02T15:50:23.998Z</time></trkpt><trkpt lat="42.35855239784583" lon="13.366713077718519"><ele>628.0</ele><time>2026-05-02T15:50:24.998Z</time></trkpt><trkpt lat="42.35862430790575" lon="13.366866556858483"><ele>628.0</ele><time>2026-05-02T15:50:25.998Z</time></trkpt><trkpt lat="42.35869157545108" lon="13.36701682020713"><ele>628.0</ele><time>2026-05-02T15:50:26.998Z</time></trkpt><trkpt lat="42.35874641835514" lon="13.36715869344844"><ele>628.0</ele><time>2026-05-02T15:50:27.998Z</time></trkpt><trkpt lat="42.3587965720783" lon="13.367297497950393"><ele>628.0</ele><time>2026-05-02T15:50:28.998Z</time></trkpt><trkpt lat="42.35884528381556" lon="13.367425801950608"><ele>628.0</ele><time>2026-05-02T15:50:29.998Z</time></trkpt><trkpt lat="42.35888808107702" lon="13.367538982900383"><ele>628.0</ele><time>2026-05-02T15:50:30.998Z</time></trkpt><trkpt lat="42.35892974038103" lon="13.36764348635084"><ele>628.1666666666667</ele><time>2026-05-02T15:50:31.998Z</time></trkpt><trkpt lat="42.358964010979776" lon="13.367740420420084"><ele>628.3333333333334</ele><time>2026-05-02T15:50:32.998Z</time></trkpt><trkpt lat="42.3589864219091" lon="13.367851301137081"><ele>628.5</ele><time>2026-05-02T15:50:33.998Z</time></trkpt><trkpt lat="42.35899860754158" lon="13.367961990817488"><ele>628.6666666666666</ele><time>2026-05-02T15:50:34.999Z</time></trkpt><trkpt lat="42.35901605740376" lon="13.368068639847932"><ele>628.8333333333333</ele><time>2026-05-02T15:50:35.999Z</time></trkpt><trkpt lat="42.359053052555566" lon="13.368174369512621"><ele>629.0</ele><time>2026-05-02T15:50:36.999Z</time></trkpt><trkpt lat="42.35908964704755" lon="13.368285777956757"><ele>629.0</ele><time>2026-05-02T15:50:37.999Z</time></trkpt><trkpt lat="42.35911485351669" lon="13.36839617044537"><ele>629.0</ele><time>2026-05-02T15:50:38.999Z</time></trkpt><trkpt lat="42.35912976189398" lon="13.368516824824678"><ele>629.0</ele><time>2026-05-02T15:50:39.999Z</time></trkpt><trkpt lat="42.35914322789874" lon="13.368637870932144"><ele>629.0</ele><time>2026-05-02T15:50:40.999Z</time></trkpt><trkpt lat="42.359163230835" lon="13.368764812788648"><ele>629.0</ele><time>2026-05-02T15:50:41.999Z</time></trkpt><trkpt lat="42.359170208800954" lon="13.368895025887493"><ele>629.2</ele><time>2026-05-02T15:50:42.999Z</time></trkpt><trkpt lat="42.35919121927619" lon="13.369027457660687"><ele>629.4</ele><time>2026-05-02T15:50:43.999Z</time></trkpt><trkpt lat="42.35922972088562" lon="13.36915766656705"><ele>629.6</ele><time>2026-05-02T15:50:44.999Z</time></trkpt><trkpt lat="42.359250587598865" lon="13.369297118319242"><ele>629.8</ele><time>2026-05-02T15:50:45.999Z</time></trkpt><trkpt lat="42.359271861212285" lon="13.36944013070676"><ele>630.0</ele><time>2026-05-02T15:50:46.999Z</time></trkpt><trkpt lat="42.35929271031956" lon="13.369586172620988"><ele>630.5</ele><time>2026-05-02T15:50:47.999Z</time></trkpt><trkpt lat="42.35931668474903" lon="13.369737673583495"><ele>631.0</ele><time>2026-05-02T15:50:48.999Z</time></trkpt><trkpt lat="42.359341391643035" lon="13.36989294961687"><ele>631.5</ele><time>2026-05-02T15:50:49.999Z</time></trkpt><trkpt lat="42.359363984034836" lon="13.370051061640867"><ele>632.0</ele><time>2026-05-02T15:50:50.999Z</time></trkpt><trkpt lat="42.359387531166895" lon="13.370210266165447"><ele>632.0</ele><time>2026-05-02T15:50:51.999Z</time></trkpt><trkpt lat="42.35941187010102" lon="13.370369995050545"><ele>632.0</ele><time>2026-05-02T15:50:52.999Z</time></trkpt><trkpt lat="42.35943663082273" lon="13.370529111262607"><ele>632.0</ele><time>2026-05-02T15:50:53.999Z</time></trkpt><trkpt lat="42.359460797072124" lon="13.370687774720158"><ele>632.0</ele><time>2026-05-02T15:50:54.999Z</time></trkpt><trkpt lat="42.359482153035394" lon="13.370845320871515"><ele>633.25</ele><time>2026-05-02T15:50:55.999Z</time></trkpt><trkpt lat="42.35950430281324" lon="13.371001306878668"><ele>634.5</ele><time>2026-05-02T15:50:56.999Z</time></trkpt><trkpt lat="42.359527291459536" lon="13.371156028938513"><ele>635.75</ele><time>2026-05-02T15:50:57.999Z</time></trkpt><trkpt lat="42.35955096490865" lon="13.371310839904805"><ele>637.0</ele><time>2026-05-02T15:50:58.999Z</time></trkpt><trkpt lat="42.359573632516245" lon="13.37146328641997"><ele>637.25</ele><time>2026-05-02T15:50:59.999Z</time></trkpt><trkpt lat="42.3595978335587" lon="13.371620590422294"><ele>637.5</ele><time>2026-05-02T15:51:00.999Z</time></trkpt><trkpt lat="42.35962251628434" lon="13.371780296424488"><ele>637.75</ele><time>2026-05-02T15:51:01.999Z</time></trkpt><trkpt lat="42.359647440750436" lon="13.37194267656607"><ele>638.0</ele><time>2026-05-02T15:51:02.999Z</time></trkpt><trkpt lat="42.35966997964286" lon="13.372106349193622"><ele>638.4</ele><time>2026-05-02T15:51:03.999Z</time></trkpt><trkpt lat="42.35969484038439" lon="13.37227256294034"><ele>638.8</ele><time>2026-05-02T15:51:04.999Z</time></trkpt><trkpt lat="42.35972104008147" lon="13.372435208040178"><ele>639.2</ele><time>2026-05-02T15:51:05.999Z</time></trkpt><trkpt lat="42.35974711708449" lon="13.372576664440349"><ele>639.6</ele><time>2026-05-02T15:51:06.999Z</time></trkpt><trkpt lat="42.35976565026838" lon="13.372699567020003"><ele>640.0</ele><time>2026-05-02T15:51:07.999Z</time></trkpt><trkpt lat="42.35978319784567" lon="13.372825482111772"><ele>640.2</ele><time>2026-05-02T15:51:08.999Z</time></trkpt><trkpt lat="42.35980307325392" lon="13.37295934003919"><ele>640.4</ele><time>2026-05-02T15:51:09.999Z</time></trkpt><trkpt lat="42.359824199783546" lon="13.373102236841225"><ele>640.5999999999999</ele><time>2026-05-02T15:51:10.999Z</time></trkpt><trkpt lat="42.35984618102927" lon="13.373251524028532"><ele>640.8</ele><time>2026-05-02T15:51:11.999Z</time></trkpt><trkpt lat="42.35986616251325" lon="13.37339412248585"><ele>641.0</ele><time>2026-05-02T15:51:12.999Z</time></trkpt><trkpt lat="42.35988655304779" lon="13.373517359538749"><ele>641.5999999999999</ele><time>2026-05-02T15:51:13.999Z</time></trkpt><trkpt lat="42.35990437165791" lon="13.373629639244925"><ele>642.2</ele><time>2026-05-02T15:51:14.999Z</time></trkpt><trkpt lat="42.35992268870966" lon="13.373742454555746"><ele>642.8</ele><time>2026-05-02T15:51:15.999Z</time></trkpt><trkpt lat="42.35994237089982" lon="13.373856204429442"><ele>643.4000000000001</ele><time>2026-05-02T15:51:16.999Z</time></trkpt><trkpt lat="42.3599591142419" lon="13.373985886709095"><ele>644.0</ele><time>2026-05-02T15:51:17.999Z</time></trkpt><trkpt lat="42.35997494189057" lon="13.374135538237176"><ele>644.25</ele><time>2026-05-02T15:51:18.999Z</time></trkpt><trkpt lat="42.35999322804639" lon="13.374292861234323"><ele>644.5</ele><time>2026-05-02T15:51:19.999Z</time></trkpt><trkpt lat="42.360015732039805" lon="13.374454239112412"><ele>644.75</ele><time>2026-05-02T15:51:20.999Z</time></trkpt><trkpt lat="42.36003919856672" lon="13.374615734524033"><ele>645.0</ele><time>2026-05-02T15:51:21.999Z</time></trkpt><trkpt lat="42.36006220436642" lon="13.374774876731482"><ele>645.25</ele><time>2026-05-02T15:51:22.999Z</time></trkpt><trkpt lat="42.36008510050917" lon="13.374925151433134"><ele>645.5</ele><time>2026-05-02T15:51:23.999Z</time></trkpt><trkpt lat="42.36010844792777" lon="13.37507564774707"><ele>645.75</ele><time>2026-05-02T15:51:24.999Z</time></trkpt><trkpt lat="42.360130395189174" lon="13.375224653307479"><ele>646.0</ele><time>2026-05-02T15:51:25.999Z</time></trkpt><trkpt lat="42.360151472271355" lon="13.375372882895986"><ele>646.0</ele><time>2026-05-02T15:51:26.999Z</time></trkpt><trkpt lat="42.360168746264506" lon="13.375519805612582"><ele>646.0</ele><time>2026-05-02T15:51:27.999Z</time></trkpt><trkpt lat="42.360186055398316" lon="13.375661091128444"><ele>646.0</ele><time>2026-05-02T15:51:28.999Z</time></trkpt><trkpt lat="42.36020576662022" lon="13.375780244525"><ele>646.0</ele><time>2026-05-02T15:51:29.999Z</time></trkpt><trkpt lat="42.36022449199325" lon="13.375892320140881"><ele>646.0</ele><time>2026-05-02T15:51:30.999Z</time></trkpt><trkpt lat="42.360241087412724" lon="13.375999485740271"><ele>646.4</ele><time>2026-05-02T15:51:31.999Z</time></trkpt><trkpt lat="42.360255923954085" lon="13.37610748461166"><ele>646.8</ele><time>2026-05-02T15:51:32.999Z</time></trkpt><trkpt lat="42.36027089321719" lon="13.37623233113842"><ele>647.1999999999999</ele><time>2026-05-02T15:51:33.999Z</time></trkpt><trkpt lat="42.36028851625987" lon="13.376369828229892"><ele>647.5999999999999</ele><time>2026-05-02T15:51:34.999Z</time></trkpt><trkpt lat="42.360308159058526" lon="13.376515429085293"><ele>648.0</ele><time>2026-05-02T15:51:35.999Z</time></trkpt><trkpt lat="42.36032606372874" lon="13.37665529952983"><ele>648.3333333333334</ele><time>2026-05-02T15:51:36.999Z</time></trkpt><trkpt lat="42.36033759585627" lon="13.37678408328056"><ele>648.6666666666666</ele><time>2026-05-02T15:51:37.999Z</time></trkpt><trkpt lat="42.360344254288705" lon="13.376884303945882"><ele>649.0</ele><time>2026-05-02T15:51:38.999Z</time></trkpt><trkpt lat="42.360353782062155" lon="13.376969543962405"><ele>649.3333333333333</ele><time>2026-05-02T15:51:39.999Z</time></trkpt><trkpt lat="42.360365167352235" lon="13.377097108869267"><ele>649.6666666666666</ele><time>2026-05-02T15:51:41.999Z</time></trkpt><trkpt lat="42.36036938383995" lon="13.377216381800642"><ele>650.0</ele><time>2026-05-02T15:51:43.999Z</time></trkpt><trkpt lat="42.360369866747234" lon="13.37731672206296"><ele>650.0</ele><time>2026-05-02T15:51:44.999Z</time></trkpt><trkpt lat="42.36037314363634" lon="13.377443166654018"><ele>650.0</ele><time>2026-05-02T15:51:45.999Z</time></trkpt><trkpt lat="42.3603785038429" lon="13.377584929949535"><ele>650.0</ele><time>2026-05-02T15:51:46.999Z</time></trkpt><trkpt lat="42.36038185312883" lon="13.377699448826347"><ele>650.0</ele><time>2026-05-02T15:51:47.999Z</time></trkpt><trkpt lat="42.36038300967275" lon="13.377797505200764"><ele>650.0</ele><time>2026-05-02T15:51:48.999Z</time></trkpt><trkpt lat="42.3603826734746" lon="13.377882889721501"><ele>650.0</ele><time>2026-05-02T15:51:49.999Z</time></trkpt><trkpt lat="42.36038091414745" lon="13.378043143979436"><ele>650.2</ele><time>2026-05-02T15:51:51.999Z</time></trkpt><trkpt lat="42.360379373590845" lon="13.378148681718486"><ele>650.4</ele><time>2026-05-02T15:51:52.999Z</time></trkpt><trkpt lat="42.36036310745732" lon="13.378286992129874"><ele>650.5999999999999</ele><time>2026-05-02T15:51:53.999Z</time></trkpt><trkpt lat="42.36033805133523" lon="13.378446618214642"><ele>650.8</ele><time>2026-05-02T15:51:54.999Z</time></trkpt><trkpt lat="42.36030720231457" lon="13.37861127038368"><ele>651.0</ele><time>2026-05-02T15:51:55.999Z</time></trkpt><trkpt lat="42.36027019227804" lon="13.378772675967413"><ele>651.1999999999999</ele><time>2026-05-02T15:51:56.999Z</time></trkpt><trkpt lat="42.36023240391711" lon="13.378925524164217"><ele>651.4</ele><time>2026-05-02T15:51:57.999Z</time></trkpt><trkpt lat="42.360195053694014" lon="13.379071437302546"><ele>651.6</ele><time>2026-05-02T15:51:58.999Z</time></trkpt><trkpt lat="42.360154587829" lon="13.379206198657489"><ele>651.8</ele><time>2026-05-02T15:51:59.999Z</time></trkpt><trkpt lat="42.360114615867374" lon="13.379319820151423"><ele>652.0</ele><time>2026-05-02T15:52:00.999Z</time></trkpt><trkpt lat="42.36007840966888" lon="13.379410562733158"><ele>652.0</ele><time>2026-05-02T15:52:01.999Z</time></trkpt><trkpt lat="42.36004344242814" lon="13.379482087058422"><ele>652.0</ele><time>2026-05-02T15:52:02.999Z</time></trkpt><trkpt lat="42.35996943203235" lon="13.3795878735539"><ele>652.0</ele><time>2026-05-02T15:52:04.999Z</time></trkpt><trkpt lat="42.35990073056906" lon="13.37971079034665"><ele>652.0</ele><time>2026-05-02T15:52:06.999Z</time></trkpt><trkpt lat="42.359858373409686" lon="13.37985162648126"><ele>652.0</ele><time>2026-05-02T15:52:08.999Z</time></trkpt><trkpt lat="42.35989748005649" lon="13.379955781012606"><ele>651.8</ele><time>2026-05-02T15:52:09.999Z</time></trkpt><trkpt lat="42.35989354138889" lon="13.380076773009058"><ele>651.6</ele><time>2026-05-02T15:52:10.999Z</time></trkpt><trkpt lat="42.35986380301623" lon="13.380205966515726"><ele>651.4</ele><time>2026-05-02T15:52:11.999Z</time></trkpt><trkpt lat="42.359816956193626" lon="13.380335929711517"><ele>651.1999999999999</ele><time>2026-05-02T15:52:12.999Z</time></trkpt><trkpt lat="42.359748575431496" lon="13.3804737013054"><ele>651.0</ele><time>2026-05-02T15:52:13.999Z</time></trkpt><trkpt lat="42.35968001813515" lon="13.380607503085585"><ele>650.75</ele><time>2026-05-02T15:52:14.999Z</time></trkpt><trkpt lat="42.35961455558973" lon="13.380746387100759"><ele>650.5</ele><time>2026-05-02T15:52:15.999Z</time></trkpt><trkpt lat="42.3595531022769" lon="13.380888052265368"><ele>650.25</ele><time>2026-05-02T15:52:16.999Z</time></trkpt><trkpt lat="42.35949423690984" lon="13.381027887697561"><ele>650.0</ele><time>2026-05-02T15:52:17.999Z</time></trkpt><trkpt lat="42.35943482974226" lon="13.381164025574039"><ele>650.0</ele><time>2026-05-02T15:52:18.999Z</time></trkpt><trkpt lat="42.359375745964556" lon="13.381296062655354"><ele>650.0</ele><time>2026-05-02T15:52:19.999Z</time></trkpt><trkpt lat="42.359319196002446" lon="13.38142224052347"><ele>650.0</ele><time>2026-05-02T15:52:20.999Z</time></trkpt><trkpt lat="42.35926473723877" lon="13.381543786703238"><ele>650.0</ele><time>2026-05-02T15:52:21.999Z</time></trkpt><trkpt lat="42.35921157232415" lon="13.381662453774098"><ele>650.0</ele><time>2026-05-02T15:52:22.999Z</time></trkpt><trkpt lat="42.35915589583213" lon="13.38178289388326"><ele>649.8</ele><time>2026-05-02T15:52:23.999Z</time></trkpt><trkpt lat="42.35909640981508" lon="13.381904934374948"><ele>649.6</ele><time>2026-05-02T15:52:24.999Z</time></trkpt><trkpt lat="42.35903727366053" lon="13.382031831192608"><ele>649.4000000000001</ele><time>2026-05-02T15:52:25.999Z</time></trkpt><trkpt lat="42.35897950441103" lon="13.382161723208073"><ele>649.2</ele><time>2026-05-02T15:52:26.999Z</time></trkpt><trkpt lat="42.358923548059586" lon="13.382292358136944"><ele>649.0</ele><time>2026-05-02T15:52:27.998Z</time></trkpt><trkpt lat="42.35886682096254" lon="13.382420866387056"><ele>649.0</ele><time>2026-05-02T15:52:28.998Z</time></trkpt><trkpt lat="42.35880800041235" lon="13.382546950517414"><ele>649.0</ele><time>2026-05-02T15:52:29.998Z</time></trkpt><trkpt lat="42.35875043488113" lon="13.382671232813827"><ele>649.0</ele><time>2026-05-02T15:52:30.998Z</time></trkpt><trkpt lat="42.35869111186384" lon="13.382796554742065"><ele>649.0</ele><time>2026-05-02T15:52:31.998Z</time></trkpt><trkpt lat="42.358632308624976" lon="13.382923321616945"><ele>649.0</ele><time>2026-05-02T15:52:32.998Z</time></trkpt><trkpt lat="42.35857532256676" lon="13.383050864203005"><ele>649.0</ele><time>2026-05-02T15:52:33.998Z</time></trkpt><trkpt lat="42.3585181782623" lon="13.383177633179189"><ele>649.0</ele><time>2026-05-02T15:52:34.998Z</time></trkpt><trkpt lat="42.358461125823204" lon="13.383304804912962"><ele>649.0</ele><time>2026-05-02T15:52:35.998Z</time></trkpt><trkpt lat="42.358404370725" lon="13.38343457287161"><ele>649.0</ele><time>2026-05-02T15:52:36.998Z</time></trkpt><trkpt lat="42.35834731753767" lon="13.383563070393913"><ele>649.0</ele><time>2026-05-02T15:52:37.998Z</time></trkpt><trkpt lat="42.35828852143271" lon="13.383691899788024"><ele>649.0</ele><time>2026-05-02T15:52:38.998Z</time></trkpt><trkpt lat="42.35823041692504" lon="13.383824385640585"><ele>649.0</ele><time>2026-05-02T15:52:39.998Z</time></trkpt><trkpt lat="42.358171474635355" lon="13.383957118925755"><ele>649.0</ele><time>2026-05-02T15:52:40.998Z</time></trkpt><trkpt lat="42.35811157578722" lon="13.384089613625493"><ele>649.0</ele><time>2026-05-02T15:52:41.998Z</time></trkpt><trkpt lat="42.358052959492106" lon="13.384222112178575"><ele>649.0</ele><time>2026-05-02T15:52:42.998Z</time></trkpt><trkpt lat="42.357997415770754" lon="13.384357194759318"><ele>649.0</ele><time>2026-05-02T15:52:43.998Z</time></trkpt><trkpt lat="42.35795096969027" lon="13.384494797971477"><ele>649.0</ele><time>2026-05-02T15:52:44.998Z</time></trkpt><trkpt lat="42.357913873989354" lon="13.38462728682998"><ele>649.0</ele><time>2026-05-02T15:52:45.998Z</time></trkpt><trkpt lat="42.35787812363771" lon="13.384755656905094"><ele>649.0</ele><time>2026-05-02T15:52:46.998Z</time></trkpt><trkpt lat="42.35784297839766" lon="13.38487961126965"><ele>649.0</ele><time>2026-05-02T15:52:47.998Z</time></trkpt><trkpt lat="42.35780899093793" lon="13.384993360628698"><ele>649.0</ele><time>2026-05-02T15:52:48.998Z</time></trkpt><trkpt lat="42.357775834161586" lon="13.385092928805879"><ele>649.0</ele><time>2026-05-02T15:52:49.998Z</time></trkpt><trkpt lat="42.357732094660705" lon="13.385185466954516"><ele>649.0</ele><time>2026-05-02T15:52:50.998Z</time></trkpt><trkpt lat="42.35767632479364" lon="13.385273532698799"><ele>649.0</ele><time>2026-05-02T15:52:51.998Z</time></trkpt><trkpt lat="42.35761466620907" lon="13.385351527734612"><ele>649.0</ele><time>2026-05-02T15:52:52.998Z</time></trkpt><trkpt lat="42.3575623004134" lon="13.385429230271948"><ele>649.0</ele><time>2026-05-02T15:52:53.998Z</time></trkpt><trkpt lat="42.35751079762758" lon="13.385531345168454"><ele>649.0</ele><time>2026-05-02T15:52:54.998Z</time></trkpt><trkpt lat="42.357448955207936" lon="13.38565246066067"><ele>649.0</ele><time>2026-05-02T15:52:55.998Z</time></trkpt><trkpt lat="42.35738791136866" lon="13.385748704335183"><ele>649.0</ele><time>2026-05-02T15:52:56.998Z</time></trkpt><trkpt lat="42.357325486137526" lon="13.3858336982685"><ele>649.0</ele><time>2026-05-02T15:52:57.998Z</time></trkpt><trkpt lat="42.35725598817749" lon="13.385915897672648"><ele>648.8000000000001</ele><time>2026-05-02T15:52:58.998Z</time></trkpt><trkpt lat="42.35718484783745" lon="13.385995723204719"><ele>648.6</ele><time>2026-05-02T15:52:59.998Z</time></trkpt><trkpt lat="42.357111829376834" lon="13.386082605399904"><ele>648.4</ele><time>2026-05-02T15:53:00.998Z</time></trkpt><trkpt lat="42.35704099095906" lon="13.386172269968913"><ele>648.2</ele><time>2026-05-02T15:53:01.998Z</time></trkpt><trkpt lat="42.35696841183361" lon="13.386268460926617"><ele>648.0</ele><time>2026-05-02T15:53:02.998Z</time></trkpt><trkpt lat="42.35690214562916" lon="13.386370661907687"><ele>648.0</ele><time>2026-05-02T15:53:03.998Z</time></trkpt><trkpt lat="42.35683756997765" lon="13.38647833041625"><ele>648.0</ele><time>2026-05-02T15:53:04.998Z</time></trkpt><trkpt lat="42.356774244085" lon="13.386586765190012"><ele>648.0</ele><time>2026-05-02T15:53:05.998Z</time></trkpt><trkpt lat="42.35671184054759" lon="13.38669671747025"><ele>648.0</ele><time>2026-05-02T15:53:06.999Z</time></trkpt><trkpt lat="42.3566492455952" lon="13.38680532958295"><ele>648.0</ele><time>2026-05-02T15:53:07.999Z</time></trkpt><trkpt lat="42.35658482976262" lon="13.386914756874901"><ele>648.0</ele><time>2026-05-02T15:53:08.999Z</time></trkpt><trkpt lat="42.3565217161238" lon="13.387023759716302"><ele>648.0</ele><time>2026-05-02T15:53:09.999Z</time></trkpt><trkpt lat="42.35645406302513" lon="13.387135065427053"><ele>648.0</ele><time>2026-05-02T15:53:10.999Z</time></trkpt><trkpt lat="42.35638805057683" lon="13.387249838395181"><ele>648.0</ele><time>2026-05-02T15:53:11.999Z</time></trkpt><trkpt lat="42.35632412286709" lon="13.387365902636757"><ele>648.0</ele><time>2026-05-02T15:53:12.999Z</time></trkpt><trkpt lat="42.35626296697645" lon="13.387477324595851"><ele>647.5999999999999</ele><time>2026-05-02T15:53:13.999Z</time></trkpt><trkpt lat="42.356202541326894" lon="13.38758457716505"><ele>647.1999999999999</ele><time>2026-05-02T15:53:14.999Z</time></trkpt><trkpt lat="42.356143408716015" lon="13.387684099767545"><ele>646.8</ele><time>2026-05-02T15:53:15.999Z</time></trkpt><trkpt lat="42.35608901695644" lon="13.387781658097111"><ele>646.4</ele><time>2026-05-02T15:53:16.999Z</time></trkpt><trkpt lat="42.35603882752617" lon="13.387875841605972"><ele>646.0</ele><time>2026-05-02T15:53:17.999Z</time></trkpt><trkpt lat="42.35598608279168" lon="13.387961052410056"><ele>646.7142857142858</ele><time>2026-05-02T15:53:18.999Z</time></trkpt><trkpt lat="42.355935210509394" lon="13.38803645113715"><ele>647.4285714285714</ele><time>2026-05-02T15:53:19.999Z</time></trkpt><trkpt lat="42.35588375304553" lon="13.388098140619134"><ele>648.1428571428571</ele><time>2026-05-02T15:53:20.999Z</time></trkpt><trkpt lat="42.355830645711926" lon="13.388149469558574"><ele>648.8571428571429</ele><time>2026-05-02T15:53:21.999Z</time></trkpt><trkpt lat="42.35576641737681" lon="13.388195916572286"><ele>649.5714285714286</ele><time>2026-05-02T15:53:22.999Z</time></trkpt><trkpt lat="42.355695453696946" lon="13.388226456314312"><ele>650.2857142857143</ele><time>2026-05-02T15:53:23.999Z</time></trkpt><trkpt lat="42.35562598236534" lon="13.388246934019318"><ele>651.0</ele><time>2026-05-02T15:53:24.999Z</time></trkpt><trkpt lat="42.35552834428228" lon="13.388276139847243"><ele>651.0</ele><time>2026-05-02T15:53:26.999Z</time></trkpt><trkpt lat="42.355503338161604" lon="13.388378696045894"><ele>651.0</ele><time>2026-05-02T15:53:27.999Z</time></trkpt><trkpt lat="42.355500300242646" lon="13.388529641058826"><ele>651.0</ele><time>2026-05-02T15:53:29.999Z</time></trkpt><trkpt lat="42.35556565159059" lon="13.388656956806823"><ele>651.0</ele><time>2026-05-02T15:53:31.999Z</time></trkpt><trkpt lat="42.355623153221856" lon="13.38870483065748"><ele>651.0</ele><time>2026-05-02T15:53:32.999Z</time></trkpt><trkpt lat="42.35568709386704" lon="13.388763819780538"><ele>652.1999999999999</ele><time>2026-05-02T15:53:33.999Z</time></trkpt><trkpt lat="42.35575261614594" lon="13.388851949274168"><ele>653.4</ele><time>2026-05-02T15:53:34.999Z</time></trkpt><trkpt lat="42.35581840051479" lon="13.388959380684764"><ele>654.6</ele><time>2026-05-02T15:53:35.999Z</time></trkpt><trkpt lat="42.355891001551456" lon="13.3890814103208"><ele>655.8</ele><time>2026-05-02T15:53:36.999Z</time></trkpt><trkpt lat="42.35595980030832" lon="13.389192994434667"><ele>657.0</ele><time>2026-05-02T15:53:37.999Z</time></trkpt><trkpt lat="42.35602853967877" lon="13.38931456465065"><ele>657.0</ele><time>2026-05-02T15:53:38.999Z</time></trkpt><trkpt lat="42.35609800851633" lon="13.389442517781452"><ele>657.0</ele><time>2026-05-02T15:53:39.999Z</time></trkpt><trkpt lat="42.356165200923556" lon="13.389573044001422"><ele>657.0</ele><time>2026-05-02T15:53:40.999Z</time></trkpt><trkpt lat="42.35623131769856" lon="13.389702795003558"><ele>657.0</ele><time>2026-05-02T15:53:41.999Z</time></trkpt><trkpt lat="42.35629866706496" lon="13.38982994265506"><ele>657.75</ele><time>2026-05-02T15:53:42.999Z</time></trkpt><trkpt lat="42.356366703622164" lon="13.389954138370245"><ele>658.5</ele><time>2026-05-02T15:53:43.999Z</time></trkpt><trkpt lat="42.35644650434714" lon="13.390072386023508"><ele>659.25</ele><time>2026-05-02T15:53:44.999Z</time></trkpt><trkpt lat="42.35653646775907" lon="13.390186481127294"><ele>660.0</ele><time>2026-05-02T15:53:45.999Z</time></trkpt><trkpt lat="42.35662231533531" lon="13.3902904428367"><ele>659.0</ele><time>2026-05-02T15:53:46.999Z</time></trkpt><trkpt lat="42.35669424751359" lon="13.390390484488046"><ele>658.0</ele><time>2026-05-02T15:53:47.999Z</time></trkpt><trkpt lat="42.35674449255401" lon="13.390490829359063"><ele>657.0</ele><time>2026-05-02T15:53:48.999Z</time></trkpt><trkpt lat="42.35678106841585" lon="13.390583698211088"><ele>656.0</ele><time>2026-05-02T15:53:49.999Z</time></trkpt><trkpt lat="42.35679973114904" lon="13.390684386637002"><ele>655.0</ele><time>2026-05-02T15:53:50.999Z</time></trkpt><trkpt lat="42.35679476776143" lon="13.390798924588163"><ele>654.0</ele><time>2026-05-02T15:53:51.999Z</time></trkpt><trkpt lat="42.356792636732095" lon="13.390918976812676"><ele>654.0</ele><time>2026-05-02T15:53:52.999Z</time></trkpt><trkpt lat="42.35673942498208" lon="13.391047830438803"><ele>654.0</ele><time>2026-05-02T15:53:53.999Z</time></trkpt><trkpt lat="42.35670937330859" lon="13.391193454250725"><ele>654.0</ele><time>2026-05-02T15:53:54.999Z</time></trkpt><trkpt lat="42.35668780856384" lon="13.391351832019824"><ele>654.0</ele><time>2026-05-02T15:53:55.999Z</time></trkpt><trkpt lat="42.35667428315822" lon="13.391512073648503"><ele>655.0</ele><time>2026-05-02T15:53:56.999Z</time></trkpt><trkpt lat="42.35666611121044" lon="13.391670326577726"><ele>656.0</ele><time>2026-05-02T15:53:57.999Z</time></trkpt><trkpt lat="42.35665759876584" lon="13.391824365774166"><ele>657.0</ele><time>2026-05-02T15:53:58.999Z</time></trkpt><trkpt lat="42.35665344547611" lon="13.391964089262308"><ele>658.0</ele><time>2026-05-02T15:53:59.999Z</time></trkpt><trkpt lat="42.356653806370176" lon="13.392084247827457"><ele>659.0</ele><time>2026-05-02T15:54:00.999Z</time></trkpt><trkpt lat="42.35665138801985" lon="13.392196617558094"><ele>659.8571428571429</ele><time>2026-05-02T15:54:01.999Z</time></trkpt><trkpt lat="42.35664879390753" lon="13.392304405639331"><ele>660.7142857142857</ele><time>2026-05-02T15:54:02.999Z</time></trkpt><trkpt lat="42.356644518021405" lon="13.39240124803062"><ele>661.5714285714286</ele><time>2026-05-02T15:54:03.999Z</time></trkpt><trkpt lat="42.35664234781819" lon="13.392489610556307"><ele>662.4285714285714</ele><time>2026-05-02T15:54:04.999Z</time></trkpt><trkpt lat="42.35664283212354" lon="13.392576396172627"><ele>663.2857142857142</ele><time>2026-05-02T15:54:05.999Z</time></trkpt><trkpt lat="42.35664094178639" lon="13.392669112042366"><ele>664.1428571428571</ele><time>2026-05-02T15:54:06.999Z</time></trkpt><trkpt lat="42.35663858985916" lon="13.392766921331551"><ele>665.0</ele><time>2026-05-02T15:54:07.999Z</time></trkpt><trkpt lat="42.35663584634118" lon="13.39286751019302"><ele>665.0</ele><time>2026-05-02T15:54:08.999Z</time></trkpt><trkpt lat="42.356635152073075" lon="13.39297081458445"><ele>665.0</ele><time>2026-05-02T15:54:09.999Z</time></trkpt><trkpt lat="42.35663558961877" lon="13.393072178918104"><ele>665.0</ele><time>2026-05-02T15:54:10.999Z</time></trkpt><trkpt lat="42.35661562904655" lon="13.393175060127628"><ele>665.0</ele><time>2026-05-02T15:54:11.999Z</time></trkpt><trkpt lat="42.35663441607907" lon="13.39328324839034"><ele>665.0</ele><time>2026-05-02T15:54:12.999Z</time></trkpt><trkpt lat="42.35663106169338" lon="13.393393974994616"><ele>665.0</ele><time>2026-05-02T15:54:13.999Z</time></trkpt><trkpt lat="42.35663020496426" lon="13.393495852614828"><ele>665.8</ele><time>2026-05-02T15:54:14.999Z</time></trkpt><trkpt lat="42.35662821027296" lon="13.39364170551019"><ele>666.6</ele><time>2026-05-02T15:54:16.999Z</time></trkpt><trkpt lat="42.35662455345997" lon="13.393782796004487"><ele>667.4000000000001</ele><time>2026-05-02T15:54:18.999Z</time></trkpt><trkpt lat="42.35662307127361" lon="13.393874251853891"><ele>668.2</ele><time>2026-05-02T15:54:19.999Z</time></trkpt><trkpt lat="42.356597226793575" lon="13.394050516697423"><ele>669.0</ele><time>2026-05-02T15:54:21.999Z</time></trkpt><trkpt lat="42.35659495949267" lon="13.394157178492511"><ele>670.0</ele><time>2026-05-02T15:54:22.999Z</time></trkpt><trkpt lat="42.356592452339854" lon="13.39427512376504"><ele>671.0</ele><time>2026-05-02T15:54:23.999Z</time></trkpt><trkpt lat="42.356589871528996" lon="13.394396534166026"><ele>672.0</ele><time>2026-05-02T15:54:24.999Z</time></trkpt><trkpt lat="42.35658729566616" lon="13.39451818243083"><ele>673.0</ele><time>2026-05-02T15:54:25.999Z</time></trkpt><trkpt lat="42.35658489077808" lon="13.394634477567926"><ele>674.0</ele><time>2026-05-02T15:54:26.999Z</time></trkpt><trkpt lat="42.35658249225461" lon="13.394750464931695"><ele>675.0</ele><time>2026-05-02T15:54:27.999Z</time></trkpt><trkpt lat="42.35658007793844" lon="13.394867215993179"><ele>675.1666666666666</ele><time>2026-05-02T15:54:28.999Z</time></trkpt><trkpt lat="42.356603423095" lon="13.394981192040934"><ele>675.3333333333334</ele><time>2026-05-02T15:54:29.999Z</time></trkpt><trkpt lat="42.3566007134213" lon="13.395092391097467"><ele>675.5</ele><time>2026-05-02T15:54:30.999Z</time></trkpt><trkpt lat="42.356597005560445" lon="13.395195586631479"><ele>675.6666666666667</ele><time>2026-05-02T15:54:31.999Z</time></trkpt><trkpt lat="42.356594120173675" lon="13.395293817742303"><ele>675.8333333333334</ele><time>2026-05-02T15:54:32.999Z</time></trkpt><trkpt lat="42.35659000456417" lon="13.395389930999665"><ele>676.0</ele><time>2026-05-02T15:54:33.995Z</time></trkpt><trkpt lat="42.35658650107718" lon="13.395484755777217"><ele>675.6666666666667</ele><time>2026-05-02T15:54:34.995Z</time></trkpt><trkpt lat="42.35656458517348" lon="13.395583392991702"><ele>675.3333333333334</ele><time>2026-05-02T15:54:35.995Z</time></trkpt><trkpt lat="42.35656236824425" lon="13.395681900825556"><ele>675.0</ele><time>2026-05-02T15:54:36.995Z</time></trkpt><trkpt lat="42.356560180592474" lon="13.395779107717374"><ele>674.6666666666666</ele><time>2026-05-02T15:54:37.995Z</time></trkpt><trkpt lat="42.35655799018298" lon="13.395871709372388"><ele>674.3333333333333</ele><time>2026-05-02T15:54:38.996Z</time></trkpt><trkpt lat="42.356555675239186" lon="13.395961929645182"><ele>674.0</ele><time>2026-05-02T15:54:39.996Z</time></trkpt><trkpt lat="42.356551045860776" lon="13.396142350325801"><ele>674.0</ele><time>2026-05-02T15:54:41.996Z</time></trkpt><trkpt lat="42.35654836845193" lon="13.39624669695913"><ele>674.0</ele><time>2026-05-02T15:54:42.996Z</time></trkpt><trkpt lat="42.35654535280777" lon="13.396364225618587"><ele>674.0</ele><time>2026-05-02T15:54:43.996Z</time></trkpt><trkpt lat="42.35654124834165" lon="13.396499744271003"><ele>674.0</ele><time>2026-05-02T15:54:44.996Z</time></trkpt><trkpt lat="42.356536879481936" lon="13.396647911030467"><ele>674.0</ele><time>2026-05-02T15:54:45.996Z</time></trkpt><trkpt lat="42.35654776427438" lon="13.396809252706989"><ele>675.25</ele><time>2026-05-02T15:54:46.996Z</time></trkpt><trkpt lat="42.35652456495092" lon="13.396992259826886"><ele>676.5</ele><time>2026-05-02T15:54:47.996Z</time></trkpt><trkpt lat="42.35651493039075" lon="13.397196530756348"><ele>677.75</ele><time>2026-05-02T15:54:48.996Z</time></trkpt><trkpt lat="42.356513247137734" lon="13.397396884033032"><ele>679.0</ele><time>2026-05-02T15:54:49.996Z</time></trkpt><trkpt lat="42.3565181151927" lon="13.397588297120562"><ele>681.25</ele><time>2026-05-02T15:54:50.996Z</time></trkpt><trkpt lat="42.356549596973466" lon="13.397772708608699"><ele>683.5</ele><time>2026-05-02T15:54:51.996Z</time></trkpt><trkpt lat="42.3566007864818" lon="13.397939925638154"><ele>685.75</ele><time>2026-05-02T15:54:52.997Z</time></trkpt><trkpt lat="42.35666492164351" lon="13.39810091022507"><ele>688.0</ele><time>2026-05-02T15:54:53.997Z</time></trkpt><trkpt lat="42.356731785332414" lon="13.398251505610727"><ele>688.25</ele><time>2026-05-02T15:54:54.997Z</time></trkpt><trkpt lat="42.35679905109691" lon="13.398401097294704"><ele>688.5</ele><time>2026-05-02T15:54:55.997Z</time></trkpt><trkpt lat="42.3568791955903" lon="13.398534808842797"><ele>688.75</ele><time>2026-05-02T15:54:56.997Z</time></trkpt><trkpt lat="42.35692349448189" lon="13.398693026607253"><ele>689.0</ele><time>2026-05-02T15:54:57.997Z</time></trkpt><trkpt lat="42.35696652422134" lon="13.398844090186918"><ele>690.0</ele><time>2026-05-02T15:54:58.997Z</time></trkpt><trkpt lat="42.3569947229" lon="13.398995802432196"><ele>691.0</ele><time>2026-05-02T15:54:59.997Z</time></trkpt><trkpt lat="42.35700898355805" lon="13.399148238170968"><ele>692.0</ele><time>2026-05-02T15:55:00.997Z</time></trkpt><trkpt lat="42.35701411660268" lon="13.399294236949997"><ele>693.0</ele><time>2026-05-02T15:55:01.997Z</time></trkpt><trkpt lat="42.35701532309848" lon="13.399433518394847"><ele>694.0</ele><time>2026-05-02T15:55:02.997Z</time></trkpt><trkpt lat="42.35701643652825" lon="13.399562056026644"><ele>694.8571428571429</ele><time>2026-05-02T15:55:03.997Z</time></trkpt><trkpt lat="42.3570174401006" lon="13.399677911352677"><ele>695.7142857142857</ele><time>2026-05-02T15:55:04.997Z</time></trkpt><trkpt lat="42.35701833278991" lon="13.399780966042337"><ele>696.5714285714286</ele><time>2026-05-02T15:55:05.997Z</time></trkpt><trkpt lat="42.35701916599286" lon="13.399877153457178"><ele>697.4285714285714</ele><time>2026-05-02T15:55:06.997Z</time></trkpt><trkpt lat="42.3570199105466" lon="13.399963106884554"><ele>698.2857142857142</ele><time>2026-05-02T15:55:07.997Z</time></trkpt><trkpt lat="42.357020653650714" lon="13.400048893028849"><ele>699.1428571428571</ele><time>2026-05-02T15:55:08.997Z</time></trkpt><trkpt lat="42.35702145213302" lon="13.400141072119414"><ele>700.0</ele><time>2026-05-02T15:55:09.997Z</time></trkpt><trkpt lat="42.357022304472856" lon="13.40023946868545"><ele>700.0</ele><time>2026-05-02T15:55:10.997Z</time></trkpt><trkpt lat="42.35702339999007" lon="13.400340998434736"><ele>700.0</ele><time>2026-05-02T15:55:11.997Z</time></trkpt><trkpt lat="42.357044177242926" lon="13.40044111703193"><ele>700.0</ele><time>2026-05-02T15:55:12.998Z</time></trkpt><trkpt lat="42.357043131597145" lon="13.40053646678008"><ele>700.0</ele><time>2026-05-02T15:55:13.998Z</time></trkpt><trkpt lat="42.35704304280067" lon="13.400622827990759"><ele>700.0</ele><time>2026-05-02T15:55:14.998Z</time></trkpt><trkpt lat="42.3570460548202" lon="13.400794439409175"><ele>700.0</ele><time>2026-05-02T15:55:16.998Z</time></trkpt><trkpt lat="42.357050237109014" lon="13.40088602494637"><ele>700.5</ele><time>2026-05-02T15:55:17.998Z</time></trkpt><trkpt lat="42.3570297449271" lon="13.400977660145504"><ele>701.0</ele><time>2026-05-02T15:55:18.998Z</time></trkpt><trkpt lat="42.35703060938635" lon="13.401064401260259"><ele>701.5</ele><time>2026-05-02T15:55:19.998Z</time></trkpt><trkpt lat="42.35705121627584" lon="13.401144977235338"><ele>702.0</ele><time>2026-05-02T15:55:20.998Z</time></trkpt><trkpt lat="42.35705574028771" lon="13.401299259472234"><ele>702.5</ele><time>2026-05-02T15:55:22.998Z</time></trkpt><trkpt lat="42.35706116170144" lon="13.401465030471888"><ele>703.0</ele><time>2026-05-02T15:55:24.998Z</time></trkpt><trkpt lat="42.35703608385554" lon="13.401555143426817"><ele>703.0</ele><time>2026-05-02T15:55:25.998Z</time></trkpt><trkpt lat="42.357037182249925" lon="13.401652136094665"><ele>703.0</ele><time>2026-05-02T15:55:26.998Z</time></trkpt><trkpt lat="42.357038367748906" lon="13.401757911561539"><ele>703.0</ele><time>2026-05-02T15:55:27.998Z</time></trkpt><trkpt lat="42.3570395784119" lon="13.401865932263592"><ele>703.0</ele><time>2026-05-02T15:55:28.998Z</time></trkpt><trkpt lat="42.357040753587256" lon="13.40197340237657"><ele>703.0</ele><time>2026-05-02T15:55:29.998Z</time></trkpt><trkpt lat="42.35704192317781" lon="13.40207651980924"><ele>703.0</ele><time>2026-05-02T15:55:30.998Z</time></trkpt><trkpt lat="42.35704362653446" lon="13.402176464211347"><ele>702.1666666666667</ele><time>2026-05-02T15:55:31.998Z</time></trkpt><trkpt lat="42.35704540556136" lon="13.402280848569312"><ele>701.3333333333334</ele><time>2026-05-02T15:55:32.998Z</time></trkpt><trkpt lat="42.357047679817214" lon="13.402381855593019"><ele>700.5</ele><time>2026-05-02T15:55:33.998Z</time></trkpt><trkpt lat="42.35704997214509" lon="13.402481396965642"><ele>699.6666666666666</ele><time>2026-05-02T15:55:34.998Z</time></trkpt><trkpt lat="42.357053084302514" lon="13.402582339503061"><ele>698.8333333333333</ele><time>2026-05-02T15:55:35.998Z</time></trkpt><trkpt lat="42.35706159476448" lon="13.402690163460486"><ele>698.0</ele><time>2026-05-02T15:55:36.998Z</time></trkpt><trkpt lat="42.357078780661915" lon="13.402795184201944"><ele>697.9999999999999</ele><time>2026-05-02T15:55:37.998Z</time></trkpt><trkpt lat="42.35710118241331" lon="13.402892618189409"><ele>698.0</ele><time>2026-05-02T15:55:38.998Z</time></trkpt><trkpt lat="42.35713644807127" lon="13.40298044521834"><ele>698.0</ele><time>2026-05-02T15:55:39.998Z</time></trkpt><trkpt lat="42.35716282276232" lon="13.40307430250096"><ele>698.0</ele><time>2026-05-02T15:55:40.998Z</time></trkpt><trkpt lat="42.35718267657077" lon="13.403171834571175"><ele>698.0</ele><time>2026-05-02T15:55:41.998Z</time></trkpt><trkpt lat="42.35721685934515" lon="13.403260668666853"><ele>697.9999999999999</ele><time>2026-05-02T15:55:42.998Z</time></trkpt><trkpt lat="42.35725287924648" lon="13.403346157324334"><ele>698.0</ele><time>2026-05-02T15:55:43.998Z</time></trkpt><trkpt lat="42.35728621121191" lon="13.403428718035691"><ele>698.6666666666666</ele><time>2026-05-02T15:55:44.998Z</time></trkpt><trkpt lat="42.357331004933975" lon="13.403500486030696"><ele>699.3333333333333</ele><time>2026-05-02T15:55:45.998Z</time></trkpt><trkpt lat="42.35738394340933" lon="13.403645457709203"><ele>700.0</ele><time>2026-05-02T15:55:47.998Z</time></trkpt><trkpt lat="42.3574402710086" lon="13.403797414930011"><ele>700.6666666666666</ele><time>2026-05-02T15:55:49.998Z</time></trkpt><trkpt lat="42.35746897057003" lon="13.403877410655145"><ele>701.3333333333334</ele><time>2026-05-02T15:55:50.998Z</time></trkpt><trkpt lat="42.3575022256231" lon="13.40395422385385"><ele>702.0</ele><time>2026-05-02T15:55:51.998Z</time></trkpt><trkpt lat="42.3575594820345" lon="13.404098972554863"><ele>702.0</ele><time>2026-05-02T15:55:53.998Z</time></trkpt><trkpt lat="42.3576075210514" lon="13.404248329070771"><ele>702.0</ele><time>2026-05-02T15:55:55.998Z</time></trkpt><trkpt lat="42.357649465540895" lon="13.40440163946946"><ele>702.0</ele><time>2026-05-02T15:55:57.998Z</time></trkpt><trkpt lat="42.35764722706637" lon="13.404562716572165"><ele>702.0</ele><time>2026-05-02T15:55:59.998Z</time></trkpt><trkpt lat="42.35760415595208" lon="13.4046953323158"><ele>703.0</ele><time>2026-05-02T15:56:01.998Z</time></trkpt><trkpt lat="42.35753046349368" lon="13.404809740213828"><ele>704.0</ele><time>2026-05-02T15:56:03.998Z</time></trkpt><trkpt lat="42.35747660858112" lon="13.404863134324309"><ele>705.0</ele><time>2026-05-02T15:56:04.998Z</time></trkpt><trkpt lat="42.35740790731039" lon="13.40489772145521"><ele>706.0</ele><time>2026-05-02T15:56:05.998Z</time></trkpt><trkpt lat="42.35733352606678" lon="13.404916068825248"><ele>707.0</ele><time>2026-05-02T15:56:06.998Z</time></trkpt><trkpt lat="42.357254244751076" lon="13.40492504174765"><ele>708.0</ele><time>2026-05-02T15:56:07.998Z</time></trkpt><trkpt lat="42.357171807403525" lon="13.404932832900347"><ele>708.0</ele><time>2026-05-02T15:56:08.998Z</time></trkpt><trkpt lat="42.35708908349942" lon="13.40494125876859"><ele>708.0</ele><time>2026-05-02T15:56:09.998Z</time></trkpt><trkpt lat="42.35701105634542" lon="13.404951323148959"><ele>708.0</ele><time>2026-05-02T15:56:10.998Z</time></trkpt><trkpt lat="42.35693718014155" lon="13.404963868734454"><ele>708.0</ele><time>2026-05-02T15:56:11.998Z</time></trkpt><trkpt lat="42.356862899382115" lon="13.404980803895256"><ele>708.0</ele><time>2026-05-02T15:56:12.998Z</time></trkpt><trkpt lat="42.35679079699171" lon="13.405011922977838"><ele>708.0</ele><time>2026-05-02T15:56:13.998Z</time></trkpt><trkpt lat="42.356720400801194" lon="13.40505267475343"><ele>708.0</ele><time>2026-05-02T15:56:14.998Z</time></trkpt><trkpt lat="42.35665326171034" lon="13.405098833095147"><ele>708.0</ele><time>2026-05-02T15:56:15.998Z</time></trkpt><trkpt lat="42.356593706093975" lon="13.405145491869646"><ele>708.0</ele><time>2026-05-02T15:56:16.998Z</time></trkpt><trkpt lat="42.3565384537983" lon="13.40519638648418"><ele>708.0</ele><time>2026-05-02T15:56:17.998Z</time></trkpt><trkpt lat="42.356482686560874" lon="13.405243736680948"><ele>708.0</ele><time>2026-05-02T15:56:18.998Z</time></trkpt><trkpt lat="42.356423676614654" lon="13.40529400167907"><ele>708.0</ele><time>2026-05-02T15:56:19.998Z</time></trkpt><trkpt lat="42.35636507286592" lon="13.405346237095172"><ele>708.0</ele><time>2026-05-02T15:56:20.998Z</time></trkpt><trkpt lat="42.356305218711" lon="13.405398737617192"><ele>708.5</ele><time>2026-05-02T15:56:21.998Z</time></trkpt><trkpt lat="42.356247876104874" lon="13.40544812236723"><ele>709.0</ele><time>2026-05-02T15:56:22.998Z</time></trkpt><trkpt lat="42.356192069911664" lon="13.40549790532843"><ele>709.5</ele><time>2026-05-02T15:56:23.998Z</time></trkpt><trkpt lat="42.35613970444322" lon="13.405548259779492"><ele>710.0</ele><time>2026-05-02T15:56:24.998Z</time></trkpt><trkpt lat="42.35603678291924" lon="13.405623650471826"><ele>710.5</ele><time>2026-05-02T15:56:26.998Z</time></trkpt><trkpt lat="42.35591994910221" lon="13.405625966083281"><ele>711.0</ele><time>2026-05-02T15:56:28.999Z</time></trkpt><trkpt lat="42.355859672006176" lon="13.405581244296975"><ele>711.0</ele><time>2026-05-02T15:56:29.999Z</time></trkpt><trkpt lat="42.35580840564156" lon="13.405506060894313"><ele>711.0</ele><time>2026-05-02T15:56:30.999Z</time></trkpt><trkpt lat="42.35576847748081" lon="13.405407572808661"><ele>711.0</ele><time>2026-05-02T15:56:31.999Z</time></trkpt><trkpt lat="42.35569483153397" lon="13.405379464367222"><ele>711.0</ele><time>2026-05-02T15:56:32.999Z</time></trkpt><trkpt lat="42.35571650157391" lon="13.405221243719797"><ele>711.0</ele><time>2026-05-02T15:56:33.999Z</time></trkpt><trkpt lat="42.35569566999377" lon="13.405136899335064"><ele>711.0</ele><time>2026-05-02T15:56:34.999Z</time></trkpt><trkpt lat="42.355661623548386" lon="13.404990044855431"><ele>711.0</ele><time>2026-05-02T15:56:36.999Z</time></trkpt><trkpt lat="42.35562977741328" lon="13.404849635366059"><ele>711.0</ele><time>2026-05-02T15:56:38.999Z</time></trkpt><trkpt lat="42.35559758638424" lon="13.404693873507677"><ele>711.0</ele><time>2026-05-02T15:56:40.996Z</time></trkpt><trkpt lat="42.35556090107326" lon="13.404533927650212"><ele>711.0</ele><time>2026-05-02T15:56:42.996Z</time></trkpt><trkpt lat="42.355539126619604" lon="13.404451096829996"><ele>711.0</ele><time>2026-05-02T15:56:43.996Z</time></trkpt><trkpt lat="42.35551523957493" lon="13.404364616742397"><ele>713.0</ele><time>2026-05-02T15:56:44.996Z</time></trkpt><trkpt lat="42.35549193263075" lon="13.40426755749648"><ele>715.0</ele><time>2026-05-02T15:56:45.996Z</time></trkpt><trkpt lat="42.35546899342079" lon="13.404164376025104"><ele>717.0</ele><time>2026-05-02T15:56:46.996Z</time></trkpt><trkpt lat="42.355443062102545" lon="13.404061190927354"><ele>719.0</ele><time>2026-05-02T15:56:47.996Z</time></trkpt><trkpt lat="42.35541818789077" lon="13.403951041628641"><ele>721.0</ele><time>2026-05-02T15:56:48.996Z</time></trkpt><trkpt lat="42.35539635689021" lon="13.403834690077247"><ele>723.0</ele><time>2026-05-02T15:56:49.996Z</time></trkpt><trkpt lat="42.35536911774399" lon="13.403716164850517"><ele>723.0</ele><time>2026-05-02T15:56:50.997Z</time></trkpt><trkpt lat="42.355340547647145" lon="13.403590713072026"><ele>723.0</ele><time>2026-05-02T15:56:51.997Z</time></trkpt><trkpt lat="42.35530801478917" lon="13.40346413312548"><ele>723.0</ele><time>2026-05-02T15:56:52.997Z</time></trkpt><trkpt lat="42.35526625135979" lon="13.403338597476388"><ele>723.0</ele><time>2026-05-02T15:56:53.997Z</time></trkpt><trkpt lat="42.355216984878474" lon="13.40321561991412"><ele>723.0</ele><time>2026-05-02T15:56:54.997Z</time></trkpt><trkpt lat="42.355162111210944" lon="13.403098514845377"><ele>721.8333333333334</ele><time>2026-05-02T15:56:55.997Z</time></trkpt><trkpt lat="42.35510375865286" lon="13.402994544211007"><ele>720.6666666666666</ele><time>2026-05-02T15:56:56.997Z</time></trkpt><trkpt lat="42.35504848389354" lon="13.402908732896417"><ele>719.5</ele><time>2026-05-02T15:56:57.997Z</time></trkpt><trkpt lat="42.35500064318903" lon="13.40283800422783"><ele>718.3333333333333</ele><time>2026-05-02T15:56:58.997Z</time></trkpt><trkpt lat="42.35491667395147" lon="13.402734562196983"><ele>717.1666666666666</ele><time>2026-05-02T15:57:00.997Z</time></trkpt><trkpt lat="42.35485578372064" lon="13.402662222837595"><ele>716.0</ele><time>2026-05-02T15:57:02.997Z</time></trkpt><trkpt lat="42.354801909779376" lon="13.402591249575288"><ele>716.0</ele><time>2026-05-02T15:57:05.998Z</time></trkpt><trkpt lat="42.354741624197736" lon="13.4025269563003"><ele>716.0</ele><time>2026-05-02T15:57:09.998Z</time></trkpt><trkpt lat="42.354659306279224" lon="13.4024449756375"><ele>716.0</ele><time>2026-05-02T15:57:12.998Z</time></trkpt><trkpt lat="42.35458591338634" lon="13.402352941184633"><ele>716.0</ele><time>2026-05-02T15:57:14.998Z</time></trkpt><trkpt lat="42.354498821834" lon="13.402243689227282"><ele>716.0</ele><time>2026-05-02T15:57:16.998Z</time></trkpt><trkpt lat="42.35440554631738" lon="13.402130401746689"><ele>718.0</ele><time>2026-05-02T15:57:18.998Z</time></trkpt><trkpt lat="42.35433212319507" lon="13.402028219033634"><ele>720.0</ele><time>2026-05-02T15:57:20.998Z</time></trkpt><trkpt lat="42.354305721183835" lon="13.401948378102189"><ele>722.0</ele><time>2026-05-02T15:57:22.998Z</time></trkpt><trkpt lat="42.35429886381274" lon="13.401835842739617"><ele>724.0</ele><time>2026-05-02T15:57:25.998Z</time></trkpt><trkpt lat="42.354308551942054" lon="13.401724976159663"><ele>726.0</ele><time>2026-05-02T15:57:27.998Z</time></trkpt><trkpt lat="42.354325800089896" lon="13.401595771130907"><ele>728.0</ele><time>2026-05-02T15:57:29.998Z</time></trkpt><trkpt lat="42.35433593006633" lon="13.401487334566594"><ele>728.0</ele><time>2026-05-02T15:57:31.998Z</time></trkpt><trkpt lat="42.35426037600677" lon="13.401390183718885"><ele>728.0</ele><time>2026-05-02T15:57:34.999Z</time></trkpt><trkpt lat="42.354176313067974" lon="13.401371779345375"><ele>728.0</ele><time>2026-05-02T15:57:37.999Z</time></trkpt><trkpt lat="42.354101515246654" lon="13.401349247197208"><ele>728.0</ele><time>2026-05-02T15:57:40.999Z</time></trkpt><trkpt lat="42.35401208506322" lon="13.401301974907698"><ele>728.0</ele><time>2026-05-02T15:57:43.999Z</time></trkpt><trkpt lat="42.353929703771975" lon="13.401257372270377"><ele>728.5</ele><time>2026-05-02T15:57:46.999Z</time></trkpt><trkpt lat="42.35387372016602" lon="13.401210293367484"><ele>729.0</ele><time>2026-05-02T15:57:48.999Z</time></trkpt><trkpt lat="42.35378010903521" lon="13.401212259006309"><ele>729.5</ele><time>2026-05-02T15:58:03.999Z</time></trkpt><trkpt lat="42.353708829044336" lon="13.401298786311783"><ele>730.0</ele><time>2026-05-02T15:58:05.999Z</time></trkpt><trkpt lat="42.353714550522014" lon="13.401390502802485"><ele>730.5</ele><time>2026-05-02T15:58:07.999Z</time></trkpt><trkpt lat="42.35377103938369" lon="13.401463108424863"><ele>731.0</ele><time>2026-05-02T15:58:09.999Z</time></trkpt><trkpt lat="42.35383109865557" lon="13.40152133140301"><ele>731.5999999999999</ele><time>2026-05-02T15:58:11.999Z</time></trkpt><trkpt lat="42.353751028620515" lon="13.401760536451343"><ele>732.2</ele><time>2026-05-02T15:58:16.999Z</time></trkpt><trkpt lat="42.353748434474234" lon="13.401875370963435"><ele>732.8</ele><time>2026-05-02T15:58:18.999Z</time></trkpt><trkpt lat="42.35374355299369" lon="13.401971071546406"><ele>733.4000000000001</ele><time>2026-05-02T15:58:21.999Z</time></trkpt><trkpt lat="42.353744365508526" lon="13.402067916450505"><ele>734.0</ele><time>2026-05-02T15:58:23.999Z</time></trkpt><trkpt lat="42.353737896719075" lon="13.402181276326523"><ele>734.1428571428571</ele><time>2026-05-02T15:58:25.999Z</time></trkpt><trkpt lat="42.353732450605534" lon="13.402282588801897"><ele>734.2857142857143</ele><time>2026-05-02T15:58:28.999Z</time></trkpt><trkpt lat="42.353738684299636" lon="13.402369263203584"><ele>734.4285714285714</ele><time>2026-05-02T15:58:30.999Z</time></trkpt><trkpt lat="42.35373119489994" lon="13.402469686124192"><ele>734.5714285714286</ele><time>2026-05-02T15:58:32.999Z</time></trkpt><trkpt lat="42.35376652902397" lon="13.402565267389392"><ele>734.7142857142858</ele><time>2026-05-02T15:58:36Z</time></trkpt><trkpt lat="42.35380263813384" lon="13.402659458433718"><ele>734.8571428571429</ele><time>2026-05-02T15:58:39Z</time></trkpt><trkpt lat="42.35384758689713" lon="13.402580373421193"><ele>735.0</ele><time>2026-05-02T15:58:43Z</time></trkpt><trkpt lat="42.353799479585014" lon="13.402511321972703"><ele>735.0</ele><time>2026-05-02T15:58:45.997Z</time></trkpt></trkseg></trk></gpx>